Hoppmann, Mario; Tippenhauer, Sandra; Lahajnar, Niko (2026): Continuous thermosalinograph oceanography along RV HEINCKE cruise track HE661 [dataset]. Alfred Wegener Institute, Helmholtz Centre for Polar and Marine Research, Bremerhaven, PANGAEA, https://doi.pangaea.de/10.1594/PANGAEA.993558 (DOI registration in progress)
Always quote citation above when using data! You can download the citation in several formats below.
Published: 2026-05-05
Abstract:
Raw data acquired by a thermosalinograph (SBE21, Sea-Bird GmbH) in combination with an external temperature sensor (SBE38, Sea-Bird GmbH) aboard RV Heincke were processed to generate a calibrated, quality-controlled dataset of seawater temperature and salinity. The raw sensor data were initially retrieved from the DSHIP database (https://dship.awi.de) at a temporal resolution of 1 second and converted into temperature and conductivity using the pre-deployment calibration coefficients. The thermosalinograph system aboard RV Heincke is typically replaced after each expedition season, with a recalibration conducted at the manufacturer's facilities after each exchange. After post-cruise recalibration of the instruments, additional correction factors were calculated and applied to account for sensor drift. Salinity was calculated from internally measured temperatures and conductivities following the Practical Salinity Scale (PSS-78). The processed dataset is provided as 1-minute averages of salinity and seawater external temperature, synchronized with the positional data from the expedition's master track. Quality flags were assigned in accordance with the SeaDataNet Data Quality Control Procedures (May 2010).
Related to:
Lahajnar, Niko (2025): Master tracks in different resolutions of HEINCKE cruise HE661, Bremerhaven - Bremerhaven, 2025-05-15 - 2025-05-21 [dataset]. Alfred Wegener Institute, Helmholtz Centre for Polar and Marine Research, Bremerhaven, PANGAEA, https://doi.org/10.1594/PANGAEA.982968
Lahajnar, Niko; Grolms, Nele; Hierlemann, Tim; Kast, Jakob; Lewe, Julia; Lüdmann, Thomas; Papke, Giulia; Pierau, Emily; Röschmann, Liza; Schulz, Gesa; Suchau, Caroline; Szuba, Malgorzata (2025): Marine-Geological Practical Training at Sea, Master Course LV 63-345, Cruise No. HE661, May 15 - May 21, 2025, Bremerhaven (Germany) – Bremerhaven (Germany). HEINCKE-Berichte, Begutachtungspanel Forschungsschiffe, HE661, 77 pp, https://doi.org/10.48433/cr_he661
Data processing report:
Hoppmann, Mario; Tippenhauer, Sandra (2026): Continuous thermosalinograph oceanography along RV HEINCKE cruise track HE661 - Data Processing Report. FIELAX - Gesellschaft für wissenschaftliche Datenverarbeitung mbH, HE661_TSG_nav.pdf
Project(s):
DAM Underway Research Data (DAM_Underway)
Physical Oceanography @ AWI (AWI_PhyOce)
Coverage:
Median Latitude: 56.359629 * Median Longitude: 4.375934 * South-bound Latitude: 53.851005 * West-bound Longitude: 2.835925 * North-bound Latitude: 57.738318 * East-bound Longitude: 8.120674
Date/Time Start: 2025-05-15T08:39:00 * Date/Time End: 2025-05-21T03:15:00
Minimum DEPTH, water: 2.0 m * Maximum DEPTH, water: 2.0 m
Event(s):
HE661_0_Underway-6 * Latitude Start: 53.892617 * Longitude Start: 8.066983 * Latitude End: 53.845984 * Longitude End: 8.115790 * Date/Time Start: 2025-05-15T08:39:50 * Date/Time End: 2025-05-21T03:16:55 * Elevation Start: -10.0 m * Elevation End: -11.0 m * O2A Registry URI: https://registry.o2a-data.de/items/8558 * Campaign: HE661 (UHH MARGEO) * Basis: Heincke * Method/Device: Thermosalinograph (TSG)
Parameter(s):
License:
Creative Commons Attribution 4.0 International (CC-BY-4.0)
Status:
Curation Level: Enhanced curation (CurationLevelC) * Processing Level: PANGAEA data processing level 2 (ProcLevel2)
Size:
47004 data points
Data
| 1 Date/Time | 2 Latitude | 3 Longitude | 4 Depth water [m] | 5 Temp [°C] | 6 QF water temp | 7 Cond [mS/cm] | 8 T intern [°C] | 9 Sal | 10 QF sal |
|---|---|---|---|---|---|---|---|---|---|
| 2025-05-15T08:39:00 | 53.891619 | 8.069987 | 2.0 | 12.884 | 2 | 37.058 | 13.140 | 31.181 | 2 |
| 2025-05-15T08:40:00 | 53.892714 | 8.066592 | 2.0 | 12.777 | 2 | 37.067 | 13.067 | 31.250 | 2 |
| 2025-05-15T08:41:00 | 53.893786 | 8.063219 | 2.0 | 12.837 | 2 | 37.056 | 12.977 | 31.314 | 2 |
| 2025-05-15T08:42:00 | 53.894863 | 8.059911 | 2.0 | 12.874 | 2 | 37.119 | 13.022 | 31.336 | 2 |
| 2025-05-15T08:43:00 | 53.895900 | 8.056655 | 2.0 | 12.840 | 2 | 37.172 | 13.050 | 31.362 | 2 |
| 2025-05-15T08:44:00 | 53.896886 | 8.053405 | 2.0 | 12.766 | 2 | 37.166 | 13.004 | 31.395 | 2 |
| 2025-05-15T08:45:00 | 53.897927 | 8.050139 | 2.0 | 12.720 | 2 | 37.133 | 12.935 | 31.421 | 2 |
| 2025-05-15T08:46:00 | 53.898930 | 8.046784 | 2.0 | 12.665 | 2 | 37.105 | 12.873 | 31.446 | 2 |
| 2025-05-15T08:47:00 | 53.899967 | 8.043442 | 2.0 | 12.591 | 2 | 37.093 | 12.826 | 31.474 | 2 |
| 2025-05-15T08:48:00 | 53.901212 | 8.040376 | 2.0 | 12.496 | 2 | 37.057 | 12.732 | 31.518 | 2 |
| 2025-05-15T08:49:00 | 53.902555 | 8.037410 | 2.0 | 12.470 | 2 | 37.038 | 12.679 | 31.545 | 2 |
| 2025-05-15T08:50:00 | 53.903846 | 8.034419 | 2.0 | 12.429 | 2 | 37.035 | 12.639 | 31.575 | 2 |
| 2025-05-15T08:51:00 | 53.905192 | 8.031324 | 2.0 | 12.422 | 2 | 37.045 | 12.623 | 31.598 | 2 |
| 2025-05-15T08:52:00 | 53.906565 | 8.028284 | 2.0 | 12.369 | 2 | 37.039 | 12.581 | 31.628 | 2 |
| 2025-05-15T08:53:00 | 53.907877 | 8.025269 | 2.0 | 12.376 | 2 | 37.024 | 12.551 | 31.639 | 2 |
| 2025-05-15T08:54:00 | 53.909246 | 8.022238 | 2.0 | 12.364 | 2 | 37.021 | 12.557 | 31.631 | 2 |
| 2025-05-15T08:55:00 | 53.910579 | 8.019226 | 2.0 | 12.346 | 2 | 37.014 | 12.543 | 31.636 | 2 |
| 2025-05-15T08:56:00 | 53.911942 | 8.016178 | 2.0 | 12.271 | 2 | 37.009 | 12.516 | 31.654 | 2 |
| 2025-05-15T08:57:00 | 53.913333 | 8.013033 | 2.0 | 12.193 | 2 | 37.014 | 12.444 | 31.719 | 2 |
| 2025-05-15T08:58:00 | 53.914730 | 8.009884 | 2.0 | 12.110 | 2 | 36.998 | 12.366 | 31.770 | 2 |
| 2025-05-15T08:59:00 | 53.916061 | 8.006788 | 2.0 | 11.960 | 2 | 36.976 | 12.280 | 31.822 | 2 |
| 2025-05-15T09:00:00 | 53.917455 | 8.003688 | 2.0 | 11.792 | 2 | 36.907 | 12.117 | 31.894 | 2 |
| 2025-05-15T09:01:00 | 53.918829 | 8.000584 | 2.0 | 11.604 | 2 | 36.855 | 11.940 | 31.996 | 2 |
| 2025-05-15T09:02:00 | 53.920117 | 7.997604 | 2.0 | 11.536 | 2 | 36.788 | 11.780 | 32.069 | 2 |
| 2025-05-15T09:03:00 | 53.921470 | 7.994603 | 2.0 | 11.512 | 2 | 36.758 | 11.716 | 32.095 | 2 |
| 2025-05-15T09:04:00 | 53.922877 | 7.991543 | 2.0 | 11.454 | 2 | 36.752 | 11.686 | 32.115 | 2 |
| 2025-05-15T09:05:00 | 53.924256 | 7.988484 | 2.0 | 11.239 | 2 | 36.702 | 11.569 | 32.168 | 2 |
| 2025-05-15T09:06:00 | 53.925993 | 7.985965 | 2.0 | 11.275 | 2 | 36.644 | 11.472 | 32.196 | 2 |
| 2025-05-15T09:07:00 | 53.928088 | 7.984361 | 2.0 | 11.346 | 2 | 36.659 | 11.482 | 32.202 | 2 |
| 2025-05-15T09:08:00 | 53.930309 | 7.983023 | 2.0 | 11.309 | 2 | 36.678 | 11.502 | 32.203 | 2 |
| 2025-05-15T09:09:00 | 53.932580 | 7.981966 | 2.0 | 11.239 | 2 | 36.672 | 11.480 | 32.216 | 2 |
| 2025-05-15T09:10:00 | 53.934854 | 7.980948 | 2.0 | 11.127 | 2 | 36.653 | 11.427 | 32.244 | 2 |
| 2025-05-15T09:11:00 | 53.937148 | 7.979970 | 2.0 | 10.868 | 2 | 36.608 | 11.291 | 32.318 | 2 |
| 2025-05-15T09:12:00 | 53.939495 | 7.978947 | 2.0 | 10.797 | 2 | 36.504 | 11.075 | 32.406 | 2 |
| 2025-05-15T09:13:00 | 53.941810 | 7.977869 | 2.0 | 10.778 | 2 | 36.441 | 10.984 | 32.424 | 2 |
| 2025-05-15T09:14:00 | 53.944136 | 7.976857 | 2.0 | 10.734 | 2 | 36.419 | 10.952 | 32.430 | 2 |
| 2025-05-15T09:15:00 | 53.946476 | 7.975805 | 2.0 | 10.731 | 2 | 36.403 | 10.922 | 32.441 | 2 |
| 2025-05-15T09:16:00 | 53.948868 | 7.974751 | 2.0 | 10.749 | 2 | 36.400 | 10.917 | 32.443 | 2 |
| 2025-05-15T09:17:00 | 53.951332 | 7.973663 | 2.0 | 10.767 | 2 | 36.416 | 10.938 | 32.440 | 2 |
| 2025-05-15T09:18:00 | 53.953769 | 7.972595 | 2.0 | 10.738 | 2 | 36.417 | 10.940 | 32.439 | 2 |
| 2025-05-15T09:19:00 | 53.956115 | 7.971497 | 2.0 | 10.718 | 2 | 36.396 | 10.914 | 32.441 | 2 |
| 2025-05-15T09:20:00 | 53.958501 | 7.970394 | 2.0 | 10.385 | 2 | 36.368 | 10.831 | 32.487 | 2 |
| 2025-05-15T09:21:00 | 53.960881 | 7.969287 | 2.0 | 10.387 | 2 | 36.215 | 10.606 | 32.535 | 2 |
| 2025-05-15T09:22:00 | 53.963245 | 7.968227 | 2.0 | 10.455 | 2 | 36.165 | 10.598 | 32.492 | 2 |
| 2025-05-15T09:23:00 | 53.965624 | 7.967128 | 2.0 | 10.504 | 2 | 36.130 | 10.653 | 32.408 | 2 |
| 2025-05-15T09:24:00 | 53.967971 | 7.966073 | 2.0 | 10.548 | 2 | 36.114 | 10.701 | 32.350 | 2 |
| 2025-05-15T09:25:00 | 53.970268 | 7.964993 | 2.0 | 10.560 | 2 | 36.105 | 10.737 | 32.309 | 2 |
| 2025-05-15T09:26:00 | 53.972622 | 7.963925 | 2.0 | 10.599 | 2 | 36.092 | 10.759 | 32.276 | 2 |
| 2025-05-15T09:27:00 | 53.975013 | 7.962853 | 2.0 | 10.627 | 2 | 36.082 | 10.792 | 32.237 | 2 |
| 2025-05-15T09:28:00 | 53.977339 | 7.961813 | 2.0 | 10.667 | 2 | 36.063 | 10.814 | 32.199 | 2 |
| 2025-05-15T09:29:00 | 53.979690 | 7.960770 | 2.0 | 10.713 | 2 | 36.052 | 10.857 | 32.151 | 2 |
| 2025-05-15T09:30:00 | 53.982137 | 7.960100 | 2.0 | 10.741 | 2 | 36.052 | 10.896 | 32.116 | 2 |
| 2025-05-15T09:31:00 | 53.984528 | 7.959349 | 2.0 | 10.814 | 2 | 36.053 | 10.934 | 32.084 | 2 |
| 2025-05-15T09:32:00 | 53.986938 | 7.958611 | 2.0 | 10.890 | 2 | 36.064 | 11.006 | 32.032 | 2 |
| 2025-05-15T09:33:00 | 53.989335 | 7.957922 | 2.0 | 10.982 | 2 | 36.068 | 11.081 | 31.971 | 2 |
| 2025-05-15T09:34:00 | 53.991702 | 7.957248 | 2.0 | 11.073 | 2 | 36.071 | 11.176 | 31.891 | 2 |
| 2025-05-15T09:35:00 | 53.994126 | 7.956619 | 2.0 | 11.185 | 2 | 36.072 | 11.265 | 31.815 | 2 |
| 2025-05-15T09:36:00 | 53.996515 | 7.955982 | 2.0 | 11.216 | 2 | 36.067 | 11.362 | 31.727 | 2 |
| 2025-05-15T09:37:00 | 53.998898 | 7.955353 | 2.0 | 11.176 | 2 | 36.027 | 11.385 | 31.668 | 2 |
| 2025-05-15T09:38:00 | 54.001194 | 7.954674 | 2.0 | 11.201 | 2 | 35.980 | 11.361 | 31.643 | 2 |
| 2025-05-15T09:39:00 | 54.003543 | 7.954028 | 2.0 | 11.185 | 2 | 35.983 | 11.378 | 31.631 | 2 |
| 2025-05-15T09:40:00 | 54.005961 | 7.953350 | 2.0 | 11.215 | 2 | 35.936 | 11.370 | 31.592 | 2 |
| 2025-05-15T09:41:00 | 54.008424 | 7.952754 | 2.0 | 11.266 | 2 | 35.928 | 11.407 | 31.552 | 2 |
| 2025-05-15T09:42:00 | 54.010793 | 7.952098 | 2.0 | 11.340 | 2 | 35.943 | 11.456 | 31.525 | 2 |
| 2025-05-15T09:43:00 | 54.013076 | 7.951506 | 2.0 | 11.386 | 2 | 35.906 | 11.519 | 31.436 | 2 |
| 2025-05-15T09:44:00 | 54.015241 | 7.950822 | 2.0 | 11.453 | 2 | 35.889 | 11.582 | 31.366 | 2 |
| 2025-05-15T09:45:00 | 54.017463 | 7.950293 | 2.0 | 11.474 | 2 | 35.877 | 11.633 | 31.311 | 2 |
| 2025-05-15T09:46:00 | 54.019695 | 7.949675 | 2.0 | 11.575 | 2 | 35.861 | 11.667 | 31.267 | 2 |
| 2025-05-15T09:47:00 | 54.021962 | 7.949036 | 2.0 | 11.629 | 2 | 35.856 | 11.755 | 31.188 | 2 |
| 2025-05-15T09:48:00 | 54.024204 | 7.948466 | 2.0 | 11.682 | 2 | 35.848 | 11.813 | 31.132 | 2 |
| 2025-05-15T09:49:00 | 54.026457 | 7.947826 | 2.0 | 11.709 | 2 | 35.840 | 11.858 | 31.086 | 2 |
| 2025-05-15T09:50:00 | 54.028711 | 7.947283 | 2.0 | 11.715 | 2 | 35.830 | 11.878 | 31.060 | 2 |
| 2025-05-15T09:51:00 | 54.030944 | 7.946612 | 2.0 | 11.814 | 2 | 35.813 | 11.903 | 31.023 | 2 |
| 2025-05-15T09:52:00 | 54.033196 | 7.945926 | 2.0 | 11.855 | 2 | 35.815 | 11.996 | 30.947 | 2 |
| 2025-05-15T09:53:00 | 54.035500 | 7.945342 | 2.0 | 11.819 | 2 | 35.807 | 12.022 | 30.918 | 2 |
| 2025-05-15T09:54:00 | 54.037792 | 7.944716 | 2.0 | 11.858 | 2 | 35.789 | 12.001 | 30.918 | 2 |
| 2025-05-15T09:55:00 | 54.040101 | 7.944075 | 2.0 | 11.842 | 2 | 35.787 | 12.029 | 30.893 | 2 |
| 2025-05-15T09:56:00 | 54.042438 | 7.943465 | 2.0 | 11.820 | 2 | 35.781 | 12.015 | 30.899 | 2 |
| 2025-05-15T09:57:00 | 54.044837 | 7.942846 | 2.0 | 11.852 | 2 | 35.794 | 12.002 | 30.922 | 2 |
| 2025-05-15T09:58:00 | 54.047208 | 7.942218 | 2.0 | 11.832 | 2 | 35.830 | 12.019 | 30.943 | 2 |
| 2025-05-15T09:59:00 | 54.049570 | 7.941595 | 2.0 | 11.855 | 2 | 35.830 | 12.016 | 30.945 | 2 |
| 2025-05-15T10:00:00 | 54.051838 | 7.940955 | 2.0 | 11.882 | 2 | 35.835 | 12.035 | 30.934 | 2 |
| 2025-05-15T10:01:00 | 54.054114 | 7.940362 | 2.0 | 11.866 | 2 | 35.849 | 12.053 | 30.933 | 2 |
| 2025-05-15T10:02:00 | 54.056382 | 7.939724 | 2.0 | 11.866 | 2 | 35.845 | 12.041 | 30.939 | 2 |
| 2025-05-15T10:03:00 | 54.058664 | 7.939152 | 2.0 | 11.886 | 2 | 35.830 | 12.046 | 30.920 | 2 |
| 2025-05-15T10:04:00 | 54.061012 | 7.938515 | 2.0 | 11.904 | 2 | 35.826 | 12.060 | 30.905 | 2 |
| 2025-05-15T10:05:00 | 54.063346 | 7.937876 | 2.0 | 11.915 | 2 | 35.834 | 12.082 | 30.894 | 2 |
| 2025-05-15T10:06:00 | 54.065727 | 7.937208 | 2.0 | 11.920 | 2 | 35.843 | 12.087 | 30.899 | 2 |
| 2025-05-15T10:07:00 | 54.068118 | 7.936621 | 2.0 | 11.937 | 2 | 35.847 | 12.096 | 30.895 | 2 |
| 2025-05-15T10:08:00 | 54.070065 | 7.936216 | 2.0 | 11.946 | 2 | 35.852 | 12.113 | 30.886 | 2 |
| 2025-05-15T10:09:00 | 54.071614 | 7.935833 | 2.0 | 11.964 | 2 | 35.850 | 12.126 | 30.873 | 2 |
| 2025-05-15T10:10:00 | 54.073008 | 7.935388 | 2.0 | 11.915 | 2 | 35.861 | 12.133 | 30.878 | 2 |
| 2025-05-15T10:11:00 | 54.074440 | 7.934980 | 2.0 | 11.907 | 2 | 35.847 | 12.089 | 30.901 | 2 |
| 2025-05-15T10:12:00 | 54.075837 | 7.934595 | 2.0 | 11.871 | 2 | 35.853 | 12.083 | 30.912 | 2 |
| 2025-05-15T10:13:00 | 54.077203 | 7.934208 | 2.0 | 11.864 | 2 | 35.843 | 12.044 | 30.935 | 2 |
| 2025-05-15T10:14:00 | 54.078468 | 7.933871 | 2.0 | 11.867 | 2 | 35.839 | 12.041 | 30.933 | 2 |
| 2025-05-15T10:15:00 | 54.079795 | 7.933484 | 2.0 | 11.864 | 2 | 35.834 | 12.042 | 30.928 | 2 |
| 2025-05-15T10:16:00 | 54.081159 | 7.933116 | 2.0 | 11.846 | 2 | 35.828 | 12.036 | 30.927 | 2 |
| 2025-05-15T10:17:00 | 54.082511 | 7.932703 | 2.0 | 11.843 | 2 | 35.817 | 12.020 | 30.930 | 2 |
| 2025-05-15T10:18:00 | 54.083807 | 7.932365 | 2.0 | 11.886 | 2 | 35.633 | 12.033 | 30.742 | 2 |
| 2025-05-15T10:19:00 | 54.085128 | 7.932001 | 2.0 | 11.862 | 2 | 35.706 | 12.052 | 30.797 | 2 |
| 2025-05-15T10:20:00 | 54.086486 | 7.931601 | 2.0 | 11.836 | 2 | 35.731 | 12.033 | 30.836 | 2 |
| 2025-05-15T10:21:00 | 54.087804 | 7.931221 | 2.0 | 11.831 | 2 | 35.654 | 12.011 | 30.781 | 2 |
| 2025-05-15T10:22:00 | 54.089132 | 7.930908 | 2.0 | 11.814 | 2 | 35.688 | 12.004 | 30.819 | 2 |
| 2025-05-15T10:23:00 | 54.090352 | 7.930639 | 2.0 | 11.810 | 2 | 35.689 | 11.989 | 30.832 | 2 |
| 2025-05-15T10:24:00 | 54.091716 | 7.930161 | 2.0 | 11.824 | 2 | 35.655 | 11.989 | 30.800 | 2 |
| 2025-05-15T10:25:00 | 54.093153 | 7.929678 | 2.0 | 11.809 | 2 | 35.733 | 11.997 | 30.868 | 2 |
| 2025-05-15T10:26:00 | 54.094683 | 7.929267 | 2.0 | 11.815 | 2 | 35.684 | 11.985 | 30.831 | 2 |
| 2025-05-15T10:27:00 | 54.096265 | 7.929040 | 2.0 | 11.810 | 2 | 35.722 | 11.987 | 30.866 | 2 |
| 2025-05-15T10:28:00 | 54.097800 | 7.928718 | 2.0 | 11.805 | 2 | 35.749 | 11.985 | 30.893 | 2 |
| 2025-05-15T10:29:00 | 54.099374 | 7.928301 | 2.0 | 11.787 | 2 | 35.727 | 11.980 | 30.876 | 2 |
| 2025-05-15T10:30:00 | 54.101008 | 7.927941 | 2.0 | 11.765 | 2 | 35.737 | 11.962 | 30.901 | 2 |
| 2025-05-15T10:31:00 | 54.102636 | 7.927670 | 2.0 | 11.716 | 2 | 35.741 | 11.937 | 30.925 | 2 |
| 2025-05-15T10:32:00 | 54.104165 | 7.927344 | 2.0 | 11.733 | 2 | 35.782 | 11.896 | 30.999 | 2 |
| 2025-05-15T10:33:00 | 54.105658 | 7.927000 | 2.0 | 11.779 | 2 | 35.817 | 11.920 | 31.013 | 2 |
| 2025-05-15T10:34:00 | 54.107163 | 7.926610 | 2.0 | 11.802 | 2 | 35.854 | 11.953 | 31.021 | 2 |
| 2025-05-15T10:35:00 | 54.108751 | 7.926328 | 2.0 | 11.833 | 2 | 35.861 | 11.982 | 31.003 | 2 |
| 2025-05-15T10:36:00 | 54.110350 | 7.926078 | 2.0 | 11.844 | 2 | 35.920 | 12.006 | 31.040 | 2 |
| 2025-05-15T10:37:00 | 54.111937 | 7.925752 | 2.0 | 11.855 | 2 | 35.928 | 12.021 | 31.035 | 2 |
| 2025-05-15T10:38:00 | 54.113490 | 7.925409 | 2.0 | 11.881 | 2 | 35.944 | 12.035 | 31.039 | 2 |
| 2025-05-15T10:39:00 | 54.115057 | 7.925084 | 2.0 | 11.891 | 2 | 35.981 | 12.057 | 31.056 | 2 |
| 2025-05-15T10:40:00 | 54.116615 | 7.924739 | 2.0 | 11.913 | 2 | 35.972 | 12.070 | 31.037 | 2 |
| 2025-05-15T10:41:00 | 54.118022 | 7.924626 | 2.0 | 11.924 | 2 | 35.983 | 12.084 | 31.036 | 2 |
| 2025-05-15T10:42:00 | 54.119282 | 7.924461 | 2.0 | 11.931 | 2 | 36.019 | 12.106 | 31.052 | 2 |
| 2025-05-15T10:43:00 | 54.120508 | 7.924242 | 2.0 | 11.930 | 2 | 36.033 | 12.094 | 31.075 | 2 |
| 2025-05-15T10:44:00 | 54.121721 | 7.924010 | 2.0 | 11.957 | 2 | 36.035 | 12.113 | 31.061 | 2 |
| 2025-05-15T10:45:00 | 54.122953 | 7.923826 | 2.0 | 11.962 | 2 | 36.050 | 12.128 | 31.063 | 2 |
| 2025-05-15T10:46:00 | 54.124169 | 7.923670 | 2.0 | 11.964 | 2 | 36.046 | 12.137 | 31.052 | 2 |
| 2025-05-15T10:47:00 | 54.125384 | 7.923501 | 2.0 | 11.962 | 2 | 36.057 | 12.134 | 31.065 | 2 |
| 2025-05-15T10:48:00 | 54.126574 | 7.923269 | 2.0 | 11.955 | 2 | 36.054 | 12.131 | 31.065 | 2 |
| 2025-05-15T10:49:00 | 54.127764 | 7.923137 | 2.0 | 11.956 | 2 | 36.051 | 12.128 | 31.064 | 2 |
| 2025-05-15T10:50:00 | 54.128904 | 7.923050 | 2.0 | 11.954 | 2 | 36.053 | 12.129 | 31.065 | 2 |
| 2025-05-15T10:51:00 | 54.129974 | 7.922932 | 2.0 | 11.950 | 2 | 36.052 | 12.125 | 31.068 | 2 |
| 2025-05-15T10:52:00 | 54.130971 | 7.922643 | 2.0 | 11.958 | 2 | 36.054 | 12.128 | 31.067 | 2 |
| 2025-05-15T10:53:00 | 54.132039 | 7.922401 | 2.0 | 11.948 | 2 | 36.055 | 12.128 | 31.068 | 2 |
| 2025-05-15T10:54:00 | 54.133190 | 7.922216 | 2.0 | 11.952 | 2 | 36.052 | 12.123 | 31.069 | 2 |
| 2025-05-15T10:55:00 | 54.134391 | 7.922091 | 2.0 | 11.959 | 2 | 36.056 | 12.129 | 31.068 | 2 |
| 2025-05-15T10:56:00 | 54.135607 | 7.921932 | 2.0 | 11.954 | 2 | 36.057 | 12.129 | 31.069 | 2 |
| 2025-05-15T10:57:00 | 54.136817 | 7.921772 | 2.0 | 11.949 | 2 | 36.054 | 12.126 | 31.069 | 2 |
| 2025-05-15T10:58:00 | 54.137994 | 7.921514 | 2.0 | 11.952 | 2 | 36.051 | 12.122 | 31.069 | 2 |
| 2025-05-15T10:59:00 | 54.139185 | 7.921230 | 2.0 | 11.946 | 2 | 36.052 | 12.122 | 31.070 | 2 |
| 2025-05-15T11:00:00 | 54.140428 | 7.921067 | 2.0 | 11.937 | 2 | 36.047 | 12.115 | 31.071 | 2 |
| 2025-05-15T11:01:00 | 54.141671 | 7.920964 | 2.0 | 11.940 | 2 | 36.042 | 12.110 | 31.070 | 2 |
| 2025-05-15T11:02:00 | 54.142892 | 7.920818 | 2.0 | 11.940 | 2 | 36.044 | 12.112 | 31.071 | 2 |
| 2025-05-15T11:03:00 | 54.144077 | 7.920710 | 2.0 | 11.937 | 2 | 36.047 | 12.112 | 31.074 | 2 |
| 2025-05-15T11:04:00 | 54.145085 | 7.920634 | 2.0 | 11.939 | 2 | 36.046 | 12.109 | 31.075 | 2 |
| 2025-05-15T11:05:00 | 54.145890 | 7.920475 | 2.0 | 11.921 | 2 | 36.055 | 12.115 | 31.079 | 2 |
| 2025-05-15T11:06:00 | 54.146541 | 7.920304 | 2.0 | 11.909 | 2 | 36.046 | 12.088 | 31.093 | 2 |
| 2025-05-15T11:07:00 | 54.147041 | 7.920067 | 2.0 | 11.878 | 2 | 36.038 | 12.074 | 31.097 | 2 |
| 2025-05-15T11:08:00 | 54.147463 | 7.919719 | 2.0 | 11.871 | 2 | 36.021 | 12.048 | 31.102 | 2 |
| 2025-05-15T11:09:00 | 54.147798 | 7.919389 | 2.0 | 11.934 | 2 | 36.022 | 12.058 | 31.095 | 2 |
| 2025-05-15T11:10:00 | 54.148095 | 7.919082 | 2.0 | 11.948 | 2 | 36.054 | 12.105 | 31.086 | 2 |
| 2025-05-15T11:11:00 | 54.148387 | 7.918761 | 2.0 | 11.960 | 2 | 36.072 | 12.122 | 31.089 | 2 |
| 2025-05-15T11:12:00 | 54.148674 | 7.918434 | 2.0 | 11.947 | 2 | 36.085 | 12.129 | 31.096 | 2 |
| 2025-05-15T11:13:00 | 54.148928 | 7.918102 | 2.0 | 11.954 | 2 | 36.089 | 12.119 | 31.108 | 2 |
| 2025-05-15T11:14:00 | 54.149155 | 7.917714 | 2.0 | 11.909 | 2 | 36.106 | 12.119 | 31.124 | 2 |
| 2025-05-15T11:15:00 | 54.149378 | 7.917327 | 2.0 | 11.889 | 2 | 36.092 | 12.077 | 31.146 | 2 |
| 2025-05-15T11:16:00 | 54.149539 | 7.916997 | 2.0 | 11.897 | 2 | 36.082 | 12.060 | 31.150 | 2 |
| 2025-05-15T11:17:00 | 54.149652 | 7.916722 | 2.0 | 11.900 | 2 | 36.100 | 12.072 | 31.158 | 2 |
| 2025-05-15T11:18:00 | 54.149706 | 7.916541 | 2.0 | 11.895 | 2 | 36.112 | 12.070 | 31.171 | 2 |
| 2025-05-15T11:19:00 | 54.149743 | 7.916413 | 2.0 | 11.891 | 2 | 36.119 | 12.065 | 31.182 | 2 |
| 2025-05-15T11:20:00 | 54.149780 | 7.916276 | 2.0 | 11.870 | 2 | 36.120 | 12.060 | 31.187 | 2 |
| 2025-05-15T11:21:00 | 54.149785 | 7.916166 | 2.0 | 11.876 | 2 | 36.113 | 12.046 | 31.192 | 2 |
| 2025-05-15T11:22:00 | 54.149759 | 7.916070 | 2.0 | 11.871 | 2 | 36.120 | 12.048 | 31.197 | 2 |
| 2025-05-15T11:23:00 | 54.149713 | 7.915987 | 2.0 | 11.875 | 2 | 36.120 | 12.044 | 31.200 | 2 |
| 2025-05-15T11:24:00 | 54.149656 | 7.915900 | 2.0 | 11.878 | 2 | 36.126 | 12.049 | 31.202 | 2 |
| 2025-05-15T11:25:00 | 54.149611 | 7.915794 | 2.0 | 11.880 | 2 | 36.132 | 12.051 | 31.206 | 2 |
| 2025-05-15T11:26:00 | 54.149563 | 7.915740 | 2.0 | 11.873 | 2 | 36.138 | 12.051 | 31.212 | 2 |
| 2025-05-15T11:27:00 | 54.149518 | 7.915665 | 2.0 | 11.868 | 2 | 36.137 | 12.043 | 31.217 | 2 |
| 2025-05-15T11:28:00 | 54.149477 | 7.915561 | 2.0 | 11.867 | 2 | 36.136 | 12.040 | 31.219 | 2 |
| 2025-05-15T11:29:00 | 54.149468 | 7.915447 | 2.0 | 11.869 | 2 | 36.138 | 12.040 | 31.221 | 2 |
| 2025-05-15T11:30:00 | 54.149464 | 7.915323 | 2.0 | 11.847 | 2 | 36.154 | 12.040 | 31.236 | 2 |
| 2025-05-15T11:31:00 | 54.149422 | 7.915196 | 2.0 | 11.777 | 2 | 36.159 | 12.008 | 31.268 | 2 |
| 2025-05-15T11:32:00 | 54.149369 | 7.915108 | 2.0 | 11.733 | 2 | 36.135 | 11.946 | 31.297 | 2 |
| 2025-05-15T11:33:00 | 54.149366 | 7.914993 | 2.0 | 11.728 | 2 | 36.109 | 11.907 | 31.304 | 2 |
| 2025-05-15T11:34:00 | 54.149379 | 7.914874 | 2.0 | 11.736 | 2 | 36.108 | 11.905 | 31.305 | 2 |
| 2025-05-15T11:35:00 | 54.149376 | 7.914786 | 2.0 | 11.729 | 2 | 36.113 | 11.908 | 31.307 | 2 |
| 2025-05-15T11:36:00 | 54.149380 | 7.914697 | 2.0 | 11.722 | 2 | 36.106 | 11.901 | 31.307 | 2 |
| 2025-05-15T11:37:00 | 54.149412 | 7.914596 | 2.0 | 11.722 | 2 | 36.101 | 11.897 | 31.305 | 2 |
| 2025-05-15T11:38:00 | 54.149443 | 7.914472 | 2.0 | 11.716 | 2 | 36.101 | 11.894 | 31.308 | 2 |
| 2025-05-15T11:39:00 | 54.149489 | 7.914344 | 2.0 | 11.705 | 2 | 36.097 | 11.885 | 31.311 | 2 |
| 2025-05-15T11:40:00 | 54.149526 | 7.914240 | 2.0 | 11.705 | 2 | 36.094 | 11.878 | 31.314 | 2 |
| 2025-05-15T11:41:00 | 54.149459 | 7.914188 | 2.0 | 11.707 | 2 | 36.107 | 11.877 | 31.328 | 2 |
| 2025-05-15T11:42:00 | 54.149345 | 7.914149 | 2.0 | 11.713 | 2 | 36.117 | 11.880 | 31.335 | 2 |
| 2025-05-15T11:43:00 | 54.149288 | 7.914080 | 2.0 | 11.707 | 2 | 36.119 | 11.884 | 31.333 | 2 |
| 2025-05-15T11:44:00 | 54.149282 | 7.913978 | 2.0 | 11.705 | 2 | 36.116 | 11.882 | 31.332 | 2 |
| 2025-05-15T11:45:00 | 54.149216 | 7.913894 | 2.0 | 11.696 | 2 | 36.109 | 11.875 | 31.331 | 2 |
| 2025-05-15T11:46:00 | 54.149149 | 7.913819 | 2.0 | 11.691 | 2 | 36.101 | 11.869 | 31.329 | 2 |
| 2025-05-15T11:47:00 | 54.149150 | 7.913741 | 2.0 | 11.683 | 2 | 36.093 | 11.862 | 31.327 | 2 |
| 2025-05-15T11:48:00 | 54.149251 | 7.913659 | 2.0 | 11.668 | 2 | 36.082 | 11.854 | 31.323 | 2 |
| 2025-05-15T11:49:00 | 54.149338 | 7.913591 | 2.0 | 11.670 | 2 | 36.065 | 11.841 | 31.318 | 2 |
| 2025-05-15T11:50:00 | 54.149351 | 7.913510 | 2.0 | 11.663 | 2 | 36.067 | 11.843 | 31.318 | 2 |
| 2025-05-15T11:51:00 | 54.149311 | 7.913436 | 2.0 | 11.659 | 2 | 36.060 | 11.835 | 31.318 | 2 |
| 2025-05-15T11:52:00 | 54.149303 | 7.913347 | 2.0 | 11.660 | 2 | 36.055 | 11.832 | 31.315 | 2 |
| 2025-05-15T11:53:00 | 54.149288 | 7.913293 | 2.0 | 11.659 | 2 | 36.055 | 11.834 | 31.314 | 2 |
| 2025-05-15T11:54:00 | 54.149286 | 7.913212 | 2.0 | 11.664 | 2 | 36.056 | 11.836 | 31.313 | 2 |
| 2025-05-15T11:55:00 | 54.149292 | 7.913152 | 2.0 | 11.669 | 2 | 36.058 | 11.837 | 31.314 | 2 |
| 2025-05-15T11:56:00 | 54.149333 | 7.913100 | 2.0 | 11.667 | 2 | 36.062 | 11.841 | 31.315 | 2 |
| 2025-05-15T11:57:00 | 54.149400 | 7.913050 | 2.0 | 11.671 | 2 | 36.061 | 11.840 | 31.315 | 2 |
| 2025-05-15T11:58:00 | 54.149451 | 7.913022 | 2.0 | 11.672 | 2 | 36.065 | 11.844 | 31.315 | 2 |
| 2025-05-15T11:59:00 | 54.149518 | 7.912946 | 2.0 | 11.682 | 2 | 36.070 | 11.846 | 31.318 | 2 |
| 2025-05-15T12:00:00 | 54.149574 | 7.912898 | 2.0 | 11.685 | 2 | 36.085 | 11.855 | 31.325 | 2 |
| 2025-05-15T12:01:00 | 54.149647 | 7.912887 | 2.0 | 11.683 | 2 | 36.093 | 11.856 | 31.332 | 2 |
| 2025-05-15T12:02:00 | 54.149737 | 7.912885 | 2.0 | 11.681 | 2 | 36.093 | 11.854 | 31.334 | 2 |
| 2025-05-15T12:03:00 | 54.149828 | 7.912845 | 2.0 | 11.683 | 2 | 36.093 | 11.854 | 31.334 | 2 |
| 2025-05-15T12:04:00 | 54.149852 | 7.912791 | 2.0 | 11.687 | 2 | 36.094 | 11.856 | 31.333 | 2 |
| 2025-05-15T12:05:00 | 54.149780 | 7.912703 | 2.0 | 11.690 | 2 | 36.096 | 11.860 | 31.331 | 2 |
| 2025-05-15T12:06:00 | 54.149743 | 7.912566 | 2.0 | 11.693 | 2 | 36.098 | 11.863 | 31.331 | 2 |
| 2025-05-15T12:07:00 | 54.149712 | 7.912512 | 2.0 | 11.699 | 2 | 36.099 | 11.867 | 31.328 | 2 |
| 2025-05-15T12:08:00 | 54.149732 | 7.912463 | 2.0 | 11.700 | 2 | 36.101 | 11.872 | 31.326 | 2 |
| 2025-05-15T12:09:00 | 54.149832 | 7.912442 | 2.0 | 11.709 | 2 | 36.102 | 11.874 | 31.325 | 2 |
| 2025-05-15T12:10:00 | 54.149904 | 7.912416 | 2.0 | 11.709 | 2 | 36.105 | 11.881 | 31.322 | 2 |
| 2025-05-15T12:11:00 | 54.149892 | 7.912389 | 2.0 | 11.710 | 2 | 36.104 | 11.881 | 31.322 | 2 |
| 2025-05-15T12:12:00 | 54.149865 | 7.912280 | 2.0 | 11.712 | 2 | 36.104 | 11.882 | 31.321 | 2 |
| 2025-05-15T12:13:00 | 54.149820 | 7.912215 | 2.0 | 11.712 | 2 | 36.105 | 11.883 | 31.321 | 2 |
| 2025-05-15T12:14:00 | 54.149792 | 7.912120 | 2.0 | 11.714 | 2 | 36.106 | 11.885 | 31.320 | 2 |
| 2025-05-15T12:15:00 | 54.149789 | 7.912025 | 2.0 | 11.715 | 2 | 36.107 | 11.885 | 31.321 | 2 |
| 2025-05-15T12:16:00 | 54.149817 | 7.911973 | 2.0 | 11.719 | 2 | 36.110 | 11.888 | 31.321 | 2 |
| 2025-05-15T12:17:00 | 54.149831 | 7.912034 | 2.0 | 11.727 | 2 | 36.114 | 11.893 | 31.321 | 2 |
| 2025-05-15T12:18:00 | 54.149827 | 7.912104 | 2.0 | 11.732 | 2 | 36.122 | 11.900 | 31.323 | 2 |
| 2025-05-15T12:19:00 | 54.149834 | 7.912024 | 2.0 | 11.733 | 2 | 36.126 | 11.903 | 31.324 | 2 |
| 2025-05-15T12:20:00 | 54.149879 | 7.911972 | 2.0 | 11.736 | 2 | 36.128 | 11.904 | 31.325 | 2 |
| 2025-05-15T12:21:00 | 54.149928 | 7.911988 | 2.0 | 11.741 | 2 | 36.134 | 11.908 | 31.328 | 2 |
| 2025-05-15T12:22:00 | 54.149991 | 7.912012 | 2.0 | 11.745 | 2 | 36.141 | 11.914 | 31.329 | 2 |
| 2025-05-15T12:23:00 | 54.150015 | 7.912032 | 2.0 | 11.744 | 2 | 36.144 | 11.915 | 31.331 | 2 |
| 2025-05-15T12:24:00 | 54.149957 | 7.912016 | 2.0 | 11.744 | 2 | 36.145 | 11.916 | 31.332 | 2 |
| 2025-05-15T12:25:00 | 54.149948 | 7.911972 | 2.0 | 11.743 | 2 | 36.146 | 11.916 | 31.333 | 2 |
| 2025-05-15T12:26:00 | 54.150049 | 7.911980 | 2.0 | 11.739 | 2 | 36.144 | 11.914 | 31.332 | 2 |
| 2025-05-15T12:27:00 | 54.150109 | 7.911990 | 2.0 | 11.748 | 2 | 36.141 | 11.912 | 31.331 | 2 |
| 2025-05-15T12:28:00 | 54.150047 | 7.911937 | 2.0 | 11.755 | 2 | 36.149 | 11.920 | 31.332 | 2 |
| 2025-05-15T12:29:00 | 54.149978 | 7.911745 | 2.0 | 11.753 | 2 | 36.154 | 11.926 | 31.332 | 2 |
| 2025-05-15T12:30:00 | 54.149932 | 7.911615 | 2.0 | 11.752 | 2 | 36.152 | 11.924 | 31.332 | 2 |
| 2025-05-15T12:31:00 | 54.149965 | 7.911557 | 2.0 | 11.753 | 2 | 36.150 | 11.923 | 31.331 | 2 |
| 2025-05-15T12:32:00 | 54.149996 | 7.911593 | 2.0 | 11.756 | 2 | 36.150 | 11.924 | 31.330 | 2 |
| 2025-05-15T12:33:00 | 54.149974 | 7.911633 | 2.0 | 11.757 | 2 | 36.152 | 11.927 | 31.329 | 2 |
| 2025-05-15T12:34:00 | 54.149924 | 7.911572 | 2.0 | 11.754 | 2 | 36.151 | 11.927 | 31.328 | 2 |
| 2025-05-15T12:35:00 | 54.149992 | 7.911536 | 2.0 | 11.758 | 2 | 36.150 | 11.926 | 31.328 | 2 |
| 2025-05-15T12:36:00 | 54.150039 | 7.911583 | 2.0 | 11.758 | 2 | 36.153 | 11.930 | 31.328 | 2 |
| 2025-05-15T12:37:00 | 54.150006 | 7.911606 | 2.0 | 11.759 | 2 | 36.154 | 11.930 | 31.328 | 2 |
| 2025-05-15T12:38:00 | 54.149933 | 7.911550 | 2.0 | 11.758 | 2 | 36.153 | 11.928 | 31.329 | 2 |
| 2025-05-15T12:39:00 | 54.149977 | 7.911462 | 2.0 | 11.762 | 2 | 36.153 | 11.929 | 31.328 | 2 |
| 2025-05-15T12:40:00 | 54.150070 | 7.911463 | 2.0 | 11.770 | 2 | 36.158 | 11.935 | 31.328 | 2 |
| 2025-05-15T12:41:00 | 54.150095 | 7.911436 | 2.0 | 11.770 | 2 | 36.165 | 11.940 | 31.331 | 2 |
| 2025-05-15T12:42:00 | 54.150027 | 7.911348 | 2.0 | 11.771 | 2 | 36.167 | 11.940 | 31.333 | 2 |
| 2025-05-15T12:43:00 | 54.150000 | 7.911206 | 2.0 | 11.768 | 2 | 36.167 | 11.941 | 31.332 | 2 |
| 2025-05-15T12:44:00 | 54.150071 | 7.911059 | 2.0 | 11.766 | 2 | 36.165 | 11.939 | 31.332 | 2 |
| 2025-05-15T12:45:00 | 54.150266 | 7.910909 | 2.0 | 11.774 | 2 | 36.161 | 11.937 | 31.329 | 2 |
| 2025-05-15T12:46:00 | 54.150489 | 7.910804 | 2.0 | 11.778 | 2 | 36.174 | 11.947 | 31.333 | 2 |
| 2025-05-15T12:47:00 | 54.150675 | 7.910679 | 2.0 | 11.768 | 2 | 36.179 | 11.946 | 31.339 | 2 |
| 2025-05-15T12:48:00 | 54.150746 | 7.910555 | 2.0 | 11.770 | 2 | 36.173 | 11.940 | 31.338 | 2 |
| 2025-05-15T12:49:00 | 54.150682 | 7.910441 | 2.0 | 11.768 | 2 | 36.172 | 11.939 | 31.338 | 2 |
| 2025-05-15T12:50:00 | 54.150526 | 7.910327 | 2.0 | 11.779 | 2 | 36.174 | 11.942 | 31.338 | 2 |
| 2025-05-15T12:51:00 | 54.150322 | 7.910103 | 2.0 | 11.781 | 2 | 36.179 | 11.948 | 31.337 | 2 |
| 2025-05-15T12:52:00 | 54.150181 | 7.909712 | 2.0 | 11.785 | 2 | 36.182 | 11.952 | 31.337 | 2 |
| 2025-05-15T12:53:00 | 54.150064 | 7.909298 | 2.0 | 11.788 | 2 | 36.185 | 11.956 | 31.336 | 2 |
| 2025-05-15T12:54:00 | 54.149911 | 7.908910 | 2.0 | 11.796 | 2 | 36.187 | 11.959 | 31.336 | 2 |
| 2025-05-15T12:55:00 | 54.149847 | 7.908329 | 2.0 | 11.813 | 2 | 36.192 | 11.968 | 31.333 | 2 |
| 2025-05-15T12:56:00 | 54.149899 | 7.907286 | 2.0 | 11.828 | 2 | 36.192 | 11.990 | 31.315 | 2 |
| 2025-05-15T12:57:00 | 54.149775 | 7.905630 | 2.0 | 11.825 | 2 | 36.213 | 11.996 | 31.330 | 2 |
| 2025-05-15T12:58:00 | 54.149439 | 7.903053 | 2.0 | 11.884 | 2 | 36.226 | 12.003 | 31.336 | 2 |
| 2025-05-15T12:59:00 | 54.148950 | 7.899291 | 2.0 | 11.931 | 2 | 36.238 | 12.065 | 31.296 | 2 |
| 2025-05-15T13:00:00 | 54.148252 | 7.895098 | 2.0 | 11.942 | 2 | 36.259 | 12.101 | 31.286 | 2 |
| 2025-05-15T13:01:00 | 54.147761 | 7.890677 | 2.0 | 11.938 | 2 | 36.274 | 12.119 | 31.285 | 2 |
| 2025-05-15T13:02:00 | 54.148372 | 7.886460 | 2.0 | 11.917 | 2 | 36.279 | 12.104 | 31.303 | 2 |
| 2025-05-15T13:03:00 | 54.149715 | 7.882794 | 2.0 | 11.888 | 2 | 36.286 | 12.083 | 31.327 | 2 |
| 2025-05-15T13:04:00 | 54.151166 | 7.879024 | 2.0 | 11.878 | 2 | 36.330 | 12.057 | 31.391 | 2 |
| 2025-05-15T13:05:00 | 54.152582 | 7.875095 | 2.0 | 11.884 | 2 | 36.376 | 12.057 | 31.435 | 2 |
| 2025-05-15T13:06:00 | 54.154013 | 7.871161 | 2.0 | 11.899 | 2 | 36.395 | 12.059 | 31.452 | 2 |
| 2025-05-15T13:07:00 | 54.155431 | 7.867202 | 2.0 | 11.905 | 2 | 36.408 | 12.071 | 31.454 | 2 |
| 2025-05-15T13:08:00 | 54.156824 | 7.863288 | 2.0 | 11.898 | 2 | 36.428 | 12.079 | 31.467 | 2 |
| 2025-05-15T13:09:00 | 54.158192 | 7.859496 | 2.0 | 11.840 | 2 | 36.439 | 12.060 | 31.493 | 2 |
| 2025-05-15T13:10:00 | 54.159552 | 7.855794 | 2.0 | 11.834 | 2 | 36.415 | 12.008 | 31.514 | 2 |
| 2025-05-15T13:11:00 | 54.161001 | 7.851851 | 2.0 | 11.866 | 2 | 36.407 | 12.013 | 31.502 | 2 |
| 2025-05-15T13:12:00 | 54.162498 | 7.847822 | 2.0 | 11.880 | 2 | 36.445 | 12.042 | 31.514 | 2 |
| 2025-05-15T13:13:00 | 54.163890 | 7.843614 | 2.0 | 11.879 | 2 | 36.498 | 12.054 | 31.555 | 2 |
| 2025-05-15T13:14:00 | 54.165230 | 7.839331 | 2.0 | 11.867 | 2 | 36.550 | 12.052 | 31.607 | 2 |
| 2025-05-15T13:15:00 | 54.166584 | 7.835083 | 2.0 | 11.818 | 2 | 36.611 | 12.033 | 31.681 | 2 |
| 2025-05-15T13:16:00 | 54.167834 | 7.830940 | 2.0 | 11.775 | 2 | 36.669 | 11.986 | 31.777 | 2 |
| 2025-05-15T13:17:00 | 54.169107 | 7.826914 | 2.0 | 11.765 | 2 | 36.705 | 11.950 | 31.843 | 2 |
| 2025-05-15T13:18:00 | 54.170420 | 7.822894 | 2.0 | 11.719 | 2 | 36.749 | 11.938 | 31.895 | 2 |
| 2025-05-15T13:19:00 | 54.171703 | 7.818764 | 2.0 | 11.699 | 2 | 36.795 | 11.890 | 31.981 | 2 |
| 2025-05-15T13:20:00 | 54.173003 | 7.814582 | 2.0 | 11.699 | 2 | 36.804 | 11.883 | 31.996 | 2 |
| 2025-05-15T13:21:00 | 54.174291 | 7.810379 | 2.0 | 11.512 | 2 | 36.818 | 11.833 | 32.052 | 2 |
| 2025-05-15T13:22:00 | 54.175611 | 7.806196 | 2.0 | 11.503 | 2 | 36.853 | 11.697 | 32.204 | 2 |
| 2025-05-15T13:23:00 | 54.176937 | 7.801947 | 2.0 | 11.505 | 2 | 36.857 | 11.682 | 32.221 | 2 |
| 2025-05-15T13:24:00 | 54.178260 | 7.797663 | 2.0 | 11.495 | 2 | 36.848 | 11.688 | 32.207 | 2 |
| 2025-05-15T13:25:00 | 54.179441 | 7.793312 | 2.0 | 11.394 | 2 | 36.857 | 11.651 | 32.248 | 2 |
| 2025-05-15T13:26:00 | 54.180508 | 7.788852 | 2.0 | 11.403 | 2 | 36.862 | 11.582 | 32.312 | 2 |
| 2025-05-15T13:27:00 | 54.181594 | 7.784367 | 2.0 | 11.458 | 2 | 36.894 | 11.590 | 32.337 | 2 |
| 2025-05-15T13:28:00 | 54.181913 | 7.779573 | 2.0 | 11.494 | 2 | 36.924 | 11.643 | 32.320 | 2 |
| 2025-05-15T13:29:00 | 54.181543 | 7.774591 | 2.0 | 11.520 | 2 | 36.946 | 11.670 | 32.318 | 2 |
| 2025-05-15T13:30:00 | 54.181322 | 7.769507 | 2.0 | 11.566 | 2 | 36.965 | 11.704 | 32.306 | 2 |
| 2025-05-15T13:31:00 | 54.181016 | 7.764378 | 2.0 | 11.589 | 2 | 36.985 | 11.744 | 32.291 | 2 |
| 2025-05-15T13:32:00 | 54.180751 | 7.759208 | 2.0 | 11.593 | 2 | 37.001 | 11.763 | 32.290 | 2 |
| 2025-05-15T13:33:00 | 54.180452 | 7.754022 | 2.0 | 11.593 | 2 | 37.018 | 11.768 | 32.302 | 2 |
| 2025-05-15T13:34:00 | 54.180169 | 7.748783 | 2.0 | 11.595 | 2 | 37.033 | 11.766 | 32.319 | 2 |
| 2025-05-15T13:35:00 | 54.179886 | 7.743532 | 2.0 | 11.575 | 2 | 37.066 | 11.772 | 32.345 | 2 |
| 2025-05-15T13:36:00 | 54.179857 | 7.738965 | 2.0 | 11.526 | 2 | 37.095 | 11.736 | 32.405 | 2 |
| 2025-05-15T13:37:00 | 54.180151 | 7.735931 | 2.0 | 11.521 | 2 | 37.097 | 11.703 | 32.436 | 2 |
| 2025-05-15T13:38:00 | 54.180616 | 7.734865 | 2.0 | 11.526 | 2 | 37.095 | 11.696 | 32.440 | 2 |
| 2025-05-15T13:39:00 | 54.180893 | 7.734206 | 2.0 | 11.534 | 2 | 37.093 | 11.701 | 32.434 | 2 |
| 2025-05-15T13:40:00 | 54.181046 | 7.733810 | 2.0 | 11.524 | 2 | 37.091 | 11.703 | 32.430 | 2 |
| 2025-05-15T13:41:00 | 54.181081 | 7.733566 | 2.0 | 11.528 | 2 | 37.087 | 11.699 | 32.429 | 2 |
| 2025-05-15T13:42:00 | 54.181095 | 7.733399 | 2.0 | 11.524 | 2 | 37.086 | 11.697 | 32.430 | 2 |
| 2025-05-15T13:43:00 | 54.181120 | 7.733254 | 2.0 | 11.528 | 2 | 37.086 | 11.698 | 32.429 | 2 |
| 2025-05-15T13:44:00 | 54.181134 | 7.733162 | 2.0 | 11.532 | 2 | 37.087 | 11.700 | 32.429 | 2 |
| 2025-05-15T13:45:00 | 54.181109 | 7.733103 | 2.0 | 11.531 | 2 | 37.088 | 11.703 | 32.427 | 2 |
| 2025-05-15T13:46:00 | 54.181126 | 7.733043 | 2.0 | 11.537 | 2 | 37.089 | 11.704 | 32.427 | 2 |
| 2025-05-15T13:47:00 | 54.181172 | 7.732958 | 2.0 | 11.540 | 2 | 37.093 | 11.710 | 32.426 | 2 |
| 2025-05-15T13:48:00 | 54.181199 | 7.732868 | 2.0 | 11.540 | 2 | 37.094 | 11.712 | 32.425 | 2 |
| 2025-05-15T13:49:00 | 54.181150 | 7.732778 | 2.0 | 11.554 | 2 | 37.094 | 11.715 | 32.422 | 2 |
| 2025-05-15T13:50:00 | 54.181112 | 7.732765 | 2.0 | 11.558 | 2 | 37.096 | 11.725 | 32.416 | 2 |
| 2025-05-15T13:51:00 | 54.181086 | 7.732719 | 2.0 | 11.557 | 2 | 37.092 | 11.730 | 32.407 | 2 |
| 2025-05-15T13:52:00 | 54.181064 | 7.732660 | 2.0 | 11.561 | 2 | 37.089 | 11.729 | 32.405 | 2 |
| 2025-05-15T13:53:00 | 54.181055 | 7.732607 | 2.0 | 11.556 | 2 | 37.092 | 11.732 | 32.406 | 2 |
| 2025-05-15T13:54:00 | 54.181111 | 7.732491 | 2.0 | 11.558 | 2 | 37.091 | 11.728 | 32.408 | 2 |
| 2025-05-15T13:55:00 | 54.181150 | 7.732320 | 2.0 | 11.576 | 2 | 37.096 | 11.734 | 32.408 | 2 |
| 2025-05-15T13:56:00 | 54.181116 | 7.732169 | 2.0 | 11.565 | 2 | 37.103 | 11.748 | 32.402 | 2 |
| 2025-05-15T13:57:00 | 54.181079 | 7.732138 | 2.0 | 11.560 | 2 | 37.097 | 11.733 | 32.410 | 2 |
| 2025-05-15T13:58:00 | 54.181041 | 7.732120 | 2.0 | 11.575 | 2 | 37.096 | 11.734 | 32.408 | 2 |
| 2025-05-15T13:59:00 | 54.181083 | 7.732071 | 2.0 | 11.586 | 2 | 37.101 | 11.748 | 32.400 | 2 |
| 2025-05-15T14:00:00 | 54.181150 | 7.731974 | 2.0 | 11.596 | 2 | 37.105 | 11.758 | 32.395 | 2 |
| 2025-05-15T14:01:00 | 54.181233 | 7.731861 | 2.0 | 11.602 | 2 | 37.107 | 11.768 | 32.389 | 2 |
| 2025-05-15T14:02:00 | 54.181301 | 7.731669 | 2.0 | 11.612 | 2 | 37.107 | 11.775 | 32.383 | 2 |
| 2025-05-15T14:03:00 | 54.181315 | 7.731455 | 2.0 | 11.621 | 2 | 37.109 | 11.785 | 32.376 | 2 |
| 2025-05-15T14:04:00 | 54.181274 | 7.731242 | 2.0 | 11.618 | 2 | 37.108 | 11.792 | 32.369 | 2 |
| 2025-05-15T14:05:00 | 54.181216 | 7.731040 | 2.0 | 11.618 | 2 | 37.104 | 11.789 | 32.368 | 2 |
| 2025-05-15T14:06:00 | 54.181249 | 7.730829 | 2.0 | 11.630 | 2 | 37.102 | 11.791 | 32.364 | 2 |
| 2025-05-15T14:07:00 | 54.181365 | 7.730621 | 2.0 | 11.627 | 2 | 37.103 | 11.800 | 32.357 | 2 |
| 2025-05-15T14:08:00 | 54.181523 | 7.730421 | 2.0 | 11.629 | 2 | 37.099 | 11.799 | 32.354 | 2 |
| 2025-05-15T14:09:00 | 54.181772 | 7.730225 | 2.0 | 11.619 | 2 | 37.097 | 11.797 | 32.354 | 2 |
| 2025-05-15T14:10:00 | 54.182045 | 7.730057 | 2.0 | 11.618 | 2 | 37.091 | 11.789 | 32.355 | 2 |
| 2025-05-15T14:11:00 | 54.182197 | 7.729941 | 2.0 | 11.596 | 2 | 37.090 | 11.783 | 32.359 | 2 |
| 2025-05-15T14:12:00 | 54.182319 | 7.729771 | 2.0 | 11.603 | 2 | 37.085 | 11.770 | 32.366 | 2 |
| 2025-05-15T14:13:00 | 54.182399 | 7.729589 | 2.0 | 11.619 | 2 | 37.086 | 11.777 | 32.360 | 2 |
| 2025-05-15T14:14:00 | 54.182456 | 7.729392 | 2.0 | 11.622 | 2 | 37.090 | 11.790 | 32.353 | 2 |
| 2025-05-15T14:15:00 | 54.182473 | 7.729203 | 2.0 | 11.627 | 2 | 37.088 | 11.794 | 32.348 | 2 |
| 2025-05-15T14:16:00 | 54.182449 | 7.729023 | 2.0 | 11.622 | 2 | 37.086 | 11.795 | 32.345 | 2 |
| 2025-05-15T14:17:00 | 54.182783 | 7.728892 | 2.0 | 11.612 | 2 | 37.084 | 11.789 | 32.348 | 2 |
| 2025-05-15T14:18:00 | 54.183616 | 7.728183 | 2.0 | 11.620 | 2 | 37.083 | 11.784 | 32.351 | 2 |
| 2025-05-15T14:19:00 | 54.184540 | 7.725745 | 2.0 | 11.631 | 2 | 37.083 | 11.792 | 32.345 | 2 |
| 2025-05-15T14:20:00 | 54.185964 | 7.722227 | 2.0 | 11.638 | 2 | 37.098 | 11.802 | 32.350 | 2 |
| 2025-05-15T14:21:00 | 54.187854 | 7.718491 | 2.0 | 11.644 | 2 | 37.114 | 11.814 | 32.355 | 2 |
| 2025-05-15T14:22:00 | 54.189805 | 7.714616 | 2.0 | 11.637 | 2 | 37.120 | 11.811 | 32.364 | 2 |
| 2025-05-15T14:23:00 | 54.191744 | 7.710635 | 2.0 | 11.653 | 2 | 37.121 | 11.816 | 32.361 | 2 |
| 2025-05-15T14:24:00 | 54.193670 | 7.706573 | 2.0 | 11.658 | 2 | 37.122 | 11.827 | 32.352 | 2 |
| 2025-05-15T14:25:00 | 54.195675 | 7.702614 | 2.0 | 11.657 | 2 | 37.114 | 11.832 | 32.340 | 2 |
| 2025-05-15T14:26:00 | 54.197592 | 7.698625 | 2.0 | 11.640 | 2 | 37.103 | 11.827 | 32.333 | 2 |
| 2025-05-15T14:27:00 | 54.199488 | 7.694728 | 2.0 | 11.618 | 2 | 37.079 | 11.812 | 32.323 | 2 |
| 2025-05-15T14:28:00 | 54.201469 | 7.690846 | 2.0 | 11.581 | 2 | 37.045 | 11.789 | 32.310 | 2 |
| 2025-05-15T14:29:00 | 54.203381 | 7.686893 | 2.0 | 11.520 | 2 | 36.983 | 11.744 | 32.289 | 2 |
| 2025-05-15T14:30:00 | 54.205260 | 7.683003 | 2.0 | 11.565 | 2 | 36.911 | 11.703 | 32.255 | 2 |
| 2025-05-15T14:31:00 | 54.207136 | 7.679219 | 2.0 | 11.574 | 2 | 36.954 | 11.745 | 32.260 | 2 |
| 2025-05-15T14:32:00 | 54.209002 | 7.675421 | 2.0 | 11.498 | 2 | 36.950 | 11.731 | 32.268 | 2 |
| 2025-05-15T14:33:00 | 54.210947 | 7.671589 | 2.0 | 11.486 | 2 | 36.874 | 11.675 | 32.243 | 2 |
| 2025-05-15T14:34:00 | 54.212798 | 7.667718 | 2.0 | 11.497 | 2 | 36.856 | 11.664 | 32.235 | 2 |
| 2025-05-15T14:35:00 | 54.214748 | 7.663768 | 2.0 | 11.515 | 2 | 36.868 | 11.676 | 32.237 | 2 |
| 2025-05-15T14:36:00 | 54.216673 | 7.659877 | 2.0 | 11.522 | 2 | 36.880 | 11.690 | 32.236 | 2 |
| 2025-05-15T14:37:00 | 54.218618 | 7.655915 | 2.0 | 11.519 | 2 | 36.885 | 11.695 | 32.237 | 2 |
| 2025-05-15T14:38:00 | 54.220556 | 7.651991 | 2.0 | 11.548 | 2 | 36.889 | 11.698 | 32.238 | 2 |
| 2025-05-15T14:39:00 | 54.222411 | 7.648108 | 2.0 | 11.570 | 2 | 36.907 | 11.724 | 32.233 | 2 |
| 2025-05-15T14:40:00 | 54.224330 | 7.644266 | 2.0 | 11.550 | 2 | 36.924 | 11.741 | 32.234 | 2 |
| 2025-05-15T14:41:00 | 54.226290 | 7.640246 | 2.0 | 11.514 | 2 | 36.876 | 11.716 | 32.210 | 2 |
| 2025-05-15T14:42:00 | 54.228305 | 7.636182 | 2.0 | 11.498 | 2 | 36.797 | 11.687 | 32.158 | 2 |
| 2025-05-15T14:43:00 | 54.230291 | 7.632216 | 2.0 | 11.498 | 2 | 36.767 | 11.674 | 32.140 | 2 |
| 2025-05-15T14:44:00 | 54.232246 | 7.628226 | 2.0 | 11.490 | 2 | 36.706 | 11.672 | 32.082 | 2 |
| 2025-05-15T14:45:00 | 54.234216 | 7.624247 | 2.0 | 11.478 | 2 | 36.704 | 11.663 | 32.088 | 2 |
| 2025-05-15T14:46:00 | 54.236160 | 7.620229 | 2.0 | 11.481 | 2 | 36.627 | 11.654 | 32.021 | 2 |
| 2025-05-15T14:47:00 | 54.238077 | 7.616288 | 2.0 | 11.486 | 2 | 36.579 | 11.657 | 31.972 | 2 |
| 2025-05-15T14:48:00 | 54.239962 | 7.612353 | 2.0 | 11.494 | 2 | 36.586 | 11.660 | 31.976 | 2 |
| 2025-05-15T14:49:00 | 54.241903 | 7.608458 | 2.0 | 11.496 | 2 | 36.566 | 11.668 | 31.950 | 2 |
| 2025-05-15T14:50:00 | 54.243829 | 7.604542 | 2.0 | 11.494 | 2 | 36.542 | 11.668 | 31.927 | 2 |
| 2025-05-15T14:51:00 | 54.245716 | 7.600670 | 2.0 | 11.514 | 2 | 36.497 | 11.668 | 31.883 | 2 |
| 2025-05-15T14:52:00 | 54.247554 | 7.596876 | 2.0 | 11.558 | 2 | 36.475 | 11.694 | 31.839 | 2 |
| 2025-05-15T14:53:00 | 54.249511 | 7.592974 | 2.0 | 11.593 | 2 | 36.472 | 11.737 | 31.799 | 2 |
| 2025-05-15T14:54:00 | 54.251416 | 7.588978 | 2.0 | 11.633 | 2 | 36.455 | 11.769 | 31.756 | 2 |
| 2025-05-15T14:55:00 | 54.253340 | 7.585079 | 2.0 | 11.679 | 2 | 36.434 | 11.809 | 31.701 | 2 |
| 2025-05-15T14:56:00 | 54.255252 | 7.581202 | 2.0 | 11.691 | 2 | 36.433 | 11.850 | 31.665 | 2 |
| 2025-05-15T14:57:00 | 54.257184 | 7.577264 | 2.0 | 11.676 | 2 | 36.430 | 11.857 | 31.656 | 2 |
| 2025-05-15T14:58:00 | 54.259053 | 7.573440 | 2.0 | 11.687 | 2 | 36.419 | 11.850 | 31.652 | 2 |
| 2025-05-15T14:59:00 | 54.260940 | 7.569629 | 2.0 | 11.697 | 2 | 36.420 | 11.862 | 31.642 | 2 |
| 2025-05-15T15:00:00 | 54.262756 | 7.565886 | 2.0 | 11.705 | 2 | 36.418 | 11.870 | 31.634 | 2 |
| 2025-05-15T15:01:00 | 54.264648 | 7.562116 | 2.0 | 11.683 | 2 | 36.422 | 11.874 | 31.634 | 2 |
| 2025-05-15T15:02:00 | 54.266491 | 7.558309 | 2.0 | 11.660 | 2 | 36.178 | 11.855 | 31.415 | 2 |
| 2025-05-15T15:04:00 | 54.270315 | 7.550464 | 2.0 | 11.678 | 2 | 36.450 | 11.870 | 31.665 | 2 |
| 2025-05-15T15:05:00 | 54.272311 | 7.546509 | 2.0 | 11.695 | 2 | 36.430 | 11.853 | 31.660 | 2 |
| 2025-05-15T15:06:00 | 54.274277 | 7.542519 | 2.0 | 11.754 | 2 | 36.428 | 11.875 | 31.639 | 2 |
| 2025-05-15T15:07:00 | 54.276157 | 7.538570 | 2.0 | 11.818 | 2 | 36.452 | 11.930 | 31.616 | 2 |
| 2025-05-15T15:08:00 | 54.278121 | 7.534623 | 2.0 | 11.870 | 2 | 36.486 | 11.998 | 31.591 | 2 |
| 2025-05-15T15:09:00 | 54.280138 | 7.530574 | 2.0 | 11.872 | 2 | 36.516 | 12.039 | 31.585 | 2 |
| 2025-05-15T15:10:00 | 54.282145 | 7.526538 | 2.0 | 11.784 | 2 | 36.528 | 12.022 | 31.611 | 2 |
| 2025-05-15T15:11:00 | 54.284043 | 7.522601 | 2.0 | 11.808 | 2 | 36.505 | 11.965 | 31.637 | 2 |
| 2025-05-15T15:12:00 | 54.285974 | 7.518651 | 2.0 | 11.834 | 2 | 36.511 | 11.989 | 31.622 | 2 |
| 2025-05-15T15:13:00 | 54.287937 | 7.514649 | 2.0 | 11.848 | 2 | 36.327 | 12.006 | 31.431 | 2 |
| 2025-05-15T15:14:00 | 54.289855 | 7.510688 | 2.0 | 11.892 | 2 | 36.534 | 12.027 | 31.612 | 2 |
| 2025-05-15T15:15:00 | 54.291762 | 7.506814 | 2.0 | 11.917 | 2 | 36.549 | 12.063 | 31.596 | 2 |
| 2025-05-15T15:16:00 | 54.293725 | 7.502880 | 2.0 | 11.944 | 2 | 36.552 | 12.091 | 31.575 | 2 |
| 2025-05-15T15:17:00 | 54.295612 | 7.498958 | 2.0 | 11.953 | 2 | 36.548 | 12.116 | 31.551 | 2 |
| 2025-05-15T15:18:00 | 54.297435 | 7.495190 | 2.0 | 11.958 | 2 | 36.539 | 12.123 | 31.536 | 2 |
| 2025-05-15T15:19:00 | 54.299342 | 7.491408 | 2.0 | 11.960 | 2 | 36.558 | 12.130 | 31.548 | 2 |
| 2025-05-15T15:20:00 | 54.301166 | 7.487618 | 2.0 | 11.940 | 2 | 36.556 | 12.129 | 31.547 | 2 |
| 2025-05-15T15:21:00 | 54.303063 | 7.483836 | 2.0 | 11.921 | 2 | 36.553 | 12.109 | 31.561 | 2 |
| 2025-05-15T15:22:00 | 54.304986 | 7.479903 | 2.0 | 11.900 | 2 | 36.550 | 12.091 | 31.574 | 2 |
| 2025-05-15T15:23:00 | 54.306913 | 7.475933 | 2.0 | 11.885 | 2 | 36.547 | 12.069 | 31.589 | 2 |
| 2025-05-15T15:24:00 | 54.308835 | 7.472051 | 2.0 | 11.878 | 2 | 36.541 | 12.057 | 31.594 | 2 |
| 2025-05-15T15:25:00 | 54.310748 | 7.468073 | 2.0 | 11.868 | 2 | 36.531 | 12.050 | 31.590 | 2 |
| 2025-05-15T15:26:00 | 54.312686 | 7.464143 | 2.0 | 11.868 | 2 | 36.531 | 12.040 | 31.598 | 2 |
| 2025-05-15T15:27:00 | 54.314652 | 7.460183 | 2.0 | 11.873 | 2 | 36.538 | 12.040 | 31.605 | 2 |
| 2025-05-15T15:28:00 | 54.316586 | 7.456210 | 2.0 | 11.891 | 2 | 36.548 | 12.050 | 31.606 | 2 |
| 2025-05-15T15:29:00 | 54.318484 | 7.452304 | 2.0 | 11.905 | 2 | 36.565 | 12.066 | 31.609 | 2 |
| 2025-05-15T15:30:00 | 54.320377 | 7.448513 | 2.0 | 11.907 | 2 | 36.580 | 12.078 | 31.613 | 2 |
| 2025-05-15T15:31:00 | 54.322364 | 7.444615 | 2.0 | 11.890 | 2 | 36.584 | 12.073 | 31.621 | 2 |
| 2025-05-15T15:32:00 | 54.324279 | 7.440574 | 2.0 | 11.890 | 2 | 36.583 | 12.063 | 31.629 | 2 |
| 2025-05-15T15:33:00 | 54.326214 | 7.436672 | 2.0 | 11.878 | 2 | 36.586 | 12.061 | 31.634 | 2 |
| 2025-05-15T15:34:00 | 54.328067 | 7.432836 | 2.0 | 11.879 | 2 | 36.584 | 12.051 | 31.640 | 2 |
| 2025-05-15T15:35:00 | 54.329960 | 7.429022 | 2.0 | 11.863 | 2 | 36.593 | 12.049 | 31.650 | 2 |
| 2025-05-15T15:36:00 | 54.331889 | 7.425118 | 2.0 | 11.882 | 2 | 36.600 | 12.035 | 31.669 | 2 |
| 2025-05-15T15:37:00 | 54.333823 | 7.421248 | 2.0 | 11.953 | 2 | 36.630 | 12.065 | 31.672 | 2 |
| 2025-05-15T15:38:00 | 54.335687 | 7.417368 | 2.0 | 12.002 | 2 | 36.685 | 12.130 | 31.670 | 2 |
| 2025-05-15T15:39:00 | 54.337493 | 7.413526 | 2.0 | 12.054 | 2 | 36.734 | 12.179 | 31.676 | 2 |
| 2025-05-15T15:40:00 | 54.339407 | 7.409648 | 2.0 | 12.082 | 2 | 36.772 | 12.224 | 31.674 | 2 |
| 2025-05-15T15:41:00 | 54.341228 | 7.405940 | 2.0 | 12.133 | 2 | 36.803 | 12.255 | 31.677 | 2 |
| 2025-05-15T15:42:00 | 54.343140 | 7.402081 | 2.0 | 12.210 | 2 | 36.847 | 12.310 | 31.673 | 2 |
| 2025-05-15T15:43:00 | 54.345025 | 7.398231 | 2.0 | 12.281 | 2 | 36.905 | 12.387 | 31.663 | 2 |
| 2025-05-15T15:44:00 | 54.346851 | 7.394501 | 2.0 | 12.339 | 2 | 36.954 | 12.456 | 31.652 | 2 |
| 2025-05-15T15:45:00 | 54.348662 | 7.390813 | 2.0 | 12.384 | 2 | 37.008 | 12.512 | 31.656 | 2 |
| 2025-05-15T15:46:00 | 54.350563 | 7.386955 | 2.0 | 12.429 | 2 | 37.055 | 12.557 | 31.663 | 2 |
| 2025-05-15T15:47:00 | 54.352413 | 7.383121 | 2.0 | 12.461 | 2 | 37.102 | 12.598 | 31.673 | 2 |
| 2025-05-15T15:48:00 | 54.354309 | 7.379227 | 2.0 | 12.486 | 2 | 37.150 | 12.631 | 31.691 | 2 |
| 2025-05-15T15:49:00 | 54.356201 | 7.375351 | 2.0 | 12.508 | 2 | 37.191 | 12.656 | 31.709 | 2 |
| 2025-05-15T15:50:00 | 54.358050 | 7.371608 | 2.0 | 12.520 | 2 | 37.223 | 12.674 | 31.724 | 2 |
| 2025-05-15T15:51:00 | 54.359886 | 7.367939 | 2.0 | 12.524 | 2 | 37.253 | 12.687 | 31.742 | 2 |
| 2025-05-15T15:52:00 | 54.361715 | 7.364124 | 2.0 | 12.519 | 2 | 37.281 | 12.688 | 31.767 | 2 |
| 2025-05-15T15:53:00 | 54.363642 | 7.360324 | 2.0 | 12.522 | 2 | 37.310 | 12.688 | 31.795 | 2 |
| 2025-05-15T15:54:00 | 54.365504 | 7.356430 | 2.0 | 12.523 | 2 | 37.354 | 12.690 | 31.835 | 2 |
| 2025-05-15T15:56:00 | 54.369329 | 7.348666 | 2.0 | 12.408 | 2 | 37.467 | 12.617 | 32.004 | 2 |
| 2025-05-15T15:57:00 | 54.371284 | 7.344645 | 2.0 | 12.412 | 2 | 37.484 | 12.581 | 32.051 | 2 |
| 2025-05-15T15:58:00 | 54.373265 | 7.340653 | 2.0 | 12.149 | 2 | 37.499 | 12.508 | 32.127 | 2 |
| 2025-05-15T15:59:00 | 54.375202 | 7.336714 | 2.0 | 12.154 | 2 | 37.490 | 12.341 | 32.262 | 2 |
| 2025-05-15T16:00:00 | 54.377121 | 7.332816 | 2.0 | 12.162 | 2 | 37.493 | 12.331 | 32.273 | 2 |
| 2025-05-15T16:01:00 | 54.379057 | 7.328930 | 2.0 | 12.169 | 2 | 37.506 | 12.337 | 32.281 | 2 |
| 2025-05-15T16:02:00 | 54.380984 | 7.324992 | 2.0 | 12.169 | 2 | 37.519 | 12.340 | 32.290 | 2 |
| 2025-05-15T16:03:00 | 54.382847 | 7.321146 | 2.0 | 12.174 | 2 | 37.437 | 12.347 | 32.206 | 2 |
| 2025-05-15T16:04:00 | 54.384607 | 7.317491 | 2.0 | 12.175 | 2 | 37.484 | 12.346 | 32.252 | 2 |
| 2025-05-15T16:05:00 | 54.386563 | 7.313682 | 2.0 | 12.174 | 2 | 37.544 | 12.346 | 32.309 | 2 |
| 2025-05-15T16:06:00 | 54.388510 | 7.309711 | 2.0 | 12.176 | 2 | 37.554 | 12.345 | 32.320 | 2 |
| 2025-05-15T16:07:00 | 54.390406 | 7.305787 | 2.0 | 12.173 | 2 | 37.562 | 12.346 | 32.326 | 2 |
| 2025-05-15T16:08:00 | 54.392315 | 7.301842 | 2.0 | 12.164 | 2 | 37.565 | 12.343 | 32.332 | 2 |
| 2025-05-15T16:09:00 | 54.394207 | 7.298066 | 2.0 | 12.154 | 2 | 37.561 | 12.334 | 32.336 | 2 |
| 2025-05-15T16:10:00 | 54.396060 | 7.294332 | 2.0 | 12.146 | 2 | 37.557 | 12.325 | 32.340 | 2 |
| 2025-05-15T16:11:00 | 54.397981 | 7.290407 | 2.0 | 12.137 | 2 | 37.550 | 12.317 | 32.340 | 2 |
| 2025-05-15T16:12:00 | 54.399911 | 7.286479 | 2.0 | 12.136 | 2 | 37.540 | 12.308 | 32.338 | 2 |
| 2025-05-15T16:13:00 | 54.401858 | 7.282474 | 2.0 | 12.136 | 2 | 37.539 | 12.308 | 32.337 | 2 |
| 2025-05-15T16:14:00 | 54.403725 | 7.278623 | 2.0 | 12.135 | 2 | 37.534 | 12.307 | 32.333 | 2 |
| 2025-05-15T16:15:00 | 54.405545 | 7.274867 | 2.0 | 12.137 | 2 | 37.523 | 12.308 | 32.322 | 2 |
| 2025-05-15T16:16:00 | 54.407371 | 7.271084 | 2.0 | 12.137 | 2 | 37.530 | 12.307 | 32.329 | 2 |
| 2025-05-15T16:17:00 | 54.409291 | 7.267265 | 2.0 | 12.142 | 2 | 37.536 | 12.310 | 32.333 | 2 |
| 2025-05-15T16:18:00 | 54.411200 | 7.263469 | 2.0 | 12.142 | 2 | 37.545 | 12.313 | 32.339 | 2 |
| 2025-05-15T16:19:00 | 54.413106 | 7.259486 | 2.0 | 12.141 | 2 | 37.542 | 12.313 | 32.336 | 2 |
| 2025-05-15T16:20:00 | 54.414963 | 7.255709 | 2.0 | 12.142 | 2 | 37.539 | 12.312 | 32.334 | 2 |
| 2025-05-15T16:21:00 | 54.416827 | 7.251877 | 2.0 | 12.140 | 2 | 37.539 | 12.312 | 32.334 | 2 |
| 2025-05-15T16:22:00 | 54.418722 | 7.248039 | 2.0 | 12.133 | 2 | 37.538 | 12.311 | 32.334 | 2 |
| 2025-05-15T16:23:00 | 54.420595 | 7.244166 | 2.0 | 12.130 | 2 | 37.540 | 12.303 | 32.342 | 2 |
| 2025-05-15T16:24:00 | 54.422480 | 7.240292 | 2.0 | 12.127 | 2 | 37.549 | 12.300 | 32.354 | 2 |
| 2025-05-15T16:25:00 | 54.424418 | 7.236364 | 2.0 | 12.128 | 2 | 37.559 | 12.299 | 32.364 | 2 |
| 2025-05-15T16:26:00 | 54.426355 | 7.232415 | 2.0 | 12.108 | 2 | 37.567 | 12.295 | 32.375 | 2 |
| 2025-05-15T16:27:00 | 54.428291 | 7.228552 | 2.0 | 12.094 | 2 | 37.572 | 12.278 | 32.395 | 2 |
| 2025-05-15T16:28:00 | 54.430180 | 7.224684 | 2.0 | 12.088 | 2 | 37.573 | 12.266 | 32.406 | 2 |
| 2025-05-15T16:29:00 | 54.432047 | 7.220845 | 2.0 | 12.097 | 2 | 37.580 | 12.262 | 32.416 | 2 |
| 2025-05-15T16:30:00 | 54.433928 | 7.216942 | 2.0 | 12.099 | 2 | 37.589 | 12.270 | 32.418 | 2 |
| 2025-05-15T16:31:00 | 54.435759 | 7.213136 | 2.0 | 12.094 | 2 | 37.596 | 12.269 | 32.426 | 2 |
| 2025-05-15T16:32:00 | 54.437638 | 7.209382 | 2.0 | 12.094 | 2 | 37.589 | 12.267 | 32.421 | 2 |
| 2025-05-15T16:33:00 | 54.439508 | 7.205550 | 2.0 | 12.093 | 2 | 37.579 | 12.265 | 32.413 | 2 |
| 2025-05-15T16:34:00 | 54.441395 | 7.201662 | 2.0 | 12.100 | 2 | 37.566 | 12.264 | 32.401 | 2 |
| 2025-05-15T16:35:00 | 54.443237 | 7.197862 | 2.0 | 12.109 | 2 | 37.564 | 12.273 | 32.391 | 2 |
| 2025-05-15T16:36:00 | 54.445126 | 7.194062 | 2.0 | 12.112 | 2 | 37.570 | 12.280 | 32.391 | 2 |
| 2025-05-15T16:37:00 | 54.447062 | 7.190169 | 2.0 | 12.106 | 2 | 37.573 | 12.281 | 32.393 | 2 |
| 2025-05-15T16:38:00 | 54.449020 | 7.186181 | 2.0 | 12.108 | 2 | 37.572 | 12.278 | 32.395 | 2 |
| 2025-05-15T16:39:00 | 54.450920 | 7.182225 | 2.0 | 12.114 | 2 | 37.565 | 12.280 | 32.386 | 2 |
| 2025-05-15T16:40:00 | 54.452866 | 7.178290 | 2.0 | 12.123 | 2 | 37.559 | 12.285 | 32.376 | 2 |
| 2025-05-15T16:41:00 | 54.454837 | 7.174284 | 2.0 | 12.126 | 2 | 37.556 | 12.294 | 32.366 | 2 |
| 2025-05-15T16:42:00 | 54.456633 | 7.170503 | 2.0 | 12.131 | 2 | 37.548 | 12.296 | 32.356 | 2 |
| 2025-05-15T16:43:00 | 54.458549 | 7.166593 | 2.0 | 12.142 | 2 | 37.545 | 12.303 | 32.347 | 2 |
| 2025-05-15T16:44:00 | 54.460483 | 7.162687 | 2.0 | 12.152 | 2 | 37.545 | 12.313 | 32.339 | 2 |
| 2025-05-15T16:45:00 | 54.462398 | 7.158752 | 2.0 | 12.159 | 2 | 37.548 | 12.323 | 32.333 | 2 |
| 2025-05-15T16:46:00 | 54.464315 | 7.154807 | 2.0 | 12.150 | 2 | 37.556 | 12.329 | 32.335 | 2 |
| 2025-05-15T16:47:00 | 54.466243 | 7.150832 | 2.0 | 12.162 | 2 | 37.550 | 12.322 | 32.336 | 2 |
| 2025-05-15T16:48:00 | 54.468168 | 7.146886 | 2.0 | 12.173 | 2 | 37.076 | 12.334 | 31.872 | 2 |
| 2025-05-15T16:49:00 | 54.470112 | 7.142912 | 2.0 | 12.175 | 2 | 37.546 | 12.343 | 32.314 | 2 |
| 2025-05-15T16:50:00 | 54.472043 | 7.138941 | 2.0 | 12.168 | 2 | 37.056 | 12.344 | 31.844 | 2 |
| 2025-05-15T16:51:00 | 54.473951 | 7.135103 | 2.0 | 12.162 | 2 | 37.020 | 12.338 | 31.815 | 2 |
| 2025-05-15T16:52:00 | 54.475709 | 7.131427 | 2.0 | 12.158 | 2 | 37.485 | 12.333 | 32.264 | 2 |
| 2025-05-15T16:53:00 | 54.477640 | 7.127584 | 2.0 | 12.167 | 2 | 37.472 | 12.329 | 32.255 | 2 |
| 2025-05-15T16:54:00 | 54.479519 | 7.123674 | 2.0 | 12.179 | 2 | 37.463 | 12.339 | 32.238 | 2 |
| 2025-05-15T16:55:00 | 54.481382 | 7.119813 | 2.0 | 12.188 | 2 | 37.465 | 12.351 | 32.229 | 2 |
| 2025-05-15T16:56:00 | 54.483230 | 7.116014 | 2.0 | 12.182 | 2 | 37.222 | 12.358 | 31.991 | 2 |
| 2025-05-15T16:57:00 | 54.485014 | 7.112362 | 2.0 | 12.165 | 2 | 37.109 | 12.351 | 31.889 | 2 |
| 2025-05-15T16:58:00 | 54.486859 | 7.108691 | 2.0 | 12.158 | 2 | 37.403 | 12.336 | 32.183 | 2 |
| 2025-05-15T16:59:00 | 54.488802 | 7.104757 | 2.0 | 12.157 | 2 | 37.427 | 12.331 | 32.210 | 2 |
| 2025-05-15T17:04:00 | 54.497961 | 7.085954 | 2.0 | 12.132 | 2 | 37.394 | 12.314 | 32.193 | 2 |
| 2025-05-15T17:05:00 | 54.499818 | 7.082163 | 2.0 | 12.127 | 2 | 37.364 | 12.301 | 32.176 | 2 |
| 2025-05-15T17:06:00 | 54.501694 | 7.078381 | 2.0 | 12.126 | 2 | 37.361 | 12.297 | 32.176 | 2 |
| 2025-05-15T17:07:00 | 54.503623 | 7.074412 | 2.0 | 12.123 | 2 | 37.355 | 12.295 | 32.172 | 2 |
| 2025-05-15T17:08:00 | 54.505514 | 7.070478 | 2.0 | 12.135 | 2 | 37.235 | 12.297 | 32.055 | 2 |
| 2025-05-15T17:09:00 | 54.507384 | 7.066744 | 2.0 | 12.145 | 2 | 37.306 | 12.307 | 32.115 | 2 |
| 2025-05-15T17:10:00 | 54.509237 | 7.062873 | 2.0 | 12.158 | 2 | 37.352 | 12.316 | 32.151 | 2 |
| 2025-05-15T17:11:00 | 54.511086 | 7.059076 | 2.0 | 12.203 | 2 | 37.360 | 12.333 | 32.144 | 2 |
| 2025-05-15T17:12:00 | 54.512983 | 7.055239 | 2.0 | 12.247 | 2 | 37.400 | 12.379 | 32.143 | 2 |
| 2025-05-15T17:13:00 | 54.514802 | 7.051420 | 2.0 | 12.279 | 2 | 37.437 | 12.420 | 32.143 | 2 |
| 2025-05-15T17:14:00 | 54.516629 | 7.047727 | 2.0 | 12.299 | 2 | 37.464 | 12.450 | 32.143 | 2 |
| 2025-05-15T17:15:00 | 54.518405 | 7.044021 | 2.0 | 12.304 | 2 | 37.148 | 12.473 | 31.822 | 2 |
| 2025-05-15T17:16:00 | 54.520215 | 7.040386 | 2.0 | 12.302 | 2 | 37.442 | 12.474 | 32.102 | 2 |
| 2025-05-15T17:18:00 | 54.523894 | 7.032979 | 2.0 | 12.290 | 2 | 37.375 | 12.466 | 32.045 | 2 |
| 2025-05-15T17:19:00 | 54.525737 | 7.029119 | 2.0 | 12.283 | 2 | 37.407 | 12.459 | 32.081 | 2 |
| 2025-05-15T17:20:00 | 54.527596 | 7.025310 | 2.0 | 12.276 | 2 | 37.424 | 12.453 | 32.103 | 2 |
| 2025-05-15T17:21:00 | 54.529415 | 7.021545 | 2.0 | 12.266 | 2 | 37.411 | 12.445 | 32.097 | 2 |
| 2025-05-15T17:22:00 | 54.531351 | 7.017741 | 2.0 | 12.261 | 2 | 37.406 | 12.436 | 32.100 | 2 |
| 2025-05-15T17:23:00 | 54.533082 | 7.014023 | 2.0 | 12.262 | 2 | 37.399 | 12.432 | 32.097 | 2 |
| 2025-05-15T17:25:00 | 54.536531 | 7.006911 | 2.0 | 12.247 | 2 | 37.326 | 12.424 | 32.034 | 2 |
| 2025-05-15T17:26:00 | 54.538342 | 7.003257 | 2.0 | 12.238 | 2 | 37.386 | 12.415 | 32.099 | 2 |
| 2025-05-15T17:27:00 | 54.540164 | 6.999543 | 2.0 | 12.231 | 2 | 37.387 | 12.411 | 32.103 | 2 |
| 2025-05-15T17:28:00 | 54.541919 | 6.995927 | 2.0 | 12.229 | 2 | 37.376 | 12.403 | 32.100 | 2 |
| 2025-05-15T17:29:00 | 54.543675 | 6.992338 | 2.0 | 12.230 | 2 | 37.384 | 12.403 | 32.107 | 2 |
| 2025-05-15T17:33:00 | 54.550705 | 6.977925 | 2.0 | 12.249 | 2 | 37.432 | 12.419 | 32.139 | 2 |
| 2025-05-15T17:34:00 | 54.552479 | 6.974330 | 2.0 | 12.253 | 2 | 37.449 | 12.419 | 32.156 | 2 |
| 2025-05-15T17:37:00 | 54.557624 | 6.963775 | 2.0 | 12.259 | 2 | 37.497 | 12.427 | 32.195 | 2 |
| 2025-05-15T17:38:00 | 54.559474 | 6.959977 | 2.0 | 12.260 | 2 | 37.522 | 12.430 | 32.216 | 2 |
| 2025-05-15T17:39:00 | 54.561256 | 6.956142 | 2.0 | 12.252 | 2 | 37.545 | 12.430 | 32.238 | 2 |
| 2025-05-15T17:40:00 | 54.563006 | 6.952510 | 2.0 | 12.248 | 2 | 37.570 | 12.422 | 32.269 | 2 |
| 2025-05-15T17:41:00 | 54.564782 | 6.948843 | 2.0 | 12.260 | 2 | 37.581 | 12.420 | 32.281 | 2 |
| 2025-05-15T17:44:00 | 54.569947 | 6.937714 | 2.0 | 12.337 | 2 | 37.662 | 12.486 | 32.302 | 2 |
| 2025-05-15T17:45:00 | 54.571751 | 6.933862 | 2.0 | 12.331 | 2 | 37.758 | 12.500 | 32.381 | 2 |
| 2025-05-15T17:46:00 | 54.573565 | 6.930090 | 2.0 | 12.341 | 2 | 37.835 | 12.502 | 32.453 | 2 |
| 2025-05-15T17:47:00 | 54.575315 | 6.926340 | 2.0 | 12.353 | 2 | 37.856 | 12.512 | 32.464 | 2 |
| 2025-05-15T17:48:00 | 54.577110 | 6.922521 | 2.0 | 12.278 | 2 | 37.874 | 12.517 | 32.477 | 2 |
| 2025-05-15T17:49:00 | 54.578930 | 6.918760 | 2.0 | 12.212 | 2 | 37.882 | 12.434 | 32.557 | 2 |
| 2025-05-15T17:50:00 | 54.580559 | 6.915151 | 2.0 | 12.206 | 2 | 37.842 | 12.387 | 32.559 | 2 |
| 2025-05-15T17:51:00 | 54.582306 | 6.911508 | 2.0 | 12.222 | 2 | 37.836 | 12.382 | 32.558 | 2 |
| 2025-05-15T17:52:00 | 54.584044 | 6.907949 | 2.0 | 12.235 | 2 | 37.828 | 12.397 | 32.537 | 2 |
| 2025-05-15T17:53:00 | 54.585679 | 6.904285 | 2.0 | 12.251 | 2 | 37.813 | 12.413 | 32.509 | 2 |
| 2025-05-15T17:54:00 | 54.587406 | 6.900648 | 2.0 | 12.256 | 2 | 37.818 | 12.422 | 32.506 | 2 |
| 2025-05-15T17:55:00 | 54.589133 | 6.896961 | 2.0 | 12.252 | 2 | 37.820 | 12.425 | 32.505 | 2 |
| 2025-05-15T17:56:00 | 54.590915 | 6.893210 | 2.0 | 12.241 | 2 | 37.804 | 12.420 | 32.494 | 2 |
| 2025-05-15T17:57:00 | 54.592678 | 6.889442 | 2.0 | 12.233 | 2 | 37.730 | 12.419 | 32.424 | 2 |
| 2025-05-15T17:58:00 | 54.594302 | 6.885871 | 2.0 | 12.223 | 2 | 37.761 | 12.406 | 32.465 | 2 |
| 2025-05-15T17:59:00 | 54.595936 | 6.882381 | 2.0 | 12.222 | 2 | 37.755 | 12.395 | 32.469 | 2 |
| 2025-05-15T18:00:00 | 54.597585 | 6.878920 | 2.0 | 12.218 | 2 | 37.759 | 12.393 | 32.475 | 2 |
| 2025-05-15T18:01:00 | 54.599217 | 6.875423 | 2.0 | 12.223 | 2 | 37.762 | 12.389 | 32.481 | 2 |
| 2025-05-15T18:02:00 | 54.600902 | 6.871826 | 2.0 | 12.233 | 2 | 37.770 | 12.396 | 32.482 | 2 |
| 2025-05-15T18:03:00 | 54.602574 | 6.868321 | 2.0 | 12.242 | 2 | 37.785 | 12.405 | 32.489 | 2 |
| 2025-05-15T18:04:00 | 54.604217 | 6.864700 | 2.0 | 12.218 | 2 | 37.809 | 12.409 | 32.509 | 2 |
| 2025-05-15T18:05:00 | 54.605945 | 6.861162 | 2.0 | 12.207 | 2 | 37.822 | 12.385 | 32.542 | 2 |
| 2025-05-15T18:06:00 | 54.607712 | 6.857497 | 2.0 | 12.195 | 2 | 37.830 | 12.376 | 32.557 | 2 |
| 2025-05-15T18:07:00 | 54.609482 | 6.853716 | 2.0 | 12.174 | 2 | 37.832 | 12.362 | 32.571 | 2 |
| 2025-05-15T18:08:00 | 54.611178 | 6.850054 | 2.0 | 12.152 | 2 | 37.827 | 12.340 | 32.586 | 2 |
| 2025-05-15T18:09:00 | 54.612901 | 6.846400 | 2.0 | 12.123 | 2 | 37.822 | 12.320 | 32.598 | 2 |
| 2025-05-15T18:10:00 | 54.614521 | 6.842931 | 2.0 | 12.101 | 2 | 37.810 | 12.294 | 32.609 | 2 |
| 2025-05-15T18:11:00 | 54.616262 | 6.839291 | 2.0 | 12.070 | 2 | 37.807 | 12.266 | 32.631 | 2 |
| 2025-05-15T18:12:00 | 54.617973 | 6.835649 | 2.0 | 12.049 | 2 | 37.777 | 12.245 | 32.620 | 2 |
| 2025-05-15T18:13:00 | 54.619798 | 6.832133 | 2.0 | 12.017 | 2 | 37.793 | 12.216 | 32.661 | 2 |
| 2025-05-15T18:14:00 | 54.621617 | 6.828657 | 2.0 | 12.006 | 2 | 37.788 | 12.191 | 32.678 | 2 |
| 2025-05-15T18:15:00 | 54.623391 | 6.825362 | 2.0 | 11.995 | 2 | 37.781 | 12.178 | 32.683 | 2 |
| 2025-05-15T18:16:00 | 54.625174 | 6.821930 | 2.0 | 11.995 | 2 | 37.780 | 12.168 | 32.690 | 2 |
| 2025-05-15T18:17:00 | 54.626923 | 6.818479 | 2.0 | 11.993 | 2 | 37.773 | 12.168 | 32.684 | 2 |
| 2025-05-15T18:18:00 | 54.628640 | 6.815187 | 2.0 | 11.988 | 2 | 37.501 | 12.168 | 32.422 | 2 |
| 2025-05-15T18:19:00 | 54.630524 | 6.811926 | 2.0 | 11.982 | 2 | 37.770 | 12.160 | 32.688 | 2 |
| 2025-05-15T18:20:00 | 54.632480 | 6.808619 | 2.0 | 11.977 | 2 | 37.779 | 12.153 | 32.703 | 2 |
| 2025-05-15T18:22:00 | 54.636351 | 6.801628 | 2.0 | 11.970 | 2 | 37.789 | 12.147 | 32.717 | 2 |
| 2025-05-15T18:23:00 | 54.638204 | 6.798376 | 2.0 | 11.960 | 2 | 37.751 | 12.142 | 32.685 | 2 |
| 2025-05-15T18:24:00 | 54.640014 | 6.795017 | 2.0 | 11.960 | 2 | 37.778 | 12.133 | 32.719 | 2 |
| 2025-05-15T18:25:00 | 54.641962 | 6.791691 | 2.0 | 11.966 | 2 | 37.793 | 12.135 | 32.732 | 2 |
| 2025-05-15T18:26:00 | 54.643836 | 6.788253 | 2.0 | 11.957 | 2 | 37.808 | 12.137 | 32.745 | 2 |
| 2025-05-15T18:27:00 | 54.645725 | 6.784817 | 2.0 | 11.952 | 2 | 37.813 | 12.129 | 32.756 | 2 |
| 2025-05-15T18:28:00 | 54.647688 | 6.781439 | 2.0 | 11.945 | 2 | 37.814 | 12.123 | 32.763 | 2 |
| 2025-05-15T18:29:00 | 54.649560 | 6.778045 | 2.0 | 11.942 | 2 | 37.815 | 12.118 | 32.768 | 2 |
| 2025-05-15T18:30:00 | 54.651428 | 6.774669 | 2.0 | 11.941 | 2 | 37.812 | 12.115 | 32.768 | 2 |
| 2025-05-15T18:31:00 | 54.653294 | 6.771409 | 2.0 | 11.935 | 2 | 37.804 | 12.114 | 32.761 | 2 |
| 2025-05-15T18:32:00 | 54.655160 | 6.768005 | 2.0 | 11.930 | 2 | 37.802 | 12.106 | 32.766 | 2 |
| 2025-05-15T18:33:00 | 54.657118 | 6.764589 | 2.0 | 11.924 | 2 | 37.805 | 12.101 | 32.773 | 2 |
| 2025-05-15T18:34:00 | 54.658974 | 6.761252 | 2.0 | 11.908 | 2 | 37.783 | 12.094 | 32.758 | 2 |
| 2025-05-15T18:35:00 | 54.660746 | 6.758099 | 2.0 | 11.908 | 2 | 37.791 | 12.081 | 32.777 | 2 |
| 2025-05-15T18:36:00 | 54.662506 | 6.754868 | 2.0 | 11.921 | 2 | 37.776 | 12.088 | 32.757 | 2 |
| 2025-05-15T18:38:00 | 54.666057 | 6.748563 | 2.0 | 11.899 | 2 | 37.760 | 12.075 | 32.753 | 2 |
| 2025-05-15T18:39:00 | 54.667820 | 6.745383 | 2.0 | 11.838 | 2 | 37.762 | 12.050 | 32.776 | 2 |
| 2025-05-15T18:43:00 | 54.674893 | 6.732788 | 2.0 | 11.840 | 2 | 37.768 | 12.015 | 32.813 | 2 |
| 2025-05-15T18:44:00 | 54.676678 | 6.729733 | 2.0 | 11.841 | 2 | 37.789 | 12.012 | 32.836 | 2 |
| 2025-05-15T18:45:00 | 54.678454 | 6.726595 | 2.0 | 11.841 | 2 | 37.690 | 12.018 | 32.735 | 2 |
| 2025-05-15T18:48:00 | 54.683613 | 6.717423 | 2.0 | 11.880 | 2 | 37.826 | 12.036 | 32.851 | 2 |
| 2025-05-15T18:52:00 | 54.690779 | 6.704617 | 2.0 | 11.841 | 2 | 37.861 | 12.021 | 32.898 | 2 |
| 2025-05-15T18:53:00 | 54.692644 | 6.701377 | 2.0 | 11.827 | 2 | 37.870 | 12.006 | 32.920 | 2 |
| 2025-05-15T18:54:00 | 54.694521 | 6.698001 | 2.0 | 11.833 | 2 | 37.871 | 12.000 | 32.926 | 2 |
| 2025-05-15T18:55:00 | 54.696314 | 6.694699 | 2.0 | 11.833 | 2 | 37.874 | 12.004 | 32.925 | 2 |
| 2025-05-15T18:56:00 | 54.698100 | 6.691458 | 2.0 | 11.828 | 2 | 37.877 | 12.004 | 32.928 | 2 |
| 2025-05-15T18:57:00 | 54.699924 | 6.688222 | 2.0 | 11.823 | 2 | 37.881 | 12.000 | 32.936 | 2 |
| 2025-05-15T18:58:00 | 54.701706 | 6.684969 | 2.0 | 11.817 | 2 | 37.887 | 11.995 | 32.946 | 2 |
| 2025-05-15T18:59:00 | 54.703501 | 6.681838 | 2.0 | 11.810 | 2 | 37.896 | 11.987 | 32.962 | 2 |
| 2025-05-15T19:00:00 | 54.705366 | 6.678578 | 2.0 | 11.808 | 2 | 37.913 | 11.982 | 32.983 | 2 |
| 2025-05-15T19:01:00 | 54.707183 | 6.675339 | 2.0 | 11.821 | 2 | 37.923 | 11.981 | 32.993 | 2 |
| 2025-05-15T19:02:00 | 54.709082 | 6.672019 | 2.0 | 11.843 | 2 | 37.971 | 11.997 | 33.025 | 2 |
| 2025-05-15T19:03:00 | 54.710888 | 6.668697 | 2.0 | 11.870 | 2 | 37.990 | 12.016 | 33.027 | 2 |
| 2025-05-15T19:05:00 | 54.714586 | 6.662117 | 2.0 | 11.910 | 2 | 38.099 | 12.080 | 33.076 | 2 |
| 2025-05-15T19:06:00 | 54.716369 | 6.658848 | 2.0 | 11.902 | 2 | 38.154 | 12.078 | 33.131 | 2 |
| 2025-05-15T19:07:00 | 54.718196 | 6.655636 | 2.0 | 11.912 | 2 | 38.171 | 12.072 | 33.153 | 2 |
| 2025-05-15T19:08:00 | 54.720052 | 6.652300 | 2.0 | 11.890 | 2 | 38.167 | 12.081 | 33.141 | 2 |
| 2025-05-15T19:09:00 | 54.721867 | 6.649112 | 2.0 | 11.885 | 2 | 38.163 | 12.063 | 33.153 | 2 |
| 2025-05-15T19:10:00 | 54.723590 | 6.646006 | 2.0 | 11.878 | 2 | 38.150 | 12.055 | 33.147 | 2 |
| 2025-05-15T19:11:00 | 54.725382 | 6.642839 | 2.0 | 11.871 | 2 | 38.132 | 12.052 | 33.133 | 2 |
| 2025-05-15T19:12:00 | 54.727093 | 6.639671 | 2.0 | 11.858 | 2 | 37.928 | 12.042 | 32.944 | 2 |
| 2025-05-15T19:13:00 | 54.728895 | 6.636539 | 2.0 | 11.842 | 2 | 38.017 | 12.028 | 33.043 | 2 |
| 2025-05-15T19:14:00 | 54.730730 | 6.633333 | 2.0 | 11.809 | 2 | 38.093 | 12.009 | 33.133 | 2 |
| 2025-05-15T19:15:00 | 54.732565 | 6.629993 | 2.0 | 11.810 | 2 | 38.064 | 11.981 | 33.130 | 2 |
| 2025-05-15T19:16:00 | 54.734428 | 6.626655 | 2.0 | 11.825 | 2 | 38.067 | 11.987 | 33.127 | 2 |
| 2025-05-15T19:17:00 | 54.736247 | 6.623341 | 2.0 | 11.827 | 2 | 38.080 | 11.998 | 33.130 | 2 |
| 2025-05-15T19:18:00 | 54.738101 | 6.620080 | 2.0 | 11.834 | 2 | 38.087 | 12.000 | 33.135 | 2 |
| 2025-05-15T19:19:00 | 54.739874 | 6.616929 | 2.0 | 11.848 | 2 | 38.120 | 12.007 | 33.161 | 2 |
| 2025-05-15T19:20:00 | 54.741708 | 6.613681 | 2.0 | 11.872 | 2 | 38.154 | 12.024 | 33.179 | 2 |
| 2025-05-15T19:21:00 | 54.743546 | 6.610403 | 2.0 | 11.890 | 2 | 38.195 | 12.046 | 33.199 | 2 |
| 2025-05-15T19:22:00 | 54.745328 | 6.607217 | 2.0 | 11.906 | 2 | 38.233 | 12.063 | 33.221 | 2 |
| 2025-05-15T19:23:00 | 54.747079 | 6.604085 | 2.0 | 11.913 | 2 | 38.249 | 12.077 | 33.224 | 2 |
| 2025-05-15T19:24:00 | 54.748898 | 6.600900 | 2.0 | 11.923 | 2 | 38.286 | 12.086 | 33.251 | 2 |
| 2025-05-15T19:25:00 | 54.750731 | 6.597703 | 2.0 | 11.926 | 2 | 38.320 | 12.093 | 33.278 | 2 |
| 2025-05-15T19:26:00 | 54.752564 | 6.594360 | 2.0 | 11.931 | 2 | 38.345 | 12.097 | 33.299 | 2 |
| 2025-05-15T19:27:00 | 54.754358 | 6.591047 | 2.0 | 11.940 | 2 | 38.376 | 12.103 | 33.323 | 2 |
| 2025-05-15T19:28:00 | 54.756222 | 6.587728 | 2.0 | 11.948 | 2 | 38.416 | 12.111 | 33.355 | 2 |
| 2025-05-15T19:29:00 | 54.758121 | 6.584487 | 2.0 | 11.954 | 2 | 38.447 | 12.118 | 33.379 | 2 |
| 2025-05-15T19:30:00 | 54.759898 | 6.581213 | 2.0 | 11.973 | 2 | 38.482 | 12.128 | 33.403 | 2 |
| 2025-05-15T19:31:00 | 54.761718 | 6.577966 | 2.0 | 11.993 | 2 | 38.535 | 12.146 | 33.439 | 2 |
| 2025-05-15T19:32:00 | 54.763528 | 6.574706 | 2.0 | 11.972 | 2 | 38.574 | 12.161 | 33.463 | 2 |
| 2025-05-15T19:33:00 | 54.765363 | 6.571408 | 2.0 | 11.937 | 2 | 38.584 | 12.141 | 33.490 | 2 |
| 2025-05-15T19:34:00 | 54.767179 | 6.568214 | 2.0 | 11.898 | 2 | 38.575 | 12.099 | 33.519 | 2 |
| 2025-05-15T19:35:00 | 54.768913 | 6.565063 | 2.0 | 11.906 | 2 | 38.373 | 12.074 | 33.346 | 2 |
| 2025-05-15T19:36:00 | 54.770721 | 6.561884 | 2.0 | 11.907 | 2 | 38.620 | 12.076 | 33.584 | 2 |
| 2025-05-15T19:37:00 | 54.772494 | 6.558599 | 2.0 | 11.915 | 2 | 38.637 | 12.079 | 33.598 | 2 |
| 2025-05-15T19:38:00 | 54.774349 | 6.555341 | 2.0 | 11.923 | 2 | 38.646 | 12.087 | 33.599 | 2 |
| 2025-05-15T19:39:00 | 54.776219 | 6.552018 | 2.0 | 11.929 | 2 | 38.652 | 12.094 | 33.599 | 2 |
| 2025-05-15T19:40:00 | 54.778012 | 6.548737 | 2.0 | 11.938 | 2 | 38.653 | 12.103 | 33.591 | 2 |
| 2025-05-15T19:41:00 | 54.779820 | 6.545620 | 2.0 | 11.944 | 2 | 38.656 | 12.111 | 33.587 | 2 |
| 2025-05-15T19:42:00 | 54.781636 | 6.542502 | 2.0 | 11.940 | 2 | 38.598 | 12.116 | 33.526 | 2 |
| 2025-05-15T19:43:00 | 54.783488 | 6.539303 | 2.0 | 11.933 | 2 | 38.642 | 12.110 | 33.574 | 2 |
| 2025-05-15T19:44:00 | 54.785337 | 6.536106 | 2.0 | 11.929 | 2 | 38.641 | 12.103 | 33.580 | 2 |
| 2025-05-15T19:45:00 | 54.787154 | 6.532933 | 2.0 | 11.922 | 2 | 38.634 | 12.099 | 33.577 | 2 |
| 2025-05-15T19:46:00 | 54.788990 | 6.529822 | 2.0 | 11.914 | 2 | 38.629 | 12.092 | 33.578 | 2 |
| 2025-05-15T19:47:00 | 54.790822 | 6.526677 | 2.0 | 11.913 | 2 | 38.623 | 12.086 | 33.578 | 2 |
| 2025-05-15T19:48:00 | 54.792668 | 6.523487 | 2.0 | 11.909 | 2 | 38.618 | 12.084 | 33.575 | 2 |
| 2025-05-15T19:49:00 | 54.794533 | 6.520275 | 2.0 | 11.903 | 2 | 38.614 | 12.080 | 33.574 | 2 |
| 2025-05-15T19:50:00 | 54.796368 | 6.517049 | 2.0 | 11.892 | 2 | 38.601 | 12.072 | 33.569 | 2 |
| 2025-05-15T19:51:00 | 54.798174 | 6.513900 | 2.0 | 11.890 | 2 | 38.590 | 12.064 | 33.565 | 2 |
| 2025-05-15T19:56:00 | 54.807187 | 6.498381 | 2.0 | 11.729 | 2 | 38.380 | 11.925 | 33.487 | 2 |
| 2025-05-15T19:57:00 | 54.809066 | 6.495191 | 2.0 | 11.753 | 2 | 38.327 | 11.908 | 33.450 | 2 |
| 2025-05-15T19:58:00 | 54.810863 | 6.492017 | 2.0 | 11.782 | 2 | 38.321 | 11.930 | 33.425 | 2 |
| 2025-05-15T19:59:00 | 54.812708 | 6.488856 | 2.0 | 11.812 | 2 | 38.330 | 11.957 | 33.409 | 2 |
| 2025-05-15T20:00:00 | 54.814578 | 6.485637 | 2.0 | 11.827 | 2 | 38.343 | 11.984 | 33.398 | 2 |
| 2025-05-15T20:01:00 | 54.816440 | 6.482324 | 2.0 | 11.835 | 2 | 38.344 | 11.998 | 33.386 | 2 |
| 2025-05-15T20:02:00 | 54.818342 | 6.479098 | 2.0 | 11.841 | 2 | 38.342 | 12.007 | 33.376 | 2 |
| 2025-05-15T20:03:00 | 54.820171 | 6.475888 | 2.0 | 11.840 | 2 | 38.337 | 12.011 | 33.368 | 2 |
| 2025-05-15T20:04:00 | 54.822048 | 6.472630 | 2.0 | 11.840 | 2 | 38.330 | 12.011 | 33.361 | 2 |
| 2025-05-15T20:05:00 | 54.823933 | 6.469420 | 2.0 | 11.847 | 2 | 38.330 | 12.011 | 33.361 | 2 |
| 2025-05-15T20:06:00 | 54.825835 | 6.466092 | 2.0 | 11.852 | 2 | 38.337 | 12.017 | 33.362 | 2 |
| 2025-05-15T20:07:00 | 54.827658 | 6.462869 | 2.0 | 11.854 | 2 | 38.344 | 12.024 | 33.363 | 2 |
| 2025-05-15T20:08:00 | 54.829389 | 6.460013 | 2.0 | 11.860 | 2 | 38.351 | 12.025 | 33.369 | 2 |
| 2025-05-15T20:09:00 | 54.831142 | 6.456868 | 2.0 | 11.874 | 2 | 38.360 | 12.032 | 33.371 | 2 |
| 2025-05-15T20:10:00 | 54.832956 | 6.453767 | 2.0 | 11.875 | 2 | 38.376 | 12.043 | 33.377 | 2 |
| 2025-05-15T20:11:00 | 54.834832 | 6.450597 | 2.0 | 11.876 | 2 | 38.387 | 12.045 | 33.386 | 2 |
| 2025-05-15T20:12:00 | 54.836670 | 6.447365 | 2.0 | 11.880 | 2 | 38.396 | 12.047 | 33.393 | 2 |
| 2025-05-15T20:13:00 | 54.838461 | 6.444270 | 2.0 | 11.885 | 2 | 38.407 | 12.053 | 33.398 | 2 |
| 2025-05-15T20:14:00 | 54.840255 | 6.441184 | 2.0 | 11.886 | 2 | 38.415 | 12.055 | 33.404 | 2 |
| 2025-05-15T20:15:00 | 54.842150 | 6.438014 | 2.0 | 11.890 | 2 | 38.424 | 12.057 | 33.411 | 2 |
| 2025-05-15T20:16:00 | 54.844059 | 6.434699 | 2.0 | 11.899 | 2 | 38.436 | 12.062 | 33.418 | 2 |
| 2025-05-15T20:17:00 | 54.845923 | 6.431425 | 2.0 | 11.908 | 2 | 38.451 | 12.071 | 33.424 | 2 |
| 2025-05-15T20:18:00 | 54.847762 | 6.428216 | 2.0 | 11.914 | 2 | 38.469 | 12.078 | 33.436 | 2 |
| 2025-05-15T20:19:00 | 54.849554 | 6.425025 | 2.0 | 11.927 | 2 | 38.485 | 12.087 | 33.443 | 2 |
| 2025-05-15T20:20:00 | 54.851411 | 6.421949 | 2.0 | 11.929 | 2 | 38.505 | 12.097 | 33.453 | 2 |
| 2025-05-15T20:21:00 | 54.853273 | 6.418793 | 2.0 | 11.938 | 2 | 38.409 | 12.101 | 33.357 | 2 |
| 2025-05-15T20:22:00 | 54.854984 | 6.415662 | 2.0 | 11.932 | 2 | 38.181 | 12.112 | 33.127 | 2 |
| 2025-05-15T20:23:00 | 54.856834 | 6.412460 | 2.0 | 11.887 | 2 | 38.545 | 12.092 | 33.497 | 2 |
| 2025-05-15T20:24:00 | 54.858711 | 6.409293 | 2.0 | 11.874 | 2 | 38.533 | 12.058 | 33.516 | 2 |
| 2025-05-15T20:25:00 | 54.860574 | 6.406072 | 2.0 | 11.835 | 2 | 38.068 | 12.038 | 33.083 | 2 |
| 2025-05-15T20:27:00 | 54.864210 | 6.399733 | 2.0 | 11.785 | 2 | 38.305 | 11.988 | 33.357 | 2 |
| 2025-05-15T20:28:00 | 54.866084 | 6.396492 | 2.0 | 11.777 | 2 | 38.415 | 11.958 | 33.491 | 2 |
| 2025-05-15T20:29:00 | 54.867968 | 6.393251 | 2.0 | 11.757 | 2 | 38.466 | 11.948 | 33.550 | 2 |
| 2025-05-15T20:30:00 | 54.869831 | 6.390082 | 2.0 | 11.769 | 2 | 38.459 | 11.931 | 33.558 | 2 |
| 2025-05-15T20:31:00 | 54.871599 | 6.386934 | 2.0 | 11.803 | 2 | 38.478 | 11.950 | 33.559 | 2 |
| 2025-05-15T20:32:00 | 54.873464 | 6.383795 | 2.0 | 11.787 | 2 | 38.502 | 11.967 | 33.567 | 2 |
| 2025-05-15T20:33:00 | 54.875329 | 6.380502 | 2.0 | 11.828 | 2 | 38.514 | 11.968 | 33.578 | 2 |
| 2025-05-15T20:34:00 | 54.877232 | 6.377204 | 2.0 | 11.783 | 2 | 38.535 | 11.980 | 33.588 | 2 |
| 2025-05-15T20:35:00 | 54.879145 | 6.373906 | 2.0 | 11.796 | 2 | 38.526 | 11.961 | 33.596 | 2 |
| 2025-05-15T20:36:00 | 54.881005 | 6.370688 | 2.0 | 11.767 | 2 | 38.535 | 11.961 | 33.605 | 2 |
| 2025-05-15T20:37:00 | 54.882852 | 6.367450 | 2.0 | 11.764 | 2 | 38.522 | 11.941 | 33.610 | 2 |
| 2025-05-15T20:38:00 | 54.884712 | 6.364251 | 2.0 | 11.780 | 2 | 38.519 | 11.941 | 33.607 | 2 |
| 2025-05-15T20:39:00 | 54.886512 | 6.361047 | 2.0 | 11.784 | 2 | 38.530 | 11.952 | 33.608 | 2 |
| 2025-05-15T20:40:00 | 54.888337 | 6.357941 | 2.0 | 11.793 | 2 | 38.536 | 11.955 | 33.611 | 2 |
| 2025-05-15T20:41:00 | 54.890193 | 6.354775 | 2.0 | 11.812 | 2 | 38.548 | 11.969 | 33.610 | 2 |
| 2025-05-15T20:42:00 | 54.892040 | 6.351598 | 2.0 | 11.827 | 2 | 38.566 | 11.984 | 33.614 | 2 |
| 2025-05-15T20:43:00 | 54.893872 | 6.348384 | 2.0 | 11.840 | 2 | 38.578 | 11.999 | 33.612 | 2 |
| 2025-05-15T20:44:00 | 54.895612 | 6.344953 | 2.0 | 11.849 | 2 | 38.588 | 12.012 | 33.610 | 2 |
| 2025-05-15T20:45:00 | 54.897289 | 6.341607 | 2.0 | 11.854 | 2 | 38.591 | 12.020 | 33.606 | 2 |
| 2025-05-15T20:46:00 | 54.898973 | 6.338301 | 2.0 | 11.863 | 2 | 38.593 | 12.026 | 33.603 | 2 |
| 2025-05-15T20:47:00 | 54.900712 | 6.335050 | 2.0 | 11.869 | 2 | 38.595 | 12.033 | 33.598 | 2 |
| 2025-05-15T20:48:00 | 54.902478 | 6.331708 | 2.0 | 11.881 | 2 | 38.532 | 12.042 | 33.529 | 2 |
| 2025-05-15T20:49:00 | 54.904190 | 6.328557 | 2.0 | 11.889 | 2 | 38.436 | 12.051 | 33.428 | 2 |
| 2025-05-15T20:50:00 | 54.905973 | 6.325264 | 2.0 | 11.903 | 2 | 38.470 | 12.061 | 33.452 | 2 |
| 2025-05-15T20:51:00 | 54.907729 | 6.321891 | 2.0 | 11.922 | 2 | 38.461 | 12.076 | 33.430 | 2 |
| 2025-05-15T20:52:00 | 54.909513 | 6.318615 | 2.0 | 11.936 | 2 | 38.605 | 12.094 | 33.553 | 2 |
| 2025-05-15T20:53:00 | 54.911324 | 6.315308 | 2.0 | 11.940 | 2 | 38.627 | 12.104 | 33.565 | 2 |
| 2025-05-15T20:54:00 | 54.913103 | 6.311957 | 2.0 | 11.949 | 2 | 38.618 | 12.111 | 33.550 | 2 |
| 2025-05-15T20:55:00 | 54.914891 | 6.308571 | 2.0 | 11.955 | 2 | 38.617 | 12.119 | 33.542 | 2 |
| 2025-05-15T20:56:00 | 54.916639 | 6.305343 | 2.0 | 11.960 | 2 | 38.620 | 12.124 | 33.541 | 2 |
| 2025-05-15T20:57:00 | 54.918427 | 6.302016 | 2.0 | 11.972 | 2 | 38.629 | 12.131 | 33.543 | 2 |
| 2025-05-15T20:58:00 | 54.920235 | 6.298721 | 2.0 | 11.977 | 2 | 38.637 | 12.141 | 33.542 | 2 |
| 2025-05-15T20:59:00 | 54.922025 | 6.295354 | 2.0 | 11.989 | 2 | 38.643 | 12.149 | 33.540 | 2 |
| 2025-05-15T21:00:00 | 54.923729 | 6.292092 | 2.0 | 11.995 | 2 | 38.653 | 12.159 | 33.541 | 2 |
| 2025-05-15T21:01:00 | 54.925447 | 6.288837 | 2.0 | 11.996 | 2 | 38.663 | 12.164 | 33.546 | 2 |
| 2025-05-15T21:02:00 | 54.927167 | 6.285727 | 2.0 | 12.005 | 2 | 38.684 | 12.168 | 33.563 | 2 |
| 2025-05-15T21:03:00 | 54.928871 | 6.282476 | 2.0 | 12.011 | 2 | 38.695 | 12.175 | 33.567 | 2 |
| 2025-05-15T21:04:00 | 54.930598 | 6.279246 | 2.0 | 12.014 | 2 | 38.705 | 12.181 | 33.572 | 2 |
| 2025-05-15T21:05:00 | 54.932393 | 6.276035 | 2.0 | 12.017 | 2 | 38.708 | 12.184 | 33.572 | 2 |
| 2025-05-15T21:06:00 | 54.934077 | 6.272868 | 2.0 | 12.017 | 2 | 38.321 | 12.186 | 33.196 | 2 |
| 2025-05-15T21:07:00 | 54.935828 | 6.269600 | 2.0 | 12.018 | 2 | 38.708 | 12.187 | 33.569 | 2 |
| 2025-05-15T21:08:00 | 54.937595 | 6.266391 | 2.0 | 12.001 | 2 | 38.198 | 12.184 | 33.079 | 2 |
| 2025-05-15T21:09:00 | 54.939339 | 6.263117 | 2.0 | 11.986 | 2 | 38.299 | 12.170 | 33.189 | 2 |
| 2025-05-15T21:10:00 | 54.941124 | 6.259805 | 2.0 | 11.963 | 2 | 38.674 | 12.152 | 33.568 | 2 |
| 2025-05-15T21:11:00 | 54.942899 | 6.256472 | 2.0 | 11.954 | 2 | 38.652 | 12.133 | 33.563 | 2 |
| 2025-05-15T21:12:00 | 54.944661 | 6.253156 | 2.0 | 11.955 | 2 | 38.646 | 12.127 | 33.563 | 2 |
| 2025-05-15T21:13:00 | 54.946460 | 6.249868 | 2.0 | 11.954 | 2 | 38.257 | 12.124 | 33.189 | 2 |
| 2025-05-15T21:14:00 | 54.948237 | 6.246550 | 2.0 | 11.964 | 2 | 38.663 | 12.127 | 33.580 | 2 |
| 2025-05-15T21:15:00 | 54.949993 | 6.243265 | 2.0 | 11.981 | 2 | 38.677 | 12.137 | 33.584 | 2 |
| 2025-05-15T21:16:00 | 54.951706 | 6.240058 | 2.0 | 12.002 | 2 | 38.265 | 12.154 | 33.171 | 2 |
| 2025-05-15T21:17:00 | 54.953411 | 6.236931 | 2.0 | 12.006 | 2 | 38.407 | 12.174 | 33.290 | 2 |
| 2025-05-15T21:18:00 | 54.955115 | 6.233674 | 2.0 | 12.013 | 2 | 38.368 | 12.177 | 33.250 | 2 |
| 2025-05-15T21:19:00 | 54.956830 | 6.230416 | 2.0 | 12.011 | 2 | 38.678 | 12.183 | 33.544 | 2 |
| 2025-05-15T21:20:00 | 54.958575 | 6.227186 | 2.0 | 11.950 | 2 | 38.746 | 12.178 | 33.614 | 2 |
| 2025-05-15T21:21:00 | 54.960310 | 6.224005 | 2.0 | 11.884 | 2 | 38.481 | 12.110 | 33.419 | 2 |
| 2025-05-15T21:22:00 | 54.962000 | 6.220914 | 2.0 | 11.791 | 2 | 38.586 | 12.040 | 33.583 | 2 |
| 2025-05-15T21:23:00 | 54.963693 | 6.217677 | 2.0 | 11.736 | 2 | 38.141 | 11.962 | 33.221 | 2 |
| 2025-05-15T21:24:00 | 54.965370 | 6.214497 | 2.0 | 11.696 | 2 | 38.053 | 11.907 | 33.185 | 2 |
| 2025-05-15T21:25:00 | 54.967106 | 6.211331 | 2.0 | 11.680 | 2 | 38.413 | 11.872 | 33.566 | 2 |
| 2025-05-15T21:26:00 | 54.968838 | 6.208060 | 2.0 | 11.670 | 2 | 38.144 | 11.853 | 33.322 | 2 |
| 2025-05-15T21:27:00 | 54.970560 | 6.204836 | 2.0 | 11.681 | 2 | 38.163 | 11.847 | 33.346 | 2 |
| 2025-05-15T21:28:00 | 54.972266 | 6.201617 | 2.0 | 11.705 | 2 | 38.189 | 11.858 | 33.361 | 2 |
| 2025-05-15T21:29:00 | 54.974001 | 6.198447 | 2.0 | 11.754 | 2 | 38.425 | 11.885 | 33.566 | 2 |
| 2025-05-15T21:30:00 | 54.975704 | 6.195215 | 2.0 | 11.760 | 2 | 38.201 | 11.929 | 33.309 | 2 |
| 2025-05-15T21:31:00 | 54.977413 | 6.192070 | 2.0 | 11.752 | 2 | 38.487 | 11.927 | 33.589 | 2 |
| 2025-05-15T21:32:00 | 54.979135 | 6.188804 | 2.0 | 11.754 | 2 | 38.467 | 11.925 | 33.571 | 2 |
| 2025-05-15T21:33:00 | 54.980869 | 6.185607 | 2.0 | 11.751 | 2 | 38.109 | 11.923 | 33.225 | 2 |
| 2025-05-15T21:34:00 | 54.982638 | 6.182406 | 2.0 | 11.763 | 2 | 38.480 | 11.924 | 33.585 | 2 |
| 2025-05-15T21:35:00 | 54.984321 | 6.179106 | 2.0 | 11.778 | 2 | 38.443 | 11.937 | 33.537 | 2 |
| 2025-05-15T21:36:00 | 54.986043 | 6.175929 | 2.0 | 11.786 | 2 | 38.368 | 11.949 | 33.453 | 2 |
| 2025-05-15T21:37:00 | 54.987708 | 6.172853 | 2.0 | 11.803 | 2 | 38.416 | 11.959 | 33.491 | 2 |
| 2025-05-15T21:38:00 | 54.989360 | 6.169820 | 2.0 | 11.819 | 2 | 38.521 | 11.974 | 33.580 | 2 |
| 2025-05-15T21:39:00 | 54.991018 | 6.166599 | 2.0 | 11.843 | 2 | 38.325 | 11.993 | 33.372 | 2 |
| 2025-05-15T21:40:00 | 54.992794 | 6.163361 | 2.0 | 11.861 | 2 | 38.418 | 12.016 | 33.442 | 2 |
| 2025-05-15T21:41:00 | 54.994564 | 6.160099 | 2.0 | 11.874 | 2 | 38.497 | 12.032 | 33.504 | 2 |
| 2025-05-15T21:42:00 | 54.996291 | 6.156811 | 2.0 | 11.888 | 2 | 38.438 | 12.045 | 33.435 | 2 |
| 2025-05-15T21:43:00 | 54.998004 | 6.153635 | 2.0 | 11.901 | 2 | 38.551 | 12.058 | 33.533 | 2 |
| 2025-05-15T21:44:00 | 54.999662 | 6.150499 | 2.0 | 11.933 | 2 | 38.528 | 12.074 | 33.496 | 2 |
| 2025-05-15T21:45:00 | 55.001351 | 6.147377 | 2.0 | 11.961 | 2 | 38.582 | 12.104 | 33.522 | 2 |
| 2025-05-15T21:46:00 | 55.003075 | 6.144171 | 2.0 | 11.974 | 2 | 38.698 | 12.130 | 33.611 | 2 |
| 2025-05-15T21:47:00 | 55.004768 | 6.140961 | 2.0 | 11.996 | 2 | 38.662 | 12.145 | 33.562 | 2 |
| 2025-05-15T21:48:00 | 55.006498 | 6.137748 | 2.0 | 12.031 | 2 | 38.754 | 12.170 | 33.629 | 2 |
| 2025-05-15T21:49:00 | 55.008191 | 6.134505 | 2.0 | 12.062 | 2 | 38.789 | 12.201 | 33.635 | 2 |
| 2025-05-15T21:50:00 | 55.009932 | 6.131317 | 2.0 | 12.092 | 2 | 38.861 | 12.234 | 33.675 | 2 |
| 2025-05-15T21:51:00 | 55.011634 | 6.128173 | 2.0 | 12.132 | 2 | 38.928 | 12.262 | 33.714 | 2 |
| 2025-05-15T21:52:00 | 55.013303 | 6.125025 | 2.0 | 12.149 | 2 | 38.985 | 12.302 | 33.733 | 2 |
| 2025-05-15T21:53:00 | 55.015016 | 6.121851 | 2.0 | 12.143 | 2 | 39.075 | 12.313 | 33.810 | 2 |
| 2025-05-15T21:54:00 | 55.016767 | 6.118647 | 2.0 | 12.127 | 2 | 39.038 | 12.307 | 33.780 | 2 |
| 2025-05-15T21:55:00 | 55.018607 | 6.115562 | 2.0 | 12.099 | 2 | 39.042 | 12.291 | 33.798 | 2 |
| 2025-05-15T21:56:00 | 55.020414 | 6.112497 | 2.0 | 12.077 | 2 | 38.998 | 12.264 | 33.780 | 2 |
| 2025-05-15T21:57:00 | 55.022165 | 6.109517 | 2.0 | 12.075 | 2 | 38.972 | 12.247 | 33.770 | 2 |
| 2025-05-15T21:58:00 | 55.023903 | 6.106539 | 2.0 | 12.051 | 2 | 38.967 | 12.241 | 33.771 | 2 |
| 2025-05-15T21:59:00 | 55.025541 | 6.103375 | 2.0 | 12.069 | 2 | 38.996 | 12.225 | 33.813 | 2 |
| 2025-05-15T22:00:00 | 55.027205 | 6.100230 | 2.0 | 12.125 | 2 | 39.023 | 12.252 | 33.815 | 2 |
| 2025-05-15T22:01:00 | 55.028886 | 6.097039 | 2.0 | 12.127 | 2 | 39.052 | 12.292 | 33.807 | 2 |
| 2025-05-15T22:02:00 | 55.030589 | 6.093812 | 2.0 | 12.115 | 2 | 39.060 | 12.293 | 33.814 | 2 |
| 2025-05-15T22:03:00 | 55.032327 | 6.090565 | 2.0 | 12.096 | 2 | 39.049 | 12.281 | 33.814 | 2 |
| 2025-05-15T22:04:00 | 55.034056 | 6.087343 | 2.0 | 12.074 | 2 | 39.017 | 12.263 | 33.799 | 2 |
| 2025-05-15T22:05:00 | 55.035762 | 6.084070 | 2.0 | 12.019 | 2 | 38.977 | 12.239 | 33.782 | 2 |
| 2025-05-15T22:06:00 | 55.037474 | 6.080823 | 2.0 | 12.000 | 2 | 38.915 | 12.187 | 33.769 | 2 |
| 2025-05-15T22:07:00 | 55.039165 | 6.077590 | 2.0 | 12.000 | 2 | 38.899 | 12.172 | 33.767 | 2 |
| 2025-05-15T22:08:00 | 55.040893 | 6.074362 | 2.0 | 11.999 | 2 | 38.899 | 12.170 | 33.769 | 2 |
| 2025-05-15T22:09:00 | 55.042575 | 6.071114 | 2.0 | 12.000 | 2 | 38.896 | 12.168 | 33.768 | 2 |
| 2025-05-15T22:10:00 | 55.044296 | 6.067905 | 2.0 | 11.999 | 2 | 38.907 | 12.170 | 33.777 | 2 |
| 2025-05-15T22:11:00 | 55.045968 | 6.064727 | 2.0 | 11.995 | 2 | 38.901 | 12.168 | 33.773 | 2 |
| 2025-05-15T22:12:00 | 55.047654 | 6.061640 | 2.0 | 11.998 | 2 | 38.906 | 12.166 | 33.780 | 2 |
| 2025-05-15T22:13:00 | 55.049308 | 6.058433 | 2.0 | 12.007 | 2 | 38.913 | 12.170 | 33.783 | 2 |
| 2025-05-15T22:14:00 | 55.050983 | 6.055195 | 2.0 | 12.011 | 2 | 38.925 | 12.177 | 33.788 | 2 |
| 2025-05-15T22:15:00 | 55.052650 | 6.052043 | 2.0 | 12.009 | 2 | 38.932 | 12.180 | 33.792 | 2 |
| 2025-05-15T22:16:00 | 55.054347 | 6.048859 | 2.0 | 12.010 | 2 | 38.932 | 12.178 | 33.794 | 2 |
| 2025-05-15T22:17:00 | 55.056028 | 6.045667 | 2.0 | 12.013 | 2 | 38.937 | 12.181 | 33.796 | 2 |
| 2025-05-15T22:18:00 | 55.057691 | 6.042531 | 2.0 | 12.015 | 2 | 38.941 | 12.182 | 33.799 | 2 |
| 2025-05-15T22:19:00 | 55.059362 | 6.039407 | 2.0 | 12.025 | 2 | 38.946 | 12.185 | 33.801 | 2 |
| 2025-05-15T22:20:00 | 55.061019 | 6.036248 | 2.0 | 12.033 | 2 | 38.958 | 12.198 | 33.801 | 2 |
| 2025-05-15T22:21:00 | 55.062636 | 6.033160 | 2.0 | 12.032 | 2 | 38.943 | 12.203 | 33.782 | 2 |
| 2025-05-15T22:22:00 | 55.064236 | 6.030182 | 2.0 | 12.038 | 2 | 38.847 | 12.203 | 33.689 | 2 |
| 2025-05-15T22:23:00 | 55.065892 | 6.027086 | 2.0 | 12.038 | 2 | 38.879 | 12.206 | 33.717 | 2 |
| 2025-05-15T22:24:00 | 55.067595 | 6.023959 | 2.0 | 12.045 | 2 | 38.892 | 12.209 | 33.727 | 2 |
| 2025-05-15T22:25:00 | 55.069249 | 6.020798 | 2.0 | 12.059 | 2 | 38.887 | 12.217 | 33.715 | 2 |
| 2025-05-15T22:26:00 | 55.070866 | 6.017634 | 2.0 | 12.074 | 2 | 38.891 | 12.230 | 33.707 | 2 |
| 2025-05-15T22:27:00 | 55.072495 | 6.014505 | 2.0 | 12.073 | 2 | 38.933 | 12.242 | 33.737 | 2 |
| 2025-05-15T22:28:00 | 55.074138 | 6.011420 | 2.0 | 12.074 | 2 | 38.986 | 12.241 | 33.789 | 2 |
| 2025-05-15T22:29:00 | 55.075812 | 6.008267 | 2.0 | 12.080 | 2 | 38.988 | 12.244 | 33.788 | 2 |
| 2025-05-15T22:30:00 | 55.077450 | 6.005136 | 2.0 | 12.089 | 2 | 38.985 | 12.251 | 33.779 | 2 |
| 2025-05-15T22:31:00 | 55.079104 | 6.001983 | 2.0 | 12.102 | 2 | 39.012 | 12.259 | 33.798 | 2 |
| 2025-05-15T22:32:00 | 55.080758 | 5.998832 | 2.0 | 12.119 | 2 | 39.042 | 12.273 | 33.814 | 2 |
| 2025-05-15T22:33:00 | 55.082428 | 5.995640 | 2.0 | 12.140 | 2 | 39.095 | 12.290 | 33.850 | 2 |
| 2025-05-15T22:34:00 | 55.084146 | 5.992538 | 2.0 | 12.164 | 2 | 39.142 | 12.311 | 33.877 | 2 |
| 2025-05-15T22:35:00 | 55.085775 | 5.989345 | 2.0 | 12.187 | 2 | 39.165 | 12.332 | 33.880 | 2 |
| 2025-05-15T22:36:00 | 55.087471 | 5.986138 | 2.0 | 12.236 | 2 | 39.230 | 12.362 | 33.915 | 2 |
| 2025-05-15T22:37:00 | 55.089194 | 5.982923 | 2.0 | 12.253 | 2 | 39.314 | 12.403 | 33.959 | 2 |
| 2025-05-15T22:38:00 | 55.090846 | 5.979697 | 2.0 | 12.228 | 2 | 39.375 | 12.416 | 34.006 | 2 |
| 2025-05-15T22:39:00 | 55.092506 | 5.976533 | 2.0 | 12.212 | 2 | 39.367 | 12.394 | 34.018 | 2 |
| 2025-05-15T22:40:00 | 55.094189 | 5.973462 | 2.0 | 12.127 | 2 | 39.380 | 12.359 | 34.063 | 2 |
| 2025-05-15T22:41:00 | 55.095794 | 5.970226 | 2.0 | 12.118 | 2 | 39.346 | 12.298 | 34.085 | 2 |
| 2025-05-15T22:42:00 | 55.097536 | 5.966987 | 2.0 | 12.106 | 2 | 39.346 | 12.288 | 34.094 | 2 |
| 2025-05-15T22:43:00 | 55.099263 | 5.963817 | 2.0 | 12.093 | 2 | 39.344 | 12.275 | 34.104 | 2 |
| 2025-05-15T22:44:00 | 55.100935 | 5.960596 | 2.0 | 12.090 | 2 | 39.342 | 12.265 | 34.112 | 2 |
| 2025-05-15T22:45:00 | 55.102567 | 5.957432 | 2.0 | 12.084 | 2 | 39.326 | 12.261 | 34.100 | 2 |
| 2025-05-15T22:46:00 | 55.104247 | 5.954289 | 2.0 | 12.075 | 2 | 39.336 | 12.253 | 34.117 | 2 |
| 2025-05-15T22:47:00 | 55.105957 | 5.951061 | 2.0 | 12.048 | 2 | 39.332 | 12.240 | 34.125 | 2 |
| 2025-05-15T22:48:00 | 55.107683 | 5.947871 | 2.0 | 12.035 | 2 | 39.312 | 12.217 | 34.126 | 2 |
| 2025-05-15T22:49:00 | 55.109343 | 5.944641 | 2.0 | 12.054 | 2 | 39.307 | 12.209 | 34.129 | 2 |
| 2025-05-15T22:50:00 | 55.111054 | 5.941436 | 2.0 | 12.039 | 2 | 39.324 | 12.223 | 34.132 | 2 |
| 2025-05-15T22:51:00 | 55.112726 | 5.938195 | 2.0 | 12.024 | 2 | 39.310 | 12.205 | 34.135 | 2 |
| 2025-05-15T22:52:00 | 55.114414 | 5.934979 | 2.0 | 12.035 | 2 | 39.302 | 12.197 | 34.135 | 2 |
| 2025-05-15T22:53:00 | 55.116129 | 5.931767 | 2.0 | 12.041 | 2 | 39.314 | 12.207 | 34.137 | 2 |
| 2025-05-15T22:54:00 | 55.117849 | 5.928623 | 2.0 | 12.042 | 2 | 39.320 | 12.210 | 34.140 | 2 |
| 2025-05-15T22:55:00 | 55.119489 | 5.925400 | 2.0 | 12.067 | 2 | 39.325 | 12.218 | 34.138 | 2 |
| 2025-05-15T22:57:00 | 55.122828 | 5.919125 | 2.0 | 12.088 | 2 | 39.375 | 12.259 | 34.149 | 2 |
| 2025-05-15T22:58:00 | 55.124467 | 5.915911 | 2.0 | 12.094 | 2 | 39.379 | 12.257 | 34.155 | 2 |
| 2025-05-15T22:59:00 | 55.126115 | 5.912887 | 2.0 | 12.115 | 2 | 39.395 | 12.274 | 34.155 | 2 |
| 2025-05-15T23:00:00 | 55.127766 | 5.909980 | 2.0 | 12.098 | 2 | 39.412 | 12.280 | 34.166 | 2 |
| 2025-05-15T23:01:00 | 55.129425 | 5.907004 | 2.0 | 12.106 | 2 | 39.402 | 12.270 | 34.165 | 2 |
| 2025-05-15T23:02:00 | 55.131004 | 5.904012 | 2.0 | 12.117 | 2 | 39.409 | 12.275 | 34.167 | 2 |
| 2025-05-15T23:03:00 | 55.132576 | 5.901135 | 2.0 | 12.128 | 2 | 39.424 | 12.286 | 34.172 | 2 |
| 2025-05-15T23:04:00 | 55.134156 | 5.898239 | 2.0 | 12.145 | 2 | 39.438 | 12.298 | 34.174 | 2 |
| 2025-05-15T23:05:00 | 55.135839 | 5.895319 | 2.0 | 12.170 | 2 | 39.458 | 12.318 | 34.175 | 2 |
| 2025-05-15T23:06:00 | 55.137739 | 5.893101 | 2.0 | 12.179 | 2 | 39.483 | 12.338 | 34.181 | 2 |
| 2025-05-15T23:07:00 | 55.139596 | 5.891025 | 2.0 | 12.182 | 2 | 39.499 | 12.347 | 34.188 | 2 |
| 2025-05-15T23:08:00 | 55.141521 | 5.888947 | 2.0 | 12.162 | 2 | 39.506 | 12.347 | 34.195 | 2 |
| 2025-05-15T23:09:00 | 55.143411 | 5.886879 | 2.0 | 12.120 | 2 | 39.479 | 12.325 | 34.189 | 2 |
| 2025-05-15T23:10:00 | 55.145249 | 5.884946 | 2.0 | 12.114 | 2 | 39.439 | 12.289 | 34.183 | 2 |
| 2025-05-15T23:11:00 | 55.147084 | 5.882951 | 2.0 | 12.119 | 2 | 39.434 | 12.287 | 34.180 | 2 |
| 2025-05-15T23:12:00 | 55.148984 | 5.880825 | 2.0 | 12.104 | 2 | 39.436 | 12.287 | 34.182 | 2 |
| 2025-05-15T23:13:00 | 55.150904 | 5.878728 | 2.0 | 12.101 | 2 | 39.426 | 12.274 | 34.185 | 2 |
| 2025-05-15T23:14:00 | 55.152909 | 5.876526 | 2.0 | 12.099 | 2 | 39.423 | 12.271 | 34.184 | 2 |
| 2025-05-15T23:15:00 | 55.154848 | 5.874343 | 2.0 | 12.099 | 2 | 39.425 | 12.270 | 34.187 | 2 |
| 2025-05-15T23:16:00 | 55.156518 | 5.871481 | 2.0 | 12.125 | 2 | 39.412 | 12.274 | 34.171 | 2 |
| 2025-05-15T23:17:00 | 55.158082 | 5.868170 | 2.0 | 12.136 | 2 | 39.454 | 12.294 | 34.193 | 2 |
| 2025-05-15T23:18:00 | 55.159705 | 5.864837 | 2.0 | 12.133 | 2 | 39.485 | 12.305 | 34.213 | 2 |
| 2025-05-15T23:19:00 | 55.161300 | 5.861449 | 2.0 | 12.107 | 2 | 39.483 | 12.293 | 34.222 | 2 |
| 2025-05-15T23:20:00 | 55.162791 | 5.857887 | 2.0 | 12.130 | 2 | 39.470 | 12.280 | 34.222 | 2 |
| 2025-05-15T23:21:00 | 55.164412 | 5.854415 | 2.0 | 12.113 | 2 | 39.501 | 12.297 | 34.236 | 2 |
| 2025-05-15T23:22:00 | 55.166045 | 5.851137 | 2.0 | 12.109 | 2 | 39.499 | 12.284 | 34.246 | 2 |
| 2025-05-15T23:23:00 | 55.167589 | 5.847808 | 2.0 | 12.112 | 2 | 39.494 | 12.279 | 34.246 | 2 |
| 2025-05-15T23:24:00 | 55.169212 | 5.844520 | 2.0 | 12.121 | 2 | 39.501 | 12.284 | 34.248 | 2 |
| 2025-05-15T23:25:00 | 55.170763 | 5.841274 | 2.0 | 12.126 | 2 | 39.517 | 12.291 | 34.257 | 2 |
| 2025-05-15T23:26:00 | 55.172351 | 5.837986 | 2.0 | 12.128 | 2 | 39.530 | 12.295 | 34.266 | 2 |
| 2025-05-15T23:27:00 | 55.173949 | 5.834653 | 2.0 | 12.138 | 2 | 39.543 | 12.299 | 34.275 | 2 |
| 2025-05-15T23:28:00 | 55.175450 | 5.831452 | 2.0 | 12.127 | 2 | 39.572 | 12.307 | 34.296 | 2 |
| 2025-05-15T23:29:00 | 55.176996 | 5.828184 | 2.0 | 12.127 | 2 | 39.588 | 12.299 | 34.318 | 2 |
| 2025-05-15T23:30:00 | 55.178612 | 5.824902 | 2.0 | 12.115 | 2 | 39.584 | 12.292 | 34.321 | 2 |
| 2025-05-15T23:31:00 | 55.180249 | 5.821564 | 2.0 | 12.113 | 2 | 39.576 | 12.286 | 34.319 | 2 |
| 2025-05-15T23:32:00 | 55.181816 | 5.818132 | 2.0 | 12.117 | 2 | 39.581 | 12.284 | 34.325 | 2 |
| 2025-05-15T23:33:00 | 55.183425 | 5.814776 | 2.0 | 12.123 | 2 | 39.593 | 12.287 | 34.334 | 2 |
| 2025-05-15T23:34:00 | 55.185047 | 5.811415 | 2.0 | 12.098 | 2 | 39.612 | 12.289 | 34.351 | 2 |
| 2025-05-15T23:35:00 | 55.186699 | 5.808014 | 2.0 | 12.069 | 2 | 39.603 | 12.264 | 34.365 | 2 |
| 2025-05-15T23:36:00 | 55.188342 | 5.804595 | 2.0 | 12.019 | 2 | 39.590 | 12.233 | 34.381 | 2 |
| 2025-05-15T23:37:00 | 55.189984 | 5.801078 | 2.0 | 11.947 | 2 | 39.562 | 12.180 | 34.403 | 2 |
| 2025-05-15T23:38:00 | 55.191601 | 5.797572 | 2.0 | 11.968 | 2 | 39.515 | 12.129 | 34.404 | 2 |
| 2025-05-15T23:39:00 | 55.193203 | 5.794391 | 2.0 | 11.981 | 2 | 39.484 | 12.142 | 34.362 | 2 |
| 2025-05-15T23:40:00 | 55.194778 | 5.791119 | 2.0 | 11.986 | 2 | 39.482 | 12.152 | 34.351 | 2 |
| 2025-05-15T23:41:00 | 55.196421 | 5.787717 | 2.0 | 11.975 | 2 | 39.470 | 12.154 | 34.337 | 2 |
| 2025-05-15T23:42:00 | 55.198084 | 5.784318 | 2.0 | 11.953 | 2 | 39.449 | 12.141 | 34.329 | 2 |
| 2025-05-15T23:43:00 | 55.199646 | 5.780961 | 2.0 | 11.952 | 2 | 39.418 | 12.125 | 34.313 | 2 |
| 2025-05-15T23:44:00 | 55.201264 | 5.777685 | 2.0 | 11.965 | 2 | 39.411 | 12.126 | 34.306 | 2 |
| 2025-05-15T23:45:00 | 55.202841 | 5.774330 | 2.0 | 11.976 | 2 | 39.425 | 12.138 | 34.308 | 2 |
| 2025-05-15T23:46:00 | 55.204449 | 5.770944 | 2.0 | 11.991 | 2 | 39.439 | 12.148 | 34.313 | 2 |
| 2025-05-15T23:47:00 | 55.206019 | 5.767582 | 2.0 | 11.996 | 2 | 39.458 | 12.164 | 34.316 | 2 |
| 2025-05-15T23:48:00 | 55.207680 | 5.764189 | 2.0 | 12.001 | 2 | 39.468 | 12.166 | 34.324 | 2 |
| 2025-05-15T23:49:00 | 55.209304 | 5.760799 | 2.0 | 12.001 | 2 | 39.476 | 12.170 | 34.328 | 2 |
| 2025-05-15T23:50:00 | 55.210913 | 5.757420 | 2.0 | 12.007 | 2 | 39.484 | 12.172 | 34.334 | 2 |
| 2025-05-15T23:51:00 | 55.212592 | 5.753954 | 2.0 | 12.005 | 2 | 39.496 | 12.176 | 34.342 | 2 |
| 2025-05-15T23:52:00 | 55.214274 | 5.750456 | 2.0 | 11.993 | 2 | 39.509 | 12.173 | 34.358 | 2 |
| 2025-05-15T23:53:00 | 55.215899 | 5.747036 | 2.0 | 11.971 | 2 | 39.522 | 12.163 | 34.379 | 2 |
| 2025-05-15T23:54:00 | 55.217541 | 5.743674 | 2.0 | 11.931 | 2 | 39.513 | 12.135 | 34.396 | 2 |
| 2025-05-15T23:55:00 | 55.219187 | 5.740228 | 2.0 | 11.903 | 2 | 39.480 | 12.098 | 34.398 | 2 |
| 2025-05-15T23:56:00 | 55.220832 | 5.736719 | 2.0 | 11.896 | 2 | 39.454 | 12.076 | 34.393 | 2 |
| 2025-05-15T23:57:00 | 55.222519 | 5.733249 | 2.0 | 11.891 | 2 | 39.445 | 12.069 | 34.391 | 2 |
| 2025-05-15T23:58:00 | 55.224164 | 5.729821 | 2.0 | 11.891 | 2 | 39.445 | 12.061 | 34.399 | 2 |
| 2025-05-15T23:59:00 | 55.225822 | 5.726386 | 2.0 | 11.889 | 2 | 39.456 | 12.064 | 34.407 | 2 |
| 2025-05-16T00:00:00 | 55.227476 | 5.722944 | 2.0 | 11.863 | 2 | 39.462 | 12.055 | 34.421 | 2 |
| 2025-05-16T00:01:00 | 55.229132 | 5.719384 | 2.0 | 11.848 | 2 | 39.455 | 12.038 | 34.430 | 2 |
| 2025-05-16T00:02:00 | 55.230761 | 5.715952 | 2.0 | 11.830 | 2 | 39.311 | 12.020 | 34.306 | 2 |
| 2025-05-16T00:04:00 | 55.234034 | 5.709292 | 2.0 | 11.830 | 2 | 39.310 | 12.005 | 34.319 | 2 |
| 2025-05-16T00:05:00 | 55.235690 | 5.705746 | 2.0 | 11.830 | 2 | 39.416 | 12.002 | 34.425 | 2 |
| 2025-05-16T00:06:00 | 55.237341 | 5.702266 | 2.0 | 11.830 | 2 | 39.415 | 12.003 | 34.423 | 2 |
| 2025-05-16T00:07:00 | 55.239051 | 5.698807 | 2.0 | 11.817 | 2 | 39.419 | 12.000 | 34.430 | 2 |
| 2025-05-16T00:08:00 | 55.240773 | 5.695265 | 2.0 | 11.797 | 2 | 39.408 | 11.985 | 34.433 | 2 |
| 2025-05-16T00:09:00 | 55.242507 | 5.691762 | 2.0 | 11.797 | 2 | 39.393 | 11.971 | 34.431 | 2 |
| 2025-05-16T00:10:00 | 55.244264 | 5.688308 | 2.0 | 11.794 | 2 | 39.391 | 11.969 | 34.431 | 2 |
| 2025-05-16T00:11:00 | 55.246023 | 5.684945 | 2.0 | 11.786 | 2 | 39.391 | 11.965 | 34.435 | 2 |
| 2025-05-16T00:12:00 | 55.247784 | 5.681610 | 2.0 | 11.777 | 2 | 39.386 | 11.956 | 34.438 | 2 |
| 2025-05-16T00:13:00 | 55.249537 | 5.678273 | 2.0 | 11.770 | 2 | 39.379 | 11.948 | 34.439 | 2 |
| 2025-05-16T00:14:00 | 55.251320 | 5.674837 | 2.0 | 11.744 | 2 | 39.374 | 11.937 | 34.444 | 2 |
| 2025-05-16T00:15:00 | 55.253132 | 5.671454 | 2.0 | 11.726 | 2 | 39.353 | 11.914 | 34.445 | 2 |
| 2025-05-16T00:16:00 | 55.254911 | 5.668078 | 2.0 | 11.707 | 2 | 39.340 | 11.897 | 34.448 | 2 |
| 2025-05-16T00:17:00 | 55.256642 | 5.664782 | 2.0 | 11.687 | 2 | 39.324 | 11.877 | 34.451 | 2 |
| 2025-05-16T00:18:00 | 55.258395 | 5.661463 | 2.0 | 11.678 | 2 | 39.313 | 11.860 | 34.456 | 2 |
| 2025-05-16T00:19:00 | 55.260186 | 5.658012 | 2.0 | 11.673 | 2 | 39.306 | 11.851 | 34.457 | 2 |
| 2025-05-16T00:20:00 | 55.261992 | 5.654599 | 2.0 | 11.664 | 2 | 39.299 | 11.843 | 34.458 | 2 |
| 2025-05-16T00:21:00 | 55.263745 | 5.651251 | 2.0 | 11.663 | 2 | 39.295 | 11.836 | 34.460 | 2 |
| 2025-05-16T00:22:00 | 55.265534 | 5.647872 | 2.0 | 11.658 | 2 | 39.294 | 11.834 | 34.461 | 2 |
| 2025-05-16T00:23:00 | 55.267328 | 5.644424 | 2.0 | 11.661 | 2 | 39.294 | 11.831 | 34.464 | 2 |
| 2025-05-16T00:24:00 | 55.269093 | 5.641004 | 2.0 | 11.672 | 2 | 39.297 | 11.835 | 34.463 | 2 |
| 2025-05-16T00:25:00 | 55.270858 | 5.637645 | 2.0 | 11.674 | 2 | 39.306 | 11.843 | 34.465 | 2 |
| 2025-05-16T00:26:00 | 55.272623 | 5.634247 | 2.0 | 11.670 | 2 | 39.308 | 11.844 | 34.466 | 2 |
| 2025-05-16T00:27:00 | 55.274375 | 5.630961 | 2.0 | 11.651 | 2 | 39.316 | 11.840 | 34.477 | 2 |
| 2025-05-16T00:28:00 | 55.276167 | 5.627561 | 2.0 | 11.643 | 2 | 39.309 | 11.824 | 34.485 | 2 |
| 2025-05-16T00:29:00 | 55.277916 | 5.624141 | 2.0 | 11.630 | 2 | 39.303 | 11.812 | 34.490 | 2 |
| 2025-05-16T00:30:00 | 55.279677 | 5.620924 | 2.0 | 11.623 | 2 | 39.294 | 11.801 | 34.492 | 2 |
| 2025-05-16T00:31:00 | 55.281368 | 5.617650 | 2.0 | 11.625 | 2 | 39.296 | 11.795 | 34.499 | 2 |
| 2025-05-16T00:32:00 | 55.283105 | 5.614343 | 2.0 | 11.621 | 2 | 39.302 | 11.797 | 34.503 | 2 |
| 2025-05-16T00:33:00 | 55.284815 | 5.611086 | 2.0 | 11.616 | 2 | 39.297 | 11.791 | 34.504 | 2 |
| 2025-05-16T00:34:00 | 55.286538 | 5.607798 | 2.0 | 11.614 | 2 | 39.298 | 11.788 | 34.508 | 2 |
| 2025-05-16T00:35:00 | 55.288277 | 5.604569 | 2.0 | 11.604 | 2 | 39.301 | 11.785 | 34.514 | 2 |
| 2025-05-16T00:36:00 | 55.290078 | 5.601362 | 2.0 | 11.574 | 2 | 39.294 | 11.771 | 34.520 | 2 |
| 2025-05-16T00:37:00 | 55.291842 | 5.597925 | 2.0 | 11.535 | 2 | 39.271 | 11.743 | 34.523 | 2 |
| 2025-05-16T00:38:00 | 55.293609 | 5.594440 | 2.0 | 11.484 | 2 | 39.238 | 11.702 | 34.529 | 2 |
| 2025-05-16T00:39:00 | 55.295440 | 5.590971 | 2.0 | 11.437 | 2 | 39.195 | 11.653 | 34.532 | 2 |
| 2025-05-16T00:40:00 | 55.297197 | 5.587508 | 2.0 | 11.394 | 2 | 39.150 | 11.604 | 34.534 | 2 |
| 2025-05-16T00:41:00 | 55.299024 | 5.584093 | 2.0 | 11.347 | 2 | 39.118 | 11.565 | 34.539 | 2 |
| 2025-05-16T00:42:00 | 55.300817 | 5.580653 | 2.0 | 11.307 | 2 | 39.079 | 11.518 | 34.544 | 2 |
| 2025-05-16T00:43:00 | 55.302547 | 5.577302 | 2.0 | 11.302 | 2 | 39.046 | 11.484 | 34.543 | 2 |
| 2025-05-16T00:44:00 | 55.304315 | 5.574004 | 2.0 | 11.300 | 2 | 39.041 | 11.478 | 34.544 | 2 |
| 2025-05-16T00:45:00 | 55.306098 | 5.570599 | 2.0 | 11.292 | 2 | 39.028 | 11.474 | 34.535 | 2 |
| 2025-05-16T00:46:00 | 55.307866 | 5.567232 | 2.0 | 11.289 | 2 | 39.026 | 11.468 | 34.539 | 2 |
| 2025-05-16T00:47:00 | 55.309654 | 5.563798 | 2.0 | 11.273 | 2 | 39.029 | 11.461 | 34.548 | 2 |
| 2025-05-16T00:48:00 | 55.311440 | 5.560402 | 2.0 | 11.271 | 2 | 39.024 | 11.449 | 34.554 | 2 |
| 2025-05-16T00:49:00 | 55.313215 | 5.556990 | 2.0 | 11.265 | 2 | 39.013 | 11.444 | 34.548 | 2 |
| 2025-05-16T00:50:00 | 55.315014 | 5.553583 | 2.0 | 11.271 | 2 | 39.016 | 11.441 | 34.554 | 2 |
| 2025-05-16T00:51:00 | 55.316821 | 5.550153 | 2.0 | 11.270 | 2 | 39.027 | 11.445 | 34.561 | 2 |
| 2025-05-16T00:52:00 | 55.318594 | 5.546775 | 2.0 | 11.268 | 2 | 39.031 | 11.444 | 34.566 | 2 |
| 2025-05-16T00:53:00 | 55.320316 | 5.543394 | 2.0 | 11.260 | 2 | 39.032 | 11.440 | 34.571 | 2 |
| 2025-05-16T00:54:00 | 55.322094 | 5.540038 | 2.0 | 11.252 | 2 | 39.027 | 11.433 | 34.572 | 2 |
| 2025-05-16T00:55:00 | 55.323802 | 5.536752 | 2.0 | 11.247 | 2 | 39.020 | 11.425 | 34.573 | 2 |
| 2025-05-16T00:56:00 | 55.325602 | 5.533440 | 2.0 | 11.240 | 2 | 39.016 | 11.420 | 34.574 | 2 |
| 2025-05-16T00:57:00 | 55.327361 | 5.529991 | 2.0 | 11.239 | 2 | 39.018 | 11.414 | 34.581 | 2 |
| 2025-05-16T00:58:00 | 55.329147 | 5.526574 | 2.0 | 11.242 | 2 | 39.023 | 11.415 | 34.585 | 2 |
| 2025-05-16T00:59:00 | 55.330881 | 5.523192 | 2.0 | 11.240 | 2 | 39.024 | 11.415 | 34.586 | 2 |
| 2025-05-16T01:00:00 | 55.332672 | 5.519876 | 2.0 | 11.237 | 2 | 39.028 | 11.412 | 34.593 | 2 |
| 2025-05-16T01:01:00 | 55.334443 | 5.516506 | 2.0 | 11.237 | 2 | 39.028 | 11.410 | 34.595 | 2 |
| 2025-05-16T01:02:00 | 55.336205 | 5.513177 | 2.0 | 11.236 | 2 | 39.034 | 11.409 | 34.602 | 2 |
| 2025-05-16T01:03:00 | 55.337999 | 5.509694 | 2.0 | 11.233 | 2 | 39.037 | 11.409 | 34.605 | 2 |
| 2025-05-16T01:04:00 | 55.339799 | 5.506283 | 2.0 | 11.216 | 2 | 39.037 | 11.404 | 34.609 | 2 |
| 2025-05-16T01:05:00 | 55.341622 | 5.502880 | 2.0 | 11.191 | 2 | 39.026 | 11.387 | 34.614 | 2 |
| 2025-05-16T01:06:00 | 55.343423 | 5.499443 | 2.0 | 11.182 | 2 | 39.006 | 11.364 | 34.616 | 2 |
| 2025-05-16T01:07:00 | 55.345159 | 5.495972 | 2.0 | 11.185 | 2 | 39.001 | 11.357 | 34.618 | 2 |
| 2025-05-16T01:08:00 | 55.346930 | 5.492620 | 2.0 | 11.189 | 2 | 39.004 | 11.360 | 34.618 | 2 |
| 2025-05-16T01:09:00 | 55.348642 | 5.489352 | 2.0 | 11.196 | 2 | 39.011 | 11.363 | 34.622 | 2 |
| 2025-05-16T01:10:00 | 55.350454 | 5.485896 | 2.0 | 11.195 | 2 | 39.020 | 11.369 | 34.625 | 2 |
| 2025-05-16T01:11:00 | 55.352261 | 5.482483 | 2.0 | 11.187 | 2 | 39.021 | 11.366 | 34.629 | 2 |
| 2025-05-16T01:12:00 | 55.354010 | 5.479096 | 2.0 | 11.179 | 2 | 39.018 | 11.361 | 34.631 | 2 |
| 2025-05-16T01:13:00 | 55.355730 | 5.475720 | 2.0 | 11.163 | 2 | 39.011 | 11.350 | 34.634 | 2 |
| 2025-05-16T01:14:00 | 55.357519 | 5.472283 | 2.0 | 11.144 | 2 | 38.999 | 11.335 | 34.637 | 2 |
| 2025-05-16T01:15:00 | 55.359314 | 5.468866 | 2.0 | 11.127 | 2 | 38.984 | 11.317 | 34.639 | 2 |
| 2025-05-16T01:16:00 | 55.361081 | 5.465408 | 2.0 | 11.111 | 2 | 38.964 | 11.300 | 34.635 | 2 |
| 2025-05-16T01:17:00 | 55.362856 | 5.462003 | 2.0 | 11.101 | 2 | 38.949 | 11.286 | 34.633 | 2 |
| 2025-05-16T01:18:00 | 55.364621 | 5.458632 | 2.0 | 11.094 | 2 | 38.942 | 11.276 | 34.636 | 2 |
| 2025-05-16T01:19:00 | 55.366401 | 5.455245 | 2.0 | 11.084 | 2 | 38.936 | 11.269 | 34.636 | 2 |
| 2025-05-16T01:20:00 | 55.368133 | 5.451903 | 2.0 | 11.081 | 2 | 38.929 | 11.259 | 34.639 | 2 |
| 2025-05-16T01:21:00 | 55.369861 | 5.448654 | 2.0 | 11.081 | 2 | 38.926 | 11.256 | 34.638 | 2 |
| 2025-05-16T01:22:00 | 55.371600 | 5.445326 | 2.0 | 11.078 | 2 | 38.926 | 11.255 | 34.639 | 2 |
| 2025-05-16T01:23:00 | 55.373285 | 5.442011 | 2.0 | 11.073 | 2 | 38.922 | 11.251 | 34.639 | 2 |
| 2025-05-16T01:24:00 | 55.375007 | 5.438689 | 2.0 | 11.072 | 2 | 38.920 | 11.246 | 34.642 | 2 |
| 2025-05-16T01:25:00 | 55.376742 | 5.435347 | 2.0 | 11.078 | 2 | 38.922 | 11.248 | 34.642 | 2 |
| 2025-05-16T01:26:00 | 55.378416 | 5.432046 | 2.0 | 11.083 | 2 | 38.925 | 11.253 | 34.640 | 2 |
| 2025-05-16T01:27:00 | 55.380128 | 5.428824 | 2.0 | 11.086 | 2 | 38.921 | 11.260 | 34.630 | 2 |
| 2025-05-16T01:28:00 | 55.381842 | 5.425527 | 2.0 | 11.088 | 2 | 38.922 | 11.260 | 34.631 | 2 |
| 2025-05-16T01:29:00 | 55.383566 | 5.422264 | 2.0 | 11.092 | 2 | 38.940 | 11.263 | 34.646 | 2 |
| 2025-05-16T01:30:00 | 55.385312 | 5.418878 | 2.0 | 11.091 | 2 | 38.943 | 11.265 | 34.647 | 2 |
| 2025-05-16T01:31:00 | 55.387129 | 5.415503 | 2.0 | 11.091 | 2 | 38.944 | 11.265 | 34.648 | 2 |
| 2025-05-16T01:32:00 | 55.388909 | 5.412049 | 2.0 | 11.086 | 2 | 38.940 | 11.265 | 34.644 | 2 |
| 2025-05-16T01:33:00 | 55.390578 | 5.408716 | 2.0 | 11.077 | 2 | 38.939 | 11.259 | 34.649 | 2 |
| 2025-05-16T01:34:00 | 55.392248 | 5.405483 | 2.0 | 11.074 | 2 | 38.923 | 11.249 | 34.642 | 2 |
| 2025-05-16T01:35:00 | 55.394007 | 5.402289 | 2.0 | 11.079 | 2 | 38.930 | 11.248 | 34.650 | 2 |
| 2025-05-16T01:36:00 | 55.395723 | 5.399069 | 2.0 | 11.081 | 2 | 38.936 | 11.252 | 34.652 | 2 |
| 2025-05-16T01:37:00 | 55.397391 | 5.395708 | 2.0 | 11.086 | 2 | 38.938 | 11.255 | 34.651 | 2 |
| 2025-05-16T01:38:00 | 55.399160 | 5.392360 | 2.0 | 11.090 | 2 | 38.944 | 11.261 | 34.652 | 2 |
| 2025-05-16T01:39:00 | 55.401078 | 5.389626 | 2.0 | 11.089 | 2 | 38.940 | 11.262 | 34.647 | 2 |
| 2025-05-16T01:40:00 | 55.403240 | 5.387460 | 2.0 | 11.088 | 2 | 38.940 | 11.263 | 34.646 | 2 |
| 2025-05-16T01:41:00 | 55.405204 | 5.385037 | 2.0 | 11.087 | 2 | 38.941 | 11.261 | 34.649 | 2 |
| 2025-05-16T01:42:00 | 55.407206 | 5.382643 | 2.0 | 11.082 | 2 | 38.946 | 11.260 | 34.655 | 2 |
| 2025-05-16T01:43:00 | 55.409174 | 5.380331 | 2.0 | 11.073 | 2 | 38.943 | 11.254 | 34.657 | 2 |
| 2025-05-16T01:44:00 | 55.411117 | 5.378016 | 2.0 | 11.070 | 2 | 38.937 | 11.245 | 34.660 | 2 |
| 2025-05-16T01:45:00 | 55.413166 | 5.375659 | 2.0 | 11.066 | 2 | 38.934 | 11.243 | 34.659 | 2 |
| 2025-05-16T01:46:00 | 55.415230 | 5.373280 | 2.0 | 11.057 | 2 | 38.931 | 11.238 | 34.660 | 2 |
| 2025-05-16T01:47:00 | 55.417178 | 5.370813 | 2.0 | 11.055 | 2 | 38.915 | 11.231 | 34.651 | 2 |
| 2025-05-16T01:48:00 | 55.419268 | 5.368355 | 2.0 | 11.051 | 2 | 38.907 | 11.228 | 34.646 | 2 |
| 2025-05-16T01:49:00 | 55.421338 | 5.365949 | 2.0 | 11.051 | 2 | 38.910 | 11.225 | 34.652 | 2 |
| 2025-05-16T01:50:00 | 55.423411 | 5.363427 | 2.0 | 11.052 | 2 | 38.917 | 11.224 | 34.660 | 2 |
| 2025-05-16T01:51:00 | 55.425427 | 5.361060 | 2.0 | 11.050 | 2 | 38.918 | 11.225 | 34.660 | 2 |
| 2025-05-16T01:52:00 | 55.427486 | 5.358619 | 2.0 | 11.048 | 2 | 38.918 | 11.223 | 34.662 | 2 |
| 2025-05-16T01:53:00 | 55.429552 | 5.356180 | 2.0 | 11.047 | 2 | 38.917 | 11.221 | 34.662 | 2 |
| 2025-05-16T01:54:00 | 55.431725 | 5.353636 | 2.0 | 11.047 | 2 | 38.915 | 11.219 | 34.662 | 2 |
| 2025-05-16T01:55:00 | 55.433852 | 5.351095 | 2.0 | 11.039 | 2 | 38.915 | 11.219 | 34.662 | 2 |
| 2025-05-16T01:56:00 | 55.435887 | 5.348592 | 2.0 | 11.038 | 2 | 38.908 | 11.211 | 34.663 | 2 |
| 2025-05-16T01:57:00 | 55.437962 | 5.346133 | 2.0 | 11.036 | 2 | 38.907 | 11.210 | 34.663 | 2 |
| 2025-05-16T01:58:00 | 55.440150 | 5.343565 | 2.0 | 11.032 | 2 | 38.906 | 11.210 | 34.662 | 2 |
| 2025-05-16T01:59:00 | 55.442269 | 5.341028 | 2.0 | 11.029 | 2 | 38.884 | 11.206 | 34.644 | 2 |
| 2025-05-16T02:00:00 | 55.444322 | 5.338641 | 2.0 | 11.023 | 2 | 38.774 | 11.206 | 34.535 | 2 |
| 2025-05-16T02:01:00 | 55.446467 | 5.336098 | 2.0 | 11.017 | 2 | 38.869 | 11.196 | 34.638 | 2 |
| 2025-05-16T02:02:00 | 55.448550 | 5.333603 | 2.0 | 11.021 | 2 | 38.867 | 11.191 | 34.641 | 2 |
| 2025-05-16T02:03:00 | 55.450657 | 5.331129 | 2.0 | 11.013 | 2 | 38.869 | 11.192 | 34.642 | 2 |
| 2025-05-16T02:04:00 | 55.452741 | 5.328641 | 2.0 | 11.020 | 2 | 38.864 | 11.187 | 34.642 | 2 |
| 2025-05-16T02:05:00 | 55.454906 | 5.326054 | 2.0 | 11.023 | 2 | 38.869 | 11.193 | 34.641 | 2 |
| 2025-05-16T02:06:00 | 55.456902 | 5.323000 | 2.0 | 11.033 | 2 | 38.875 | 11.197 | 34.643 | 2 |
| 2025-05-16T02:07:00 | 55.458890 | 5.319891 | 2.0 | 11.035 | 2 | 38.841 | 11.205 | 34.602 | 2 |
| 2025-05-16T02:08:00 | 55.460812 | 5.317013 | 2.0 | 11.037 | 2 | 38.892 | 11.207 | 34.651 | 2 |
| 2025-05-16T02:09:00 | 55.462790 | 5.313980 | 2.0 | 11.044 | 2 | 38.899 | 11.212 | 34.653 | 2 |
| 2025-05-16T02:10:00 | 55.464766 | 5.310858 | 2.0 | 11.045 | 2 | 38.904 | 11.218 | 34.652 | 2 |
| 2025-05-16T02:11:00 | 55.466656 | 5.307794 | 2.0 | 11.047 | 2 | 38.900 | 11.219 | 34.647 | 2 |
| 2025-05-16T02:12:00 | 55.468596 | 5.304720 | 2.0 | 11.044 | 2 | 38.900 | 11.217 | 34.649 | 2 |
| 2025-05-16T02:13:00 | 55.470526 | 5.301631 | 2.0 | 11.043 | 2 | 38.902 | 11.217 | 34.651 | 2 |
| 2025-05-16T02:14:00 | 55.472481 | 5.298582 | 2.0 | 11.036 | 2 | 38.901 | 11.216 | 34.651 | 2 |
| 2025-05-16T02:15:00 | 55.474427 | 5.295471 | 2.0 | 11.033 | 2 | 38.895 | 11.210 | 34.651 | 2 |
| 2025-05-16T02:16:00 | 55.476394 | 5.292420 | 2.0 | 11.027 | 2 | 38.891 | 11.206 | 34.651 | 2 |
| 2025-05-16T02:17:00 | 55.478321 | 5.289337 | 2.0 | 11.020 | 2 | 38.885 | 11.199 | 34.651 | 2 |
| 2025-05-16T02:18:00 | 55.480266 | 5.286213 | 2.0 | 11.014 | 2 | 38.873 | 11.193 | 34.645 | 2 |
| 2025-05-16T02:19:00 | 55.482229 | 5.283117 | 2.0 | 11.011 | 2 | 38.864 | 11.187 | 34.642 | 2 |
| 2025-05-16T02:20:00 | 55.484125 | 5.280156 | 2.0 | 11.009 | 2 | 38.859 | 11.187 | 34.637 | 2 |
| 2025-05-16T02:21:00 | 55.486082 | 5.277049 | 2.0 | 10.998 | 2 | 38.865 | 11.180 | 34.649 | 2 |
| 2025-05-16T02:22:00 | 55.488060 | 5.273850 | 2.0 | 10.990 | 2 | 38.858 | 11.171 | 34.651 | 2 |
| 2025-05-16T02:23:00 | 55.489976 | 5.270819 | 2.0 | 10.984 | 2 | 38.848 | 11.163 | 34.649 | 2 |
| 2025-05-16T02:24:00 | 55.491869 | 5.267783 | 2.0 | 10.978 | 2 | 38.843 | 11.157 | 34.649 | 2 |
| 2025-05-16T02:25:00 | 55.493719 | 5.264812 | 2.0 | 10.972 | 2 | 38.836 | 11.153 | 34.646 | 2 |
| 2025-05-16T02:26:00 | 55.495634 | 5.261878 | 2.0 | 10.968 | 2 | 38.832 | 11.146 | 34.649 | 2 |
| 2025-05-16T02:27:00 | 55.497478 | 5.258907 | 2.0 | 10.965 | 2 | 38.825 | 11.141 | 34.646 | 2 |
| 2025-05-16T02:28:00 | 55.499348 | 5.255891 | 2.0 | 10.956 | 2 | 38.809 | 11.138 | 34.633 | 2 |
| 2025-05-16T02:29:00 | 55.501208 | 5.252993 | 2.0 | 10.947 | 2 | 38.800 | 11.128 | 34.634 | 2 |
| 2025-05-16T02:31:00 | 55.504951 | 5.246966 | 2.0 | 10.942 | 2 | 38.735 | 11.124 | 34.573 | 2 |
| 2025-05-16T02:32:00 | 55.506852 | 5.243984 | 2.0 | 10.944 | 2 | 38.783 | 11.117 | 34.627 | 2 |
| 2025-05-16T02:33:00 | 55.508729 | 5.240957 | 2.0 | 10.950 | 2 | 38.790 | 11.119 | 34.632 | 2 |
| 2025-05-16T02:34:00 | 55.510641 | 5.238002 | 2.0 | 10.954 | 2 | 38.803 | 11.124 | 34.641 | 2 |
| 2025-05-16T02:35:00 | 55.512533 | 5.234929 | 2.0 | 10.959 | 2 | 38.802 | 11.127 | 34.637 | 2 |
| 2025-05-16T02:36:00 | 55.514442 | 5.231931 | 2.0 | 10.958 | 2 | 38.813 | 11.133 | 34.642 | 2 |
| 2025-05-16T02:37:00 | 55.516263 | 5.229039 | 2.0 | 10.959 | 2 | 38.814 | 11.131 | 34.645 | 2 |
| 2025-05-16T02:38:00 | 55.518197 | 5.225992 | 2.0 | 10.960 | 2 | 38.817 | 11.132 | 34.647 | 2 |
| 2025-05-16T02:39:00 | 55.520133 | 5.222866 | 2.0 | 10.963 | 2 | 38.817 | 11.134 | 34.645 | 2 |
| 2025-05-16T02:40:00 | 55.521951 | 5.219982 | 2.0 | 10.968 | 2 | 38.824 | 11.136 | 34.650 | 2 |
| 2025-05-16T02:41:00 | 55.523788 | 5.217074 | 2.0 | 10.966 | 2 | 38.830 | 11.140 | 34.652 | 2 |
| 2025-05-16T02:42:00 | 55.525653 | 5.214104 | 2.0 | 10.969 | 2 | 38.832 | 11.139 | 34.655 | 2 |
| 2025-05-16T02:43:00 | 55.527492 | 5.211195 | 2.0 | 10.973 | 2 | 38.835 | 11.142 | 34.655 | 2 |
| 2025-05-16T02:44:00 | 55.529376 | 5.208267 | 2.0 | 10.983 | 2 | 38.840 | 11.147 | 34.656 | 2 |
| 2025-05-16T02:45:00 | 55.531287 | 5.205215 | 2.0 | 10.994 | 2 | 38.849 | 11.157 | 34.655 | 2 |
| 2025-05-16T02:47:00 | 55.534707 | 5.199759 | 2.0 | 11.003 | 2 | 38.693 | 11.180 | 34.478 | 2 |
| 2025-05-16T02:48:00 | 55.536300 | 5.197198 | 2.0 | 11.005 | 2 | 38.780 | 11.180 | 34.565 | 2 |
| 2025-05-16T02:49:00 | 55.537980 | 5.194616 | 2.0 | 11.006 | 2 | 38.844 | 11.179 | 34.629 | 2 |
| 2025-05-16T02:50:00 | 55.539770 | 5.191746 | 2.0 | 11.006 | 2 | 38.869 | 11.179 | 34.654 | 2 |
| 2025-05-16T02:51:00 | 55.541642 | 5.188847 | 2.0 | 11.012 | 2 | 38.872 | 11.180 | 34.656 | 2 |
| 2025-05-16T02:52:00 | 55.543496 | 5.185822 | 2.0 | 11.019 | 2 | 38.879 | 11.185 | 34.659 | 2 |
| 2025-05-16T02:53:00 | 55.545364 | 5.182863 | 2.0 | 11.022 | 2 | 38.885 | 11.193 | 34.657 | 2 |
| 2025-05-16T02:54:00 | 55.547198 | 5.179942 | 2.0 | 11.024 | 2 | 38.891 | 11.194 | 34.662 | 2 |
| 2025-05-16T02:55:00 | 55.549082 | 5.176698 | 2.0 | 11.023 | 2 | 38.893 | 11.195 | 34.663 | 2 |
| 2025-05-16T02:56:00 | 55.550950 | 5.173558 | 2.0 | 11.015 | 2 | 38.882 | 11.196 | 34.651 | 2 |
| 2025-05-16T03:00:00 | 55.557781 | 5.161859 | 2.0 | 11.011 | 2 | 38.894 | 11.190 | 34.669 | 2 |
| 2025-05-16T03:01:00 | 55.559517 | 5.158863 | 2.0 | 11.009 | 2 | 38.890 | 11.186 | 34.669 | 2 |
| 2025-05-16T03:02:00 | 55.561254 | 5.155814 | 2.0 | 11.003 | 2 | 38.887 | 11.181 | 34.670 | 2 |
| 2025-05-16T03:03:00 | 55.562940 | 5.152745 | 2.0 | 11.000 | 2 | 38.886 | 11.175 | 34.675 | 2 |
| 2025-05-16T03:04:00 | 55.564633 | 5.149557 | 2.0 | 11.000 | 2 | 38.873 | 11.173 | 34.664 | 2 |
| 2025-05-16T03:05:00 | 55.566308 | 5.146513 | 2.0 | 11.000 | 2 | 38.882 | 11.171 | 34.675 | 2 |
| 2025-05-16T03:06:00 | 55.568092 | 5.143296 | 2.0 | 10.999 | 2 | 38.889 | 11.173 | 34.680 | 2 |
| 2025-05-16T03:07:00 | 55.569885 | 5.140054 | 2.0 | 11.002 | 2 | 38.890 | 11.172 | 34.682 | 2 |
| 2025-05-16T03:08:00 | 55.571639 | 5.136803 | 2.0 | 11.000 | 2 | 38.892 | 11.172 | 34.684 | 2 |
| 2025-05-16T03:09:00 | 55.573378 | 5.133632 | 2.0 | 11.005 | 2 | 38.892 | 11.174 | 34.682 | 2 |
| 2025-05-16T03:10:00 | 55.574895 | 5.130672 | 2.0 | 11.011 | 2 | 38.710 | 11.191 | 34.485 | 2 |
| 2025-05-16T03:11:00 | 55.576406 | 5.127907 | 2.0 | 11.017 | 2 | 38.650 | 11.185 | 34.431 | 2 |
| 2025-05-16T03:12:00 | 55.578074 | 5.124914 | 2.0 | 11.020 | 2 | 38.890 | 11.190 | 34.665 | 2 |
| 2025-05-16T03:17:00 | 55.586610 | 5.109476 | 2.0 | 11.002 | 2 | 38.903 | 11.178 | 34.689 | 2 |
| 2025-05-16T03:18:00 | 55.588309 | 5.106306 | 2.0 | 10.987 | 2 | 38.880 | 11.189 | 34.656 | 2 |
| 2025-05-16T03:19:00 | 55.589963 | 5.103243 | 2.0 | 10.974 | 2 | 38.627 | 11.170 | 34.422 | 2 |
| 2025-05-16T03:21:00 | 55.592891 | 5.097896 | 2.0 | 10.975 | 2 | 38.852 | 11.159 | 34.656 | 2 |
| 2025-05-16T03:22:00 | 55.594421 | 5.095141 | 2.0 | 10.979 | 2 | 38.861 | 11.150 | 34.674 | 2 |
| 2025-05-16T03:23:00 | 55.596040 | 5.092230 | 2.0 | 10.979 | 2 | 38.878 | 11.152 | 34.689 | 2 |
| 2025-05-16T03:24:00 | 55.597758 | 5.089128 | 2.0 | 10.978 | 2 | 38.881 | 11.151 | 34.693 | 2 |
| 2025-05-16T03:25:00 | 55.599476 | 5.085833 | 2.0 | 10.975 | 2 | 38.735 | 11.157 | 34.542 | 2 |
| 2025-05-16T03:36:00 | 55.617042 | 5.054412 | 2.0 | 10.879 | 2 | 38.735 | 11.067 | 34.627 | 2 |
| 2025-05-16T03:37:00 | 55.618633 | 5.051299 | 2.0 | 10.870 | 2 | 38.789 | 11.050 | 34.696 | 2 |
| 2025-05-16T03:38:00 | 55.620259 | 5.048300 | 2.0 | 10.869 | 2 | 38.788 | 11.043 | 34.702 | 2 |
| 2025-05-16T03:39:00 | 55.621890 | 5.045136 | 2.0 | 10.860 | 2 | 38.456 | 11.079 | 34.337 | 2 |
| 2025-05-16T03:42:00 | 55.626849 | 5.035816 | 2.0 | 10.838 | 2 | 38.756 | 11.013 | 34.698 | 2 |
| 2025-05-16T03:45:00 | 55.631557 | 5.027023 | 2.0 | 10.870 | 2 | 38.779 | 11.042 | 34.694 | 2 |
| 2025-05-16T03:48:00 | 55.636455 | 5.017685 | 2.0 | 10.896 | 2 | 38.688 | 11.063 | 34.583 | 2 |
| 2025-05-16T03:49:00 | 55.638013 | 5.014682 | 2.0 | 10.904 | 2 | 38.706 | 11.072 | 34.593 | 2 |
| 2025-05-16T03:50:00 | 55.639634 | 5.011506 | 2.0 | 10.912 | 2 | 38.815 | 11.078 | 34.696 | 2 |
| 2025-05-16T03:51:00 | 55.641201 | 5.008349 | 2.0 | 10.917 | 2 | 38.804 | 11.086 | 34.677 | 2 |
| 2025-05-16T03:52:00 | 55.642711 | 5.005167 | 2.0 | 10.912 | 2 | 38.846 | 11.096 | 34.710 | 2 |
| 2025-05-16T03:53:00 | 55.644306 | 5.001928 | 2.0 | 10.914 | 2 | 38.841 | 11.087 | 34.713 | 2 |
| 2025-05-16T03:54:00 | 55.645919 | 4.998771 | 2.0 | 10.909 | 2 | 38.841 | 11.084 | 34.716 | 2 |
| 2025-05-16T03:55:00 | 55.647568 | 4.995425 | 2.0 | 10.912 | 2 | 38.690 | 11.084 | 34.566 | 2 |
| 2025-05-16T03:56:00 | 55.649233 | 4.992077 | 2.0 | 10.913 | 2 | 38.784 | 11.083 | 34.660 | 2 |
| 2025-05-16T03:57:00 | 55.650783 | 4.988820 | 2.0 | 10.910 | 2 | 38.710 | 11.087 | 34.583 | 2 |
| 2025-05-16T03:58:00 | 55.652332 | 4.985598 | 2.0 | 10.897 | 2 | 38.853 | 11.082 | 34.730 | 2 |
| 2025-05-16T03:59:00 | 55.653989 | 4.982416 | 2.0 | 10.881 | 2 | 38.847 | 11.066 | 34.739 | 2 |
| 2025-05-16T04:00:00 | 55.655591 | 4.979094 | 2.0 | 10.860 | 2 | 38.684 | 11.054 | 34.588 | 2 |
| 2025-05-16T04:03:00 | 55.660122 | 4.969874 | 2.0 | 10.815 | 2 | 38.769 | 11.001 | 34.723 | 2 |
| 2025-05-16T04:09:00 | 55.668812 | 4.951958 | 2.0 | 10.698 | 2 | 38.521 | 10.883 | 34.586 | 2 |
| 2025-05-16T04:10:00 | 55.670296 | 4.949070 | 2.0 | 10.685 | 2 | 38.652 | 10.871 | 34.729 | 2 |
| 2025-05-16T04:17:00 | 55.681422 | 4.926609 | 2.0 | 10.539 | 2 | 38.478 | 10.730 | 34.688 | 2 |
| 2025-05-16T04:18:00 | 55.683061 | 4.923340 | 2.0 | 10.531 | 2 | 38.515 | 10.710 | 34.745 | 2 |
| 2025-05-16T04:22:00 | 55.689215 | 4.910686 | 2.0 | 10.506 | 2 | 38.367 | 10.696 | 34.609 | 2 |
| 2025-05-16T04:23:00 | 55.690839 | 4.907542 | 2.0 | 10.493 | 2 | 38.471 | 10.681 | 34.728 | 2 |
| 2025-05-16T04:25:00 | 55.693998 | 4.901046 | 2.0 | 10.492 | 2 | 38.309 | 10.672 | 34.573 | 2 |
| 2025-05-16T04:26:00 | 55.695558 | 4.897929 | 2.0 | 10.484 | 2 | 38.449 | 10.666 | 34.720 | 2 |
| 2025-05-16T04:30:00 | 55.701609 | 4.885493 | 2.0 | 10.420 | 2 | 38.219 | 10.622 | 34.530 | 2 |
| 2025-05-16T04:31:00 | 55.703234 | 4.882170 | 2.0 | 10.416 | 2 | 38.400 | 10.596 | 34.737 | 2 |
| 2025-05-16T04:34:00 | 55.707725 | 4.872640 | 2.0 | 10.441 | 2 | 38.380 | 10.603 | 34.710 | 2 |
| 2025-05-16T04:35:00 | 55.709308 | 4.869262 | 2.0 | 10.459 | 2 | 38.393 | 10.617 | 34.710 | 2 |
| 2025-05-16T04:44:00 | 55.722354 | 4.841850 | 2.0 | 10.574 | 2 | 38.500 | 10.755 | 34.687 | 2 |
| 2025-05-16T04:46:00 | 55.725291 | 4.835560 | 2.0 | 10.589 | 2 | 38.357 | 10.765 | 34.534 | 2 |
| 2025-05-16T04:47:00 | 55.726844 | 4.832324 | 2.0 | 10.594 | 2 | 38.402 | 10.766 | 34.578 | 2 |
| 2025-05-16T04:53:00 | 55.735548 | 4.813840 | 2.0 | 10.650 | 2 | 38.427 | 10.823 | 34.549 | 2 |
| 2025-05-16T04:56:00 | 55.740078 | 4.804345 | 2.0 | 10.593 | 2 | 38.400 | 10.789 | 34.554 | 2 |
| 2025-05-16T04:57:00 | 55.741638 | 4.801114 | 2.0 | 10.587 | 2 | 38.520 | 10.773 | 34.690 | 2 |
| 2025-05-16T04:58:00 | 55.743157 | 4.797760 | 2.0 | 10.577 | 2 | 38.479 | 10.760 | 34.661 | 2 |
| 2025-05-16T04:59:00 | 55.744799 | 4.794386 | 2.0 | 10.565 | 2 | 38.505 | 10.751 | 34.695 | 2 |
| 2025-05-16T05:00:00 | 55.746178 | 4.791203 | 2.0 | 10.548 | 2 | 38.508 | 10.741 | 34.708 | 2 |
| 2025-05-16T05:01:00 | 55.747585 | 4.788280 | 2.0 | 10.546 | 2 | 38.451 | 10.725 | 34.666 | 2 |
| 2025-05-16T05:02:00 | 55.748998 | 4.785315 | 2.0 | 10.537 | 2 | 38.490 | 10.718 | 34.712 | 2 |
| 2025-05-16T05:03:00 | 55.750514 | 4.782078 | 2.0 | 10.531 | 2 | 38.492 | 10.712 | 34.719 | 2 |
| 2025-05-16T05:04:00 | 55.752129 | 4.778786 | 2.0 | 10.517 | 2 | 38.176 | 10.706 | 34.408 | 2 |
| 2025-05-16T05:07:00 | 55.756554 | 4.769203 | 2.0 | 10.476 | 2 | 38.195 | 10.658 | 34.472 | 2 |
| 2025-05-16T05:08:00 | 55.757844 | 4.766360 | 2.0 | 10.460 | 2 | 38.503 | 10.777 | 34.669 | 2 |
| 2025-05-16T05:11:00 | 55.761995 | 4.757898 | 2.0 | 10.450 | 2 | 38.203 | 10.629 | 34.507 | 2 |
| 2025-05-16T05:14:00 | 55.765730 | 4.749813 | 2.0 | 10.436 | 2 | 38.243 | 10.619 | 34.557 | 2 |
| 2025-05-16T05:15:00 | 55.767294 | 4.746726 | 2.0 | 10.441 | 2 | 38.381 | 10.615 | 34.700 | 2 |
| 2025-05-16T05:18:00 | 55.771365 | 4.738096 | 2.0 | 10.455 | 2 | 38.370 | 10.620 | 34.684 | 2 |
| 2025-05-16T05:19:00 | 55.772675 | 4.735358 | 2.0 | 10.466 | 2 | 38.407 | 10.628 | 34.714 | 2 |
| 2025-05-16T05:20:00 | 55.773961 | 4.732577 | 2.0 | 10.474 | 2 | 38.410 | 10.641 | 34.704 | 2 |
| 2025-05-16T05:22:00 | 55.776229 | 4.727505 | 2.0 | 10.488 | 2 | 38.227 | 10.657 | 34.505 | 2 |
| 2025-05-16T05:23:00 | 55.777430 | 4.725007 | 2.0 | 10.492 | 2 | 38.135 | 10.660 | 34.410 | 2 |
| 2025-05-16T05:24:00 | 55.778498 | 4.722674 | 2.0 | 10.496 | 2 | 38.361 | 10.664 | 34.633 | 2 |
| 2025-05-16T05:25:00 | 55.779703 | 4.720205 | 2.0 | 10.505 | 2 | 38.419 | 10.671 | 34.685 | 2 |
| 2025-05-16T05:26:00 | 55.780902 | 4.717658 | 2.0 | 10.514 | 2 | 38.385 | 10.681 | 34.641 | 2 |
| 2025-05-16T05:29:00 | 55.784177 | 4.710520 | 2.0 | 10.534 | 2 | 38.391 | 10.698 | 34.631 | 2 |
| 2025-05-16T05:30:00 | 55.785360 | 4.708046 | 2.0 | 10.540 | 2 | 38.468 | 10.708 | 34.699 | 2 |
| 2025-05-16T05:32:00 | 55.787902 | 4.702775 | 2.0 | 10.546 | 2 | 38.413 | 10.717 | 34.635 | 2 |
| 2025-05-16T05:33:00 | 55.789142 | 4.700037 | 2.0 | 10.549 | 2 | 38.477 | 10.718 | 34.699 | 2 |
| 2025-05-16T05:37:00 | 55.793426 | 4.690682 | 2.0 | 10.585 | 2 | 38.341 | 10.749 | 34.533 | 2 |
| 2025-05-16T05:39:00 | 55.795722 | 4.686002 | 2.0 | 10.598 | 2 | 38.526 | 10.761 | 34.707 | 2 |
| 2025-05-16T05:41:00 | 55.797842 | 4.681293 | 2.0 | 10.582 | 2 | 38.369 | 10.771 | 34.540 | 2 |
| 2025-05-16T05:42:00 | 55.799022 | 4.678784 | 2.0 | 10.572 | 2 | 38.488 | 10.753 | 34.676 | 2 |
| 2025-05-16T05:43:00 | 55.800312 | 4.676274 | 2.0 | 10.571 | 2 | 38.510 | 10.744 | 34.707 | 2 |
| 2025-05-16T05:44:00 | 55.801602 | 4.673644 | 2.0 | 10.566 | 2 | 38.510 | 10.740 | 34.711 | 2 |
| 2025-05-16T05:45:00 | 55.802884 | 4.670721 | 2.0 | 10.562 | 2 | 38.438 | 10.739 | 34.640 | 2 |
| 2025-05-16T05:46:00 | 55.804268 | 4.667890 | 2.0 | 10.553 | 2 | 38.424 | 10.733 | 34.631 | 2 |
| 2025-05-16T05:47:00 | 55.805382 | 4.665170 | 2.0 | 10.535 | 2 | 38.421 | 10.743 | 34.619 | 2 |
| 2025-05-16T05:49:00 | 55.807803 | 4.660718 | 2.0 | 10.519 | 2 | 38.434 | 10.707 | 34.666 | 2 |
| 2025-05-16T05:51:00 | 55.810364 | 4.655886 | 2.0 | 10.502 | 2 | 38.308 | 10.685 | 34.560 | 2 |
| 2025-05-16T05:52:00 | 55.811824 | 4.653205 | 2.0 | 10.503 | 2 | 38.424 | 10.678 | 34.683 | 2 |
| 2025-05-16T05:54:00 | 55.814548 | 4.648267 | 2.0 | 10.500 | 2 | 38.360 | 10.674 | 34.623 | 2 |
| 2025-05-16T05:55:00 | 55.816115 | 4.645480 | 2.0 | 10.502 | 2 | 38.416 | 10.672 | 34.681 | 2 |
| 2025-05-16T05:56:00 | 55.817521 | 4.642676 | 2.0 | 10.509 | 2 | 38.408 | 10.689 | 34.657 | 2 |
| 2025-05-16T06:04:00 | 55.827134 | 4.624688 | 2.0 | 10.469 | 2 | 38.209 | 10.647 | 34.496 | 2 |
| 2025-05-16T06:05:00 | 55.828483 | 4.622364 | 2.0 | 10.466 | 2 | 38.351 | 10.644 | 34.642 | 2 |
| 2025-05-16T06:06:00 | 55.829817 | 4.619791 | 2.0 | 10.467 | 2 | 38.343 | 10.641 | 34.637 | 2 |
| 2025-05-16T06:07:00 | 55.831183 | 4.617270 | 2.0 | 10.462 | 2 | 38.366 | 10.636 | 34.665 | 2 |
| 2025-05-16T06:08:00 | 55.832701 | 4.614640 | 2.0 | 10.461 | 2 | 38.175 | 10.640 | 34.469 | 2 |
| 2025-05-16T06:10:00 | 55.835330 | 4.609579 | 2.0 | 10.449 | 2 | 38.288 | 10.633 | 34.589 | 2 |
| 2025-05-16T06:11:00 | 55.836790 | 4.607054 | 2.0 | 10.453 | 2 | 38.365 | 10.621 | 34.678 | 2 |
| 2025-05-16T06:12:00 | 55.838300 | 4.604247 | 2.0 | 10.458 | 2 | 38.370 | 10.628 | 34.677 | 2 |
| 2025-05-16T06:14:00 | 55.841142 | 4.598902 | 2.0 | 10.452 | 2 | 38.203 | 10.624 | 34.512 | 2 |
| 2025-05-16T06:15:00 | 55.842583 | 4.596326 | 2.0 | 10.463 | 2 | 38.383 | 10.623 | 34.694 | 2 |
| 2025-05-16T06:16:00 | 55.843988 | 4.593737 | 2.0 | 10.484 | 2 | 38.395 | 10.639 | 34.691 | 2 |
| 2025-05-16T06:18:00 | 55.846698 | 4.588575 | 2.0 | 10.517 | 2 | 38.381 | 10.666 | 34.652 | 2 |
| 2025-05-16T06:25:00 | 55.855964 | 4.571841 | 2.0 | 10.623 | 2 | 38.428 | 10.776 | 34.594 | 2 |
| 2025-05-16T06:26:00 | 55.857454 | 4.569202 | 2.0 | 10.621 | 2 | 38.553 | 10.793 | 34.704 | 2 |
| 2025-05-16T06:29:00 | 55.861276 | 4.561793 | 2.0 | 10.616 | 2 | 38.176 | 10.798 | 34.321 | 2 |
| 2025-05-16T06:33:00 | 55.866191 | 4.552784 | 2.0 | 10.634 | 2 | 38.507 | 10.806 | 34.645 | 2 |
| 2025-05-16T06:35:00 | 55.868699 | 4.548218 | 2.0 | 10.652 | 2 | 38.333 | 10.820 | 34.458 | 2 |
| 2025-05-16T06:36:00 | 55.870111 | 4.545801 | 2.0 | 10.657 | 2 | 38.576 | 10.825 | 34.696 | 2 |
| 2025-05-16T06:37:00 | 55.871552 | 4.543325 | 2.0 | 10.661 | 2 | 38.590 | 10.828 | 34.708 | 2 |
| 2025-05-16T06:43:00 | 55.878956 | 4.529643 | 2.0 | 10.655 | 2 | 38.272 | 10.836 | 34.381 | 2 |
| 2025-05-16T06:44:00 | 55.880245 | 4.527219 | 2.0 | 10.658 | 2 | 38.554 | 10.834 | 34.666 | 2 |
| 2025-05-16T06:47:00 | 55.884172 | 4.519881 | 2.0 | 10.648 | 2 | 38.527 | 10.828 | 34.645 | 2 |
| 2025-05-16T06:48:00 | 55.885483 | 4.517360 | 2.0 | 10.639 | 2 | 38.258 | 10.825 | 34.378 | 2 |
| 2025-05-16T06:49:00 | 55.886901 | 4.514880 | 2.0 | 10.644 | 2 | 38.329 | 10.811 | 34.462 | 2 |
| 2025-05-16T06:55:00 | 55.894800 | 4.500392 | 2.0 | 10.617 | 2 | 38.251 | 10.803 | 34.391 | 2 |
| 2025-05-16T06:59:00 | 55.900204 | 4.490575 | 2.0 | 10.612 | 2 | 38.427 | 10.813 | 34.558 | 2 |
| 2025-05-16T07:00:00 | 55.901612 | 4.487896 | 2.0 | 10.614 | 2 | 38.154 | 10.782 | 34.314 | 2 |
| 2025-05-16T07:05:00 | 55.907926 | 4.476150 | 2.0 | 10.594 | 2 | 38.175 | 10.792 | 34.326 | 2 |
| 2025-05-16T07:06:00 | 55.909306 | 4.473675 | 2.0 | 10.596 | 2 | 38.398 | 10.775 | 34.565 | 2 |
| 2025-05-16T07:07:00 | 55.910831 | 4.471109 | 2.0 | 10.598 | 2 | 38.487 | 10.774 | 34.656 | 2 |
| 2025-05-16T07:08:00 | 55.912109 | 4.468589 | 2.0 | 10.602 | 2 | 38.541 | 10.773 | 34.711 | 2 |
| 2025-05-16T07:09:00 | 55.913559 | 4.465930 | 2.0 | 10.606 | 2 | 38.553 | 10.775 | 34.721 | 2 |
| 2025-05-16T07:10:00 | 55.915074 | 4.463147 | 2.0 | 10.618 | 2 | 38.275 | 10.784 | 34.433 | 2 |
| 2025-05-16T07:11:00 | 55.916609 | 4.460415 | 2.0 | 10.614 | 2 | 38.278 | 10.791 | 34.430 | 2 |
| 2025-05-16T07:14:00 | 55.920489 | 4.453218 | 2.0 | 10.596 | 2 | 38.261 | 10.771 | 34.432 | 2 |
| 2025-05-16T07:17:00 | 55.924449 | 4.445798 | 2.0 | 10.615 | 2 | 38.429 | 10.779 | 34.593 | 2 |
| 2025-05-16T07:18:00 | 55.925929 | 4.443292 | 2.0 | 10.619 | 2 | 38.573 | 10.788 | 34.729 | 2 |
| 2025-05-16T07:19:00 | 55.927347 | 4.440747 | 2.0 | 10.633 | 2 | 38.558 | 10.795 | 34.707 | 2 |
| 2025-05-16T07:20:00 | 55.928893 | 4.438058 | 2.0 | 10.639 | 2 | 38.494 | 10.801 | 34.637 | 2 |
| 2025-05-16T07:23:00 | 55.932776 | 4.430559 | 2.0 | 10.660 | 2 | 38.552 | 10.827 | 34.671 | 2 |
| 2025-05-16T07:24:00 | 55.934208 | 4.428095 | 2.0 | 10.661 | 2 | 38.584 | 10.837 | 34.693 | 2 |
| 2025-05-16T07:26:00 | 55.936911 | 4.423090 | 2.0 | 10.665 | 2 | 38.612 | 10.837 | 34.721 | 2 |
| 2025-05-16T07:28:00 | 55.939780 | 4.417812 | 2.0 | 10.654 | 2 | 38.500 | 10.831 | 34.615 | 2 |
| 2025-05-16T07:29:00 | 55.941277 | 4.415195 | 2.0 | 10.646 | 2 | 38.600 | 10.823 | 34.722 | 2 |
| 2025-05-16T07:30:00 | 55.942779 | 4.412490 | 2.0 | 10.639 | 2 | 38.613 | 10.815 | 34.743 | 2 |
| 2025-05-16T07:31:00 | 55.944268 | 4.409627 | 2.0 | 10.647 | 2 | 38.609 | 10.811 | 34.743 | 2 |
| 2025-05-16T07:36:00 | 55.950657 | 4.397730 | 2.0 | 10.656 | 2 | 38.387 | 10.835 | 34.498 | 2 |
| 2025-05-16T07:39:00 | 55.954841 | 4.390192 | 2.0 | 10.643 | 2 | 38.604 | 10.820 | 34.729 | 2 |
| 2025-05-16T07:40:00 | 55.956396 | 4.387381 | 2.0 | 10.648 | 2 | 38.607 | 10.815 | 34.737 | 2 |
| 2025-05-16T07:41:00 | 55.957852 | 4.384637 | 2.0 | 10.656 | 2 | 38.608 | 10.824 | 34.730 | 2 |
| 2025-05-16T07:44:00 | 55.961474 | 4.377634 | 2.0 | 10.615 | 2 | 38.284 | 10.794 | 34.433 | 2 |
| 2025-05-16T07:46:00 | 55.964131 | 4.372877 | 2.0 | 10.595 | 2 | 38.410 | 10.781 | 34.572 | 2 |
| 2025-05-16T07:47:00 | 55.965467 | 4.370297 | 2.0 | 10.600 | 2 | 38.583 | 10.774 | 34.752 | 2 |
| 2025-05-16T07:48:00 | 55.966993 | 4.367676 | 2.0 | 10.589 | 2 | 38.589 | 10.767 | 34.765 | 2 |
| 2025-05-16T07:49:00 | 55.968545 | 4.364915 | 2.0 | 10.588 | 2 | 38.512 | 10.761 | 34.693 | 2 |
| 2025-05-16T07:51:00 | 55.971193 | 4.359782 | 2.0 | 10.604 | 2 | 38.512 | 10.767 | 34.687 | 2 |
| 2025-05-16T07:54:00 | 55.975360 | 4.352269 | 2.0 | 10.634 | 2 | 38.520 | 10.798 | 34.666 | 2 |
| 2025-05-16T07:55:00 | 55.976529 | 4.349774 | 2.0 | 10.637 | 2 | 38.607 | 10.834 | 34.719 | 2 |
| 2025-05-16T07:58:00 | 55.980691 | 4.342366 | 2.0 | 10.639 | 2 | 38.607 | 10.835 | 34.718 | 2 |
| 2025-05-16T08:00:00 | 55.983729 | 4.336753 | 2.0 | 10.621 | 2 | 38.592 | 10.801 | 34.735 | 2 |
| 2025-05-16T08:01:00 | 55.985230 | 4.334072 | 2.0 | 10.625 | 2 | 38.570 | 10.796 | 34.718 | 2 |
| 2025-05-16T08:02:00 | 55.986716 | 4.331176 | 2.0 | 10.629 | 2 | 38.528 | 10.797 | 34.675 | 2 |
| 2025-05-16T08:03:00 | 55.988147 | 4.328552 | 2.0 | 10.626 | 2 | 38.588 | 10.799 | 34.733 | 2 |
| 2025-05-16T08:04:00 | 55.989670 | 4.325696 | 2.0 | 10.630 | 2 | 38.462 | 10.802 | 34.604 | 2 |
| 2025-05-16T08:05:00 | 55.991022 | 4.323145 | 2.0 | 10.620 | 2 | 38.287 | 10.802 | 34.428 | 2 |
| 2025-05-16T08:08:00 | 55.995183 | 4.315478 | 2.0 | 10.593 | 2 | 38.591 | 10.780 | 34.754 | 2 |
| 2025-05-16T08:10:00 | 55.997839 | 4.310483 | 2.0 | 10.568 | 2 | 38.395 | 10.754 | 34.582 | 2 |
| 2025-05-16T08:13:00 | 56.001712 | 4.303323 | 2.0 | 10.547 | 2 | 38.560 | 10.720 | 34.780 | 2 |
| 2025-05-16T08:14:00 | 56.003144 | 4.300727 | 2.0 | 10.538 | 2 | 38.537 | 10.723 | 34.754 | 2 |
| 2025-05-16T08:15:00 | 56.004523 | 4.298141 | 2.0 | 10.527 | 2 | 38.550 | 10.712 | 34.778 | 2 |
| 2025-05-16T08:16:00 | 56.005988 | 4.295399 | 2.0 | 10.524 | 2 | 38.538 | 10.698 | 34.779 | 2 |
| 2025-05-16T08:17:00 | 56.007525 | 4.292649 | 2.0 | 10.514 | 2 | 38.535 | 10.694 | 34.780 | 2 |
| 2025-05-16T08:19:00 | 56.010361 | 4.287273 | 2.0 | 10.521 | 2 | 38.522 | 10.687 | 34.773 | 2 |
| 2025-05-16T08:20:00 | 56.011887 | 4.284460 | 2.0 | 10.532 | 2 | 38.534 | 10.693 | 34.780 | 2 |
| 2025-05-16T08:23:00 | 56.015944 | 4.276860 | 2.0 | 10.535 | 2 | 38.543 | 10.715 | 34.768 | 2 |
| 2025-05-16T08:24:00 | 56.017428 | 4.274281 | 2.0 | 10.536 | 2 | 38.557 | 10.704 | 34.792 | 2 |
| 2025-05-16T08:25:00 | 56.018907 | 4.271503 | 2.0 | 10.530 | 2 | 38.516 | 10.706 | 34.749 | 2 |
| 2025-05-16T08:26:00 | 56.020409 | 4.268730 | 2.0 | 10.520 | 2 | 38.489 | 10.701 | 34.727 | 2 |
| 2025-05-16T08:27:00 | 56.021771 | 4.266114 | 2.0 | 10.513 | 2 | 38.299 | 10.694 | 34.542 | 2 |
| 2025-05-16T08:28:00 | 56.023115 | 4.263461 | 2.0 | 10.503 | 2 | 38.431 | 10.684 | 34.685 | 2 |
| 2025-05-16T08:29:00 | 56.024643 | 4.260733 | 2.0 | 10.484 | 2 | 38.482 | 10.671 | 34.748 | 2 |
| 2025-05-16T08:30:00 | 56.026301 | 4.257888 | 2.0 | 10.466 | 2 | 38.520 | 10.652 | 34.805 | 2 |
| 2025-05-16T08:31:00 | 56.027805 | 4.255007 | 2.0 | 10.450 | 2 | 38.447 | 10.638 | 34.745 | 2 |
| 2025-05-16T08:32:00 | 56.029376 | 4.252088 | 2.0 | 10.434 | 2 | 38.466 | 10.622 | 34.779 | 2 |
| 2025-05-16T08:34:00 | 56.032485 | 4.246290 | 2.0 | 10.429 | 2 | 38.309 | 10.602 | 34.640 | 2 |
| 2025-05-16T08:35:00 | 56.033949 | 4.243420 | 2.0 | 10.424 | 2 | 38.472 | 10.599 | 34.807 | 2 |
| 2025-05-16T08:36:00 | 56.035423 | 4.240751 | 2.0 | 10.424 | 2 | 38.392 | 10.599 | 34.726 | 2 |
| 2025-05-16T08:39:00 | 56.039773 | 4.232666 | 2.0 | 10.413 | 2 | 38.447 | 10.588 | 34.792 | 2 |
| 2025-05-16T08:43:00 | 56.045347 | 4.222462 | 2.0 | 10.430 | 2 | 38.461 | 10.602 | 34.793 | 2 |
| 2025-05-16T08:45:00 | 56.048195 | 4.217072 | 2.0 | 10.460 | 2 | 38.369 | 10.625 | 34.678 | 2 |
| 2025-05-16T08:47:00 | 56.051150 | 4.211617 | 2.0 | 10.479 | 2 | 38.493 | 10.640 | 34.789 | 2 |
| 2025-05-16T08:48:00 | 56.052657 | 4.208776 | 2.0 | 10.463 | 2 | 38.463 | 10.646 | 34.753 | 2 |
| 2025-05-16T08:49:00 | 56.054150 | 4.206024 | 2.0 | 10.459 | 2 | 38.502 | 10.634 | 34.804 | 2 |
| 2025-05-16T08:50:00 | 56.055588 | 4.203193 | 2.0 | 10.461 | 2 | 38.425 | 10.632 | 34.728 | 2 |
| 2025-05-16T08:51:00 | 56.056963 | 4.200611 | 2.0 | 10.474 | 2 | 38.445 | 10.638 | 34.743 | 2 |
| 2025-05-16T08:53:00 | 56.059897 | 4.195300 | 2.0 | 10.474 | 2 | 38.520 | 10.649 | 34.808 | 2 |
| 2025-05-16T09:01:00 | 56.071295 | 4.174236 | 2.0 | 10.462 | 2 | 38.507 | 10.630 | 34.813 | 2 |
| 2025-05-16T09:04:00 | 56.075534 | 4.166318 | 2.0 | 10.464 | 2 | 38.411 | 10.632 | 34.714 | 2 |
| 2025-05-16T09:05:00 | 56.077061 | 4.163559 | 2.0 | 10.469 | 2 | 38.488 | 10.635 | 34.789 | 2 |
| 2025-05-16T09:08:00 | 56.081505 | 4.155289 | 2.0 | 10.479 | 2 | 38.515 | 10.649 | 34.803 | 2 |
| 2025-05-16T09:09:00 | 56.082807 | 4.152696 | 2.0 | 10.465 | 2 | 38.406 | 10.720 | 34.625 | 2 |
| 2025-05-16T09:11:00 | 56.085627 | 4.147608 | 2.0 | 10.474 | 2 | 38.513 | 10.640 | 34.809 | 2 |
| 2025-05-16T09:12:00 | 56.087086 | 4.144907 | 2.0 | 10.470 | 2 | 38.525 | 10.650 | 34.812 | 2 |
| 2025-05-16T09:13:00 | 56.088584 | 4.142213 | 2.0 | 10.471 | 2 | 38.521 | 10.642 | 34.815 | 2 |
| 2025-05-16T09:15:00 | 56.091603 | 4.136565 | 2.0 | 10.467 | 2 | 38.348 | 10.638 | 34.645 | 2 |
| 2025-05-16T09:16:00 | 56.093087 | 4.133747 | 2.0 | 10.471 | 2 | 38.512 | 10.641 | 34.807 | 2 |
| 2025-05-16T09:17:00 | 56.094515 | 4.131097 | 2.0 | 10.472 | 2 | 38.398 | 10.642 | 34.691 | 2 |
| 2025-05-16T09:20:00 | 56.099005 | 4.122727 | 2.0 | 10.455 | 2 | 38.258 | 10.632 | 34.560 | 2 |
| 2025-05-16T09:32:00 | 56.116458 | 4.090844 | 2.0 | 10.442 | 2 | 38.292 | 10.609 | 34.616 | 2 |
| 2025-05-16T09:33:00 | 56.118211 | 4.088126 | 2.0 | 10.435 | 2 | 38.501 | 10.612 | 34.824 | 2 |
| 2025-05-16T09:34:00 | 56.119875 | 4.085336 | 2.0 | 10.422 | 2 | 38.498 | 10.606 | 34.827 | 2 |
| 2025-05-16T09:35:00 | 56.121527 | 4.082708 | 2.0 | 10.403 | 2 | 38.469 | 10.591 | 34.812 | 2 |
| 2025-05-16T09:36:00 | 56.123071 | 4.080272 | 2.0 | 10.383 | 2 | 38.424 | 10.574 | 34.782 | 2 |
| 2025-05-16T09:37:00 | 56.124683 | 4.077728 | 2.0 | 10.373 | 2 | 38.372 | 10.555 | 34.748 | 2 |
| 2025-05-16T09:42:00 | 56.132152 | 4.065658 | 2.0 | 10.386 | 2 | 38.268 | 10.559 | 34.639 | 2 |
| 2025-05-16T09:46:00 | 56.138311 | 4.055710 | 2.0 | 10.403 | 2 | 38.451 | 10.567 | 34.816 | 2 |
| 2025-05-16T09:53:00 | 56.149256 | 4.038741 | 2.0 | 10.430 | 2 | 38.484 | 10.607 | 34.812 | 2 |
| 2025-05-16T09:54:00 | 56.150998 | 4.036035 | 2.0 | 10.439 | 2 | 38.503 | 10.601 | 34.836 | 2 |
| 2025-05-16T09:56:00 | 56.154450 | 4.030622 | 2.0 | 10.450 | 2 | 38.281 | 10.620 | 34.594 | 2 |
| 2025-05-16T09:57:00 | 56.156131 | 4.028053 | 2.0 | 10.455 | 2 | 38.402 | 10.627 | 34.710 | 2 |
| 2025-05-16T09:59:00 | 56.159160 | 4.023180 | 2.0 | 10.430 | 2 | 38.433 | 10.620 | 34.748 | 2 |
| 2025-05-16T10:03:00 | 56.165725 | 4.012776 | 2.0 | 10.388 | 2 | 38.434 | 10.560 | 34.806 | 2 |
| 2025-05-16T10:04:00 | 56.167471 | 4.010064 | 2.0 | 10.387 | 2 | 38.469 | 10.559 | 34.842 | 2 |
| 2025-05-16T10:05:00 | 56.169207 | 4.007224 | 2.0 | 10.386 | 2 | 38.471 | 10.556 | 34.847 | 2 |
| 2025-05-16T10:09:00 | 56.175610 | 3.996742 | 2.0 | 10.384 | 2 | 38.301 | 10.558 | 34.674 | 2 |
| 2025-05-16T10:10:00 | 56.177190 | 3.994033 | 2.0 | 10.371 | 2 | 38.458 | 10.556 | 34.834 | 2 |
| 2025-05-16T10:11:00 | 56.178856 | 3.991446 | 2.0 | 10.348 | 2 | 38.173 | 10.542 | 34.560 | 2 |
| 2025-05-16T10:12:00 | 56.180465 | 3.988694 | 2.0 | 10.325 | 2 | 38.439 | 10.518 | 34.851 | 2 |
| 2025-05-16T10:15:00 | 56.185358 | 3.980462 | 2.0 | 10.276 | 2 | 38.370 | 10.456 | 34.841 | 2 |
| 2025-05-16T10:16:00 | 56.187042 | 3.977672 | 2.0 | 10.284 | 2 | 38.374 | 10.450 | 34.851 | 2 |
| 2025-05-16T10:17:00 | 56.188728 | 3.974890 | 2.0 | 10.289 | 2 | 38.379 | 10.457 | 34.849 | 2 |
| 2025-05-16T10:21:00 | 56.195216 | 3.964101 | 2.0 | 10.338 | 2 | 38.329 | 10.509 | 34.749 | 2 |
| 2025-05-16T10:24:00 | 56.200193 | 3.956157 | 2.0 | 10.354 | 2 | 38.445 | 10.522 | 34.853 | 2 |
| 2025-05-16T10:25:00 | 56.201820 | 3.953481 | 2.0 | 10.379 | 2 | 38.445 | 10.532 | 34.844 | 2 |
| 2025-05-16T10:26:00 | 56.203575 | 3.950750 | 2.0 | 10.398 | 2 | 38.478 | 10.545 | 34.865 | 2 |
| 2025-05-16T10:27:00 | 56.205274 | 3.948038 | 2.0 | 10.418 | 2 | 38.509 | 10.569 | 34.873 | 2 |
| 2025-05-16T10:28:00 | 56.206906 | 3.945366 | 2.0 | 10.421 | 2 | 38.529 | 10.587 | 34.876 | 2 |
| 2025-05-16T10:29:00 | 56.208515 | 3.942626 | 2.0 | 10.413 | 2 | 38.525 | 10.594 | 34.865 | 2 |
| 2025-05-16T10:30:00 | 56.210191 | 3.939787 | 2.0 | 10.403 | 2 | 38.525 | 10.583 | 34.876 | 2 |
| 2025-05-16T10:31:00 | 56.211819 | 3.937022 | 2.0 | 10.405 | 2 | 38.473 | 10.582 | 34.824 | 2 |
| 2025-05-16T10:33:00 | 56.215063 | 3.931591 | 2.0 | 10.400 | 2 | 38.103 | 10.578 | 34.455 | 2 |
| 2025-05-16T10:34:00 | 56.216764 | 3.928908 | 2.0 | 10.397 | 2 | 38.143 | 10.566 | 34.507 | 2 |
| 2025-05-16T10:35:00 | 56.218399 | 3.926028 | 2.0 | 10.410 | 2 | 38.455 | 10.578 | 34.810 | 2 |
| 2025-05-16T10:36:00 | 56.220140 | 3.923337 | 2.0 | 10.413 | 2 | 38.530 | 10.580 | 34.884 | 2 |
| 2025-05-16T10:37:00 | 56.221899 | 3.920541 | 2.0 | 10.420 | 2 | 38.528 | 10.583 | 34.879 | 2 |
| 2025-05-16T10:38:00 | 56.223457 | 3.918000 | 2.0 | 10.416 | 2 | 38.485 | 10.703 | 34.721 | 2 |
| 2025-05-16T10:39:00 | 56.225130 | 3.915359 | 2.0 | 10.422 | 2 | 38.194 | 10.640 | 34.488 | 2 |
| 2025-05-16T10:40:00 | 56.226907 | 3.912519 | 2.0 | 10.431 | 2 | 38.535 | 10.600 | 34.870 | 2 |
| 2025-05-16T10:41:00 | 56.228623 | 3.909635 | 2.0 | 10.445 | 2 | 38.542 | 10.605 | 34.872 | 2 |
| 2025-05-16T10:44:00 | 56.233303 | 3.901978 | 2.0 | 10.441 | 2 | 38.537 | 10.609 | 34.863 | 2 |
| 2025-05-16T10:45:00 | 56.234918 | 3.899236 | 2.0 | 10.439 | 2 | 38.461 | 10.616 | 34.780 | 2 |
| 2025-05-16T10:46:00 | 56.236540 | 3.896548 | 2.0 | 10.440 | 2 | 38.364 | 10.613 | 34.685 | 2 |
| 2025-05-16T10:48:00 | 56.239553 | 3.891465 | 2.0 | 10.440 | 2 | 38.414 | 10.609 | 34.739 | 2 |
| 2025-05-16T10:49:00 | 56.241158 | 3.888742 | 2.0 | 10.430 | 2 | 38.554 | 10.609 | 34.880 | 2 |
| 2025-05-16T10:50:00 | 56.242728 | 3.886078 | 2.0 | 10.425 | 2 | 38.541 | 10.598 | 34.878 | 2 |
| 2025-05-16T10:51:00 | 56.244340 | 3.883474 | 2.0 | 10.418 | 2 | 38.531 | 10.592 | 34.873 | 2 |
| 2025-05-16T10:52:00 | 56.245901 | 3.880823 | 2.0 | 10.426 | 2 | 38.544 | 10.589 | 34.889 | 2 |
| 2025-05-16T10:53:00 | 56.247555 | 3.878144 | 2.0 | 10.420 | 2 | 38.553 | 10.594 | 34.894 | 2 |
| 2025-05-16T10:54:00 | 56.249287 | 3.875375 | 2.0 | 10.426 | 2 | 38.545 | 10.593 | 34.886 | 2 |
| 2025-05-16T10:55:00 | 56.250935 | 3.872652 | 2.0 | 10.431 | 2 | 38.249 | 10.606 | 34.576 | 2 |
| 2025-05-16T10:57:00 | 56.254150 | 3.867573 | 2.0 | 10.442 | 2 | 38.561 | 10.610 | 34.886 | 2 |
| 2025-05-16T10:58:00 | 56.255758 | 3.864993 | 2.0 | 10.450 | 2 | 38.573 | 10.616 | 34.893 | 2 |
| 2025-05-16T10:59:00 | 56.257414 | 3.862270 | 2.0 | 10.445 | 2 | 38.583 | 10.617 | 34.902 | 2 |
| 2025-05-16T11:00:00 | 56.259092 | 3.859548 | 2.0 | 10.446 | 2 | 38.582 | 10.615 | 34.903 | 2 |
| 2025-05-16T11:01:00 | 56.261086 | 3.857868 | 2.0 | 10.440 | 2 | 38.584 | 10.614 | 34.906 | 2 |
| 2025-05-16T11:02:00 | 56.263059 | 3.857188 | 2.0 | 10.428 | 2 | 38.547 | 10.611 | 34.871 | 2 |
| 2025-05-16T11:03:00 | 56.264807 | 3.856491 | 2.0 | 10.433 | 2 | 38.380 | 10.750 | 34.571 | 2 |
| 2025-05-16T11:04:00 | 56.266616 | 3.855958 | 2.0 | 10.429 | 2 | 38.424 | 10.614 | 34.744 | 2 |
| 2025-05-16T11:05:00 | 56.268502 | 3.855303 | 2.0 | 10.425 | 2 | 38.297 | 10.608 | 34.622 | 2 |
| 2025-05-16T11:07:00 | 56.272176 | 3.854138 | 2.0 | 10.409 | 2 | 38.277 | 10.586 | 34.623 | 2 |
| 2025-05-16T11:08:00 | 56.273898 | 3.853498 | 2.0 | 10.412 | 2 | 38.552 | 10.581 | 34.905 | 2 |
| 2025-05-16T11:10:00 | 56.277147 | 3.852305 | 2.0 | 10.388 | 2 | 38.520 | 10.566 | 34.887 | 2 |
| 2025-05-16T11:11:00 | 56.279010 | 3.851733 | 2.0 | 10.397 | 2 | 38.525 | 10.560 | 34.898 | 2 |
| 2025-05-16T11:12:00 | 56.281022 | 3.851038 | 2.0 | 10.388 | 2 | 38.530 | 10.562 | 34.901 | 2 |
| 2025-05-16T11:13:00 | 56.282978 | 3.850362 | 2.0 | 10.376 | 2 | 38.365 | 10.566 | 34.731 | 2 |
| 2025-05-16T11:14:00 | 56.284803 | 3.849619 | 2.0 | 10.384 | 2 | 38.321 | 10.551 | 34.700 | 2 |
| 2025-05-16T11:15:00 | 56.286414 | 3.849093 | 2.0 | 10.377 | 2 | 38.519 | 10.556 | 34.896 | 2 |
| 2025-05-16T11:16:00 | 56.288138 | 3.848508 | 2.0 | 10.383 | 2 | 38.470 | 10.553 | 34.849 | 2 |
| 2025-05-16T11:17:00 | 56.289906 | 3.847970 | 2.0 | 10.385 | 2 | 38.434 | 10.560 | 34.806 | 2 |
| 2025-05-16T11:19:00 | 56.293179 | 3.846668 | 2.0 | 10.375 | 2 | 38.309 | 10.552 | 34.687 | 2 |
| 2025-05-16T11:22:00 | 56.298579 | 3.844860 | 2.0 | 10.375 | 2 | 38.454 | 10.564 | 34.822 | 2 |
| 2025-05-16T11:25:00 | 56.303204 | 3.843157 | 2.0 | 10.370 | 2 | 38.500 | 10.537 | 34.895 | 2 |
| 2025-05-16T11:26:00 | 56.304368 | 3.842697 | 2.0 | 10.368 | 2 | 38.527 | 10.539 | 34.920 | 2 |
| 2025-05-16T11:27:00 | 56.305518 | 3.842288 | 2.0 | 10.367 | 2 | 38.526 | 10.535 | 34.923 | 2 |
| 2025-05-16T11:28:00 | 56.306643 | 3.841848 | 2.0 | 10.357 | 2 | 38.515 | 10.535 | 34.912 | 2 |
| 2025-05-16T11:29:00 | 56.307847 | 3.841383 | 2.0 | 10.356 | 2 | 38.518 | 10.528 | 34.921 | 2 |
| 2025-05-16T11:30:00 | 56.309172 | 3.840937 | 2.0 | 10.362 | 2 | 38.512 | 10.528 | 34.915 | 2 |
| 2025-05-16T11:31:00 | 56.310250 | 3.840575 | 2.0 | 10.360 | 2 | 38.506 | 10.526 | 34.911 | 2 |
| 2025-05-16T11:32:00 | 56.311242 | 3.840208 | 2.0 | 10.354 | 2 | 38.513 | 10.526 | 34.918 | 2 |
| 2025-05-16T11:33:00 | 56.312319 | 3.839822 | 2.0 | 10.349 | 2 | 38.511 | 10.521 | 34.921 | 2 |
| 2025-05-16T11:34:00 | 56.313361 | 3.839407 | 2.0 | 10.343 | 2 | 38.502 | 10.519 | 34.914 | 2 |
| 2025-05-16T11:35:00 | 56.314532 | 3.838969 | 2.0 | 10.338 | 2 | 38.497 | 10.508 | 34.919 | 2 |
| 2025-05-16T11:36:00 | 56.315722 | 3.838610 | 2.0 | 10.340 | 2 | 38.505 | 10.508 | 34.928 | 2 |
| 2025-05-16T11:37:00 | 56.316937 | 3.838232 | 2.0 | 10.332 | 2 | 38.505 | 10.504 | 34.931 | 2 |
| 2025-05-16T11:38:00 | 56.318188 | 3.837803 | 2.0 | 10.334 | 2 | 38.504 | 10.502 | 34.932 | 2 |
| 2025-05-16T11:39:00 | 56.319292 | 3.837440 | 2.0 | 10.337 | 2 | 38.504 | 10.504 | 34.930 | 2 |
| 2025-05-16T11:40:00 | 56.320181 | 3.837080 | 2.0 | 10.334 | 2 | 38.506 | 10.504 | 34.932 | 2 |
| 2025-05-16T11:41:00 | 56.320954 | 3.836749 | 2.0 | 10.324 | 2 | 38.343 | 10.502 | 34.769 | 2 |
| 2025-05-16T11:43:00 | 56.322358 | 3.836078 | 2.0 | 10.331 | 2 | 38.490 | 10.503 | 34.917 | 2 |
| 2025-05-16T11:44:00 | 56.323232 | 3.835715 | 2.0 | 10.332 | 2 | 38.498 | 10.498 | 34.930 | 2 |
| 2025-05-16T11:45:00 | 56.324058 | 3.835327 | 2.0 | 10.338 | 2 | 38.503 | 10.500 | 34.933 | 2 |
| 2025-05-16T11:46:00 | 56.324893 | 3.834994 | 2.0 | 10.334 | 2 | 38.506 | 10.504 | 34.932 | 2 |
| 2025-05-16T11:47:00 | 56.325724 | 3.834609 | 2.0 | 10.337 | 2 | 38.506 | 10.502 | 34.934 | 2 |
| 2025-05-16T11:48:00 | 56.326605 | 3.834362 | 2.0 | 10.337 | 2 | 38.509 | 10.506 | 34.934 | 2 |
| 2025-05-16T11:49:00 | 56.327434 | 3.834149 | 2.0 | 10.335 | 2 | 38.507 | 10.504 | 34.933 | 2 |
| 2025-05-16T11:50:00 | 56.328225 | 3.833979 | 2.0 | 10.331 | 2 | 38.509 | 10.505 | 34.934 | 2 |
| 2025-05-16T11:51:00 | 56.329048 | 3.833808 | 2.0 | 10.338 | 2 | 38.504 | 10.502 | 34.932 | 2 |
| 2025-05-16T11:52:00 | 56.329674 | 3.833624 | 2.0 | 10.345 | 2 | 38.509 | 10.507 | 34.933 | 2 |
| 2025-05-16T11:53:00 | 56.330382 | 3.833564 | 2.0 | 10.335 | 2 | 38.515 | 10.512 | 34.934 | 2 |
| 2025-05-16T11:54:00 | 56.331018 | 3.833451 | 2.0 | 10.336 | 2 | 38.509 | 10.504 | 34.935 | 2 |
| 2025-05-16T11:55:00 | 56.331548 | 3.833353 | 2.0 | 10.330 | 2 | 38.505 | 10.500 | 34.935 | 2 |
| 2025-05-16T11:56:00 | 56.331884 | 3.833236 | 2.0 | 10.345 | 2 | 38.505 | 10.502 | 34.933 | 2 |
| 2025-05-16T11:57:00 | 56.332007 | 3.833067 | 2.0 | 10.345 | 2 | 38.514 | 10.511 | 34.934 | 2 |
| 2025-05-16T11:58:00 | 56.332151 | 3.833010 | 2.0 | 10.338 | 2 | 38.516 | 10.512 | 34.935 | 2 |
| 2025-05-16T11:59:00 | 56.332317 | 3.833153 | 2.0 | 10.339 | 2 | 38.508 | 10.502 | 34.936 | 2 |
| 2025-05-16T12:00:00 | 56.332480 | 3.833270 | 2.0 | 10.336 | 2 | 38.510 | 10.506 | 34.935 | 2 |
| 2025-05-16T12:01:00 | 56.332682 | 3.833370 | 2.0 | 10.327 | 2 | 38.507 | 10.501 | 34.936 | 2 |
| 2025-05-16T12:02:00 | 56.332766 | 3.833360 | 2.0 | 10.332 | 2 | 38.499 | 10.493 | 34.936 | 2 |
| 2025-05-16T12:03:00 | 56.332821 | 3.833346 | 2.0 | 10.342 | 2 | 38.505 | 10.502 | 34.933 | 2 |
| 2025-05-16T12:04:00 | 56.332893 | 3.833332 | 2.0 | 10.347 | 2 | 38.512 | 10.509 | 34.934 | 2 |
| 2025-05-16T12:05:00 | 56.332876 | 3.833310 | 2.0 | 10.348 | 2 | 38.519 | 10.516 | 34.934 | 2 |
| 2025-05-16T12:06:00 | 56.332858 | 3.833260 | 2.0 | 10.347 | 2 | 38.520 | 10.515 | 34.936 | 2 |
| 2025-05-16T12:07:00 | 56.332877 | 3.833251 | 2.0 | 10.350 | 2 | 38.519 | 10.515 | 34.935 | 2 |
| 2025-05-16T12:08:00 | 56.332930 | 3.833228 | 2.0 | 10.333 | 2 | 38.520 | 10.516 | 34.935 | 2 |
| 2025-05-16T12:09:00 | 56.332994 | 3.833203 | 2.0 | 10.336 | 2 | 38.503 | 10.499 | 34.934 | 2 |
| 2025-05-16T12:10:00 | 56.333055 | 3.833206 | 2.0 | 10.339 | 2 | 38.509 | 10.506 | 34.934 | 2 |
| 2025-05-16T12:11:00 | 56.333049 | 3.833246 | 2.0 | 10.339 | 2 | 38.511 | 10.507 | 34.935 | 2 |
| 2025-05-16T12:12:00 | 56.333034 | 3.833319 | 2.0 | 10.336 | 2 | 38.509 | 10.505 | 34.934 | 2 |
| 2025-05-16T12:13:00 | 56.333035 | 3.833399 | 2.0 | 10.340 | 2 | 38.508 | 10.505 | 34.933 | 2 |
| 2025-05-16T12:14:00 | 56.333025 | 3.833497 | 2.0 | 10.345 | 2 | 38.512 | 10.508 | 34.935 | 2 |
| 2025-05-16T12:15:00 | 56.332996 | 3.833598 | 2.0 | 10.347 | 2 | 38.512 | 10.513 | 34.930 | 2 |
| 2025-05-16T12:16:00 | 56.333022 | 3.833601 | 2.0 | 10.343 | 2 | 38.515 | 10.513 | 34.933 | 2 |
| 2025-05-16T12:17:00 | 56.333116 | 3.833559 | 2.0 | 10.338 | 2 | 38.513 | 10.509 | 34.935 | 2 |
| 2025-05-16T12:18:00 | 56.333142 | 3.833534 | 2.0 | 10.333 | 2 | 38.507 | 10.504 | 34.933 | 2 |
| 2025-05-16T12:19:00 | 56.333139 | 3.833478 | 2.0 | 10.336 | 2 | 38.502 | 10.502 | 34.930 | 2 |
| 2025-05-16T12:20:00 | 56.333069 | 3.833363 | 2.0 | 10.339 | 2 | 38.504 | 10.503 | 34.931 | 2 |
| 2025-05-16T12:21:00 | 56.333058 | 3.833165 | 2.0 | 10.339 | 2 | 38.509 | 10.507 | 34.933 | 2 |
| 2025-05-16T12:22:00 | 56.333072 | 3.833141 | 2.0 | 10.345 | 2 | 38.510 | 10.507 | 34.934 | 2 |
| 2025-05-16T12:23:00 | 56.333109 | 3.833136 | 2.0 | 10.354 | 2 | 38.517 | 10.515 | 34.933 | 2 |
| 2025-05-16T12:24:00 | 56.333157 | 3.833058 | 2.0 | 10.363 | 2 | 38.525 | 10.523 | 34.933 | 2 |
| 2025-05-16T12:25:00 | 56.333164 | 3.832998 | 2.0 | 10.360 | 2 | 38.532 | 10.529 | 34.935 | 2 |
| 2025-05-16T12:26:00 | 56.333112 | 3.832983 | 2.0 | 10.360 | 2 | 38.524 | 10.527 | 34.929 | 2 |
| 2025-05-16T12:27:00 | 56.333210 | 3.832984 | 2.0 | 10.355 | 2 | 38.528 | 10.527 | 34.933 | 2 |
| 2025-05-16T12:28:00 | 56.333241 | 3.833025 | 2.0 | 10.348 | 2 | 38.522 | 10.519 | 34.934 | 2 |
| 2025-05-16T12:29:00 | 56.333263 | 3.833041 | 2.0 | 10.351 | 2 | 38.517 | 10.516 | 34.932 | 2 |
| 2025-05-16T12:30:00 | 56.333252 | 3.832948 | 2.0 | 10.354 | 2 | 38.519 | 10.518 | 34.932 | 2 |
| 2025-05-16T12:31:00 | 56.333260 | 3.832776 | 2.0 | 10.356 | 2 | 38.523 | 10.520 | 34.934 | 2 |
| 2025-05-16T12:32:00 | 56.333316 | 3.832683 | 2.0 | 10.375 | 2 | 38.527 | 10.524 | 34.934 | 2 |
| 2025-05-16T12:33:00 | 56.333362 | 3.832604 | 2.0 | 10.377 | 2 | 38.541 | 10.541 | 34.932 | 2 |
| 2025-05-16T12:34:00 | 56.333373 | 3.832571 | 2.0 | 10.375 | 2 | 38.545 | 10.543 | 34.934 | 2 |
| 2025-05-16T12:35:00 | 56.333358 | 3.832572 | 2.0 | 10.372 | 2 | 38.543 | 10.541 | 34.934 | 2 |
| 2025-05-16T12:36:00 | 56.333298 | 3.832613 | 2.0 | 10.375 | 2 | 38.542 | 10.539 | 34.935 | 2 |
| 2025-05-16T12:37:00 | 56.333237 | 3.832604 | 2.0 | 10.373 | 2 | 38.543 | 10.541 | 34.934 | 2 |
| 2025-05-16T12:38:00 | 56.333211 | 3.832514 | 2.0 | 10.379 | 2 | 38.543 | 10.542 | 34.933 | 2 |
| 2025-05-16T12:39:00 | 56.333248 | 3.832338 | 2.0 | 10.386 | 2 | 38.548 | 10.547 | 34.934 | 2 |
| 2025-05-16T12:40:00 | 56.333302 | 3.832195 | 2.0 | 10.386 | 2 | 38.553 | 10.551 | 34.935 | 2 |
| 2025-05-16T12:41:00 | 56.333334 | 3.832057 | 2.0 | 10.386 | 2 | 38.553 | 10.552 | 34.934 | 2 |
| 2025-05-16T12:42:00 | 56.333252 | 3.831933 | 2.0 | 10.386 | 2 | 38.555 | 10.553 | 34.935 | 2 |
| 2025-05-16T12:43:00 | 56.333161 | 3.831783 | 2.0 | 10.385 | 2 | 38.553 | 10.551 | 34.935 | 2 |
| 2025-05-16T12:44:00 | 56.333122 | 3.831705 | 2.0 | 10.387 | 2 | 38.554 | 10.552 | 34.935 | 2 |
| 2025-05-16T12:45:00 | 56.333113 | 3.831866 | 2.0 | 10.393 | 2 | 38.556 | 10.555 | 34.934 | 2 |
| 2025-05-16T12:46:00 | 56.333203 | 3.832024 | 2.0 | 10.396 | 2 | 38.561 | 10.560 | 34.934 | 2 |
| 2025-05-16T12:47:00 | 56.333206 | 3.831971 | 2.0 | 10.384 | 2 | 38.562 | 10.560 | 34.935 | 2 |
| 2025-05-16T12:48:00 | 56.333168 | 3.831851 | 2.0 | 10.386 | 2 | 38.553 | 10.550 | 34.936 | 2 |
| 2025-05-16T12:49:00 | 56.333147 | 3.831803 | 2.0 | 10.385 | 2 | 38.553 | 10.551 | 34.935 | 2 |
| 2025-05-16T12:50:00 | 56.333240 | 3.831817 | 2.0 | 10.378 | 2 | 38.553 | 10.550 | 34.936 | 2 |
| 2025-05-16T12:51:00 | 56.333329 | 3.831782 | 2.0 | 10.376 | 2 | 38.545 | 10.543 | 34.934 | 2 |
| 2025-05-16T12:52:00 | 56.333382 | 3.831740 | 2.0 | 10.393 | 2 | 38.541 | 10.547 | 34.927 | 2 |
| 2025-05-16T12:53:00 | 56.333340 | 3.831734 | 2.0 | 10.383 | 2 | 38.553 | 10.558 | 34.928 | 2 |
| 2025-05-16T12:54:00 | 56.333346 | 3.831662 | 2.0 | 10.381 | 2 | 38.549 | 10.551 | 34.931 | 2 |
| 2025-05-16T12:55:00 | 56.333662 | 3.831597 | 2.0 | 10.397 | 2 | 38.550 | 10.550 | 34.933 | 2 |
| 2025-05-16T12:56:00 | 56.334471 | 3.831729 | 2.0 | 10.413 | 2 | 38.561 | 10.563 | 34.931 | 2 |
| 2025-05-16T12:57:00 | 56.335498 | 3.831917 | 2.0 | 10.404 | 2 | 38.573 | 10.577 | 34.930 | 2 |
| 2025-05-16T12:58:00 | 56.336601 | 3.832067 | 2.0 | 10.398 | 2 | 38.567 | 10.569 | 34.932 | 2 |
| 2025-05-16T12:59:00 | 56.337827 | 3.832213 | 2.0 | 10.411 | 2 | 38.566 | 10.568 | 34.932 | 2 |
| 2025-05-16T13:00:00 | 56.339081 | 3.832213 | 2.0 | 10.412 | 2 | 38.569 | 10.577 | 34.926 | 2 |
| 2025-05-16T13:01:00 | 56.340784 | 3.832302 | 2.0 | 10.418 | 2 | 38.576 | 10.580 | 34.930 | 2 |
| 2025-05-16T13:02:00 | 56.342776 | 3.832330 | 2.0 | 10.424 | 2 | 38.586 | 10.590 | 34.931 | 2 |
| 2025-05-16T13:03:00 | 56.344795 | 3.832311 | 2.0 | 10.444 | 2 | 38.586 | 10.596 | 34.925 | 2 |
| 2025-05-16T13:04:00 | 56.346948 | 3.832298 | 2.0 | 10.432 | 2 | 38.588 | 10.604 | 34.919 | 2 |
| 2025-05-16T13:05:00 | 56.349201 | 3.832311 | 2.0 | 10.438 | 2 | 38.544 | 10.604 | 34.875 | 2 |
| 2025-05-16T13:06:00 | 56.351362 | 3.832264 | 2.0 | 10.422 | 2 | 38.599 | 10.602 | 34.932 | 2 |
| 2025-05-16T13:07:00 | 56.353467 | 3.832282 | 2.0 | 10.426 | 2 | 38.597 | 10.596 | 34.936 | 2 |
| 2025-05-16T13:08:00 | 56.355612 | 3.832303 | 2.0 | 10.435 | 2 | 38.598 | 10.594 | 34.939 | 2 |
| 2025-05-16T13:09:00 | 56.357920 | 3.832284 | 2.0 | 10.427 | 2 | 38.592 | 10.600 | 34.927 | 2 |
| 2025-05-16T13:10:00 | 56.360091 | 3.832288 | 2.0 | 10.427 | 2 | 38.578 | 10.595 | 34.918 | 2 |
| 2025-05-16T13:11:00 | 56.362187 | 3.832200 | 2.0 | 10.422 | 2 | 38.585 | 10.594 | 34.926 | 2 |
| 2025-05-16T13:12:00 | 56.364346 | 3.832202 | 2.0 | 10.421 | 2 | 38.592 | 10.595 | 34.932 | 2 |
| 2025-05-16T13:13:00 | 56.366583 | 3.832244 | 2.0 | 10.412 | 2 | 38.591 | 10.588 | 34.938 | 2 |
| 2025-05-16T13:14:00 | 56.368767 | 3.832266 | 2.0 | 10.414 | 2 | 38.577 | 10.584 | 34.927 | 2 |
| 2025-05-16T13:15:00 | 56.370914 | 3.832238 | 2.0 | 10.407 | 2 | 38.534 | 10.582 | 34.886 | 2 |
| 2025-05-16T13:16:00 | 56.373175 | 3.832263 | 2.0 | 10.398 | 2 | 38.576 | 10.575 | 34.935 | 2 |
| 2025-05-16T13:17:00 | 56.375391 | 3.832247 | 2.0 | 10.398 | 2 | 38.576 | 10.568 | 34.942 | 2 |
| 2025-05-16T13:18:00 | 56.377619 | 3.832208 | 2.0 | 10.390 | 2 | 38.408 | 10.568 | 34.772 | 2 |
| 2025-05-16T13:19:00 | 56.379721 | 3.832202 | 2.0 | 10.389 | 2 | 38.525 | 10.563 | 34.895 | 2 |
| 2025-05-16T13:20:00 | 56.381866 | 3.832196 | 2.0 | 10.385 | 2 | 38.568 | 10.555 | 34.946 | 2 |
| 2025-05-16T13:21:00 | 56.384169 | 3.832204 | 2.0 | 10.389 | 2 | 38.568 | 10.558 | 34.943 | 2 |
| 2025-05-16T13:22:00 | 56.386480 | 3.832199 | 2.0 | 10.393 | 2 | 38.272 | 10.562 | 34.641 | 2 |
| 2025-05-16T13:25:00 | 56.392925 | 3.832160 | 2.0 | 10.385 | 2 | 38.569 | 10.560 | 34.942 | 2 |
| 2025-05-16T13:27:00 | 56.397483 | 3.832198 | 2.0 | 10.399 | 2 | 38.569 | 10.563 | 34.939 | 2 |
| 2025-05-16T13:28:00 | 56.399758 | 3.832193 | 2.0 | 10.401 | 2 | 38.576 | 10.566 | 34.944 | 2 |
| 2025-05-16T13:29:00 | 56.402011 | 3.832208 | 2.0 | 10.399 | 2 | 38.570 | 10.571 | 34.933 | 2 |
| 2025-05-16T13:30:00 | 56.404084 | 3.832219 | 2.0 | 10.398 | 2 | 38.569 | 10.572 | 34.931 | 2 |
| 2025-05-16T13:32:00 | 56.408493 | 3.832115 | 2.0 | 10.399 | 2 | 38.103 | 10.597 | 34.437 | 2 |
| 2025-05-16T13:33:00 | 56.410736 | 3.832113 | 2.0 | 10.390 | 2 | 38.570 | 10.572 | 34.932 | 2 |
| 2025-05-16T13:35:00 | 56.415033 | 3.832129 | 2.0 | 10.378 | 2 | 38.252 | 10.554 | 34.628 | 2 |
| 2025-05-16T13:36:00 | 56.417310 | 3.832117 | 2.0 | 10.375 | 2 | 38.477 | 10.545 | 34.864 | 2 |
| 2025-05-16T13:37:00 | 56.419521 | 3.832091 | 2.0 | 10.386 | 2 | 38.552 | 10.547 | 34.938 | 2 |
| 2025-05-16T13:38:00 | 56.421669 | 3.832073 | 2.0 | 10.374 | 2 | 38.563 | 10.554 | 34.942 | 2 |
| 2025-05-16T13:39:00 | 56.423954 | 3.832101 | 2.0 | 10.371 | 2 | 38.558 | 10.542 | 34.948 | 2 |
| 2025-05-16T13:40:00 | 56.426357 | 3.832074 | 2.0 | 10.365 | 2 | 38.556 | 10.539 | 34.949 | 2 |
| 2025-05-16T13:42:00 | 56.431118 | 3.832051 | 2.0 | 10.354 | 2 | 38.284 | 10.532 | 34.681 | 2 |
| 2025-05-16T13:44:00 | 56.435838 | 3.832151 | 2.0 | 10.328 | 2 | 38.534 | 10.512 | 34.953 | 2 |
| 2025-05-16T13:45:00 | 56.438256 | 3.832054 | 2.0 | 10.321 | 2 | 38.523 | 10.499 | 34.954 | 2 |
| 2025-05-16T13:46:00 | 56.440677 | 3.832092 | 2.0 | 10.328 | 2 | 38.519 | 10.493 | 34.956 | 2 |
| 2025-05-16T13:47:00 | 56.443196 | 3.832050 | 2.0 | 10.340 | 2 | 38.526 | 10.502 | 34.955 | 2 |
| 2025-05-16T13:48:00 | 56.445668 | 3.832062 | 2.0 | 10.352 | 2 | 38.532 | 10.513 | 34.950 | 2 |
| 2025-05-16T13:49:00 | 56.448050 | 3.832079 | 2.0 | 10.367 | 2 | 38.534 | 10.526 | 34.940 | 2 |
| 2025-05-16T13:52:00 | 56.455352 | 3.832074 | 2.0 | 10.403 | 2 | 38.078 | 10.572 | 34.435 | 2 |
| 2025-05-16T13:53:00 | 56.457813 | 3.832050 | 2.0 | 10.410 | 2 | 38.308 | 10.574 | 34.665 | 2 |
| 2025-05-16T13:54:00 | 56.460244 | 3.832028 | 2.0 | 10.428 | 2 | 38.606 | 10.585 | 34.956 | 2 |
| 2025-05-16T13:58:00 | 56.470095 | 3.832029 | 2.0 | 10.486 | 2 | 38.348 | 10.638 | 34.645 | 2 |
| 2025-05-16T13:59:00 | 56.472549 | 3.832057 | 2.0 | 10.487 | 2 | 38.145 | 10.663 | 34.417 | 2 |
| 2025-05-16T14:00:00 | 56.474982 | 3.832071 | 2.0 | 10.505 | 2 | 38.281 | 10.661 | 34.556 | 2 |
| 2025-05-16T14:01:00 | 56.477614 | 3.832253 | 2.0 | 10.504 | 2 | 38.691 | 10.676 | 34.954 | 2 |
| 2025-05-16T14:02:00 | 56.480183 | 3.832471 | 2.0 | 10.507 | 2 | 38.696 | 10.670 | 34.965 | 2 |
| 2025-05-16T14:03:00 | 56.482777 | 3.832606 | 2.0 | 10.519 | 2 | 38.707 | 10.676 | 34.970 | 2 |
| 2025-05-16T14:04:00 | 56.485324 | 3.832746 | 2.0 | 10.530 | 2 | 38.723 | 10.690 | 34.973 | 2 |
| 2025-05-16T14:05:00 | 56.487735 | 3.832922 | 2.0 | 10.534 | 2 | 38.732 | 10.701 | 34.972 | 2 |
| 2025-05-16T14:06:00 | 56.490278 | 3.833060 | 2.0 | 10.541 | 2 | 38.683 | 10.705 | 34.918 | 2 |
| 2025-05-16T14:07:00 | 56.492728 | 3.833100 | 2.0 | 10.530 | 2 | 38.714 | 10.707 | 34.948 | 2 |
| 2025-05-16T14:10:00 | 56.499542 | 3.833128 | 2.0 | 10.525 | 2 | 38.718 | 10.693 | 34.965 | 2 |
| 2025-05-16T14:11:00 | 56.501119 | 3.833154 | 2.0 | 10.538 | 2 | 38.723 | 10.691 | 34.972 | 2 |
| 2025-05-16T14:12:00 | 56.501914 | 3.833076 | 2.0 | 10.535 | 2 | 38.736 | 10.702 | 34.975 | 2 |
| 2025-05-16T14:13:00 | 56.502136 | 3.832878 | 2.0 | 10.536 | 2 | 38.742 | 10.706 | 34.977 | 2 |
| 2025-05-16T14:14:00 | 56.502089 | 3.832476 | 2.0 | 10.537 | 2 | 38.724 | 10.698 | 34.966 | 2 |
| 2025-05-16T14:15:00 | 56.502058 | 3.832170 | 2.0 | 10.544 | 2 | 38.742 | 10.704 | 34.979 | 2 |
| 2025-05-16T14:16:00 | 56.502040 | 3.831999 | 2.0 | 10.542 | 2 | 38.749 | 10.710 | 34.980 | 2 |
| 2025-05-16T14:17:00 | 56.502070 | 3.831854 | 2.0 | 10.536 | 2 | 38.748 | 10.706 | 34.983 | 2 |
| 2025-05-16T14:18:00 | 56.502107 | 3.831793 | 2.0 | 10.541 | 2 | 38.742 | 10.700 | 34.983 | 2 |
| 2025-05-16T14:19:00 | 56.502130 | 3.831823 | 2.0 | 10.553 | 2 | 38.750 | 10.711 | 34.980 | 2 |
| 2025-05-16T14:20:00 | 56.502122 | 3.831898 | 2.0 | 10.558 | 2 | 38.761 | 10.719 | 34.983 | 2 |
| 2025-05-16T14:21:00 | 56.502119 | 3.831949 | 2.0 | 10.557 | 2 | 38.765 | 10.722 | 34.985 | 2 |
| 2025-05-16T14:22:00 | 56.502070 | 3.831947 | 2.0 | 10.549 | 2 | 38.766 | 10.720 | 34.988 | 2 |
| 2025-05-16T14:23:00 | 56.502016 | 3.831907 | 2.0 | 10.548 | 2 | 38.759 | 10.714 | 34.986 | 2 |
| 2025-05-16T14:24:00 | 56.501972 | 3.831820 | 2.0 | 10.545 | 2 | 38.756 | 10.710 | 34.987 | 2 |
| 2025-05-16T14:25:00 | 56.501996 | 3.831693 | 2.0 | 10.550 | 2 | 38.758 | 10.713 | 34.986 | 2 |
| 2025-05-16T14:26:00 | 56.502058 | 3.831546 | 2.0 | 10.542 | 2 | 38.759 | 10.713 | 34.987 | 2 |
| 2025-05-16T14:27:00 | 56.502096 | 3.831454 | 2.0 | 10.557 | 2 | 38.756 | 10.714 | 34.983 | 2 |
| 2025-05-16T14:28:00 | 56.502111 | 3.831388 | 2.0 | 10.555 | 2 | 38.767 | 10.721 | 34.988 | 2 |
| 2025-05-16T14:29:00 | 56.502108 | 3.831399 | 2.0 | 10.554 | 2 | 38.766 | 10.720 | 34.988 | 2 |
| 2025-05-16T14:30:00 | 56.502089 | 3.831435 | 2.0 | 10.554 | 2 | 38.766 | 10.720 | 34.988 | 2 |
| 2025-05-16T14:31:00 | 56.502111 | 3.831450 | 2.0 | 10.558 | 2 | 38.767 | 10.720 | 34.989 | 2 |
| 2025-05-16T14:32:00 | 56.502132 | 3.831429 | 2.0 | 10.555 | 2 | 38.770 | 10.724 | 34.988 | 2 |
| 2025-05-16T14:33:00 | 56.502111 | 3.831347 | 2.0 | 10.553 | 2 | 38.768 | 10.721 | 34.989 | 2 |
| 2025-05-16T14:34:00 | 56.502074 | 3.831305 | 2.0 | 10.550 | 2 | 38.766 | 10.718 | 34.989 | 2 |
| 2025-05-16T14:35:00 | 56.502089 | 3.831242 | 2.0 | 10.548 | 2 | 38.763 | 10.716 | 34.988 | 2 |
| 2025-05-16T14:36:00 | 56.502142 | 3.831206 | 2.0 | 10.550 | 2 | 38.761 | 10.715 | 34.987 | 2 |
| 2025-05-16T14:37:00 | 56.502098 | 3.831249 | 2.0 | 10.549 | 2 | 38.763 | 10.717 | 34.987 | 2 |
| 2025-05-16T14:38:00 | 56.502098 | 3.831279 | 2.0 | 10.548 | 2 | 38.762 | 10.716 | 34.987 | 2 |
| 2025-05-16T14:39:00 | 56.502072 | 3.831293 | 2.0 | 10.556 | 2 | 38.762 | 10.715 | 34.988 | 2 |
| 2025-05-16T14:40:00 | 56.502064 | 3.831237 | 2.0 | 10.551 | 2 | 38.769 | 10.723 | 34.988 | 2 |
| 2025-05-16T14:41:00 | 56.502069 | 3.831122 | 2.0 | 10.556 | 2 | 38.762 | 10.715 | 34.988 | 2 |
| 2025-05-16T14:42:00 | 56.502098 | 3.831094 | 2.0 | 10.568 | 2 | 38.771 | 10.726 | 34.987 | 2 |
| 2025-05-16T14:43:00 | 56.502128 | 3.831158 | 2.0 | 10.563 | 2 | 38.777 | 10.731 | 34.988 | 2 |
| 2025-05-16T14:44:00 | 56.502248 | 3.831193 | 2.0 | 10.558 | 2 | 38.775 | 10.729 | 34.988 | 2 |
| 2025-05-16T14:45:00 | 56.502501 | 3.831247 | 2.0 | 10.563 | 2 | 38.771 | 10.724 | 34.989 | 2 |
| 2025-05-16T14:46:00 | 56.503436 | 3.831359 | 2.0 | 10.566 | 2 | 38.776 | 10.731 | 34.987 | 2 |
| 2025-05-16T14:47:00 | 56.505055 | 3.831572 | 2.0 | 10.561 | 2 | 38.773 | 10.731 | 34.984 | 2 |
| 2025-05-16T14:48:00 | 56.507337 | 3.831736 | 2.0 | 10.572 | 2 | 38.773 | 10.733 | 34.982 | 2 |
| 2025-05-16T14:49:00 | 56.509775 | 3.831805 | 2.0 | 10.573 | 2 | 38.777 | 10.745 | 34.975 | 2 |
| 2025-05-16T14:50:00 | 56.512210 | 3.831812 | 2.0 | 10.575 | 2 | 38.787 | 10.743 | 34.987 | 2 |
| 2025-05-16T14:51:00 | 56.514807 | 3.831929 | 2.0 | 10.562 | 2 | 38.789 | 10.743 | 34.989 | 2 |
| 2025-05-16T14:52:00 | 56.517299 | 3.832005 | 2.0 | 10.556 | 2 | 38.781 | 10.732 | 34.991 | 2 |
| 2025-05-16T14:53:00 | 56.519814 | 3.832025 | 2.0 | 10.534 | 2 | 38.333 | 10.725 | 34.547 | 2 |
| 2025-05-16T14:54:00 | 56.522297 | 3.832152 | 2.0 | 10.516 | 2 | 38.299 | 10.726 | 34.512 | 2 |
| 2025-05-16T14:55:00 | 56.524756 | 3.832186 | 2.0 | 10.504 | 2 | 38.700 | 10.692 | 34.948 | 2 |
| 2025-05-16T14:56:00 | 56.526974 | 3.832265 | 2.0 | 10.490 | 2 | 38.708 | 10.677 | 34.970 | 2 |
| 2025-05-16T14:57:00 | 56.529165 | 3.832328 | 2.0 | 10.483 | 2 | 38.695 | 10.661 | 34.973 | 2 |
| 2025-05-16T14:58:00 | 56.531551 | 3.832369 | 2.0 | 10.469 | 2 | 38.700 | 10.647 | 34.991 | 2 |
| 2025-05-16T14:59:00 | 56.534093 | 3.832518 | 2.0 | 10.466 | 2 | 38.688 | 10.638 | 34.988 | 2 |
| 2025-05-16T15:00:00 | 56.536446 | 3.832587 | 2.0 | 10.460 | 2 | 38.654 | 10.639 | 34.952 | 2 |
| 2025-05-16T15:05:00 | 56.547659 | 3.832859 | 2.0 | 10.471 | 2 | 38.398 | 10.643 | 34.690 | 2 |
| 2025-05-16T15:08:00 | 56.554727 | 3.833258 | 2.0 | 10.476 | 2 | 38.578 | 10.643 | 34.872 | 2 |
| 2025-05-16T15:09:00 | 56.557143 | 3.833339 | 2.0 | 10.480 | 2 | 38.694 | 10.646 | 34.986 | 2 |
| 2025-05-16T15:12:00 | 56.564222 | 3.833354 | 2.0 | 10.454 | 2 | 38.567 | 10.636 | 34.867 | 2 |
| 2025-05-16T15:13:00 | 56.566776 | 3.833388 | 2.0 | 10.450 | 2 | 38.654 | 10.627 | 34.964 | 2 |
| 2025-05-16T15:14:00 | 56.569274 | 3.833364 | 2.0 | 10.433 | 2 | 38.663 | 10.616 | 34.983 | 2 |
| 2025-05-16T15:15:00 | 56.571778 | 3.833299 | 2.0 | 10.416 | 2 | 38.650 | 10.598 | 34.988 | 2 |
| 2025-05-16T15:16:00 | 56.574312 | 3.833343 | 2.0 | 10.411 | 2 | 38.634 | 10.589 | 34.980 | 2 |
| 2025-05-16T15:17:00 | 56.576799 | 3.833329 | 2.0 | 10.413 | 2 | 38.628 | 10.584 | 34.979 | 2 |
| 2025-05-16T15:18:00 | 56.579107 | 3.833329 | 2.0 | 10.411 | 2 | 38.621 | 10.582 | 34.974 | 2 |
| 2025-05-16T15:19:00 | 56.581575 | 3.833353 | 2.0 | 10.412 | 2 | 38.623 | 10.580 | 34.978 | 2 |
| 2025-05-16T15:20:00 | 56.584100 | 3.833320 | 2.0 | 10.418 | 2 | 38.626 | 10.580 | 34.981 | 2 |
| 2025-05-16T15:21:00 | 56.586638 | 3.833352 | 2.0 | 10.415 | 2 | 38.638 | 10.585 | 34.988 | 2 |
| 2025-05-16T15:22:00 | 56.588993 | 3.833310 | 2.0 | 10.405 | 2 | 38.630 | 10.586 | 34.979 | 2 |
| 2025-05-16T15:23:00 | 56.591264 | 3.833310 | 2.0 | 10.416 | 2 | 38.605 | 10.576 | 34.963 | 2 |
| 2025-05-16T15:24:00 | 56.593705 | 3.833327 | 2.0 | 10.409 | 2 | 38.628 | 10.585 | 34.978 | 2 |
| 2025-05-16T15:26:00 | 56.598672 | 3.833298 | 2.0 | 10.409 | 2 | 38.621 | 10.581 | 34.975 | 2 |
| 2025-05-16T15:27:00 | 56.601209 | 3.833312 | 2.0 | 10.407 | 2 | 38.624 | 10.579 | 34.980 | 2 |
| 2025-05-16T15:28:00 | 56.603754 | 3.833309 | 2.0 | 10.406 | 2 | 38.628 | 10.578 | 34.985 | 2 |
| 2025-05-16T15:30:00 | 56.608568 | 3.833329 | 2.0 | 10.414 | 2 | 38.616 | 10.579 | 34.972 | 2 |
| 2025-05-16T15:31:00 | 56.611065 | 3.833284 | 2.0 | 10.421 | 2 | 38.640 | 10.586 | 34.989 | 2 |
| 2025-05-16T15:32:00 | 56.613467 | 3.833275 | 2.0 | 10.426 | 2 | 38.250 | 10.605 | 34.577 | 2 |
| 2025-05-16T15:34:00 | 56.618417 | 3.833359 | 2.0 | 10.474 | 2 | 38.599 | 10.619 | 34.916 | 2 |
| 2025-05-16T15:35:00 | 56.620913 | 3.833336 | 2.0 | 10.483 | 2 | 38.702 | 10.643 | 34.997 | 2 |
| 2025-05-16T15:36:00 | 56.623357 | 3.833315 | 2.0 | 10.478 | 2 | 38.726 | 10.647 | 35.017 | 2 |
| 2025-05-16T15:37:00 | 56.625825 | 3.833307 | 2.0 | 10.465 | 2 | 38.725 | 10.645 | 35.018 | 2 |
| 2025-05-16T15:38:00 | 56.628279 | 3.833339 | 2.0 | 10.441 | 2 | 38.711 | 10.629 | 35.019 | 2 |
| 2025-05-16T15:39:00 | 56.630771 | 3.833318 | 2.0 | 10.429 | 2 | 38.579 | 10.612 | 34.903 | 2 |
| 2025-05-16T15:41:00 | 56.635480 | 3.833230 | 2.0 | 10.386 | 2 | 38.647 | 10.589 | 34.993 | 2 |
| 2025-05-16T15:42:00 | 56.637915 | 3.833297 | 2.0 | 10.363 | 2 | 38.618 | 10.554 | 34.998 | 2 |
| 2025-05-16T15:46:00 | 56.647590 | 3.833297 | 2.0 | 10.366 | 2 | 38.555 | 10.531 | 34.956 | 2 |
| 2025-05-16T15:47:00 | 56.650159 | 3.833349 | 2.0 | 10.371 | 2 | 38.331 | 10.539 | 34.722 | 2 |
| 2025-05-16T15:50:00 | 56.657224 | 3.833251 | 2.0 | 10.342 | 2 | 38.203 | 10.549 | 34.583 | 2 |
| 2025-05-16T15:51:00 | 56.659740 | 3.833341 | 2.0 | 10.331 | 2 | 38.466 | 10.515 | 34.881 | 2 |
| 2025-05-16T15:52:00 | 56.662198 | 3.833347 | 2.0 | 10.332 | 2 | 38.556 | 10.505 | 34.982 | 2 |
| 2025-05-16T15:53:00 | 56.664313 | 3.833347 | 2.0 | 10.324 | 2 | 38.567 | 10.506 | 34.992 | 2 |
| 2025-05-16T15:54:00 | 56.665467 | 3.833247 | 2.0 | 10.328 | 2 | 38.562 | 10.493 | 35.000 | 2 |
| 2025-05-16T15:55:00 | 56.666086 | 3.833190 | 2.0 | 10.335 | 2 | 38.560 | 10.499 | 34.992 | 2 |
| 2025-05-16T15:56:00 | 56.666255 | 3.833149 | 2.0 | 10.324 | 2 | 38.567 | 10.500 | 34.998 | 2 |
| 2025-05-16T15:57:00 | 56.666316 | 3.833131 | 2.0 | 10.327 | 2 | 38.562 | 10.490 | 35.003 | 2 |
| 2025-05-16T15:58:00 | 56.666382 | 3.833067 | 2.0 | 10.333 | 2 | 38.569 | 10.495 | 35.005 | 2 |
| 2025-05-16T15:59:00 | 56.666444 | 3.832996 | 2.0 | 10.341 | 2 | 38.571 | 10.502 | 35.000 | 2 |
| 2025-05-16T16:00:00 | 56.666421 | 3.832993 | 2.0 | 10.339 | 2 | 38.579 | 10.506 | 35.004 | 2 |
| 2025-05-16T16:01:00 | 56.666426 | 3.833039 | 2.0 | 10.330 | 2 | 38.577 | 10.504 | 35.004 | 2 |
| 2025-05-16T16:02:00 | 56.666450 | 3.833040 | 2.0 | 10.331 | 2 | 38.574 | 10.498 | 35.007 | 2 |
| 2025-05-16T16:03:00 | 56.666427 | 3.832989 | 2.0 | 10.331 | 2 | 38.574 | 10.498 | 35.007 | 2 |
| 2025-05-16T16:04:00 | 56.666437 | 3.832909 | 2.0 | 10.328 | 2 | 38.572 | 10.496 | 35.007 | 2 |
| 2025-05-16T16:05:00 | 56.666480 | 3.832775 | 2.0 | 10.329 | 2 | 38.572 | 10.497 | 35.006 | 2 |
| 2025-05-16T16:06:00 | 56.666484 | 3.832656 | 2.0 | 10.322 | 2 | 38.566 | 10.494 | 35.003 | 2 |
| 2025-05-16T16:07:00 | 56.666455 | 3.832536 | 2.0 | 10.319 | 2 | 38.562 | 10.488 | 35.004 | 2 |
| 2025-05-16T16:08:00 | 56.666380 | 3.832401 | 2.0 | 10.316 | 2 | 38.557 | 10.485 | 35.002 | 2 |
| 2025-05-16T16:09:00 | 56.666380 | 3.832268 | 2.0 | 10.305 | 2 | 38.557 | 10.479 | 35.008 | 2 |
| 2025-05-16T16:10:00 | 56.666363 | 3.832168 | 2.0 | 10.316 | 2 | 38.552 | 10.475 | 35.007 | 2 |
| 2025-05-16T16:11:00 | 56.666391 | 3.832101 | 2.0 | 10.319 | 2 | 38.559 | 10.483 | 35.006 | 2 |
| 2025-05-16T16:12:00 | 56.666396 | 3.832068 | 2.0 | 10.317 | 2 | 38.563 | 10.485 | 35.008 | 2 |
| 2025-05-16T16:13:00 | 56.666378 | 3.832063 | 2.0 | 10.318 | 2 | 38.561 | 10.483 | 35.008 | 2 |
| 2025-05-16T16:14:00 | 56.666346 | 3.832063 | 2.0 | 10.333 | 2 | 38.564 | 10.487 | 35.007 | 2 |
| 2025-05-16T16:15:00 | 56.666353 | 3.832029 | 2.0 | 10.350 | 2 | 38.577 | 10.500 | 35.008 | 2 |
| 2025-05-16T16:16:00 | 56.666390 | 3.831968 | 2.0 | 10.349 | 2 | 38.591 | 10.515 | 35.008 | 2 |
| 2025-05-16T16:17:00 | 56.666445 | 3.831919 | 2.0 | 10.353 | 2 | 38.593 | 10.516 | 35.009 | 2 |
| 2025-05-16T16:18:00 | 56.666506 | 3.831891 | 2.0 | 10.346 | 2 | 38.595 | 10.517 | 35.010 | 2 |
| 2025-05-16T16:19:00 | 56.666514 | 3.831823 | 2.0 | 10.339 | 2 | 38.589 | 10.511 | 35.010 | 2 |
| 2025-05-16T16:20:00 | 56.666489 | 3.831780 | 2.0 | 10.340 | 2 | 38.583 | 10.504 | 35.010 | 2 |
| 2025-05-16T16:21:00 | 56.666469 | 3.831758 | 2.0 | 10.344 | 2 | 38.584 | 10.508 | 35.007 | 2 |
| 2025-05-16T16:22:00 | 56.666453 | 3.831717 | 2.0 | 10.339 | 2 | 38.584 | 10.509 | 35.007 | 2 |
| 2025-05-16T16:23:00 | 56.666462 | 3.831647 | 2.0 | 10.334 | 2 | 38.582 | 10.505 | 35.008 | 2 |
| 2025-05-16T16:24:00 | 56.666430 | 3.831596 | 2.0 | 10.332 | 2 | 38.578 | 10.501 | 35.008 | 2 |
| 2025-05-16T16:25:00 | 56.666421 | 3.831556 | 2.0 | 10.323 | 2 | 38.575 | 10.496 | 35.010 | 2 |
| 2025-05-16T16:26:00 | 56.666468 | 3.831556 | 2.0 | 10.319 | 2 | 38.569 | 10.490 | 35.010 | 2 |
| 2025-05-16T16:27:00 | 56.666424 | 3.831610 | 2.0 | 10.326 | 2 | 38.566 | 10.488 | 35.008 | 2 |
| 2025-05-16T16:28:00 | 56.666430 | 3.831695 | 2.0 | 10.332 | 2 | 38.571 | 10.494 | 35.008 | 2 |
| 2025-05-16T16:29:00 | 56.666389 | 3.831719 | 2.0 | 10.331 | 2 | 38.574 | 10.498 | 35.007 | 2 |
| 2025-05-16T16:30:00 | 56.666393 | 3.831702 | 2.0 | 10.327 | 2 | 38.575 | 10.497 | 35.009 | 2 |
| 2025-05-16T16:31:00 | 56.666373 | 3.831623 | 2.0 | 10.319 | 2 | 38.569 | 10.494 | 35.006 | 2 |
| 2025-05-16T16:32:00 | 56.666365 | 3.831561 | 2.0 | 10.320 | 2 | 38.562 | 10.486 | 35.006 | 2 |
| 2025-05-16T16:33:00 | 56.666357 | 3.831564 | 2.0 | 10.324 | 2 | 38.564 | 10.488 | 35.006 | 2 |
| 2025-05-16T16:34:00 | 56.666340 | 3.831654 | 2.0 | 10.327 | 2 | 38.568 | 10.491 | 35.008 | 2 |
| 2025-05-16T16:35:00 | 56.666320 | 3.831732 | 2.0 | 10.335 | 2 | 38.573 | 10.495 | 35.009 | 2 |
| 2025-05-16T16:36:00 | 56.666338 | 3.831721 | 2.0 | 10.338 | 2 | 38.579 | 10.501 | 35.009 | 2 |
| 2025-05-16T16:37:00 | 56.666407 | 3.831673 | 2.0 | 10.339 | 2 | 38.583 | 10.504 | 35.010 | 2 |
| 2025-05-16T16:38:00 | 56.666464 | 3.831704 | 2.0 | 10.333 | 2 | 38.583 | 10.505 | 35.009 | 2 |
| 2025-05-16T16:39:00 | 56.666438 | 3.831790 | 2.0 | 10.329 | 2 | 38.578 | 10.500 | 35.009 | 2 |
| 2025-05-16T16:40:00 | 56.666415 | 3.831858 | 2.0 | 10.328 | 2 | 38.574 | 10.496 | 35.009 | 2 |
| 2025-05-16T16:41:00 | 56.666387 | 3.831916 | 2.0 | 10.325 | 2 | 38.573 | 10.495 | 35.009 | 2 |
| 2025-05-16T16:42:00 | 56.666392 | 3.831960 | 2.0 | 10.328 | 2 | 38.566 | 10.492 | 35.005 | 2 |
| 2025-05-16T16:43:00 | 56.666414 | 3.831995 | 2.0 | 10.335 | 2 | 38.574 | 10.498 | 35.007 | 2 |
| 2025-05-16T16:44:00 | 56.666406 | 3.832014 | 2.0 | 10.339 | 2 | 38.580 | 10.502 | 35.009 | 2 |
| 2025-05-16T16:45:00 | 56.666394 | 3.831958 | 2.0 | 10.346 | 2 | 38.585 | 10.507 | 35.009 | 2 |
| 2025-05-16T16:46:00 | 56.666379 | 3.831918 | 2.0 | 10.346 | 2 | 38.590 | 10.513 | 35.009 | 2 |
| 2025-05-16T16:47:00 | 56.666342 | 3.831941 | 2.0 | 10.339 | 2 | 38.584 | 10.511 | 35.005 | 2 |
| 2025-05-16T16:48:00 | 56.666311 | 3.832012 | 2.0 | 10.338 | 2 | 38.582 | 10.505 | 35.008 | 2 |
| 2025-05-16T16:49:00 | 56.666283 | 3.832157 | 2.0 | 10.335 | 2 | 38.583 | 10.505 | 35.009 | 2 |
| 2025-05-16T16:50:00 | 56.666271 | 3.832254 | 2.0 | 10.331 | 2 | 38.576 | 10.500 | 35.007 | 2 |
| 2025-05-16T16:51:00 | 56.666272 | 3.832337 | 2.0 | 10.336 | 2 | 38.576 | 10.499 | 35.008 | 2 |
| 2025-05-16T16:52:00 | 56.666257 | 3.832362 | 2.0 | 10.339 | 2 | 38.581 | 10.504 | 35.008 | 2 |
| 2025-05-16T16:53:00 | 56.666258 | 3.832364 | 2.0 | 10.335 | 2 | 38.584 | 10.506 | 35.009 | 2 |
| 2025-05-16T16:54:00 | 56.666268 | 3.832393 | 2.0 | 10.328 | 2 | 38.568 | 10.501 | 34.998 | 2 |
| 2025-05-16T16:55:00 | 56.666321 | 3.832417 | 2.0 | 10.328 | 2 | 38.570 | 10.496 | 35.005 | 2 |
| 2025-05-16T16:56:00 | 56.666339 | 3.832407 | 2.0 | 10.325 | 2 | 38.573 | 10.495 | 35.009 | 2 |
| 2025-05-16T16:57:00 | 56.666275 | 3.832419 | 2.0 | 10.320 | 2 | 38.570 | 10.491 | 35.010 | 2 |
| 2025-05-16T16:58:00 | 56.666283 | 3.832412 | 2.0 | 10.325 | 2 | 38.567 | 10.487 | 35.010 | 2 |
| 2025-05-16T16:59:00 | 56.666292 | 3.832363 | 2.0 | 10.329 | 2 | 38.571 | 10.492 | 35.010 | 2 |
| 2025-05-16T17:00:00 | 56.666287 | 3.832276 | 2.0 | 10.331 | 2 | 38.574 | 10.496 | 35.009 | 2 |
| 2025-05-16T17:01:00 | 56.666353 | 3.832162 | 2.0 | 10.331 | 2 | 38.575 | 10.496 | 35.010 | 2 |
| 2025-05-16T17:02:00 | 56.666389 | 3.832050 | 2.0 | 10.331 | 2 | 38.577 | 10.498 | 35.010 | 2 |
| 2025-05-16T17:03:00 | 56.666415 | 3.832028 | 2.0 | 10.334 | 2 | 38.578 | 10.498 | 35.011 | 2 |
| 2025-05-16T17:04:00 | 56.666470 | 3.832064 | 2.0 | 10.333 | 2 | 38.580 | 10.500 | 35.011 | 2 |
| 2025-05-16T17:05:00 | 56.666440 | 3.832050 | 2.0 | 10.332 | 2 | 38.579 | 10.500 | 35.010 | 2 |
| 2025-05-16T17:06:00 | 56.666387 | 3.831960 | 2.0 | 10.327 | 2 | 38.577 | 10.498 | 35.010 | 2 |
| 2025-05-16T17:07:00 | 56.666385 | 3.831999 | 2.0 | 10.323 | 2 | 38.572 | 10.492 | 35.011 | 2 |
| 2025-05-16T17:08:00 | 56.666376 | 3.832114 | 2.0 | 10.325 | 2 | 38.569 | 10.490 | 35.010 | 2 |
| 2025-05-16T17:09:00 | 56.666378 | 3.832139 | 2.0 | 10.329 | 2 | 38.571 | 10.492 | 35.010 | 2 |
| 2025-05-16T17:11:00 | 56.666372 | 3.832074 | 2.0 | 10.326 | 2 | 38.576 | 10.497 | 35.010 | 2 |
| 2025-05-16T17:12:00 | 56.666416 | 3.832111 | 2.0 | 10.322 | 2 | 38.502 | 10.493 | 34.939 | 2 |
| 2025-05-16T17:13:00 | 56.666476 | 3.832205 | 2.0 | 10.318 | 2 | 38.569 | 10.490 | 35.010 | 2 |
| 2025-05-16T17:14:00 | 56.666577 | 3.832294 | 2.0 | 10.317 | 2 | 38.174 | 10.484 | 34.616 | 2 |
| 2025-05-16T17:15:00 | 56.666659 | 3.832391 | 2.0 | 10.327 | 2 | 38.398 | 10.486 | 34.840 | 2 |
| 2025-05-16T17:16:00 | 56.666674 | 3.832460 | 2.0 | 10.337 | 2 | 38.574 | 10.496 | 35.009 | 2 |
| 2025-05-16T17:19:00 | 56.666572 | 3.832697 | 2.0 | 10.329 | 2 | 38.577 | 10.498 | 35.010 | 2 |
| 2025-05-16T17:20:00 | 56.666577 | 3.832800 | 2.0 | 10.339 | 2 | 38.186 | 10.497 | 34.616 | 2 |
| 2025-05-16T17:22:00 | 56.666698 | 3.832949 | 2.0 | 10.333 | 2 | 38.040 | 10.503 | 34.462 | 2 |
| 2025-05-16T17:23:00 | 56.666801 | 3.833069 | 2.0 | 10.332 | 2 | 38.536 | 10.499 | 34.968 | 2 |
| 2025-05-16T17:24:00 | 56.667027 | 3.833144 | 2.0 | 10.330 | 2 | 38.564 | 10.498 | 34.997 | 2 |
| 2025-05-16T17:25:00 | 56.667370 | 3.833238 | 2.0 | 10.333 | 2 | 38.290 | 10.495 | 34.723 | 2 |
| 2025-05-16T17:26:00 | 56.667968 | 3.833366 | 2.0 | 10.343 | 2 | 38.067 | 10.502 | 34.491 | 2 |
| 2025-05-16T17:27:00 | 56.668783 | 3.834075 | 2.0 | 10.335 | 2 | 38.532 | 10.507 | 34.956 | 2 |
| 2025-05-16T17:28:00 | 56.669462 | 3.836487 | 2.0 | 10.324 | 2 | 38.426 | 10.500 | 34.855 | 2 |
| 2025-05-16T17:34:00 | 56.674736 | 3.858914 | 2.0 | 10.290 | 2 | 38.093 | 10.460 | 34.557 | 2 |
| 2025-05-16T17:35:00 | 56.675745 | 3.863015 | 2.0 | 10.303 | 2 | 38.109 | 10.464 | 34.569 | 2 |
| 2025-05-16T17:36:00 | 56.676761 | 3.867089 | 2.0 | 10.319 | 2 | 38.099 | 10.475 | 34.549 | 2 |
| 2025-05-16T17:37:00 | 56.677712 | 3.871191 | 2.0 | 10.313 | 2 | 38.574 | 10.486 | 35.019 | 2 |
| 2025-05-16T17:40:00 | 56.680542 | 3.883160 | 2.0 | 10.297 | 2 | 38.295 | 10.474 | 34.748 | 2 |
| 2025-05-16T17:41:00 | 56.681567 | 3.887200 | 2.0 | 10.299 | 2 | 38.239 | 10.468 | 34.697 | 2 |
| 2025-05-16T17:42:00 | 56.682540 | 3.891236 | 2.0 | 10.321 | 2 | 38.213 | 10.471 | 34.668 | 2 |
| 2025-05-16T17:43:00 | 56.683332 | 3.895447 | 2.0 | 10.331 | 2 | 38.255 | 10.491 | 34.691 | 2 |
| 2025-05-16T17:44:00 | 56.683083 | 3.899985 | 2.0 | 10.346 | 2 | 38.285 | 10.503 | 34.710 | 2 |
| 2025-05-16T17:46:00 | 56.679919 | 3.907219 | 2.0 | 10.335 | 2 | 38.272 | 10.515 | 34.685 | 2 |
| 2025-05-16T17:47:00 | 56.677419 | 3.908598 | 2.0 | 10.329 | 2 | 38.262 | 10.505 | 34.685 | 2 |
| 2025-05-16T17:50:00 | 56.671233 | 3.908347 | 2.0 | 10.324 | 2 | 38.121 | 10.489 | 34.557 | 2 |
| 2025-05-16T17:51:00 | 56.669610 | 3.909039 | 2.0 | 10.320 | 2 | 38.129 | 10.490 | 34.565 | 2 |
| 2025-05-16T17:52:00 | 56.668014 | 3.909525 | 2.0 | 10.313 | 2 | 38.504 | 10.487 | 34.947 | 2 |
| 2025-05-16T17:53:00 | 56.666237 | 3.909280 | 2.0 | 10.316 | 2 | 38.234 | 10.480 | 34.680 | 2 |
| 2025-05-16T17:54:00 | 56.664297 | 3.909184 | 2.0 | 10.325 | 2 | 38.153 | 10.485 | 34.594 | 2 |
| 2025-05-16T17:55:00 | 56.662307 | 3.909366 | 2.0 | 10.326 | 2 | 38.158 | 10.492 | 34.592 | 2 |
| 2025-05-16T17:56:00 | 56.660234 | 3.909416 | 2.0 | 10.327 | 2 | 38.176 | 10.493 | 34.609 | 2 |
| 2025-05-16T17:57:00 | 56.658084 | 3.909359 | 2.0 | 10.337 | 2 | 38.193 | 10.495 | 34.624 | 2 |
| 2025-05-16T17:58:00 | 56.655913 | 3.909447 | 2.0 | 10.346 | 2 | 38.179 | 10.503 | 34.603 | 2 |
| 2025-05-16T17:59:00 | 56.653745 | 3.909394 | 2.0 | 10.359 | 2 | 38.154 | 10.516 | 34.565 | 2 |
| 2025-05-16T18:00:00 | 56.651567 | 3.909422 | 2.0 | 10.373 | 2 | 38.327 | 10.528 | 34.728 | 2 |
| 2025-05-16T18:01:00 | 56.649389 | 3.909450 | 2.0 | 10.384 | 2 | 38.191 | 10.540 | 34.580 | 2 |
| 2025-05-16T18:02:00 | 56.647166 | 3.909495 | 2.0 | 10.396 | 2 | 38.379 | 10.551 | 34.759 | 2 |
| 2025-05-16T18:03:00 | 56.644955 | 3.909469 | 2.0 | 10.405 | 2 | 38.317 | 10.564 | 34.684 | 2 |
| 2025-05-16T18:04:00 | 56.642733 | 3.909461 | 2.0 | 10.405 | 2 | 38.293 | 10.571 | 34.653 | 2 |
| 2025-05-16T18:05:00 | 56.640497 | 3.909370 | 2.0 | 10.403 | 2 | 38.352 | 10.570 | 34.714 | 2 |
| 2025-05-16T18:06:00 | 56.638268 | 3.909390 | 2.0 | 10.410 | 2 | 38.481 | 10.573 | 34.841 | 2 |
| 2025-05-16T18:07:00 | 56.636054 | 3.909494 | 2.0 | 10.417 | 2 | 38.555 | 10.577 | 34.912 | 2 |
| 2025-05-16T18:08:00 | 56.633846 | 3.909435 | 2.0 | 10.414 | 2 | 38.525 | 10.581 | 34.878 | 2 |
| 2025-05-16T18:09:00 | 56.631648 | 3.909444 | 2.0 | 10.419 | 2 | 38.495 | 10.582 | 34.847 | 2 |
| 2025-05-16T18:10:00 | 56.629467 | 3.909434 | 2.0 | 10.413 | 2 | 38.468 | 10.584 | 34.817 | 2 |
| 2025-05-16T18:11:00 | 56.627285 | 3.909404 | 2.0 | 10.409 | 2 | 38.558 | 10.579 | 34.913 | 2 |
| 2025-05-16T18:12:00 | 56.625102 | 3.909440 | 2.0 | 10.406 | 2 | 38.457 | 10.575 | 34.815 | 2 |
| 2025-05-16T18:13:00 | 56.622912 | 3.909445 | 2.0 | 10.406 | 2 | 38.533 | 10.573 | 34.893 | 2 |
| 2025-05-16T18:14:00 | 56.620688 | 3.909409 | 2.0 | 10.395 | 2 | 38.517 | 10.570 | 34.880 | 2 |
| 2025-05-16T18:15:00 | 56.618438 | 3.909392 | 2.0 | 10.393 | 2 | 38.541 | 10.562 | 34.912 | 2 |
| 2025-05-16T18:16:00 | 56.616207 | 3.909442 | 2.0 | 10.401 | 2 | 38.504 | 10.562 | 34.875 | 2 |
| 2025-05-16T18:17:00 | 56.613978 | 3.909448 | 2.0 | 10.412 | 2 | 38.549 | 10.569 | 34.913 | 2 |
| 2025-05-16T18:18:00 | 56.611738 | 3.909460 | 2.0 | 10.399 | 2 | 38.501 | 10.575 | 34.859 | 2 |
| 2025-05-16T18:19:00 | 56.609498 | 3.909515 | 2.0 | 10.387 | 2 | 38.528 | 10.563 | 34.898 | 2 |
| 2025-05-16T18:20:00 | 56.607267 | 3.909441 | 2.0 | 10.362 | 2 | 38.491 | 10.550 | 34.873 | 2 |
| 2025-05-16T18:21:00 | 56.605033 | 3.909425 | 2.0 | 10.347 | 2 | 38.513 | 10.529 | 34.915 | 2 |
| 2025-05-16T18:22:00 | 56.602806 | 3.909416 | 2.0 | 10.346 | 2 | 38.505 | 10.516 | 34.920 | 2 |
| 2025-05-16T18:23:00 | 56.600603 | 3.909506 | 2.0 | 10.346 | 2 | 38.474 | 10.514 | 34.890 | 2 |
| 2025-05-16T18:24:00 | 56.598366 | 3.909439 | 2.0 | 10.355 | 2 | 38.503 | 10.513 | 34.921 | 2 |
| 2025-05-16T18:25:00 | 56.596119 | 3.909501 | 2.0 | 10.367 | 2 | 38.516 | 10.525 | 34.922 | 2 |
| 2025-05-16T18:26:00 | 56.593846 | 3.909476 | 2.0 | 10.367 | 2 | 38.525 | 10.531 | 34.926 | 2 |
| 2025-05-16T18:27:00 | 56.591632 | 3.909465 | 2.0 | 10.377 | 2 | 38.513 | 10.537 | 34.908 | 2 |
| 2025-05-16T18:28:00 | 56.589414 | 3.909306 | 2.0 | 10.373 | 2 | 38.554 | 10.543 | 34.943 | 2 |
| 2025-05-16T18:29:00 | 56.587211 | 3.909367 | 2.0 | 10.375 | 2 | 38.562 | 10.541 | 34.953 | 2 |
| 2025-05-16T18:30:00 | 56.585014 | 3.909478 | 2.0 | 10.374 | 2 | 38.532 | 10.541 | 34.923 | 2 |
| 2025-05-16T18:31:00 | 56.582846 | 3.909506 | 2.0 | 10.369 | 2 | 38.539 | 10.541 | 34.930 | 2 |
| 2025-05-16T18:32:00 | 56.580675 | 3.909374 | 2.0 | 10.375 | 2 | 38.549 | 10.537 | 34.944 | 2 |
| 2025-05-16T18:33:00 | 56.578503 | 3.909408 | 2.0 | 10.389 | 2 | 38.556 | 10.545 | 34.944 | 2 |
| 2025-05-16T18:34:00 | 56.576345 | 3.909485 | 2.0 | 10.387 | 2 | 38.579 | 10.555 | 34.957 | 2 |
| 2025-05-16T18:35:00 | 56.574174 | 3.909468 | 2.0 | 10.382 | 2 | 38.574 | 10.553 | 34.954 | 2 |
| 2025-05-16T18:36:00 | 56.571997 | 3.909423 | 2.0 | 10.378 | 2 | 38.581 | 10.547 | 34.967 | 2 |
| 2025-05-16T18:37:00 | 56.569832 | 3.909470 | 2.0 | 10.370 | 2 | 38.578 | 10.543 | 34.968 | 2 |
| 2025-05-16T18:38:00 | 56.567661 | 3.909432 | 2.0 | 10.360 | 2 | 38.572 | 10.537 | 34.967 | 2 |
| 2025-05-16T18:39:00 | 56.565492 | 3.909415 | 2.0 | 10.360 | 2 | 38.570 | 10.528 | 34.974 | 2 |
| 2025-05-16T18:40:00 | 56.563337 | 3.909433 | 2.0 | 10.353 | 2 | 38.569 | 10.526 | 34.975 | 2 |
| 2025-05-16T18:41:00 | 56.561218 | 3.909497 | 2.0 | 10.359 | 2 | 38.566 | 10.520 | 34.978 | 2 |
| 2025-05-16T18:42:00 | 56.559099 | 3.909451 | 2.0 | 10.373 | 2 | 38.573 | 10.528 | 34.977 | 2 |
| 2025-05-16T18:43:00 | 56.556978 | 3.909398 | 2.0 | 10.391 | 2 | 38.586 | 10.542 | 34.977 | 2 |
| 2025-05-16T18:44:00 | 56.554847 | 3.909515 | 2.0 | 10.410 | 2 | 38.606 | 10.561 | 34.979 | 2 |
| 2025-05-16T18:45:00 | 56.552756 | 3.909474 | 2.0 | 10.423 | 2 | 38.623 | 10.577 | 34.981 | 2 |
| 2025-05-16T18:46:00 | 56.550594 | 3.909467 | 2.0 | 10.438 | 2 | 38.638 | 10.591 | 34.982 | 2 |
| 2025-05-16T18:47:00 | 56.548380 | 3.909456 | 2.0 | 10.449 | 2 | 38.653 | 10.606 | 34.983 | 2 |
| 2025-05-16T18:48:00 | 56.546128 | 3.909483 | 2.0 | 10.450 | 2 | 38.661 | 10.614 | 34.983 | 2 |
| 2025-05-16T18:49:00 | 56.543887 | 3.909460 | 2.0 | 10.449 | 2 | 38.664 | 10.615 | 34.985 | 2 |
| 2025-05-16T18:50:00 | 56.541614 | 3.909448 | 2.0 | 10.448 | 2 | 38.663 | 10.614 | 34.985 | 2 |
| 2025-05-16T18:51:00 | 56.539365 | 3.909410 | 2.0 | 10.451 | 2 | 38.663 | 10.615 | 34.984 | 2 |
| 2025-05-16T18:52:00 | 56.537132 | 3.909429 | 2.0 | 10.451 | 2 | 38.666 | 10.618 | 34.985 | 2 |
| 2025-05-16T18:53:00 | 56.534884 | 3.909425 | 2.0 | 10.448 | 2 | 38.666 | 10.617 | 34.986 | 2 |
| 2025-05-16T18:54:00 | 56.532630 | 3.909462 | 2.0 | 10.449 | 2 | 38.600 | 10.614 | 34.922 | 2 |
| 2025-05-16T18:55:00 | 56.530411 | 3.909537 | 2.0 | 10.453 | 2 | 38.665 | 10.616 | 34.986 | 2 |
| 2025-05-16T18:56:00 | 56.528165 | 3.909517 | 2.0 | 10.457 | 2 | 38.669 | 10.620 | 34.986 | 2 |
| 2025-05-16T18:57:00 | 56.525953 | 3.909479 | 2.0 | 10.453 | 2 | 38.538 | 10.622 | 34.852 | 2 |
| 2025-05-16T18:58:00 | 56.523703 | 3.909371 | 2.0 | 10.453 | 2 | 38.618 | 10.619 | 34.935 | 2 |
| 2025-05-16T18:59:00 | 56.521441 | 3.909390 | 2.0 | 10.454 | 2 | 38.479 | 10.619 | 34.795 | 2 |
| 2025-05-16T19:00:00 | 56.519173 | 3.909407 | 2.0 | 10.455 | 2 | 38.669 | 10.621 | 34.985 | 2 |
| 2025-05-16T19:01:00 | 56.516905 | 3.909431 | 2.0 | 10.461 | 2 | 38.670 | 10.622 | 34.985 | 2 |
| 2025-05-16T19:02:00 | 56.514651 | 3.909381 | 2.0 | 10.462 | 2 | 38.299 | 10.627 | 34.606 | 2 |
| 2025-05-16T19:03:00 | 56.512428 | 3.909284 | 2.0 | 10.470 | 2 | 38.676 | 10.629 | 34.984 | 2 |
| 2025-05-16T19:05:00 | 56.507933 | 3.909429 | 2.0 | 10.473 | 2 | 38.684 | 10.637 | 34.985 | 2 |
| 2025-05-16T19:06:00 | 56.505695 | 3.909400 | 2.0 | 10.471 | 2 | 38.634 | 10.639 | 34.932 | 2 |
| 2025-05-16T19:07:00 | 56.503464 | 3.909332 | 2.0 | 10.472 | 2 | 38.628 | 10.637 | 34.928 | 2 |
| 2025-05-16T19:08:00 | 56.501215 | 3.909375 | 2.0 | 10.477 | 2 | 38.230 | 10.638 | 34.526 | 2 |
| 2025-05-16T19:09:00 | 56.498957 | 3.909398 | 2.0 | 10.481 | 2 | 38.673 | 10.644 | 34.967 | 2 |
| 2025-05-16T19:10:00 | 56.496707 | 3.909475 | 2.0 | 10.493 | 2 | 38.400 | 10.650 | 34.686 | 2 |
| 2025-05-16T19:14:00 | 56.487752 | 3.909396 | 2.0 | 10.508 | 2 | 38.485 | 10.674 | 34.749 | 2 |
| 2025-05-16T19:15:00 | 56.485524 | 3.909398 | 2.0 | 10.513 | 2 | 38.477 | 10.674 | 34.741 | 2 |
| 2025-05-16T19:16:00 | 56.483245 | 3.909456 | 2.0 | 10.516 | 2 | 38.417 | 10.680 | 34.674 | 2 |
| 2025-05-16T19:17:00 | 56.480988 | 3.909379 | 2.0 | 10.520 | 2 | 38.389 | 10.683 | 34.643 | 2 |
| 2025-05-16T19:18:00 | 56.478760 | 3.909378 | 2.0 | 10.520 | 2 | 38.218 | 10.686 | 34.469 | 2 |
| 2025-05-16T19:19:00 | 56.476517 | 3.909386 | 2.0 | 10.524 | 2 | 38.322 | 10.686 | 34.573 | 2 |
| 2025-05-16T19:21:00 | 56.471991 | 3.909353 | 2.0 | 10.515 | 2 | 38.532 | 10.687 | 34.784 | 2 |
| 2025-05-16T19:23:00 | 56.467421 | 3.909447 | 2.0 | 10.507 | 2 | 38.452 | 10.680 | 34.710 | 2 |
| 2025-05-16T19:25:00 | 56.462914 | 3.909412 | 2.0 | 10.482 | 2 | 38.367 | 10.660 | 34.643 | 2 |
| 2025-05-16T19:26:00 | 56.460640 | 3.909370 | 2.0 | 10.465 | 2 | 38.330 | 10.646 | 34.619 | 2 |
| 2025-05-16T19:27:00 | 56.458366 | 3.909333 | 2.0 | 10.459 | 2 | 38.466 | 10.632 | 34.769 | 2 |
| 2025-05-16T19:28:00 | 56.456121 | 3.909434 | 2.0 | 10.452 | 2 | 38.364 | 10.625 | 34.673 | 2 |
| 2025-05-16T19:29:00 | 56.453888 | 3.909443 | 2.0 | 10.446 | 2 | 38.342 | 10.620 | 34.656 | 2 |
| 2025-05-16T19:30:00 | 56.451659 | 3.909411 | 2.0 | 10.430 | 2 | 38.359 | 10.609 | 34.684 | 2 |
| 2025-05-16T19:31:00 | 56.449442 | 3.909383 | 2.0 | 10.426 | 2 | 38.429 | 10.597 | 34.766 | 2 |
| 2025-05-16T19:32:00 | 56.447194 | 3.909422 | 2.0 | 10.417 | 2 | 38.321 | 10.592 | 34.661 | 2 |
| 2025-05-16T19:33:00 | 56.444912 | 3.909386 | 2.0 | 10.412 | 2 | 38.601 | 10.585 | 34.951 | 2 |
| 2025-05-16T19:34:00 | 56.442624 | 3.909364 | 2.0 | 10.405 | 2 | 38.342 | 10.579 | 34.695 | 2 |
| 2025-05-16T19:35:00 | 56.440355 | 3.909444 | 2.0 | 10.403 | 2 | 38.326 | 10.572 | 34.685 | 2 |
| 2025-05-16T19:36:00 | 56.438101 | 3.909448 | 2.0 | 10.401 | 2 | 38.306 | 10.570 | 34.667 | 2 |
| 2025-05-16T19:37:00 | 56.435882 | 3.909374 | 2.0 | 10.401 | 2 | 38.390 | 10.568 | 34.754 | 2 |
| 2025-05-16T19:38:00 | 56.433685 | 3.909404 | 2.0 | 10.415 | 2 | 38.259 | 10.571 | 34.619 | 2 |
| 2025-05-16T19:39:00 | 56.431450 | 3.909391 | 2.0 | 10.433 | 2 | 38.389 | 10.583 | 34.739 | 2 |
| 2025-05-16T19:40:00 | 56.429230 | 3.909454 | 2.0 | 10.443 | 2 | 38.424 | 10.601 | 34.757 | 2 |
| 2025-05-16T19:41:00 | 56.427003 | 3.909462 | 2.0 | 10.449 | 2 | 38.305 | 10.610 | 34.628 | 2 |
| 2025-05-16T19:42:00 | 56.424821 | 3.909349 | 2.0 | 10.453 | 2 | 38.339 | 10.616 | 34.657 | 2 |
| 2025-05-16T19:43:00 | 56.422650 | 3.909397 | 2.0 | 10.459 | 2 | 38.383 | 10.621 | 34.696 | 2 |
| 2025-05-16T19:44:00 | 56.420456 | 3.909387 | 2.0 | 10.457 | 2 | 38.370 | 10.624 | 34.680 | 2 |
| 2025-05-16T19:45:00 | 56.418263 | 3.909486 | 2.0 | 10.456 | 2 | 38.369 | 10.623 | 34.680 | 2 |
| 2025-05-16T19:46:00 | 56.416060 | 3.909523 | 2.0 | 10.456 | 2 | 38.463 | 10.622 | 34.776 | 2 |
| 2025-05-16T19:47:00 | 56.413863 | 3.909485 | 2.0 | 10.453 | 2 | 38.378 | 10.622 | 34.690 | 2 |
| 2025-05-16T19:48:00 | 56.411658 | 3.909457 | 2.0 | 10.454 | 2 | 38.381 | 10.621 | 34.694 | 2 |
| 2025-05-16T19:49:00 | 56.409439 | 3.909410 | 2.0 | 10.456 | 2 | 38.437 | 10.621 | 34.751 | 2 |
| 2025-05-16T19:50:00 | 56.407255 | 3.909359 | 2.0 | 10.456 | 2 | 38.417 | 10.622 | 34.730 | 2 |
| 2025-05-16T19:51:00 | 56.405074 | 3.909372 | 2.0 | 10.461 | 2 | 38.409 | 10.623 | 34.721 | 2 |
| 2025-05-16T19:52:00 | 56.402858 | 3.909355 | 2.0 | 10.466 | 2 | 38.426 | 10.628 | 34.733 | 2 |
| 2025-05-16T19:53:00 | 56.400651 | 3.909405 | 2.0 | 10.471 | 2 | 38.481 | 10.632 | 34.785 | 2 |
| 2025-05-16T19:54:00 | 56.398458 | 3.909324 | 2.0 | 10.476 | 2 | 38.472 | 10.638 | 34.770 | 2 |
| 2025-05-16T19:55:00 | 56.396272 | 3.909398 | 2.0 | 10.479 | 2 | 38.471 | 10.642 | 34.765 | 2 |
| 2025-05-16T19:56:00 | 56.394086 | 3.909393 | 2.0 | 10.486 | 2 | 38.495 | 10.646 | 34.785 | 2 |
| 2025-05-16T19:57:00 | 56.391848 | 3.909405 | 2.0 | 10.488 | 2 | 38.495 | 10.653 | 34.779 | 2 |
| 2025-05-16T19:58:00 | 56.389685 | 3.909474 | 2.0 | 10.497 | 2 | 38.519 | 10.655 | 34.801 | 2 |
| 2025-05-16T19:59:00 | 56.387516 | 3.909379 | 2.0 | 10.503 | 2 | 38.531 | 10.663 | 34.805 | 2 |
| 2025-05-16T20:00:00 | 56.385331 | 3.909394 | 2.0 | 10.510 | 2 | 38.529 | 10.670 | 34.797 | 2 |
| 2025-05-16T20:01:00 | 56.383137 | 3.909391 | 2.0 | 10.514 | 2 | 38.551 | 10.677 | 34.812 | 2 |
| 2025-05-16T20:02:00 | 56.380953 | 3.909361 | 2.0 | 10.519 | 2 | 38.575 | 10.680 | 34.834 | 2 |
| 2025-05-16T20:03:00 | 56.378749 | 3.909372 | 2.0 | 10.519 | 2 | 38.575 | 10.685 | 34.829 | 2 |
| 2025-05-16T20:04:00 | 56.376571 | 3.909398 | 2.0 | 10.514 | 2 | 38.606 | 10.684 | 34.861 | 2 |
| 2025-05-16T20:05:00 | 56.374400 | 3.909377 | 2.0 | 10.509 | 2 | 38.576 | 10.679 | 34.835 | 2 |
| 2025-05-16T20:06:00 | 56.372242 | 3.909348 | 2.0 | 10.508 | 2 | 38.569 | 10.675 | 34.832 | 2 |
| 2025-05-16T20:07:00 | 56.370061 | 3.909413 | 2.0 | 10.508 | 2 | 38.577 | 10.674 | 34.841 | 2 |
| 2025-05-16T20:08:00 | 56.367872 | 3.909506 | 2.0 | 10.506 | 2 | 38.592 | 10.673 | 34.857 | 2 |
| 2025-05-16T20:09:00 | 56.365708 | 3.909477 | 2.0 | 10.503 | 2 | 38.617 | 10.672 | 34.883 | 2 |
| 2025-05-16T20:10:00 | 56.363545 | 3.909436 | 2.0 | 10.504 | 2 | 38.626 | 10.669 | 34.895 | 2 |
| 2025-05-16T20:11:00 | 56.361355 | 3.909384 | 2.0 | 10.506 | 2 | 38.628 | 10.670 | 34.896 | 2 |
| 2025-05-16T20:12:00 | 56.359134 | 3.909424 | 2.0 | 10.510 | 2 | 38.615 | 10.673 | 34.880 | 2 |
| 2025-05-16T20:13:00 | 56.356928 | 3.909337 | 2.0 | 10.513 | 2 | 38.654 | 10.677 | 34.916 | 2 |
| 2025-05-16T20:14:00 | 56.354735 | 3.909351 | 2.0 | 10.512 | 2 | 38.638 | 10.678 | 34.899 | 2 |
| 2025-05-16T20:15:00 | 56.352508 | 3.909475 | 2.0 | 10.519 | 2 | 38.643 | 10.680 | 34.902 | 2 |
| 2025-05-16T20:16:00 | 56.350297 | 3.909444 | 2.0 | 10.524 | 2 | 38.666 | 10.686 | 34.919 | 2 |
| 2025-05-16T20:17:00 | 56.348083 | 3.909367 | 2.0 | 10.528 | 2 | 38.668 | 10.691 | 34.917 | 2 |
| 2025-05-16T20:18:00 | 56.345869 | 3.909330 | 2.0 | 10.531 | 2 | 38.681 | 10.695 | 34.926 | 2 |
| 2025-05-16T20:19:00 | 56.343644 | 3.909416 | 2.0 | 10.531 | 2 | 38.677 | 10.697 | 34.920 | 2 |
| 2025-05-16T20:20:00 | 56.341443 | 3.909311 | 2.0 | 10.533 | 2 | 38.678 | 10.698 | 34.920 | 2 |
| 2025-05-16T20:21:00 | 56.339267 | 3.909307 | 2.0 | 10.532 | 2 | 38.683 | 10.699 | 34.924 | 2 |
| 2025-05-16T20:22:00 | 56.337074 | 3.909444 | 2.0 | 10.533 | 2 | 38.684 | 10.699 | 34.925 | 2 |
| 2025-05-16T20:23:00 | 56.334862 | 3.909433 | 2.0 | 10.536 | 2 | 38.683 | 10.699 | 34.924 | 2 |
| 2025-05-16T20:24:00 | 56.332640 | 3.909363 | 2.0 | 10.536 | 2 | 38.695 | 10.702 | 34.933 | 2 |
| 2025-05-16T20:25:00 | 56.330434 | 3.909353 | 2.0 | 10.535 | 2 | 38.693 | 10.702 | 34.931 | 2 |
| 2025-05-16T20:26:00 | 56.328209 | 3.909323 | 2.0 | 10.534 | 2 | 38.697 | 10.701 | 34.936 | 2 |
| 2025-05-16T20:27:00 | 56.325984 | 3.909368 | 2.0 | 10.535 | 2 | 38.695 | 10.700 | 34.935 | 2 |
| 2025-05-16T20:28:00 | 56.323796 | 3.909414 | 2.0 | 10.532 | 2 | 38.696 | 10.701 | 34.935 | 2 |
| 2025-05-16T20:29:00 | 56.321618 | 3.909392 | 2.0 | 10.540 | 2 | 38.692 | 10.699 | 34.933 | 2 |
| 2025-05-16T20:30:00 | 56.319418 | 3.909365 | 2.0 | 10.550 | 2 | 38.700 | 10.707 | 34.934 | 2 |
| 2025-05-16T20:31:00 | 56.317182 | 3.909392 | 2.0 | 10.548 | 2 | 38.704 | 10.715 | 34.930 | 2 |
| 2025-05-16T20:32:00 | 56.314977 | 3.909469 | 2.0 | 10.538 | 2 | 38.704 | 10.713 | 34.932 | 2 |
| 2025-05-16T20:33:00 | 56.312761 | 3.909473 | 2.0 | 10.522 | 2 | 38.693 | 10.701 | 34.932 | 2 |
| 2025-05-16T20:34:00 | 56.310554 | 3.909436 | 2.0 | 10.519 | 2 | 38.680 | 10.689 | 34.931 | 2 |
| 2025-05-16T20:35:00 | 56.308348 | 3.909407 | 2.0 | 10.515 | 2 | 38.675 | 10.685 | 34.929 | 2 |
| 2025-05-16T20:36:00 | 56.306135 | 3.909405 | 2.0 | 10.515 | 2 | 38.670 | 10.681 | 34.928 | 2 |
| 2025-05-16T20:37:00 | 56.303960 | 3.909438 | 2.0 | 10.509 | 2 | 38.667 | 10.681 | 34.925 | 2 |
| 2025-05-16T20:38:00 | 56.301773 | 3.909375 | 2.0 | 10.501 | 2 | 38.662 | 10.674 | 34.927 | 2 |
| 2025-05-16T20:39:00 | 56.299559 | 3.909343 | 2.0 | 10.497 | 2 | 38.654 | 10.667 | 34.926 | 2 |
| 2025-05-16T20:40:00 | 56.297354 | 3.909394 | 2.0 | 10.500 | 2 | 38.652 | 10.665 | 34.925 | 2 |
| 2025-05-16T20:41:00 | 56.295125 | 3.909464 | 2.0 | 10.505 | 2 | 38.654 | 10.668 | 34.925 | 2 |
| 2025-05-16T20:42:00 | 56.292899 | 3.909364 | 2.0 | 10.511 | 2 | 38.657 | 10.673 | 34.923 | 2 |
| 2025-05-16T20:43:00 | 56.290681 | 3.909372 | 2.0 | 10.512 | 2 | 38.659 | 10.677 | 34.921 | 2 |
| 2025-05-16T20:44:00 | 56.288462 | 3.909397 | 2.0 | 10.514 | 2 | 38.655 | 10.678 | 34.916 | 2 |
| 2025-05-16T20:45:00 | 56.286246 | 3.909378 | 2.0 | 10.514 | 2 | 38.660 | 10.681 | 34.918 | 2 |
| 2025-05-16T20:46:00 | 56.284188 | 3.908379 | 2.0 | 10.508 | 2 | 38.649 | 10.678 | 34.910 | 2 |
| 2025-05-16T20:47:00 | 56.282773 | 3.905720 | 2.0 | 10.517 | 2 | 38.645 | 10.676 | 34.908 | 2 |
| 2025-05-16T20:48:00 | 56.282065 | 3.902333 | 2.0 | 10.523 | 2 | 38.659 | 10.685 | 34.913 | 2 |
| 2025-05-16T20:49:00 | 56.281586 | 3.898788 | 2.0 | 10.524 | 2 | 38.667 | 10.689 | 34.918 | 2 |
| 2025-05-16T20:50:00 | 56.280834 | 3.895330 | 2.0 | 10.530 | 2 | 38.669 | 10.690 | 34.919 | 2 |
| 2025-05-16T20:51:00 | 56.280192 | 3.891704 | 2.0 | 10.541 | 2 | 38.676 | 10.698 | 34.918 | 2 |
| 2025-05-16T20:52:00 | 56.279744 | 3.887972 | 2.0 | 10.545 | 2 | 38.686 | 10.708 | 34.919 | 2 |
| 2025-05-16T20:53:00 | 56.279291 | 3.884286 | 2.0 | 10.528 | 2 | 38.687 | 10.708 | 34.920 | 2 |
| 2025-05-16T20:54:00 | 56.278793 | 3.880594 | 2.0 | 10.522 | 2 | 38.675 | 10.693 | 34.922 | 2 |
| 2025-05-16T20:55:00 | 56.278274 | 3.876888 | 2.0 | 10.512 | 2 | 38.666 | 10.685 | 34.920 | 2 |
| 2025-05-16T20:56:00 | 56.277769 | 3.873170 | 2.0 | 10.518 | 2 | 38.659 | 10.681 | 34.917 | 2 |
| 2025-05-16T20:57:00 | 56.277310 | 3.869445 | 2.0 | 10.524 | 2 | 38.663 | 10.685 | 34.917 | 2 |
| 2025-05-16T20:58:00 | 56.276835 | 3.865712 | 2.0 | 10.520 | 2 | 38.665 | 10.688 | 34.916 | 2 |
| 2025-05-16T20:59:00 | 56.276351 | 3.861963 | 2.0 | 10.517 | 2 | 38.662 | 10.687 | 34.914 | 2 |
| 2025-05-16T21:00:00 | 56.275847 | 3.858229 | 2.0 | 10.522 | 2 | 38.657 | 10.682 | 34.914 | 2 |
| 2025-05-16T21:01:00 | 56.275383 | 3.854484 | 2.0 | 10.537 | 2 | 38.662 | 10.690 | 34.912 | 2 |
| 2025-05-16T21:02:00 | 56.274917 | 3.850747 | 2.0 | 10.549 | 2 | 38.674 | 10.704 | 34.910 | 2 |
| 2025-05-16T21:03:00 | 56.274426 | 3.847040 | 2.0 | 10.554 | 2 | 38.660 | 10.715 | 34.886 | 2 |
| 2025-05-16T21:04:00 | 56.273944 | 3.843298 | 2.0 | 10.557 | 2 | 38.689 | 10.719 | 34.911 | 2 |
| 2025-05-16T21:05:00 | 56.273484 | 3.839584 | 2.0 | 10.554 | 2 | 38.692 | 10.723 | 34.910 | 2 |
| 2025-05-16T21:06:00 | 56.273024 | 3.835886 | 2.0 | 10.558 | 2 | 38.688 | 10.720 | 34.909 | 2 |
| 2025-05-16T21:07:00 | 56.272589 | 3.832171 | 2.0 | 10.559 | 2 | 38.690 | 10.722 | 34.909 | 2 |
| 2025-05-16T21:08:00 | 56.272123 | 3.828479 | 2.0 | 10.566 | 2 | 38.686 | 10.726 | 34.901 | 2 |
| 2025-05-16T21:09:00 | 56.271642 | 3.824775 | 2.0 | 10.566 | 2 | 38.692 | 10.730 | 34.904 | 2 |
| 2025-05-16T21:10:00 | 56.271174 | 3.821050 | 2.0 | 10.562 | 2 | 38.698 | 10.731 | 34.909 | 2 |
| 2025-05-16T21:11:00 | 56.270671 | 3.817288 | 2.0 | 10.569 | 2 | 38.698 | 10.729 | 34.910 | 2 |
| 2025-05-16T21:15:00 | 56.268713 | 3.802263 | 2.0 | 10.581 | 2 | 38.713 | 10.744 | 34.911 | 2 |
| 2025-05-16T21:16:00 | 56.268274 | 3.798482 | 2.0 | 10.580 | 2 | 38.715 | 10.746 | 34.911 | 2 |
| 2025-05-16T21:17:00 | 56.267792 | 3.794711 | 2.0 | 10.573 | 2 | 38.378 | 10.745 | 34.574 | 2 |
| 2025-05-16T21:18:00 | 56.267274 | 3.790975 | 2.0 | 10.563 | 2 | 38.519 | 10.736 | 34.724 | 2 |
| 2025-05-16T21:22:00 | 56.265414 | 3.776070 | 2.0 | 10.549 | 2 | 38.452 | 10.719 | 34.673 | 2 |
| 2025-05-16T21:27:00 | 56.267624 | 3.760599 | 2.0 | 10.512 | 2 | 38.391 | 10.692 | 34.637 | 2 |
| 2025-05-16T21:33:00 | 56.277050 | 3.759285 | 2.0 | 10.499 | 2 | 38.613 | 10.665 | 34.886 | 2 |
| 2025-05-16T21:34:00 | 56.279219 | 3.759373 | 2.0 | 10.497 | 2 | 38.641 | 10.666 | 34.913 | 2 |
| 2025-05-16T21:35:00 | 56.281532 | 3.759385 | 2.0 | 10.488 | 2 | 38.643 | 10.662 | 34.919 | 2 |
| 2025-05-16T21:36:00 | 56.283748 | 3.759395 | 2.0 | 10.473 | 2 | 38.639 | 10.654 | 34.923 | 2 |
| 2025-05-16T21:37:00 | 56.285899 | 3.759325 | 2.0 | 10.467 | 2 | 38.628 | 10.642 | 34.923 | 2 |
| 2025-05-16T21:38:00 | 56.288061 | 3.759313 | 2.0 | 10.455 | 2 | 38.623 | 10.632 | 34.928 | 2 |
| 2025-05-16T21:39:00 | 56.290320 | 3.759267 | 2.0 | 10.452 | 2 | 38.617 | 10.623 | 34.930 | 2 |
| 2025-05-16T21:40:00 | 56.292643 | 3.759277 | 2.0 | 10.446 | 2 | 38.614 | 10.619 | 34.931 | 2 |
| 2025-05-16T21:41:00 | 56.294946 | 3.759361 | 2.0 | 10.446 | 2 | 38.611 | 10.615 | 34.932 | 2 |
| 2025-05-16T21:42:00 | 56.297337 | 3.759317 | 2.0 | 10.445 | 2 | 38.611 | 10.614 | 34.933 | 2 |
| 2025-05-16T21:44:00 | 56.301875 | 3.759338 | 2.0 | 10.440 | 2 | 38.598 | 10.609 | 34.925 | 2 |
| 2025-05-16T21:45:00 | 56.304204 | 3.759248 | 2.0 | 10.440 | 2 | 38.602 | 10.609 | 34.929 | 2 |
| 2025-05-16T21:46:00 | 56.306411 | 3.759352 | 2.0 | 10.435 | 2 | 38.602 | 10.607 | 34.931 | 2 |
| 2025-05-16T21:47:00 | 56.308633 | 3.759320 | 2.0 | 10.432 | 2 | 38.600 | 10.603 | 34.932 | 2 |
| 2025-05-16T21:48:00 | 56.310795 | 3.759348 | 2.0 | 10.423 | 2 | 38.598 | 10.598 | 34.935 | 2 |
| 2025-05-16T21:49:00 | 56.313071 | 3.759295 | 2.0 | 10.414 | 2 | 38.590 | 10.590 | 34.935 | 2 |
| 2025-05-16T21:50:00 | 56.315419 | 3.759342 | 2.0 | 10.404 | 2 | 38.582 | 10.581 | 34.935 | 2 |
| 2025-05-16T21:51:00 | 56.317706 | 3.759346 | 2.0 | 10.402 | 2 | 38.559 | 10.574 | 34.919 | 2 |
| 2025-05-16T21:52:00 | 56.319944 | 3.759259 | 2.0 | 10.400 | 2 | 38.556 | 10.570 | 34.920 | 2 |
| 2025-05-16T21:53:00 | 56.322254 | 3.759287 | 2.0 | 10.397 | 2 | 38.566 | 10.567 | 34.933 | 2 |
| 2025-05-16T21:54:00 | 56.324678 | 3.759275 | 2.0 | 10.391 | 2 | 38.559 | 10.564 | 34.928 | 2 |
| 2025-05-16T21:55:00 | 56.327046 | 3.759311 | 2.0 | 10.385 | 2 | 38.548 | 10.559 | 34.922 | 2 |
| 2025-05-16T21:56:00 | 56.329405 | 3.759270 | 2.0 | 10.388 | 2 | 38.542 | 10.555 | 34.920 | 2 |
| 2025-05-16T21:57:00 | 56.331722 | 3.759240 | 2.0 | 10.396 | 2 | 38.559 | 10.560 | 34.932 | 2 |
| 2025-05-16T21:58:00 | 56.333921 | 3.759297 | 2.0 | 10.404 | 2 | 38.567 | 10.565 | 34.936 | 2 |
| 2025-05-16T21:59:00 | 56.336042 | 3.759356 | 2.0 | 10.408 | 2 | 38.565 | 10.572 | 34.927 | 2 |
| 2025-05-16T22:00:00 | 56.338153 | 3.759263 | 2.0 | 10.411 | 2 | 38.569 | 10.576 | 34.927 | 2 |
| 2025-05-16T22:01:00 | 56.340253 | 3.759210 | 2.0 | 10.415 | 2 | 38.574 | 10.580 | 34.928 | 2 |
| 2025-05-16T22:02:00 | 56.342385 | 3.759168 | 2.0 | 10.417 | 2 | 38.580 | 10.582 | 34.932 | 2 |
| 2025-05-16T22:03:00 | 56.344608 | 3.759193 | 2.0 | 10.415 | 2 | 38.581 | 10.586 | 34.930 | 2 |
| 2025-05-16T22:04:00 | 56.346624 | 3.759253 | 2.0 | 10.413 | 2 | 38.572 | 10.582 | 34.924 | 2 |
| 2025-05-16T22:05:00 | 56.348675 | 3.759328 | 2.0 | 10.410 | 2 | 38.572 | 10.579 | 34.927 | 2 |
| 2025-05-16T22:06:00 | 56.350811 | 3.759285 | 2.0 | 10.409 | 2 | 38.579 | 10.577 | 34.936 | 2 |
| 2025-05-16T22:07:00 | 56.353065 | 3.759292 | 2.0 | 10.406 | 2 | 38.583 | 10.577 | 34.940 | 2 |
| 2025-05-16T22:08:00 | 56.355283 | 3.759293 | 2.0 | 10.408 | 2 | 38.584 | 10.574 | 34.944 | 2 |
| 2025-05-16T22:09:00 | 56.357383 | 3.759265 | 2.0 | 10.418 | 2 | 38.587 | 10.577 | 34.944 | 2 |
| 2025-05-16T22:10:00 | 56.359356 | 3.759208 | 2.0 | 10.424 | 2 | 38.567 | 10.588 | 34.913 | 2 |
| 2025-05-16T22:12:00 | 56.363317 | 3.759249 | 2.0 | 10.432 | 2 | 38.593 | 10.609 | 34.920 | 2 |
| 2025-05-16T22:13:00 | 56.365385 | 3.759280 | 2.0 | 10.427 | 2 | 38.595 | 10.601 | 34.929 | 2 |
| 2025-05-16T22:14:00 | 56.367475 | 3.759340 | 2.0 | 10.426 | 2 | 38.593 | 10.595 | 34.933 | 2 |
| 2025-05-16T22:15:00 | 56.369597 | 3.759281 | 2.0 | 10.420 | 2 | 38.596 | 10.592 | 34.939 | 2 |
| 2025-05-16T22:16:00 | 56.371765 | 3.759240 | 2.0 | 10.419 | 2 | 38.592 | 10.587 | 34.940 | 2 |
| 2025-05-16T22:17:00 | 56.373900 | 3.759272 | 2.0 | 10.412 | 2 | 38.593 | 10.584 | 34.944 | 2 |
| 2025-05-16T22:18:00 | 56.376089 | 3.759268 | 2.0 | 10.407 | 2 | 38.583 | 10.579 | 34.938 | 2 |
| 2025-05-16T22:19:00 | 56.378318 | 3.759257 | 2.0 | 10.401 | 2 | 38.577 | 10.573 | 34.938 | 2 |
| 2025-05-16T22:20:00 | 56.380564 | 3.759348 | 2.0 | 10.394 | 2 | 38.578 | 10.567 | 34.945 | 2 |
| 2025-05-16T22:21:00 | 56.382879 | 3.759314 | 2.0 | 10.382 | 2 | 38.572 | 10.558 | 34.947 | 2 |
| 2025-05-16T22:22:00 | 56.385206 | 3.759296 | 2.0 | 10.386 | 2 | 38.565 | 10.550 | 34.948 | 2 |
| 2025-05-16T22:23:00 | 56.387564 | 3.759316 | 2.0 | 10.388 | 2 | 38.568 | 10.552 | 34.949 | 2 |
| 2025-05-16T22:24:00 | 56.389841 | 3.759292 | 2.0 | 10.394 | 2 | 38.538 | 10.560 | 34.911 | 2 |
| 2025-05-16T22:26:00 | 56.394122 | 3.759279 | 2.0 | 10.402 | 2 | 38.565 | 10.567 | 34.932 | 2 |
| 2025-05-16T22:27:00 | 56.396255 | 3.759217 | 2.0 | 10.402 | 2 | 38.574 | 10.569 | 34.939 | 2 |
| 2025-05-16T22:28:00 | 56.398449 | 3.759226 | 2.0 | 10.405 | 2 | 38.576 | 10.570 | 34.940 | 2 |
| 2025-05-16T22:29:00 | 56.400620 | 3.759321 | 2.0 | 10.407 | 2 | 38.582 | 10.572 | 34.944 | 2 |
| 2025-05-16T22:30:00 | 56.402783 | 3.759300 | 2.0 | 10.409 | 2 | 38.585 | 10.573 | 34.946 | 2 |
| 2025-05-16T22:31:00 | 56.405020 | 3.759267 | 2.0 | 10.409 | 2 | 38.589 | 10.575 | 34.948 | 2 |
| 2025-05-16T22:32:00 | 56.407338 | 3.759264 | 2.0 | 10.412 | 2 | 38.588 | 10.577 | 34.945 | 2 |
| 2025-05-16T22:33:00 | 56.409460 | 3.759254 | 2.0 | 10.414 | 2 | 38.328 | 10.588 | 34.672 | 2 |
| 2025-05-16T22:34:00 | 56.411482 | 3.759292 | 2.0 | 10.413 | 2 | 38.576 | 10.580 | 34.930 | 2 |
| 2025-05-16T22:35:00 | 56.413668 | 3.759266 | 2.0 | 10.409 | 2 | 38.590 | 10.579 | 34.945 | 2 |
| 2025-05-16T22:36:00 | 56.415911 | 3.759305 | 2.0 | 10.399 | 2 | 38.588 | 10.573 | 34.949 | 2 |
| 2025-05-16T22:37:00 | 56.418102 | 3.759312 | 2.0 | 10.395 | 2 | 38.582 | 10.567 | 34.949 | 2 |
| 2025-05-16T22:38:00 | 56.420325 | 3.759253 | 2.0 | 10.392 | 2 | 38.579 | 10.563 | 34.950 | 2 |
| 2025-05-16T22:39:00 | 56.422486 | 3.759233 | 2.0 | 10.392 | 2 | 38.575 | 10.561 | 34.947 | 2 |
| 2025-05-16T22:40:00 | 56.424602 | 3.759264 | 2.0 | 10.392 | 2 | 38.568 | 10.559 | 34.942 | 2 |
| 2025-05-16T22:41:00 | 56.426664 | 3.759213 | 2.0 | 10.393 | 2 | 38.566 | 10.559 | 34.940 | 2 |
| 2025-05-16T22:42:00 | 56.428775 | 3.759267 | 2.0 | 10.393 | 2 | 38.571 | 10.559 | 34.945 | 2 |
| 2025-05-16T22:43:00 | 56.430928 | 3.759254 | 2.0 | 10.392 | 2 | 38.577 | 10.559 | 34.951 | 2 |
| 2025-05-16T22:44:00 | 56.433087 | 3.759232 | 2.0 | 10.390 | 2 | 38.568 | 10.558 | 34.943 | 2 |
| 2025-05-16T22:45:00 | 56.435192 | 3.759244 | 2.0 | 10.389 | 2 | 38.570 | 10.557 | 34.946 | 2 |
| 2025-05-16T22:46:00 | 56.437377 | 3.759216 | 2.0 | 10.386 | 2 | 38.568 | 10.556 | 34.945 | 2 |
| 2025-05-16T22:47:00 | 56.439495 | 3.759237 | 2.0 | 10.383 | 2 | 38.567 | 10.552 | 34.948 | 2 |
| 2025-05-16T22:48:00 | 56.441545 | 3.759273 | 2.0 | 10.379 | 2 | 38.567 | 10.550 | 34.950 | 2 |
| 2025-05-16T22:49:00 | 56.443586 | 3.759276 | 2.0 | 10.377 | 2 | 38.559 | 10.547 | 34.945 | 2 |
| 2025-05-16T22:50:00 | 56.445783 | 3.759213 | 2.0 | 10.377 | 2 | 38.567 | 10.544 | 34.956 | 2 |
| 2025-05-16T22:51:00 | 56.447992 | 3.759216 | 2.0 | 10.382 | 2 | 38.570 | 10.545 | 34.958 | 2 |
| 2025-05-16T22:52:00 | 56.450287 | 3.759236 | 2.0 | 10.383 | 2 | 38.575 | 10.550 | 34.958 | 2 |
| 2025-05-16T22:55:00 | 56.456831 | 3.759256 | 2.0 | 10.394 | 2 | 38.481 | 10.555 | 34.858 | 2 |
| 2025-05-16T23:00:00 | 56.467401 | 3.759236 | 2.0 | 10.424 | 2 | 38.526 | 10.591 | 34.869 | 2 |
| 2025-05-16T23:01:00 | 56.469689 | 3.759190 | 2.0 | 10.434 | 2 | 38.600 | 10.593 | 34.942 | 2 |
| 2025-05-16T23:02:00 | 56.471977 | 3.759225 | 2.0 | 10.440 | 2 | 38.615 | 10.601 | 34.949 | 2 |
| 2025-05-16T23:04:00 | 56.476049 | 3.759412 | 2.0 | 10.433 | 2 | 38.366 | 10.604 | 34.695 | 2 |
| 2025-05-16T23:05:00 | 56.478016 | 3.759366 | 2.0 | 10.427 | 2 | 38.614 | 10.599 | 34.950 | 2 |
| 2025-05-16T23:06:00 | 56.479922 | 3.759273 | 2.0 | 10.424 | 2 | 38.605 | 10.594 | 34.946 | 2 |
| 2025-05-16T23:07:00 | 56.481929 | 3.759222 | 2.0 | 10.423 | 2 | 38.615 | 10.589 | 34.961 | 2 |
| 2025-05-16T23:08:00 | 56.484024 | 3.759328 | 2.0 | 10.425 | 2 | 38.614 | 10.589 | 34.960 | 2 |
| 2025-05-16T23:09:00 | 56.486165 | 3.759330 | 2.0 | 10.425 | 2 | 38.617 | 10.591 | 34.961 | 2 |
| 2025-05-16T23:10:00 | 56.488421 | 3.759312 | 2.0 | 10.418 | 2 | 38.616 | 10.590 | 34.961 | 2 |
| 2025-05-16T23:11:00 | 56.490706 | 3.759236 | 2.0 | 10.414 | 2 | 38.611 | 10.584 | 34.962 | 2 |
| 2025-05-16T23:12:00 | 56.492937 | 3.759283 | 2.0 | 10.413 | 2 | 38.607 | 10.579 | 34.962 | 2 |
| 2025-05-16T23:13:00 | 56.495117 | 3.759379 | 2.0 | 10.408 | 2 | 38.606 | 10.578 | 34.962 | 2 |
| 2025-05-16T23:14:00 | 56.497338 | 3.759288 | 2.0 | 10.393 | 2 | 38.601 | 10.571 | 34.964 | 2 |
| 2025-05-16T23:15:00 | 56.499570 | 3.759223 | 2.0 | 10.389 | 2 | 38.589 | 10.559 | 34.963 | 2 |
| 2025-05-16T23:16:00 | 56.501825 | 3.759192 | 2.0 | 10.377 | 2 | 38.583 | 10.551 | 34.965 | 2 |
| 2025-05-16T23:17:00 | 56.504043 | 3.759256 | 2.0 | 10.382 | 2 | 38.576 | 10.545 | 34.964 | 2 |
| 2025-05-16T23:18:00 | 56.506240 | 3.759275 | 2.0 | 10.395 | 2 | 38.582 | 10.549 | 34.966 | 2 |
| 2025-05-16T23:19:00 | 56.508505 | 3.759225 | 2.0 | 10.404 | 2 | 38.594 | 10.562 | 34.966 | 2 |
| 2025-05-16T23:20:00 | 56.510580 | 3.759288 | 2.0 | 10.412 | 2 | 38.605 | 10.573 | 34.966 | 2 |
| 2025-05-16T23:21:00 | 56.512769 | 3.759243 | 2.0 | 10.417 | 2 | 38.614 | 10.578 | 34.971 | 2 |
| 2025-05-16T23:22:00 | 56.514938 | 3.759238 | 2.0 | 10.428 | 2 | 38.625 | 10.585 | 34.975 | 2 |
| 2025-05-16T23:23:00 | 56.517101 | 3.759256 | 2.0 | 10.442 | 2 | 38.637 | 10.595 | 34.977 | 2 |
| 2025-05-16T23:24:00 | 56.519210 | 3.759260 | 2.0 | 10.451 | 2 | 38.653 | 10.606 | 34.983 | 2 |
| 2025-05-16T23:25:00 | 56.521375 | 3.759198 | 2.0 | 10.462 | 2 | 38.666 | 10.617 | 34.986 | 2 |
| 2025-05-16T23:26:00 | 56.523662 | 3.759162 | 2.0 | 10.460 | 2 | 38.678 | 10.628 | 34.987 | 2 |
| 2025-05-16T23:27:00 | 56.525919 | 3.759243 | 2.0 | 10.442 | 2 | 38.669 | 10.622 | 34.984 | 2 |
| 2025-05-16T23:28:00 | 56.528170 | 3.759282 | 2.0 | 10.429 | 2 | 38.660 | 10.606 | 34.990 | 2 |
| 2025-05-16T23:29:00 | 56.530339 | 3.759294 | 2.0 | 10.426 | 2 | 38.652 | 10.594 | 34.994 | 2 |
| 2025-05-16T23:30:00 | 56.532494 | 3.759275 | 2.0 | 10.423 | 2 | 38.652 | 10.591 | 34.996 | 2 |
| 2025-05-16T23:31:00 | 56.534713 | 3.759269 | 2.0 | 10.418 | 2 | 38.651 | 10.589 | 34.997 | 2 |
| 2025-05-16T23:32:00 | 56.536966 | 3.759219 | 2.0 | 10.411 | 2 | 38.648 | 10.583 | 35.000 | 2 |
| 2025-05-16T23:33:00 | 56.539216 | 3.759215 | 2.0 | 10.402 | 2 | 38.635 | 10.576 | 34.994 | 2 |
| 2025-05-16T23:34:00 | 56.541465 | 3.759303 | 2.0 | 10.389 | 2 | 38.632 | 10.566 | 35.000 | 2 |
| 2025-05-16T23:35:00 | 56.543709 | 3.759262 | 2.0 | 10.382 | 2 | 38.621 | 10.554 | 35.001 | 2 |
| 2025-05-16T23:36:00 | 56.545924 | 3.759206 | 2.0 | 10.381 | 2 | 38.613 | 10.548 | 34.998 | 2 |
| 2025-05-16T23:37:00 | 56.548122 | 3.759266 | 2.0 | 10.377 | 2 | 38.613 | 10.546 | 35.000 | 2 |
| 2025-05-16T23:38:00 | 56.550373 | 3.759244 | 2.0 | 10.376 | 2 | 38.612 | 10.544 | 35.001 | 2 |
| 2025-05-16T23:39:00 | 56.552568 | 3.759185 | 2.0 | 10.375 | 2 | 38.611 | 10.542 | 35.002 | 2 |
| 2025-05-16T23:40:00 | 56.554811 | 3.759278 | 2.0 | 10.372 | 2 | 38.609 | 10.540 | 35.002 | 2 |
| 2025-05-16T23:41:00 | 56.557018 | 3.759286 | 2.0 | 10.370 | 2 | 38.607 | 10.538 | 35.002 | 2 |
| 2025-05-16T23:42:00 | 56.559214 | 3.759208 | 2.0 | 10.366 | 2 | 38.603 | 10.535 | 35.001 | 2 |
| 2025-05-16T23:43:00 | 56.561371 | 3.759245 | 2.0 | 10.365 | 2 | 38.602 | 10.532 | 35.003 | 2 |
| 2025-05-16T23:44:00 | 56.563564 | 3.759240 | 2.0 | 10.365 | 2 | 38.595 | 10.531 | 34.996 | 2 |
| 2025-05-16T23:45:00 | 56.565733 | 3.759247 | 2.0 | 10.366 | 2 | 38.603 | 10.532 | 35.004 | 2 |
| 2025-05-16T23:46:00 | 56.567871 | 3.759228 | 2.0 | 10.372 | 2 | 38.605 | 10.533 | 35.005 | 2 |
| 2025-05-16T23:47:00 | 56.570022 | 3.759199 | 2.0 | 10.377 | 2 | 38.606 | 10.539 | 35.000 | 2 |
| 2025-05-16T23:48:00 | 56.572212 | 3.759236 | 2.0 | 10.387 | 2 | 38.613 | 10.545 | 35.001 | 2 |
| 2025-05-16T23:49:00 | 56.574453 | 3.759224 | 2.0 | 10.396 | 2 | 38.621 | 10.553 | 35.002 | 2 |
| 2025-05-16T23:50:00 | 56.576711 | 3.759181 | 2.0 | 10.402 | 2 | 38.627 | 10.562 | 34.999 | 2 |
| 2025-05-16T23:51:00 | 56.578900 | 3.759202 | 2.0 | 10.405 | 2 | 38.634 | 10.567 | 35.001 | 2 |
| 2025-05-16T23:52:00 | 56.581085 | 3.759225 | 2.0 | 10.410 | 2 | 38.639 | 10.572 | 35.002 | 2 |
| 2025-05-16T23:53:00 | 56.583270 | 3.759214 | 2.0 | 10.417 | 2 | 38.643 | 10.577 | 35.001 | 2 |
| 2025-05-16T23:54:00 | 56.585374 | 3.759305 | 2.0 | 10.420 | 2 | 38.640 | 10.583 | 34.992 | 2 |
| 2025-05-16T23:55:00 | 56.587496 | 3.759231 | 2.0 | 10.412 | 2 | 38.655 | 10.583 | 35.007 | 2 |
| 2025-05-16T23:56:00 | 56.589645 | 3.759202 | 2.0 | 10.401 | 2 | 38.650 | 10.576 | 35.009 | 2 |
| 2025-05-16T23:57:00 | 56.591766 | 3.759187 | 2.0 | 10.393 | 2 | 38.641 | 10.565 | 35.010 | 2 |
| 2025-05-16T23:58:00 | 56.593873 | 3.759146 | 2.0 | 10.385 | 2 | 38.632 | 10.557 | 35.009 | 2 |
| 2025-05-16T23:59:00 | 56.596072 | 3.759184 | 2.0 | 10.373 | 2 | 38.623 | 10.549 | 35.007 | 2 |
| 2025-05-17T00:00:00 | 56.598328 | 3.759195 | 2.0 | 10.357 | 2 | 38.610 | 10.536 | 35.007 | 2 |
| 2025-05-17T00:01:00 | 56.600535 | 3.759218 | 2.0 | 10.345 | 2 | 38.594 | 10.522 | 35.004 | 2 |
| 2025-05-17T00:02:00 | 56.602788 | 3.759195 | 2.0 | 10.331 | 2 | 38.583 | 10.509 | 35.005 | 2 |
| 2025-05-17T00:03:00 | 56.605028 | 3.759222 | 2.0 | 10.320 | 2 | 38.572 | 10.497 | 35.006 | 2 |
| 2025-05-17T00:04:00 | 56.607212 | 3.759232 | 2.0 | 10.315 | 2 | 38.560 | 10.486 | 35.004 | 2 |
| 2025-05-17T00:05:00 | 56.609471 | 3.759150 | 2.0 | 10.314 | 2 | 38.550 | 10.482 | 34.998 | 2 |
| 2025-05-17T00:06:00 | 56.611819 | 3.759154 | 2.0 | 10.316 | 2 | 38.551 | 10.481 | 35.000 | 2 |
| 2025-05-17T00:07:00 | 56.614147 | 3.759224 | 2.0 | 10.328 | 2 | 38.557 | 10.484 | 35.003 | 2 |
| 2025-05-17T00:08:00 | 56.616401 | 3.759251 | 2.0 | 10.330 | 2 | 38.468 | 10.495 | 34.903 | 2 |
| 2025-05-17T00:09:00 | 56.618594 | 3.759187 | 2.0 | 10.330 | 2 | 38.486 | 10.498 | 34.918 | 2 |
| 2025-05-17T00:10:00 | 56.620792 | 3.759191 | 2.0 | 10.327 | 2 | 38.570 | 10.495 | 35.006 | 2 |
| 2025-05-17T00:11:00 | 56.622894 | 3.759269 | 2.0 | 10.327 | 2 | 38.572 | 10.493 | 35.010 | 2 |
| 2025-05-17T00:12:00 | 56.625003 | 3.759244 | 2.0 | 10.329 | 2 | 38.571 | 10.494 | 35.008 | 2 |
| 2025-05-17T00:13:00 | 56.627103 | 3.759249 | 2.0 | 10.334 | 2 | 38.571 | 10.495 | 35.007 | 2 |
| 2025-05-17T00:14:00 | 56.629203 | 3.759199 | 2.0 | 10.344 | 2 | 38.442 | 10.505 | 34.867 | 2 |
| 2025-05-17T00:15:00 | 56.631296 | 3.759217 | 2.0 | 10.346 | 2 | 38.359 | 10.510 | 34.778 | 2 |
| 2025-05-17T00:16:00 | 56.633467 | 3.759184 | 2.0 | 10.347 | 2 | 38.556 | 10.511 | 34.976 | 2 |
| 2025-05-17T00:17:00 | 56.635712 | 3.759162 | 2.0 | 10.349 | 2 | 38.579 | 10.512 | 34.999 | 2 |
| 2025-05-17T00:18:00 | 56.638024 | 3.759139 | 2.0 | 10.352 | 2 | 38.562 | 10.516 | 34.978 | 2 |
| 2025-05-17T00:19:00 | 56.640302 | 3.759151 | 2.0 | 10.350 | 2 | 38.584 | 10.517 | 34.999 | 2 |
| 2025-05-17T00:20:00 | 56.642572 | 3.759185 | 2.0 | 10.349 | 2 | 38.585 | 10.515 | 35.002 | 2 |
| 2025-05-17T00:21:00 | 56.644854 | 3.759160 | 2.0 | 10.351 | 2 | 38.585 | 10.514 | 35.003 | 2 |
| 2025-05-17T00:22:00 | 56.647154 | 3.759156 | 2.0 | 10.343 | 2 | 38.584 | 10.514 | 35.002 | 2 |
| 2025-05-17T00:23:00 | 56.649465 | 3.759149 | 2.0 | 10.329 | 2 | 38.578 | 10.506 | 35.003 | 2 |
| 2025-05-17T00:24:00 | 56.651775 | 3.759130 | 2.0 | 10.324 | 2 | 38.565 | 10.495 | 35.001 | 2 |
| 2025-05-17T00:25:00 | 56.654050 | 3.759158 | 2.0 | 10.318 | 2 | 38.560 | 10.489 | 35.001 | 2 |
| 2025-05-17T00:26:00 | 56.656316 | 3.759191 | 2.0 | 10.316 | 2 | 38.555 | 10.483 | 35.002 | 2 |
| 2025-05-17T00:27:00 | 56.658569 | 3.759203 | 2.0 | 10.313 | 2 | 38.553 | 10.481 | 35.002 | 2 |
| 2025-05-17T00:28:00 | 56.660846 | 3.759163 | 2.0 | 10.307 | 2 | 38.550 | 10.479 | 35.001 | 2 |
| 2025-05-17T00:29:00 | 56.663083 | 3.759185 | 2.0 | 10.304 | 2 | 38.544 | 10.472 | 35.002 | 2 |
| 2025-05-17T00:30:00 | 56.665254 | 3.759232 | 2.0 | 10.304 | 2 | 38.541 | 10.470 | 35.001 | 2 |
| 2025-05-17T00:31:00 | 56.667481 | 3.759135 | 2.0 | 10.298 | 2 | 38.541 | 10.469 | 35.001 | 2 |
| 2025-05-17T00:32:00 | 56.669754 | 3.759145 | 2.0 | 10.292 | 2 | 38.535 | 10.462 | 35.002 | 2 |
| 2025-05-17T00:33:00 | 56.672032 | 3.759179 | 2.0 | 10.291 | 2 | 38.530 | 10.459 | 35.000 | 2 |
| 2025-05-17T00:34:00 | 56.674228 | 3.759187 | 2.0 | 10.286 | 2 | 38.527 | 10.455 | 35.001 | 2 |
| 2025-05-17T00:35:00 | 56.676440 | 3.759197 | 2.0 | 10.284 | 2 | 38.524 | 10.451 | 35.002 | 2 |
| 2025-05-17T00:36:00 | 56.678718 | 3.759200 | 2.0 | 10.285 | 2 | 38.523 | 10.450 | 35.002 | 2 |
| 2025-05-17T00:37:00 | 56.681010 | 3.759213 | 2.0 | 10.286 | 2 | 38.525 | 10.451 | 35.003 | 2 |
| 2025-05-17T00:38:00 | 56.683230 | 3.759209 | 2.0 | 10.288 | 2 | 38.526 | 10.451 | 35.004 | 2 |
| 2025-05-17T00:39:00 | 56.685437 | 3.759231 | 2.0 | 10.288 | 2 | 38.511 | 10.453 | 34.986 | 2 |
| 2025-05-17T00:40:00 | 56.687686 | 3.759200 | 2.0 | 10.287 | 2 | 38.526 | 10.454 | 35.001 | 2 |
| 2025-05-17T00:41:00 | 56.689889 | 3.759197 | 2.0 | 10.285 | 2 | 38.375 | 10.456 | 34.846 | 2 |
| 2025-05-17T00:43:00 | 56.693898 | 3.759224 | 2.0 | 10.281 | 2 | 38.483 | 10.446 | 34.965 | 2 |
| 2025-05-17T00:44:00 | 56.696100 | 3.759220 | 2.0 | 10.274 | 2 | 38.519 | 10.446 | 35.001 | 2 |
| 2025-05-17T00:45:00 | 56.698405 | 3.759152 | 2.0 | 10.261 | 2 | 38.513 | 10.438 | 35.003 | 2 |
| 2025-05-17T00:46:00 | 56.700722 | 3.759173 | 2.0 | 10.247 | 2 | 38.506 | 10.426 | 35.007 | 2 |
| 2025-05-17T00:47:00 | 56.703018 | 3.759212 | 2.0 | 10.239 | 2 | 38.490 | 10.414 | 35.003 | 2 |
| 2025-05-17T00:48:00 | 56.705341 | 3.759172 | 2.0 | 10.238 | 2 | 38.482 | 10.407 | 35.001 | 2 |
| 2025-05-17T00:49:00 | 56.707614 | 3.759225 | 2.0 | 10.241 | 2 | 38.481 | 10.406 | 35.001 | 2 |
| 2025-05-17T00:50:00 | 56.709878 | 3.759169 | 2.0 | 10.258 | 2 | 38.491 | 10.413 | 35.005 | 2 |
| 2025-05-17T00:51:00 | 56.712221 | 3.759119 | 2.0 | 10.275 | 2 | 38.502 | 10.427 | 35.002 | 2 |
| 2025-05-17T00:52:00 | 56.714509 | 3.759168 | 2.0 | 10.287 | 2 | 38.513 | 10.444 | 34.997 | 2 |
| 2025-05-17T00:53:00 | 56.716775 | 3.759217 | 2.0 | 10.291 | 2 | 38.526 | 10.453 | 35.002 | 2 |
| 2025-05-17T00:54:00 | 56.719105 | 3.759236 | 2.0 | 10.298 | 2 | 38.529 | 10.458 | 35.000 | 2 |
| 2025-05-17T00:55:00 | 56.721421 | 3.759187 | 2.0 | 10.304 | 2 | 38.534 | 10.464 | 34.999 | 2 |
| 2025-05-17T00:56:00 | 56.723686 | 3.759175 | 2.0 | 10.309 | 2 | 38.536 | 10.471 | 34.994 | 2 |
| 2025-05-17T00:57:00 | 56.725971 | 3.759235 | 2.0 | 10.308 | 2 | 38.543 | 10.475 | 34.998 | 2 |
| 2025-05-17T00:58:00 | 56.728195 | 3.759190 | 2.0 | 10.299 | 2 | 38.542 | 10.473 | 34.999 | 2 |
| 2025-05-17T00:59:00 | 56.730446 | 3.759205 | 2.0 | 10.292 | 2 | 38.534 | 10.464 | 34.999 | 2 |
| 2025-05-17T01:00:00 | 56.732627 | 3.759275 | 2.0 | 10.283 | 2 | 38.527 | 10.457 | 34.999 | 2 |
| 2025-05-17T01:01:00 | 56.734845 | 3.759247 | 2.0 | 10.274 | 2 | 38.522 | 10.450 | 35.001 | 2 |
| 2025-05-17T01:02:00 | 56.737085 | 3.759194 | 2.0 | 10.265 | 2 | 38.515 | 10.438 | 35.005 | 2 |
| 2025-05-17T01:03:00 | 56.739288 | 3.759173 | 2.0 | 10.276 | 2 | 38.509 | 10.434 | 35.003 | 2 |
| 2025-05-17T01:04:00 | 56.741517 | 3.759170 | 2.0 | 10.281 | 2 | 38.523 | 10.443 | 35.008 | 2 |
| 2025-05-17T01:05:00 | 56.743666 | 3.759197 | 2.0 | 10.287 | 2 | 38.532 | 10.448 | 35.013 | 2 |
| 2025-05-17T01:06:00 | 56.745800 | 3.759172 | 2.0 | 10.283 | 2 | 38.538 | 10.452 | 35.015 | 2 |
| 2025-05-17T01:07:00 | 56.748014 | 3.759111 | 2.0 | 10.283 | 2 | 38.539 | 10.449 | 35.019 | 2 |
| 2025-05-17T01:08:00 | 56.750225 | 3.759115 | 2.0 | 10.282 | 2 | 38.541 | 10.449 | 35.021 | 2 |
| 2025-05-17T01:09:00 | 56.752461 | 3.759174 | 2.0 | 10.272 | 2 | 38.542 | 10.446 | 35.025 | 2 |
| 2025-05-17T01:10:00 | 56.754658 | 3.759188 | 2.0 | 10.262 | 2 | 38.534 | 10.437 | 35.025 | 2 |
| 2025-05-17T01:11:00 | 56.756874 | 3.759192 | 2.0 | 10.253 | 2 | 38.527 | 10.426 | 35.029 | 2 |
| 2025-05-17T01:12:00 | 56.759140 | 3.759132 | 2.0 | 10.246 | 2 | 38.521 | 10.418 | 35.030 | 2 |
| 2025-05-17T01:13:00 | 56.761376 | 3.759144 | 2.0 | 10.234 | 2 | 38.516 | 10.412 | 35.031 | 2 |
| 2025-05-17T01:14:00 | 56.763534 | 3.759157 | 2.0 | 10.234 | 2 | 38.507 | 10.400 | 35.034 | 2 |
| 2025-05-17T01:15:00 | 56.765706 | 3.759145 | 2.0 | 10.236 | 2 | 38.507 | 10.401 | 35.033 | 2 |
| 2025-05-17T01:16:00 | 56.767936 | 3.759096 | 2.0 | 10.238 | 2 | 38.510 | 10.403 | 35.034 | 2 |
| 2025-05-17T01:17:00 | 56.770183 | 3.759129 | 2.0 | 10.246 | 2 | 38.512 | 10.406 | 35.033 | 2 |
| 2025-05-17T01:18:00 | 56.772356 | 3.759234 | 2.0 | 10.260 | 2 | 38.521 | 10.414 | 35.034 | 2 |
| 2025-05-17T01:19:00 | 56.774540 | 3.759184 | 2.0 | 10.271 | 2 | 38.534 | 10.428 | 35.034 | 2 |
| 2025-05-17T01:20:00 | 56.776691 | 3.759113 | 2.0 | 10.283 | 2 | 38.544 | 10.438 | 35.034 | 2 |
| 2025-05-17T01:21:00 | 56.778879 | 3.759096 | 2.0 | 10.287 | 2 | 38.554 | 10.448 | 35.035 | 2 |
| 2025-05-17T01:22:00 | 56.781112 | 3.759110 | 2.0 | 10.286 | 2 | 38.559 | 10.451 | 35.037 | 2 |
| 2025-05-17T01:23:00 | 56.783373 | 3.759176 | 2.0 | 10.284 | 2 | 38.557 | 10.450 | 35.036 | 2 |
| 2025-05-17T01:24:00 | 56.785597 | 3.759184 | 2.0 | 10.281 | 2 | 38.558 | 10.450 | 35.037 | 2 |
| 2025-05-17T01:25:00 | 56.787715 | 3.759179 | 2.0 | 10.278 | 2 | 38.557 | 10.446 | 35.040 | 2 |
| 2025-05-17T01:26:00 | 56.789938 | 3.759172 | 2.0 | 10.270 | 2 | 38.556 | 10.442 | 35.043 | 2 |
| 2025-05-17T01:27:00 | 56.792197 | 3.759183 | 2.0 | 10.264 | 2 | 38.551 | 10.437 | 35.042 | 2 |
| 2025-05-17T01:28:00 | 56.794429 | 3.759178 | 2.0 | 10.261 | 2 | 38.547 | 10.432 | 35.043 | 2 |
| 2025-05-17T01:29:00 | 56.796590 | 3.759184 | 2.0 | 10.256 | 2 | 38.542 | 10.427 | 35.043 | 2 |
| 2025-05-17T01:30:00 | 56.798828 | 3.759169 | 2.0 | 10.248 | 2 | 38.535 | 10.423 | 35.040 | 2 |
| 2025-05-17T01:31:00 | 56.801015 | 3.759185 | 2.0 | 10.247 | 2 | 38.529 | 10.416 | 35.040 | 2 |
| 2025-05-17T01:32:00 | 56.803186 | 3.759171 | 2.0 | 10.248 | 2 | 38.533 | 10.415 | 35.045 | 2 |
| 2025-05-17T01:33:00 | 56.805419 | 3.759155 | 2.0 | 10.252 | 2 | 38.537 | 10.416 | 35.049 | 2 |
| 2025-05-17T01:34:00 | 56.807645 | 3.759152 | 2.0 | 10.251 | 2 | 38.543 | 10.419 | 35.052 | 2 |
| 2025-05-17T01:35:00 | 56.809879 | 3.759165 | 2.0 | 10.249 | 2 | 38.545 | 10.418 | 35.055 | 2 |
| 2025-05-17T01:36:00 | 56.812084 | 3.759202 | 2.0 | 10.242 | 2 | 38.543 | 10.415 | 35.056 | 2 |
| 2025-05-17T01:37:00 | 56.814295 | 3.759161 | 2.0 | 10.232 | 2 | 38.538 | 10.407 | 35.058 | 2 |
| 2025-05-17T01:38:00 | 56.816579 | 3.759170 | 2.0 | 10.230 | 2 | 38.531 | 10.399 | 35.059 | 2 |
| 2025-05-17T01:39:00 | 56.818869 | 3.759150 | 2.0 | 10.228 | 2 | 38.530 | 10.398 | 35.059 | 2 |
| 2025-05-17T01:40:00 | 56.821030 | 3.759168 | 2.0 | 10.226 | 2 | 38.528 | 10.395 | 35.060 | 2 |
| 2025-05-17T01:41:00 | 56.823226 | 3.759218 | 2.0 | 10.220 | 2 | 38.525 | 10.391 | 35.060 | 2 |
| 2025-05-17T01:42:00 | 56.825461 | 3.759183 | 2.0 | 10.215 | 2 | 38.521 | 10.387 | 35.060 | 2 |
| 2025-05-17T01:43:00 | 56.827687 | 3.759133 | 2.0 | 10.212 | 2 | 38.516 | 10.382 | 35.060 | 2 |
| 2025-05-17T01:44:00 | 56.829941 | 3.759139 | 2.0 | 10.223 | 2 | 38.515 | 10.380 | 35.061 | 2 |
| 2025-05-17T01:45:00 | 56.832081 | 3.759157 | 2.0 | 10.227 | 2 | 38.519 | 10.391 | 35.054 | 2 |
| 2025-05-17T01:46:00 | 56.834157 | 3.759167 | 2.0 | 10.230 | 2 | 38.525 | 10.393 | 35.059 | 2 |
| 2025-05-17T01:47:00 | 56.836320 | 3.759148 | 2.0 | 10.235 | 2 | 38.532 | 10.398 | 35.061 | 2 |
| 2025-05-17T01:48:00 | 56.838537 | 3.759177 | 2.0 | 10.246 | 2 | 38.539 | 10.403 | 35.063 | 2 |
| 2025-05-17T01:49:00 | 56.840785 | 3.759195 | 2.0 | 10.249 | 2 | 38.550 | 10.412 | 35.066 | 2 |
| 2025-05-17T01:50:00 | 56.842978 | 3.759138 | 2.0 | 10.254 | 2 | 38.556 | 10.417 | 35.067 | 2 |
| 2025-05-17T01:51:00 | 56.845076 | 3.759150 | 2.0 | 10.258 | 2 | 38.562 | 10.420 | 35.070 | 2 |
| 2025-05-17T01:52:00 | 56.847166 | 3.759171 | 2.0 | 10.261 | 2 | 38.567 | 10.424 | 35.071 | 2 |
| 2025-05-17T01:53:00 | 56.849326 | 3.759153 | 2.0 | 10.263 | 2 | 38.572 | 10.429 | 35.071 | 2 |
| 2025-05-17T01:54:00 | 56.851439 | 3.759112 | 2.0 | 10.260 | 2 | 38.572 | 10.429 | 35.071 | 2 |
| 2025-05-17T01:55:00 | 56.853516 | 3.759136 | 2.0 | 10.257 | 2 | 38.571 | 10.425 | 35.074 | 2 |
| 2025-05-17T01:56:00 | 56.855650 | 3.759183 | 2.0 | 10.254 | 2 | 38.566 | 10.423 | 35.071 | 2 |
| 2025-05-17T01:57:00 | 56.857729 | 3.759191 | 2.0 | 10.256 | 2 | 38.561 | 10.420 | 35.069 | 2 |
| 2025-05-17T01:58:00 | 56.859831 | 3.759129 | 2.0 | 10.263 | 2 | 38.571 | 10.424 | 35.075 | 2 |
| 2025-05-17T01:59:00 | 56.861935 | 3.759095 | 2.0 | 10.272 | 2 | 38.580 | 10.431 | 35.078 | 2 |
| 2025-05-17T02:00:00 | 56.864109 | 3.759079 | 2.0 | 10.280 | 2 | 38.589 | 10.441 | 35.077 | 2 |
| 2025-05-17T02:01:00 | 56.866230 | 3.759122 | 2.0 | 10.279 | 2 | 38.592 | 10.446 | 35.075 | 2 |
| 2025-05-17T02:02:00 | 56.868314 | 3.759136 | 2.0 | 10.283 | 2 | 38.594 | 10.446 | 35.077 | 2 |
| 2025-05-17T02:03:00 | 56.870442 | 3.759119 | 2.0 | 10.292 | 2 | 38.601 | 10.450 | 35.081 | 2 |
| 2025-05-17T02:04:00 | 56.872562 | 3.759141 | 2.0 | 10.295 | 2 | 38.607 | 10.457 | 35.080 | 2 |
| 2025-05-17T02:05:00 | 56.874680 | 3.759171 | 2.0 | 10.297 | 2 | 38.613 | 10.461 | 35.082 | 2 |
| 2025-05-17T02:06:00 | 56.876724 | 3.759161 | 2.0 | 10.295 | 2 | 38.619 | 10.462 | 35.087 | 2 |
| 2025-05-17T02:07:00 | 56.878795 | 3.759142 | 2.0 | 10.292 | 2 | 38.615 | 10.459 | 35.086 | 2 |
| 2025-05-17T02:08:00 | 56.880850 | 3.759096 | 2.0 | 10.283 | 2 | 38.609 | 10.456 | 35.083 | 2 |
| 2025-05-17T02:09:00 | 56.882913 | 3.759068 | 2.0 | 10.279 | 2 | 38.606 | 10.449 | 35.087 | 2 |
| 2025-05-17T02:10:00 | 56.885024 | 3.759086 | 2.0 | 10.274 | 2 | 38.607 | 10.444 | 35.092 | 2 |
| 2025-05-17T02:11:00 | 56.887137 | 3.759091 | 2.0 | 10.269 | 2 | 38.604 | 10.439 | 35.094 | 2 |
| 2025-05-17T02:12:00 | 56.889228 | 3.759124 | 2.0 | 10.270 | 2 | 38.602 | 10.436 | 35.095 | 2 |
| 2025-05-17T02:13:00 | 56.891307 | 3.759091 | 2.0 | 10.272 | 2 | 38.603 | 10.437 | 35.095 | 2 |
| 2025-05-17T02:14:00 | 56.893250 | 3.759102 | 2.0 | 10.273 | 2 | 38.604 | 10.437 | 35.096 | 2 |
| 2025-05-17T02:15:00 | 56.895262 | 3.759102 | 2.0 | 10.276 | 2 | 38.606 | 10.439 | 35.096 | 2 |
| 2025-05-17T02:16:00 | 56.897394 | 3.759091 | 2.0 | 10.280 | 2 | 38.608 | 10.442 | 35.095 | 2 |
| 2025-05-17T02:17:00 | 56.899583 | 3.759105 | 2.0 | 10.282 | 2 | 38.614 | 10.447 | 35.097 | 2 |
| 2025-05-17T02:18:00 | 56.901656 | 3.759150 | 2.0 | 10.288 | 2 | 38.616 | 10.449 | 35.097 | 2 |
| 2025-05-17T02:19:00 | 56.903724 | 3.759145 | 2.0 | 10.285 | 2 | 38.584 | 10.454 | 35.059 | 2 |
| 2025-05-17T02:20:00 | 56.905765 | 3.759124 | 2.0 | 10.279 | 2 | 38.617 | 10.449 | 35.098 | 2 |
| 2025-05-17T02:21:00 | 56.907821 | 3.759076 | 2.0 | 10.278 | 2 | 38.612 | 10.443 | 35.098 | 2 |
| 2025-05-17T02:22:00 | 56.909981 | 3.759107 | 2.0 | 10.281 | 2 | 38.612 | 10.446 | 35.096 | 2 |
| 2025-05-17T02:23:00 | 56.912053 | 3.759161 | 2.0 | 10.282 | 2 | 38.613 | 10.449 | 35.094 | 2 |
| 2025-05-17T02:24:00 | 56.914054 | 3.759116 | 2.0 | 10.284 | 2 | 38.614 | 10.448 | 35.096 | 2 |
| 2025-05-17T02:25:00 | 56.916129 | 3.759127 | 2.0 | 10.285 | 2 | 38.610 | 10.450 | 35.090 | 2 |
| 2025-05-17T02:26:00 | 56.918290 | 3.759127 | 2.0 | 10.280 | 2 | 38.610 | 10.451 | 35.089 | 2 |
| 2025-05-17T02:27:00 | 56.920360 | 3.759118 | 2.0 | 10.275 | 2 | 38.605 | 10.445 | 35.089 | 2 |
| 2025-05-17T02:28:00 | 56.922432 | 3.759174 | 2.0 | 10.274 | 2 | 38.604 | 10.442 | 35.091 | 2 |
| 2025-05-17T02:29:00 | 56.924483 | 3.759111 | 2.0 | 10.271 | 2 | 38.590 | 10.440 | 35.079 | 2 |
| 2025-05-17T02:30:00 | 56.926611 | 3.759123 | 2.0 | 10.273 | 2 | 38.602 | 10.438 | 35.093 | 2 |
| 2025-05-17T02:31:00 | 56.928780 | 3.759153 | 2.0 | 10.278 | 2 | 38.609 | 10.441 | 35.097 | 2 |
| 2025-05-17T02:32:00 | 56.930920 | 3.759204 | 2.0 | 10.281 | 2 | 38.610 | 10.444 | 35.096 | 2 |
| 2025-05-17T02:33:00 | 56.933079 | 3.759160 | 2.0 | 10.287 | 2 | 38.619 | 10.448 | 35.101 | 2 |
| 2025-05-17T02:34:00 | 56.935289 | 3.759052 | 2.0 | 10.296 | 2 | 38.627 | 10.455 | 35.102 | 2 |
| 2025-05-17T02:35:00 | 56.937466 | 3.759116 | 2.0 | 10.306 | 2 | 38.638 | 10.464 | 35.105 | 2 |
| 2025-05-17T02:36:00 | 56.939649 | 3.759137 | 2.0 | 10.312 | 2 | 38.648 | 10.472 | 35.107 | 2 |
| 2025-05-17T02:37:00 | 56.941791 | 3.759160 | 2.0 | 10.321 | 2 | 38.656 | 10.480 | 35.107 | 2 |
| 2025-05-17T02:38:00 | 56.943877 | 3.759145 | 2.0 | 10.323 | 2 | 38.664 | 10.485 | 35.111 | 2 |
| 2025-05-17T02:39:00 | 56.945961 | 3.759107 | 2.0 | 10.330 | 2 | 38.669 | 10.490 | 35.111 | 2 |
| 2025-05-17T02:40:00 | 56.948080 | 3.759117 | 2.0 | 10.330 | 2 | 38.676 | 10.496 | 35.112 | 2 |
| 2025-05-17T02:41:00 | 56.950202 | 3.759129 | 2.0 | 10.332 | 2 | 38.679 | 10.496 | 35.115 | 2 |
| 2025-05-17T02:42:00 | 56.952410 | 3.759159 | 2.0 | 10.335 | 2 | 38.681 | 10.498 | 35.115 | 2 |
| 2025-05-17T02:43:00 | 56.954560 | 3.759131 | 2.0 | 10.339 | 2 | 38.684 | 10.501 | 35.115 | 2 |
| 2025-05-17T02:44:00 | 56.956738 | 3.759111 | 2.0 | 10.343 | 2 | 38.689 | 10.506 | 35.116 | 2 |
| 2025-05-17T02:45:00 | 56.958922 | 3.759063 | 2.0 | 10.351 | 2 | 38.695 | 10.511 | 35.117 | 2 |
| 2025-05-17T02:46:00 | 56.961031 | 3.759148 | 2.0 | 10.357 | 2 | 38.700 | 10.517 | 35.116 | 2 |
| 2025-05-17T02:47:00 | 56.963116 | 3.759098 | 2.0 | 10.359 | 2 | 38.706 | 10.522 | 35.117 | 2 |
| 2025-05-17T02:48:00 | 56.965321 | 3.759050 | 2.0 | 10.375 | 2 | 38.711 | 10.528 | 35.117 | 2 |
| 2025-05-17T02:49:00 | 56.967500 | 3.759099 | 2.0 | 10.377 | 2 | 38.722 | 10.539 | 35.117 | 2 |
| 2025-05-17T02:50:00 | 56.969690 | 3.759084 | 2.0 | 10.377 | 2 | 38.725 | 10.542 | 35.117 | 2 |
| 2025-05-17T02:51:00 | 56.971851 | 3.759092 | 2.0 | 10.375 | 2 | 38.726 | 10.542 | 35.118 | 2 |
| 2025-05-17T02:52:00 | 56.974019 | 3.759113 | 2.0 | 10.376 | 2 | 38.725 | 10.540 | 35.119 | 2 |
| 2025-05-17T02:53:00 | 56.976179 | 3.759108 | 2.0 | 10.377 | 2 | 38.725 | 10.541 | 35.118 | 2 |
| 2025-05-17T02:54:00 | 56.978324 | 3.759031 | 2.0 | 10.376 | 2 | 38.725 | 10.543 | 35.116 | 2 |
| 2025-05-17T02:55:00 | 56.980475 | 3.759012 | 2.0 | 10.374 | 2 | 38.724 | 10.540 | 35.118 | 2 |
| 2025-05-17T02:56:00 | 56.982641 | 3.759044 | 2.0 | 10.375 | 2 | 38.720 | 10.540 | 35.114 | 2 |
| 2025-05-17T02:57:00 | 56.984694 | 3.759069 | 2.0 | 10.377 | 2 | 38.604 | 10.543 | 34.994 | 2 |
| 2025-05-17T02:58:00 | 56.986829 | 3.759083 | 2.0 | 10.379 | 2 | 38.716 | 10.544 | 35.106 | 2 |
| 2025-05-17T02:59:00 | 56.988977 | 3.759096 | 2.0 | 10.381 | 2 | 38.720 | 10.545 | 35.109 | 2 |
| 2025-05-17T03:00:00 | 56.991049 | 3.759100 | 2.0 | 10.379 | 2 | 38.723 | 10.545 | 35.112 | 2 |
| 2025-05-17T03:01:00 | 56.993175 | 3.759104 | 2.0 | 10.372 | 2 | 38.725 | 10.544 | 35.115 | 2 |
| 2025-05-17T03:02:00 | 56.995341 | 3.759051 | 2.0 | 10.368 | 2 | 38.721 | 10.538 | 35.117 | 2 |
| 2025-05-17T03:03:00 | 56.997522 | 3.759068 | 2.0 | 10.368 | 2 | 38.718 | 10.535 | 35.117 | 2 |
| 2025-05-17T03:04:00 | 56.999680 | 3.759110 | 2.0 | 10.371 | 2 | 38.720 | 10.535 | 35.119 | 2 |
| 2025-05-17T03:05:00 | 57.001840 | 3.759058 | 2.0 | 10.376 | 2 | 38.724 | 10.538 | 35.120 | 2 |
| 2025-05-17T03:06:00 | 57.004077 | 3.759132 | 2.0 | 10.386 | 2 | 38.733 | 10.545 | 35.123 | 2 |
| 2025-05-17T03:07:00 | 57.006269 | 3.759123 | 2.0 | 10.389 | 2 | 38.745 | 10.553 | 35.127 | 2 |
| 2025-05-17T03:08:00 | 57.008423 | 3.759087 | 2.0 | 10.385 | 2 | 38.741 | 10.555 | 35.121 | 2 |
| 2025-05-17T03:09:00 | 57.010498 | 3.759057 | 2.0 | 10.383 | 2 | 38.740 | 10.552 | 35.123 | 2 |
| 2025-05-17T03:10:00 | 57.012615 | 3.759035 | 2.0 | 10.380 | 2 | 38.745 | 10.548 | 35.132 | 2 |
| 2025-05-17T03:11:00 | 57.014748 | 3.759062 | 2.0 | 10.377 | 2 | 38.743 | 10.546 | 35.132 | 2 |
| 2025-05-17T03:12:00 | 57.016830 | 3.759072 | 2.0 | 10.372 | 2 | 38.740 | 10.543 | 35.132 | 2 |
| 2025-05-17T03:13:00 | 57.018894 | 3.759090 | 2.0 | 10.368 | 2 | 38.737 | 10.538 | 35.133 | 2 |
| 2025-05-17T03:14:00 | 57.020988 | 3.759059 | 2.0 | 10.369 | 2 | 38.734 | 10.535 | 35.133 | 2 |
| 2025-05-17T03:15:00 | 57.022926 | 3.759071 | 2.0 | 10.366 | 2 | 38.732 | 10.534 | 35.132 | 2 |
| 2025-05-17T03:16:00 | 57.024971 | 3.759105 | 2.0 | 10.362 | 2 | 38.732 | 10.532 | 35.134 | 2 |
| 2025-05-17T03:17:00 | 57.027109 | 3.759104 | 2.0 | 10.358 | 2 | 38.725 | 10.527 | 35.132 | 2 |
| 2025-05-17T03:18:00 | 57.029283 | 3.759082 | 2.0 | 10.355 | 2 | 38.724 | 10.524 | 35.134 | 2 |
| 2025-05-17T03:19:00 | 57.031376 | 3.759040 | 2.0 | 10.349 | 2 | 38.721 | 10.518 | 35.136 | 2 |
| 2025-05-17T03:20:00 | 57.033564 | 3.759050 | 2.0 | 10.347 | 2 | 38.716 | 10.516 | 35.133 | 2 |
| 2025-05-17T03:21:00 | 57.035719 | 3.759125 | 2.0 | 10.344 | 2 | 38.711 | 10.513 | 35.131 | 2 |
| 2025-05-17T03:22:00 | 57.037812 | 3.759060 | 2.0 | 10.341 | 2 | 38.710 | 10.510 | 35.133 | 2 |
| 2025-05-17T03:23:00 | 57.039889 | 3.759091 | 2.0 | 10.337 | 2 | 38.709 | 10.507 | 35.135 | 2 |
| 2025-05-17T03:24:00 | 57.041980 | 3.759143 | 2.0 | 10.336 | 2 | 38.705 | 10.504 | 35.134 | 2 |
| 2025-05-17T03:25:00 | 57.044026 | 3.759158 | 2.0 | 10.336 | 2 | 38.705 | 10.502 | 35.136 | 2 |
| 2025-05-17T03:26:00 | 57.046234 | 3.759047 | 2.0 | 10.337 | 2 | 38.707 | 10.504 | 35.136 | 2 |
| 2025-05-17T03:27:00 | 57.048423 | 3.759032 | 2.0 | 10.336 | 2 | 38.704 | 10.504 | 35.133 | 2 |
| 2025-05-17T03:28:00 | 57.050660 | 3.759110 | 2.0 | 10.337 | 2 | 38.701 | 10.503 | 35.131 | 2 |
| 2025-05-17T03:29:00 | 57.052813 | 3.759110 | 2.0 | 10.335 | 2 | 38.703 | 10.502 | 35.134 | 2 |
| 2025-05-17T03:30:00 | 57.054974 | 3.759083 | 2.0 | 10.335 | 2 | 38.701 | 10.502 | 35.132 | 2 |
| 2025-05-17T03:31:00 | 57.057084 | 3.759072 | 2.0 | 10.339 | 2 | 38.701 | 10.501 | 35.133 | 2 |
| 2025-05-17T03:32:00 | 57.059148 | 3.759085 | 2.0 | 10.342 | 2 | 38.707 | 10.505 | 35.135 | 2 |
| 2025-05-17T03:33:00 | 57.061179 | 3.759090 | 2.0 | 10.352 | 2 | 38.712 | 10.509 | 35.136 | 2 |
| 2025-05-17T03:34:00 | 57.063297 | 3.759086 | 2.0 | 10.357 | 2 | 38.721 | 10.518 | 35.136 | 2 |
| 2025-05-17T03:35:00 | 57.065377 | 3.759084 | 2.0 | 10.358 | 2 | 38.726 | 10.523 | 35.137 | 2 |
| 2025-05-17T03:36:00 | 57.067469 | 3.759055 | 2.0 | 10.358 | 2 | 38.712 | 10.523 | 35.123 | 2 |
| 2025-05-17T03:37:00 | 57.069638 | 3.759076 | 2.0 | 10.362 | 2 | 38.718 | 10.526 | 35.126 | 2 |
| 2025-05-17T03:38:00 | 57.071747 | 3.759060 | 2.0 | 10.360 | 2 | 38.731 | 10.529 | 35.136 | 2 |
| 2025-05-17T03:39:00 | 57.073812 | 3.759048 | 2.0 | 10.361 | 2 | 38.731 | 10.527 | 35.138 | 2 |
| 2025-05-17T03:40:00 | 57.075920 | 3.759070 | 2.0 | 10.355 | 2 | 38.731 | 10.527 | 35.138 | 2 |
| 2025-05-17T03:41:00 | 57.078029 | 3.759082 | 2.0 | 10.346 | 2 | 38.722 | 10.521 | 35.135 | 2 |
| 2025-05-17T03:42:00 | 57.080128 | 3.759044 | 2.0 | 10.349 | 2 | 38.710 | 10.513 | 35.130 | 2 |
| 2025-05-17T03:43:00 | 57.082238 | 3.759034 | 2.0 | 10.352 | 2 | 38.717 | 10.515 | 35.135 | 2 |
| 2025-05-17T03:44:00 | 57.084334 | 3.759045 | 2.0 | 10.357 | 2 | 38.721 | 10.520 | 35.135 | 2 |
| 2025-05-17T03:45:00 | 57.086341 | 3.759063 | 2.0 | 10.356 | 2 | 38.728 | 10.523 | 35.139 | 2 |
| 2025-05-17T03:46:00 | 57.088285 | 3.759078 | 2.0 | 10.358 | 2 | 38.730 | 10.523 | 35.141 | 2 |
| 2025-05-17T03:47:00 | 57.090286 | 3.759031 | 2.0 | 10.361 | 2 | 38.730 | 10.525 | 35.139 | 2 |
| 2025-05-17T03:48:00 | 57.092302 | 3.759018 | 2.0 | 10.365 | 2 | 38.706 | 10.531 | 35.109 | 2 |
| 2025-05-17T03:52:00 | 57.100644 | 3.759033 | 2.0 | 10.382 | 2 | 38.759 | 10.545 | 35.149 | 2 |
| 2025-05-17T03:53:00 | 57.102874 | 3.759076 | 2.0 | 10.378 | 2 | 38.762 | 10.548 | 35.149 | 2 |
| 2025-05-17T03:54:00 | 57.104978 | 3.759060 | 2.0 | 10.375 | 2 | 38.757 | 10.544 | 35.148 | 2 |
| 2025-05-17T03:55:00 | 57.107128 | 3.759067 | 2.0 | 10.376 | 2 | 38.739 | 10.542 | 35.132 | 2 |
| 2025-05-17T03:56:00 | 57.109179 | 3.759099 | 2.0 | 10.372 | 2 | 38.748 | 10.543 | 35.140 | 2 |
| 2025-05-17T03:57:00 | 57.111320 | 3.759046 | 2.0 | 10.370 | 2 | 38.753 | 10.537 | 35.151 | 2 |
| 2025-05-17T03:58:00 | 57.113562 | 3.758994 | 2.0 | 10.366 | 2 | 38.739 | 10.535 | 35.138 | 2 |
| 2025-05-17T03:59:00 | 57.115779 | 3.759028 | 2.0 | 10.360 | 2 | 38.744 | 10.533 | 35.145 | 2 |
| 2025-05-17T04:01:00 | 57.119776 | 3.759041 | 2.0 | 10.356 | 2 | 38.580 | 10.525 | 34.987 | 2 |
| 2025-05-17T04:02:00 | 57.121819 | 3.759071 | 2.0 | 10.354 | 2 | 38.577 | 10.522 | 34.987 | 2 |
| 2025-05-17T04:03:00 | 57.123788 | 3.759094 | 2.0 | 10.349 | 2 | 38.598 | 10.520 | 35.010 | 2 |
| 2025-05-17T04:04:00 | 57.125755 | 3.759098 | 2.0 | 10.345 | 2 | 38.591 | 10.515 | 35.008 | 2 |
| 2025-05-17T04:05:00 | 57.127859 | 3.759067 | 2.0 | 10.343 | 2 | 38.644 | 10.513 | 35.063 | 2 |
| 2025-05-17T04:06:00 | 57.129939 | 3.758986 | 2.0 | 10.340 | 2 | 38.564 | 10.509 | 34.986 | 2 |
| 2025-05-17T04:07:00 | 57.132072 | 3.759013 | 2.0 | 10.340 | 2 | 38.482 | 10.508 | 34.904 | 2 |
| 2025-05-17T04:08:00 | 57.134234 | 3.759099 | 2.0 | 10.344 | 2 | 38.568 | 10.509 | 34.990 | 2 |
| 2025-05-17T04:09:00 | 57.136409 | 3.759071 | 2.0 | 10.343 | 2 | 38.713 | 10.511 | 35.135 | 2 |
| 2025-05-17T04:10:00 | 57.138450 | 3.759048 | 2.0 | 10.339 | 2 | 38.718 | 10.510 | 35.141 | 2 |
| 2025-05-17T04:11:00 | 57.140469 | 3.759034 | 2.0 | 10.335 | 2 | 38.729 | 10.506 | 35.156 | 2 |
| 2025-05-17T04:12:00 | 57.142615 | 3.759003 | 2.0 | 10.331 | 2 | 38.723 | 10.504 | 35.152 | 2 |
| 2025-05-17T04:13:00 | 57.144604 | 3.759081 | 2.0 | 10.334 | 2 | 38.342 | 10.501 | 34.769 | 2 |
| 2025-05-17T04:14:00 | 57.146681 | 3.759120 | 2.0 | 10.336 | 2 | 38.706 | 10.501 | 35.138 | 2 |
| 2025-05-17T04:15:00 | 57.148789 | 3.759053 | 2.0 | 10.342 | 2 | 38.715 | 10.505 | 35.143 | 2 |
| 2025-05-17T04:16:00 | 57.150798 | 3.758964 | 2.0 | 10.342 | 2 | 38.730 | 10.509 | 35.154 | 2 |
| 2025-05-17T04:17:00 | 57.152815 | 3.759023 | 2.0 | 10.346 | 2 | 38.732 | 10.509 | 35.156 | 2 |
| 2025-05-17T04:18:00 | 57.154910 | 3.759092 | 2.0 | 10.347 | 2 | 38.737 | 10.513 | 35.158 | 2 |
| 2025-05-17T04:19:00 | 57.156995 | 3.759055 | 2.0 | 10.354 | 2 | 38.740 | 10.516 | 35.158 | 2 |
| 2025-05-17T04:20:00 | 57.159026 | 3.759003 | 2.0 | 10.358 | 2 | 38.746 | 10.523 | 35.157 | 2 |
| 2025-05-17T04:21:00 | 57.161004 | 3.759027 | 2.0 | 10.362 | 2 | 38.751 | 10.524 | 35.161 | 2 |
| 2025-05-17T04:22:00 | 57.163035 | 3.759014 | 2.0 | 10.368 | 2 | 38.756 | 10.530 | 35.160 | 2 |
| 2025-05-17T04:23:00 | 57.164973 | 3.759020 | 2.0 | 10.374 | 2 | 38.481 | 10.539 | 34.874 | 2 |
| 2025-05-17T04:24:00 | 57.166991 | 3.759006 | 2.0 | 10.372 | 2 | 38.658 | 10.540 | 35.052 | 2 |
| 2025-05-17T04:25:00 | 57.169140 | 3.759028 | 2.0 | 10.372 | 2 | 38.627 | 10.539 | 35.021 | 2 |
| 2025-05-17T04:26:00 | 57.171176 | 3.759053 | 2.0 | 10.368 | 2 | 38.764 | 10.538 | 35.161 | 2 |
| 2025-05-17T04:27:00 | 57.173321 | 3.759046 | 2.0 | 10.364 | 2 | 38.762 | 10.535 | 35.162 | 2 |
| 2025-05-17T04:29:00 | 57.177691 | 3.759086 | 2.0 | 10.351 | 2 | 38.378 | 10.527 | 34.781 | 2 |
| 2025-05-17T04:31:00 | 57.182159 | 3.759014 | 2.0 | 10.340 | 2 | 38.556 | 10.512 | 34.975 | 2 |
| 2025-05-17T04:32:00 | 57.184275 | 3.758942 | 2.0 | 10.337 | 2 | 38.729 | 10.507 | 35.155 | 2 |
| 2025-05-17T04:33:00 | 57.186258 | 3.759029 | 2.0 | 10.334 | 2 | 38.725 | 10.504 | 35.154 | 2 |
| 2025-05-17T04:34:00 | 57.188345 | 3.759055 | 2.0 | 10.333 | 2 | 38.724 | 10.501 | 35.156 | 2 |
| 2025-05-17T04:35:00 | 57.190457 | 3.758994 | 2.0 | 10.332 | 2 | 38.726 | 10.500 | 35.159 | 2 |
| 2025-05-17T04:36:00 | 57.192489 | 3.758984 | 2.0 | 10.328 | 2 | 38.717 | 10.500 | 35.150 | 2 |
| 2025-05-17T04:37:00 | 57.194452 | 3.758993 | 2.0 | 10.324 | 2 | 38.667 | 10.497 | 35.102 | 2 |
| 2025-05-17T04:38:00 | 57.196256 | 3.759047 | 2.0 | 10.323 | 2 | 38.435 | 10.493 | 34.871 | 2 |
| 2025-05-17T04:39:00 | 57.198194 | 3.758971 | 2.0 | 10.321 | 2 | 38.623 | 10.490 | 35.064 | 2 |
| 2025-05-17T04:40:00 | 57.200299 | 3.758963 | 2.0 | 10.323 | 2 | 38.420 | 10.490 | 34.859 | 2 |
| 2025-05-17T04:41:00 | 57.202372 | 3.759024 | 2.0 | 10.320 | 2 | 38.727 | 10.490 | 35.170 | 2 |
| 2025-05-17T04:42:00 | 57.204503 | 3.758951 | 2.0 | 10.316 | 2 | 38.724 | 10.486 | 35.170 | 2 |
| 2025-05-17T04:43:00 | 57.206748 | 3.758995 | 2.0 | 10.310 | 2 | 38.722 | 10.483 | 35.171 | 2 |
| 2025-05-17T04:44:00 | 57.208950 | 3.759023 | 2.0 | 10.305 | 2 | 38.718 | 10.478 | 35.172 | 2 |
| 2025-05-17T04:45:00 | 57.211019 | 3.759016 | 2.0 | 10.299 | 2 | 38.620 | 10.474 | 35.077 | 2 |
| 2025-05-17T04:46:00 | 57.213109 | 3.759012 | 2.0 | 10.293 | 2 | 38.700 | 10.466 | 35.165 | 2 |
| 2025-05-17T04:47:00 | 57.215182 | 3.758992 | 2.0 | 10.286 | 2 | 38.697 | 10.459 | 35.169 | 2 |
| 2025-05-17T04:49:00 | 57.219183 | 3.759020 | 2.0 | 10.275 | 2 | 38.648 | 10.447 | 35.131 | 2 |
| 2025-05-17T04:50:00 | 57.221067 | 3.758988 | 2.0 | 10.275 | 2 | 38.679 | 10.443 | 35.166 | 2 |
| 2025-05-17T04:51:00 | 57.223179 | 3.759018 | 2.0 | 10.281 | 2 | 38.658 | 10.444 | 35.144 | 2 |
| 2025-05-17T04:52:00 | 57.225408 | 3.759071 | 2.0 | 10.283 | 2 | 38.682 | 10.448 | 35.165 | 2 |
| 2025-05-17T04:53:00 | 57.227527 | 3.759112 | 2.0 | 10.284 | 2 | 38.681 | 10.452 | 35.160 | 2 |
| 2025-05-17T04:54:00 | 57.229587 | 3.759007 | 2.0 | 10.280 | 2 | 38.688 | 10.450 | 35.169 | 2 |
| 2025-05-17T04:55:00 | 57.231739 | 3.758951 | 2.0 | 10.282 | 2 | 38.688 | 10.449 | 35.170 | 2 |
| 2025-05-17T04:56:00 | 57.233840 | 3.758990 | 2.0 | 10.278 | 2 | 38.690 | 10.449 | 35.172 | 2 |
| 2025-05-17T04:57:00 | 57.235842 | 3.758996 | 2.0 | 10.278 | 2 | 38.687 | 10.446 | 35.172 | 2 |
| 2025-05-17T04:58:00 | 57.237914 | 3.759013 | 2.0 | 10.278 | 2 | 38.688 | 10.446 | 35.173 | 2 |
| 2025-05-17T04:59:00 | 57.239994 | 3.759065 | 2.0 | 10.284 | 2 | 38.690 | 10.446 | 35.175 | 2 |
| 2025-05-17T05:00:00 | 57.242081 | 3.759018 | 2.0 | 10.287 | 2 | 38.696 | 10.454 | 35.173 | 2 |
| 2025-05-17T05:01:00 | 57.244118 | 3.758956 | 2.0 | 10.283 | 2 | 38.700 | 10.454 | 35.177 | 2 |
| 2025-05-17T05:02:00 | 57.246106 | 3.759046 | 2.0 | 10.286 | 2 | 38.699 | 10.451 | 35.179 | 2 |
| 2025-05-17T05:03:00 | 57.248182 | 3.759025 | 2.0 | 10.296 | 2 | 38.693 | 10.455 | 35.169 | 2 |
| 2025-05-17T05:04:00 | 57.250222 | 3.758938 | 2.0 | 10.402 | 2 | 38.716 | 10.475 | 35.173 | 2 |
| 2025-05-17T05:05:00 | 57.252324 | 3.758907 | 2.0 | 10.462 | 2 | 38.788 | 10.570 | 35.154 | 2 |
| 2025-05-17T05:06:00 | 57.254422 | 3.758928 | 2.0 | 10.521 | 2 | 38.854 | 10.641 | 35.152 | 2 |
| 2025-05-17T05:07:00 | 57.256518 | 3.758924 | 2.0 | 10.583 | 2 | 38.891 | 10.695 | 35.138 | 2 |
| 2025-05-17T05:09:00 | 57.260533 | 3.758943 | 2.0 | 10.661 | 2 | 38.975 | 10.791 | 35.130 | 2 |
| 2025-05-17T05:10:00 | 57.262580 | 3.759059 | 2.0 | 10.690 | 2 | 39.008 | 10.827 | 35.128 | 2 |
| 2025-05-17T05:11:00 | 57.264716 | 3.759020 | 2.0 | 10.704 | 2 | 39.038 | 10.855 | 35.132 | 2 |
| 2025-05-17T05:12:00 | 57.266780 | 3.759005 | 2.0 | 10.721 | 2 | 39.047 | 10.869 | 35.127 | 2 |
| 2025-05-17T05:13:00 | 57.268839 | 3.759010 | 2.0 | 10.753 | 2 | 39.057 | 10.893 | 35.114 | 2 |
| 2025-05-17T05:14:00 | 57.270908 | 3.759020 | 2.0 | 10.776 | 2 | 39.072 | 10.920 | 35.103 | 2 |
| 2025-05-17T05:15:00 | 57.272880 | 3.758992 | 2.0 | 10.789 | 2 | 39.085 | 10.939 | 35.098 | 2 |
| 2025-05-17T05:16:00 | 57.274943 | 3.759010 | 2.0 | 10.794 | 2 | 39.090 | 10.951 | 35.092 | 2 |
| 2025-05-17T05:17:00 | 57.277037 | 3.759016 | 2.0 | 10.802 | 2 | 39.083 | 10.961 | 35.075 | 2 |
| 2025-05-17T05:18:00 | 57.279194 | 3.758973 | 2.0 | 10.790 | 2 | 39.089 | 10.964 | 35.078 | 2 |
| 2025-05-17T05:19:00 | 57.281343 | 3.759020 | 2.0 | 10.775 | 2 | 39.082 | 10.952 | 35.083 | 2 |
| 2025-05-17T05:20:00 | 57.283438 | 3.759043 | 2.0 | 10.766 | 2 | 39.072 | 10.938 | 35.086 | 2 |
| 2025-05-17T05:21:00 | 57.285640 | 3.759000 | 2.0 | 10.758 | 2 | 39.056 | 10.932 | 35.076 | 2 |
| 2025-05-17T05:22:00 | 57.287717 | 3.757903 | 2.0 | 10.753 | 2 | 39.041 | 10.923 | 35.069 | 2 |
| 2025-05-17T05:23:00 | 57.289519 | 3.754786 | 2.0 | 10.764 | 2 | 39.022 | 10.919 | 35.054 | 2 |
| 2025-05-17T05:24:00 | 57.291265 | 3.751386 | 2.0 | 10.781 | 2 | 38.898 | 10.933 | 34.916 | 2 |
| 2025-05-17T05:25:00 | 57.293073 | 3.747655 | 2.0 | 10.811 | 2 | 39.022 | 10.951 | 35.023 | 2 |
| 2025-05-17T05:26:00 | 57.294825 | 3.743647 | 2.0 | 10.820 | 2 | 39.025 | 10.977 | 35.002 | 2 |
| 2025-05-17T05:27:00 | 57.296520 | 3.739588 | 2.0 | 10.822 | 2 | 39.029 | 10.985 | 34.998 | 2 |
| 2025-05-17T05:28:00 | 57.298112 | 3.735659 | 2.0 | 10.851 | 2 | 39.010 | 10.990 | 34.974 | 2 |
| 2025-05-17T05:29:00 | 57.299749 | 3.731729 | 2.0 | 10.882 | 2 | 39.025 | 11.019 | 34.962 | 2 |
| 2025-05-17T05:30:00 | 57.301312 | 3.727936 | 2.0 | 10.889 | 2 | 38.944 | 11.047 | 34.854 | 2 |
| 2025-05-17T05:31:00 | 57.302970 | 3.724131 | 2.0 | 10.929 | 2 | 39.023 | 11.058 | 34.922 | 2 |
| 2025-05-17T05:32:00 | 57.304648 | 3.720206 | 2.0 | 10.964 | 2 | 39.040 | 11.098 | 34.901 | 2 |
| 2025-05-17T05:34:00 | 57.307958 | 3.712354 | 2.0 | 11.004 | 2 | 39.103 | 11.156 | 34.909 | 2 |
| 2025-05-17T05:35:00 | 57.309601 | 3.708280 | 2.0 | 11.000 | 2 | 39.140 | 11.169 | 34.934 | 2 |
| 2025-05-17T05:36:00 | 57.311155 | 3.704072 | 2.0 | 10.894 | 2 | 39.132 | 11.145 | 34.948 | 2 |
| 2025-05-17T05:37:00 | 57.312755 | 3.700130 | 2.0 | 10.801 | 2 | 39.012 | 11.049 | 34.920 | 2 |
| 2025-05-17T05:38:00 | 57.314335 | 3.696077 | 2.0 | 10.751 | 2 | 38.877 | 10.965 | 34.865 | 2 |
| 2025-05-17T05:39:00 | 57.315962 | 3.691972 | 2.0 | 10.751 | 2 | 38.806 | 10.925 | 34.832 | 2 |
| 2025-05-17T05:40:00 | 57.317546 | 3.688024 | 2.0 | 10.773 | 2 | 38.761 | 10.927 | 34.785 | 2 |
| 2025-05-17T05:41:00 | 57.319125 | 3.683934 | 2.0 | 10.803 | 2 | 38.788 | 10.945 | 34.795 | 2 |
| 2025-05-17T05:42:00 | 57.320731 | 3.679865 | 2.0 | 10.826 | 2 | 38.819 | 10.973 | 34.799 | 2 |
| 2025-05-17T05:43:00 | 57.322384 | 3.675716 | 2.0 | 10.831 | 2 | 38.846 | 10.994 | 34.806 | 2 |
| 2025-05-17T05:44:00 | 57.324192 | 3.671754 | 2.0 | 10.833 | 2 | 38.861 | 10.997 | 34.819 | 2 |
| 2025-05-17T05:45:00 | 57.326374 | 3.668868 | 2.0 | 10.839 | 2 | 38.873 | 11.000 | 34.828 | 2 |
| 2025-05-17T05:46:00 | 57.328303 | 3.666740 | 2.0 | 10.842 | 2 | 38.860 | 11.005 | 34.810 | 2 |
| 2025-05-17T05:47:00 | 57.330189 | 3.665568 | 2.0 | 10.850 | 2 | 38.890 | 11.009 | 34.836 | 2 |
| 2025-05-17T05:48:00 | 57.331335 | 3.665332 | 2.0 | 10.848 | 2 | 38.906 | 11.013 | 34.848 | 2 |
| 2025-05-17T05:49:00 | 57.331878 | 3.664880 | 2.0 | 10.851 | 2 | 38.909 | 11.012 | 34.852 | 2 |
| 2025-05-17T05:50:00 | 57.332043 | 3.664993 | 2.0 | 10.852 | 2 | 38.911 | 11.015 | 34.851 | 2 |
| 2025-05-17T05:51:00 | 57.332037 | 3.665146 | 2.0 | 10.852 | 2 | 38.913 | 11.016 | 34.852 | 2 |
| 2025-05-17T05:52:00 | 57.332127 | 3.665232 | 2.0 | 10.853 | 2 | 38.914 | 11.017 | 34.853 | 2 |
| 2025-05-17T05:53:00 | 57.332203 | 3.665207 | 2.0 | 10.852 | 2 | 38.915 | 11.017 | 34.854 | 2 |
| 2025-05-17T05:54:00 | 57.332195 | 3.665229 | 2.0 | 10.854 | 2 | 38.914 | 11.016 | 34.853 | 2 |
| 2025-05-17T05:55:00 | 57.332096 | 3.665290 | 2.0 | 10.856 | 2 | 38.916 | 11.018 | 34.854 | 2 |
| 2025-05-17T05:56:00 | 57.332054 | 3.665348 | 2.0 | 10.857 | 2 | 38.918 | 11.019 | 34.855 | 2 |
| 2025-05-17T05:57:00 | 57.332082 | 3.665419 | 2.0 | 10.855 | 2 | 38.916 | 11.019 | 34.853 | 2 |
| 2025-05-17T05:58:00 | 57.332041 | 3.665481 | 2.0 | 10.857 | 2 | 38.915 | 11.018 | 34.853 | 2 |
| 2025-05-17T05:59:00 | 57.332089 | 3.665510 | 2.0 | 10.857 | 2 | 38.917 | 11.020 | 34.853 | 2 |
| 2025-05-17T06:00:00 | 57.332141 | 3.665527 | 2.0 | 10.856 | 2 | 38.916 | 11.020 | 34.852 | 2 |
| 2025-05-17T06:01:00 | 57.332124 | 3.665607 | 2.0 | 10.855 | 2 | 38.917 | 11.018 | 34.855 | 2 |
| 2025-05-17T06:02:00 | 57.332166 | 3.665677 | 2.0 | 10.856 | 2 | 38.917 | 11.018 | 34.855 | 2 |
| 2025-05-17T06:03:00 | 57.332202 | 3.665705 | 2.0 | 10.857 | 2 | 38.917 | 11.019 | 34.854 | 2 |
| 2025-05-17T06:04:00 | 57.332217 | 3.665760 | 2.0 | 10.857 | 2 | 38.918 | 11.020 | 34.854 | 2 |
| 2025-05-17T06:05:00 | 57.332170 | 3.665817 | 2.0 | 10.855 | 2 | 38.918 | 11.019 | 34.855 | 2 |
| 2025-05-17T06:06:00 | 57.332060 | 3.665939 | 2.0 | 10.861 | 2 | 38.917 | 11.018 | 34.855 | 2 |
| 2025-05-17T06:07:00 | 57.331895 | 3.666089 | 2.0 | 10.862 | 2 | 38.923 | 11.027 | 34.852 | 2 |
| 2025-05-17T06:08:00 | 57.331849 | 3.666143 | 2.0 | 10.862 | 2 | 38.930 | 11.034 | 34.852 | 2 |
| 2025-05-17T06:09:00 | 57.331925 | 3.666088 | 2.0 | 10.859 | 2 | 38.929 | 11.038 | 34.848 | 2 |
| 2025-05-17T06:10:00 | 57.332007 | 3.666094 | 2.0 | 10.861 | 2 | 38.931 | 11.039 | 34.849 | 2 |
| 2025-05-17T06:11:00 | 57.332052 | 3.666154 | 2.0 | 10.861 | 2 | 38.935 | 11.042 | 34.850 | 2 |
| 2025-05-17T06:12:00 | 57.332053 | 3.666192 | 2.0 | 10.864 | 2 | 38.937 | 11.043 | 34.851 | 2 |
| 2025-05-17T06:13:00 | 57.332088 | 3.666226 | 2.0 | 10.867 | 2 | 38.939 | 11.046 | 34.850 | 2 |
| 2025-05-17T06:14:00 | 57.332180 | 3.666220 | 2.0 | 10.867 | 2 | 38.941 | 11.049 | 34.849 | 2 |
| 2025-05-17T06:15:00 | 57.332257 | 3.666225 | 2.0 | 10.868 | 2 | 38.942 | 11.052 | 34.847 | 2 |
| 2025-05-17T06:16:00 | 57.332208 | 3.666249 | 2.0 | 10.868 | 2 | 38.943 | 11.052 | 34.848 | 2 |
| 2025-05-17T06:17:00 | 57.332195 | 3.666219 | 2.0 | 10.863 | 2 | 38.943 | 11.049 | 34.851 | 2 |
| 2025-05-17T06:18:00 | 57.332227 | 3.666154 | 2.0 | 10.866 | 2 | 38.936 | 11.052 | 34.841 | 2 |
| 2025-05-17T06:19:00 | 57.332225 | 3.666136 | 2.0 | 10.861 | 2 | 38.942 | 11.052 | 34.847 | 2 |
| 2025-05-17T06:20:00 | 57.332250 | 3.666149 | 2.0 | 10.862 | 2 | 38.941 | 11.048 | 34.850 | 2 |
| 2025-05-17T06:21:00 | 57.332337 | 3.666216 | 2.0 | 10.867 | 2 | 38.943 | 11.050 | 34.850 | 2 |
| 2025-05-17T06:22:00 | 57.332430 | 3.666240 | 2.0 | 10.867 | 2 | 38.944 | 11.054 | 34.847 | 2 |
| 2025-05-17T06:23:00 | 57.332512 | 3.666240 | 2.0 | 10.870 | 2 | 38.944 | 11.055 | 34.846 | 2 |
| 2025-05-17T06:24:00 | 57.332558 | 3.666240 | 2.0 | 10.871 | 2 | 38.946 | 11.057 | 34.846 | 2 |
| 2025-05-17T06:25:00 | 57.332575 | 3.666182 | 2.0 | 10.870 | 2 | 38.948 | 11.059 | 34.847 | 2 |
| 2025-05-17T06:26:00 | 57.332522 | 3.666091 | 2.0 | 10.872 | 2 | 38.948 | 11.059 | 34.847 | 2 |
| 2025-05-17T06:27:00 | 57.332435 | 3.666066 | 2.0 | 10.874 | 2 | 38.950 | 11.062 | 34.846 | 2 |
| 2025-05-17T06:28:00 | 57.332414 | 3.666026 | 2.0 | 10.869 | 2 | 38.951 | 11.062 | 34.847 | 2 |
| 2025-05-17T06:29:00 | 57.332496 | 3.665890 | 2.0 | 10.865 | 2 | 38.948 | 11.057 | 34.848 | 2 |
| 2025-05-17T06:30:00 | 57.332507 | 3.665748 | 2.0 | 10.868 | 2 | 38.947 | 11.054 | 34.850 | 2 |
| 2025-05-17T06:31:00 | 57.332542 | 3.665719 | 2.0 | 10.869 | 2 | 38.949 | 11.057 | 34.849 | 2 |
| 2025-05-17T06:32:00 | 57.332543 | 3.665732 | 2.0 | 10.869 | 2 | 38.949 | 11.059 | 34.848 | 2 |
| 2025-05-17T06:33:00 | 57.332603 | 3.665721 | 2.0 | 10.866 | 2 | 38.948 | 11.057 | 34.848 | 2 |
| 2025-05-17T06:34:00 | 57.332836 | 3.665738 | 2.0 | 10.869 | 2 | 38.945 | 11.057 | 34.845 | 2 |
| 2025-05-17T06:35:00 | 57.332980 | 3.665733 | 2.0 | 10.873 | 2 | 38.947 | 11.059 | 34.846 | 2 |
| 2025-05-17T06:36:00 | 57.333144 | 3.665721 | 2.0 | 10.875 | 2 | 38.948 | 11.063 | 34.843 | 2 |
| 2025-05-17T06:37:00 | 57.333268 | 3.665714 | 2.0 | 10.877 | 2 | 38.952 | 11.066 | 34.844 | 2 |
| 2025-05-17T06:38:00 | 57.333261 | 3.665756 | 2.0 | 10.873 | 2 | 38.955 | 11.066 | 34.847 | 2 |
| 2025-05-17T06:39:00 | 57.333238 | 3.665779 | 2.0 | 10.869 | 2 | 38.954 | 11.062 | 34.850 | 2 |
| 2025-05-17T06:40:00 | 57.333200 | 3.665711 | 2.0 | 10.869 | 2 | 38.953 | 11.059 | 34.852 | 2 |
| 2025-05-17T06:41:00 | 57.333220 | 3.665585 | 2.0 | 10.870 | 2 | 38.953 | 11.060 | 34.851 | 2 |
| 2025-05-17T06:42:00 | 57.333272 | 3.665504 | 2.0 | 10.869 | 2 | 38.953 | 11.061 | 34.850 | 2 |
| 2025-05-17T06:43:00 | 57.333269 | 3.665572 | 2.0 | 10.870 | 2 | 38.952 | 11.060 | 34.850 | 2 |
| 2025-05-17T06:44:00 | 57.333211 | 3.665641 | 2.0 | 10.878 | 2 | 38.955 | 11.062 | 34.851 | 2 |
| 2025-05-17T06:45:00 | 57.333270 | 3.665607 | 2.0 | 10.873 | 2 | 38.960 | 11.068 | 34.850 | 2 |
| 2025-05-17T06:46:00 | 57.333340 | 3.665501 | 2.0 | 10.871 | 2 | 38.956 | 11.065 | 34.849 | 2 |
| 2025-05-17T06:47:00 | 57.333278 | 3.665509 | 2.0 | 10.872 | 2 | 38.954 | 11.063 | 34.849 | 2 |
| 2025-05-17T06:48:00 | 57.333223 | 3.665568 | 2.0 | 10.879 | 2 | 38.956 | 11.065 | 34.849 | 2 |
| 2025-05-17T06:49:00 | 57.333248 | 3.665597 | 2.0 | 10.869 | 2 | 38.959 | 11.069 | 34.848 | 2 |
| 2025-05-17T06:50:00 | 57.333201 | 3.665537 | 2.0 | 10.868 | 2 | 38.953 | 11.060 | 34.851 | 2 |
| 2025-05-17T06:51:00 | 57.333182 | 3.665526 | 2.0 | 10.873 | 2 | 38.954 | 11.063 | 34.849 | 2 |
| 2025-05-17T06:52:00 | 57.333114 | 3.665588 | 2.0 | 10.877 | 2 | 38.956 | 11.066 | 34.848 | 2 |
| 2025-05-17T06:53:00 | 57.332937 | 3.665750 | 2.0 | 10.874 | 2 | 38.957 | 11.068 | 34.847 | 2 |
| 2025-05-17T06:54:00 | 57.333035 | 3.665898 | 2.0 | 10.871 | 2 | 38.954 | 11.066 | 34.846 | 2 |
| 2025-05-17T06:55:00 | 57.333123 | 3.665822 | 2.0 | 10.872 | 2 | 38.897 | 11.064 | 34.791 | 2 |
| 2025-05-17T06:56:00 | 57.333073 | 3.665758 | 2.0 | 10.871 | 2 | 38.829 | 11.065 | 34.722 | 2 |
| 2025-05-17T06:57:00 | 57.333015 | 3.665761 | 2.0 | 10.875 | 2 | 38.951 | 11.063 | 34.846 | 2 |
| 2025-05-17T06:58:00 | 57.333017 | 3.665824 | 2.0 | 10.870 | 2 | 38.162 | 11.067 | 34.056 | 2 |
| 2025-05-17T06:59:00 | 57.333004 | 3.665879 | 2.0 | 10.873 | 2 | 38.498 | 11.064 | 34.393 | 2 |
| 2025-05-17T07:00:00 | 57.332980 | 3.665896 | 2.0 | 10.870 | 2 | 38.952 | 11.065 | 34.845 | 2 |
| 2025-05-17T07:01:00 | 57.332989 | 3.665951 | 2.0 | 10.873 | 2 | 38.702 | 11.064 | 34.596 | 2 |
| 2025-05-17T07:02:00 | 57.333055 | 3.665935 | 2.0 | 10.872 | 2 | 38.854 | 11.066 | 34.746 | 2 |
| 2025-05-17T07:03:00 | 57.333092 | 3.665815 | 2.0 | 10.872 | 2 | 38.121 | 11.065 | 34.017 | 2 |
| 2025-05-17T07:04:00 | 57.333116 | 3.665762 | 2.0 | 10.871 | 2 | 38.811 | 11.064 | 34.705 | 2 |
| 2025-05-17T07:05:00 | 57.333127 | 3.665819 | 2.0 | 10.874 | 2 | 38.350 | 11.064 | 34.246 | 2 |
| 2025-05-17T07:06:00 | 57.333112 | 3.665860 | 2.0 | 10.878 | 2 | 38.364 | 11.068 | 34.256 | 2 |
| 2025-05-17T07:07:00 | 57.333016 | 3.665961 | 2.0 | 10.878 | 2 | 38.366 | 11.071 | 34.255 | 2 |
| 2025-05-17T07:08:00 | 57.332912 | 3.665993 | 2.0 | 10.878 | 2 | 38.501 | 11.071 | 34.390 | 2 |
| 2025-05-17T07:09:00 | 57.332899 | 3.666027 | 2.0 | 10.876 | 2 | 38.279 | 11.070 | 34.170 | 2 |
| 2025-05-17T07:10:00 | 57.332923 | 3.666027 | 2.0 | 10.872 | 2 | 38.566 | 11.067 | 34.458 | 2 |
| 2025-05-17T07:11:00 | 57.332992 | 3.666022 | 2.0 | 10.873 | 2 | 38.310 | 11.066 | 34.204 | 2 |
| 2025-05-17T07:12:00 | 57.333096 | 3.666012 | 2.0 | 10.873 | 2 | 38.068 | 11.066 | 33.963 | 2 |
| 2025-05-17T07:13:00 | 57.333246 | 3.665951 | 2.0 | 10.876 | 2 | 38.380 | 11.069 | 34.271 | 2 |
| 2025-05-17T07:14:00 | 57.333423 | 3.665745 | 2.0 | 10.875 | 2 | 38.364 | 11.071 | 34.253 | 2 |
| 2025-05-17T07:15:00 | 57.333679 | 3.665493 | 2.0 | 10.870 | 2 | 38.771 | 11.068 | 34.661 | 2 |
| 2025-05-17T07:16:00 | 57.333893 | 3.665293 | 2.0 | 10.867 | 2 | 38.612 | 11.065 | 34.506 | 2 |
| 2025-05-17T07:17:00 | 57.334057 | 3.665070 | 2.0 | 10.874 | 2 | 38.742 | 11.064 | 34.636 | 2 |
| 2025-05-17T07:18:00 | 57.334237 | 3.664803 | 2.0 | 10.879 | 2 | 38.548 | 11.069 | 34.438 | 2 |
| 2025-05-17T07:19:00 | 57.334391 | 3.664535 | 2.0 | 10.877 | 2 | 38.276 | 11.073 | 34.164 | 2 |
| 2025-05-17T07:20:00 | 57.334551 | 3.664206 | 2.0 | 10.875 | 2 | 38.694 | 11.074 | 34.579 | 2 |
| 2025-05-17T07:21:00 | 57.334634 | 3.663928 | 2.0 | 10.875 | 2 | 38.621 | 11.069 | 34.511 | 2 |
| 2025-05-17T07:22:00 | 57.334673 | 3.663650 | 2.0 | 10.883 | 2 | 38.565 | 11.073 | 34.451 | 2 |
| 2025-05-17T07:23:00 | 57.334655 | 3.663395 | 2.0 | 10.883 | 2 | 38.883 | 11.079 | 34.763 | 2 |
| 2025-05-17T07:24:00 | 57.334696 | 3.663058 | 2.0 | 10.879 | 2 | 38.402 | 11.077 | 34.285 | 2 |
| 2025-05-17T07:25:00 | 57.334865 | 3.662831 | 2.0 | 10.878 | 2 | 38.744 | 11.073 | 34.630 | 2 |
| 2025-05-17T07:26:00 | 57.334873 | 3.661562 | 2.0 | 10.880 | 2 | 38.772 | 11.073 | 34.658 | 2 |
| 2025-05-17T07:27:00 | 57.334978 | 3.658583 | 2.0 | 10.879 | 2 | 38.640 | 11.076 | 34.523 | 2 |
| 2025-05-17T07:28:00 | 57.335095 | 3.654161 | 2.0 | 10.873 | 2 | 38.957 | 11.076 | 34.839 | 2 |
| 2025-05-17T07:29:00 | 57.335159 | 3.649084 | 2.0 | 10.877 | 2 | 38.981 | 11.075 | 34.864 | 2 |
| 2025-05-17T07:30:00 | 57.334873 | 3.643742 | 2.0 | 10.870 | 2 | 38.993 | 11.076 | 34.875 | 2 |
| 2025-05-17T07:31:00 | 57.334555 | 3.638314 | 2.0 | 10.865 | 2 | 38.992 | 11.066 | 34.884 | 2 |
| 2025-05-17T07:32:00 | 57.334277 | 3.632917 | 2.0 | 10.869 | 2 | 38.992 | 11.057 | 34.892 | 2 |
| 2025-05-17T07:33:00 | 57.333974 | 3.627559 | 2.0 | 10.866 | 2 | 38.995 | 11.054 | 34.898 | 2 |
| 2025-05-17T07:34:00 | 57.333721 | 3.622106 | 2.0 | 10.867 | 2 | 39.002 | 11.051 | 34.908 | 2 |
| 2025-05-17T07:35:00 | 57.333472 | 3.616568 | 2.0 | 10.865 | 2 | 39.015 | 11.052 | 34.920 | 2 |
| 2025-05-17T07:36:00 | 57.333195 | 3.611120 | 2.0 | 10.839 | 2 | 39.021 | 11.043 | 34.935 | 2 |
| 2025-05-17T07:37:00 | 57.332902 | 3.605717 | 2.0 | 10.818 | 2 | 39.016 | 11.020 | 34.952 | 2 |
| 2025-05-17T07:38:00 | 57.332635 | 3.600245 | 2.0 | 10.811 | 2 | 39.011 | 11.002 | 34.964 | 2 |
| 2025-05-17T07:39:00 | 57.332360 | 3.594856 | 2.0 | 10.801 | 2 | 39.009 | 10.991 | 34.972 | 2 |
| 2025-05-17T07:40:00 | 57.332098 | 3.589470 | 2.0 | 10.794 | 2 | 39.008 | 10.983 | 34.979 | 2 |
| 2025-05-17T07:41:00 | 57.331824 | 3.584107 | 2.0 | 10.782 | 2 | 39.009 | 10.974 | 34.988 | 2 |
| 2025-05-17T07:42:00 | 57.331552 | 3.578746 | 2.0 | 10.787 | 2 | 39.011 | 10.962 | 35.002 | 2 |
| 2025-05-17T07:43:00 | 57.331439 | 3.573420 | 2.0 | 10.787 | 2 | 39.020 | 10.966 | 35.007 | 2 |
| 2025-05-17T07:44:00 | 57.331321 | 3.568101 | 2.0 | 10.783 | 2 | 39.029 | 10.967 | 35.015 | 2 |
| 2025-05-17T07:45:00 | 57.331178 | 3.562772 | 2.0 | 10.763 | 2 | 39.033 | 10.961 | 35.025 | 2 |
| 2025-05-17T07:46:00 | 57.331045 | 3.557443 | 2.0 | 10.684 | 2 | 39.028 | 10.923 | 35.056 | 2 |
| 2025-05-17T07:47:00 | 57.330939 | 3.552121 | 2.0 | 10.642 | 2 | 39.005 | 10.861 | 35.093 | 2 |
| 2025-05-17T07:48:00 | 57.330839 | 3.546724 | 2.0 | 10.600 | 2 | 38.985 | 10.819 | 35.113 | 2 |
| 2025-05-17T07:49:00 | 57.330824 | 3.541390 | 2.0 | 10.574 | 2 | 38.964 | 10.781 | 35.128 | 2 |
| 2025-05-17T07:50:00 | 57.330910 | 3.536085 | 2.0 | 10.544 | 2 | 38.945 | 10.753 | 35.136 | 2 |
| 2025-05-17T07:51:00 | 57.330948 | 3.530836 | 2.0 | 10.511 | 2 | 38.917 | 10.719 | 35.141 | 2 |
| 2025-05-17T07:52:00 | 57.331021 | 3.525598 | 2.0 | 10.473 | 2 | 38.901 | 10.692 | 35.150 | 2 |
| 2025-05-17T07:53:00 | 57.330994 | 3.520266 | 2.0 | 10.381 | 2 | 38.866 | 10.639 | 35.166 | 2 |
| 2025-05-17T07:54:00 | 57.330979 | 3.515059 | 2.0 | 10.282 | 2 | 38.792 | 10.555 | 35.173 | 2 |
| 2025-05-17T07:55:00 | 57.330930 | 3.509893 | 2.0 | 10.213 | 2 | 38.707 | 10.463 | 35.175 | 2 |
| 2025-05-17T07:56:00 | 57.330905 | 3.504811 | 2.0 | 10.189 | 2 | 38.648 | 10.400 | 35.177 | 2 |
| 2025-05-17T07:57:00 | 57.331190 | 3.499956 | 2.0 | 10.181 | 2 | 38.621 | 10.375 | 35.173 | 2 |
| 2025-05-17T07:58:00 | 57.332326 | 3.498470 | 2.0 | 10.170 | 2 | 38.570 | 10.365 | 35.131 | 2 |
| 2025-05-17T07:59:00 | 57.332606 | 3.499031 | 2.0 | 10.177 | 2 | 38.596 | 10.352 | 35.170 | 2 |
| 2025-05-17T08:00:00 | 57.332877 | 3.499789 | 2.0 | 10.181 | 2 | 38.604 | 10.358 | 35.173 | 2 |
| 2025-05-17T08:01:00 | 57.332930 | 3.500109 | 2.0 | 10.180 | 2 | 38.608 | 10.359 | 35.176 | 2 |
| 2025-05-17T08:02:00 | 57.332900 | 3.500431 | 2.0 | 10.178 | 2 | 38.606 | 10.356 | 35.177 | 2 |
| 2025-05-17T08:03:00 | 57.332846 | 3.500734 | 2.0 | 10.184 | 2 | 38.602 | 10.355 | 35.173 | 2 |
| 2025-05-17T08:04:00 | 57.332836 | 3.500805 | 2.0 | 10.184 | 2 | 38.601 | 10.360 | 35.168 | 2 |
| 2025-05-17T08:05:00 | 57.332828 | 3.500701 | 2.0 | 10.183 | 2 | 38.598 | 10.360 | 35.165 | 2 |
| 2025-05-17T08:06:00 | 57.332775 | 3.500704 | 2.0 | 10.181 | 2 | 38.602 | 10.358 | 35.171 | 2 |
| 2025-05-17T08:07:00 | 57.332737 | 3.500773 | 2.0 | 10.180 | 2 | 38.602 | 10.357 | 35.172 | 2 |
| 2025-05-17T08:08:00 | 57.332775 | 3.500721 | 2.0 | 10.178 | 2 | 38.603 | 10.355 | 35.175 | 2 |
| 2025-05-17T08:09:00 | 57.332868 | 3.500610 | 2.0 | 10.178 | 2 | 38.601 | 10.354 | 35.173 | 2 |
| 2025-05-17T08:10:00 | 57.332908 | 3.500430 | 2.0 | 10.177 | 2 | 38.600 | 10.353 | 35.173 | 2 |
| 2025-05-17T08:11:00 | 57.332919 | 3.500403 | 2.0 | 10.179 | 2 | 38.600 | 10.353 | 35.173 | 2 |
| 2025-05-17T08:12:00 | 57.332771 | 3.500533 | 2.0 | 10.183 | 2 | 38.600 | 10.354 | 35.172 | 2 |
| 2025-05-17T08:13:00 | 57.332554 | 3.500762 | 2.0 | 10.183 | 2 | 38.606 | 10.358 | 35.175 | 2 |
| 2025-05-17T08:14:00 | 57.332512 | 3.500904 | 2.0 | 10.173 | 2 | 38.606 | 10.357 | 35.176 | 2 |
| 2025-05-17T08:15:00 | 57.332445 | 3.500788 | 2.0 | 10.176 | 2 | 38.604 | 10.357 | 35.174 | 2 |
| 2025-05-17T08:16:00 | 57.332384 | 3.500543 | 2.0 | 10.176 | 2 | 38.610 | 10.364 | 35.173 | 2 |
| 2025-05-17T08:17:00 | 57.332473 | 3.500337 | 2.0 | 10.174 | 2 | 38.613 | 10.365 | 35.175 | 2 |
| 2025-05-17T08:18:00 | 57.332524 | 3.500259 | 2.0 | 10.173 | 2 | 38.613 | 10.365 | 35.175 | 2 |
| 2025-05-17T08:19:00 | 57.332501 | 3.500230 | 2.0 | 10.171 | 2 | 38.614 | 10.366 | 35.175 | 2 |
| 2025-05-17T08:20:00 | 57.332507 | 3.500277 | 2.0 | 10.169 | 2 | 38.613 | 10.364 | 35.176 | 2 |
| 2025-05-17T08:21:00 | 57.332528 | 3.500292 | 2.0 | 10.173 | 2 | 38.610 | 10.365 | 35.172 | 2 |
| 2025-05-17T08:22:00 | 57.332527 | 3.500157 | 2.0 | 10.174 | 2 | 38.616 | 10.368 | 35.175 | 2 |
| 2025-05-17T08:23:00 | 57.332518 | 3.499984 | 2.0 | 10.175 | 2 | 38.616 | 10.368 | 35.175 | 2 |
| 2025-05-17T08:24:00 | 57.332462 | 3.499925 | 2.0 | 10.180 | 2 | 38.619 | 10.372 | 35.174 | 2 |
| 2025-05-17T08:25:00 | 57.332345 | 3.499938 | 2.0 | 10.178 | 2 | 38.617 | 10.376 | 35.168 | 2 |
| 2025-05-17T08:26:00 | 57.332325 | 3.499879 | 2.0 | 10.177 | 2 | 38.620 | 10.374 | 35.173 | 2 |
| 2025-05-17T08:27:00 | 57.332270 | 3.499854 | 2.0 | 10.176 | 2 | 38.618 | 10.374 | 35.171 | 2 |
| 2025-05-17T08:28:00 | 57.332231 | 3.499823 | 2.0 | 10.174 | 2 | 38.620 | 10.374 | 35.173 | 2 |
| 2025-05-17T08:29:00 | 57.332233 | 3.499792 | 2.0 | 10.170 | 2 | 38.618 | 10.370 | 35.175 | 2 |
| 2025-05-17T08:30:00 | 57.332320 | 3.499753 | 2.0 | 10.166 | 2 | 38.616 | 10.369 | 35.174 | 2 |
| 2025-05-17T08:31:00 | 57.332211 | 3.499792 | 2.0 | 10.170 | 2 | 38.610 | 10.365 | 35.172 | 2 |
| 2025-05-17T08:32:00 | 57.332274 | 3.499710 | 2.0 | 10.172 | 2 | 38.614 | 10.370 | 35.171 | 2 |
| 2025-05-17T08:33:00 | 57.332321 | 3.499530 | 2.0 | 10.170 | 2 | 38.615 | 10.372 | 35.170 | 2 |
| 2025-05-17T08:34:00 | 57.332465 | 3.499461 | 2.0 | 10.166 | 2 | 38.616 | 10.370 | 35.173 | 2 |
| 2025-05-17T08:35:00 | 57.332461 | 3.499612 | 2.0 | 10.174 | 2 | 38.613 | 10.366 | 35.174 | 2 |
| 2025-05-17T08:36:00 | 57.332437 | 3.499714 | 2.0 | 10.175 | 2 | 38.619 | 10.372 | 35.174 | 2 |
| 2025-05-17T08:37:00 | 57.332369 | 3.499811 | 2.0 | 10.177 | 2 | 38.623 | 10.375 | 35.175 | 2 |
| 2025-05-17T08:38:00 | 57.332391 | 3.499756 | 2.0 | 10.177 | 2 | 38.623 | 10.377 | 35.174 | 2 |
| 2025-05-17T08:39:00 | 57.332435 | 3.499713 | 2.0 | 10.177 | 2 | 38.619 | 10.377 | 35.169 | 2 |
| 2025-05-17T08:40:00 | 57.332472 | 3.499653 | 2.0 | 10.178 | 2 | 38.623 | 10.377 | 35.174 | 2 |
| 2025-05-17T08:41:00 | 57.332532 | 3.499675 | 2.0 | 10.180 | 2 | 38.626 | 10.380 | 35.174 | 2 |
| 2025-05-17T08:42:00 | 57.332560 | 3.499679 | 2.0 | 10.180 | 2 | 38.627 | 10.380 | 35.175 | 2 |
| 2025-05-17T08:43:00 | 57.332556 | 3.499598 | 2.0 | 10.183 | 2 | 38.628 | 10.382 | 35.174 | 2 |
| 2025-05-17T08:44:00 | 57.332578 | 3.499503 | 2.0 | 10.182 | 2 | 38.631 | 10.383 | 35.176 | 2 |
| 2025-05-17T08:45:00 | 57.332603 | 3.499522 | 2.0 | 10.184 | 2 | 38.631 | 10.384 | 35.175 | 2 |
| 2025-05-17T08:46:00 | 57.332606 | 3.499518 | 2.0 | 10.187 | 2 | 38.633 | 10.385 | 35.176 | 2 |
| 2025-05-17T08:47:00 | 57.332504 | 3.499574 | 2.0 | 10.182 | 2 | 38.635 | 10.389 | 35.174 | 2 |
| 2025-05-17T08:48:00 | 57.332446 | 3.499614 | 2.0 | 10.182 | 2 | 38.631 | 10.383 | 35.176 | 2 |
| 2025-05-17T08:49:00 | 57.332456 | 3.499559 | 2.0 | 10.182 | 2 | 38.621 | 10.385 | 35.164 | 2 |
| 2025-05-17T08:50:00 | 57.332565 | 3.499433 | 2.0 | 10.179 | 2 | 38.627 | 10.382 | 35.173 | 2 |
| 2025-05-17T08:51:00 | 57.332673 | 3.499387 | 2.0 | 10.179 | 2 | 38.623 | 10.382 | 35.169 | 2 |
| 2025-05-17T08:52:00 | 57.332669 | 3.499339 | 2.0 | 10.179 | 2 | 38.625 | 10.381 | 35.172 | 2 |
| 2025-05-17T08:53:00 | 57.332629 | 3.499231 | 2.0 | 10.179 | 2 | 38.627 | 10.381 | 35.174 | 2 |
| 2025-05-17T08:54:00 | 57.332631 | 3.499090 | 2.0 | 10.176 | 2 | 38.626 | 10.379 | 35.175 | 2 |
| 2025-05-17T08:55:00 | 57.332646 | 3.499189 | 2.0 | 10.170 | 2 | 38.623 | 10.375 | 35.175 | 2 |
| 2025-05-17T08:56:00 | 57.332647 | 3.499476 | 2.0 | 10.164 | 2 | 38.601 | 10.371 | 35.157 | 2 |
| 2025-05-17T08:57:00 | 57.332680 | 3.499708 | 2.0 | 10.167 | 2 | 38.384 | 10.363 | 34.944 | 2 |
| 2025-05-17T08:58:00 | 57.332593 | 3.499849 | 2.0 | 10.184 | 2 | 38.546 | 10.374 | 35.098 | 2 |
| 2025-05-17T08:59:00 | 57.332476 | 3.499960 | 2.0 | 10.179 | 2 | 38.631 | 10.384 | 35.175 | 2 |
| 2025-05-17T09:00:00 | 57.332402 | 3.499927 | 2.0 | 10.182 | 2 | 38.629 | 10.382 | 35.175 | 2 |
| 2025-05-17T09:01:00 | 57.332374 | 3.499769 | 2.0 | 10.179 | 2 | 38.630 | 10.383 | 35.175 | 2 |
| 2025-05-17T09:02:00 | 57.332539 | 3.499712 | 2.0 | 10.171 | 2 | 38.626 | 10.378 | 35.176 | 2 |
| 2025-05-17T09:03:00 | 57.332716 | 3.499794 | 2.0 | 10.178 | 2 | 38.623 | 10.376 | 35.174 | 2 |
| 2025-05-17T09:04:00 | 57.332887 | 3.499917 | 2.0 | 10.178 | 2 | 38.627 | 10.379 | 35.176 | 2 |
| 2025-05-17T09:05:00 | 57.333117 | 3.499906 | 2.0 | 10.184 | 2 | 38.239 | 10.381 | 34.780 | 2 |
| 2025-05-17T09:06:00 | 57.333281 | 3.499935 | 2.0 | 10.187 | 2 | 38.575 | 10.388 | 35.114 | 2 |
| 2025-05-17T09:07:00 | 57.333404 | 3.499803 | 2.0 | 10.182 | 2 | 38.220 | 10.388 | 34.754 | 2 |
| 2025-05-17T09:08:00 | 57.333342 | 3.498323 | 2.0 | 10.175 | 2 | 37.662 | 10.383 | 34.194 | 2 |
| 2025-05-17T09:09:00 | 57.333276 | 3.495293 | 2.0 | 10.183 | 2 | 38.163 | 10.379 | 34.705 | 2 |
| 2025-05-17T09:10:00 | 57.333228 | 3.490925 | 2.0 | 10.179 | 2 | 37.602 | 10.388 | 34.128 | 2 |
| 2025-05-17T09:11:00 | 57.333196 | 3.485880 | 2.0 | 10.180 | 2 | 37.563 | 10.388 | 34.089 | 2 |
| 2025-05-17T09:12:00 | 57.333137 | 3.480787 | 2.0 | 10.189 | 2 | 37.952 | 10.382 | 34.488 | 2 |
| 2025-05-17T09:13:00 | 57.333107 | 3.475594 | 2.0 | 10.206 | 2 | 37.633 | 10.387 | 34.161 | 2 |
| 2025-05-17T09:15:00 | 57.332911 | 3.465107 | 2.0 | 10.223 | 2 | 37.993 | 10.405 | 34.508 | 2 |
| 2025-05-17T09:16:00 | 57.332733 | 3.459915 | 2.0 | 10.230 | 2 | 37.941 | 10.412 | 34.449 | 2 |
| 2025-05-17T09:17:00 | 57.332559 | 3.454719 | 2.0 | 10.233 | 2 | 37.637 | 10.417 | 34.136 | 2 |
| 2025-05-17T09:18:00 | 57.332366 | 3.449548 | 2.0 | 10.229 | 2 | 38.034 | 10.419 | 34.536 | 2 |
| 2025-05-17T09:19:00 | 57.332208 | 3.444302 | 2.0 | 10.225 | 2 | 37.854 | 10.415 | 34.358 | 2 |
| 2025-05-17T09:20:00 | 57.332066 | 3.439022 | 2.0 | 10.219 | 2 | 37.608 | 10.409 | 34.115 | 2 |
| 2025-05-17T09:21:00 | 57.331902 | 3.433814 | 2.0 | 10.223 | 2 | 37.657 | 10.403 | 34.170 | 2 |
| 2025-05-17T09:22:00 | 57.331719 | 3.428616 | 2.0 | 10.231 | 2 | 37.635 | 10.409 | 34.142 | 2 |
| 2025-05-17T09:23:00 | 57.331564 | 3.423444 | 2.0 | 10.237 | 2 | 38.104 | 10.415 | 34.611 | 2 |
| 2025-05-17T09:24:00 | 57.331412 | 3.418199 | 2.0 | 10.240 | 2 | 37.935 | 10.420 | 34.435 | 2 |
| 2025-05-17T09:25:00 | 57.331247 | 3.413010 | 2.0 | 10.245 | 2 | 38.465 | 10.425 | 34.967 | 2 |
| 2025-05-17T09:26:00 | 57.331075 | 3.407842 | 2.0 | 10.242 | 2 | 38.672 | 10.428 | 35.174 | 2 |
| 2025-05-17T09:27:00 | 57.330933 | 3.402608 | 2.0 | 10.240 | 2 | 38.670 | 10.425 | 35.175 | 2 |
| 2025-05-17T09:28:00 | 57.330801 | 3.397340 | 2.0 | 10.229 | 2 | 38.666 | 10.419 | 35.176 | 2 |
| 2025-05-17T09:29:00 | 57.330636 | 3.392101 | 2.0 | 10.224 | 2 | 38.657 | 10.411 | 35.175 | 2 |
| 2025-05-17T09:30:00 | 57.330501 | 3.386870 | 2.0 | 10.208 | 2 | 38.651 | 10.404 | 35.176 | 2 |
| 2025-05-17T09:31:00 | 57.330357 | 3.381612 | 2.0 | 10.187 | 2 | 38.634 | 10.386 | 35.176 | 2 |
| 2025-05-17T09:32:00 | 57.330205 | 3.376340 | 2.0 | 10.192 | 2 | 38.617 | 10.372 | 35.172 | 2 |
| 2025-05-17T09:33:00 | 57.330046 | 3.371059 | 2.0 | 10.195 | 2 | 38.618 | 10.373 | 35.172 | 2 |
| 2025-05-17T09:34:00 | 57.329912 | 3.365813 | 2.0 | 10.195 | 2 | 38.620 | 10.375 | 35.172 | 2 |
| 2025-05-17T09:35:00 | 57.329772 | 3.360561 | 2.0 | 10.195 | 2 | 38.620 | 10.375 | 35.172 | 2 |
| 2025-05-17T09:36:00 | 57.329644 | 3.355345 | 2.0 | 10.202 | 2 | 38.621 | 10.377 | 35.171 | 2 |
| 2025-05-17T09:37:00 | 57.329490 | 3.350112 | 2.0 | 10.207 | 2 | 38.627 | 10.384 | 35.171 | 2 |
| 2025-05-17T09:38:00 | 57.329379 | 3.344872 | 2.0 | 10.213 | 2 | 38.631 | 10.388 | 35.171 | 2 |
| 2025-05-17T09:39:00 | 57.329527 | 3.339957 | 2.0 | 10.214 | 2 | 38.636 | 10.394 | 35.170 | 2 |
| 2025-05-17T09:40:00 | 57.330209 | 3.336329 | 2.0 | 10.215 | 2 | 38.635 | 10.395 | 35.168 | 2 |
| 2025-05-17T09:41:00 | 57.330969 | 3.335180 | 2.0 | 10.215 | 2 | 38.629 | 10.392 | 35.165 | 2 |
| 2025-05-17T09:42:00 | 57.331344 | 3.334722 | 2.0 | 10.213 | 2 | 38.632 | 10.391 | 35.169 | 2 |
| 2025-05-17T09:43:00 | 57.331490 | 3.334303 | 2.0 | 10.214 | 2 | 38.631 | 10.391 | 35.168 | 2 |
| 2025-05-17T09:44:00 | 57.331500 | 3.333923 | 2.0 | 10.214 | 2 | 38.634 | 10.390 | 35.172 | 2 |
| 2025-05-17T09:45:00 | 57.331489 | 3.333644 | 2.0 | 10.214 | 2 | 38.634 | 10.390 | 35.172 | 2 |
| 2025-05-17T09:46:00 | 57.331395 | 3.333477 | 2.0 | 10.213 | 2 | 38.612 | 10.389 | 35.151 | 2 |
| 2025-05-17T09:47:00 | 57.331539 | 3.333314 | 2.0 | 10.213 | 2 | 38.627 | 10.389 | 35.166 | 2 |
| 2025-05-17T09:48:00 | 57.331742 | 3.333279 | 2.0 | 10.214 | 2 | 38.623 | 10.389 | 35.162 | 2 |
| 2025-05-17T09:49:00 | 57.331828 | 3.333318 | 2.0 | 10.215 | 2 | 38.631 | 10.388 | 35.171 | 2 |
| 2025-05-17T09:50:00 | 57.331881 | 3.333398 | 2.0 | 10.213 | 2 | 38.631 | 10.391 | 35.168 | 2 |
| 2025-05-17T09:51:00 | 57.331870 | 3.333448 | 2.0 | 10.214 | 2 | 38.631 | 10.389 | 35.170 | 2 |
| 2025-05-17T09:52:00 | 57.331857 | 3.333461 | 2.0 | 10.214 | 2 | 38.632 | 10.389 | 35.171 | 2 |
| 2025-05-17T09:53:00 | 57.331840 | 3.333590 | 2.0 | 10.215 | 2 | 38.634 | 10.389 | 35.173 | 2 |
| 2025-05-17T09:54:00 | 57.331845 | 3.333725 | 2.0 | 10.216 | 2 | 38.635 | 10.390 | 35.173 | 2 |
| 2025-05-17T09:55:00 | 57.331960 | 3.333864 | 2.0 | 10.217 | 2 | 38.635 | 10.391 | 35.172 | 2 |
| 2025-05-17T09:56:00 | 57.331990 | 3.333831 | 2.0 | 10.218 | 2 | 38.636 | 10.393 | 35.171 | 2 |
| 2025-05-17T09:57:00 | 57.332054 | 3.333643 | 2.0 | 10.216 | 2 | 38.593 | 10.391 | 35.129 | 2 |
| 2025-05-17T09:58:00 | 57.332229 | 3.333546 | 2.0 | 10.212 | 2 | 38.633 | 10.390 | 35.171 | 2 |
| 2025-05-17T09:59:00 | 57.332380 | 3.333555 | 2.0 | 10.212 | 2 | 38.618 | 10.387 | 35.159 | 2 |
| 2025-05-17T10:00:00 | 57.332456 | 3.333566 | 2.0 | 10.209 | 2 | 38.631 | 10.385 | 35.174 | 2 |
| 2025-05-17T10:01:00 | 57.332440 | 3.333684 | 2.0 | 10.215 | 2 | 38.629 | 10.385 | 35.172 | 2 |
| 2025-05-17T10:02:00 | 57.332403 | 3.333830 | 2.0 | 10.218 | 2 | 38.633 | 10.389 | 35.172 | 2 |
| 2025-05-17T10:03:00 | 57.332343 | 3.333995 | 2.0 | 10.218 | 2 | 38.635 | 10.392 | 35.171 | 2 |
| 2025-05-17T10:04:00 | 57.332240 | 3.334146 | 2.0 | 10.216 | 2 | 38.635 | 10.390 | 35.173 | 2 |
| 2025-05-17T10:05:00 | 57.332145 | 3.334299 | 2.0 | 10.215 | 2 | 38.571 | 10.390 | 35.108 | 2 |
| 2025-05-17T10:06:00 | 57.332010 | 3.334359 | 2.0 | 10.215 | 2 | 38.632 | 10.388 | 35.172 | 2 |
| 2025-05-17T10:07:00 | 57.332003 | 3.334340 | 2.0 | 10.216 | 2 | 37.692 | 10.389 | 34.218 | 2 |
| 2025-05-17T10:08:00 | 57.332139 | 3.334379 | 2.0 | 10.215 | 2 | 38.503 | 10.390 | 35.039 | 2 |
| 2025-05-17T10:09:00 | 57.332242 | 3.334351 | 2.0 | 10.214 | 2 | 38.632 | 10.389 | 35.171 | 2 |
| 2025-05-17T10:10:00 | 57.332310 | 3.334419 | 2.0 | 10.214 | 2 | 38.563 | 10.389 | 35.101 | 2 |
| 2025-05-17T10:11:00 | 57.332397 | 3.334354 | 2.0 | 10.214 | 2 | 38.055 | 10.389 | 34.586 | 2 |
| 2025-05-17T10:12:00 | 57.332397 | 3.334215 | 2.0 | 10.215 | 2 | 38.305 | 10.389 | 34.839 | 2 |
| 2025-05-17T10:13:00 | 57.332341 | 3.334145 | 2.0 | 10.214 | 2 | 38.322 | 10.389 | 34.856 | 2 |
| 2025-05-17T10:14:00 | 57.332392 | 3.334067 | 2.0 | 10.213 | 2 | 37.977 | 10.388 | 34.508 | 2 |
| 2025-05-17T10:15:00 | 57.332487 | 3.334033 | 2.0 | 10.211 | 2 | 37.777 | 10.386 | 34.307 | 2 |
| 2025-05-17T10:16:00 | 57.332662 | 3.334042 | 2.0 | 10.209 | 2 | 37.915 | 10.383 | 34.450 | 2 |
| 2025-05-17T10:17:00 | 57.332765 | 3.334043 | 2.0 | 10.215 | 2 | 37.826 | 10.383 | 34.360 | 2 |
| 2025-05-17T10:18:00 | 57.332776 | 3.334091 | 2.0 | 10.215 | 2 | 38.207 | 10.388 | 34.741 | 2 |
| 2025-05-17T10:19:00 | 57.332708 | 3.334022 | 2.0 | 10.213 | 2 | 37.681 | 10.387 | 34.209 | 2 |
| 2025-05-17T10:20:00 | 57.332725 | 3.333884 | 2.0 | 10.211 | 2 | 38.297 | 10.386 | 34.834 | 2 |
| 2025-05-17T10:21:00 | 57.332849 | 3.333756 | 2.0 | 10.210 | 2 | 38.333 | 10.383 | 34.873 | 2 |
| 2025-05-17T10:22:00 | 57.332953 | 3.333709 | 2.0 | 10.213 | 2 | 38.286 | 10.383 | 34.826 | 2 |
| 2025-05-17T10:23:00 | 57.333010 | 3.333640 | 2.0 | 10.211 | 2 | 38.627 | 10.385 | 35.170 | 2 |
| 2025-05-17T10:24:00 | 57.332984 | 3.333533 | 2.0 | 10.210 | 2 | 38.199 | 10.383 | 34.737 | 2 |
| 2025-05-17T10:25:00 | 57.332999 | 3.333509 | 2.0 | 10.203 | 2 | 38.240 | 10.381 | 34.781 | 2 |
| 2025-05-17T10:26:00 | 57.333002 | 3.333558 | 2.0 | 10.208 | 2 | 37.905 | 10.377 | 34.445 | 2 |
| 2025-05-17T10:27:00 | 57.333010 | 3.333663 | 2.0 | 10.211 | 2 | 38.314 | 10.380 | 34.857 | 2 |
| 2025-05-17T10:28:00 | 57.332995 | 3.333554 | 2.0 | 10.211 | 2 | 38.332 | 10.384 | 34.871 | 2 |
| 2025-05-17T10:29:00 | 57.332926 | 3.333319 | 2.0 | 10.211 | 2 | 38.274 | 10.384 | 34.813 | 2 |
| 2025-05-17T10:30:00 | 57.332904 | 3.333177 | 2.0 | 10.211 | 2 | 37.942 | 10.389 | 34.471 | 2 |
| 2025-05-17T10:31:00 | 57.332885 | 3.333195 | 2.0 | 10.209 | 2 | 38.216 | 10.394 | 34.744 | 2 |
| 2025-05-17T10:32:00 | 57.332960 | 3.333264 | 2.0 | 10.208 | 2 | 38.024 | 10.396 | 34.548 | 2 |
| 2025-05-17T10:33:00 | 57.333036 | 3.333274 | 2.0 | 10.204 | 2 | 38.047 | 10.397 | 34.570 | 2 |
| 2025-05-17T10:34:00 | 57.333058 | 3.333165 | 2.0 | 10.208 | 2 | 38.373 | 10.395 | 34.902 | 2 |
| 2025-05-17T10:35:00 | 57.332990 | 3.332997 | 2.0 | 10.210 | 2 | 38.023 | 10.400 | 34.543 | 2 |
| 2025-05-17T10:36:00 | 57.333002 | 3.332867 | 2.0 | 10.208 | 2 | 38.538 | 10.403 | 35.062 | 2 |
| 2025-05-17T10:37:00 | 57.333037 | 3.332720 | 2.0 | 10.214 | 2 | 38.274 | 10.403 | 34.794 | 2 |
| 2025-05-17T10:38:00 | 57.333028 | 3.332540 | 2.0 | 10.214 | 2 | 38.216 | 10.410 | 34.729 | 2 |
| 2025-05-17T10:39:00 | 57.332938 | 3.332536 | 2.0 | 10.213 | 2 | 38.388 | 10.409 | 34.904 | 2 |
| 2025-05-17T10:40:00 | 57.332966 | 3.332479 | 2.0 | 10.213 | 2 | 38.256 | 10.409 | 34.770 | 2 |
| 2025-05-17T10:41:00 | 57.332968 | 3.332360 | 2.0 | 10.212 | 2 | 38.259 | 10.409 | 34.773 | 2 |
| 2025-05-17T10:42:00 | 57.332977 | 3.332307 | 2.0 | 10.212 | 2 | 38.394 | 10.408 | 34.911 | 2 |
| 2025-05-17T10:43:00 | 57.333058 | 3.332279 | 2.0 | 10.209 | 2 | 38.313 | 10.408 | 34.829 | 2 |
| 2025-05-17T10:44:00 | 57.333021 | 3.332196 | 2.0 | 10.212 | 2 | 38.452 | 10.407 | 34.971 | 2 |
| 2025-05-17T10:45:00 | 57.332938 | 3.332180 | 2.0 | 10.217 | 2 | 38.277 | 10.409 | 34.792 | 2 |
| 2025-05-17T10:46:00 | 57.332866 | 3.332183 | 2.0 | 10.219 | 2 | 38.488 | 10.416 | 34.999 | 2 |
| 2025-05-17T10:47:00 | 57.332814 | 3.332103 | 2.0 | 10.216 | 2 | 38.382 | 10.415 | 34.892 | 2 |
| 2025-05-17T10:48:00 | 57.332849 | 3.332050 | 2.0 | 10.218 | 2 | 38.511 | 10.416 | 35.022 | 2 |
| 2025-05-17T10:49:00 | 57.332838 | 3.332037 | 2.0 | 10.216 | 2 | 38.480 | 10.415 | 34.992 | 2 |
| 2025-05-17T10:50:00 | 57.332876 | 3.332126 | 2.0 | 10.213 | 2 | 38.283 | 10.414 | 34.793 | 2 |
| 2025-05-17T10:51:00 | 57.332868 | 3.332160 | 2.0 | 10.208 | 2 | 38.460 | 10.411 | 34.975 | 2 |
| 2025-05-17T10:52:00 | 57.332847 | 3.332102 | 2.0 | 10.215 | 2 | 38.480 | 10.409 | 34.997 | 2 |
| 2025-05-17T10:53:00 | 57.332901 | 3.331949 | 2.0 | 10.211 | 2 | 38.426 | 10.413 | 34.939 | 2 |
| 2025-05-17T10:54:00 | 57.332888 | 3.331729 | 2.0 | 10.213 | 2 | 38.467 | 10.411 | 34.982 | 2 |
| 2025-05-17T10:55:00 | 57.332873 | 3.331563 | 2.0 | 10.214 | 2 | 38.516 | 10.413 | 35.030 | 2 |
| 2025-05-17T10:56:00 | 57.332837 | 3.331510 | 2.0 | 10.215 | 2 | 38.493 | 10.413 | 35.007 | 2 |
| 2025-05-17T10:57:00 | 57.332912 | 3.331576 | 2.0 | 10.215 | 2 | 38.396 | 10.414 | 34.907 | 2 |
| 2025-05-17T10:58:00 | 57.332904 | 3.331696 | 2.0 | 10.215 | 2 | 38.406 | 10.414 | 34.918 | 2 |
| 2025-05-17T10:59:00 | 57.332943 | 3.331787 | 2.0 | 10.214 | 2 | 38.436 | 10.414 | 34.948 | 2 |
| 2025-05-17T11:00:00 | 57.332951 | 3.331890 | 2.0 | 10.212 | 2 | 38.524 | 10.414 | 35.037 | 2 |
| 2025-05-17T11:01:00 | 57.332942 | 3.332002 | 2.0 | 10.211 | 2 | 38.445 | 10.411 | 34.960 | 2 |
| 2025-05-17T11:02:00 | 57.332900 | 3.331994 | 2.0 | 10.211 | 2 | 38.570 | 10.412 | 35.086 | 2 |
| 2025-05-17T11:03:00 | 57.332922 | 3.331982 | 2.0 | 10.207 | 2 | 38.453 | 10.410 | 34.969 | 2 |
| 2025-05-17T11:04:00 | 57.332970 | 3.332089 | 2.0 | 10.206 | 2 | 38.533 | 10.407 | 35.053 | 2 |
| 2025-05-17T11:05:00 | 57.332975 | 3.332248 | 2.0 | 10.209 | 2 | 38.462 | 10.406 | 34.982 | 2 |
| 2025-05-17T11:06:00 | 57.332916 | 3.332310 | 2.0 | 10.212 | 2 | 38.465 | 10.409 | 34.982 | 2 |
| 2025-05-17T11:07:00 | 57.332833 | 3.332355 | 2.0 | 10.214 | 2 | 38.535 | 10.413 | 35.049 | 2 |
| 2025-05-17T11:08:00 | 57.332892 | 3.332307 | 2.0 | 10.212 | 2 | 38.548 | 10.414 | 35.062 | 2 |
| 2025-05-17T11:09:00 | 57.332941 | 3.332195 | 2.0 | 10.212 | 2 | 38.531 | 10.412 | 35.046 | 2 |
| 2025-05-17T11:10:00 | 57.332973 | 3.332103 | 2.0 | 10.212 | 2 | 38.507 | 10.412 | 35.022 | 2 |
| 2025-05-17T11:11:00 | 57.332946 | 3.331975 | 2.0 | 10.212 | 2 | 38.517 | 10.413 | 35.031 | 2 |
| 2025-05-17T11:12:00 | 57.332979 | 3.331870 | 2.0 | 10.212 | 2 | 38.575 | 10.413 | 35.090 | 2 |
| 2025-05-17T11:13:00 | 57.332956 | 3.331936 | 2.0 | 10.215 | 2 | 38.566 | 10.414 | 35.080 | 2 |
| 2025-05-17T11:14:00 | 57.332939 | 3.332061 | 2.0 | 10.216 | 2 | 38.572 | 10.417 | 35.083 | 2 |
| 2025-05-17T11:15:00 | 57.332849 | 3.332096 | 2.0 | 10.218 | 2 | 38.572 | 10.418 | 35.082 | 2 |
| 2025-05-17T11:16:00 | 57.332848 | 3.331940 | 2.0 | 10.218 | 2 | 38.565 | 10.419 | 35.074 | 2 |
| 2025-05-17T11:17:00 | 57.332852 | 3.331709 | 2.0 | 10.219 | 2 | 38.595 | 10.420 | 35.103 | 2 |
| 2025-05-17T11:18:00 | 57.332868 | 3.331537 | 2.0 | 10.218 | 2 | 38.619 | 10.420 | 35.128 | 2 |
| 2025-05-17T11:19:00 | 57.332905 | 3.331465 | 2.0 | 10.219 | 2 | 38.588 | 10.421 | 35.095 | 2 |
| 2025-05-17T11:20:00 | 57.332973 | 3.331457 | 2.0 | 10.216 | 2 | 38.631 | 10.420 | 35.140 | 2 |
| 2025-05-17T11:21:00 | 57.333030 | 3.331484 | 2.0 | 10.218 | 2 | 38.608 | 10.418 | 35.119 | 2 |
| 2025-05-17T11:22:00 | 57.333074 | 3.331550 | 2.0 | 10.220 | 2 | 38.614 | 10.420 | 35.123 | 2 |
| 2025-05-17T11:23:00 | 57.333072 | 3.331602 | 2.0 | 10.223 | 2 | 38.653 | 10.424 | 35.158 | 2 |
| 2025-05-17T11:24:00 | 57.333034 | 3.331646 | 2.0 | 10.221 | 2 | 38.651 | 10.425 | 35.155 | 2 |
| 2025-05-17T11:25:00 | 57.333000 | 3.331724 | 2.0 | 10.218 | 2 | 38.647 | 10.422 | 35.154 | 2 |
| 2025-05-17T11:26:00 | 57.332987 | 3.331887 | 2.0 | 10.220 | 2 | 38.657 | 10.421 | 35.165 | 2 |
| 2025-05-17T11:27:00 | 57.332993 | 3.332026 | 2.0 | 10.221 | 2 | 38.649 | 10.422 | 35.156 | 2 |
| 2025-05-17T11:28:00 | 57.332971 | 3.332114 | 2.0 | 10.221 | 2 | 38.660 | 10.424 | 35.166 | 2 |
| 2025-05-17T11:29:00 | 57.332931 | 3.332112 | 2.0 | 10.221 | 2 | 38.658 | 10.423 | 35.164 | 2 |
| 2025-05-17T11:30:00 | 57.332866 | 3.332049 | 2.0 | 10.223 | 2 | 38.656 | 10.424 | 35.161 | 2 |
| 2025-05-17T11:31:00 | 57.332961 | 3.332041 | 2.0 | 10.221 | 2 | 38.665 | 10.424 | 35.171 | 2 |
| 2025-05-17T11:32:00 | 57.333121 | 3.332060 | 2.0 | 10.221 | 2 | 38.664 | 10.423 | 35.171 | 2 |
| 2025-05-17T11:33:00 | 57.333150 | 3.332112 | 2.0 | 10.224 | 2 | 38.662 | 10.425 | 35.167 | 2 |
| 2025-05-17T11:34:00 | 57.333029 | 3.332267 | 2.0 | 10.226 | 2 | 38.667 | 10.426 | 35.171 | 2 |
| 2025-05-17T11:35:00 | 57.332966 | 3.332423 | 2.0 | 10.227 | 2 | 38.669 | 10.428 | 35.171 | 2 |
| 2025-05-17T11:36:00 | 57.332980 | 3.332485 | 2.0 | 10.227 | 2 | 38.670 | 10.429 | 35.171 | 2 |
| 2025-05-17T11:37:00 | 57.333020 | 3.332404 | 2.0 | 10.225 | 2 | 38.670 | 10.430 | 35.170 | 2 |
| 2025-05-17T11:38:00 | 57.333009 | 3.332313 | 2.0 | 10.225 | 2 | 38.669 | 10.428 | 35.171 | 2 |
| 2025-05-17T11:39:00 | 57.332987 | 3.332282 | 2.0 | 10.225 | 2 | 38.669 | 10.428 | 35.171 | 2 |
| 2025-05-17T11:40:00 | 57.333047 | 3.332310 | 2.0 | 10.224 | 2 | 38.669 | 10.428 | 35.171 | 2 |
| 2025-05-17T11:41:00 | 57.333049 | 3.332291 | 2.0 | 10.224 | 2 | 38.669 | 10.428 | 35.171 | 2 |
| 2025-05-17T11:42:00 | 57.332996 | 3.332104 | 2.0 | 10.223 | 2 | 38.669 | 10.428 | 35.171 | 2 |
| 2025-05-17T11:43:00 | 57.333025 | 3.331883 | 2.0 | 10.221 | 2 | 38.668 | 10.427 | 35.171 | 2 |
| 2025-05-17T11:44:00 | 57.333002 | 3.331852 | 2.0 | 10.220 | 2 | 38.665 | 10.424 | 35.171 | 2 |
| 2025-05-17T11:45:00 | 57.333059 | 3.331894 | 2.0 | 10.221 | 2 | 38.665 | 10.424 | 35.171 | 2 |
| 2025-05-17T11:46:00 | 57.333090 | 3.331908 | 2.0 | 10.222 | 2 | 38.666 | 10.426 | 35.170 | 2 |
| 2025-05-17T11:47:00 | 57.332996 | 3.331846 | 2.0 | 10.214 | 2 | 38.577 | 10.425 | 35.080 | 2 |
| 2025-05-17T11:48:00 | 57.333074 | 3.331814 | 2.0 | 10.215 | 2 | 37.991 | 10.417 | 34.494 | 2 |
| 2025-05-17T11:49:00 | 57.333175 | 3.331823 | 2.0 | 10.215 | 2 | 38.563 | 10.421 | 35.070 | 2 |
| 2025-05-17T11:50:00 | 57.333162 | 3.331765 | 2.0 | 10.221 | 2 | 37.843 | 10.422 | 34.340 | 2 |
| 2025-05-17T11:51:00 | 57.333145 | 3.331675 | 2.0 | 10.213 | 2 | 37.783 | 10.425 | 34.276 | 2 |
| 2025-05-17T11:52:00 | 57.333167 | 3.331532 | 2.0 | 10.199 | 2 | 38.242 | 10.415 | 34.750 | 2 |
| 2025-05-17T11:53:00 | 57.333204 | 3.331401 | 2.0 | 10.195 | 2 | 38.038 | 10.404 | 34.554 | 2 |
| 2025-05-17T11:54:00 | 57.333264 | 3.331277 | 2.0 | 10.200 | 2 | 37.535 | 10.396 | 34.053 | 2 |
| 2025-05-17T11:55:00 | 57.333308 | 3.331145 | 2.0 | 10.201 | 2 | 38.265 | 10.392 | 34.796 | 2 |
| 2025-05-17T11:56:00 | 57.333368 | 3.331078 | 2.0 | 10.216 | 2 | 38.155 | 10.395 | 34.681 | 2 |
| 2025-05-17T11:57:00 | 57.333410 | 3.330959 | 2.0 | 10.205 | 2 | 38.409 | 10.400 | 34.934 | 2 |
| 2025-05-17T11:58:00 | 57.333431 | 3.330857 | 2.0 | 10.204 | 2 | 38.195 | 10.392 | 34.725 | 2 |
| 2025-05-17T11:59:00 | 57.333427 | 3.330704 | 2.0 | 10.207 | 2 | 38.622 | 10.391 | 35.159 | 2 |
| 2025-05-17T12:00:00 | 57.333332 | 3.330509 | 2.0 | 10.209 | 2 | 37.797 | 10.391 | 34.323 | 2 |
| 2025-05-17T12:01:00 | 57.333235 | 3.330399 | 2.0 | 10.216 | 2 | 38.188 | 10.393 | 34.717 | 2 |
| 2025-05-17T12:02:00 | 57.333195 | 3.330315 | 2.0 | 10.219 | 2 | 38.115 | 10.399 | 34.637 | 2 |
| 2025-05-17T12:03:00 | 57.333218 | 3.330219 | 2.0 | 10.218 | 2 | 38.214 | 10.401 | 34.735 | 2 |
| 2025-05-17T12:04:00 | 57.333202 | 3.330140 | 2.0 | 10.218 | 2 | 38.199 | 10.399 | 34.722 | 2 |
| 2025-05-17T12:05:00 | 57.333208 | 3.330071 | 2.0 | 10.215 | 2 | 37.982 | 10.398 | 34.503 | 2 |
| 2025-05-17T12:06:00 | 57.333148 | 3.329950 | 2.0 | 10.219 | 2 | 38.206 | 10.398 | 34.730 | 2 |
| 2025-05-17T12:07:00 | 57.333090 | 3.329854 | 2.0 | 10.219 | 2 | 38.197 | 10.399 | 34.720 | 2 |
| 2025-05-17T12:08:00 | 57.333112 | 3.329803 | 2.0 | 10.219 | 2 | 38.058 | 10.399 | 34.579 | 2 |
| 2025-05-17T12:09:00 | 57.333096 | 3.329682 | 2.0 | 10.220 | 2 | 38.082 | 10.399 | 34.604 | 2 |
| 2025-05-17T12:10:00 | 57.333129 | 3.329518 | 2.0 | 10.218 | 2 | 38.230 | 10.398 | 34.755 | 2 |
| 2025-05-17T12:11:00 | 57.333427 | 3.329965 | 2.0 | 10.220 | 2 | 38.360 | 10.396 | 34.888 | 2 |
| 2025-05-17T12:12:00 | 57.332775 | 3.330801 | 2.0 | 10.208 | 2 | 38.344 | 10.396 | 34.872 | 2 |
| 2025-05-17T12:13:00 | 57.331547 | 3.330321 | 2.0 | 10.227 | 2 | 38.076 | 10.390 | 34.606 | 2 |
| 2025-05-17T12:14:00 | 57.329952 | 3.328284 | 2.0 | 10.231 | 2 | 38.061 | 10.407 | 34.575 | 2 |
| 2025-05-17T12:15:00 | 57.328110 | 3.324646 | 2.0 | 10.231 | 2 | 37.935 | 10.413 | 34.441 | 2 |
| 2025-05-17T12:16:00 | 57.325928 | 3.321059 | 2.0 | 10.229 | 2 | 37.913 | 10.413 | 34.419 | 2 |
| 2025-05-17T12:17:00 | 57.323628 | 3.317498 | 2.0 | 10.230 | 2 | 38.295 | 10.412 | 34.807 | 2 |
| 2025-05-17T12:18:00 | 57.321318 | 3.313894 | 2.0 | 10.231 | 2 | 37.914 | 10.412 | 34.421 | 2 |
| 2025-05-17T12:19:00 | 57.319474 | 3.309930 | 2.0 | 10.232 | 2 | 38.361 | 10.410 | 34.876 | 2 |
| 2025-05-17T12:20:00 | 57.318397 | 3.305135 | 2.0 | 10.234 | 2 | 38.191 | 10.413 | 34.701 | 2 |
| 2025-05-17T12:21:00 | 57.317452 | 3.299971 | 2.0 | 10.229 | 2 | 38.019 | 10.414 | 34.526 | 2 |
| 2025-05-17T12:22:00 | 57.316654 | 3.294661 | 2.0 | 10.234 | 2 | 38.231 | 10.411 | 34.743 | 2 |
| 2025-05-17T12:23:00 | 57.315844 | 3.289333 | 2.0 | 10.246 | 2 | 38.147 | 10.417 | 34.652 | 2 |
| 2025-05-17T12:24:00 | 57.315014 | 3.283982 | 2.0 | 10.252 | 2 | 38.252 | 10.427 | 34.749 | 2 |
| 2025-05-17T12:25:00 | 57.314223 | 3.278760 | 2.0 | 10.260 | 2 | 38.336 | 10.433 | 34.828 | 2 |
| 2025-05-17T12:26:00 | 57.313406 | 3.273539 | 2.0 | 10.271 | 2 | 38.242 | 10.442 | 34.725 | 2 |
| 2025-05-17T12:27:00 | 57.312606 | 3.268264 | 2.0 | 10.279 | 2 | 38.238 | 10.451 | 34.712 | 2 |
| 2025-05-17T12:28:00 | 57.311783 | 3.262980 | 2.0 | 10.279 | 2 | 38.298 | 10.459 | 34.765 | 2 |
| 2025-05-17T12:29:00 | 57.310988 | 3.257715 | 2.0 | 10.279 | 2 | 38.289 | 10.458 | 34.757 | 2 |
| 2025-05-17T12:30:00 | 57.310255 | 3.252431 | 2.0 | 10.285 | 2 | 38.287 | 10.460 | 34.753 | 2 |
| 2025-05-17T12:31:00 | 57.310653 | 3.247208 | 2.0 | 10.286 | 2 | 38.404 | 10.464 | 34.868 | 2 |
| 2025-05-17T12:32:00 | 57.311723 | 3.242474 | 2.0 | 10.289 | 2 | 38.404 | 10.465 | 34.867 | 2 |
| 2025-05-17T12:33:00 | 57.312832 | 3.237765 | 2.0 | 10.287 | 2 | 38.363 | 10.466 | 34.824 | 2 |
| 2025-05-17T12:34:00 | 57.313944 | 3.233069 | 2.0 | 10.283 | 2 | 38.413 | 10.464 | 34.877 | 2 |
| 2025-05-17T12:35:00 | 57.315037 | 3.228397 | 2.0 | 10.282 | 2 | 38.398 | 10.463 | 34.862 | 2 |
| 2025-05-17T12:36:00 | 57.316155 | 3.223693 | 2.0 | 10.283 | 2 | 38.472 | 10.462 | 34.938 | 2 |
| 2025-05-17T12:37:00 | 57.317259 | 3.219043 | 2.0 | 10.278 | 2 | 38.441 | 10.460 | 34.909 | 2 |
| 2025-05-17T12:38:00 | 57.318378 | 3.214392 | 2.0 | 10.267 | 2 | 38.509 | 10.456 | 34.982 | 2 |
| 2025-05-17T12:39:00 | 57.319444 | 3.209878 | 2.0 | 10.269 | 2 | 38.423 | 10.447 | 34.903 | 2 |
| 2025-05-17T12:40:00 | 57.320485 | 3.205326 | 2.0 | 10.267 | 2 | 38.275 | 10.447 | 34.753 | 2 |
| 2025-05-17T12:41:00 | 57.321580 | 3.200754 | 2.0 | 10.276 | 2 | 38.394 | 10.448 | 34.873 | 2 |
| 2025-05-17T12:42:00 | 57.322724 | 3.196057 | 2.0 | 10.281 | 2 | 38.685 | 10.455 | 35.161 | 2 |
| 2025-05-17T12:43:00 | 57.323867 | 3.191324 | 2.0 | 10.280 | 2 | 37.558 | 10.459 | 34.017 | 3 |
| 2025-05-17T12:44:00 | 57.325049 | 3.186534 | 2.0 | 10.275 | 2 | 38.610 | 10.460 | 35.080 | 2 |
| 2025-05-17T12:45:00 | 57.326504 | 3.182313 | 2.0 | 10.266 | 2 | 38.685 | 10.453 | 35.163 | 2 |
| 2025-05-17T12:46:00 | 57.328007 | 3.178218 | 2.0 | 10.251 | 2 | 38.676 | 10.443 | 35.163 | 2 |
| 2025-05-17T12:47:00 | 57.329490 | 3.174151 | 2.0 | 10.240 | 2 | 38.301 | 10.431 | 34.795 | 2 |
| 2025-05-17T12:48:00 | 57.330907 | 3.171133 | 2.0 | 10.234 | 2 | 38.534 | 10.418 | 35.044 | 2 |
| 2025-05-17T12:49:00 | 57.331849 | 3.169041 | 2.0 | 10.230 | 2 | 38.646 | 10.409 | 35.166 | 2 |
| 2025-05-17T12:50:00 | 57.332404 | 3.167846 | 2.0 | 10.222 | 2 | 38.642 | 10.404 | 35.167 | 2 |
| 2025-05-17T12:51:00 | 57.332630 | 3.167367 | 2.0 | 10.219 | 2 | 38.633 | 10.394 | 35.167 | 2 |
| 2025-05-17T12:52:00 | 57.332729 | 3.167212 | 2.0 | 10.232 | 2 | 38.635 | 10.398 | 35.165 | 2 |
| 2025-05-17T12:53:00 | 57.332832 | 3.167166 | 2.0 | 10.222 | 2 | 38.641 | 10.404 | 35.166 | 2 |
| 2025-05-17T12:54:00 | 57.332872 | 3.166994 | 2.0 | 10.220 | 2 | 38.634 | 10.396 | 35.166 | 2 |
| 2025-05-17T12:55:00 | 57.332926 | 3.166730 | 2.0 | 10.220 | 2 | 38.632 | 10.394 | 35.166 | 2 |
| 2025-05-17T12:56:00 | 57.332949 | 3.166434 | 2.0 | 10.217 | 2 | 38.632 | 10.394 | 35.166 | 2 |
| 2025-05-17T12:57:00 | 57.332999 | 3.166185 | 2.0 | 10.229 | 2 | 38.631 | 10.394 | 35.165 | 2 |
| 2025-05-17T12:58:00 | 57.333033 | 3.166009 | 2.0 | 10.232 | 2 | 38.529 | 10.403 | 35.053 | 2 |
| 2025-05-17T12:59:00 | 57.333019 | 3.165977 | 2.0 | 10.223 | 2 | 38.635 | 10.404 | 35.160 | 2 |
| 2025-05-17T13:00:00 | 57.332968 | 3.165973 | 2.0 | 10.230 | 2 | 38.115 | 10.398 | 34.638 | 2 |
| 2025-05-17T13:01:00 | 57.332952 | 3.166041 | 2.0 | 10.231 | 2 | 38.640 | 10.403 | 35.166 | 2 |
| 2025-05-17T13:02:00 | 57.332873 | 3.166203 | 2.0 | 10.233 | 2 | 37.869 | 10.405 | 34.382 | 2 |
| 2025-05-17T13:03:00 | 57.332833 | 3.166262 | 2.0 | 10.234 | 2 | 37.702 | 10.407 | 34.212 | 2 |
| 2025-05-17T13:04:00 | 57.332860 | 3.166191 | 2.0 | 10.231 | 2 | 38.502 | 10.408 | 35.021 | 2 |
| 2025-05-17T13:05:00 | 57.332914 | 3.166060 | 2.0 | 10.231 | 2 | 38.461 | 10.404 | 34.983 | 2 |
| 2025-05-17T13:06:00 | 57.332990 | 3.165967 | 2.0 | 10.224 | 2 | 37.938 | 10.403 | 34.454 | 2 |
| 2025-05-17T13:07:00 | 57.333057 | 3.165973 | 2.0 | 10.221 | 2 | 38.357 | 10.398 | 34.883 | 2 |
| 2025-05-17T13:08:00 | 57.333060 | 3.165980 | 2.0 | 10.216 | 2 | 38.115 | 10.394 | 34.642 | 2 |
| 2025-05-17T13:09:00 | 57.333068 | 3.165942 | 2.0 | 10.215 | 2 | 38.397 | 10.390 | 34.932 | 2 |
| 2025-05-17T13:10:00 | 57.332940 | 3.165894 | 2.0 | 10.219 | 2 | 38.121 | 10.389 | 34.653 | 2 |
| 2025-05-17T13:11:00 | 57.332958 | 3.165817 | 2.0 | 10.222 | 2 | 38.572 | 10.393 | 35.106 | 2 |
| 2025-05-17T13:12:00 | 57.333054 | 3.165700 | 2.0 | 10.222 | 2 | 38.062 | 10.395 | 34.587 | 2 |
| 2025-05-17T13:13:00 | 57.333064 | 3.165589 | 2.0 | 10.224 | 2 | 38.090 | 10.398 | 34.613 | 2 |
| 2025-05-17T13:14:00 | 57.333008 | 3.165518 | 2.0 | 10.226 | 2 | 38.644 | 10.409 | 35.164 | 2 |
| 2025-05-17T13:15:00 | 57.333002 | 3.165407 | 2.0 | 10.232 | 2 | 37.928 | 10.414 | 34.433 | 2 |
| 2025-05-17T13:16:00 | 57.333048 | 3.165316 | 2.0 | 10.225 | 2 | 38.405 | 10.421 | 34.910 | 2 |
| 2025-05-17T13:17:00 | 57.333086 | 3.165263 | 2.0 | 10.212 | 2 | 37.939 | 10.416 | 34.443 | 2 |
| 2025-05-17T13:18:00 | 57.333070 | 3.165309 | 2.0 | 10.226 | 2 | 38.167 | 10.409 | 34.680 | 2 |
| 2025-05-17T13:19:00 | 57.332995 | 3.165355 | 2.0 | 10.233 | 2 | 38.157 | 10.421 | 34.659 | 2 |
| 2025-05-17T13:20:00 | 57.332946 | 3.165411 | 2.0 | 10.234 | 2 | 38.490 | 10.429 | 34.988 | 2 |
| 2025-05-17T13:21:00 | 57.332931 | 3.165383 | 2.0 | 10.232 | 2 | 38.364 | 10.430 | 34.860 | 2 |
| 2025-05-17T13:22:00 | 57.332984 | 3.165312 | 2.0 | 10.229 | 2 | 38.049 | 10.429 | 34.542 | 2 |
| 2025-05-17T13:23:00 | 57.332984 | 3.165240 | 2.0 | 10.231 | 2 | 38.113 | 10.426 | 34.609 | 2 |
| 2025-05-17T13:24:00 | 57.332998 | 3.165251 | 2.0 | 10.234 | 2 | 38.521 | 10.429 | 35.020 | 2 |
| 2025-05-17T13:25:00 | 57.332973 | 3.165307 | 2.0 | 10.233 | 2 | 38.427 | 10.432 | 34.922 | 2 |
| 2025-05-17T13:26:00 | 57.332931 | 3.165291 | 2.0 | 10.237 | 2 | 38.134 | 10.431 | 34.626 | 2 |
| 2025-05-17T13:27:00 | 57.332943 | 3.165224 | 2.0 | 10.236 | 2 | 38.415 | 10.436 | 34.906 | 2 |
| 2025-05-17T13:28:00 | 57.332906 | 3.165140 | 2.0 | 10.233 | 2 | 38.530 | 10.434 | 35.024 | 2 |
| 2025-05-17T13:29:00 | 57.332943 | 3.165125 | 2.0 | 10.239 | 2 | 38.183 | 10.434 | 34.673 | 2 |
| 2025-05-17T13:30:00 | 57.332834 | 3.165156 | 2.0 | 10.239 | 2 | 38.194 | 10.437 | 34.681 | 2 |
| 2025-05-17T13:31:00 | 57.332811 | 3.165126 | 2.0 | 10.238 | 2 | 38.289 | 10.438 | 34.776 | 2 |
| 2025-05-17T13:32:00 | 57.332862 | 3.165194 | 2.0 | 10.237 | 2 | 38.460 | 10.436 | 34.951 | 2 |
| 2025-05-17T13:33:00 | 57.332961 | 3.165326 | 2.0 | 10.244 | 2 | 38.419 | 10.436 | 34.910 | 2 |
| 2025-05-17T13:34:00 | 57.333028 | 3.165387 | 2.0 | 10.237 | 2 | 38.394 | 10.442 | 34.879 | 2 |
| 2025-05-17T13:35:00 | 57.333018 | 3.165421 | 2.0 | 10.238 | 2 | 38.384 | 10.437 | 34.873 | 2 |
| 2025-05-17T13:36:00 | 57.333001 | 3.165475 | 2.0 | 10.244 | 2 | 38.459 | 10.439 | 34.947 | 2 |
| 2025-05-17T13:37:00 | 57.333053 | 3.165534 | 2.0 | 10.232 | 2 | 38.315 | 10.441 | 34.799 | 2 |
| 2025-05-17T13:38:00 | 57.333089 | 3.165589 | 2.0 | 10.243 | 2 | 38.463 | 10.434 | 34.956 | 2 |
| 2025-05-17T13:39:00 | 57.333103 | 3.165679 | 2.0 | 10.238 | 2 | 38.399 | 10.442 | 34.884 | 2 |
| 2025-05-17T13:40:00 | 57.333082 | 3.165603 | 2.0 | 10.234 | 2 | 38.452 | 10.438 | 34.941 | 2 |
| 2025-05-17T13:41:00 | 57.333085 | 3.165483 | 2.0 | 10.233 | 2 | 38.327 | 10.433 | 34.819 | 2 |
| 2025-05-17T13:42:00 | 57.333106 | 3.165434 | 2.0 | 10.250 | 2 | 38.489 | 10.438 | 34.979 | 2 |
| 2025-05-17T13:43:00 | 57.333102 | 3.165448 | 2.0 | 10.244 | 2 | 38.444 | 10.448 | 34.923 | 2 |
| 2025-05-17T13:44:00 | 57.333077 | 3.165406 | 2.0 | 10.249 | 2 | 38.483 | 10.445 | 34.966 | 2 |
| 2025-05-17T13:45:00 | 57.333069 | 3.165394 | 2.0 | 10.247 | 2 | 38.521 | 10.450 | 35.000 | 2 |
| 2025-05-17T13:46:00 | 57.333078 | 3.165418 | 2.0 | 10.238 | 2 | 38.524 | 10.446 | 35.006 | 2 |
| 2025-05-17T13:47:00 | 57.333128 | 3.165379 | 2.0 | 10.237 | 2 | 38.524 | 10.439 | 35.013 | 2 |
| 2025-05-17T13:48:00 | 57.333209 | 3.165335 | 2.0 | 10.251 | 2 | 38.415 | 10.442 | 34.900 | 2 |
| 2025-05-17T13:49:00 | 57.333307 | 3.165345 | 2.0 | 10.255 | 2 | 38.448 | 10.454 | 34.922 | 2 |
| 2025-05-17T13:50:00 | 57.333323 | 3.165398 | 2.0 | 10.261 | 2 | 38.462 | 10.458 | 34.932 | 2 |
| 2025-05-17T13:51:00 | 57.333292 | 3.165472 | 2.0 | 10.260 | 2 | 38.545 | 10.465 | 35.009 | 2 |
| 2025-05-17T13:52:00 | 57.333291 | 3.165467 | 2.0 | 10.267 | 2 | 38.541 | 10.464 | 35.006 | 2 |
| 2025-05-17T13:53:00 | 57.333227 | 3.165502 | 2.0 | 10.271 | 2 | 38.527 | 10.472 | 34.984 | 2 |
| 2025-05-17T13:54:00 | 57.333224 | 3.165510 | 2.0 | 10.261 | 2 | 38.504 | 10.468 | 34.965 | 2 |
| 2025-05-17T13:55:00 | 57.333227 | 3.165525 | 2.0 | 10.251 | 2 | 38.530 | 10.450 | 35.009 | 2 |
| 2025-05-17T13:56:00 | 57.333277 | 3.165515 | 2.0 | 10.269 | 2 | 38.529 | 10.442 | 35.015 | 2 |
| 2025-05-17T13:57:00 | 57.333299 | 3.165502 | 2.0 | 10.264 | 2 | 38.533 | 10.453 | 35.009 | 2 |
| 2025-05-17T13:58:00 | 57.333366 | 3.165487 | 2.0 | 10.259 | 2 | 38.511 | 10.447 | 34.992 | 2 |
| 2025-05-17T13:59:00 | 57.333726 | 3.165566 | 2.0 | 10.261 | 2 | 38.520 | 10.443 | 35.005 | 2 |
| 2025-05-17T14:00:00 | 57.334260 | 3.164961 | 2.0 | 10.256 | 2 | 38.463 | 10.444 | 34.947 | 2 |
| 2025-05-17T14:01:00 | 57.334308 | 3.161942 | 2.0 | 10.255 | 2 | 38.660 | 10.438 | 35.152 | 2 |
| 2025-05-17T14:02:00 | 57.334419 | 3.157274 | 2.0 | 10.248 | 2 | 38.645 | 10.436 | 35.139 | 2 |
| 2025-05-17T14:03:00 | 57.334418 | 3.151926 | 2.0 | 10.245 | 2 | 38.601 | 10.433 | 35.097 | 2 |
| 2025-05-17T14:04:00 | 57.334254 | 3.146416 | 2.0 | 10.243 | 2 | 38.604 | 10.430 | 35.103 | 2 |
| 2025-05-17T14:05:00 | 57.334143 | 3.140901 | 2.0 | 10.236 | 2 | 38.624 | 10.426 | 35.127 | 2 |
| 2025-05-17T14:06:00 | 57.334000 | 3.135366 | 2.0 | 10.231 | 2 | 38.601 | 10.420 | 35.110 | 2 |
| 2025-05-17T14:07:00 | 57.333846 | 3.129750 | 2.0 | 10.219 | 2 | 38.597 | 10.411 | 35.114 | 2 |
| 2025-05-17T14:08:00 | 57.333777 | 3.124114 | 2.0 | 10.208 | 2 | 38.609 | 10.399 | 35.138 | 2 |
| 2025-05-17T14:09:00 | 57.333698 | 3.118471 | 2.0 | 10.203 | 2 | 38.627 | 10.392 | 35.163 | 2 |
| 2025-05-17T14:10:00 | 57.333590 | 3.112872 | 2.0 | 10.207 | 2 | 38.585 | 10.386 | 35.126 | 2 |
| 2025-05-17T14:11:00 | 57.333450 | 3.107243 | 2.0 | 10.208 | 2 | 38.595 | 10.389 | 35.133 | 2 |
| 2025-05-17T14:12:00 | 57.333373 | 3.101621 | 2.0 | 10.209 | 2 | 38.604 | 10.392 | 35.140 | 2 |
| 2025-05-17T14:13:00 | 57.333248 | 3.095992 | 2.0 | 10.205 | 2 | 38.605 | 10.390 | 35.143 | 2 |
| 2025-05-17T14:14:00 | 57.333146 | 3.090400 | 2.0 | 10.187 | 2 | 38.616 | 10.384 | 35.160 | 2 |
| 2025-05-17T14:15:00 | 57.333014 | 3.084842 | 2.0 | 10.188 | 2 | 38.602 | 10.369 | 35.160 | 2 |
| 2025-05-17T14:16:00 | 57.332948 | 3.079238 | 2.0 | 10.185 | 2 | 38.601 | 10.370 | 35.158 | 2 |
| 2025-05-17T14:17:00 | 57.332854 | 3.073639 | 2.0 | 10.193 | 2 | 38.596 | 10.368 | 35.155 | 2 |
| 2025-05-17T14:18:00 | 57.332737 | 3.068119 | 2.0 | 10.205 | 2 | 38.601 | 10.375 | 35.153 | 2 |
| 2025-05-17T14:19:00 | 57.332594 | 3.062576 | 2.0 | 10.210 | 2 | 38.611 | 10.384 | 35.155 | 2 |
| 2025-05-17T14:20:00 | 57.332556 | 3.057038 | 2.0 | 10.213 | 2 | 38.619 | 10.391 | 35.156 | 2 |
| 2025-05-17T14:21:00 | 57.332417 | 3.051480 | 2.0 | 10.213 | 2 | 38.619 | 10.391 | 35.156 | 2 |
| 2025-05-17T14:22:00 | 57.332282 | 3.045978 | 2.0 | 10.208 | 2 | 38.617 | 10.395 | 35.150 | 2 |
| 2025-05-17T14:23:00 | 57.332195 | 3.040415 | 2.0 | 10.214 | 2 | 38.616 | 10.390 | 35.154 | 2 |
| 2025-05-17T14:24:00 | 57.332093 | 3.034803 | 2.0 | 10.215 | 2 | 38.621 | 10.396 | 35.153 | 2 |
| 2025-05-17T14:25:00 | 57.332066 | 3.029205 | 2.0 | 10.217 | 2 | 38.620 | 10.398 | 35.150 | 2 |
| 2025-05-17T14:26:00 | 57.332029 | 3.023634 | 2.0 | 10.213 | 2 | 38.618 | 10.397 | 35.149 | 2 |
| 2025-05-17T14:27:00 | 57.332085 | 3.018072 | 2.0 | 10.204 | 2 | 38.614 | 10.393 | 35.149 | 2 |
| 2025-05-17T14:28:00 | 57.332250 | 3.012617 | 2.0 | 10.194 | 2 | 38.605 | 10.384 | 35.148 | 2 |
| 2025-05-17T14:29:00 | 57.332383 | 3.007939 | 2.0 | 10.182 | 2 | 38.592 | 10.370 | 35.149 | 2 |
| 2025-05-17T14:30:00 | 57.332471 | 3.004317 | 2.0 | 10.177 | 2 | 38.579 | 10.360 | 35.145 | 2 |
| 2025-05-17T14:31:00 | 57.332535 | 3.001884 | 2.0 | 10.169 | 2 | 38.571 | 10.354 | 35.143 | 2 |
| 2025-05-17T14:32:00 | 57.332700 | 3.001232 | 2.0 | 10.175 | 2 | 38.566 | 10.348 | 35.144 | 2 |
| 2025-05-17T14:33:00 | 57.332718 | 3.001117 | 2.0 | 10.169 | 2 | 38.568 | 10.351 | 35.143 | 2 |
| 2025-05-17T14:34:00 | 57.332737 | 3.001161 | 2.0 | 10.174 | 2 | 38.566 | 10.348 | 35.144 | 2 |
| 2025-05-17T14:35:00 | 57.332694 | 3.001270 | 2.0 | 10.176 | 2 | 38.567 | 10.350 | 35.143 | 2 |
| 2025-05-17T14:36:00 | 57.332591 | 3.001291 | 2.0 | 10.176 | 2 | 38.570 | 10.352 | 35.144 | 2 |
| 2025-05-17T14:37:00 | 57.332599 | 3.001207 | 2.0 | 10.175 | 2 | 38.569 | 10.351 | 35.144 | 2 |
| 2025-05-17T14:38:00 | 57.332652 | 3.001096 | 2.0 | 10.171 | 2 | 38.570 | 10.352 | 35.144 | 2 |
| 2025-05-17T14:39:00 | 57.332755 | 3.000994 | 2.0 | 10.165 | 2 | 38.564 | 10.344 | 35.146 | 2 |
| 2025-05-17T14:40:00 | 57.332786 | 3.000934 | 2.0 | 10.183 | 2 | 38.561 | 10.343 | 35.143 | 2 |
| 2025-05-17T14:41:00 | 57.332806 | 3.000808 | 2.0 | 10.174 | 2 | 38.572 | 10.354 | 35.144 | 2 |
| 2025-05-17T14:42:00 | 57.332862 | 3.000712 | 2.0 | 10.170 | 2 | 38.567 | 10.349 | 35.144 | 2 |
| 2025-05-17T14:43:00 | 57.332860 | 3.000634 | 2.0 | 10.157 | 2 | 38.562 | 10.342 | 35.145 | 2 |
| 2025-05-17T14:44:00 | 57.332838 | 3.000531 | 2.0 | 10.155 | 2 | 38.551 | 10.332 | 35.144 | 2 |
| 2025-05-17T14:45:00 | 57.332829 | 3.000441 | 2.0 | 10.160 | 2 | 38.549 | 10.330 | 35.144 | 2 |
| 2025-05-17T14:46:00 | 57.332895 | 3.000332 | 2.0 | 10.170 | 2 | 38.555 | 10.337 | 35.143 | 2 |
| 2025-05-17T14:47:00 | 57.332958 | 3.000258 | 2.0 | 10.171 | 2 | 38.563 | 10.345 | 35.144 | 2 |
| 2025-05-17T14:48:00 | 57.332956 | 3.000214 | 2.0 | 10.171 | 2 | 38.564 | 10.345 | 35.145 | 2 |
| 2025-05-17T14:49:00 | 57.332899 | 3.000182 | 2.0 | 10.169 | 2 | 38.564 | 10.345 | 35.145 | 2 |
| 2025-05-17T14:50:00 | 57.332873 | 3.000098 | 2.0 | 10.169 | 2 | 38.562 | 10.344 | 35.143 | 2 |
| 2025-05-17T14:51:00 | 57.332874 | 3.000025 | 2.0 | 10.170 | 2 | 38.560 | 10.341 | 35.144 | 2 |
| 2025-05-17T14:52:00 | 57.332901 | 3.000109 | 2.0 | 10.176 | 2 | 38.565 | 10.347 | 35.144 | 2 |
| 2025-05-17T14:53:00 | 57.332971 | 3.000196 | 2.0 | 10.180 | 2 | 38.569 | 10.351 | 35.144 | 2 |
| 2025-05-17T14:54:00 | 57.333017 | 3.000227 | 2.0 | 10.178 | 2 | 38.571 | 10.353 | 35.144 | 2 |
| 2025-05-17T14:55:00 | 57.332997 | 3.000221 | 2.0 | 10.170 | 2 | 38.571 | 10.352 | 35.145 | 2 |
| 2025-05-17T14:56:00 | 57.333001 | 3.000199 | 2.0 | 10.176 | 2 | 38.485 | 10.346 | 35.063 | 2 |
| 2025-05-17T14:57:00 | 57.333031 | 3.000169 | 2.0 | 10.179 | 2 | 38.569 | 10.351 | 35.144 | 2 |
| 2025-05-17T14:58:00 | 57.333098 | 3.000152 | 2.0 | 10.175 | 2 | 38.570 | 10.352 | 35.144 | 2 |
| 2025-05-17T14:59:00 | 57.333050 | 3.000189 | 2.0 | 10.175 | 2 | 38.577 | 10.360 | 35.143 | 2 |
| 2025-05-17T15:00:00 | 57.333027 | 3.000198 | 2.0 | 10.168 | 2 | 38.534 | 10.361 | 35.099 | 2 |
| 2025-05-17T15:01:00 | 57.332981 | 3.000198 | 2.0 | 10.173 | 2 | 38.579 | 10.361 | 35.144 | 2 |
| 2025-05-17T15:02:00 | 57.332975 | 3.000091 | 2.0 | 10.176 | 2 | 38.583 | 10.366 | 35.144 | 2 |
| 2025-05-17T15:03:00 | 57.332996 | 2.999904 | 2.0 | 10.167 | 2 | 38.586 | 10.368 | 35.145 | 2 |
| 2025-05-17T15:04:00 | 57.333017 | 2.999848 | 2.0 | 10.165 | 2 | 38.579 | 10.360 | 35.145 | 2 |
| 2025-05-17T15:05:00 | 57.332958 | 2.999934 | 2.0 | 10.180 | 2 | 38.581 | 10.364 | 35.143 | 2 |
| 2025-05-17T15:06:00 | 57.332946 | 2.999998 | 2.0 | 10.183 | 2 | 38.534 | 10.376 | 35.084 | 2 |
| 2025-05-17T15:07:00 | 57.332937 | 2.999978 | 2.0 | 10.194 | 2 | 38.595 | 10.379 | 35.143 | 2 |
| 2025-05-17T15:08:00 | 57.332986 | 2.999931 | 2.0 | 10.195 | 2 | 38.607 | 10.392 | 35.143 | 2 |
| 2025-05-17T15:09:00 | 57.332978 | 2.999860 | 2.0 | 10.194 | 2 | 37.917 | 10.393 | 34.442 | 2 |
| 2025-05-17T15:10:00 | 57.332999 | 2.999855 | 2.0 | 10.195 | 2 | 38.610 | 10.393 | 35.145 | 2 |
| 2025-05-17T15:11:00 | 57.333037 | 2.999844 | 2.0 | 10.190 | 2 | 38.047 | 10.392 | 34.575 | 2 |
| 2025-05-17T15:12:00 | 57.333028 | 2.999840 | 2.0 | 10.188 | 2 | 37.924 | 10.387 | 34.455 | 2 |
| 2025-05-17T15:13:00 | 57.332959 | 2.999897 | 2.0 | 10.195 | 2 | 38.028 | 10.389 | 34.558 | 2 |
| 2025-05-17T15:14:00 | 57.332945 | 2.999880 | 2.0 | 10.204 | 2 | 38.155 | 10.394 | 34.682 | 2 |
| 2025-05-17T15:15:00 | 57.332881 | 2.999843 | 2.0 | 10.207 | 2 | 38.505 | 10.403 | 35.029 | 2 |
| 2025-05-17T15:16:00 | 57.332910 | 2.999897 | 2.0 | 10.203 | 2 | 38.615 | 10.405 | 35.138 | 2 |
| 2025-05-17T15:17:00 | 57.332868 | 2.999907 | 2.0 | 10.202 | 2 | 37.685 | 10.402 | 34.199 | 2 |
| 2025-05-17T15:18:00 | 57.332917 | 2.999886 | 2.0 | 10.199 | 2 | 38.008 | 10.401 | 34.527 | 2 |
| 2025-05-17T15:19:00 | 57.332952 | 2.999882 | 2.0 | 10.207 | 2 | 37.840 | 10.402 | 34.356 | 2 |
| 2025-05-17T15:20:00 | 57.332887 | 2.999959 | 2.0 | 10.205 | 2 | 38.208 | 10.405 | 34.726 | 2 |
| 2025-05-17T15:21:00 | 57.332858 | 3.000047 | 2.0 | 10.204 | 2 | 38.294 | 10.406 | 34.812 | 2 |
| 2025-05-17T15:22:00 | 57.332907 | 3.000035 | 2.0 | 10.195 | 2 | 38.576 | 10.404 | 35.100 | 2 |
| 2025-05-17T15:23:00 | 57.332981 | 3.000035 | 2.0 | 10.196 | 2 | 38.443 | 10.397 | 34.971 | 2 |
| 2025-05-17T15:24:00 | 57.333036 | 3.000104 | 2.0 | 10.190 | 2 | 38.250 | 10.394 | 34.779 | 2 |
| 2025-05-17T15:25:00 | 57.333059 | 3.000096 | 2.0 | 10.206 | 2 | 38.237 | 10.394 | 34.765 | 2 |
| 2025-05-17T15:26:00 | 57.333044 | 3.000113 | 2.0 | 10.205 | 2 | 38.013 | 10.405 | 34.528 | 2 |
| 2025-05-17T15:27:00 | 57.333036 | 3.000136 | 2.0 | 10.206 | 2 | 38.234 | 10.405 | 34.752 | 2 |
| 2025-05-17T15:28:00 | 57.333021 | 3.000142 | 2.0 | 10.206 | 2 | 38.312 | 10.407 | 34.829 | 2 |
| 2025-05-17T15:29:00 | 57.333001 | 3.000094 | 2.0 | 10.206 | 2 | 38.432 | 10.408 | 34.950 | 2 |
| 2025-05-17T15:30:00 | 57.333298 | 2.999994 | 2.0 | 10.192 | 2 | 38.225 | 10.406 | 34.742 | 2 |
| 2025-05-17T15:31:00 | 57.334376 | 3.000113 | 2.0 | 10.197 | 2 | 38.076 | 10.397 | 34.599 | 2 |
| 2025-05-17T15:32:00 | 57.334451 | 3.002749 | 2.0 | 10.201 | 2 | 38.066 | 10.398 | 34.588 | 2 |
| 2025-05-17T15:33:00 | 57.332354 | 3.005345 | 2.0 | 10.207 | 2 | 38.085 | 10.407 | 34.599 | 2 |
| 2025-05-17T15:34:00 | 57.330390 | 3.009155 | 2.0 | 10.216 | 2 | 38.111 | 10.407 | 34.625 | 2 |
| 2025-05-17T15:35:00 | 57.328363 | 3.013357 | 2.0 | 10.231 | 2 | 38.309 | 10.412 | 34.821 | 2 |
| 2025-05-17T15:36:00 | 57.326212 | 3.017510 | 2.0 | 10.244 | 2 | 38.124 | 10.423 | 34.623 | 2 |
| 2025-05-17T15:37:00 | 57.324075 | 3.021620 | 2.0 | 10.258 | 2 | 38.170 | 10.434 | 34.659 | 2 |
| 2025-05-17T15:38:00 | 57.321977 | 3.025726 | 2.0 | 10.262 | 2 | 38.342 | 10.443 | 34.825 | 2 |
| 2025-05-17T15:39:00 | 57.319829 | 3.029765 | 2.0 | 10.261 | 2 | 38.510 | 10.445 | 34.993 | 2 |
| 2025-05-17T15:40:00 | 57.317680 | 3.033841 | 2.0 | 10.261 | 2 | 38.432 | 10.446 | 34.913 | 2 |
| 2025-05-17T15:41:00 | 57.315543 | 3.037793 | 2.0 | 10.252 | 2 | 38.410 | 10.443 | 34.894 | 2 |
| 2025-05-17T15:42:00 | 57.313440 | 3.041878 | 2.0 | 10.252 | 2 | 38.247 | 10.438 | 34.733 | 2 |
| 2025-05-17T15:43:00 | 57.311286 | 3.045993 | 2.0 | 10.256 | 2 | 38.318 | 10.437 | 34.806 | 2 |
| 2025-05-17T15:44:00 | 57.309159 | 3.050147 | 2.0 | 10.260 | 2 | 38.524 | 10.437 | 35.015 | 2 |
| 2025-05-17T15:45:00 | 57.307021 | 3.054194 | 2.0 | 10.254 | 2 | 38.324 | 10.438 | 34.811 | 2 |
| 2025-05-17T15:46:00 | 57.304918 | 3.058291 | 2.0 | 10.255 | 2 | 38.448 | 10.436 | 34.939 | 2 |
| 2025-05-17T15:47:00 | 57.302750 | 3.062330 | 2.0 | 10.258 | 2 | 38.503 | 10.439 | 34.992 | 2 |
| 2025-05-17T15:48:00 | 57.300635 | 3.066454 | 2.0 | 10.259 | 2 | 38.362 | 10.438 | 34.850 | 2 |
| 2025-05-17T15:49:00 | 57.298482 | 3.070571 | 2.0 | 10.270 | 2 | 38.371 | 10.440 | 34.857 | 2 |
| 2025-05-17T15:50:00 | 57.296369 | 3.074600 | 2.0 | 10.290 | 2 | 38.455 | 10.453 | 34.930 | 2 |
| 2025-05-17T15:51:00 | 57.294083 | 3.078421 | 2.0 | 10.303 | 2 | 38.448 | 10.470 | 34.906 | 2 |
| 2025-05-17T15:52:00 | 57.291808 | 3.082328 | 2.0 | 10.323 | 2 | 38.475 | 10.487 | 34.917 | 2 |
| 2025-05-17T15:53:00 | 57.289486 | 3.086087 | 2.0 | 10.341 | 2 | 38.527 | 10.503 | 34.955 | 2 |
| 2025-05-17T15:54:00 | 57.287208 | 3.089870 | 2.0 | 10.357 | 2 | 38.510 | 10.520 | 34.921 | 2 |
| 2025-05-17T15:55:00 | 57.284977 | 3.093661 | 2.0 | 10.361 | 2 | 38.508 | 10.533 | 34.907 | 2 |
| 2025-05-17T15:56:00 | 57.282712 | 3.097330 | 2.0 | 10.362 | 2 | 38.583 | 10.539 | 34.977 | 2 |
| 2025-05-17T15:57:00 | 57.280455 | 3.101160 | 2.0 | 10.363 | 2 | 38.573 | 10.540 | 34.966 | 2 |
| 2025-05-17T15:58:00 | 57.278186 | 3.104866 | 2.0 | 10.362 | 2 | 38.580 | 10.540 | 34.973 | 2 |
| 2025-05-17T15:59:00 | 57.275935 | 3.108503 | 2.0 | 10.358 | 2 | 38.573 | 10.540 | 34.966 | 2 |
| 2025-05-17T16:00:00 | 57.273427 | 3.111653 | 2.0 | 10.352 | 2 | 38.583 | 10.537 | 34.979 | 2 |
| 2025-05-17T16:01:00 | 57.270847 | 3.114807 | 2.0 | 10.353 | 2 | 38.594 | 10.532 | 34.994 | 2 |
| 2025-05-17T16:02:00 | 57.267943 | 3.115157 | 2.0 | 10.341 | 2 | 38.597 | 10.529 | 35.000 | 2 |
| 2025-05-17T16:03:00 | 57.265236 | 3.114840 | 2.0 | 10.345 | 2 | 38.610 | 10.521 | 35.021 | 2 |
| 2025-05-17T16:04:00 | 57.262926 | 3.114903 | 2.0 | 10.341 | 2 | 38.609 | 10.518 | 35.023 | 2 |
| 2025-05-17T16:05:00 | 57.260937 | 3.114904 | 2.0 | 10.345 | 2 | 38.623 | 10.519 | 35.036 | 2 |
| 2025-05-17T16:06:00 | 57.259141 | 3.115177 | 2.0 | 10.347 | 2 | 38.618 | 10.522 | 35.028 | 2 |
| 2025-05-17T16:07:00 | 57.257484 | 3.115441 | 2.0 | 10.347 | 2 | 38.636 | 10.522 | 35.047 | 2 |
| 2025-05-17T16:08:00 | 57.255960 | 3.115611 | 2.0 | 10.339 | 2 | 38.624 | 10.519 | 35.037 | 2 |
| 2025-05-17T16:09:00 | 57.254520 | 3.115538 | 2.0 | 10.337 | 2 | 38.649 | 10.515 | 35.067 | 2 |
| 2025-05-17T16:10:00 | 57.253122 | 3.115429 | 2.0 | 10.340 | 2 | 38.659 | 10.513 | 35.079 | 2 |
| 2025-05-17T16:11:00 | 57.251509 | 3.115391 | 2.0 | 10.342 | 2 | 38.653 | 10.514 | 35.072 | 2 |
| 2025-05-17T16:12:00 | 57.249646 | 3.115506 | 2.0 | 10.345 | 2 | 38.658 | 10.515 | 35.076 | 2 |
| 2025-05-17T16:13:00 | 57.247615 | 3.115566 | 2.0 | 10.353 | 2 | 38.691 | 10.520 | 35.104 | 2 |
| 2025-05-17T16:14:00 | 57.245509 | 3.115494 | 2.0 | 10.360 | 2 | 38.697 | 10.529 | 35.102 | 2 |
| 2025-05-17T16:15:00 | 57.243424 | 3.115376 | 2.0 | 10.365 | 2 | 38.708 | 10.536 | 35.106 | 2 |
| 2025-05-17T16:16:00 | 57.241360 | 3.115433 | 2.0 | 10.364 | 2 | 38.695 | 10.536 | 35.093 | 2 |
| 2025-05-17T16:17:00 | 57.239319 | 3.115549 | 2.0 | 10.365 | 2 | 38.708 | 10.537 | 35.105 | 2 |
| 2025-05-17T16:18:00 | 57.237274 | 3.115487 | 2.0 | 10.364 | 2 | 38.715 | 10.538 | 35.111 | 2 |
| 2025-05-17T16:19:00 | 57.235228 | 3.115388 | 2.0 | 10.363 | 2 | 38.724 | 10.538 | 35.120 | 2 |
| 2025-05-17T16:20:00 | 57.233184 | 3.115493 | 2.0 | 10.363 | 2 | 38.723 | 10.538 | 35.119 | 2 |
| 2025-05-17T16:21:00 | 57.231113 | 3.115504 | 2.0 | 10.358 | 2 | 38.730 | 10.537 | 35.127 | 2 |
| 2025-05-17T16:22:00 | 57.229055 | 3.115443 | 2.0 | 10.349 | 2 | 38.726 | 10.530 | 35.130 | 2 |
| 2025-05-17T16:23:00 | 57.227031 | 3.115449 | 2.0 | 10.337 | 2 | 38.721 | 10.522 | 35.133 | 2 |
| 2025-05-17T16:24:00 | 57.224982 | 3.115426 | 2.0 | 10.353 | 2 | 38.712 | 10.515 | 35.130 | 2 |
| 2025-05-17T16:25:00 | 57.222938 | 3.115450 | 2.0 | 10.351 | 2 | 38.721 | 10.526 | 35.129 | 2 |
| 2025-05-17T16:26:00 | 57.220890 | 3.115606 | 2.0 | 10.353 | 2 | 38.725 | 10.525 | 35.134 | 2 |
| 2025-05-17T16:27:00 | 57.218827 | 3.115531 | 2.0 | 10.361 | 2 | 38.726 | 10.528 | 35.132 | 2 |
| 2025-05-17T16:28:00 | 57.216771 | 3.115443 | 2.0 | 10.351 | 2 | 38.730 | 10.532 | 35.132 | 2 |
| 2025-05-17T16:29:00 | 57.214713 | 3.115471 | 2.0 | 10.349 | 2 | 38.723 | 10.524 | 35.133 | 2 |
| 2025-05-17T16:30:00 | 57.212675 | 3.115470 | 2.0 | 10.360 | 2 | 38.722 | 10.525 | 35.131 | 2 |
| 2025-05-17T16:31:00 | 57.210659 | 3.115440 | 2.0 | 10.354 | 2 | 38.729 | 10.531 | 35.132 | 2 |
| 2025-05-17T16:32:00 | 57.208634 | 3.115551 | 2.0 | 10.366 | 2 | 38.726 | 10.527 | 35.133 | 2 |
| 2025-05-17T16:33:00 | 57.206570 | 3.115522 | 2.0 | 10.376 | 2 | 38.737 | 10.542 | 35.130 | 2 |
| 2025-05-17T16:34:00 | 57.204529 | 3.115486 | 2.0 | 10.381 | 2 | 38.748 | 10.551 | 35.132 | 2 |
| 2025-05-17T16:35:00 | 57.202419 | 3.115503 | 2.0 | 10.387 | 2 | 38.754 | 10.555 | 35.134 | 2 |
| 2025-05-17T16:36:00 | 57.200349 | 3.115559 | 2.0 | 10.394 | 2 | 38.760 | 10.561 | 35.134 | 2 |
| 2025-05-17T16:37:00 | 57.198261 | 3.115500 | 2.0 | 10.393 | 2 | 38.765 | 10.567 | 35.134 | 2 |
| 2025-05-17T16:38:00 | 57.196197 | 3.115415 | 2.0 | 10.394 | 2 | 38.765 | 10.567 | 35.134 | 2 |
| 2025-05-17T16:39:00 | 57.194121 | 3.115371 | 2.0 | 10.392 | 2 | 38.764 | 10.566 | 35.134 | 2 |
| 2025-05-17T16:40:00 | 57.192047 | 3.115413 | 2.0 | 10.402 | 2 | 38.763 | 10.567 | 35.132 | 2 |
| 2025-05-17T16:41:00 | 57.189984 | 3.115469 | 2.0 | 10.398 | 2 | 38.769 | 10.574 | 35.131 | 2 |
| 2025-05-17T16:42:00 | 57.187918 | 3.115484 | 2.0 | 10.393 | 2 | 38.764 | 10.569 | 35.131 | 2 |
| 2025-05-17T16:43:00 | 57.185841 | 3.115496 | 2.0 | 10.400 | 2 | 38.760 | 10.565 | 35.131 | 2 |
| 2025-05-17T16:44:00 | 57.183819 | 3.115476 | 2.0 | 10.396 | 2 | 38.764 | 10.571 | 35.129 | 2 |
| 2025-05-17T16:45:00 | 57.181787 | 3.115424 | 2.0 | 10.401 | 2 | 38.762 | 10.569 | 35.129 | 2 |
| 2025-05-17T16:46:00 | 57.179773 | 3.115380 | 2.0 | 10.406 | 2 | 38.763 | 10.575 | 35.124 | 2 |
| 2025-05-17T16:47:00 | 57.177750 | 3.115390 | 2.0 | 10.395 | 2 | 38.766 | 10.575 | 35.127 | 2 |
| 2025-05-17T16:48:00 | 57.175741 | 3.115370 | 2.0 | 10.395 | 2 | 38.759 | 10.567 | 35.128 | 2 |
| 2025-05-17T16:49:00 | 57.173729 | 3.115363 | 2.0 | 10.394 | 2 | 38.757 | 10.565 | 35.128 | 2 |
| 2025-05-17T16:50:00 | 57.171707 | 3.115449 | 2.0 | 10.393 | 2 | 38.759 | 10.568 | 35.127 | 2 |
| 2025-05-17T16:51:00 | 57.169635 | 3.115439 | 2.0 | 10.397 | 2 | 38.760 | 10.566 | 35.130 | 2 |
| 2025-05-17T16:52:00 | 57.167555 | 3.115486 | 2.0 | 10.398 | 2 | 38.761 | 10.567 | 35.130 | 2 |
| 2025-05-17T16:53:00 | 57.165481 | 3.115566 | 2.0 | 10.405 | 2 | 38.765 | 10.572 | 35.129 | 2 |
| 2025-05-17T16:54:00 | 57.163421 | 3.115526 | 2.0 | 10.406 | 2 | 38.770 | 10.576 | 35.130 | 2 |
| 2025-05-17T16:55:00 | 57.161370 | 3.115419 | 2.0 | 10.415 | 2 | 38.772 | 10.577 | 35.131 | 2 |
| 2025-05-17T16:56:00 | 57.159293 | 3.115385 | 2.0 | 10.416 | 2 | 38.775 | 10.586 | 35.125 | 2 |
| 2025-05-17T16:57:00 | 57.157198 | 3.115475 | 2.0 | 10.422 | 2 | 38.780 | 10.588 | 35.129 | 2 |
| 2025-05-17T16:58:00 | 57.155141 | 3.115477 | 2.0 | 10.430 | 2 | 38.788 | 10.595 | 35.130 | 2 |
| 2025-05-17T16:59:00 | 57.153069 | 3.115453 | 2.0 | 10.431 | 2 | 38.795 | 10.601 | 35.131 | 2 |
| 2025-05-17T17:00:00 | 57.151016 | 3.115451 | 2.0 | 10.434 | 2 | 38.795 | 10.601 | 35.131 | 2 |
| 2025-05-17T17:01:00 | 57.148971 | 3.115422 | 2.0 | 10.435 | 2 | 38.799 | 10.607 | 35.129 | 2 |
| 2025-05-17T17:02:00 | 57.146911 | 3.115387 | 2.0 | 10.436 | 2 | 38.797 | 10.606 | 35.128 | 2 |
| 2025-05-17T17:03:00 | 57.144838 | 3.115442 | 2.0 | 10.441 | 2 | 38.798 | 10.609 | 35.127 | 2 |
| 2025-05-17T17:04:00 | 57.142786 | 3.115490 | 2.0 | 10.433 | 2 | 38.798 | 10.611 | 35.125 | 2 |
| 2025-05-17T17:05:00 | 57.140747 | 3.115525 | 2.0 | 10.434 | 2 | 38.793 | 10.605 | 35.125 | 2 |
| 2025-05-17T17:06:00 | 57.138691 | 3.115415 | 2.0 | 10.441 | 2 | 38.791 | 10.604 | 35.124 | 2 |
| 2025-05-17T17:07:00 | 57.136619 | 3.115377 | 2.0 | 10.446 | 2 | 38.799 | 10.614 | 35.123 | 2 |
| 2025-05-17T17:08:00 | 57.134535 | 3.115422 | 2.0 | 10.451 | 2 | 38.802 | 10.617 | 35.123 | 2 |
| 2025-05-17T17:09:00 | 57.132447 | 3.115385 | 2.0 | 10.454 | 2 | 38.801 | 10.623 | 35.116 | 2 |
| 2025-05-17T17:10:00 | 57.130415 | 3.115444 | 2.0 | 10.455 | 2 | 38.805 | 10.624 | 35.119 | 2 |
| 2025-05-17T17:11:00 | 57.128385 | 3.115501 | 2.0 | 10.455 | 2 | 38.807 | 10.626 | 35.119 | 2 |
| 2025-05-17T17:12:00 | 57.126337 | 3.115519 | 2.0 | 10.456 | 2 | 38.805 | 10.625 | 35.118 | 2 |
| 2025-05-17T17:13:00 | 57.124288 | 3.115424 | 2.0 | 10.454 | 2 | 38.804 | 10.625 | 35.117 | 2 |
| 2025-05-17T17:14:00 | 57.122228 | 3.115409 | 2.0 | 10.455 | 2 | 38.805 | 10.627 | 35.116 | 2 |
| 2025-05-17T17:15:00 | 57.120184 | 3.115473 | 2.0 | 10.450 | 2 | 38.803 | 10.626 | 35.115 | 2 |
| 2025-05-17T17:16:00 | 57.118152 | 3.115493 | 2.0 | 10.441 | 2 | 38.791 | 10.619 | 35.110 | 2 |
| 2025-05-17T17:17:00 | 57.116108 | 3.115466 | 2.0 | 10.443 | 2 | 38.788 | 10.615 | 35.111 | 2 |
| 2025-05-17T17:18:00 | 57.114061 | 3.115413 | 2.0 | 10.433 | 2 | 38.782 | 10.611 | 35.108 | 2 |
| 2025-05-17T17:19:00 | 57.111999 | 3.115464 | 2.0 | 10.434 | 2 | 38.775 | 10.605 | 35.107 | 2 |
| 2025-05-17T17:20:00 | 57.109950 | 3.115523 | 2.0 | 10.427 | 2 | 38.773 | 10.604 | 35.106 | 2 |
| 2025-05-17T17:21:00 | 57.107907 | 3.115460 | 2.0 | 10.430 | 2 | 38.768 | 10.599 | 35.106 | 2 |
| 2025-05-17T17:22:00 | 57.105827 | 3.115411 | 2.0 | 10.429 | 2 | 38.769 | 10.599 | 35.107 | 2 |
| 2025-05-17T17:23:00 | 57.103784 | 3.115312 | 2.0 | 10.427 | 2 | 38.769 | 10.599 | 35.107 | 2 |
| 2025-05-17T17:24:00 | 57.101732 | 3.115356 | 2.0 | 10.434 | 2 | 38.770 | 10.600 | 35.107 | 2 |
| 2025-05-17T17:25:00 | 57.099676 | 3.115471 | 2.0 | 10.429 | 2 | 38.773 | 10.602 | 35.108 | 2 |
| 2025-05-17T17:26:00 | 57.097584 | 3.115456 | 2.0 | 10.424 | 2 | 38.771 | 10.599 | 35.109 | 2 |
| 2025-05-17T17:27:00 | 57.095510 | 3.115418 | 2.0 | 10.416 | 2 | 38.761 | 10.593 | 35.105 | 2 |
| 2025-05-17T17:28:00 | 57.093478 | 3.115417 | 2.0 | 10.413 | 2 | 38.759 | 10.587 | 35.108 | 2 |
| 2025-05-17T17:29:00 | 57.091438 | 3.115417 | 2.0 | 10.413 | 2 | 38.756 | 10.584 | 35.108 | 2 |
| 2025-05-17T17:30:00 | 57.089383 | 3.115450 | 2.0 | 10.407 | 2 | 38.756 | 10.584 | 35.108 | 2 |
| 2025-05-17T17:31:00 | 57.087330 | 3.115462 | 2.0 | 10.402 | 2 | 38.749 | 10.576 | 35.109 | 2 |
| 2025-05-17T17:32:00 | 57.085257 | 3.115502 | 2.0 | 10.402 | 2 | 38.743 | 10.573 | 35.106 | 2 |
| 2025-05-17T17:33:00 | 57.083200 | 3.115483 | 2.0 | 10.404 | 2 | 38.746 | 10.575 | 35.107 | 2 |
| 2025-05-17T17:34:00 | 57.081150 | 3.115478 | 2.0 | 10.401 | 2 | 38.745 | 10.573 | 35.108 | 2 |
| 2025-05-17T17:35:00 | 57.079069 | 3.115422 | 2.0 | 10.398 | 2 | 38.744 | 10.572 | 35.108 | 2 |
| 2025-05-17T17:36:00 | 57.077007 | 3.115528 | 2.0 | 10.400 | 2 | 38.741 | 10.568 | 35.108 | 2 |
| 2025-05-17T17:37:00 | 57.074938 | 3.115456 | 2.0 | 10.408 | 2 | 38.744 | 10.573 | 35.107 | 2 |
| 2025-05-17T17:38:00 | 57.072880 | 3.115407 | 2.0 | 10.402 | 2 | 38.746 | 10.576 | 35.106 | 2 |
| 2025-05-17T17:39:00 | 57.070812 | 3.115432 | 2.0 | 10.409 | 2 | 38.744 | 10.575 | 35.105 | 2 |
| 2025-05-17T17:40:00 | 57.068766 | 3.115481 | 2.0 | 10.411 | 2 | 38.751 | 10.580 | 35.107 | 2 |
| 2025-05-17T17:41:00 | 57.066736 | 3.115483 | 2.0 | 10.409 | 2 | 38.753 | 10.583 | 35.106 | 2 |
| 2025-05-17T17:42:00 | 57.064684 | 3.115560 | 2.0 | 10.412 | 2 | 38.750 | 10.579 | 35.107 | 2 |
| 2025-05-17T17:43:00 | 57.062612 | 3.115542 | 2.0 | 10.417 | 2 | 38.753 | 10.583 | 35.106 | 2 |
| 2025-05-17T17:44:00 | 57.060507 | 3.115414 | 2.0 | 10.421 | 2 | 38.758 | 10.588 | 35.106 | 2 |
| 2025-05-17T17:45:00 | 57.058437 | 3.115437 | 2.0 | 10.422 | 2 | 38.760 | 10.590 | 35.106 | 2 |
| 2025-05-17T17:46:00 | 57.056383 | 3.115500 | 2.0 | 10.425 | 2 | 38.761 | 10.592 | 35.106 | 2 |
| 2025-05-17T17:47:00 | 57.054333 | 3.115420 | 2.0 | 10.419 | 2 | 38.760 | 10.594 | 35.103 | 2 |
| 2025-05-17T17:48:00 | 57.052283 | 3.115403 | 2.0 | 10.421 | 2 | 38.756 | 10.589 | 35.103 | 2 |
| 2025-05-17T17:49:00 | 57.050219 | 3.115451 | 2.0 | 10.424 | 2 | 38.757 | 10.592 | 35.102 | 2 |
| 2025-05-17T17:50:00 | 57.048169 | 3.115474 | 2.0 | 10.425 | 2 | 38.760 | 10.594 | 35.103 | 2 |
| 2025-05-17T17:51:00 | 57.046112 | 3.115407 | 2.0 | 10.432 | 2 | 38.760 | 10.597 | 35.100 | 2 |
| 2025-05-17T17:52:00 | 57.044088 | 3.115392 | 2.0 | 10.436 | 2 | 38.762 | 10.602 | 35.097 | 2 |
| 2025-05-17T17:53:00 | 57.042060 | 3.115328 | 2.0 | 10.439 | 2 | 38.768 | 10.606 | 35.099 | 2 |
| 2025-05-17T17:54:00 | 57.040006 | 3.115388 | 2.0 | 10.447 | 2 | 38.769 | 10.608 | 35.098 | 2 |
| 2025-05-17T17:55:00 | 57.037957 | 3.115428 | 2.0 | 10.452 | 2 | 38.777 | 10.618 | 35.097 | 2 |
| 2025-05-17T17:56:00 | 57.035914 | 3.115373 | 2.0 | 10.459 | 2 | 38.780 | 10.621 | 35.097 | 2 |
| 2025-05-17T17:57:00 | 57.033876 | 3.115429 | 2.0 | 10.463 | 2 | 38.784 | 10.628 | 35.094 | 2 |
| 2025-05-17T17:58:00 | 57.031839 | 3.115463 | 2.0 | 10.474 | 2 | 38.787 | 10.633 | 35.092 | 2 |
| 2025-05-17T17:59:00 | 57.029787 | 3.115435 | 2.0 | 10.481 | 2 | 38.796 | 10.645 | 35.090 | 2 |
| 2025-05-17T18:00:00 | 57.027746 | 3.115379 | 2.0 | 10.479 | 2 | 38.801 | 10.650 | 35.090 | 2 |
| 2025-05-17T18:01:00 | 57.025698 | 3.115464 | 2.0 | 10.484 | 2 | 38.799 | 10.648 | 35.090 | 2 |
| 2025-05-17T18:02:00 | 57.023635 | 3.115496 | 2.0 | 10.492 | 2 | 38.804 | 10.655 | 35.088 | 2 |
| 2025-05-17T18:03:00 | 57.021557 | 3.115470 | 2.0 | 10.488 | 2 | 38.807 | 10.660 | 35.086 | 2 |
| 2025-05-17T18:04:00 | 57.019478 | 3.115477 | 2.0 | 10.493 | 2 | 38.807 | 10.659 | 35.087 | 2 |
| 2025-05-17T18:05:00 | 57.017418 | 3.115392 | 2.0 | 10.495 | 2 | 38.811 | 10.662 | 35.089 | 2 |
| 2025-05-17T18:06:00 | 57.015352 | 3.115372 | 2.0 | 10.495 | 2 | 38.814 | 10.665 | 35.089 | 2 |
| 2025-05-17T18:07:00 | 57.013287 | 3.115359 | 2.0 | 10.491 | 2 | 38.809 | 10.663 | 35.086 | 2 |
| 2025-05-17T18:08:00 | 57.011275 | 3.115361 | 2.0 | 10.488 | 2 | 38.808 | 10.660 | 35.088 | 2 |
| 2025-05-17T18:09:00 | 57.009244 | 3.115400 | 2.0 | 10.485 | 2 | 38.808 | 10.657 | 35.090 | 2 |
| 2025-05-17T18:10:00 | 57.007196 | 3.115472 | 2.0 | 10.480 | 2 | 38.806 | 10.654 | 35.091 | 2 |
| 2025-05-17T18:11:00 | 57.005148 | 3.115523 | 2.0 | 10.480 | 2 | 38.800 | 10.649 | 35.090 | 2 |
| 2025-05-17T18:12:00 | 57.003113 | 3.115533 | 2.0 | 10.475 | 2 | 38.797 | 10.647 | 35.089 | 2 |
| 2025-05-17T18:13:00 | 57.001060 | 3.115499 | 2.0 | 10.474 | 2 | 38.795 | 10.644 | 35.090 | 2 |
| 2025-05-17T18:14:00 | 56.998991 | 3.115439 | 2.0 | 10.476 | 2 | 38.795 | 10.644 | 35.090 | 2 |
| 2025-05-17T18:15:00 | 56.996906 | 3.115445 | 2.0 | 10.473 | 2 | 38.793 | 10.644 | 35.088 | 2 |
| 2025-05-17T18:16:00 | 56.994850 | 3.115452 | 2.0 | 10.471 | 2 | 38.792 | 10.643 | 35.088 | 2 |
| 2025-05-17T18:17:00 | 56.992808 | 3.115453 | 2.0 | 10.477 | 2 | 38.791 | 10.640 | 35.090 | 2 |
| 2025-05-17T18:18:00 | 56.990782 | 3.115413 | 2.0 | 10.477 | 2 | 38.796 | 10.646 | 35.089 | 2 |
| 2025-05-17T18:19:00 | 56.988729 | 3.115407 | 2.0 | 10.477 | 2 | 38.796 | 10.646 | 35.089 | 2 |
| 2025-05-17T18:20:00 | 56.986678 | 3.115460 | 2.0 | 10.476 | 2 | 38.796 | 10.645 | 35.090 | 2 |
| 2025-05-17T18:21:00 | 56.984603 | 3.115484 | 2.0 | 10.478 | 2 | 38.796 | 10.646 | 35.089 | 2 |
| 2025-05-17T18:22:00 | 56.982551 | 3.115451 | 2.0 | 10.488 | 2 | 38.797 | 10.649 | 35.087 | 2 |
| 2025-05-17T18:23:00 | 56.980529 | 3.115401 | 2.0 | 10.482 | 2 | 38.804 | 10.656 | 35.087 | 2 |
| 2025-05-17T18:24:00 | 56.978465 | 3.115452 | 2.0 | 10.480 | 2 | 38.801 | 10.651 | 35.089 | 2 |
| 2025-05-17T18:25:00 | 56.976392 | 3.115484 | 2.0 | 10.484 | 2 | 38.796 | 10.650 | 35.085 | 2 |
| 2025-05-17T18:26:00 | 56.974304 | 3.115471 | 2.0 | 10.486 | 2 | 38.800 | 10.653 | 35.086 | 2 |
| 2025-05-17T18:27:00 | 56.972208 | 3.115479 | 2.0 | 10.480 | 2 | 38.801 | 10.654 | 35.086 | 2 |
| 2025-05-17T18:28:00 | 56.970120 | 3.115468 | 2.0 | 10.482 | 2 | 38.797 | 10.649 | 35.087 | 2 |
| 2025-05-17T18:29:00 | 56.968002 | 3.115471 | 2.0 | 10.479 | 2 | 38.799 | 10.651 | 35.087 | 2 |
| 2025-05-17T18:30:00 | 56.965897 | 3.115419 | 2.0 | 10.474 | 2 | 38.796 | 10.647 | 35.088 | 2 |
| 2025-05-17T18:31:00 | 56.963787 | 3.115424 | 2.0 | 10.474 | 2 | 38.790 | 10.642 | 35.087 | 2 |
| 2025-05-17T18:32:00 | 56.961691 | 3.115473 | 2.0 | 10.464 | 2 | 38.789 | 10.640 | 35.088 | 2 |
| 2025-05-17T18:33:00 | 56.959619 | 3.115422 | 2.0 | 10.455 | 2 | 38.780 | 10.632 | 35.086 | 2 |
| 2025-05-17T18:34:00 | 56.957547 | 3.115452 | 2.0 | 10.445 | 2 | 38.767 | 10.622 | 35.083 | 2 |
| 2025-05-17T18:35:00 | 56.955452 | 3.115461 | 2.0 | 10.440 | 2 | 38.756 | 10.614 | 35.079 | 2 |
| 2025-05-17T18:36:00 | 56.953392 | 3.115451 | 2.0 | 10.422 | 2 | 38.747 | 10.605 | 35.079 | 2 |
| 2025-05-17T18:37:00 | 56.951340 | 3.115438 | 2.0 | 10.407 | 2 | 38.732 | 10.588 | 35.080 | 2 |
| 2025-05-17T18:38:00 | 56.949261 | 3.115422 | 2.0 | 10.396 | 2 | 38.718 | 10.576 | 35.078 | 2 |
| 2025-05-17T18:39:00 | 56.947169 | 3.115477 | 2.0 | 10.382 | 2 | 38.705 | 10.564 | 35.076 | 2 |
| 2025-05-17T18:40:00 | 56.945114 | 3.115478 | 2.0 | 10.375 | 2 | 38.686 | 10.550 | 35.070 | 2 |
| 2025-05-17T18:41:00 | 56.943095 | 3.115398 | 2.0 | 10.366 | 2 | 38.683 | 10.544 | 35.073 | 2 |
| 2025-05-17T18:42:00 | 56.941053 | 3.115453 | 2.0 | 10.365 | 2 | 38.674 | 10.536 | 35.072 | 2 |
| 2025-05-17T18:43:00 | 56.939006 | 3.115404 | 2.0 | 10.365 | 2 | 38.673 | 10.535 | 35.072 | 2 |
| 2025-05-17T18:44:00 | 56.936982 | 3.115405 | 2.0 | 10.366 | 2 | 38.673 | 10.535 | 35.072 | 2 |
| 2025-05-17T18:45:00 | 56.934958 | 3.115408 | 2.0 | 10.377 | 2 | 38.676 | 10.538 | 35.072 | 2 |
| 2025-05-17T18:46:00 | 56.932936 | 3.115446 | 2.0 | 10.391 | 2 | 38.687 | 10.548 | 35.073 | 2 |
| 2025-05-17T18:47:00 | 56.930897 | 3.115475 | 2.0 | 10.408 | 2 | 38.701 | 10.563 | 35.073 | 2 |
| 2025-05-17T18:48:00 | 56.928908 | 3.115445 | 2.0 | 10.423 | 2 | 38.719 | 10.579 | 35.076 | 2 |
| 2025-05-17T18:49:00 | 56.926913 | 3.115353 | 2.0 | 10.433 | 2 | 38.734 | 10.591 | 35.079 | 2 |
| 2025-05-17T18:50:00 | 56.924898 | 3.115388 | 2.0 | 10.442 | 2 | 38.745 | 10.602 | 35.080 | 2 |
| 2025-05-17T18:51:00 | 56.922896 | 3.115488 | 2.0 | 10.444 | 2 | 38.754 | 10.610 | 35.081 | 2 |
| 2025-05-17T18:52:00 | 56.920905 | 3.115481 | 2.0 | 10.450 | 2 | 38.758 | 10.613 | 35.082 | 2 |
| 2025-05-17T18:53:00 | 56.918924 | 3.115390 | 2.0 | 10.450 | 2 | 38.763 | 10.618 | 35.083 | 2 |
| 2025-05-17T18:54:00 | 56.916929 | 3.115454 | 2.0 | 10.452 | 2 | 38.764 | 10.618 | 35.084 | 2 |
| 2025-05-17T18:55:00 | 56.914944 | 3.115571 | 2.0 | 10.450 | 2 | 38.767 | 10.621 | 35.084 | 2 |
| 2025-05-17T18:56:00 | 56.912927 | 3.115517 | 2.0 | 10.446 | 2 | 38.763 | 10.618 | 35.083 | 2 |
| 2025-05-17T18:57:00 | 56.910916 | 3.115436 | 2.0 | 10.436 | 2 | 38.756 | 10.612 | 35.081 | 2 |
| 2025-05-17T18:58:00 | 56.908920 | 3.115431 | 2.0 | 10.426 | 2 | 38.745 | 10.603 | 35.079 | 2 |
| 2025-05-17T18:59:00 | 56.906909 | 3.115488 | 2.0 | 10.416 | 2 | 38.733 | 10.594 | 35.075 | 2 |
| 2025-05-17T19:00:00 | 56.904902 | 3.115464 | 2.0 | 10.404 | 2 | 38.717 | 10.581 | 35.072 | 2 |
| 2025-05-17T19:01:00 | 56.902920 | 3.115419 | 2.0 | 10.383 | 2 | 38.704 | 10.572 | 35.067 | 2 |
| 2025-05-17T19:02:00 | 56.900938 | 3.115469 | 2.0 | 10.376 | 2 | 38.680 | 10.553 | 35.061 | 2 |
| 2025-05-17T19:03:00 | 56.898932 | 3.115441 | 2.0 | 10.349 | 2 | 38.660 | 10.540 | 35.054 | 2 |
| 2025-05-17T19:04:00 | 56.896906 | 3.115427 | 2.0 | 10.345 | 2 | 38.631 | 10.518 | 35.045 | 2 |
| 2025-05-17T19:05:00 | 56.894902 | 3.115462 | 2.0 | 10.340 | 2 | 38.622 | 10.514 | 35.040 | 2 |
| 2025-05-17T19:06:00 | 56.892889 | 3.115503 | 2.0 | 10.341 | 2 | 38.616 | 10.511 | 35.037 | 2 |
| 2025-05-17T19:07:00 | 56.890885 | 3.115496 | 2.0 | 10.337 | 2 | 38.614 | 10.510 | 35.036 | 2 |
| 2025-05-17T19:08:00 | 56.888886 | 3.115409 | 2.0 | 10.335 | 2 | 38.601 | 10.506 | 35.027 | 2 |
| 2025-05-17T19:09:00 | 56.886853 | 3.115373 | 2.0 | 10.341 | 2 | 38.606 | 10.505 | 35.033 | 2 |
| 2025-05-17T19:10:00 | 56.884810 | 3.115442 | 2.0 | 10.355 | 2 | 38.615 | 10.513 | 35.034 | 2 |
| 2025-05-17T19:11:00 | 56.882736 | 3.115454 | 2.0 | 10.355 | 2 | 38.625 | 10.522 | 35.035 | 2 |
| 2025-05-17T19:12:00 | 56.880663 | 3.115420 | 2.0 | 10.356 | 2 | 38.627 | 10.524 | 35.036 | 2 |
| 2025-05-17T19:13:00 | 56.878588 | 3.115469 | 2.0 | 10.359 | 2 | 38.629 | 10.525 | 35.037 | 2 |
| 2025-05-17T19:14:00 | 56.876509 | 3.115477 | 2.0 | 10.357 | 2 | 38.633 | 10.527 | 35.039 | 2 |
| 2025-05-17T19:15:00 | 56.874414 | 3.115498 | 2.0 | 10.356 | 2 | 38.632 | 10.526 | 35.039 | 2 |
| 2025-05-17T19:16:00 | 56.872322 | 3.115421 | 2.0 | 10.357 | 2 | 38.632 | 10.525 | 35.040 | 2 |
| 2025-05-17T19:17:00 | 56.870243 | 3.115427 | 2.0 | 10.354 | 2 | 38.632 | 10.524 | 35.041 | 2 |
| 2025-05-17T19:18:00 | 56.868173 | 3.115440 | 2.0 | 10.357 | 2 | 38.632 | 10.523 | 35.042 | 2 |
| 2025-05-17T19:19:00 | 56.866142 | 3.115448 | 2.0 | 10.360 | 2 | 38.636 | 10.526 | 35.043 | 2 |
| 2025-05-17T19:20:00 | 56.864112 | 3.115387 | 2.0 | 10.368 | 2 | 38.637 | 10.531 | 35.039 | 2 |
| 2025-05-17T19:21:00 | 56.862098 | 3.115442 | 2.0 | 10.374 | 2 | 38.649 | 10.538 | 35.044 | 2 |
| 2025-05-17T19:22:00 | 56.860080 | 3.115499 | 2.0 | 10.380 | 2 | 38.657 | 10.543 | 35.048 | 2 |
| 2025-05-17T19:23:00 | 56.858066 | 3.115464 | 2.0 | 10.387 | 2 | 38.665 | 10.550 | 35.049 | 2 |
| 2025-05-17T19:24:00 | 56.856039 | 3.115433 | 2.0 | 10.394 | 2 | 38.674 | 10.557 | 35.051 | 2 |
| 2025-05-17T19:25:00 | 56.853987 | 3.115473 | 2.0 | 10.395 | 2 | 38.674 | 10.561 | 35.047 | 2 |
| 2025-05-17T19:26:00 | 56.851947 | 3.115398 | 2.0 | 10.400 | 2 | 38.680 | 10.565 | 35.050 | 2 |
| 2025-05-17T19:27:00 | 56.849913 | 3.115317 | 2.0 | 10.387 | 2 | 38.680 | 10.565 | 35.050 | 2 |
| 2025-05-17T19:28:00 | 56.847898 | 3.115372 | 2.0 | 10.378 | 2 | 38.666 | 10.554 | 35.046 | 2 |
| 2025-05-17T19:29:00 | 56.845886 | 3.115454 | 2.0 | 10.375 | 2 | 38.653 | 10.547 | 35.040 | 2 |
| 2025-05-17T19:30:00 | 56.843880 | 3.115404 | 2.0 | 10.369 | 2 | 38.644 | 10.542 | 35.035 | 2 |
| 2025-05-17T19:31:00 | 56.841840 | 3.115362 | 2.0 | 10.373 | 2 | 38.634 | 10.539 | 35.028 | 2 |
| 2025-05-17T19:32:00 | 56.839802 | 3.115449 | 2.0 | 10.369 | 2 | 38.632 | 10.541 | 35.024 | 2 |
| 2025-05-17T19:33:00 | 56.837766 | 3.115469 | 2.0 | 10.368 | 2 | 38.626 | 10.538 | 35.021 | 2 |
| 2025-05-17T19:34:00 | 56.835737 | 3.115392 | 2.0 | 10.366 | 2 | 38.621 | 10.535 | 35.019 | 2 |
| 2025-05-17T19:35:00 | 56.833691 | 3.115443 | 2.0 | 10.366 | 2 | 38.617 | 10.534 | 35.016 | 2 |
| 2025-05-17T19:36:00 | 56.831642 | 3.115515 | 2.0 | 10.370 | 2 | 38.608 | 10.534 | 35.007 | 2 |
| 2025-05-17T19:37:00 | 56.829617 | 3.115524 | 2.0 | 10.377 | 2 | 38.612 | 10.539 | 35.006 | 2 |
| 2025-05-17T19:38:00 | 56.827577 | 3.115420 | 2.0 | 10.386 | 2 | 38.619 | 10.546 | 35.006 | 2 |
| 2025-05-17T19:39:00 | 56.825542 | 3.115466 | 2.0 | 10.396 | 2 | 38.627 | 10.555 | 35.006 | 2 |
| 2025-05-17T19:40:00 | 56.823503 | 3.115438 | 2.0 | 10.407 | 2 | 38.636 | 10.565 | 35.005 | 2 |
| 2025-05-17T19:41:00 | 56.821492 | 3.115440 | 2.0 | 10.419 | 2 | 38.646 | 10.577 | 35.004 | 2 |
| 2025-05-17T19:42:00 | 56.819499 | 3.115475 | 2.0 | 10.428 | 2 | 38.654 | 10.587 | 35.002 | 2 |
| 2025-05-17T19:43:00 | 56.817492 | 3.115466 | 2.0 | 10.432 | 2 | 38.658 | 10.595 | 34.999 | 2 |
| 2025-05-17T19:44:00 | 56.815474 | 3.115468 | 2.0 | 10.437 | 2 | 38.660 | 10.600 | 34.996 | 2 |
| 2025-05-17T19:45:00 | 56.813460 | 3.115488 | 2.0 | 10.444 | 2 | 38.666 | 10.605 | 34.997 | 2 |
| 2025-05-17T19:46:00 | 56.811391 | 3.115551 | 2.0 | 10.446 | 2 | 38.670 | 10.611 | 34.995 | 2 |
| 2025-05-17T19:47:00 | 56.809339 | 3.115550 | 2.0 | 10.446 | 2 | 38.672 | 10.613 | 34.995 | 2 |
| 2025-05-17T19:48:00 | 56.807297 | 3.115387 | 2.0 | 10.443 | 2 | 38.671 | 10.613 | 34.994 | 2 |
| 2025-05-17T19:49:00 | 56.805269 | 3.115439 | 2.0 | 10.438 | 2 | 38.666 | 10.610 | 34.992 | 2 |
| 2025-05-17T19:50:00 | 56.803207 | 3.115508 | 2.0 | 10.436 | 2 | 38.663 | 10.606 | 34.993 | 2 |
| 2025-05-17T19:51:00 | 56.801147 | 3.115498 | 2.0 | 10.429 | 2 | 38.660 | 10.602 | 34.994 | 2 |
| 2025-05-17T19:52:00 | 56.799112 | 3.115449 | 2.0 | 10.427 | 2 | 38.655 | 10.597 | 34.994 | 2 |
| 2025-05-17T19:53:00 | 56.797043 | 3.115403 | 2.0 | 10.422 | 2 | 38.653 | 10.594 | 34.995 | 2 |
| 2025-05-17T19:54:00 | 56.794979 | 3.115443 | 2.0 | 10.418 | 2 | 38.645 | 10.589 | 34.991 | 2 |
| 2025-05-17T19:55:00 | 56.792933 | 3.115518 | 2.0 | 10.416 | 2 | 38.642 | 10.586 | 34.991 | 2 |
| 2025-05-17T19:56:00 | 56.790876 | 3.115469 | 2.0 | 10.412 | 2 | 38.640 | 10.583 | 34.992 | 2 |
| 2025-05-17T19:57:00 | 56.788822 | 3.115325 | 2.0 | 10.411 | 2 | 38.636 | 10.580 | 34.991 | 2 |
| 2025-05-17T19:58:00 | 56.786775 | 3.115058 | 2.0 | 10.404 | 2 | 38.633 | 10.577 | 34.991 | 2 |
| 2025-05-17T19:59:00 | 56.784726 | 3.114795 | 2.0 | 10.400 | 2 | 38.627 | 10.571 | 34.990 | 2 |
| 2025-05-17T20:00:00 | 56.782678 | 3.114484 | 2.0 | 10.395 | 2 | 38.622 | 10.567 | 34.989 | 2 |
| 2025-05-17T20:01:00 | 56.780626 | 3.114323 | 2.0 | 10.393 | 2 | 38.618 | 10.563 | 34.989 | 2 |
| 2025-05-17T20:02:00 | 56.778577 | 3.114079 | 2.0 | 10.389 | 2 | 38.615 | 10.559 | 34.990 | 2 |
| 2025-05-17T20:03:00 | 56.776530 | 3.113805 | 2.0 | 10.387 | 2 | 38.612 | 10.557 | 34.989 | 2 |
| 2025-05-17T20:04:00 | 56.774469 | 3.113527 | 2.0 | 10.386 | 2 | 38.610 | 10.554 | 34.990 | 2 |
| 2025-05-17T20:05:00 | 56.772410 | 3.113277 | 2.0 | 10.390 | 2 | 38.607 | 10.554 | 34.986 | 2 |
| 2025-05-17T20:06:00 | 56.770365 | 3.113014 | 2.0 | 10.395 | 2 | 38.613 | 10.558 | 34.989 | 2 |
| 2025-05-17T20:07:00 | 56.768302 | 3.112713 | 2.0 | 10.400 | 2 | 38.617 | 10.563 | 34.988 | 2 |
| 2025-05-17T20:08:00 | 56.766228 | 3.112454 | 2.0 | 10.403 | 2 | 38.621 | 10.568 | 34.987 | 2 |
| 2025-05-17T20:09:00 | 56.764165 | 3.112203 | 2.0 | 10.407 | 2 | 38.625 | 10.571 | 34.988 | 2 |
| 2025-05-17T20:10:00 | 56.762135 | 3.112052 | 2.0 | 10.410 | 2 | 38.625 | 10.574 | 34.985 | 2 |
| 2025-05-17T20:11:00 | 56.760105 | 3.111728 | 2.0 | 10.415 | 2 | 38.629 | 10.577 | 34.987 | 2 |
| 2025-05-17T20:12:00 | 56.758054 | 3.111391 | 2.0 | 10.418 | 2 | 38.634 | 10.583 | 34.986 | 2 |
| 2025-05-17T20:13:00 | 56.756009 | 3.111189 | 2.0 | 10.421 | 2 | 38.637 | 10.586 | 34.986 | 2 |
| 2025-05-17T20:14:00 | 56.753956 | 3.110979 | 2.0 | 10.428 | 2 | 38.639 | 10.589 | 34.985 | 2 |
| 2025-05-17T20:15:00 | 56.751927 | 3.110714 | 2.0 | 10.429 | 2 | 38.644 | 10.595 | 34.984 | 2 |
| 2025-05-17T20:16:00 | 56.749881 | 3.110425 | 2.0 | 10.432 | 2 | 38.643 | 10.596 | 34.983 | 2 |
| 2025-05-17T20:17:00 | 56.747823 | 3.110151 | 2.0 | 10.434 | 2 | 38.642 | 10.599 | 34.979 | 2 |
| 2025-05-17T20:18:00 | 56.745814 | 3.109834 | 2.0 | 10.435 | 2 | 38.643 | 10.600 | 34.979 | 2 |
| 2025-05-17T20:19:00 | 56.743787 | 3.109551 | 2.0 | 10.438 | 2 | 38.643 | 10.602 | 34.977 | 2 |
| 2025-05-17T20:20:00 | 56.741722 | 3.109396 | 2.0 | 10.442 | 2 | 38.644 | 10.605 | 34.975 | 2 |
| 2025-05-17T20:21:00 | 56.739662 | 3.109177 | 2.0 | 10.445 | 2 | 38.646 | 10.609 | 34.973 | 2 |
| 2025-05-17T20:22:00 | 56.737616 | 3.108830 | 2.0 | 10.446 | 2 | 38.647 | 10.613 | 34.970 | 2 |
| 2025-05-17T20:23:00 | 56.735586 | 3.108564 | 2.0 | 10.444 | 2 | 38.641 | 10.612 | 34.965 | 2 |
| 2025-05-17T20:24:00 | 56.733562 | 3.108350 | 2.0 | 10.442 | 2 | 38.641 | 10.611 | 34.966 | 2 |
| 2025-05-17T20:25:00 | 56.731527 | 3.108102 | 2.0 | 10.439 | 2 | 38.638 | 10.608 | 34.966 | 2 |
| 2025-05-17T20:26:00 | 56.729526 | 3.107893 | 2.0 | 10.434 | 2 | 38.635 | 10.606 | 34.965 | 2 |
| 2025-05-17T20:27:00 | 56.727531 | 3.107533 | 2.0 | 10.426 | 2 | 38.628 | 10.600 | 34.964 | 2 |
| 2025-05-17T20:28:00 | 56.725504 | 3.107350 | 2.0 | 10.419 | 2 | 38.618 | 10.593 | 34.960 | 2 |
| 2025-05-17T20:29:00 | 56.723460 | 3.107078 | 2.0 | 10.409 | 2 | 38.609 | 10.585 | 34.959 | 2 |
| 2025-05-17T20:30:00 | 56.721417 | 3.106792 | 2.0 | 10.404 | 2 | 38.599 | 10.576 | 34.957 | 2 |
| 2025-05-17T20:31:00 | 56.719359 | 3.106570 | 2.0 | 10.396 | 2 | 38.588 | 10.570 | 34.952 | 2 |
| 2025-05-17T20:32:00 | 56.717304 | 3.106330 | 2.0 | 10.392 | 2 | 38.582 | 10.563 | 34.953 | 2 |
| 2025-05-17T20:33:00 | 56.715239 | 3.106097 | 2.0 | 10.388 | 2 | 38.579 | 10.559 | 34.953 | 2 |
| 2025-05-17T20:34:00 | 56.713183 | 3.105766 | 2.0 | 10.385 | 2 | 38.573 | 10.556 | 34.950 | 2 |
| 2025-05-17T20:35:00 | 56.711143 | 3.105052 | 2.0 | 10.382 | 2 | 38.569 | 10.552 | 34.950 | 2 |
| 2025-05-17T20:36:00 | 56.709229 | 3.103795 | 2.0 | 10.379 | 2 | 38.561 | 10.549 | 34.945 | 2 |
| 2025-05-17T20:37:00 | 56.707445 | 3.102071 | 2.0 | 10.378 | 2 | 38.563 | 10.546 | 34.950 | 2 |
| 2025-05-17T20:38:00 | 56.705630 | 3.100507 | 2.0 | 10.377 | 2 | 38.564 | 10.546 | 34.951 | 2 |
| 2025-05-17T20:39:00 | 56.703909 | 3.098616 | 2.0 | 10.372 | 2 | 38.561 | 10.542 | 34.952 | 2 |
| 2025-05-17T20:40:00 | 56.702202 | 3.096826 | 2.0 | 10.371 | 2 | 38.558 | 10.539 | 34.951 | 2 |
| 2025-05-17T20:41:00 | 56.700271 | 3.096928 | 2.0 | 10.362 | 2 | 38.556 | 10.537 | 34.951 | 2 |
| 2025-05-17T20:42:00 | 56.698556 | 3.098640 | 2.0 | 10.345 | 2 | 38.548 | 10.527 | 34.953 | 2 |
| 2025-05-17T20:43:00 | 56.696904 | 3.100882 | 2.0 | 10.349 | 2 | 38.535 | 10.512 | 34.954 | 2 |
| 2025-05-17T20:44:00 | 56.695100 | 3.102731 | 2.0 | 10.356 | 2 | 38.539 | 10.518 | 34.952 | 2 |
| 2025-05-17T20:45:00 | 56.693291 | 3.104705 | 2.0 | 10.352 | 2 | 38.546 | 10.522 | 34.956 | 2 |
| 2025-05-17T20:46:00 | 56.691524 | 3.106955 | 2.0 | 10.344 | 2 | 38.543 | 10.518 | 34.956 | 2 |
| 2025-05-17T20:47:00 | 56.689737 | 3.109150 | 2.0 | 10.340 | 2 | 38.537 | 10.511 | 34.957 | 2 |
| 2025-05-17T20:48:00 | 56.687994 | 3.111382 | 2.0 | 10.336 | 2 | 38.533 | 10.506 | 34.958 | 2 |
| 2025-05-17T20:49:00 | 56.686308 | 3.113657 | 2.0 | 10.329 | 2 | 38.530 | 10.502 | 34.959 | 2 |
| 2025-05-17T20:50:00 | 56.684463 | 3.115198 | 2.0 | 10.324 | 2 | 38.411 | 10.495 | 34.845 | 2 |
| 2025-05-17T20:51:00 | 56.682462 | 3.115181 | 2.0 | 10.323 | 2 | 38.520 | 10.491 | 34.959 | 2 |
| 2025-05-17T20:52:00 | 56.680417 | 3.115297 | 2.0 | 10.322 | 2 | 38.471 | 10.490 | 34.910 | 2 |
| 2025-05-17T20:53:00 | 56.678366 | 3.115832 | 2.0 | 10.324 | 2 | 38.277 | 10.490 | 34.714 | 2 |
| 2025-05-17T20:54:00 | 56.676301 | 3.116211 | 2.0 | 10.323 | 2 | 38.426 | 10.491 | 34.864 | 2 |
| 2025-05-17T20:55:00 | 56.674230 | 3.116291 | 2.0 | 10.321 | 2 | 38.512 | 10.489 | 34.953 | 2 |
| 2025-05-17T20:56:00 | 56.672148 | 3.116437 | 2.0 | 10.316 | 2 | 38.517 | 10.487 | 34.960 | 2 |
| 2025-05-17T20:57:00 | 56.670043 | 3.116679 | 2.0 | 10.311 | 2 | 38.513 | 10.483 | 34.960 | 2 |
| 2025-05-17T20:58:00 | 56.667943 | 3.116860 | 2.0 | 10.307 | 2 | 38.508 | 10.479 | 34.958 | 2 |
| 2025-05-17T20:59:00 | 56.665832 | 3.116951 | 2.0 | 10.304 | 2 | 38.503 | 10.474 | 34.958 | 2 |
| 2025-05-17T21:00:00 | 56.663714 | 3.117105 | 2.0 | 10.306 | 2 | 38.481 | 10.473 | 34.937 | 2 |
| 2025-05-17T21:01:00 | 56.661603 | 3.117340 | 2.0 | 10.306 | 2 | 38.147 | 10.473 | 34.599 | 2 |
| 2025-05-17T21:02:00 | 56.659517 | 3.117557 | 2.0 | 10.310 | 2 | 38.329 | 10.475 | 34.781 | 2 |
| 2025-05-17T21:03:00 | 56.657461 | 3.117642 | 2.0 | 10.318 | 2 | 38.382 | 10.479 | 34.831 | 2 |
| 2025-05-17T21:04:00 | 56.655391 | 3.117779 | 2.0 | 10.322 | 2 | 38.430 | 10.485 | 34.874 | 2 |
| 2025-05-17T21:05:00 | 56.653310 | 3.118046 | 2.0 | 10.326 | 2 | 38.006 | 10.489 | 34.441 | 2 |
| 2025-05-17T21:06:00 | 56.651222 | 3.118255 | 2.0 | 10.331 | 2 | 38.481 | 10.494 | 34.917 | 2 |
| 2025-05-17T21:07:00 | 56.649141 | 3.118395 | 2.0 | 10.336 | 2 | 37.778 | 10.498 | 34.203 | 2 |
| 2025-05-17T21:08:00 | 56.647030 | 3.118529 | 2.0 | 10.341 | 2 | 37.873 | 10.503 | 34.294 | 2 |
| 2025-05-17T21:09:00 | 56.644923 | 3.118703 | 2.0 | 10.345 | 2 | 37.901 | 10.508 | 34.317 | 2 |
| 2025-05-17T21:10:00 | 56.642821 | 3.118853 | 2.0 | 10.346 | 2 | 38.106 | 10.512 | 34.520 | 2 |
| 2025-05-17T21:11:00 | 56.640862 | 3.117830 | 2.0 | 10.349 | 2 | 38.109 | 10.513 | 34.523 | 2 |
| 2025-05-17T21:12:00 | 56.639527 | 3.115241 | 2.0 | 10.350 | 2 | 38.093 | 10.516 | 34.504 | 2 |
| 2025-05-17T21:13:00 | 56.638886 | 3.111985 | 2.0 | 10.350 | 2 | 38.301 | 10.516 | 34.714 | 2 |
| 2025-05-17T21:14:00 | 56.638852 | 3.108447 | 2.0 | 10.351 | 2 | 37.935 | 10.516 | 34.344 | 2 |
| 2025-05-17T21:15:00 | 56.639561 | 3.105062 | 2.0 | 10.352 | 2 | 38.122 | 10.519 | 34.530 | 2 |
| 2025-05-17T21:16:00 | 56.641030 | 3.102692 | 2.0 | 10.349 | 2 | 38.131 | 10.520 | 34.538 | 2 |
| 2025-05-17T21:17:00 | 56.642796 | 3.101156 | 2.0 | 10.344 | 2 | 38.146 | 10.517 | 34.556 | 2 |
| 2025-05-17T21:18:00 | 56.644376 | 3.099236 | 2.0 | 10.337 | 2 | 37.963 | 10.512 | 34.376 | 2 |
| 2025-05-17T21:19:00 | 56.645836 | 3.097384 | 2.0 | 10.321 | 2 | 38.169 | 10.503 | 34.593 | 2 |
| 2025-05-17T21:20:00 | 56.647284 | 3.095751 | 2.0 | 10.311 | 2 | 38.344 | 10.489 | 34.783 | 2 |
| 2025-05-17T21:21:00 | 56.648910 | 3.093932 | 2.0 | 10.301 | 2 | 37.936 | 10.480 | 34.379 | 2 |
| 2025-05-17T21:22:00 | 56.650619 | 3.092192 | 2.0 | 10.292 | 2 | 38.209 | 10.469 | 34.665 | 2 |
| 2025-05-17T21:23:00 | 56.652477 | 3.090331 | 2.0 | 10.286 | 2 | 38.156 | 10.461 | 34.619 | 2 |
| 2025-05-17T21:24:00 | 56.654389 | 3.088455 | 2.0 | 10.282 | 2 | 38.127 | 10.454 | 34.597 | 2 |
| 2025-05-17T21:25:00 | 56.656287 | 3.086517 | 2.0 | 10.285 | 2 | 38.222 | 10.453 | 34.694 | 2 |
| 2025-05-17T21:26:00 | 56.658075 | 3.084674 | 2.0 | 10.296 | 2 | 38.001 | 10.455 | 34.468 | 2 |
| 2025-05-17T21:27:00 | 56.659920 | 3.082815 | 2.0 | 10.301 | 2 | 38.216 | 10.465 | 34.676 | 2 |
| 2025-05-17T21:28:00 | 56.661673 | 3.081080 | 2.0 | 10.306 | 2 | 38.372 | 10.470 | 34.829 | 2 |
| 2025-05-17T21:29:00 | 56.663440 | 3.079305 | 2.0 | 10.310 | 2 | 38.338 | 10.476 | 34.789 | 2 |
| 2025-05-17T21:30:00 | 56.665146 | 3.077600 | 2.0 | 10.312 | 2 | 38.457 | 10.479 | 34.907 | 2 |
| 2025-05-17T21:31:00 | 56.666896 | 3.075847 | 2.0 | 10.311 | 2 | 38.121 | 10.480 | 34.566 | 2 |
| 2025-05-17T21:32:00 | 56.668695 | 3.074046 | 2.0 | 10.301 | 2 | 38.122 | 10.477 | 34.570 | 2 |
| 2025-05-17T21:33:00 | 56.670479 | 3.072234 | 2.0 | 10.301 | 2 | 38.481 | 10.471 | 34.939 | 2 |
| 2025-05-17T21:34:00 | 56.672169 | 3.070487 | 2.0 | 10.303 | 2 | 38.305 | 10.470 | 34.762 | 2 |
| 2025-05-17T21:35:00 | 56.673802 | 3.068797 | 2.0 | 10.311 | 2 | 38.322 | 10.473 | 34.776 | 2 |
| 2025-05-17T21:36:00 | 56.675585 | 3.067062 | 2.0 | 10.314 | 2 | 38.265 | 10.480 | 34.712 | 2 |
| 2025-05-17T21:37:00 | 56.677348 | 3.065334 | 2.0 | 10.317 | 2 | 38.130 | 10.483 | 34.572 | 2 |
| 2025-05-17T21:38:00 | 56.679152 | 3.063507 | 2.0 | 10.316 | 2 | 38.445 | 10.486 | 34.888 | 2 |
| 2025-05-17T21:39:00 | 56.680955 | 3.061705 | 2.0 | 10.313 | 2 | 38.506 | 10.484 | 34.952 | 2 |
| 2025-05-17T21:40:00 | 56.682871 | 3.059805 | 2.0 | 10.313 | 2 | 38.504 | 10.482 | 34.952 | 2 |
| 2025-05-17T21:41:00 | 56.684807 | 3.057876 | 2.0 | 10.313 | 2 | 38.503 | 10.483 | 34.950 | 2 |
| 2025-05-17T21:42:00 | 56.686670 | 3.055949 | 2.0 | 10.317 | 2 | 38.502 | 10.481 | 34.950 | 2 |
| 2025-05-17T21:43:00 | 56.688483 | 3.054094 | 2.0 | 10.323 | 2 | 38.505 | 10.486 | 34.949 | 2 |
| 2025-05-17T21:44:00 | 56.690317 | 3.052227 | 2.0 | 10.323 | 2 | 38.510 | 10.492 | 34.948 | 2 |
| 2025-05-17T21:45:00 | 56.692117 | 3.050396 | 2.0 | 10.326 | 2 | 38.511 | 10.491 | 34.950 | 2 |
| 2025-05-17T21:46:00 | 56.693930 | 3.048604 | 2.0 | 10.331 | 2 | 38.479 | 10.499 | 34.910 | 2 |
| 2025-05-17T21:47:00 | 56.695746 | 3.046767 | 2.0 | 10.334 | 2 | 38.512 | 10.500 | 34.942 | 2 |
| 2025-05-17T21:48:00 | 56.697570 | 3.044962 | 2.0 | 10.335 | 2 | 38.518 | 10.503 | 34.945 | 2 |
| 2025-05-17T21:49:00 | 56.699418 | 3.043162 | 2.0 | 10.341 | 2 | 38.522 | 10.507 | 34.946 | 2 |
| 2025-05-17T21:50:00 | 56.701299 | 3.041308 | 2.0 | 10.343 | 2 | 38.351 | 10.511 | 34.769 | 2 |
| 2025-05-17T21:51:00 | 56.703067 | 3.039450 | 2.0 | 10.346 | 2 | 38.520 | 10.512 | 34.939 | 2 |
| 2025-05-17T21:52:00 | 56.704933 | 3.037588 | 2.0 | 10.349 | 2 | 38.519 | 10.513 | 34.937 | 2 |
| 2025-05-17T21:53:00 | 56.706840 | 3.035647 | 2.0 | 10.353 | 2 | 38.525 | 10.517 | 34.939 | 2 |
| 2025-05-17T21:54:00 | 56.708708 | 3.033733 | 2.0 | 10.356 | 2 | 38.521 | 10.523 | 34.929 | 2 |
| 2025-05-17T21:55:00 | 56.710461 | 3.031908 | 2.0 | 10.363 | 2 | 38.530 | 10.526 | 34.936 | 2 |
| 2025-05-17T21:56:00 | 56.712311 | 3.030099 | 2.0 | 10.367 | 2 | 38.538 | 10.531 | 34.939 | 2 |
| 2025-05-17T21:57:00 | 56.714200 | 3.028180 | 2.0 | 10.370 | 2 | 38.540 | 10.535 | 34.937 | 2 |
| 2025-05-17T21:58:00 | 56.716107 | 3.026224 | 2.0 | 10.377 | 2 | 38.549 | 10.538 | 34.943 | 2 |
| 2025-05-17T21:59:00 | 56.717986 | 3.024369 | 2.0 | 10.380 | 2 | 38.559 | 10.545 | 34.947 | 2 |
| 2025-05-17T22:00:00 | 56.719832 | 3.022521 | 2.0 | 10.388 | 2 | 38.565 | 10.549 | 34.949 | 2 |
| 2025-05-17T22:01:00 | 56.721718 | 3.020580 | 2.0 | 10.394 | 2 | 38.571 | 10.556 | 34.948 | 2 |
| 2025-05-17T22:02:00 | 56.723712 | 3.018646 | 2.0 | 10.398 | 2 | 38.579 | 10.563 | 34.950 | 2 |
| 2025-05-17T22:03:00 | 56.725519 | 3.016811 | 2.0 | 10.399 | 2 | 38.583 | 10.565 | 34.952 | 2 |
| 2025-05-17T22:04:00 | 56.727399 | 3.014958 | 2.0 | 10.400 | 2 | 38.582 | 10.567 | 34.949 | 2 |
| 2025-05-17T22:05:00 | 56.729251 | 3.013027 | 2.0 | 10.399 | 2 | 38.578 | 10.568 | 34.944 | 2 |
| 2025-05-17T22:06:00 | 56.731105 | 3.011196 | 2.0 | 10.400 | 2 | 38.585 | 10.567 | 34.952 | 2 |
| 2025-05-17T22:07:00 | 56.732975 | 3.009275 | 2.0 | 10.401 | 2 | 38.589 | 10.569 | 34.954 | 2 |
| 2025-05-17T22:08:00 | 56.734796 | 3.007455 | 2.0 | 10.403 | 2 | 38.592 | 10.569 | 34.957 | 2 |
| 2025-05-17T22:09:00 | 56.736549 | 3.005692 | 2.0 | 10.406 | 2 | 38.591 | 10.571 | 34.954 | 2 |
| 2025-05-17T22:10:00 | 56.738318 | 3.003923 | 2.0 | 10.408 | 2 | 38.597 | 10.574 | 34.957 | 2 |
| 2025-05-17T22:11:00 | 56.740056 | 3.002095 | 2.0 | 10.409 | 2 | 38.595 | 10.576 | 34.953 | 2 |
| 2025-05-17T22:12:00 | 56.741821 | 3.000364 | 2.0 | 10.406 | 2 | 38.596 | 10.577 | 34.953 | 2 |
| 2025-05-17T22:13:00 | 56.743587 | 2.998609 | 2.0 | 10.404 | 2 | 38.594 | 10.574 | 34.954 | 2 |
| 2025-05-17T22:14:00 | 56.745382 | 2.996789 | 2.0 | 10.403 | 2 | 38.597 | 10.573 | 34.958 | 2 |
| 2025-05-17T22:15:00 | 56.747082 | 2.995008 | 2.0 | 10.401 | 2 | 38.597 | 10.572 | 34.959 | 2 |
| 2025-05-17T22:16:00 | 56.748745 | 2.993400 | 2.0 | 10.396 | 2 | 38.591 | 10.568 | 34.957 | 2 |
| 2025-05-17T22:17:00 | 56.750461 | 2.991701 | 2.0 | 10.390 | 2 | 38.589 | 10.564 | 34.959 | 2 |
| 2025-05-17T22:18:00 | 56.752103 | 2.990027 | 2.0 | 10.388 | 2 | 38.582 | 10.557 | 34.958 | 2 |
| 2025-05-17T22:19:00 | 56.753876 | 2.988204 | 2.0 | 10.388 | 2 | 38.583 | 10.556 | 34.960 | 2 |
| 2025-05-17T22:20:00 | 56.755767 | 2.986229 | 2.0 | 10.385 | 2 | 38.585 | 10.556 | 34.962 | 2 |
| 2025-05-17T22:21:00 | 56.757747 | 2.984288 | 2.0 | 10.379 | 2 | 38.582 | 10.552 | 34.963 | 2 |
| 2025-05-17T22:22:00 | 56.759667 | 2.982366 | 2.0 | 10.374 | 2 | 38.579 | 10.548 | 34.964 | 2 |
| 2025-05-17T22:23:00 | 56.761501 | 2.980526 | 2.0 | 10.372 | 2 | 38.572 | 10.543 | 34.962 | 2 |
| 2025-05-17T22:24:00 | 56.763392 | 2.978605 | 2.0 | 10.366 | 2 | 38.569 | 10.540 | 34.962 | 2 |
| 2025-05-17T22:25:00 | 56.765197 | 2.976777 | 2.0 | 10.365 | 2 | 38.567 | 10.535 | 34.964 | 2 |
| 2025-05-17T22:26:00 | 56.766873 | 2.975051 | 2.0 | 10.364 | 2 | 38.564 | 10.534 | 34.962 | 2 |
| 2025-05-17T22:27:00 | 56.768481 | 2.973459 | 2.0 | 10.357 | 2 | 38.565 | 10.531 | 34.966 | 2 |
| 2025-05-17T22:28:00 | 56.770148 | 2.971779 | 2.0 | 10.351 | 2 | 38.562 | 10.524 | 34.970 | 2 |
| 2025-05-17T22:29:00 | 56.771831 | 2.970053 | 2.0 | 10.347 | 2 | 38.555 | 10.520 | 34.967 | 2 |
| 2025-05-17T22:30:00 | 56.773498 | 2.968418 | 2.0 | 10.345 | 2 | 38.553 | 10.516 | 34.968 | 2 |
| 2025-05-17T22:31:00 | 56.775103 | 2.966782 | 2.0 | 10.346 | 2 | 38.552 | 10.514 | 34.969 | 2 |
| 2025-05-17T22:32:00 | 56.776699 | 2.965172 | 2.0 | 10.346 | 2 | 38.555 | 10.516 | 34.970 | 2 |
| 2025-05-17T22:33:00 | 56.778239 | 2.963554 | 2.0 | 10.345 | 2 | 38.555 | 10.514 | 34.972 | 2 |
| 2025-05-17T22:34:00 | 56.779857 | 2.961910 | 2.0 | 10.341 | 2 | 38.554 | 10.512 | 34.973 | 2 |
| 2025-05-17T22:35:00 | 56.781516 | 2.960284 | 2.0 | 10.339 | 2 | 38.551 | 10.510 | 34.972 | 2 |
| 2025-05-17T22:36:00 | 56.783084 | 2.958690 | 2.0 | 10.338 | 2 | 38.526 | 10.510 | 34.947 | 2 |
| 2025-05-17T22:37:00 | 56.784507 | 2.957212 | 2.0 | 10.336 | 2 | 38.539 | 10.507 | 34.963 | 2 |
| 2025-05-17T22:38:00 | 56.786048 | 2.955738 | 2.0 | 10.329 | 2 | 38.537 | 10.504 | 34.964 | 2 |
| 2025-05-17T22:39:00 | 56.787567 | 2.954169 | 2.0 | 10.322 | 2 | 38.538 | 10.497 | 34.971 | 2 |
| 2025-05-17T22:40:00 | 56.789254 | 2.952403 | 2.0 | 10.321 | 2 | 38.533 | 10.491 | 34.972 | 2 |
| 2025-05-17T22:41:00 | 56.791016 | 2.950567 | 2.0 | 10.318 | 2 | 38.532 | 10.489 | 34.973 | 2 |
| 2025-05-17T22:42:00 | 56.792739 | 2.948871 | 2.0 | 10.318 | 2 | 38.532 | 10.487 | 34.975 | 2 |
| 2025-05-17T22:43:00 | 56.794421 | 2.947266 | 2.0 | 10.314 | 2 | 38.531 | 10.485 | 34.976 | 2 |
| 2025-05-17T22:44:00 | 56.796163 | 2.945531 | 2.0 | 10.312 | 2 | 38.528 | 10.481 | 34.977 | 2 |
| 2025-05-17T22:45:00 | 56.797875 | 2.943742 | 2.0 | 10.312 | 2 | 38.527 | 10.481 | 34.976 | 2 |
| 2025-05-17T22:46:00 | 56.799480 | 2.942073 | 2.0 | 10.312 | 2 | 38.526 | 10.479 | 34.977 | 2 |
| 2025-05-17T22:47:00 | 56.801050 | 2.940487 | 2.0 | 10.314 | 2 | 38.526 | 10.480 | 34.976 | 2 |
| 2025-05-17T22:48:00 | 56.802640 | 2.938977 | 2.0 | 10.313 | 2 | 38.527 | 10.483 | 34.974 | 2 |
| 2025-05-17T22:49:00 | 56.804143 | 2.937443 | 2.0 | 10.315 | 2 | 38.528 | 10.481 | 34.977 | 2 |
| 2025-05-17T22:50:00 | 56.805591 | 2.935886 | 2.0 | 10.316 | 2 | 38.528 | 10.482 | 34.976 | 2 |
| 2025-05-17T22:51:00 | 56.807160 | 2.934281 | 2.0 | 10.320 | 2 | 38.531 | 10.485 | 34.976 | 2 |
| 2025-05-17T22:52:00 | 56.808714 | 2.932658 | 2.0 | 10.319 | 2 | 38.532 | 10.486 | 34.976 | 2 |
| 2025-05-17T22:53:00 | 56.810286 | 2.931155 | 2.0 | 10.318 | 2 | 38.533 | 10.486 | 34.977 | 2 |
| 2025-05-17T22:54:00 | 56.811921 | 2.929566 | 2.0 | 10.321 | 2 | 38.534 | 10.487 | 34.977 | 2 |
| 2025-05-17T22:55:00 | 56.813546 | 2.927853 | 2.0 | 10.318 | 2 | 38.534 | 10.487 | 34.977 | 2 |
| 2025-05-17T22:56:00 | 56.815196 | 2.926202 | 2.0 | 10.322 | 2 | 38.533 | 10.487 | 34.976 | 2 |
| 2025-05-17T22:57:00 | 56.816747 | 2.924610 | 2.0 | 10.320 | 2 | 38.534 | 10.489 | 34.975 | 2 |
| 2025-05-17T22:58:00 | 56.818370 | 2.923227 | 2.0 | 10.314 | 2 | 38.531 | 10.487 | 34.974 | 2 |
| 2025-05-17T22:59:00 | 56.820164 | 2.922890 | 2.0 | 10.313 | 2 | 38.529 | 10.482 | 34.977 | 2 |
| 2025-05-17T23:00:00 | 56.821990 | 2.922869 | 2.0 | 10.312 | 2 | 38.528 | 10.480 | 34.978 | 2 |
| 2025-05-17T23:01:00 | 56.823914 | 2.922676 | 2.0 | 10.313 | 2 | 38.529 | 10.480 | 34.979 | 2 |
| 2025-05-17T23:02:00 | 56.825853 | 2.922571 | 2.0 | 10.316 | 2 | 38.529 | 10.482 | 34.977 | 2 |
| 2025-05-17T23:03:00 | 56.827717 | 2.922597 | 2.0 | 10.314 | 2 | 38.530 | 10.483 | 34.977 | 2 |
| 2025-05-17T23:04:00 | 56.829489 | 2.922654 | 2.0 | 10.312 | 2 | 38.530 | 10.482 | 34.978 | 2 |
| 2025-05-17T23:05:00 | 56.831229 | 2.922585 | 2.0 | 10.309 | 2 | 38.528 | 10.478 | 34.980 | 2 |
| 2025-05-17T23:06:00 | 56.833022 | 2.922528 | 2.0 | 10.311 | 2 | 38.521 | 10.477 | 34.974 | 2 |
| 2025-05-17T23:07:00 | 56.834794 | 2.922527 | 2.0 | 10.311 | 2 | 38.526 | 10.479 | 34.977 | 2 |
| 2025-05-17T23:08:00 | 56.836586 | 2.922529 | 2.0 | 10.313 | 2 | 38.530 | 10.480 | 34.980 | 2 |
| 2025-05-17T23:09:00 | 56.838408 | 2.922528 | 2.0 | 10.314 | 2 | 38.530 | 10.482 | 34.978 | 2 |
| 2025-05-17T23:10:00 | 56.840085 | 2.922545 | 2.0 | 10.317 | 2 | 38.534 | 10.482 | 34.982 | 2 |
| 2025-05-17T23:11:00 | 56.841915 | 2.922522 | 2.0 | 10.323 | 2 | 38.539 | 10.486 | 34.983 | 2 |
| 2025-05-17T23:12:00 | 56.843767 | 2.922540 | 2.0 | 10.327 | 2 | 38.544 | 10.490 | 34.984 | 2 |
| 2025-05-17T23:13:00 | 56.845666 | 2.922573 | 2.0 | 10.334 | 2 | 38.553 | 10.497 | 34.987 | 2 |
| 2025-05-17T23:14:00 | 56.847563 | 2.922517 | 2.0 | 10.338 | 2 | 38.560 | 10.501 | 34.990 | 2 |
| 2025-05-17T23:15:00 | 56.849446 | 2.922458 | 2.0 | 10.341 | 2 | 38.565 | 10.507 | 34.989 | 2 |
| 2025-05-17T23:16:00 | 56.851361 | 2.922447 | 2.0 | 10.346 | 2 | 38.570 | 10.509 | 34.992 | 2 |
| 2025-05-17T23:17:00 | 56.853146 | 2.922463 | 2.0 | 10.352 | 2 | 38.575 | 10.515 | 34.992 | 2 |
| 2025-05-17T23:18:00 | 56.854824 | 2.922440 | 2.0 | 10.358 | 2 | 38.581 | 10.520 | 34.993 | 2 |
| 2025-05-17T23:19:00 | 56.856672 | 2.922391 | 2.0 | 10.365 | 2 | 38.588 | 10.526 | 34.994 | 2 |
| 2025-05-17T23:20:00 | 56.858581 | 2.922373 | 2.0 | 10.371 | 2 | 38.596 | 10.532 | 34.997 | 2 |
| 2025-05-17T23:21:00 | 56.860410 | 2.922445 | 2.0 | 10.379 | 2 | 38.602 | 10.539 | 34.996 | 2 |
| 2025-05-17T23:22:00 | 56.862182 | 2.922415 | 2.0 | 10.385 | 2 | 38.611 | 10.546 | 34.998 | 2 |
| 2025-05-17T23:23:00 | 56.863942 | 2.922363 | 2.0 | 10.386 | 2 | 38.619 | 10.552 | 35.001 | 2 |
| 2025-05-17T23:24:00 | 56.865721 | 2.922359 | 2.0 | 10.392 | 2 | 38.623 | 10.555 | 35.002 | 2 |
| 2025-05-17T23:25:00 | 56.867536 | 2.922332 | 2.0 | 10.397 | 2 | 38.627 | 10.559 | 35.002 | 2 |
| 2025-05-17T23:26:00 | 56.869309 | 2.922392 | 2.0 | 10.402 | 2 | 38.631 | 10.565 | 35.000 | 2 |
| 2025-05-17T23:27:00 | 56.871160 | 2.922345 | 2.0 | 10.406 | 2 | 38.637 | 10.569 | 35.002 | 2 |
| 2025-05-17T23:28:00 | 56.873113 | 2.922305 | 2.0 | 10.413 | 2 | 38.643 | 10.574 | 35.004 | 2 |
| 2025-05-17T23:29:00 | 56.874980 | 2.922368 | 2.0 | 10.414 | 2 | 38.650 | 10.580 | 35.005 | 2 |
| 2025-05-17T23:30:00 | 56.876818 | 2.922373 | 2.0 | 10.416 | 2 | 38.653 | 10.581 | 35.007 | 2 |
| 2025-05-17T23:31:00 | 56.878690 | 2.922319 | 2.0 | 10.418 | 2 | 38.656 | 10.583 | 35.008 | 2 |
| 2025-05-17T23:32:00 | 56.880464 | 2.922280 | 2.0 | 10.421 | 2 | 38.658 | 10.586 | 35.007 | 2 |
| 2025-05-17T23:33:00 | 56.882222 | 2.922289 | 2.0 | 10.422 | 2 | 38.660 | 10.588 | 35.007 | 2 |
| 2025-05-17T23:34:00 | 56.884029 | 2.922284 | 2.0 | 10.421 | 2 | 38.661 | 10.588 | 35.008 | 2 |
| 2025-05-17T23:35:00 | 56.885906 | 2.922301 | 2.0 | 10.422 | 2 | 38.662 | 10.587 | 35.010 | 2 |
| 2025-05-17T23:36:00 | 56.887777 | 2.922302 | 2.0 | 10.416 | 2 | 38.663 | 10.587 | 35.011 | 2 |
| 2025-05-17T23:37:00 | 56.889695 | 2.922249 | 2.0 | 10.415 | 2 | 38.660 | 10.584 | 35.011 | 2 |
| 2025-05-17T23:38:00 | 56.891618 | 2.922213 | 2.0 | 10.415 | 2 | 38.661 | 10.583 | 35.013 | 2 |
| 2025-05-17T23:39:00 | 56.893603 | 2.922216 | 2.0 | 10.417 | 2 | 38.661 | 10.583 | 35.013 | 2 |
| 2025-05-17T23:40:00 | 56.895509 | 2.922242 | 2.0 | 10.418 | 2 | 38.664 | 10.584 | 35.015 | 2 |
| 2025-05-17T23:41:00 | 56.897308 | 2.922228 | 2.0 | 10.417 | 2 | 38.666 | 10.586 | 35.015 | 2 |
| 2025-05-17T23:42:00 | 56.899086 | 2.922194 | 2.0 | 10.415 | 2 | 38.635 | 10.587 | 34.983 | 2 |
| 2025-05-17T23:43:00 | 56.900753 | 2.922189 | 2.0 | 10.417 | 2 | 38.653 | 10.582 | 35.006 | 2 |
| 2025-05-17T23:44:00 | 56.902499 | 2.922190 | 2.0 | 10.417 | 2 | 38.658 | 10.582 | 35.011 | 2 |
| 2025-05-17T23:45:00 | 56.904270 | 2.922227 | 2.0 | 10.415 | 2 | 38.663 | 10.582 | 35.016 | 2 |
| 2025-05-17T23:46:00 | 56.906051 | 2.922184 | 2.0 | 10.410 | 2 | 38.666 | 10.581 | 35.020 | 2 |
| 2025-05-17T23:47:00 | 56.907890 | 2.922142 | 2.0 | 10.404 | 2 | 38.662 | 10.576 | 35.021 | 2 |
| 2025-05-17T23:48:00 | 56.909789 | 2.922144 | 2.0 | 10.400 | 2 | 38.655 | 10.570 | 35.020 | 2 |
| 2025-05-17T23:49:00 | 56.911657 | 2.922237 | 2.0 | 10.395 | 2 | 38.645 | 10.566 | 35.013 | 2 |
| 2025-05-17T23:50:00 | 56.913522 | 2.922201 | 2.0 | 10.392 | 2 | 38.644 | 10.563 | 35.015 | 2 |
| 2025-05-17T23:51:00 | 56.915170 | 2.922150 | 2.0 | 10.389 | 2 | 38.642 | 10.559 | 35.017 | 2 |
| 2025-05-17T23:52:00 | 56.916843 | 2.922122 | 2.0 | 10.385 | 2 | 38.639 | 10.555 | 35.018 | 2 |
| 2025-05-17T23:53:00 | 56.918574 | 2.922092 | 2.0 | 10.385 | 2 | 38.638 | 10.552 | 35.020 | 2 |
| 2025-05-17T23:54:00 | 56.920307 | 2.922086 | 2.0 | 10.386 | 2 | 38.635 | 10.551 | 35.018 | 2 |
| 2025-05-17T23:55:00 | 56.922086 | 2.922107 | 2.0 | 10.384 | 2 | 38.637 | 10.551 | 35.020 | 2 |
| 2025-05-17T23:56:00 | 56.923905 | 2.922107 | 2.0 | 10.384 | 2 | 38.641 | 10.551 | 35.024 | 2 |
| 2025-05-17T23:57:00 | 56.925754 | 2.922102 | 2.0 | 10.385 | 2 | 38.641 | 10.550 | 35.025 | 2 |
| 2025-05-17T23:58:00 | 56.927555 | 2.922085 | 2.0 | 10.383 | 2 | 38.643 | 10.551 | 35.026 | 2 |
| 2025-05-17T23:59:00 | 56.929316 | 2.922111 | 2.0 | 10.384 | 2 | 38.632 | 10.551 | 35.015 | 2 |
| 2025-05-18T00:00:00 | 56.931000 | 2.922090 | 2.0 | 10.384 | 2 | 38.631 | 10.552 | 35.013 | 2 |
| 2025-05-18T00:01:00 | 56.932681 | 2.922051 | 2.0 | 10.382 | 2 | 38.589 | 10.550 | 34.972 | 2 |
| 2025-05-18T00:02:00 | 56.934516 | 2.922088 | 2.0 | 10.380 | 2 | 38.631 | 10.548 | 35.017 | 2 |
| 2025-05-18T00:03:00 | 56.936335 | 2.922006 | 2.0 | 10.382 | 2 | 38.627 | 10.549 | 35.012 | 2 |
| 2025-05-18T00:04:00 | 56.937946 | 2.922023 | 2.0 | 10.380 | 2 | 38.641 | 10.548 | 35.027 | 2 |
| 2025-05-18T00:05:00 | 56.939548 | 2.922019 | 2.0 | 10.384 | 2 | 38.641 | 10.547 | 35.028 | 2 |
| 2025-05-18T00:06:00 | 56.941192 | 2.922058 | 2.0 | 10.385 | 2 | 38.644 | 10.549 | 35.029 | 2 |
| 2025-05-18T00:07:00 | 56.943027 | 2.922035 | 2.0 | 10.388 | 2 | 38.647 | 10.552 | 35.029 | 2 |
| 2025-05-18T00:08:00 | 56.945032 | 2.922002 | 2.0 | 10.391 | 2 | 38.652 | 10.555 | 35.031 | 2 |
| 2025-05-18T00:09:00 | 56.947041 | 2.922020 | 2.0 | 10.395 | 2 | 38.656 | 10.558 | 35.032 | 2 |
| 2025-05-18T00:10:00 | 56.949080 | 2.922010 | 2.0 | 10.399 | 2 | 38.662 | 10.563 | 35.033 | 2 |
| 2025-05-18T00:11:00 | 56.951141 | 2.921983 | 2.0 | 10.401 | 2 | 38.666 | 10.567 | 35.034 | 2 |
| 2025-05-18T00:12:00 | 56.953066 | 2.922007 | 2.0 | 10.406 | 2 | 38.670 | 10.569 | 35.036 | 2 |
| 2025-05-18T00:14:00 | 56.956777 | 2.921972 | 2.0 | 10.404 | 2 | 38.664 | 10.575 | 35.024 | 2 |
| 2025-05-18T00:15:00 | 56.958637 | 2.921941 | 2.0 | 10.404 | 2 | 38.664 | 10.571 | 35.028 | 2 |
| 2025-05-18T00:16:00 | 56.960639 | 2.921895 | 2.0 | 10.396 | 2 | 38.667 | 10.570 | 35.032 | 2 |
| 2025-05-18T00:17:00 | 56.962685 | 2.921917 | 2.0 | 10.384 | 2 | 38.663 | 10.561 | 35.036 | 2 |
| 2025-05-18T00:18:00 | 56.964732 | 2.921935 | 2.0 | 10.379 | 2 | 38.650 | 10.550 | 35.034 | 2 |
| 2025-05-18T00:19:00 | 56.966782 | 2.921907 | 2.0 | 10.375 | 2 | 38.645 | 10.547 | 35.032 | 2 |
| 2025-05-18T00:20:00 | 56.968757 | 2.921945 | 2.0 | 10.370 | 2 | 38.640 | 10.541 | 35.032 | 2 |
| 2025-05-18T00:21:00 | 56.970857 | 2.921872 | 2.0 | 10.373 | 2 | 38.649 | 10.538 | 35.044 | 2 |
| 2025-05-18T00:22:00 | 56.972915 | 2.921861 | 2.0 | 10.371 | 2 | 38.613 | 10.542 | 35.004 | 2 |
| 2025-05-18T00:23:00 | 56.974989 | 2.921888 | 2.0 | 10.378 | 2 | 38.628 | 10.540 | 35.021 | 2 |
| 2025-05-18T00:24:00 | 56.977117 | 2.921906 | 2.0 | 10.379 | 2 | 38.657 | 10.546 | 35.045 | 2 |
| 2025-05-18T00:25:00 | 56.979056 | 2.921844 | 2.0 | 10.381 | 2 | 38.660 | 10.547 | 35.047 | 2 |
| 2025-05-18T00:26:00 | 56.981018 | 2.921885 | 2.0 | 10.387 | 2 | 38.664 | 10.551 | 35.047 | 2 |
| 2025-05-18T00:27:00 | 56.983074 | 2.921810 | 2.0 | 10.394 | 2 | 38.668 | 10.555 | 35.047 | 2 |
| 2025-05-18T00:28:00 | 56.985153 | 2.921822 | 2.0 | 10.399 | 2 | 38.674 | 10.563 | 35.046 | 2 |
| 2025-05-18T00:29:00 | 56.987167 | 2.921830 | 2.0 | 10.402 | 2 | 38.679 | 10.567 | 35.047 | 2 |
| 2025-05-18T00:30:00 | 56.989323 | 2.921756 | 2.0 | 10.405 | 2 | 38.681 | 10.569 | 35.047 | 2 |
| 2025-05-18T00:31:00 | 56.991447 | 2.921775 | 2.0 | 10.406 | 2 | 38.684 | 10.572 | 35.047 | 2 |
| 2025-05-18T00:32:00 | 56.993519 | 2.921736 | 2.0 | 10.403 | 2 | 38.684 | 10.573 | 35.046 | 2 |
| 2025-05-18T00:35:00 | 56.999308 | 2.921789 | 2.0 | 10.390 | 2 | 38.649 | 10.561 | 35.022 | 2 |
| 2025-05-18T00:36:00 | 57.001361 | 2.921709 | 2.0 | 10.388 | 2 | 38.647 | 10.558 | 35.023 | 2 |
| 2025-05-18T00:37:00 | 57.003314 | 2.921695 | 2.0 | 10.385 | 2 | 38.655 | 10.555 | 35.034 | 2 |
| 2025-05-18T00:38:00 | 57.005298 | 2.921730 | 2.0 | 10.381 | 2 | 38.655 | 10.553 | 35.036 | 2 |
| 2025-05-18T00:39:00 | 57.007208 | 2.921705 | 2.0 | 10.382 | 2 | 38.654 | 10.550 | 35.038 | 2 |
| 2025-05-18T00:40:00 | 57.009257 | 2.921715 | 2.0 | 10.378 | 2 | 38.653 | 10.548 | 35.039 | 2 |
| 2025-05-18T00:41:00 | 57.011272 | 2.921684 | 2.0 | 10.377 | 2 | 38.652 | 10.545 | 35.041 | 2 |
| 2025-05-18T00:44:00 | 57.016859 | 2.921682 | 2.0 | 10.378 | 2 | 38.593 | 10.543 | 34.983 | 2 |
| 2025-05-18T00:45:00 | 57.018893 | 2.921671 | 2.0 | 10.380 | 2 | 38.647 | 10.547 | 35.034 | 2 |
| 2025-05-18T00:46:00 | 57.020867 | 2.921626 | 2.0 | 10.383 | 2 | 38.652 | 10.548 | 35.038 | 2 |
| 2025-05-18T00:47:00 | 57.022922 | 2.921626 | 2.0 | 10.386 | 2 | 38.665 | 10.552 | 35.047 | 2 |
| 2025-05-18T00:48:00 | 57.024959 | 2.921600 | 2.0 | 10.390 | 2 | 38.663 | 10.553 | 35.044 | 2 |
| 2025-05-18T00:49:00 | 57.026958 | 2.921606 | 2.0 | 10.393 | 2 | 38.663 | 10.558 | 35.039 | 2 |
| 2025-05-18T00:50:00 | 57.028894 | 2.921604 | 2.0 | 10.396 | 2 | 38.675 | 10.560 | 35.049 | 2 |
| 2025-05-18T00:51:00 | 57.030884 | 2.921548 | 2.0 | 10.392 | 2 | 38.680 | 10.561 | 35.054 | 2 |
| 2025-05-18T00:52:00 | 57.032950 | 2.921543 | 2.0 | 10.395 | 2 | 38.679 | 10.559 | 35.054 | 2 |
| 2025-05-18T00:53:00 | 57.035082 | 2.921555 | 2.0 | 10.398 | 2 | 38.681 | 10.563 | 35.053 | 2 |
| 2025-05-18T00:54:00 | 57.037028 | 2.921575 | 2.0 | 10.398 | 2 | 38.668 | 10.565 | 35.038 | 2 |
| 2025-05-18T00:55:00 | 57.038921 | 2.921511 | 2.0 | 10.398 | 2 | 38.679 | 10.565 | 35.049 | 2 |
| 2025-05-18T00:56:00 | 57.040746 | 2.921479 | 2.0 | 10.400 | 2 | 38.684 | 10.565 | 35.054 | 2 |
| 2025-05-18T00:57:00 | 57.042670 | 2.921473 | 2.0 | 10.403 | 2 | 38.686 | 10.566 | 35.055 | 2 |
| 2025-05-18T00:58:00 | 57.044689 | 2.921481 | 2.0 | 10.399 | 2 | 38.689 | 10.568 | 35.056 | 2 |
| 2025-05-18T00:59:00 | 57.046722 | 2.921522 | 2.0 | 10.401 | 2 | 38.687 | 10.565 | 35.057 | 2 |
| 2025-05-18T01:00:00 | 57.048782 | 2.921439 | 2.0 | 10.401 | 2 | 38.689 | 10.568 | 35.056 | 2 |
| 2025-05-18T01:02:00 | 57.052489 | 2.921411 | 2.0 | 10.406 | 2 | 38.666 | 10.568 | 35.033 | 2 |
| 2025-05-18T01:03:00 | 57.054517 | 2.921384 | 2.0 | 10.413 | 2 | 38.681 | 10.573 | 35.043 | 2 |
| 2025-05-18T01:04:00 | 57.056566 | 2.921384 | 2.0 | 10.417 | 2 | 38.695 | 10.579 | 35.051 | 2 |
| 2025-05-18T01:05:00 | 57.058693 | 2.921428 | 2.0 | 10.421 | 2 | 38.705 | 10.584 | 35.057 | 2 |
| 2025-05-18T01:06:00 | 57.060744 | 2.921467 | 2.0 | 10.420 | 2 | 38.714 | 10.587 | 35.063 | 2 |
| 2025-05-18T01:07:00 | 57.062780 | 2.921440 | 2.0 | 10.419 | 2 | 38.713 | 10.588 | 35.061 | 2 |
| 2025-05-18T01:08:00 | 57.064691 | 2.921393 | 2.0 | 10.419 | 2 | 38.717 | 10.586 | 35.067 | 2 |
| 2025-05-18T01:09:00 | 57.066676 | 2.921338 | 2.0 | 10.418 | 2 | 38.715 | 10.586 | 35.065 | 2 |
| 2025-05-18T01:10:00 | 57.068723 | 2.921328 | 2.0 | 10.417 | 2 | 38.722 | 10.585 | 35.073 | 2 |
| 2025-05-18T01:11:00 | 57.070762 | 2.921365 | 2.0 | 10.410 | 2 | 38.719 | 10.583 | 35.072 | 2 |
| 2025-05-18T01:12:00 | 57.072802 | 2.921358 | 2.0 | 10.408 | 2 | 38.717 | 10.577 | 35.076 | 2 |
| 2025-05-18T01:13:00 | 57.074825 | 2.921313 | 2.0 | 10.401 | 2 | 38.708 | 10.574 | 35.069 | 2 |
| 2025-05-18T01:14:00 | 57.076822 | 2.921294 | 2.0 | 10.395 | 2 | 38.707 | 10.567 | 35.075 | 2 |
| 2025-05-18T01:15:00 | 57.078878 | 2.921313 | 2.0 | 10.389 | 2 | 38.699 | 10.562 | 35.072 | 2 |
| 2025-05-18T01:16:00 | 57.080898 | 2.921310 | 2.0 | 10.385 | 2 | 38.697 | 10.556 | 35.076 | 2 |
| 2025-05-18T01:17:00 | 57.082953 | 2.921263 | 2.0 | 10.382 | 2 | 38.692 | 10.552 | 35.074 | 2 |
| 2025-05-18T01:18:00 | 57.084932 | 2.921278 | 2.0 | 10.381 | 2 | 38.690 | 10.549 | 35.075 | 2 |
| 2025-05-18T01:19:00 | 57.086942 | 2.921255 | 2.0 | 10.376 | 2 | 38.687 | 10.547 | 35.074 | 2 |
| 2025-05-18T01:20:00 | 57.088862 | 2.921231 | 2.0 | 10.375 | 2 | 38.680 | 10.542 | 35.072 | 2 |
| 2025-05-18T01:21:00 | 57.090887 | 2.921246 | 2.0 | 10.379 | 2 | 38.683 | 10.544 | 35.073 | 2 |
| 2025-05-18T01:22:00 | 57.092816 | 2.921264 | 2.0 | 10.378 | 2 | 38.682 | 10.546 | 35.070 | 2 |
| 2025-05-18T01:23:00 | 57.094536 | 2.921238 | 2.0 | 10.379 | 2 | 38.677 | 10.548 | 35.063 | 2 |
| 2025-05-18T01:25:00 | 57.097973 | 2.921166 | 2.0 | 10.382 | 2 | 38.661 | 10.546 | 35.049 | 2 |
| 2025-05-18T01:26:00 | 57.099955 | 2.921111 | 2.0 | 10.385 | 2 | 38.690 | 10.549 | 35.075 | 2 |
| 2025-05-18T01:27:00 | 57.101900 | 2.921165 | 2.0 | 10.385 | 2 | 38.690 | 10.551 | 35.073 | 2 |
| 2025-05-18T01:28:00 | 57.103794 | 2.921190 | 2.0 | 10.387 | 2 | 38.688 | 10.553 | 35.069 | 2 |
| 2025-05-18T01:29:00 | 57.105631 | 2.921179 | 2.0 | 10.391 | 2 | 38.691 | 10.554 | 35.071 | 2 |
| 2025-05-18T01:30:00 | 57.107539 | 2.921093 | 2.0 | 10.392 | 2 | 38.695 | 10.557 | 35.073 | 2 |
| 2025-05-18T01:31:00 | 57.109512 | 2.921135 | 2.0 | 10.396 | 2 | 38.704 | 10.559 | 35.080 | 2 |
| 2025-05-18T01:32:00 | 57.111432 | 2.921153 | 2.0 | 10.399 | 2 | 38.706 | 10.564 | 35.077 | 2 |
| 2025-05-18T01:33:00 | 57.113267 | 2.921149 | 2.0 | 10.401 | 2 | 38.705 | 10.565 | 35.075 | 2 |
| 2025-05-18T01:34:00 | 57.115157 | 2.921142 | 2.0 | 10.401 | 2 | 38.711 | 10.566 | 35.080 | 2 |
| 2025-05-18T01:35:00 | 57.117147 | 2.921109 | 2.0 | 10.399 | 2 | 38.715 | 10.568 | 35.082 | 2 |
| 2025-05-18T01:36:00 | 57.119131 | 2.921056 | 2.0 | 10.398 | 2 | 38.713 | 10.566 | 35.082 | 2 |
| 2025-05-18T01:37:00 | 57.121075 | 2.921074 | 2.0 | 10.394 | 2 | 38.713 | 10.564 | 35.084 | 2 |
| 2025-05-18T01:38:00 | 57.122987 | 2.921139 | 2.0 | 10.390 | 2 | 38.697 | 10.560 | 35.072 | 2 |
| 2025-05-18T01:40:00 | 57.126539 | 2.921049 | 2.0 | 10.380 | 2 | 38.616 | 10.548 | 35.001 | 2 |
| 2025-05-18T01:42:00 | 57.130393 | 2.921087 | 2.0 | 10.369 | 2 | 38.605 | 10.542 | 34.996 | 2 |
| 2025-05-18T01:43:00 | 57.132369 | 2.921025 | 2.0 | 10.365 | 2 | 38.675 | 10.536 | 35.073 | 2 |
| 2025-05-18T01:44:00 | 57.134258 | 2.920962 | 2.0 | 10.358 | 2 | 38.672 | 10.532 | 35.073 | 2 |
| 2025-05-18T01:45:00 | 57.136069 | 2.921002 | 2.0 | 10.354 | 2 | 38.668 | 10.524 | 35.077 | 2 |
| 2025-05-18T01:46:00 | 57.138009 | 2.920994 | 2.0 | 10.351 | 2 | 38.663 | 10.521 | 35.075 | 2 |
| 2025-05-18T01:47:00 | 57.140043 | 2.920996 | 2.0 | 10.348 | 2 | 38.668 | 10.518 | 35.083 | 2 |
| 2025-05-18T01:51:00 | 57.147970 | 2.920930 | 2.0 | 10.338 | 2 | 38.502 | 10.504 | 34.928 | 2 |
| 2025-05-18T01:53:00 | 57.151825 | 2.920968 | 2.0 | 10.334 | 2 | 38.663 | 10.503 | 35.092 | 2 |
| 2025-05-18T01:54:00 | 57.153599 | 2.920913 | 2.0 | 10.332 | 2 | 38.665 | 10.501 | 35.096 | 2 |
| 2025-05-18T01:55:00 | 57.155446 | 2.920922 | 2.0 | 10.333 | 2 | 38.664 | 10.499 | 35.097 | 2 |
| 2025-05-18T01:56:00 | 57.157270 | 2.920915 | 2.0 | 10.335 | 2 | 38.666 | 10.499 | 35.099 | 2 |
| 2025-05-18T01:57:00 | 57.159053 | 2.920894 | 2.0 | 10.338 | 2 | 38.669 | 10.501 | 35.100 | 2 |
| 2025-05-18T01:58:00 | 57.160968 | 2.920913 | 2.0 | 10.336 | 2 | 38.672 | 10.504 | 35.100 | 2 |
| 2025-05-18T01:59:00 | 57.162813 | 2.920913 | 2.0 | 10.335 | 2 | 38.670 | 10.502 | 35.100 | 2 |
| 2025-05-18T02:00:00 | 57.164665 | 2.920892 | 2.0 | 10.335 | 2 | 38.672 | 10.501 | 35.103 | 2 |
| 2025-05-18T02:01:00 | 57.166567 | 2.920915 | 2.0 | 10.333 | 2 | 38.673 | 10.501 | 35.104 | 2 |
| 2025-05-18T02:02:00 | 57.168402 | 2.920895 | 2.0 | 10.329 | 2 | 38.674 | 10.500 | 35.106 | 2 |
| 2025-05-18T02:03:00 | 57.170189 | 2.920820 | 2.0 | 10.325 | 2 | 38.670 | 10.494 | 35.108 | 2 |
| 2025-05-18T02:04:00 | 57.172052 | 2.920796 | 2.0 | 10.320 | 2 | 38.668 | 10.492 | 35.108 | 2 |
| 2025-05-18T02:05:00 | 57.173762 | 2.920815 | 2.0 | 10.314 | 2 | 38.649 | 10.487 | 35.094 | 2 |
| 2025-05-18T02:06:00 | 57.175581 | 2.920796 | 2.0 | 10.311 | 2 | 38.642 | 10.482 | 35.091 | 2 |
| 2025-05-18T02:07:00 | 57.177439 | 2.920770 | 2.0 | 10.307 | 2 | 38.644 | 10.477 | 35.098 | 2 |
| 2025-05-18T02:08:00 | 57.179378 | 2.920795 | 2.0 | 10.306 | 2 | 38.642 | 10.475 | 35.098 | 2 |
| 2025-05-18T02:09:00 | 57.181296 | 2.920813 | 2.0 | 10.299 | 2 | 38.637 | 10.473 | 35.095 | 2 |
| 2025-05-18T02:10:00 | 57.183085 | 2.920814 | 2.0 | 10.292 | 2 | 38.636 | 10.466 | 35.101 | 2 |
| 2025-05-18T02:11:00 | 57.184806 | 2.920770 | 2.0 | 10.288 | 2 | 38.637 | 10.459 | 35.108 | 2 |
| 2025-05-18T02:12:00 | 57.186663 | 2.920778 | 2.0 | 10.286 | 2 | 38.634 | 10.456 | 35.108 | 2 |
| 2025-05-18T02:13:00 | 57.188498 | 2.920787 | 2.0 | 10.286 | 2 | 38.618 | 10.455 | 35.093 | 2 |
| 2025-05-18T02:14:00 | 57.190387 | 2.920715 | 2.0 | 10.281 | 2 | 38.614 | 10.451 | 35.093 | 2 |
| 2025-05-18T02:15:00 | 57.192240 | 2.920695 | 2.0 | 10.282 | 2 | 38.613 | 10.450 | 35.093 | 2 |
| 2025-05-18T02:16:00 | 57.194018 | 2.920736 | 2.0 | 10.282 | 2 | 38.622 | 10.449 | 35.103 | 2 |
| 2025-05-18T02:17:00 | 57.195873 | 2.920821 | 2.0 | 10.280 | 2 | 38.629 | 10.450 | 35.109 | 2 |
| 2025-05-18T02:18:00 | 57.197664 | 2.920743 | 2.0 | 10.279 | 2 | 38.625 | 10.446 | 35.109 | 2 |
| 2025-05-18T02:19:00 | 57.199555 | 2.920662 | 2.0 | 10.282 | 2 | 38.629 | 10.447 | 35.112 | 2 |
| 2025-05-18T02:20:00 | 57.201439 | 2.920613 | 2.0 | 10.280 | 2 | 38.632 | 10.449 | 35.113 | 2 |
| 2025-05-18T02:21:00 | 57.203350 | 2.920633 | 2.0 | 10.281 | 2 | 38.628 | 10.448 | 35.110 | 2 |
| 2025-05-18T02:22:00 | 57.205370 | 2.920681 | 2.0 | 10.284 | 2 | 38.634 | 10.450 | 35.114 | 2 |
| 2025-05-18T02:23:00 | 57.207199 | 2.920669 | 2.0 | 10.282 | 2 | 38.630 | 10.452 | 35.108 | 2 |
| 2025-05-18T02:24:00 | 57.208923 | 2.920629 | 2.0 | 10.282 | 2 | 38.628 | 10.450 | 35.108 | 2 |
| 2025-05-18T02:25:00 | 57.210693 | 2.920610 | 2.0 | 10.279 | 2 | 38.631 | 10.448 | 35.113 | 2 |
| 2025-05-18T02:26:00 | 57.212555 | 2.920568 | 2.0 | 10.278 | 2 | 38.633 | 10.447 | 35.116 | 2 |
| 2025-05-18T02:27:00 | 57.214439 | 2.920585 | 2.0 | 10.275 | 2 | 38.634 | 10.445 | 35.119 | 2 |
| 2025-05-18T02:28:00 | 57.216266 | 2.920626 | 2.0 | 10.276 | 2 | 38.617 | 10.447 | 35.100 | 2 |
| 2025-05-18T02:29:00 | 57.218031 | 2.920632 | 2.0 | 10.275 | 2 | 38.495 | 10.446 | 34.977 | 2 |
| 2025-05-18T02:30:00 | 57.219744 | 2.920595 | 2.0 | 10.275 | 2 | 38.618 | 10.442 | 35.106 | 2 |
| 2025-05-18T02:31:00 | 57.221438 | 2.920571 | 2.0 | 10.273 | 2 | 38.631 | 10.441 | 35.120 | 2 |
| 2025-05-18T02:32:00 | 57.223285 | 2.920558 | 2.0 | 10.272 | 2 | 38.631 | 10.440 | 35.121 | 2 |
| 2025-05-18T02:33:00 | 57.225108 | 2.920613 | 2.0 | 10.269 | 2 | 38.631 | 10.438 | 35.123 | 2 |
| 2025-05-18T02:34:00 | 57.226945 | 2.920627 | 2.0 | 10.265 | 2 | 38.629 | 10.435 | 35.123 | 2 |
| 2025-05-18T02:35:00 | 57.228891 | 2.920551 | 2.0 | 10.259 | 2 | 38.626 | 10.431 | 35.124 | 2 |
| 2025-05-18T02:36:00 | 57.230859 | 2.920532 | 2.0 | 10.259 | 2 | 38.620 | 10.426 | 35.123 | 2 |
| 2025-05-18T02:37:00 | 57.232779 | 2.920563 | 2.0 | 10.264 | 2 | 38.615 | 10.428 | 35.116 | 2 |
| 2025-05-18T02:38:00 | 57.234637 | 2.920551 | 2.0 | 10.266 | 2 | 38.594 | 10.432 | 35.091 | 2 |
| 2025-05-18T02:39:00 | 57.236360 | 2.920459 | 2.0 | 10.266 | 2 | 38.593 | 10.435 | 35.087 | 2 |
| 2025-05-18T02:40:00 | 57.238191 | 2.920459 | 2.0 | 10.268 | 2 | 38.619 | 10.433 | 35.115 | 2 |
| 2025-05-18T02:41:00 | 57.240101 | 2.920541 | 2.0 | 10.272 | 2 | 38.625 | 10.436 | 35.118 | 2 |
| 2025-05-18T02:42:00 | 57.242008 | 2.920562 | 2.0 | 10.278 | 2 | 38.633 | 10.440 | 35.123 | 2 |
| 2025-05-18T02:43:00 | 57.243821 | 2.920519 | 2.0 | 10.277 | 2 | 38.640 | 10.444 | 35.126 | 2 |
| 2025-05-18T02:44:00 | 57.245601 | 2.920500 | 2.0 | 10.271 | 2 | 38.642 | 10.443 | 35.129 | 2 |
| 2025-05-18T02:45:00 | 57.247355 | 2.920481 | 2.0 | 10.271 | 2 | 38.641 | 10.438 | 35.133 | 2 |
| 2025-05-18T02:46:00 | 57.249185 | 2.920455 | 2.0 | 10.270 | 2 | 38.639 | 10.438 | 35.131 | 2 |
| 2025-05-18T02:47:00 | 57.250984 | 2.920422 | 2.0 | 10.265 | 2 | 38.603 | 10.437 | 35.095 | 2 |
| 2025-05-18T02:49:00 | 57.254318 | 2.920353 | 2.0 | 10.261 | 2 | 38.603 | 10.432 | 35.100 | 2 |
| 2025-05-18T02:50:00 | 57.255858 | 2.920440 | 2.0 | 10.261 | 2 | 38.586 | 10.429 | 35.086 | 2 |
| 2025-05-18T02:51:00 | 57.257490 | 2.920362 | 2.0 | 10.256 | 2 | 38.609 | 10.428 | 35.110 | 2 |
| 2025-05-18T02:52:00 | 57.258952 | 2.920379 | 2.0 | 10.255 | 2 | 38.595 | 10.426 | 35.098 | 2 |
| 2025-05-18T02:53:00 | 57.260554 | 2.920385 | 2.0 | 10.250 | 2 | 38.575 | 10.423 | 35.080 | 2 |
| 2025-05-18T02:54:00 | 57.262049 | 2.920392 | 2.0 | 10.245 | 2 | 38.585 | 10.416 | 35.097 | 2 |
| 2025-05-18T02:55:00 | 57.263682 | 2.920332 | 2.0 | 10.244 | 2 | 38.615 | 10.412 | 35.132 | 2 |
| 2025-05-18T02:56:00 | 57.265512 | 2.920299 | 2.0 | 10.239 | 2 | 38.615 | 10.410 | 35.133 | 2 |
| 2025-05-18T02:57:00 | 57.267370 | 2.920301 | 2.0 | 10.235 | 2 | 38.612 | 10.407 | 35.133 | 2 |
| 2025-05-18T02:58:00 | 57.269171 | 2.920392 | 2.0 | 10.229 | 2 | 38.607 | 10.403 | 35.132 | 2 |
| 2025-05-18T02:59:00 | 57.270898 | 2.920367 | 2.0 | 10.223 | 2 | 38.601 | 10.396 | 35.133 | 2 |
| 2025-05-18T03:00:00 | 57.272651 | 2.920309 | 2.0 | 10.219 | 2 | 38.431 | 10.391 | 34.965 | 2 |
| 2025-05-18T03:01:00 | 57.274447 | 2.920303 | 2.0 | 10.216 | 2 | 38.566 | 10.389 | 35.104 | 2 |
| 2025-05-18T03:03:00 | 57.277716 | 2.920364 | 2.0 | 10.206 | 2 | 38.477 | 10.382 | 35.020 | 2 |
| 2025-05-18T03:04:00 | 57.279215 | 2.920392 | 2.0 | 10.199 | 2 | 38.431 | 10.377 | 34.979 | 2 |
| 2025-05-18T03:05:00 | 57.280748 | 2.920322 | 2.0 | 10.200 | 2 | 38.533 | 10.367 | 35.092 | 2 |
| 2025-05-18T03:06:00 | 57.282509 | 2.920276 | 2.0 | 10.200 | 2 | 38.560 | 10.367 | 35.119 | 2 |
| 2025-05-18T03:07:00 | 57.284394 | 2.920215 | 2.0 | 10.200 | 2 | 38.564 | 10.367 | 35.123 | 2 |
| 2025-05-18T03:08:00 | 57.286331 | 2.920297 | 2.0 | 10.197 | 2 | 38.557 | 10.368 | 35.115 | 2 |
| 2025-05-18T03:09:00 | 57.288117 | 2.920259 | 2.0 | 10.197 | 2 | 38.563 | 10.365 | 35.124 | 2 |
| 2025-05-18T03:10:00 | 57.289872 | 2.920218 | 2.0 | 10.200 | 2 | 38.562 | 10.366 | 35.122 | 2 |
| 2025-05-18T03:11:00 | 57.291699 | 2.920299 | 2.0 | 10.202 | 2 | 38.570 | 10.368 | 35.128 | 2 |
| 2025-05-18T03:12:00 | 57.293461 | 2.920266 | 2.0 | 10.202 | 2 | 38.572 | 10.370 | 35.128 | 2 |
| 2025-05-18T03:13:00 | 57.295192 | 2.920282 | 2.0 | 10.204 | 2 | 38.575 | 10.370 | 35.132 | 2 |
| 2025-05-18T03:14:00 | 57.296851 | 2.920233 | 2.0 | 10.204 | 2 | 38.578 | 10.371 | 35.134 | 2 |
| 2025-05-18T03:15:00 | 57.298579 | 2.920244 | 2.0 | 10.202 | 2 | 38.576 | 10.371 | 35.132 | 2 |
| 2025-05-18T03:19:00 | 57.304805 | 2.920108 | 2.0 | 10.196 | 2 | 38.434 | 10.366 | 34.992 | 2 |
| 2025-05-18T03:20:00 | 57.306400 | 2.920110 | 2.0 | 10.191 | 2 | 38.559 | 10.363 | 35.122 | 2 |
| 2025-05-18T03:21:00 | 57.308024 | 2.920244 | 2.0 | 10.184 | 2 | 38.564 | 10.357 | 35.133 | 2 |
| 2025-05-18T03:22:00 | 57.309757 | 2.920176 | 2.0 | 10.181 | 2 | 38.559 | 10.350 | 35.135 | 2 |
| 2025-05-18T03:23:00 | 57.311729 | 2.920133 | 2.0 | 10.176 | 2 | 38.553 | 10.347 | 35.131 | 2 |
| 2025-05-18T03:24:00 | 57.313842 | 2.920149 | 2.0 | 10.168 | 2 | 38.547 | 10.345 | 35.127 | 2 |
| 2025-05-18T03:26:00 | 57.317997 | 2.920187 | 2.0 | 10.157 | 2 | 38.497 | 10.331 | 35.090 | 2 |
| 2025-05-18T03:28:00 | 57.321730 | 2.920167 | 2.0 | 10.146 | 2 | 38.387 | 10.320 | 34.989 | 2 |
| 2025-05-18T03:29:00 | 57.323558 | 2.920157 | 2.0 | 10.143 | 2 | 38.530 | 10.315 | 35.139 | 2 |
| 2025-05-18T03:30:00 | 57.325508 | 2.920067 | 2.0 | 10.145 | 2 | 38.528 | 10.313 | 35.139 | 2 |
| 2025-05-18T03:31:00 | 57.327474 | 2.920094 | 2.0 | 10.145 | 2 | 38.533 | 10.314 | 35.143 | 2 |
| 2025-05-18T03:32:00 | 57.329612 | 2.920040 | 2.0 | 10.145 | 2 | 38.534 | 10.314 | 35.144 | 2 |
| 2025-05-18T03:33:00 | 57.331739 | 2.920024 | 2.0 | 10.147 | 2 | 38.539 | 10.314 | 35.149 | 2 |
| 2025-05-18T03:34:00 | 57.333815 | 2.920056 | 2.0 | 10.142 | 2 | 38.535 | 10.315 | 35.144 | 2 |
| 2025-05-18T03:36:00 | 57.337656 | 2.919961 | 2.0 | 10.151 | 2 | 38.508 | 10.318 | 35.114 | 2 |
| 2025-05-18T03:39:00 | 57.342698 | 2.919858 | 2.0 | 10.156 | 2 | 38.536 | 10.323 | 35.137 | 2 |
| 2025-05-18T03:40:00 | 57.344340 | 2.919917 | 2.0 | 10.159 | 2 | 38.530 | 10.325 | 35.129 | 2 |
| 2025-05-18T03:41:00 | 57.346132 | 2.919949 | 2.0 | 10.161 | 2 | 38.543 | 10.329 | 35.139 | 2 |
| 2025-05-18T03:45:00 | 57.353282 | 2.919979 | 2.0 | 10.170 | 2 | 38.559 | 10.348 | 35.137 | 2 |
| 2025-05-18T03:46:00 | 57.355077 | 2.919980 | 2.0 | 10.166 | 2 | 38.576 | 10.347 | 35.155 | 2 |
| 2025-05-18T03:47:00 | 57.357021 | 2.919923 | 2.0 | 10.165 | 2 | 38.431 | 10.336 | 35.018 | 2 |
| 2025-05-18T03:48:00 | 57.358904 | 2.919879 | 2.0 | 10.153 | 2 | 38.550 | 10.331 | 35.144 | 2 |
| 2025-05-18T03:53:00 | 57.368642 | 2.919851 | 2.0 | 10.142 | 2 | 38.412 | 10.311 | 35.023 | 2 |
| 2025-05-18T03:54:00 | 57.370715 | 2.919884 | 2.0 | 10.137 | 2 | 38.536 | 10.309 | 35.151 | 2 |
| 2025-05-18T03:55:00 | 57.372807 | 2.919890 | 2.0 | 10.133 | 2 | 38.526 | 10.306 | 35.144 | 2 |
| 2025-05-18T04:03:00 | 57.388116 | 2.919807 | 2.0 | 10.105 | 2 | 38.369 | 10.282 | 35.007 | 2 |
| 2025-05-18T04:04:00 | 57.390181 | 2.919811 | 2.0 | 10.105 | 2 | 38.499 | 10.283 | 35.139 | 2 |
| 2025-05-18T04:06:00 | 57.394002 | 2.919704 | 2.0 | 10.105 | 2 | 38.477 | 10.273 | 35.126 | 2 |
| 2025-05-18T04:09:00 | 57.399813 | 2.919714 | 2.0 | 10.100 | 2 | 38.307 | 10.284 | 34.942 | 2 |
| 2025-05-18T04:12:00 | 57.404747 | 2.919731 | 2.0 | 10.093 | 2 | 38.492 | 10.264 | 35.150 | 2 |
| 2025-05-18T04:15:00 | 57.410286 | 2.919623 | 2.0 | 10.092 | 2 | 38.408 | 10.263 | 35.065 | 2 |
| 2025-05-18T04:16:00 | 57.412307 | 2.919624 | 2.0 | 10.088 | 2 | 38.398 | 10.261 | 35.057 | 2 |
| 2025-05-18T04:17:00 | 57.414193 | 2.919694 | 2.0 | 10.091 | 2 | 38.463 | 10.262 | 35.122 | 2 |
| 2025-05-18T04:20:00 | 57.420221 | 2.919624 | 2.0 | 10.090 | 2 | 38.475 | 10.259 | 35.137 | 2 |
| 2025-05-18T04:35:00 | 57.447546 | 2.919529 | 2.0 | 10.046 | 2 | 38.448 | 10.229 | 35.139 | 2 |
| 2025-05-18T04:36:00 | 57.449634 | 2.919517 | 2.0 | 10.047 | 2 | 38.443 | 10.217 | 35.145 | 2 |
| 2025-05-18T04:37:00 | 57.451670 | 2.919480 | 2.0 | 10.042 | 2 | 38.422 | 10.217 | 35.124 | 2 |
| 2025-05-18T04:56:00 | 57.483064 | 2.919312 | 2.0 | 10.063 | 2 | 38.420 | 10.234 | 35.106 | 2 |
| 2025-05-18T04:58:00 | 57.486591 | 2.919378 | 2.0 | 10.056 | 2 | 38.415 | 10.230 | 35.104 | 2 |
| 2025-05-18T05:01:00 | 57.491789 | 2.919158 | 2.0 | 10.057 | 2 | 38.444 | 10.236 | 35.128 | 2 |
| 2025-05-18T05:06:00 | 57.499784 | 2.918797 | 2.0 | 10.074 | 2 | 38.456 | 10.240 | 35.136 | 2 |
| 2025-05-18T05:09:00 | 57.505120 | 2.918285 | 2.0 | 10.103 | 2 | 38.470 | 10.252 | 35.139 | 2 |
| 2025-05-18T05:13:00 | 57.510895 | 2.923975 | 2.0 | 10.209 | 2 | 38.513 | 10.362 | 35.076 | 2 |
| 2025-05-18T05:17:00 | 57.516084 | 2.936941 | 2.0 | 10.262 | 2 | 38.622 | 10.423 | 35.128 | 2 |
| 2025-05-18T05:18:00 | 57.517185 | 2.940526 | 2.0 | 10.286 | 2 | 38.635 | 10.433 | 35.131 | 2 |
| 2025-05-18T05:19:00 | 57.518222 | 2.944014 | 2.0 | 10.297 | 2 | 38.639 | 10.450 | 35.119 | 2 |
| 2025-05-18T05:20:00 | 57.519447 | 2.947565 | 2.0 | 10.331 | 2 | 38.654 | 10.469 | 35.116 | 2 |
| 2025-05-18T05:21:00 | 57.520576 | 2.951160 | 2.0 | 10.369 | 2 | 38.671 | 10.504 | 35.099 | 2 |
| 2025-05-18T05:22:00 | 57.521663 | 2.954875 | 2.0 | 10.378 | 2 | 38.685 | 10.535 | 35.084 | 2 |
| 2025-05-18T05:23:00 | 57.522857 | 2.958601 | 2.0 | 10.389 | 2 | 38.693 | 10.543 | 35.084 | 2 |
| 2025-05-18T05:24:00 | 57.523943 | 2.962494 | 2.0 | 10.401 | 2 | 38.676 | 10.557 | 35.053 | 2 |
| 2025-05-18T05:25:00 | 57.524930 | 2.966174 | 2.0 | 10.400 | 2 | 38.603 | 10.566 | 34.971 | 2 |
| 2025-05-18T05:26:00 | 57.525827 | 2.970131 | 2.0 | 10.406 | 2 | 38.565 | 10.568 | 34.931 | 2 |
| 2025-05-18T05:27:00 | 57.524876 | 2.974304 | 2.0 | 10.394 | 2 | 38.598 | 10.570 | 34.962 | 2 |
| 2025-05-18T05:28:00 | 57.522352 | 2.976668 | 2.0 | 10.370 | 2 | 38.629 | 10.557 | 35.006 | 2 |
| 2025-05-18T05:29:00 | 57.519859 | 2.979352 | 2.0 | 10.349 | 2 | 38.575 | 10.534 | 34.973 | 2 |
| 2025-05-18T05:30:00 | 57.517073 | 2.981215 | 2.0 | 10.330 | 2 | 38.576 | 10.515 | 34.993 | 2 |
| 2025-05-18T05:31:00 | 57.514319 | 2.983369 | 2.0 | 10.318 | 2 | 38.591 | 10.495 | 35.027 | 2 |
| 2025-05-18T05:32:00 | 57.511558 | 2.985410 | 2.0 | 10.299 | 2 | 38.544 | 10.484 | 34.990 | 2 |
| 2025-05-18T05:33:00 | 57.508785 | 2.987370 | 2.0 | 10.279 | 2 | 38.544 | 10.464 | 35.009 | 2 |
| 2025-05-18T05:34:00 | 57.506041 | 2.989550 | 2.0 | 10.245 | 2 | 38.560 | 10.440 | 35.049 | 2 |
| 2025-05-18T05:35:00 | 57.503278 | 2.991784 | 2.0 | 10.226 | 2 | 38.552 | 10.410 | 35.070 | 2 |
| 2025-05-18T05:36:00 | 57.500657 | 2.993981 | 2.0 | 10.217 | 2 | 38.578 | 10.394 | 35.111 | 2 |
| 2025-05-18T05:37:00 | 57.498158 | 2.996324 | 2.0 | 10.198 | 2 | 38.564 | 10.384 | 35.107 | 2 |
| 2025-05-18T05:38:00 | 57.496417 | 2.998416 | 2.0 | 10.178 | 2 | 38.583 | 10.363 | 35.146 | 2 |
| 2025-05-18T05:39:00 | 57.496286 | 2.999451 | 2.0 | 10.178 | 2 | 38.553 | 10.345 | 35.133 | 2 |
| 2025-05-18T05:40:00 | 57.496571 | 2.999693 | 2.0 | 10.172 | 2 | 38.553 | 10.342 | 35.136 | 2 |
| 2025-05-18T05:41:00 | 57.497451 | 2.999575 | 2.0 | 10.193 | 2 | 38.577 | 10.346 | 35.157 | 2 |
| 2025-05-18T05:44:00 | 57.498707 | 2.999084 | 2.0 | 10.208 | 2 | 38.587 | 10.369 | 35.145 | 2 |
| 2025-05-18T05:45:00 | 57.498916 | 2.999093 | 2.0 | 10.208 | 2 | 38.580 | 10.372 | 35.135 | 2 |
| 2025-05-18T05:46:00 | 57.499079 | 2.999020 | 2.0 | 10.206 | 2 | 38.595 | 10.373 | 35.149 | 2 |
| 2025-05-18T05:47:00 | 57.499223 | 2.999005 | 2.0 | 10.203 | 2 | 38.594 | 10.370 | 35.151 | 2 |
| 2025-05-18T05:48:00 | 57.499433 | 2.999077 | 2.0 | 10.204 | 2 | 38.593 | 10.368 | 35.152 | 2 |
| 2025-05-18T05:49:00 | 57.499554 | 2.999120 | 2.0 | 10.205 | 2 | 38.592 | 10.369 | 35.150 | 2 |
| 2025-05-18T05:50:00 | 57.499509 | 2.999168 | 2.0 | 10.203 | 2 | 38.593 | 10.370 | 35.150 | 2 |
| 2025-05-18T05:51:00 | 57.499475 | 2.999299 | 2.0 | 10.201 | 2 | 38.591 | 10.367 | 35.151 | 2 |
| 2025-05-18T05:52:00 | 57.499620 | 2.999336 | 2.0 | 10.199 | 2 | 38.591 | 10.365 | 35.153 | 2 |
| 2025-05-18T05:53:00 | 57.499828 | 2.999393 | 2.0 | 10.194 | 2 | 38.589 | 10.363 | 35.153 | 2 |
| 2025-05-18T05:54:00 | 57.499971 | 2.999516 | 2.0 | 10.191 | 2 | 38.585 | 10.359 | 35.152 | 2 |
| 2025-05-18T05:55:00 | 57.499805 | 2.999573 | 2.0 | 10.196 | 2 | 38.582 | 10.357 | 35.151 | 2 |
| 2025-05-18T05:56:00 | 57.499468 | 2.999521 | 2.0 | 10.197 | 2 | 38.585 | 10.360 | 35.151 | 2 |
| 2025-05-18T05:57:00 | 57.499231 | 2.999406 | 2.0 | 10.198 | 2 | 38.586 | 10.362 | 35.150 | 2 |
| 2025-05-18T05:58:00 | 57.499174 | 2.999099 | 2.0 | 10.198 | 2 | 38.588 | 10.362 | 35.152 | 2 |
| 2025-05-18T05:59:00 | 57.499234 | 2.998892 | 2.0 | 10.197 | 2 | 38.588 | 10.363 | 35.152 | 2 |
| 2025-05-18T06:00:00 | 57.499251 | 2.998743 | 2.0 | 10.197 | 2 | 38.588 | 10.362 | 35.152 | 2 |
| 2025-05-18T06:01:00 | 57.499203 | 2.998721 | 2.0 | 10.195 | 2 | 38.587 | 10.361 | 35.152 | 2 |
| 2025-05-18T06:02:00 | 57.499167 | 2.998705 | 2.0 | 10.193 | 2 | 38.586 | 10.359 | 35.153 | 2 |
| 2025-05-18T06:03:00 | 57.499157 | 2.998700 | 2.0 | 10.195 | 2 | 38.585 | 10.359 | 35.152 | 2 |
| 2025-05-18T06:04:00 | 57.499015 | 2.998806 | 2.0 | 10.193 | 2 | 38.585 | 10.358 | 35.153 | 2 |
| 2025-05-18T06:05:00 | 57.498884 | 2.998812 | 2.0 | 10.191 | 2 | 38.582 | 10.357 | 35.151 | 2 |
| 2025-05-18T06:06:00 | 57.498798 | 2.998730 | 2.0 | 10.192 | 2 | 38.582 | 10.356 | 35.152 | 2 |
| 2025-05-18T06:07:00 | 57.498906 | 2.998622 | 2.0 | 10.192 | 2 | 38.582 | 10.356 | 35.152 | 2 |
| 2025-05-18T06:08:00 | 57.499066 | 2.998466 | 2.0 | 10.192 | 2 | 38.583 | 10.357 | 35.152 | 2 |
| 2025-05-18T06:09:00 | 57.499217 | 2.998216 | 2.0 | 10.191 | 2 | 38.583 | 10.356 | 35.153 | 2 |
| 2025-05-18T06:10:00 | 57.499409 | 2.998092 | 2.0 | 10.190 | 2 | 38.583 | 10.357 | 35.152 | 2 |
| 2025-05-18T06:11:00 | 57.499420 | 2.997991 | 2.0 | 10.187 | 2 | 38.582 | 10.355 | 35.153 | 2 |
| 2025-05-18T06:12:00 | 57.499435 | 2.997877 | 2.0 | 10.186 | 2 | 38.580 | 10.352 | 35.154 | 2 |
| 2025-05-18T06:13:00 | 57.499399 | 2.997796 | 2.0 | 10.186 | 2 | 38.577 | 10.351 | 35.152 | 2 |
| 2025-05-18T06:14:00 | 57.499322 | 2.997719 | 2.0 | 10.186 | 2 | 38.575 | 10.351 | 35.150 | 2 |
| 2025-05-18T06:15:00 | 57.499268 | 2.997749 | 2.0 | 10.188 | 2 | 38.577 | 10.351 | 35.152 | 2 |
| 2025-05-18T06:16:00 | 57.499284 | 2.997797 | 2.0 | 10.191 | 2 | 38.578 | 10.353 | 35.151 | 2 |
| 2025-05-18T06:17:00 | 57.499325 | 2.997828 | 2.0 | 10.195 | 2 | 38.581 | 10.357 | 35.150 | 2 |
| 2025-05-18T06:18:00 | 57.499370 | 2.997704 | 2.0 | 10.197 | 2 | 38.585 | 10.362 | 35.149 | 2 |
| 2025-05-18T06:19:00 | 57.499268 | 2.997626 | 2.0 | 10.198 | 2 | 38.584 | 10.362 | 35.148 | 2 |
| 2025-05-18T06:20:00 | 57.499279 | 2.997565 | 2.0 | 10.197 | 2 | 38.585 | 10.363 | 35.148 | 2 |
| 2025-05-18T06:21:00 | 57.499325 | 2.997417 | 2.0 | 10.196 | 2 | 38.584 | 10.362 | 35.148 | 2 |
| 2025-05-18T06:22:00 | 57.499446 | 2.997382 | 2.0 | 10.195 | 2 | 38.585 | 10.362 | 35.149 | 2 |
| 2025-05-18T06:23:00 | 57.499451 | 2.997378 | 2.0 | 10.193 | 2 | 38.584 | 10.364 | 35.146 | 2 |
| 2025-05-18T06:24:00 | 57.499530 | 2.997320 | 2.0 | 10.190 | 2 | 38.592 | 10.368 | 35.151 | 2 |
| 2025-05-18T06:25:00 | 57.499587 | 2.997269 | 2.0 | 10.189 | 2 | 38.595 | 10.370 | 35.152 | 2 |
| 2025-05-18T06:26:00 | 57.499566 | 2.997284 | 2.0 | 10.188 | 2 | 38.595 | 10.371 | 35.151 | 2 |
| 2025-05-18T06:27:00 | 57.499603 | 2.997332 | 2.0 | 10.187 | 2 | 38.596 | 10.372 | 35.151 | 2 |
| 2025-05-18T06:28:00 | 57.499646 | 2.997382 | 2.0 | 10.189 | 2 | 38.597 | 10.374 | 35.150 | 2 |
| 2025-05-18T06:29:00 | 57.499644 | 2.997327 | 2.0 | 10.191 | 2 | 38.596 | 10.376 | 35.147 | 2 |
| 2025-05-18T06:30:00 | 57.499716 | 2.997263 | 2.0 | 10.190 | 2 | 38.600 | 10.377 | 35.150 | 2 |
| 2025-05-18T06:31:00 | 57.499733 | 2.997264 | 2.0 | 10.190 | 2 | 38.600 | 10.378 | 35.149 | 2 |
| 2025-05-18T06:32:00 | 57.499778 | 2.997198 | 2.0 | 10.189 | 2 | 38.601 | 10.377 | 35.151 | 2 |
| 2025-05-18T06:33:00 | 57.499769 | 2.997247 | 2.0 | 10.185 | 2 | 38.600 | 10.376 | 35.151 | 2 |
| 2025-05-18T06:34:00 | 57.499710 | 2.997276 | 2.0 | 10.187 | 2 | 38.599 | 10.375 | 35.151 | 2 |
| 2025-05-18T06:35:00 | 57.499724 | 2.997288 | 2.0 | 10.187 | 2 | 38.599 | 10.376 | 35.150 | 2 |
| 2025-05-18T06:36:00 | 57.499778 | 2.997215 | 2.0 | 10.188 | 2 | 38.599 | 10.376 | 35.150 | 2 |
| 2025-05-18T06:37:00 | 57.499832 | 2.997123 | 2.0 | 10.192 | 2 | 38.601 | 10.378 | 35.150 | 2 |
| 2025-05-18T06:38:00 | 57.499983 | 2.996891 | 2.0 | 10.185 | 2 | 38.603 | 10.381 | 35.149 | 2 |
| 2025-05-18T06:39:00 | 57.500044 | 2.996701 | 2.0 | 10.185 | 2 | 38.598 | 10.375 | 35.150 | 2 |
| 2025-05-18T06:40:00 | 57.500125 | 2.996553 | 2.0 | 10.189 | 2 | 38.600 | 10.377 | 35.150 | 2 |
| 2025-05-18T06:41:00 | 57.500163 | 2.996484 | 2.0 | 10.189 | 2 | 38.601 | 10.379 | 35.149 | 2 |
| 2025-05-18T06:42:00 | 57.500232 | 2.996510 | 2.0 | 10.190 | 2 | 38.602 | 10.380 | 35.149 | 2 |
| 2025-05-18T06:43:00 | 57.500260 | 2.996514 | 2.0 | 10.191 | 2 | 38.603 | 10.381 | 35.149 | 2 |
| 2025-05-18T06:44:00 | 57.500337 | 2.996570 | 2.0 | 10.190 | 2 | 38.601 | 10.383 | 35.145 | 2 |
| 2025-05-18T06:45:00 | 57.500409 | 2.996539 | 2.0 | 10.186 | 2 | 38.600 | 10.381 | 35.146 | 2 |
| 2025-05-18T06:46:00 | 57.500473 | 2.996460 | 2.0 | 10.187 | 2 | 38.599 | 10.378 | 35.148 | 2 |
| 2025-05-18T06:47:00 | 57.500544 | 2.996431 | 2.0 | 10.189 | 2 | 38.600 | 10.380 | 35.147 | 2 |
| 2025-05-18T06:48:00 | 57.500547 | 2.996376 | 2.0 | 10.193 | 2 | 38.603 | 10.383 | 35.147 | 2 |
| 2025-05-18T06:49:00 | 57.500525 | 2.996385 | 2.0 | 10.193 | 2 | 38.604 | 10.384 | 35.147 | 2 |
| 2025-05-18T06:50:00 | 57.500525 | 2.996456 | 2.0 | 10.192 | 2 | 38.605 | 10.385 | 35.147 | 2 |
| 2025-05-18T06:51:00 | 57.500503 | 2.996435 | 2.0 | 10.192 | 2 | 38.605 | 10.384 | 35.148 | 2 |
| 2025-05-18T06:52:00 | 57.500595 | 2.996295 | 2.0 | 10.192 | 2 | 38.604 | 10.384 | 35.147 | 2 |
| 2025-05-18T06:53:00 | 57.500641 | 2.996232 | 2.0 | 10.190 | 2 | 38.604 | 10.383 | 35.148 | 2 |
| 2025-05-18T06:54:00 | 57.500686 | 2.996247 | 2.0 | 10.188 | 2 | 38.604 | 10.384 | 35.147 | 2 |
| 2025-05-18T06:55:00 | 57.500736 | 2.996209 | 2.0 | 10.186 | 2 | 38.603 | 10.381 | 35.149 | 2 |
| 2025-05-18T06:56:00 | 57.500768 | 2.995964 | 2.0 | 10.186 | 2 | 38.602 | 10.381 | 35.148 | 2 |
| 2025-05-18T06:57:00 | 57.500808 | 2.995757 | 2.0 | 10.184 | 2 | 38.602 | 10.381 | 35.148 | 2 |
| 2025-05-18T06:58:00 | 57.500890 | 2.995589 | 2.0 | 10.188 | 2 | 38.602 | 10.380 | 35.149 | 2 |
| 2025-05-18T06:59:00 | 57.500964 | 2.995520 | 2.0 | 10.188 | 2 | 38.604 | 10.383 | 35.148 | 2 |
| 2025-05-18T07:00:00 | 57.501000 | 2.995467 | 2.0 | 10.186 | 2 | 38.604 | 10.383 | 35.148 | 2 |
| 2025-05-18T07:01:00 | 57.501004 | 2.995438 | 2.0 | 10.185 | 2 | 38.602 | 10.380 | 35.149 | 2 |
| 2025-05-18T07:02:00 | 57.501007 | 2.995424 | 2.0 | 10.185 | 2 | 38.598 | 10.380 | 35.145 | 2 |
| 2025-05-18T07:03:00 | 57.501020 | 2.995376 | 2.0 | 10.185 | 2 | 38.601 | 10.379 | 35.149 | 2 |
| 2025-05-18T07:04:00 | 57.501053 | 2.995291 | 2.0 | 10.186 | 2 | 38.601 | 10.380 | 35.148 | 2 |
| 2025-05-18T07:05:00 | 57.501042 | 2.995134 | 2.0 | 10.185 | 2 | 38.602 | 10.382 | 35.147 | 2 |
| 2025-05-18T07:06:00 | 57.500961 | 2.995085 | 2.0 | 10.182 | 2 | 38.601 | 10.382 | 35.146 | 2 |
| 2025-05-18T07:07:00 | 57.500843 | 2.995134 | 2.0 | 10.178 | 2 | 38.599 | 10.376 | 35.150 | 2 |
| 2025-05-18T07:08:00 | 57.500919 | 2.995207 | 2.0 | 10.179 | 2 | 38.597 | 10.373 | 35.151 | 2 |
| 2025-05-18T07:09:00 | 57.501390 | 2.996151 | 2.0 | 10.185 | 2 | 38.597 | 10.376 | 35.148 | 2 |
| 2025-05-18T07:10:00 | 57.502097 | 2.997943 | 2.0 | 10.187 | 2 | 38.599 | 10.381 | 35.145 | 2 |
| 2025-05-18T07:11:00 | 57.502826 | 3.001263 | 2.0 | 10.191 | 2 | 38.601 | 10.386 | 35.142 | 2 |
| 2025-05-18T07:12:00 | 57.503408 | 3.005545 | 2.0 | 10.189 | 2 | 38.600 | 10.389 | 35.139 | 2 |
| 2025-05-18T07:13:00 | 57.503378 | 3.010321 | 2.0 | 10.186 | 2 | 38.598 | 10.384 | 35.141 | 2 |
| 2025-05-18T07:14:00 | 57.503097 | 3.015229 | 2.0 | 10.181 | 2 | 38.595 | 10.375 | 35.147 | 2 |
| 2025-05-18T07:15:00 | 57.502762 | 3.020257 | 2.0 | 10.177 | 2 | 38.589 | 10.366 | 35.150 | 2 |
| 2025-05-18T07:16:00 | 57.502440 | 3.025358 | 2.0 | 10.174 | 2 | 38.586 | 10.363 | 35.149 | 2 |
| 2025-05-18T07:17:00 | 57.502085 | 3.030359 | 2.0 | 10.168 | 2 | 38.581 | 10.357 | 35.150 | 2 |
| 2025-05-18T07:18:00 | 57.501767 | 3.035383 | 2.0 | 10.158 | 2 | 38.576 | 10.347 | 35.155 | 2 |
| 2025-05-18T07:19:00 | 57.501446 | 3.040405 | 2.0 | 10.152 | 2 | 38.566 | 10.337 | 35.154 | 2 |
| 2025-05-18T07:20:00 | 57.501102 | 3.045425 | 2.0 | 10.149 | 2 | 38.563 | 10.331 | 35.157 | 2 |
| 2025-05-18T07:21:00 | 57.500758 | 3.050429 | 2.0 | 10.145 | 2 | 38.564 | 10.329 | 35.160 | 2 |
| 2025-05-18T07:22:00 | 57.500421 | 3.055442 | 2.0 | 10.141 | 2 | 38.562 | 10.324 | 35.163 | 2 |
| 2025-05-18T07:23:00 | 57.500107 | 3.060546 | 2.0 | 10.138 | 2 | 38.558 | 10.319 | 35.164 | 2 |
| 2025-05-18T07:24:00 | 57.499782 | 3.065630 | 2.0 | 10.135 | 2 | 38.555 | 10.314 | 35.165 | 2 |
| 2025-05-18T07:25:00 | 57.499444 | 3.070707 | 2.0 | 10.135 | 2 | 38.553 | 10.312 | 35.165 | 2 |
| 2025-05-18T07:26:00 | 57.499116 | 3.075847 | 2.0 | 10.132 | 2 | 38.553 | 10.312 | 35.165 | 2 |
| 2025-05-18T07:27:00 | 57.498770 | 3.080840 | 2.0 | 10.132 | 2 | 38.551 | 10.309 | 35.166 | 2 |
| 2025-05-18T07:28:00 | 57.498445 | 3.085928 | 2.0 | 10.131 | 2 | 38.551 | 10.310 | 35.165 | 2 |
| 2025-05-18T07:29:00 | 57.498089 | 3.091074 | 2.0 | 10.127 | 2 | 38.549 | 10.307 | 35.166 | 2 |
| 2025-05-18T07:30:00 | 57.497780 | 3.096161 | 2.0 | 10.123 | 2 | 38.545 | 10.303 | 35.166 | 2 |
| 2025-05-18T07:31:00 | 57.497453 | 3.101281 | 2.0 | 10.118 | 2 | 38.542 | 10.299 | 35.167 | 2 |
| 2025-05-18T07:32:00 | 57.497129 | 3.106413 | 2.0 | 10.116 | 2 | 38.538 | 10.294 | 35.168 | 2 |
| 2025-05-18T07:33:00 | 57.496933 | 3.111500 | 2.0 | 10.112 | 2 | 38.354 | 10.291 | 34.983 | 2 |
| 2025-05-18T07:34:00 | 57.496844 | 3.116499 | 2.0 | 10.110 | 2 | 38.532 | 10.288 | 35.167 | 2 |
| 2025-05-18T07:35:00 | 57.496848 | 3.121529 | 2.0 | 10.106 | 2 | 38.531 | 10.285 | 35.169 | 2 |
| 2025-05-18T07:36:00 | 57.497012 | 3.126577 | 2.0 | 10.101 | 2 | 38.527 | 10.281 | 35.169 | 2 |
| 2025-05-18T07:37:00 | 57.497171 | 3.131665 | 2.0 | 10.099 | 2 | 37.557 | 10.276 | 34.188 | 2 |
| 2025-05-18T07:38:00 | 57.497246 | 3.136690 | 2.0 | 10.093 | 2 | 38.399 | 10.273 | 35.046 | 2 |
| 2025-05-18T07:39:00 | 57.497328 | 3.141668 | 2.0 | 10.089 | 2 | 37.792 | 10.268 | 34.434 | 2 |
| 2025-05-18T07:40:00 | 57.497400 | 3.146795 | 2.0 | 10.086 | 2 | 37.967 | 10.264 | 34.616 | 2 |
| 2025-05-18T07:41:00 | 57.497468 | 3.151878 | 2.0 | 10.084 | 2 | 37.670 | 10.260 | 34.318 | 2 |
| 2025-05-18T07:42:00 | 57.497501 | 3.156823 | 2.0 | 10.081 | 2 | 38.503 | 10.259 | 35.166 | 2 |
| 2025-05-18T07:43:00 | 57.497547 | 3.161056 | 2.0 | 10.077 | 2 | 38.500 | 10.256 | 35.166 | 2 |
| 2025-05-18T07:44:00 | 57.497626 | 3.163895 | 2.0 | 10.072 | 2 | 38.461 | 10.249 | 35.133 | 2 |
| 2025-05-18T07:45:00 | 57.498055 | 3.165153 | 2.0 | 10.067 | 2 | 37.914 | 10.246 | 34.579 | 2 |
| 2025-05-18T07:46:00 | 57.498539 | 3.165913 | 2.0 | 10.068 | 2 | 37.730 | 10.250 | 34.388 | 2 |
| 2025-05-18T07:47:00 | 57.498901 | 3.166219 | 2.0 | 10.070 | 2 | 37.486 | 10.254 | 34.137 | 2 |
| 2025-05-18T07:48:00 | 57.499221 | 3.166318 | 2.0 | 10.070 | 2 | 38.088 | 10.258 | 34.744 | 2 |
| 2025-05-18T07:49:00 | 57.499477 | 3.166275 | 2.0 | 10.070 | 2 | 38.376 | 10.259 | 35.037 | 2 |
| 2025-05-18T07:50:00 | 57.499671 | 3.166033 | 2.0 | 10.070 | 2 | 38.430 | 10.260 | 35.091 | 2 |
| 2025-05-18T07:51:00 | 57.499821 | 3.165825 | 2.0 | 10.072 | 2 | 37.747 | 10.262 | 34.394 | 2 |
| 2025-05-18T07:52:00 | 57.499895 | 3.165800 | 2.0 | 10.072 | 2 | 37.520 | 10.264 | 34.162 | 2 |
| 2025-05-18T07:53:00 | 57.499878 | 3.165920 | 2.0 | 10.070 | 2 | 37.944 | 10.264 | 34.592 | 2 |
| 2025-05-18T07:54:00 | 57.499786 | 3.166057 | 2.0 | 10.071 | 2 | 37.532 | 10.262 | 34.176 | 2 |
| 2025-05-18T07:55:00 | 57.499669 | 3.166155 | 2.0 | 10.070 | 2 | 38.228 | 10.263 | 34.882 | 2 |
| 2025-05-18T07:56:00 | 57.499612 | 3.166220 | 2.0 | 10.070 | 2 | 37.655 | 10.263 | 34.300 | 2 |
| 2025-05-18T07:57:00 | 57.499723 | 3.166267 | 2.0 | 10.069 | 2 | 38.046 | 10.263 | 34.697 | 2 |
| 2025-05-18T07:58:00 | 57.499929 | 3.166325 | 2.0 | 10.069 | 2 | 38.183 | 10.262 | 34.837 | 2 |
| 2025-05-18T07:59:00 | 57.500185 | 3.166362 | 2.0 | 10.069 | 2 | 37.802 | 10.264 | 34.448 | 2 |
| 2025-05-18T08:00:00 | 57.500284 | 3.166327 | 2.0 | 10.068 | 2 | 38.083 | 10.263 | 34.735 | 2 |
| 2025-05-18T08:01:00 | 57.500357 | 3.166323 | 2.0 | 10.069 | 2 | 37.823 | 10.263 | 34.470 | 2 |
| 2025-05-18T08:02:00 | 57.500371 | 3.166351 | 2.0 | 10.068 | 2 | 38.002 | 10.264 | 34.651 | 2 |
| 2025-05-18T08:03:00 | 57.500293 | 3.166422 | 2.0 | 10.068 | 2 | 37.901 | 10.262 | 34.551 | 2 |
| 2025-05-18T08:04:00 | 57.500236 | 3.166466 | 2.0 | 10.067 | 2 | 38.507 | 10.263 | 35.166 | 2 |
| 2025-05-18T08:05:00 | 57.500224 | 3.166435 | 2.0 | 10.069 | 2 | 38.199 | 10.264 | 34.852 | 2 |
| 2025-05-18T08:06:00 | 57.500159 | 3.166207 | 2.0 | 10.071 | 2 | 38.064 | 10.264 | 34.714 | 2 |
| 2025-05-18T08:07:00 | 57.500121 | 3.166028 | 2.0 | 10.070 | 2 | 38.060 | 10.266 | 34.708 | 2 |
| 2025-05-18T08:08:00 | 57.500180 | 3.165892 | 2.0 | 10.070 | 2 | 38.118 | 10.266 | 34.767 | 2 |
| 2025-05-18T08:09:00 | 57.500244 | 3.165703 | 2.0 | 10.069 | 2 | 37.962 | 10.266 | 34.609 | 2 |
| 2025-05-18T08:10:00 | 57.500273 | 3.165559 | 2.0 | 10.070 | 2 | 38.331 | 10.265 | 34.985 | 2 |
| 2025-05-18T08:11:00 | 57.500240 | 3.165446 | 2.0 | 10.071 | 2 | 38.181 | 10.267 | 34.830 | 2 |
| 2025-05-18T08:12:00 | 57.500226 | 3.165444 | 2.0 | 10.070 | 2 | 38.105 | 10.267 | 34.753 | 2 |
| 2025-05-18T08:13:00 | 57.500241 | 3.165512 | 2.0 | 10.070 | 2 | 38.315 | 10.266 | 34.968 | 2 |
| 2025-05-18T08:14:00 | 57.500280 | 3.165601 | 2.0 | 10.069 | 2 | 38.511 | 10.267 | 35.166 | 2 |
| 2025-05-18T08:15:00 | 57.500327 | 3.165599 | 2.0 | 10.069 | 2 | 38.511 | 10.267 | 35.166 | 2 |
| 2025-05-18T08:16:00 | 57.500302 | 3.165607 | 2.0 | 10.069 | 2 | 38.511 | 10.267 | 35.166 | 2 |
| 2025-05-18T08:17:00 | 57.500196 | 3.165514 | 2.0 | 10.068 | 2 | 38.511 | 10.267 | 35.166 | 2 |
| 2025-05-18T08:18:00 | 57.500171 | 3.165392 | 2.0 | 10.067 | 2 | 38.510 | 10.266 | 35.166 | 2 |
| 2025-05-18T08:19:00 | 57.500195 | 3.165403 | 2.0 | 10.066 | 2 | 38.509 | 10.265 | 35.166 | 2 |
| 2025-05-18T08:20:00 | 57.500225 | 3.165477 | 2.0 | 10.066 | 2 | 38.509 | 10.264 | 35.167 | 2 |
| 2025-05-18T08:21:00 | 57.500261 | 3.165462 | 2.0 | 10.068 | 2 | 38.509 | 10.264 | 35.167 | 2 |
| 2025-05-18T08:22:00 | 57.500261 | 3.165416 | 2.0 | 10.068 | 2 | 38.509 | 10.266 | 35.165 | 2 |
| 2025-05-18T08:23:00 | 57.500222 | 3.165404 | 2.0 | 10.069 | 2 | 38.510 | 10.265 | 35.167 | 2 |
| 2025-05-18T08:24:00 | 57.500328 | 3.165337 | 2.0 | 10.069 | 2 | 38.511 | 10.267 | 35.166 | 2 |
| 2025-05-18T08:25:00 | 57.500397 | 3.165322 | 2.0 | 10.069 | 2 | 38.511 | 10.266 | 35.167 | 2 |
| 2025-05-18T08:26:00 | 57.500413 | 3.165356 | 2.0 | 10.071 | 2 | 38.512 | 10.268 | 35.166 | 2 |
| 2025-05-18T08:27:00 | 57.500420 | 3.165346 | 2.0 | 10.072 | 2 | 38.513 | 10.269 | 35.166 | 2 |
| 2025-05-18T08:28:00 | 57.500382 | 3.165229 | 2.0 | 10.071 | 2 | 38.515 | 10.270 | 35.167 | 2 |
| 2025-05-18T08:29:00 | 57.500358 | 3.165055 | 2.0 | 10.070 | 2 | 38.507 | 10.271 | 35.158 | 2 |
| 2025-05-18T08:30:00 | 57.500346 | 3.164873 | 2.0 | 10.070 | 2 | 38.511 | 10.269 | 35.164 | 2 |
| 2025-05-18T08:31:00 | 57.500336 | 3.164848 | 2.0 | 10.070 | 2 | 38.513 | 10.268 | 35.167 | 2 |
| 2025-05-18T08:32:00 | 57.500359 | 3.164906 | 2.0 | 10.067 | 2 | 38.512 | 10.267 | 35.167 | 2 |
| 2025-05-18T08:33:00 | 57.500383 | 3.164944 | 2.0 | 10.068 | 2 | 38.511 | 10.267 | 35.166 | 2 |
| 2025-05-18T08:34:00 | 57.500412 | 3.165049 | 2.0 | 10.070 | 2 | 38.512 | 10.267 | 35.167 | 2 |
| 2025-05-18T08:35:00 | 57.500451 | 3.165153 | 2.0 | 10.071 | 2 | 38.511 | 10.269 | 35.164 | 2 |
| 2025-05-18T08:36:00 | 57.500469 | 3.165272 | 2.0 | 10.073 | 2 | 38.514 | 10.271 | 35.165 | 2 |
| 2025-05-18T08:37:00 | 57.500416 | 3.165302 | 2.0 | 10.072 | 2 | 38.516 | 10.272 | 35.167 | 2 |
| 2025-05-18T08:38:00 | 57.500442 | 3.165362 | 2.0 | 10.073 | 2 | 38.516 | 10.271 | 35.167 | 2 |
| 2025-05-18T08:39:00 | 57.500510 | 3.165392 | 2.0 | 10.073 | 2 | 38.517 | 10.272 | 35.168 | 2 |
| 2025-05-18T08:40:00 | 57.500582 | 3.165390 | 2.0 | 10.073 | 2 | 38.517 | 10.273 | 35.167 | 2 |
| 2025-05-18T08:41:00 | 57.500620 | 3.165364 | 2.0 | 10.074 | 2 | 38.517 | 10.273 | 35.167 | 2 |
| 2025-05-18T08:42:00 | 57.500595 | 3.165332 | 2.0 | 10.073 | 2 | 38.517 | 10.274 | 35.166 | 2 |
| 2025-05-18T08:43:00 | 57.500585 | 3.165414 | 2.0 | 10.072 | 2 | 38.518 | 10.273 | 35.168 | 2 |
| 2025-05-18T08:44:00 | 57.500624 | 3.165516 | 2.0 | 10.072 | 2 | 38.516 | 10.272 | 35.167 | 2 |
| 2025-05-18T08:45:00 | 57.500654 | 3.165542 | 2.0 | 10.072 | 2 | 38.515 | 10.272 | 35.165 | 2 |
| 2025-05-18T08:46:00 | 57.500695 | 3.165526 | 2.0 | 10.075 | 2 | 38.516 | 10.273 | 35.166 | 2 |
| 2025-05-18T08:47:00 | 57.500725 | 3.165547 | 2.0 | 10.078 | 2 | 38.518 | 10.275 | 35.166 | 2 |
| 2025-05-18T08:48:00 | 57.500723 | 3.165584 | 2.0 | 10.077 | 2 | 38.522 | 10.278 | 35.167 | 2 |
| 2025-05-18T08:49:00 | 57.500686 | 3.165601 | 2.0 | 10.075 | 2 | 38.521 | 10.276 | 35.168 | 2 |
| 2025-05-18T08:50:00 | 57.500693 | 3.165620 | 2.0 | 10.074 | 2 | 38.520 | 10.276 | 35.167 | 2 |
| 2025-05-18T08:51:00 | 57.500676 | 3.165563 | 2.0 | 10.072 | 2 | 38.518 | 10.275 | 35.166 | 2 |
| 2025-05-18T08:52:00 | 57.500685 | 3.165567 | 2.0 | 10.072 | 2 | 38.517 | 10.273 | 35.167 | 2 |
| 2025-05-18T08:53:00 | 57.500694 | 3.165606 | 2.0 | 10.075 | 2 | 38.517 | 10.273 | 35.167 | 2 |
| 2025-05-18T08:54:00 | 57.500746 | 3.165604 | 2.0 | 10.075 | 2 | 38.519 | 10.275 | 35.167 | 2 |
| 2025-05-18T08:55:00 | 57.500749 | 3.165519 | 2.0 | 10.074 | 2 | 38.520 | 10.275 | 35.168 | 2 |
| 2025-05-18T08:56:00 | 57.500795 | 3.165470 | 2.0 | 10.075 | 2 | 38.520 | 10.276 | 35.167 | 2 |
| 2025-05-18T08:57:00 | 57.500820 | 3.165448 | 2.0 | 10.078 | 2 | 38.521 | 10.277 | 35.167 | 2 |
| 2025-05-18T08:58:00 | 57.500757 | 3.165442 | 2.0 | 10.076 | 2 | 38.521 | 10.279 | 35.165 | 2 |
| 2025-05-18T08:59:00 | 57.500734 | 3.165508 | 2.0 | 10.075 | 2 | 38.520 | 10.276 | 35.167 | 2 |
| 2025-05-18T09:00:00 | 57.500831 | 3.165631 | 2.0 | 10.074 | 2 | 38.519 | 10.275 | 35.167 | 2 |
| 2025-05-18T09:01:00 | 57.500988 | 3.165749 | 2.0 | 10.076 | 2 | 38.519 | 10.275 | 35.167 | 2 |
| 2025-05-18T09:02:00 | 57.501152 | 3.165851 | 2.0 | 10.077 | 2 | 38.522 | 10.278 | 35.167 | 2 |
| 2025-05-18T09:03:00 | 57.501342 | 3.165921 | 2.0 | 10.076 | 2 | 38.523 | 10.279 | 35.167 | 2 |
| 2025-05-18T09:04:00 | 57.501404 | 3.165960 | 2.0 | 10.078 | 2 | 38.521 | 10.280 | 35.164 | 2 |
| 2025-05-18T09:05:00 | 57.501338 | 3.166052 | 2.0 | 10.079 | 2 | 38.521 | 10.281 | 35.163 | 2 |
| 2025-05-18T09:06:00 | 57.501352 | 3.166215 | 2.0 | 10.078 | 2 | 38.523 | 10.281 | 35.165 | 2 |
| 2025-05-18T09:07:00 | 57.501415 | 3.166417 | 2.0 | 10.078 | 2 | 38.522 | 10.280 | 35.165 | 2 |
| 2025-05-18T09:08:00 | 57.501563 | 3.166625 | 2.0 | 10.077 | 2 | 38.522 | 10.279 | 35.166 | 2 |
| 2025-05-18T09:09:00 | 57.501687 | 3.166881 | 2.0 | 10.078 | 2 | 38.523 | 10.278 | 35.168 | 2 |
| 2025-05-18T09:10:00 | 57.501841 | 3.167131 | 2.0 | 10.079 | 2 | 38.523 | 10.280 | 35.166 | 2 |
| 2025-05-18T09:11:00 | 57.502042 | 3.167329 | 2.0 | 10.079 | 2 | 38.525 | 10.281 | 35.167 | 2 |
| 2025-05-18T09:12:00 | 57.502256 | 3.167524 | 2.0 | 10.079 | 2 | 38.524 | 10.282 | 35.165 | 2 |
| 2025-05-18T09:13:00 | 57.502478 | 3.167729 | 2.0 | 10.077 | 2 | 38.523 | 10.281 | 35.165 | 2 |
| 2025-05-18T09:14:00 | 57.502710 | 3.167964 | 2.0 | 10.077 | 2 | 38.523 | 10.278 | 35.168 | 2 |
| 2025-05-18T09:15:00 | 57.503096 | 3.169215 | 2.0 | 10.077 | 2 | 38.523 | 10.279 | 35.167 | 2 |
| 2025-05-18T09:16:00 | 57.503559 | 3.171496 | 2.0 | 10.078 | 2 | 38.523 | 10.280 | 35.166 | 2 |
| 2025-05-18T09:17:00 | 57.503899 | 3.175249 | 2.0 | 10.077 | 2 | 38.525 | 10.281 | 35.167 | 2 |
| 2025-05-18T09:18:00 | 57.504109 | 3.179720 | 2.0 | 10.081 | 2 | 38.522 | 10.283 | 35.162 | 2 |
| 2025-05-18T09:19:00 | 57.504183 | 3.184942 | 2.0 | 10.084 | 2 | 38.515 | 10.282 | 35.156 | 2 |
| 2025-05-18T09:20:00 | 57.504224 | 3.190344 | 2.0 | 10.087 | 2 | 38.517 | 10.278 | 35.162 | 2 |
| 2025-05-18T09:21:00 | 57.503965 | 3.195689 | 2.0 | 10.094 | 2 | 38.523 | 10.278 | 35.168 | 2 |
| 2025-05-18T09:22:00 | 57.503712 | 3.201044 | 2.0 | 10.102 | 2 | 38.526 | 10.284 | 35.165 | 2 |
| 2025-05-18T09:23:00 | 57.503426 | 3.206394 | 2.0 | 10.111 | 2 | 38.534 | 10.291 | 35.166 | 2 |
| 2025-05-18T09:24:00 | 57.503172 | 3.211768 | 2.0 | 10.116 | 2 | 38.541 | 10.297 | 35.168 | 2 |
| 2025-05-18T09:25:00 | 57.502930 | 3.217206 | 2.0 | 10.115 | 2 | 38.546 | 10.301 | 35.169 | 2 |
| 2025-05-18T09:26:00 | 57.502700 | 3.222661 | 2.0 | 10.124 | 2 | 38.545 | 10.299 | 35.170 | 2 |
| 2025-05-18T09:27:00 | 57.502460 | 3.228036 | 2.0 | 10.427 | 2 | 38.574 | 10.342 | 35.158 | 2 |
| 2025-05-18T09:28:00 | 57.502125 | 3.233338 | 2.0 | 10.460 | 2 | 38.777 | 10.588 | 35.126 | 2 |
| 2025-05-18T09:29:00 | 57.501681 | 3.238687 | 2.0 | 10.577 | 2 | 38.842 | 10.640 | 35.141 | 2 |
| 2025-05-18T09:30:00 | 57.501219 | 3.244010 | 2.0 | 10.694 | 2 | 38.936 | 10.769 | 35.112 | 2 |
| 2025-05-18T09:31:00 | 57.500738 | 3.249322 | 2.0 | 10.720 | 2 | 39.016 | 10.865 | 35.100 | 2 |
| 2025-05-18T09:32:00 | 57.500272 | 3.254615 | 2.0 | 10.731 | 2 | 39.041 | 10.895 | 35.096 | 2 |
| 2025-05-18T09:33:00 | 57.499815 | 3.259892 | 2.0 | 10.729 | 2 | 39.047 | 10.904 | 35.094 | 2 |
| 2025-05-18T09:34:00 | 57.499342 | 3.265091 | 2.0 | 10.762 | 2 | 39.044 | 10.903 | 35.091 | 2 |
| 2025-05-18T09:35:00 | 57.498915 | 3.270259 | 2.0 | 10.985 | 2 | 39.070 | 10.986 | 35.038 | 2 |
| 2025-05-18T09:36:00 | 57.498489 | 3.275500 | 2.0 | 11.006 | 2 | 39.133 | 11.144 | 34.950 | 2 |
| 2025-05-18T09:37:00 | 57.498063 | 3.280815 | 2.0 | 11.006 | 2 | 39.142 | 11.175 | 34.930 | 2 |
| 2025-05-18T09:38:00 | 57.497641 | 3.286135 | 2.0 | 11.038 | 2 | 39.137 | 11.180 | 34.920 | 2 |
| 2025-05-18T09:39:00 | 57.497058 | 3.291329 | 2.0 | 11.110 | 2 | 39.135 | 11.226 | 34.874 | 2 |
| 2025-05-18T09:40:00 | 57.496412 | 3.296496 | 2.0 | 11.148 | 2 | 39.111 | 11.284 | 34.796 | 2 |
| 2025-05-18T09:41:00 | 57.495764 | 3.301728 | 2.0 | 11.197 | 2 | 39.085 | 11.323 | 34.733 | 2 |
| 2025-05-18T09:42:00 | 57.495207 | 3.306952 | 2.0 | 11.221 | 2 | 39.058 | 11.367 | 34.665 | 2 |
| 2025-05-18T09:43:00 | 57.494968 | 3.312179 | 2.0 | 11.245 | 2 | 39.031 | 11.395 | 34.612 | 2 |
| 2025-05-18T09:44:00 | 57.494829 | 3.317005 | 2.0 | 11.255 | 2 | 39.006 | 11.415 | 34.568 | 2 |
| 2025-05-18T09:45:00 | 57.494929 | 3.321350 | 2.0 | 11.264 | 2 | 38.987 | 11.425 | 34.540 | 2 |
| 2025-05-18T09:46:00 | 57.495446 | 3.324811 | 2.0 | 11.278 | 2 | 38.973 | 11.435 | 34.517 | 2 |
| 2025-05-18T09:47:00 | 57.496132 | 3.327499 | 2.0 | 11.278 | 2 | 38.962 | 11.445 | 34.497 | 2 |
| 2025-05-18T09:48:00 | 57.496792 | 3.329474 | 2.0 | 11.286 | 2 | 38.957 | 11.449 | 34.488 | 2 |
| 2025-05-18T09:49:00 | 57.497247 | 3.330969 | 2.0 | 11.284 | 2 | 38.956 | 11.453 | 34.484 | 2 |
| 2025-05-18T09:50:00 | 57.497612 | 3.331866 | 2.0 | 11.286 | 2 | 38.953 | 11.452 | 34.482 | 2 |
| 2025-05-18T09:51:00 | 57.497890 | 3.332310 | 2.0 | 11.298 | 2 | 38.957 | 11.456 | 34.482 | 2 |
| 2025-05-18T09:52:00 | 57.498053 | 3.332427 | 2.0 | 11.288 | 2 | 38.958 | 11.461 | 34.478 | 2 |
| 2025-05-18T09:53:00 | 57.498174 | 3.332375 | 2.0 | 11.289 | 2 | 38.954 | 11.457 | 34.478 | 2 |
| 2025-05-18T09:54:00 | 57.498298 | 3.332190 | 2.0 | 11.291 | 2 | 38.952 | 11.457 | 34.476 | 2 |
| 2025-05-18T09:55:00 | 57.498533 | 3.332047 | 2.0 | 11.292 | 2 | 38.956 | 11.459 | 34.478 | 2 |
| 2025-05-18T09:56:00 | 57.498686 | 3.332015 | 2.0 | 11.294 | 2 | 38.957 | 11.460 | 34.478 | 2 |
| 2025-05-18T09:57:00 | 57.498734 | 3.332022 | 2.0 | 11.289 | 2 | 38.958 | 11.461 | 34.478 | 2 |
| 2025-05-18T09:58:00 | 57.498786 | 3.332052 | 2.0 | 11.289 | 2 | 38.960 | 11.458 | 34.483 | 2 |
| 2025-05-18T09:59:00 | 57.498883 | 3.332003 | 2.0 | 11.285 | 2 | 38.953 | 11.456 | 34.478 | 2 |
| 2025-05-18T10:00:00 | 57.498972 | 3.331851 | 2.0 | 11.292 | 2 | 38.949 | 11.454 | 34.476 | 2 |
| 2025-05-18T10:01:00 | 57.499148 | 3.331723 | 2.0 | 11.302 | 2 | 38.953 | 11.461 | 34.473 | 2 |
| 2025-05-18T10:02:00 | 57.499356 | 3.331726 | 2.0 | 11.299 | 2 | 38.959 | 11.468 | 34.473 | 2 |
| 2025-05-18T10:03:00 | 57.499518 | 3.331862 | 2.0 | 11.307 | 2 | 38.957 | 11.467 | 34.471 | 2 |
| 2025-05-18T10:04:00 | 57.499634 | 3.332126 | 2.0 | 11.324 | 2 | 38.965 | 11.478 | 34.469 | 2 |
| 2025-05-18T10:05:00 | 57.499691 | 3.332443 | 2.0 | 11.326 | 2 | 38.974 | 11.490 | 34.467 | 2 |
| 2025-05-18T10:06:00 | 57.499690 | 3.332769 | 2.0 | 11.328 | 2 | 38.972 | 11.493 | 34.462 | 2 |
| 2025-05-18T10:07:00 | 57.499649 | 3.333156 | 2.0 | 11.325 | 2 | 38.968 | 11.494 | 34.457 | 2 |
| 2025-05-18T10:08:00 | 57.499608 | 3.333617 | 2.0 | 11.333 | 2 | 38.902 | 11.493 | 34.393 | 2 |
| 2025-05-18T10:09:00 | 57.499581 | 3.334103 | 2.0 | 11.337 | 2 | 38.963 | 11.500 | 34.447 | 2 |
| 2025-05-18T10:10:00 | 57.499539 | 3.334598 | 2.0 | 11.339 | 2 | 38.960 | 11.503 | 34.441 | 2 |
| 2025-05-18T10:11:00 | 57.499505 | 3.335047 | 2.0 | 11.348 | 2 | 38.959 | 11.509 | 34.434 | 2 |
| 2025-05-18T10:12:00 | 57.499464 | 3.335446 | 2.0 | 11.346 | 2 | 38.959 | 11.514 | 34.430 | 2 |
| 2025-05-18T10:13:00 | 57.499397 | 3.335810 | 2.0 | 11.355 | 2 | 38.957 | 11.516 | 34.426 | 2 |
| 2025-05-18T10:14:00 | 57.499362 | 3.336225 | 2.0 | 11.350 | 2 | 38.958 | 11.520 | 34.423 | 2 |
| 2025-05-18T10:15:00 | 57.499304 | 3.336630 | 2.0 | 11.355 | 2 | 38.949 | 11.516 | 34.418 | 2 |
| 2025-05-18T10:16:00 | 57.499266 | 3.337018 | 2.0 | 11.364 | 2 | 38.953 | 11.523 | 34.415 | 2 |
| 2025-05-18T10:17:00 | 57.499236 | 3.337397 | 2.0 | 11.361 | 2 | 38.841 | 11.528 | 34.300 | 2 |
| 2025-05-18T10:18:00 | 57.499192 | 3.337734 | 2.0 | 11.355 | 2 | 38.953 | 11.525 | 34.413 | 2 |
| 2025-05-18T10:19:00 | 57.499194 | 3.338053 | 2.0 | 11.359 | 2 | 38.688 | 11.520 | 34.157 | 2 |
| 2025-05-18T10:20:00 | 57.499321 | 3.338192 | 2.0 | 11.364 | 2 | 38.952 | 11.530 | 34.408 | 2 |
| 2025-05-18T10:21:00 | 57.499438 | 3.338202 | 2.0 | 11.350 | 2 | 38.509 | 11.528 | 33.974 | 2 |
| 2025-05-18T10:22:00 | 57.499567 | 3.338153 | 2.0 | 11.344 | 2 | 38.941 | 11.514 | 34.412 | 2 |
| 2025-05-18T10:23:00 | 57.499637 | 3.338030 | 2.0 | 11.339 | 2 | 38.895 | 11.513 | 34.367 | 2 |
| 2025-05-18T10:24:00 | 57.499687 | 3.337892 | 2.0 | 11.333 | 2 | 38.192 | 11.505 | 33.683 | 2 |
| 2025-05-18T10:25:00 | 57.499682 | 3.337789 | 2.0 | 11.343 | 2 | 38.483 | 11.504 | 33.970 | 2 |
| 2025-05-18T10:26:00 | 57.499625 | 3.337657 | 2.0 | 11.356 | 2 | 38.685 | 11.514 | 34.160 | 2 |
| 2025-05-18T10:27:00 | 57.499578 | 3.337555 | 2.0 | 11.356 | 2 | 38.524 | 11.522 | 33.994 | 2 |
| 2025-05-18T10:28:00 | 57.499566 | 3.337432 | 2.0 | 11.346 | 2 | 38.553 | 11.521 | 34.023 | 2 |
| 2025-05-18T10:29:00 | 57.499594 | 3.337323 | 2.0 | 11.350 | 2 | 38.811 | 11.516 | 34.282 | 2 |
| 2025-05-18T10:30:00 | 57.499679 | 3.337245 | 2.0 | 11.345 | 2 | 38.512 | 11.515 | 33.989 | 2 |
| 2025-05-18T10:31:00 | 57.499755 | 3.337148 | 2.0 | 11.344 | 2 | 38.120 | 11.511 | 33.607 | 2 |
| 2025-05-18T10:32:00 | 57.499818 | 3.337015 | 2.0 | 11.340 | 2 | 38.618 | 11.508 | 34.099 | 2 |
| 2025-05-18T10:33:00 | 57.499837 | 3.336898 | 2.0 | 11.332 | 2 | 38.339 | 11.505 | 33.828 | 2 |
| 2025-05-18T10:34:00 | 57.499882 | 3.336835 | 2.0 | 11.323 | 2 | 38.215 | 11.503 | 33.707 | 2 |
| 2025-05-18T10:35:00 | 57.499961 | 3.336740 | 2.0 | 11.338 | 2 | 38.228 | 11.503 | 33.720 | 2 |
| 2025-05-18T10:36:00 | 57.500018 | 3.336626 | 2.0 | 11.338 | 2 | 38.688 | 11.521 | 34.156 | 2 |
| 2025-05-18T10:37:00 | 57.500081 | 3.336539 | 2.0 | 11.333 | 2 | 38.302 | 11.515 | 33.782 | 2 |
| 2025-05-18T10:38:00 | 57.500182 | 3.336437 | 2.0 | 11.346 | 2 | 38.649 | 11.520 | 34.119 | 2 |
| 2025-05-18T10:39:00 | 57.500323 | 3.336324 | 2.0 | 11.359 | 2 | 38.539 | 11.530 | 34.001 | 2 |
| 2025-05-18T10:40:00 | 57.500441 | 3.336181 | 2.0 | 11.379 | 2 | 38.782 | 11.548 | 34.224 | 2 |
| 2025-05-18T10:41:00 | 57.500549 | 3.336050 | 2.0 | 11.372 | 2 | 38.640 | 11.562 | 34.071 | 2 |
| 2025-05-18T10:42:00 | 57.500616 | 3.335917 | 2.0 | 11.368 | 2 | 38.688 | 11.557 | 34.123 | 2 |
| 2025-05-18T10:43:00 | 57.500677 | 3.335779 | 2.0 | 11.368 | 2 | 38.456 | 11.554 | 33.898 | 2 |
| 2025-05-18T10:44:00 | 57.500693 | 3.335628 | 2.0 | 11.373 | 2 | 38.720 | 11.558 | 34.154 | 2 |
| 2025-05-18T10:45:00 | 57.500662 | 3.335465 | 2.0 | 11.375 | 2 | 38.769 | 11.563 | 34.197 | 2 |
| 2025-05-18T10:46:00 | 57.500607 | 3.335318 | 2.0 | 11.377 | 2 | 38.679 | 11.563 | 34.109 | 2 |
| 2025-05-18T10:47:00 | 57.500579 | 3.335190 | 2.0 | 11.372 | 2 | 38.693 | 11.564 | 34.121 | 2 |
| 2025-05-18T10:48:00 | 57.500591 | 3.335062 | 2.0 | 11.364 | 2 | 38.726 | 11.558 | 34.159 | 2 |
| 2025-05-18T10:49:00 | 57.500613 | 3.334935 | 2.0 | 11.347 | 2 | 38.667 | 11.550 | 34.109 | 2 |
| 2025-05-18T10:50:00 | 57.500597 | 3.334787 | 2.0 | 11.350 | 2 | 38.729 | 11.537 | 34.182 | 2 |
| 2025-05-18T10:51:00 | 57.500633 | 3.334680 | 2.0 | 11.335 | 2 | 38.777 | 11.532 | 34.234 | 2 |
| 2025-05-18T10:52:00 | 57.500709 | 3.334630 | 2.0 | 11.380 | 2 | 38.947 | 11.533 | 34.400 | 2 |
| 2025-05-18T10:53:00 | 57.500709 | 3.334558 | 2.0 | 11.405 | 2 | 38.839 | 11.571 | 34.259 | 2 |
| 2025-05-18T10:54:00 | 57.500754 | 3.334722 | 2.0 | 11.410 | 2 | 38.641 | 11.595 | 34.042 | 2 |
| 2025-05-18T10:55:00 | 57.500781 | 3.334775 | 2.0 | 11.408 | 2 | 38.773 | 11.602 | 34.165 | 2 |
| 2025-05-18T10:56:00 | 57.500850 | 3.334814 | 2.0 | 11.385 | 2 | 38.776 | 11.598 | 34.172 | 2 |
| 2025-05-18T10:57:00 | 57.500956 | 3.334764 | 2.0 | 11.389 | 2 | 38.764 | 11.576 | 34.180 | 2 |
| 2025-05-18T10:58:00 | 57.501037 | 3.334656 | 2.0 | 11.389 | 2 | 38.705 | 11.586 | 34.113 | 2 |
| 2025-05-18T10:59:00 | 57.501044 | 3.334514 | 2.0 | 11.374 | 2 | 38.803 | 11.578 | 34.217 | 2 |
| 2025-05-18T11:00:00 | 57.501045 | 3.334309 | 2.0 | 11.373 | 2 | 38.710 | 11.570 | 34.133 | 2 |
| 2025-05-18T11:01:00 | 57.501076 | 3.334072 | 2.0 | 11.354 | 2 | 38.722 | 11.566 | 34.148 | 2 |
| 2025-05-18T11:02:00 | 57.501107 | 3.333816 | 2.0 | 11.369 | 2 | 38.726 | 11.554 | 34.163 | 2 |
| 2025-05-18T11:03:00 | 57.501107 | 3.333569 | 2.0 | 11.371 | 2 | 38.725 | 11.563 | 34.154 | 2 |
| 2025-05-18T11:04:00 | 57.501103 | 3.333347 | 2.0 | 11.386 | 2 | 38.733 | 11.569 | 34.156 | 2 |
| 2025-05-18T11:05:00 | 57.501096 | 3.333172 | 2.0 | 11.391 | 2 | 38.764 | 11.580 | 34.176 | 2 |
| 2025-05-18T11:06:00 | 57.501094 | 3.333067 | 2.0 | 11.394 | 2 | 38.817 | 11.585 | 34.224 | 2 |
| 2025-05-18T11:07:00 | 57.501068 | 3.332979 | 2.0 | 11.400 | 2 | 38.846 | 11.589 | 34.249 | 2 |
| 2025-05-18T11:08:00 | 57.501037 | 3.332842 | 2.0 | 11.395 | 2 | 38.805 | 11.591 | 34.207 | 2 |
| 2025-05-18T11:09:00 | 57.501011 | 3.332686 | 2.0 | 11.389 | 2 | 38.857 | 11.589 | 34.260 | 2 |
| 2025-05-18T11:10:00 | 57.501027 | 3.332615 | 2.0 | 11.392 | 2 | 38.822 | 11.583 | 34.231 | 2 |
| 2025-05-18T11:11:00 | 57.501056 | 3.332595 | 2.0 | 11.392 | 2 | 38.836 | 11.585 | 34.243 | 2 |
| 2025-05-18T11:12:00 | 57.501064 | 3.332563 | 2.0 | 11.361 | 2 | 38.848 | 11.583 | 34.256 | 2 |
| 2025-05-18T11:13:00 | 57.501056 | 3.332486 | 2.0 | 11.370 | 2 | 38.869 | 11.563 | 34.295 | 2 |
| 2025-05-18T11:14:00 | 57.501116 | 3.332379 | 2.0 | 11.355 | 2 | 38.843 | 11.562 | 34.271 | 2 |
| 2025-05-18T11:15:00 | 57.501195 | 3.332271 | 2.0 | 11.354 | 2 | 38.859 | 11.562 | 34.287 | 2 |
| 2025-05-18T11:16:00 | 57.501226 | 3.332154 | 2.0 | 11.350 | 2 | 38.880 | 11.542 | 34.326 | 2 |
| 2025-05-18T11:17:00 | 57.501238 | 3.332020 | 2.0 | 11.387 | 2 | 38.866 | 11.557 | 34.298 | 2 |
| 2025-05-18T11:18:00 | 57.501255 | 3.331859 | 2.0 | 11.404 | 2 | 38.922 | 11.586 | 34.326 | 2 |
| 2025-05-18T11:19:00 | 57.501225 | 3.331642 | 2.0 | 11.417 | 2 | 38.920 | 11.602 | 34.309 | 2 |
| 2025-05-18T11:20:00 | 57.501197 | 3.331373 | 2.0 | 11.415 | 2 | 38.947 | 11.612 | 34.327 | 2 |
| 2025-05-18T11:21:00 | 57.501149 | 3.331102 | 2.0 | 11.412 | 2 | 38.938 | 11.612 | 34.318 | 2 |
| 2025-05-18T11:22:00 | 57.501119 | 3.330860 | 2.0 | 11.409 | 2 | 38.969 | 11.608 | 34.352 | 2 |
| 2025-05-18T11:23:00 | 57.501098 | 3.330646 | 2.0 | 11.407 | 2 | 38.969 | 11.603 | 34.357 | 2 |
| 2025-05-18T11:24:00 | 57.501081 | 3.330548 | 2.0 | 11.397 | 2 | 38.976 | 11.600 | 34.366 | 2 |
| 2025-05-18T11:25:00 | 57.501120 | 3.330546 | 2.0 | 11.398 | 2 | 38.979 | 11.589 | 34.380 | 2 |
| 2025-05-18T11:26:00 | 57.501185 | 3.330565 | 2.0 | 11.415 | 2 | 38.984 | 11.601 | 34.373 | 2 |
| 2025-05-18T11:27:00 | 57.501237 | 3.330522 | 2.0 | 11.407 | 2 | 38.996 | 11.611 | 34.376 | 2 |
| 2025-05-18T11:28:00 | 57.501272 | 3.330482 | 2.0 | 11.426 | 2 | 39.005 | 11.609 | 34.387 | 2 |
| 2025-05-18T11:29:00 | 57.501353 | 3.330413 | 2.0 | 11.427 | 2 | 39.012 | 11.622 | 34.381 | 2 |
| 2025-05-18T11:30:00 | 57.501405 | 3.330384 | 2.0 | 11.429 | 2 | 39.012 | 11.627 | 34.377 | 2 |
| 2025-05-18T11:31:00 | 57.501443 | 3.330336 | 2.0 | 11.420 | 2 | 39.023 | 11.626 | 34.388 | 2 |
| 2025-05-18T11:32:00 | 57.501457 | 3.330224 | 2.0 | 11.433 | 2 | 39.025 | 11.611 | 34.404 | 2 |
| 2025-05-18T11:33:00 | 57.501483 | 3.330052 | 2.0 | 11.410 | 2 | 39.039 | 11.624 | 34.406 | 2 |
| 2025-05-18T11:34:00 | 57.501504 | 3.329852 | 2.0 | 11.404 | 2 | 39.035 | 11.610 | 34.415 | 2 |
| 2025-05-18T11:35:00 | 57.501530 | 3.329691 | 2.0 | 11.388 | 2 | 39.023 | 11.600 | 34.413 | 2 |
| 2025-05-18T11:36:00 | 57.501535 | 3.329570 | 2.0 | 11.395 | 2 | 39.026 | 11.588 | 34.427 | 2 |
| 2025-05-18T11:37:00 | 57.501596 | 3.329490 | 2.0 | 11.409 | 2 | 39.029 | 11.594 | 34.424 | 2 |
| 2025-05-18T11:38:00 | 57.501661 | 3.329449 | 2.0 | 11.412 | 2 | 39.044 | 11.608 | 34.426 | 2 |
| 2025-05-18T11:39:00 | 57.501776 | 3.329430 | 2.0 | 11.405 | 2 | 39.047 | 11.605 | 34.432 | 2 |
| 2025-05-18T11:40:00 | 57.501953 | 3.329455 | 2.0 | 11.414 | 2 | 39.047 | 11.606 | 34.431 | 2 |
| 2025-05-18T11:41:00 | 57.502154 | 3.329543 | 2.0 | 11.397 | 2 | 39.050 | 11.607 | 34.433 | 2 |
| 2025-05-18T11:42:00 | 57.502499 | 3.329943 | 2.0 | 11.423 | 2 | 39.038 | 11.590 | 34.437 | 2 |
| 2025-05-18T11:43:00 | 57.502831 | 3.331217 | 2.0 | 11.435 | 2 | 39.065 | 11.632 | 34.424 | 2 |
| 2025-05-18T11:44:00 | 57.502769 | 3.333756 | 2.0 | 11.467 | 2 | 39.070 | 11.644 | 34.418 | 2 |
| 2025-05-18T11:45:00 | 57.502536 | 3.337804 | 2.0 | 11.480 | 2 | 39.071 | 11.665 | 34.399 | 2 |
| 2025-05-18T11:46:00 | 57.502188 | 3.342852 | 2.0 | 11.489 | 2 | 39.052 | 11.680 | 34.367 | 2 |
| 2025-05-18T11:47:00 | 57.501811 | 3.348173 | 2.0 | 11.488 | 2 | 39.029 | 11.687 | 34.338 | 2 |
| 2025-05-18T11:48:00 | 57.501438 | 3.353572 | 2.0 | 11.505 | 2 | 39.009 | 11.686 | 34.319 | 2 |
| 2025-05-18T11:49:00 | 57.501057 | 3.358986 | 2.0 | 11.522 | 2 | 39.002 | 11.698 | 34.301 | 2 |
| 2025-05-18T11:50:00 | 57.500665 | 3.364378 | 2.0 | 11.517 | 2 | 38.983 | 11.705 | 34.276 | 2 |
| 2025-05-18T11:51:00 | 57.500280 | 3.369811 | 2.0 | 11.528 | 2 | 38.956 | 11.706 | 34.249 | 2 |
| 2025-05-18T11:52:00 | 57.499882 | 3.375253 | 2.0 | 11.540 | 2 | 38.935 | 11.710 | 34.224 | 2 |
| 2025-05-18T11:53:00 | 57.499491 | 3.380704 | 2.0 | 11.555 | 2 | 38.917 | 11.724 | 34.194 | 2 |
| 2025-05-18T11:54:00 | 57.499068 | 3.386119 | 2.0 | 11.564 | 2 | 38.906 | 11.737 | 34.171 | 2 |
| 2025-05-18T11:55:00 | 57.498666 | 3.391471 | 2.0 | 11.578 | 2 | 38.888 | 11.744 | 34.147 | 2 |
| 2025-05-18T11:56:00 | 57.498247 | 3.396832 | 2.0 | 11.562 | 2 | 38.873 | 11.752 | 34.125 | 2 |
| 2025-05-18T11:57:00 | 57.497840 | 3.402223 | 2.0 | 11.558 | 2 | 38.851 | 11.743 | 34.112 | 2 |
| 2025-05-18T11:58:00 | 57.497433 | 3.407630 | 2.0 | 11.576 | 2 | 38.841 | 11.743 | 34.102 | 2 |
| 2025-05-18T11:59:00 | 57.497012 | 3.413042 | 2.0 | 11.575 | 2 | 38.836 | 11.752 | 34.089 | 2 |
| 2025-05-18T12:00:00 | 57.496599 | 3.418441 | 2.0 | 11.570 | 2 | 38.822 | 11.752 | 34.075 | 2 |
| 2025-05-18T12:01:00 | 57.496152 | 3.423797 | 2.0 | 11.588 | 2 | 38.807 | 11.757 | 34.056 | 2 |
| 2025-05-18T12:02:00 | 57.495738 | 3.429149 | 2.0 | 11.577 | 2 | 38.808 | 11.764 | 34.050 | 2 |
| 2025-05-18T12:03:00 | 57.495304 | 3.434562 | 2.0 | 11.578 | 2 | 38.795 | 11.752 | 34.049 | 2 |
| 2025-05-18T12:04:00 | 57.494877 | 3.439985 | 2.0 | 11.564 | 2 | 38.792 | 11.753 | 34.045 | 2 |
| 2025-05-18T12:05:00 | 57.494433 | 3.445417 | 2.0 | 11.560 | 2 | 38.787 | 11.744 | 34.048 | 2 |
| 2025-05-18T12:06:00 | 57.493986 | 3.450853 | 2.0 | 11.542 | 2 | 38.786 | 11.734 | 34.056 | 2 |
| 2025-05-18T12:07:00 | 57.493727 | 3.456358 | 2.0 | 11.596 | 2 | 38.790 | 11.726 | 34.068 | 2 |
| 2025-05-18T12:08:00 | 57.493784 | 3.461886 | 2.0 | 11.654 | 2 | 38.842 | 11.781 | 34.068 | 2 |
| 2025-05-18T12:09:00 | 57.493853 | 3.467458 | 2.0 | 11.670 | 2 | 38.880 | 11.827 | 34.063 | 2 |
| 2025-05-18T12:10:00 | 57.493929 | 3.473009 | 2.0 | 11.690 | 2 | 38.880 | 11.844 | 34.047 | 2 |
| 2025-05-18T12:11:00 | 57.494015 | 3.478555 | 2.0 | 11.692 | 2 | 38.880 | 11.868 | 34.025 | 2 |
| 2025-05-18T12:12:00 | 57.494345 | 3.483824 | 2.0 | 11.713 | 2 | 38.859 | 11.874 | 33.999 | 2 |
| 2025-05-18T12:13:00 | 57.494966 | 3.488045 | 2.0 | 11.717 | 2 | 38.844 | 11.886 | 33.974 | 2 |
| 2025-05-18T12:14:00 | 57.495669 | 3.491585 | 2.0 | 11.715 | 2 | 38.827 | 11.887 | 33.956 | 2 |
| 2025-05-18T12:15:00 | 57.496530 | 3.494191 | 2.0 | 11.710 | 2 | 38.816 | 11.886 | 33.946 | 2 |
| 2025-05-18T12:16:00 | 57.497372 | 3.496122 | 2.0 | 11.713 | 2 | 38.809 | 11.884 | 33.941 | 2 |
| 2025-05-18T12:17:00 | 57.498058 | 3.497570 | 2.0 | 11.722 | 2 | 38.805 | 11.885 | 33.937 | 2 |
| 2025-05-18T12:18:00 | 57.498660 | 3.498791 | 2.0 | 11.721 | 2 | 38.807 | 11.892 | 33.932 | 2 |
| 2025-05-18T12:19:00 | 57.499158 | 3.499789 | 2.0 | 11.730 | 2 | 38.809 | 11.898 | 33.929 | 2 |
| 2025-05-18T12:20:00 | 57.499544 | 3.500547 | 2.0 | 11.728 | 2 | 38.807 | 11.897 | 33.928 | 2 |
| 2025-05-18T12:21:00 | 57.499823 | 3.500977 | 2.0 | 11.728 | 2 | 38.812 | 11.906 | 33.924 | 2 |
| 2025-05-18T12:22:00 | 57.499940 | 3.501109 | 2.0 | 11.678 | 2 | 38.801 | 11.888 | 33.930 | 2 |
| 2025-05-18T12:23:00 | 57.500000 | 3.501106 | 2.0 | 11.677 | 2 | 38.769 | 11.853 | 33.931 | 2 |
| 2025-05-18T12:24:00 | 57.499998 | 3.501064 | 2.0 | 11.627 | 2 | 38.766 | 11.840 | 33.940 | 2 |
| 2025-05-18T12:25:00 | 57.499988 | 3.500999 | 2.0 | 11.642 | 2 | 38.738 | 11.804 | 33.945 | 2 |
| 2025-05-18T12:26:00 | 57.500006 | 3.500968 | 2.0 | 11.658 | 2 | 38.744 | 11.820 | 33.936 | 2 |
| 2025-05-18T12:27:00 | 57.499977 | 3.500917 | 2.0 | 11.653 | 2 | 38.750 | 11.825 | 33.938 | 2 |
| 2025-05-18T12:28:00 | 57.499919 | 3.500850 | 2.0 | 11.685 | 2 | 38.753 | 11.828 | 33.938 | 2 |
| 2025-05-18T12:29:00 | 57.499870 | 3.500800 | 2.0 | 11.702 | 2 | 38.780 | 11.863 | 33.932 | 2 |
| 2025-05-18T12:30:00 | 57.499843 | 3.500787 | 2.0 | 11.723 | 2 | 38.791 | 11.875 | 33.932 | 2 |
| 2025-05-18T12:31:00 | 57.499872 | 3.500779 | 2.0 | 11.727 | 2 | 38.801 | 11.887 | 33.931 | 2 |
| 2025-05-18T12:32:00 | 57.499921 | 3.500777 | 2.0 | 11.747 | 2 | 38.812 | 11.901 | 33.929 | 2 |
| 2025-05-18T12:33:00 | 57.499953 | 3.500771 | 2.0 | 11.712 | 2 | 38.820 | 11.904 | 33.934 | 2 |
| 2025-05-18T12:34:00 | 57.499935 | 3.500741 | 2.0 | 11.709 | 2 | 38.802 | 11.880 | 33.938 | 2 |
| 2025-05-18T12:35:00 | 57.499873 | 3.500715 | 2.0 | 11.731 | 2 | 38.804 | 11.886 | 33.935 | 2 |
| 2025-05-18T12:36:00 | 57.499766 | 3.500672 | 2.0 | 11.710 | 2 | 38.807 | 11.889 | 33.935 | 2 |
| 2025-05-18T12:37:00 | 57.499731 | 3.500627 | 2.0 | 11.742 | 2 | 38.801 | 11.888 | 33.930 | 2 |
| 2025-05-18T12:38:00 | 57.499804 | 3.500564 | 2.0 | 11.745 | 2 | 38.821 | 11.910 | 33.929 | 2 |
| 2025-05-18T12:39:00 | 57.499850 | 3.500536 | 2.0 | 11.763 | 2 | 38.825 | 11.913 | 33.931 | 2 |
| 2025-05-18T12:40:00 | 57.499866 | 3.500500 | 2.0 | 11.770 | 2 | 38.839 | 11.929 | 33.930 | 2 |
| 2025-05-18T12:41:00 | 57.499871 | 3.500432 | 2.0 | 11.767 | 2 | 38.849 | 11.940 | 33.929 | 2 |
| 2025-05-18T12:42:00 | 57.499874 | 3.500376 | 2.0 | 11.745 | 2 | 38.844 | 11.930 | 33.934 | 2 |
| 2025-05-18T12:43:00 | 57.499852 | 3.500354 | 2.0 | 11.756 | 2 | 38.844 | 11.932 | 33.932 | 2 |
| 2025-05-18T12:44:00 | 57.499833 | 3.500366 | 2.0 | 11.744 | 2 | 38.848 | 11.934 | 33.934 | 2 |
| 2025-05-18T12:45:00 | 57.499824 | 3.500356 | 2.0 | 11.745 | 2 | 38.841 | 11.923 | 33.937 | 2 |
| 2025-05-18T12:46:00 | 57.499835 | 3.500293 | 2.0 | 11.780 | 2 | 38.854 | 11.942 | 33.932 | 2 |
| 2025-05-18T12:47:00 | 57.499879 | 3.500202 | 2.0 | 11.760 | 2 | 38.877 | 11.965 | 33.934 | 2 |
| 2025-05-18T12:48:00 | 57.499899 | 3.500150 | 2.0 | 11.717 | 2 | 38.863 | 11.943 | 33.940 | 2 |
| 2025-05-18T12:49:00 | 57.499877 | 3.500171 | 2.0 | 11.745 | 2 | 38.841 | 11.917 | 33.943 | 2 |
| 2025-05-18T12:50:00 | 57.499859 | 3.500230 | 2.0 | 11.738 | 2 | 38.854 | 11.933 | 33.941 | 2 |
| 2025-05-18T12:51:00 | 57.499843 | 3.500241 | 2.0 | 11.705 | 2 | 38.850 | 11.921 | 33.948 | 2 |
| 2025-05-18T12:52:00 | 57.499887 | 3.500237 | 2.0 | 11.685 | 2 | 38.823 | 11.882 | 33.957 | 2 |
| 2025-05-18T12:53:00 | 57.499867 | 3.500205 | 2.0 | 11.730 | 2 | 38.819 | 11.883 | 33.952 | 2 |
| 2025-05-18T12:54:00 | 57.499897 | 3.500280 | 2.0 | 11.734 | 2 | 38.850 | 11.927 | 33.942 | 2 |
| 2025-05-18T12:55:00 | 57.499863 | 3.500298 | 2.0 | 11.677 | 2 | 38.846 | 11.912 | 33.952 | 2 |
| 2025-05-18T12:56:00 | 57.499816 | 3.500288 | 2.0 | 11.649 | 2 | 38.815 | 11.867 | 33.963 | 2 |
| 2025-05-18T12:57:00 | 57.499808 | 3.500224 | 2.0 | 11.645 | 2 | 38.798 | 11.842 | 33.969 | 2 |
| 2025-05-18T12:58:00 | 57.499790 | 3.500152 | 2.0 | 11.657 | 2 | 38.799 | 11.845 | 33.967 | 2 |
| 2025-05-18T12:59:00 | 57.499803 | 3.500126 | 2.0 | 11.674 | 2 | 38.807 | 11.859 | 33.962 | 2 |
| 2025-05-18T13:00:00 | 57.499858 | 3.500124 | 2.0 | 11.660 | 2 | 38.810 | 11.864 | 33.961 | 2 |
| 2025-05-18T13:01:00 | 57.499884 | 3.500155 | 2.0 | 11.665 | 2 | 38.803 | 11.854 | 33.963 | 2 |
| 2025-05-18T13:02:00 | 57.499863 | 3.500184 | 2.0 | 11.673 | 2 | 38.807 | 11.861 | 33.961 | 2 |
| 2025-05-18T13:03:00 | 57.499841 | 3.500170 | 2.0 | 11.697 | 2 | 38.813 | 11.867 | 33.961 | 2 |
| 2025-05-18T13:04:00 | 57.499791 | 3.500080 | 2.0 | 11.735 | 2 | 38.838 | 11.907 | 33.949 | 2 |
| 2025-05-18T13:05:00 | 57.499764 | 3.499992 | 2.0 | 11.713 | 2 | 38.859 | 11.929 | 33.949 | 2 |
| 2025-05-18T13:06:00 | 57.499800 | 3.499907 | 2.0 | 11.660 | 2 | 38.837 | 11.893 | 33.961 | 2 |
| 2025-05-18T13:07:00 | 57.499834 | 3.499914 | 2.0 | 11.654 | 2 | 38.810 | 11.857 | 33.967 | 2 |
| 2025-05-18T13:08:00 | 57.499878 | 3.499920 | 2.0 | 11.662 | 2 | 38.804 | 11.851 | 33.967 | 2 |
| 2025-05-18T13:09:00 | 57.499918 | 3.499917 | 2.0 | 11.658 | 2 | 38.808 | 11.856 | 33.966 | 2 |
| 2025-05-18T13:10:00 | 57.499909 | 3.499881 | 2.0 | 11.657 | 2 | 38.809 | 11.856 | 33.967 | 2 |
| 2025-05-18T13:11:00 | 57.499878 | 3.499816 | 2.0 | 11.651 | 2 | 38.804 | 11.848 | 33.969 | 2 |
| 2025-05-18T13:12:00 | 57.499916 | 3.499843 | 2.0 | 11.658 | 2 | 38.805 | 11.850 | 33.969 | 2 |
| 2025-05-18T13:13:00 | 57.499988 | 3.499892 | 2.0 | 11.653 | 2 | 38.599 | 11.852 | 33.766 | 2 |
| 2025-05-18T13:14:00 | 57.499979 | 3.499909 | 2.0 | 11.685 | 2 | 38.251 | 11.852 | 33.427 | 2 |
| 2025-05-18T13:15:00 | 57.499927 | 3.499868 | 2.0 | 11.711 | 2 | 38.403 | 11.882 | 33.548 | 2 |
| 2025-05-18T13:16:00 | 57.499901 | 3.499791 | 2.0 | 11.701 | 2 | 38.764 | 11.912 | 33.872 | 2 |
| 2025-05-18T13:17:00 | 57.499985 | 3.499858 | 2.0 | 11.681 | 2 | 38.300 | 11.897 | 33.434 | 2 |
| 2025-05-18T13:18:00 | 57.500344 | 3.500454 | 2.0 | 11.713 | 2 | 38.249 | 11.870 | 33.409 | 2 |
| 2025-05-18T13:19:00 | 57.501024 | 3.501662 | 2.0 | 11.770 | 2 | 38.826 | 11.926 | 33.920 | 2 |
| 2025-05-18T13:20:00 | 57.501796 | 3.503560 | 2.0 | 11.785 | 2 | 38.526 | 11.956 | 33.601 | 2 |
| 2025-05-18T13:21:00 | 57.502629 | 3.506008 | 2.0 | 11.798 | 2 | 38.735 | 11.984 | 33.778 | 2 |
| 2025-05-18T13:22:00 | 57.503504 | 3.508759 | 2.0 | 11.835 | 2 | 38.542 | 12.016 | 33.562 | 2 |
| 2025-05-18T13:23:00 | 57.504369 | 3.511724 | 2.0 | 11.853 | 2 | 38.386 | 12.034 | 33.395 | 2 |
| 2025-05-18T13:24:00 | 57.505272 | 3.514637 | 2.0 | 11.896 | 2 | 38.478 | 12.063 | 33.458 | 2 |
| 2025-05-18T13:25:00 | 57.505905 | 3.517790 | 2.0 | 11.883 | 2 | 38.238 | 12.063 | 33.225 | 2 |
| 2025-05-18T13:26:00 | 57.506250 | 3.521254 | 2.0 | 11.880 | 2 | 38.339 | 12.063 | 33.323 | 2 |
| 2025-05-18T13:27:00 | 57.506569 | 3.524806 | 2.0 | 11.901 | 2 | 38.134 | 12.065 | 33.123 | 2 |
| 2025-05-18T13:28:00 | 57.506881 | 3.528405 | 2.0 | 11.879 | 2 | 38.506 | 12.076 | 33.473 | 2 |
| 2025-05-18T13:29:00 | 57.506891 | 3.532449 | 2.0 | 11.872 | 2 | 38.791 | 12.059 | 33.765 | 2 |
| 2025-05-18T13:30:00 | 57.506883 | 3.537423 | 2.0 | 11.829 | 2 | 38.428 | 12.034 | 33.435 | 2 |
| 2025-05-18T13:31:00 | 57.506870 | 3.542807 | 2.0 | 11.835 | 2 | 38.350 | 12.005 | 33.386 | 2 |
| 2025-05-18T13:32:00 | 57.506873 | 3.548317 | 2.0 | 11.822 | 2 | 38.599 | 12.008 | 33.625 | 2 |
| 2025-05-18T13:33:00 | 57.506850 | 3.553828 | 2.0 | 11.815 | 2 | 38.309 | 11.999 | 33.351 | 2 |
| 2025-05-18T13:34:00 | 57.506835 | 3.559376 | 2.0 | 11.797 | 2 | 38.263 | 11.990 | 33.315 | 2 |
| 2025-05-18T13:35:00 | 57.506820 | 3.564928 | 2.0 | 11.796 | 2 | 38.097 | 11.972 | 33.170 | 2 |
| 2025-05-18T13:36:00 | 57.506788 | 3.570433 | 2.0 | 11.818 | 2 | 38.355 | 11.981 | 33.412 | 2 |
| 2025-05-18T13:37:00 | 57.506760 | 3.575931 | 2.0 | 11.821 | 2 | 38.250 | 11.988 | 33.304 | 2 |
| 2025-05-18T13:38:00 | 57.506729 | 3.581506 | 2.0 | 11.846 | 2 | 38.470 | 12.002 | 33.505 | 2 |
| 2025-05-18T13:39:00 | 57.506706 | 3.587071 | 2.0 | 11.852 | 2 | 38.260 | 12.015 | 33.289 | 2 |
| 2025-05-18T13:40:00 | 57.506689 | 3.592587 | 2.0 | 11.847 | 2 | 38.300 | 12.026 | 33.318 | 2 |
| 2025-05-18T13:41:00 | 57.506664 | 3.598158 | 2.0 | 11.829 | 2 | 38.200 | 12.019 | 33.228 | 2 |
| 2025-05-18T13:42:00 | 57.506623 | 3.603713 | 2.0 | 11.830 | 2 | 38.206 | 12.011 | 33.241 | 2 |
| 2025-05-18T13:43:00 | 57.506578 | 3.609211 | 2.0 | 11.895 | 2 | 38.304 | 12.020 | 33.328 | 2 |
| 2025-05-18T13:44:00 | 57.506558 | 3.614713 | 2.0 | 11.871 | 2 | 38.370 | 12.058 | 33.358 | 2 |
| 2025-05-18T13:45:00 | 57.505898 | 3.619995 | 2.0 | 11.876 | 2 | 38.259 | 12.047 | 33.260 | 2 |
| 2025-05-18T13:46:00 | 57.505106 | 3.625281 | 2.0 | 11.903 | 2 | 38.402 | 12.048 | 33.398 | 2 |
| 2025-05-18T13:47:00 | 57.504312 | 3.630575 | 2.0 | 11.852 | 2 | 38.479 | 12.057 | 33.464 | 2 |
| 2025-05-18T13:48:00 | 57.503527 | 3.635910 | 2.0 | 11.857 | 2 | 38.385 | 12.028 | 33.399 | 2 |
| 2025-05-18T13:49:00 | 57.502719 | 3.641249 | 2.0 | 11.786 | 2 | 38.229 | 12.021 | 33.254 | 2 |
| 2025-05-18T13:50:00 | 57.501915 | 3.646612 | 2.0 | 11.905 | 2 | 38.181 | 12.001 | 33.225 | 2 |
| 2025-05-18T13:51:00 | 57.501127 | 3.651851 | 2.0 | 11.865 | 2 | 38.434 | 12.063 | 33.415 | 2 |
| 2025-05-18T13:52:00 | 57.500453 | 3.656242 | 2.0 | 11.879 | 2 | 38.225 | 12.040 | 33.233 | 2 |
| 2025-05-18T13:53:00 | 57.499909 | 3.659644 | 2.0 | 11.919 | 2 | 38.259 | 12.066 | 33.243 | 2 |
| 2025-05-18T13:54:00 | 57.499495 | 3.662253 | 2.0 | 11.911 | 2 | 38.276 | 12.090 | 33.238 | 2 |
| 2025-05-18T13:55:00 | 57.499068 | 3.664177 | 2.0 | 11.929 | 2 | 38.297 | 12.099 | 33.250 | 2 |
| 2025-05-18T13:56:00 | 57.499206 | 3.665164 | 2.0 | 11.998 | 2 | 38.341 | 12.105 | 33.288 | 2 |
| 2025-05-18T13:57:00 | 57.499460 | 3.665527 | 2.0 | 11.985 | 2 | 38.360 | 12.161 | 33.256 | 2 |
| 2025-05-18T13:58:00 | 57.499600 | 3.665734 | 2.0 | 12.003 | 2 | 38.361 | 12.138 | 33.278 | 2 |
| 2025-05-18T13:59:00 | 57.499592 | 3.665889 | 2.0 | 12.069 | 2 | 38.511 | 12.178 | 33.387 | 2 |
| 2025-05-18T14:00:00 | 57.499588 | 3.666055 | 2.0 | 12.075 | 2 | 38.523 | 12.241 | 33.342 | 2 |
| 2025-05-18T14:01:00 | 57.499561 | 3.666146 | 2.0 | 12.037 | 2 | 38.513 | 12.233 | 33.340 | 2 |
| 2025-05-18T14:02:00 | 57.499525 | 3.666215 | 2.0 | 12.032 | 2 | 38.465 | 12.210 | 33.314 | 2 |
| 2025-05-18T14:03:00 | 57.499482 | 3.666238 | 2.0 | 11.886 | 2 | 38.451 | 12.187 | 33.321 | 2 |
| 2025-05-18T14:04:00 | 57.499505 | 3.666229 | 2.0 | 11.623 | 2 | 38.273 | 12.004 | 33.312 | 2 |
| 2025-05-18T14:05:00 | 57.499496 | 3.666194 | 2.0 | 11.665 | 2 | 38.131 | 11.826 | 33.333 | 2 |
| 2025-05-18T14:06:00 | 57.499444 | 3.666150 | 2.0 | 11.669 | 2 | 38.146 | 11.839 | 33.336 | 2 |
| 2025-05-18T14:07:00 | 57.499462 | 3.666073 | 2.0 | 11.697 | 2 | 38.175 | 11.850 | 33.355 | 2 |
| 2025-05-18T14:08:00 | 57.499486 | 3.666018 | 2.0 | 11.686 | 2 | 38.170 | 11.869 | 33.333 | 2 |
| 2025-05-18T14:09:00 | 57.499494 | 3.665951 | 2.0 | 11.687 | 2 | 38.201 | 11.864 | 33.367 | 2 |
| 2025-05-18T14:10:00 | 57.499494 | 3.665912 | 2.0 | 11.686 | 2 | 38.190 | 11.858 | 33.362 | 2 |
| 2025-05-18T14:11:00 | 57.499477 | 3.665880 | 2.0 | 11.701 | 2 | 38.199 | 11.863 | 33.366 | 2 |
| 2025-05-18T14:12:00 | 57.499422 | 3.665827 | 2.0 | 11.701 | 2 | 38.229 | 11.872 | 33.387 | 2 |
| 2025-05-18T14:13:00 | 57.499412 | 3.665809 | 2.0 | 11.663 | 2 | 38.220 | 11.869 | 33.381 | 2 |
| 2025-05-18T14:14:00 | 57.499438 | 3.665832 | 2.0 | 11.624 | 2 | 38.197 | 11.823 | 33.400 | 2 |
| 2025-05-18T14:15:00 | 57.499453 | 3.665828 | 2.0 | 11.640 | 2 | 38.171 | 11.802 | 33.394 | 2 |
| 2025-05-18T14:16:00 | 57.499461 | 3.665781 | 2.0 | 11.691 | 2 | 38.189 | 11.818 | 33.397 | 2 |
| 2025-05-18T14:17:00 | 57.499476 | 3.665723 | 2.0 | 11.712 | 2 | 38.240 | 11.862 | 33.407 | 2 |
| 2025-05-18T14:18:00 | 57.499490 | 3.665682 | 2.0 | 11.712 | 2 | 38.294 | 11.884 | 33.440 | 2 |
| 2025-05-18T14:19:00 | 57.499490 | 3.665664 | 2.0 | 11.702 | 2 | 38.282 | 11.879 | 33.433 | 2 |
| 2025-05-18T14:20:00 | 57.499476 | 3.665673 | 2.0 | 11.666 | 2 | 38.290 | 11.873 | 33.446 | 2 |
| 2025-05-18T14:21:00 | 57.499428 | 3.665678 | 2.0 | 11.646 | 2 | 38.254 | 11.827 | 33.452 | 2 |
| 2025-05-18T14:22:00 | 57.499409 | 3.665648 | 2.0 | 11.661 | 2 | 38.246 | 11.824 | 33.447 | 2 |
| 2025-05-18T14:23:00 | 57.499412 | 3.665607 | 2.0 | 11.664 | 2 | 38.256 | 11.826 | 33.455 | 2 |
| 2025-05-18T14:24:00 | 57.499374 | 3.665554 | 2.0 | 11.686 | 2 | 38.263 | 11.840 | 33.449 | 2 |
| 2025-05-18T14:25:00 | 57.499331 | 3.665534 | 2.0 | 11.696 | 2 | 38.294 | 11.861 | 33.461 | 2 |
| 2025-05-18T14:26:00 | 57.499322 | 3.665562 | 2.0 | 11.606 | 2 | 38.288 | 11.836 | 33.477 | 2 |
| 2025-05-18T14:27:00 | 57.499346 | 3.665587 | 2.0 | 11.656 | 2 | 38.233 | 11.791 | 33.464 | 2 |
| 2025-05-18T14:28:00 | 57.499362 | 3.665651 | 2.0 | 11.725 | 2 | 38.291 | 11.842 | 33.475 | 2 |
| 2025-05-18T14:29:00 | 57.499386 | 3.665670 | 2.0 | 11.793 | 2 | 38.355 | 11.904 | 33.481 | 2 |
| 2025-05-18T14:30:00 | 57.499400 | 3.665649 | 2.0 | 11.795 | 2 | 38.410 | 11.960 | 33.484 | 2 |
| 2025-05-18T14:31:00 | 57.499465 | 3.665649 | 2.0 | 11.851 | 2 | 38.432 | 11.978 | 33.489 | 2 |
| 2025-05-18T14:32:00 | 57.499484 | 3.665676 | 2.0 | 11.881 | 2 | 38.467 | 12.020 | 33.486 | 2 |
| 2025-05-18T14:33:00 | 57.499422 | 3.665672 | 2.0 | 11.768 | 2 | 38.481 | 12.021 | 33.498 | 2 |
| 2025-05-18T14:34:00 | 57.499422 | 3.665641 | 2.0 | 11.679 | 2 | 38.383 | 11.913 | 33.500 | 2 |
| 2025-05-18T14:35:00 | 57.499423 | 3.665570 | 2.0 | 11.693 | 2 | 38.323 | 11.860 | 33.490 | 2 |
| 2025-05-18T14:36:00 | 57.499442 | 3.665507 | 2.0 | 11.693 | 2 | 38.323 | 11.859 | 33.491 | 2 |
| 2025-05-18T14:37:00 | 57.499448 | 3.665455 | 2.0 | 11.706 | 2 | 38.326 | 11.864 | 33.489 | 2 |
| 2025-05-18T14:38:00 | 57.499457 | 3.665411 | 2.0 | 11.735 | 2 | 38.344 | 11.882 | 33.490 | 2 |
| 2025-05-18T14:39:00 | 57.499455 | 3.665361 | 2.0 | 11.715 | 2 | 38.368 | 11.903 | 33.495 | 2 |
| 2025-05-18T14:40:00 | 57.499453 | 3.665369 | 2.0 | 11.709 | 2 | 38.347 | 11.882 | 33.493 | 2 |
| 2025-05-18T14:41:00 | 57.499419 | 3.665403 | 2.0 | 11.712 | 2 | 38.344 | 11.881 | 33.491 | 2 |
| 2025-05-18T14:42:00 | 57.499411 | 3.665397 | 2.0 | 11.690 | 2 | 38.345 | 11.882 | 33.491 | 2 |
| 2025-05-18T14:43:00 | 57.499364 | 3.665358 | 2.0 | 11.664 | 2 | 38.323 | 11.862 | 33.488 | 2 |
| 2025-05-18T14:44:00 | 57.499361 | 3.665348 | 2.0 | 11.699 | 2 | 38.293 | 11.832 | 33.486 | 2 |
| 2025-05-18T14:45:00 | 57.499399 | 3.665347 | 2.0 | 11.786 | 2 | 38.347 | 11.894 | 33.482 | 2 |
| 2025-05-18T14:46:00 | 57.499377 | 3.665322 | 2.0 | 11.727 | 2 | 38.419 | 11.959 | 33.494 | 2 |
| 2025-05-18T14:47:00 | 57.499350 | 3.665301 | 2.0 | 11.684 | 2 | 38.349 | 11.883 | 33.494 | 2 |
| 2025-05-18T14:48:00 | 57.499363 | 3.665339 | 2.0 | 11.783 | 2 | 38.329 | 11.873 | 33.484 | 2 |
| 2025-05-18T14:49:00 | 57.499381 | 3.665355 | 2.0 | 11.872 | 2 | 38.421 | 11.968 | 33.488 | 2 |
| 2025-05-18T14:50:00 | 57.499404 | 3.665374 | 2.0 | 11.992 | 2 | 38.505 | 12.058 | 33.488 | 2 |
| 2025-05-18T14:51:00 | 57.499413 | 3.665396 | 2.0 | 12.071 | 2 | 38.608 | 12.173 | 33.485 | 2 |
| 2025-05-18T14:52:00 | 57.499414 | 3.665404 | 2.0 | 11.725 | 2 | 38.568 | 12.103 | 33.509 | 2 |
| 2025-05-18T14:53:00 | 57.499425 | 3.665368 | 2.0 | 11.724 | 2 | 38.380 | 11.914 | 33.497 | 2 |
| 2025-05-18T14:54:00 | 57.499431 | 3.665337 | 2.0 | 11.749 | 2 | 38.354 | 11.894 | 33.489 | 2 |
| 2025-05-18T14:55:00 | 57.499399 | 3.665236 | 2.0 | 11.907 | 2 | 38.404 | 11.955 | 33.483 | 2 |
| 2025-05-18T14:56:00 | 57.499309 | 3.665049 | 2.0 | 11.924 | 2 | 38.520 | 12.076 | 33.487 | 2 |
| 2025-05-18T14:57:00 | 57.499229 | 3.664851 | 2.0 | 11.960 | 2 | 38.537 | 12.092 | 33.489 | 2 |
| 2025-05-18T14:58:00 | 57.499199 | 3.664688 | 2.0 | 12.067 | 2 | 38.583 | 12.140 | 33.490 | 2 |
| 2025-05-18T14:59:00 | 57.499218 | 3.664496 | 2.0 | 12.040 | 2 | 38.673 | 12.241 | 33.487 | 2 |
| 2025-05-18T15:00:00 | 57.499213 | 3.664280 | 2.0 | 11.982 | 2 | 38.644 | 12.192 | 33.503 | 2 |
| 2025-05-18T15:01:00 | 57.499197 | 3.664097 | 2.0 | 12.099 | 2 | 38.604 | 12.161 | 33.492 | 2 |
| 2025-05-18T15:02:00 | 57.499136 | 3.663908 | 2.0 | 12.144 | 2 | 38.706 | 12.276 | 33.487 | 2 |
| 2025-05-18T15:03:00 | 57.499069 | 3.663681 | 2.0 | 12.170 | 2 | 38.745 | 12.310 | 33.495 | 2 |
| 2025-05-18T15:04:00 | 57.499239 | 3.663161 | 2.0 | 12.060 | 2 | 38.778 | 12.348 | 33.492 | 2 |
| 2025-05-18T15:05:00 | 57.499712 | 3.661668 | 2.0 | 11.917 | 2 | 38.624 | 12.168 | 33.505 | 2 |
| 2025-05-18T15:06:00 | 57.499608 | 3.659125 | 2.0 | 11.970 | 2 | 38.552 | 12.086 | 33.509 | 2 |
| 2025-05-18T15:07:00 | 57.499231 | 3.655936 | 2.0 | 11.794 | 2 | 38.591 | 12.120 | 33.516 | 2 |
| 2025-05-18T15:08:00 | 57.498629 | 3.652458 | 2.0 | 11.883 | 2 | 38.480 | 11.984 | 33.531 | 2 |
| 2025-05-18T15:09:00 | 57.497811 | 3.648827 | 2.0 | 11.911 | 2 | 38.571 | 12.083 | 33.530 | 2 |
| 2025-05-18T15:10:00 | 57.496869 | 3.645040 | 2.0 | 11.993 | 2 | 37.881 | 12.107 | 32.841 | 2 |
| 2025-05-18T15:11:00 | 57.495876 | 3.641212 | 2.0 | 12.064 | 2 | 38.703 | 12.181 | 33.570 | 2 |
| 2025-05-18T15:12:00 | 57.495689 | 3.637198 | 2.0 | 11.951 | 2 | 38.647 | 12.202 | 33.497 | 2 |
| 2025-05-18T15:13:00 | 57.496844 | 3.634418 | 2.0 | 11.960 | 2 | 38.273 | 12.120 | 33.209 | 2 |
| 2025-05-18T15:14:00 | 57.498388 | 3.633495 | 2.0 | 12.050 | 2 | 38.425 | 12.152 | 33.327 | 2 |
| 2025-05-18T15:15:00 | 57.499852 | 3.632989 | 2.0 | 12.100 | 2 | 38.795 | 12.238 | 33.607 | 2 |
| 2025-05-18T15:16:00 | 57.501407 | 3.632624 | 2.0 | 12.021 | 2 | 38.794 | 12.241 | 33.604 | 2 |
| 2025-05-18T15:17:00 | 57.502841 | 3.632683 | 2.0 | 12.009 | 2 | 38.293 | 12.207 | 33.151 | 2 |
| 2025-05-18T15:18:00 | 57.504465 | 3.632589 | 2.0 | 11.983 | 2 | 38.497 | 12.181 | 33.371 | 2 |
| 2025-05-18T15:19:00 | 57.506156 | 3.632511 | 2.0 | 12.048 | 2 | 38.537 | 12.178 | 33.412 | 2 |
| 2025-05-18T15:20:00 | 57.507713 | 3.632433 | 2.0 | 12.070 | 2 | 38.337 | 12.246 | 33.158 | 2 |
| 2025-05-18T15:21:00 | 57.509224 | 3.632413 | 2.0 | 12.020 | 2 | 38.449 | 12.241 | 33.271 | 2 |
| 2025-05-18T15:22:00 | 57.510873 | 3.632445 | 2.0 | 12.008 | 2 | 38.494 | 12.220 | 33.333 | 2 |
| 2025-05-18T15:23:00 | 57.512599 | 3.632515 | 2.0 | 12.065 | 2 | 38.527 | 12.187 | 33.394 | 2 |
| 2025-05-18T15:24:00 | 57.514384 | 3.632487 | 2.0 | 12.100 | 2 | 38.151 | 12.246 | 32.979 | 2 |
| 2025-05-18T15:25:00 | 57.516047 | 3.632437 | 2.0 | 12.080 | 2 | 37.846 | 12.248 | 32.684 | 2 |
| 2025-05-18T15:26:00 | 57.517660 | 3.632403 | 2.0 | 12.122 | 2 | 38.629 | 12.267 | 33.421 | 2 |
| 2025-05-18T15:27:00 | 57.519263 | 3.632390 | 2.0 | 12.114 | 2 | 38.354 | 12.282 | 33.143 | 2 |
| 2025-05-18T15:28:00 | 57.520992 | 3.632401 | 2.0 | 12.180 | 2 | 37.983 | 12.282 | 32.786 | 2 |
| 2025-05-18T15:29:00 | 57.522677 | 3.632371 | 2.0 | 12.079 | 2 | 38.474 | 12.326 | 33.219 | 2 |
| 2025-05-18T15:30:00 | 57.524353 | 3.632376 | 2.0 | 12.108 | 2 | 38.325 | 12.254 | 33.140 | 2 |
| 2025-05-18T15:31:00 | 57.525837 | 3.632350 | 2.0 | 12.112 | 2 | 38.094 | 12.298 | 32.879 | 2 |
| 2025-05-18T15:32:00 | 57.527365 | 3.632331 | 2.0 | 12.079 | 2 | 38.432 | 12.285 | 33.215 | 2 |
| 2025-05-18T15:33:00 | 57.529080 | 3.632296 | 2.0 | 12.201 | 2 | 38.178 | 12.285 | 32.971 | 2 |
| 2025-05-18T15:34:00 | 57.530859 | 3.632334 | 2.0 | 12.087 | 2 | 38.627 | 12.320 | 33.372 | 2 |
| 2025-05-18T15:35:00 | 57.532657 | 3.632313 | 2.0 | 12.038 | 2 | 38.326 | 12.268 | 33.128 | 2 |
| 2025-05-18T15:36:00 | 57.534350 | 3.632292 | 2.0 | 12.099 | 2 | 38.558 | 12.223 | 33.392 | 2 |
| 2025-05-18T15:37:00 | 57.536116 | 3.632282 | 2.0 | 12.262 | 2 | 38.443 | 12.297 | 33.215 | 2 |
| 2025-05-18T15:38:00 | 57.537804 | 3.632294 | 2.0 | 12.245 | 2 | 38.699 | 12.417 | 33.355 | 2 |
| 2025-05-18T15:39:00 | 57.539474 | 3.632273 | 2.0 | 12.276 | 2 | 38.611 | 12.400 | 33.285 | 2 |
| 2025-05-18T15:40:00 | 57.541231 | 3.632269 | 2.0 | 12.141 | 2 | 38.924 | 12.412 | 33.576 | 2 |
| 2025-05-18T15:41:00 | 57.542994 | 3.632281 | 2.0 | 12.155 | 2 | 38.583 | 12.336 | 33.315 | 2 |
| 2025-05-18T15:42:00 | 57.544801 | 3.632309 | 2.0 | 12.085 | 2 | 38.524 | 12.270 | 33.317 | 2 |
| 2025-05-18T15:43:00 | 57.546673 | 3.632302 | 2.0 | 12.066 | 2 | 38.355 | 12.240 | 33.181 | 2 |
| 2025-05-18T15:44:00 | 57.548413 | 3.632262 | 2.0 | 12.175 | 2 | 38.384 | 12.275 | 33.178 | 2 |
| 2025-05-18T15:45:00 | 57.550167 | 3.632148 | 2.0 | 12.081 | 2 | 38.737 | 12.336 | 33.464 | 2 |
| 2025-05-18T15:46:00 | 57.551905 | 3.632174 | 2.0 | 12.004 | 2 | 38.399 | 12.260 | 33.206 | 2 |
| 2025-05-18T15:47:00 | 57.553687 | 3.632201 | 2.0 | 12.011 | 2 | 38.627 | 12.162 | 33.513 | 2 |
| 2025-05-18T15:48:00 | 57.555352 | 3.632213 | 2.0 | 11.903 | 2 | 38.792 | 12.184 | 33.653 | 2 |
| 2025-05-18T15:49:00 | 57.556965 | 3.632123 | 2.0 | 11.922 | 2 | 38.768 | 12.141 | 33.669 | 2 |
| 2025-05-18T15:50:00 | 57.558541 | 3.632158 | 2.0 | 11.937 | 2 | 38.767 | 12.131 | 33.677 | 2 |
| 2025-05-18T15:51:00 | 57.560084 | 3.632124 | 2.0 | 11.936 | 2 | 38.754 | 12.097 | 33.695 | 2 |
| 2025-05-18T15:52:00 | 57.561839 | 3.632094 | 2.0 | 11.979 | 2 | 38.776 | 12.127 | 33.689 | 2 |
| 2025-05-18T15:53:00 | 57.563648 | 3.632132 | 2.0 | 11.972 | 2 | 38.812 | 12.172 | 33.683 | 2 |
| 2025-05-18T15:54:00 | 57.565478 | 3.632134 | 2.0 | 12.021 | 2 | 38.835 | 12.172 | 33.705 | 2 |
| 2025-05-18T15:55:00 | 57.567334 | 3.632093 | 2.0 | 12.008 | 2 | 38.848 | 12.173 | 33.717 | 2 |
| 2025-05-18T15:56:00 | 57.569258 | 3.632063 | 2.0 | 12.015 | 2 | 38.871 | 12.169 | 33.743 | 2 |
| 2025-05-18T15:57:00 | 57.571035 | 3.632058 | 2.0 | 12.248 | 2 | 38.953 | 12.277 | 33.725 | 2 |
| 2025-05-18T15:58:00 | 57.572742 | 3.632015 | 2.0 | 11.962 | 2 | 39.073 | 12.371 | 33.756 | 2 |
| 2025-05-18T15:59:00 | 57.574480 | 3.632001 | 2.0 | 12.190 | 2 | 38.955 | 12.179 | 33.815 | 2 |
| 2025-05-18T16:00:00 | 57.576112 | 3.632067 | 2.0 | 12.219 | 2 | 39.069 | 12.381 | 33.743 | 2 |
| 2025-05-18T16:01:00 | 57.577788 | 3.632043 | 2.0 | 12.256 | 2 | 39.132 | 12.417 | 33.771 | 2 |
| 2025-05-18T16:02:00 | 57.579488 | 3.632050 | 2.0 | 12.316 | 2 | 39.180 | 12.446 | 33.791 | 2 |
| 2025-05-18T16:03:00 | 57.581076 | 3.632055 | 2.0 | 12.241 | 2 | 39.220 | 12.463 | 33.814 | 2 |
| 2025-05-18T16:04:00 | 57.582787 | 3.631947 | 2.0 | 12.157 | 2 | 39.198 | 12.397 | 33.853 | 2 |
| 2025-05-18T16:05:00 | 57.584497 | 3.631998 | 2.0 | 12.170 | 2 | 39.153 | 12.319 | 33.880 | 2 |
| 2025-05-18T16:06:00 | 57.586132 | 3.632055 | 2.0 | 12.285 | 2 | 39.186 | 12.364 | 33.871 | 2 |
| 2025-05-18T16:07:00 | 57.587774 | 3.631976 | 2.0 | 12.259 | 2 | 39.275 | 12.443 | 33.885 | 2 |
| 2025-05-18T16:08:00 | 57.589450 | 3.631921 | 2.0 | 12.411 | 2 | 39.281 | 12.425 | 33.907 | 2 |
| 2025-05-18T16:09:00 | 57.591069 | 3.631975 | 2.0 | 12.465 | 2 | 39.393 | 12.567 | 33.887 | 2 |
| 2025-05-18T16:10:00 | 57.592557 | 3.631979 | 2.0 | 12.499 | 2 | 39.457 | 12.632 | 33.890 | 2 |
| 2025-05-18T16:11:00 | 57.594060 | 3.631903 | 2.0 | 12.512 | 2 | 39.500 | 12.666 | 33.900 | 2 |
| 2025-05-18T16:12:00 | 57.595615 | 3.631876 | 2.0 | 12.453 | 2 | 39.548 | 12.667 | 33.945 | 2 |
| 2025-05-18T16:13:00 | 57.597346 | 3.631971 | 2.0 | 12.491 | 2 | 39.560 | 12.627 | 33.993 | 2 |
| 2025-05-18T16:14:00 | 57.599085 | 3.631983 | 2.0 | 12.516 | 2 | 39.571 | 12.657 | 33.976 | 2 |
| 2025-05-18T16:15:00 | 57.600811 | 3.631959 | 2.0 | 12.531 | 2 | 39.603 | 12.681 | 33.985 | 2 |
| 2025-05-18T16:16:00 | 57.602561 | 3.631851 | 2.0 | 12.521 | 2 | 39.637 | 12.692 | 34.008 | 2 |
| 2025-05-18T16:17:00 | 57.604141 | 3.631898 | 2.0 | 12.470 | 2 | 39.652 | 12.671 | 34.041 | 2 |
| 2025-05-18T16:18:00 | 57.605601 | 3.631779 | 2.0 | 12.471 | 2 | 39.712 | 12.650 | 34.118 | 2 |
| 2025-05-18T16:19:00 | 57.607166 | 3.631701 | 2.0 | 12.374 | 2 | 39.816 | 12.633 | 34.233 | 2 |
| 2025-05-18T16:20:00 | 57.608857 | 3.631721 | 2.0 | 12.374 | 2 | 39.869 | 12.533 | 34.375 | 2 |
| 2025-05-18T16:21:00 | 57.610559 | 3.631767 | 2.0 | 12.162 | 2 | 39.859 | 12.496 | 34.399 | 2 |
| 2025-05-18T16:22:00 | 57.612190 | 3.631717 | 2.0 | 11.999 | 2 | 39.748 | 12.336 | 34.439 | 2 |
| 2025-05-18T16:23:00 | 57.613863 | 3.631655 | 2.0 | 11.775 | 2 | 39.604 | 12.146 | 34.475 | 2 |
| 2025-05-18T16:24:00 | 57.615548 | 3.631671 | 2.0 | 11.827 | 2 | 39.491 | 12.030 | 34.472 | 2 |
| 2025-05-18T16:25:00 | 57.617222 | 3.631752 | 2.0 | 11.924 | 2 | 39.459 | 12.029 | 34.442 | 2 |
| 2025-05-18T16:26:00 | 57.618903 | 3.631805 | 2.0 | 12.129 | 2 | 39.536 | 12.166 | 34.390 | 2 |
| 2025-05-18T16:27:00 | 57.620689 | 3.631802 | 2.0 | 11.889 | 2 | 39.589 | 12.205 | 34.406 | 2 |
| 2025-05-18T16:28:00 | 57.622461 | 3.631921 | 2.0 | 12.009 | 2 | 39.483 | 12.085 | 34.413 | 2 |
| 2025-05-18T16:29:00 | 57.624238 | 3.631964 | 2.0 | 12.064 | 2 | 39.543 | 12.189 | 34.376 | 2 |
| 2025-05-18T16:30:00 | 57.625902 | 3.631920 | 2.0 | 12.097 | 2 | 39.560 | 12.224 | 34.360 | 2 |
| 2025-05-18T16:31:00 | 57.627661 | 3.631819 | 2.0 | 11.973 | 2 | 39.558 | 12.254 | 34.331 | 2 |
| 2025-05-18T16:32:00 | 57.629420 | 3.631866 | 2.0 | 11.886 | 2 | 39.391 | 12.129 | 34.283 | 2 |
| 2025-05-18T16:33:00 | 57.631278 | 3.631944 | 2.0 | 11.838 | 2 | 39.285 | 12.057 | 34.247 | 2 |
| 2025-05-18T16:34:00 | 57.633092 | 3.632020 | 2.0 | 11.804 | 2 | 39.204 | 11.999 | 34.221 | 2 |
| 2025-05-18T16:35:00 | 57.634870 | 3.631985 | 2.0 | 11.802 | 2 | 39.146 | 11.972 | 34.189 | 2 |
| 2025-05-18T16:36:00 | 57.636713 | 3.632043 | 2.0 | 11.882 | 2 | 39.041 | 11.986 | 34.074 | 2 |
| 2025-05-18T16:37:00 | 57.638399 | 3.632087 | 2.0 | 11.994 | 2 | 39.186 | 12.059 | 34.149 | 2 |
| 2025-05-18T16:38:00 | 57.640110 | 3.632090 | 2.0 | 12.108 | 2 | 39.299 | 12.189 | 34.139 | 2 |
| 2025-05-18T16:39:00 | 57.641521 | 3.632075 | 2.0 | 11.961 | 2 | 38.419 | 12.249 | 33.235 | 2 |
| 2025-05-18T16:40:00 | 57.643012 | 3.632076 | 2.0 | 11.907 | 2 | 39.163 | 12.126 | 34.065 | 2 |
| 2025-05-18T16:41:00 | 57.644735 | 3.632159 | 2.0 | 11.893 | 2 | 39.113 | 12.069 | 34.068 | 2 |
| 2025-05-18T16:42:00 | 57.646568 | 3.632298 | 2.0 | 11.833 | 2 | 39.072 | 12.048 | 34.048 | 2 |
| 2025-05-18T16:43:00 | 57.648422 | 3.632315 | 2.0 | 11.922 | 2 | 39.018 | 12.017 | 34.024 | 2 |
| 2025-05-18T16:44:00 | 57.650333 | 3.632313 | 2.0 | 11.949 | 2 | 39.065 | 12.098 | 33.995 | 2 |
| 2025-05-18T16:45:00 | 57.652181 | 3.632408 | 2.0 | 11.995 | 2 | 39.070 | 12.117 | 33.983 | 2 |
| 2025-05-18T16:46:00 | 57.653821 | 3.632388 | 2.0 | 12.023 | 2 | 39.085 | 12.159 | 33.959 | 2 |
| 2025-05-18T16:47:00 | 57.655439 | 3.632375 | 2.0 | 12.025 | 2 | 39.100 | 12.187 | 33.948 | 2 |
| 2025-05-18T16:48:00 | 57.657129 | 3.632484 | 2.0 | 11.984 | 2 | 39.077 | 12.180 | 33.932 | 2 |
| 2025-05-18T16:49:00 | 57.658903 | 3.632563 | 2.0 | 11.967 | 2 | 39.022 | 12.147 | 33.909 | 2 |
| 2025-05-18T16:50:00 | 57.660683 | 3.632544 | 2.0 | 11.994 | 2 | 38.977 | 12.149 | 33.864 | 2 |
| 2025-05-18T16:51:00 | 57.662315 | 3.632556 | 2.0 | 11.891 | 2 | 38.943 | 12.148 | 33.832 | 2 |
| 2025-05-18T16:52:00 | 57.663899 | 3.632617 | 2.0 | 11.901 | 2 | 38.830 | 12.065 | 33.797 | 2 |
| 2025-05-18T16:53:00 | 57.665497 | 3.632624 | 2.0 | 11.826 | 2 | 38.782 | 12.049 | 33.765 | 2 |
| 2025-05-18T16:54:00 | 57.667114 | 3.632721 | 2.0 | 11.836 | 2 | 38.694 | 12.000 | 33.724 | 2 |
| 2025-05-18T16:55:00 | 57.668795 | 3.632769 | 2.0 | 11.852 | 2 | 38.676 | 12.010 | 33.698 | 2 |
| 2025-05-18T16:56:00 | 57.670410 | 3.632842 | 2.0 | 11.913 | 2 | 38.682 | 12.025 | 33.690 | 2 |
| 2025-05-18T16:57:00 | 57.672108 | 3.632866 | 2.0 | 12.001 | 2 | 38.729 | 12.088 | 33.679 | 2 |
| 2025-05-18T16:58:00 | 57.673851 | 3.632914 | 2.0 | 12.042 | 2 | 38.806 | 12.187 | 33.664 | 2 |
| 2025-05-18T16:59:00 | 57.675521 | 3.632901 | 2.0 | 11.815 | 2 | 38.772 | 12.162 | 33.654 | 2 |
| 2025-05-18T17:00:00 | 57.677306 | 3.632829 | 2.0 | 11.761 | 2 | 38.540 | 11.978 | 33.594 | 2 |
| 2025-05-18T17:01:00 | 57.679111 | 3.632583 | 2.0 | 11.779 | 2 | 38.445 | 11.938 | 33.538 | 2 |
| 2025-05-18T17:02:00 | 57.680935 | 3.632314 | 2.0 | 11.773 | 2 | 38.434 | 11.943 | 33.523 | 2 |
| 2025-05-18T17:03:00 | 57.682712 | 3.632032 | 2.0 | 11.831 | 2 | 38.419 | 11.947 | 33.505 | 2 |
| 2025-05-18T17:04:00 | 57.684467 | 3.631832 | 2.0 | 11.878 | 2 | 38.455 | 12.004 | 33.488 | 2 |
| 2025-05-18T17:05:00 | 57.686217 | 3.631634 | 2.0 | 11.909 | 2 | 38.485 | 12.042 | 33.483 | 2 |
| 2025-05-18T17:06:00 | 57.687934 | 3.631484 | 2.0 | 11.922 | 2 | 38.509 | 12.073 | 33.479 | 2 |
| 2025-05-18T17:07:00 | 57.689707 | 3.631272 | 2.0 | 11.975 | 2 | 38.521 | 12.097 | 33.469 | 2 |
| 2025-05-18T17:08:00 | 57.691450 | 3.631181 | 2.0 | 12.026 | 2 | 38.554 | 12.148 | 33.455 | 2 |
| 2025-05-18T17:09:00 | 57.693135 | 3.631148 | 2.0 | 12.085 | 2 | 38.578 | 12.183 | 33.447 | 2 |
| 2025-05-18T17:10:00 | 57.694934 | 3.631145 | 2.0 | 12.109 | 2 | 38.616 | 12.243 | 33.430 | 2 |
| 2025-05-18T17:11:00 | 57.696736 | 3.631173 | 2.0 | 12.113 | 2 | 38.625 | 12.271 | 33.414 | 2 |
| 2025-05-18T17:12:00 | 57.698608 | 3.631147 | 2.0 | 12.089 | 2 | 38.598 | 12.265 | 33.393 | 2 |
| 2025-05-18T17:13:00 | 57.700466 | 3.631112 | 2.0 | 12.081 | 2 | 38.544 | 12.244 | 33.360 | 2 |
| 2025-05-18T17:14:00 | 57.702281 | 3.631080 | 2.0 | 11.991 | 2 | 38.503 | 12.237 | 33.326 | 2 |
| 2025-05-18T17:15:00 | 57.704149 | 3.631077 | 2.0 | 11.858 | 2 | 38.377 | 12.140 | 33.291 | 2 |
| 2025-05-18T17:16:00 | 57.706019 | 3.631136 | 2.0 | 11.835 | 2 | 38.213 | 12.020 | 33.239 | 2 |
| 2025-05-18T17:17:00 | 57.707906 | 3.631127 | 2.0 | 11.906 | 2 | 38.150 | 12.028 | 33.171 | 2 |
| 2025-05-18T17:18:00 | 57.709808 | 3.631036 | 2.0 | 11.792 | 2 | 38.101 | 12.054 | 33.101 | 2 |
| 2025-05-18T17:19:00 | 57.711706 | 3.631040 | 2.0 | 11.652 | 2 | 37.909 | 11.929 | 33.026 | 2 |
| 2025-05-18T17:20:00 | 57.713607 | 3.631114 | 2.0 | 11.638 | 2 | 37.737 | 11.830 | 32.946 | 2 |
| 2025-05-18T17:21:00 | 57.715509 | 3.631055 | 2.0 | 11.649 | 2 | 37.680 | 11.812 | 32.907 | 2 |
| 2025-05-18T17:22:00 | 57.717408 | 3.631012 | 2.0 | 11.675 | 2 | 37.672 | 11.832 | 32.881 | 2 |
| 2025-05-18T17:23:00 | 57.719291 | 3.631014 | 2.0 | 11.660 | 2 | 37.660 | 11.839 | 32.864 | 2 |
| 2025-05-18T17:24:00 | 57.721210 | 3.631023 | 2.0 | 11.771 | 2 | 37.646 | 11.852 | 32.838 | 2 |
| 2025-05-18T17:25:00 | 57.723062 | 3.630987 | 2.0 | 11.773 | 2 | 37.707 | 11.945 | 32.816 | 2 |
| 2025-05-18T17:26:00 | 57.724870 | 3.630959 | 2.0 | 11.803 | 2 | 37.663 | 11.942 | 32.776 | 2 |
| 2025-05-18T17:27:00 | 57.726709 | 3.630977 | 2.0 | 11.764 | 2 | 37.635 | 11.960 | 32.733 | 2 |
| 2025-05-18T17:28:00 | 57.728529 | 3.630949 | 2.0 | 11.813 | 2 | 37.595 | 11.944 | 32.708 | 2 |
| 2025-05-18T17:29:00 | 57.730381 | 3.630924 | 2.0 | 11.835 | 2 | 37.604 | 11.983 | 32.683 | 2 |
| 2025-05-18T17:30:00 | 57.732251 | 3.630892 | 2.0 | 11.845 | 2 | 37.598 | 12.003 | 32.659 | 2 |
| 2025-05-18T17:31:00 | 57.734156 | 3.630846 | 2.0 | 11.835 | 2 | 37.581 | 12.011 | 32.636 | 2 |
| 2025-05-18T17:32:00 | 57.736095 | 3.631017 | 2.0 | 11.775 | 2 | 37.530 | 11.989 | 32.606 | 2 |
| 2025-05-18T17:33:00 | 57.737662 | 3.632764 | 2.0 | 11.767 | 2 | 37.460 | 11.938 | 32.583 | 2 |
| 2025-05-18T17:34:00 | 57.738318 | 3.635991 | 2.0 | 11.788 | 2 | 37.447 | 11.944 | 32.565 | 2 |
| 2025-05-18T17:35:00 | 57.738053 | 3.639617 | 2.0 | 11.772 | 2 | 37.449 | 11.951 | 32.561 | 2 |
| 2025-05-18T17:36:00 | 57.737353 | 3.643084 | 2.0 | 11.773 | 2 | 37.440 | 11.942 | 32.560 | 2 |
| 2025-05-18T17:37:00 | 57.736892 | 3.646399 | 2.0 | 11.718 | 2 | 37.437 | 11.933 | 32.565 | 2 |
| 2025-05-18T17:38:00 | 57.736433 | 3.649609 | 2.0 | 11.730 | 2 | 37.401 | 11.896 | 32.562 | 2 |
| 2025-05-18T17:39:00 | 57.735877 | 3.652749 | 2.0 | 11.722 | 2 | 37.405 | 11.899 | 32.563 | 2 |
| 2025-05-18T17:40:00 | 57.735253 | 3.655802 | 2.0 | 11.731 | 2 | 37.396 | 11.890 | 32.563 | 2 |
| 2025-05-18T17:41:00 | 57.734634 | 3.658890 | 2.0 | 11.811 | 2 | 37.410 | 11.911 | 32.558 | 2 |
| 2025-05-18T17:42:00 | 57.734000 | 3.661992 | 2.0 | 11.873 | 2 | 37.486 | 11.987 | 32.565 | 2 |
| 2025-05-18T17:43:00 | 57.733370 | 3.665121 | 2.0 | 11.917 | 2 | 37.556 | 12.049 | 32.578 | 2 |
| 2025-05-18T17:44:00 | 57.732748 | 3.668222 | 2.0 | 11.914 | 2 | 37.595 | 12.081 | 32.588 | 2 |
| 2025-05-18T17:45:00 | 57.732134 | 3.671332 | 2.0 | 11.876 | 2 | 37.589 | 12.069 | 32.593 | 2 |
| 2025-05-18T17:46:00 | 57.731504 | 3.674430 | 2.0 | 11.843 | 2 | 37.561 | 12.041 | 32.590 | 2 |
| 2025-05-18T17:47:00 | 57.730855 | 3.677493 | 2.0 | 11.806 | 2 | 37.530 | 12.007 | 32.590 | 2 |
| 2025-05-18T17:48:00 | 57.730256 | 3.680543 | 2.0 | 11.797 | 2 | 37.493 | 11.972 | 32.585 | 2 |
| 2025-05-18T17:49:00 | 57.729639 | 3.683627 | 2.0 | 11.796 | 2 | 37.481 | 11.967 | 32.578 | 2 |
| 2025-05-18T17:50:00 | 57.729011 | 3.686753 | 2.0 | 11.795 | 2 | 37.478 | 11.960 | 32.581 | 2 |
| 2025-05-18T17:51:00 | 57.728352 | 3.689890 | 2.0 | 11.820 | 2 | 37.484 | 11.967 | 32.580 | 2 |
| 2025-05-18T17:52:00 | 57.727732 | 3.693081 | 2.0 | 11.973 | 2 | 37.529 | 12.011 | 32.585 | 2 |
| 2025-05-18T17:53:00 | 57.727094 | 3.696263 | 2.0 | 12.000 | 2 | 37.677 | 12.155 | 32.603 | 2 |
| 2025-05-18T17:54:00 | 57.726432 | 3.699429 | 2.0 | 11.895 | 2 | 37.702 | 12.148 | 32.633 | 2 |
| 2025-05-18T17:55:00 | 57.725738 | 3.702614 | 2.0 | 11.836 | 2 | 37.620 | 12.051 | 32.638 | 2 |
| 2025-05-18T17:56:00 | 57.725068 | 3.705804 | 2.0 | 11.770 | 2 | 37.563 | 12.005 | 32.624 | 2 |
| 2025-05-18T17:57:00 | 57.724465 | 3.708998 | 2.0 | 11.727 | 2 | 37.480 | 11.930 | 32.609 | 2 |
| 2025-05-18T17:58:00 | 57.723868 | 3.712216 | 2.0 | 11.739 | 2 | 37.435 | 11.902 | 32.590 | 2 |
| 2025-05-18T17:59:00 | 57.723195 | 3.715436 | 2.0 | 11.742 | 2 | 37.436 | 11.908 | 32.586 | 2 |
| 2025-05-18T18:00:00 | 57.722501 | 3.718635 | 2.0 | 11.833 | 2 | 37.453 | 11.928 | 32.585 | 2 |
| 2025-05-18T18:01:00 | 57.721868 | 3.721830 | 2.0 | 11.810 | 2 | 37.536 | 11.990 | 32.611 | 2 |
| 2025-05-18T18:02:00 | 57.721245 | 3.725011 | 2.0 | 11.817 | 2 | 37.553 | 11.989 | 32.628 | 2 |
| 2025-05-18T18:03:00 | 57.720601 | 3.728179 | 2.0 | 11.860 | 2 | 37.543 | 11.980 | 32.626 | 2 |
| 2025-05-18T18:04:00 | 57.719957 | 3.731360 | 2.0 | 11.870 | 2 | 37.591 | 12.032 | 32.627 | 2 |
| 2025-05-18T18:05:00 | 57.719347 | 3.734545 | 2.0 | 11.944 | 2 | 37.628 | 12.040 | 32.656 | 2 |
| 2025-05-18T18:06:00 | 57.718670 | 3.737736 | 2.0 | 12.007 | 2 | 37.721 | 12.128 | 32.669 | 2 |
| 2025-05-18T18:07:00 | 57.717983 | 3.740964 | 2.0 | 11.828 | 2 | 37.763 | 12.134 | 32.704 | 2 |
| 2025-05-18T18:08:00 | 57.717304 | 3.744180 | 2.0 | 11.800 | 2 | 37.645 | 11.996 | 32.711 | 2 |
| 2025-05-18T18:09:00 | 57.716664 | 3.747375 | 2.0 | 11.924 | 2 | 37.645 | 12.003 | 32.705 | 2 |
| 2025-05-18T18:10:00 | 57.716054 | 3.750576 | 2.0 | 11.918 | 2 | 37.758 | 12.091 | 32.737 | 2 |
| 2025-05-18T18:11:00 | 57.715411 | 3.753742 | 2.0 | 11.844 | 2 | 37.775 | 12.069 | 32.772 | 2 |
| 2025-05-18T18:12:00 | 57.714753 | 3.756882 | 2.0 | 11.916 | 2 | 37.741 | 12.030 | 32.774 | 2 |
| 2025-05-18T18:13:00 | 57.714132 | 3.760016 | 2.0 | 11.951 | 2 | 37.816 | 12.085 | 32.798 | 2 |
| 2025-05-18T18:14:00 | 57.713495 | 3.763184 | 2.0 | 11.970 | 2 | 37.871 | 12.116 | 32.824 | 2 |
| 2025-05-18T18:15:00 | 57.712845 | 3.766355 | 2.0 | 12.034 | 2 | 37.928 | 12.150 | 32.849 | 2 |
| 2025-05-18T18:16:00 | 57.712205 | 3.769504 | 2.0 | 12.082 | 2 | 38.004 | 12.196 | 32.882 | 2 |
| 2025-05-18T18:17:00 | 57.711584 | 3.772651 | 2.0 | 12.086 | 2 | 38.059 | 12.246 | 32.891 | 2 |
| 2025-05-18T18:18:00 | 57.710938 | 3.775838 | 2.0 | 12.058 | 2 | 38.066 | 12.238 | 32.904 | 2 |
| 2025-05-18T18:19:00 | 57.710252 | 3.779021 | 2.0 | 12.049 | 2 | 38.056 | 12.226 | 32.905 | 2 |
| 2025-05-18T18:20:00 | 57.709595 | 3.782231 | 2.0 | 12.005 | 2 | 38.046 | 12.211 | 32.909 | 2 |
| 2025-05-18T18:21:00 | 57.708941 | 3.785472 | 2.0 | 11.953 | 2 | 38.009 | 12.167 | 32.912 | 2 |
| 2025-05-18T18:22:00 | 57.708318 | 3.788710 | 2.0 | 11.881 | 2 | 37.959 | 12.108 | 32.916 | 2 |
| 2025-05-18T18:23:00 | 57.707649 | 3.791954 | 2.0 | 11.832 | 2 | 37.903 | 12.046 | 32.916 | 2 |
| 2025-05-18T18:24:00 | 57.706959 | 3.795185 | 2.0 | 11.828 | 2 | 37.857 | 11.995 | 32.917 | 2 |
| 2025-05-18T18:25:00 | 57.706319 | 3.798420 | 2.0 | 11.886 | 2 | 37.872 | 12.017 | 32.912 | 2 |
| 2025-05-18T18:26:00 | 57.705681 | 3.801662 | 2.0 | 11.834 | 2 | 37.896 | 12.039 | 32.916 | 2 |
| 2025-05-18T18:27:00 | 57.705025 | 3.804915 | 2.0 | 11.751 | 2 | 37.848 | 11.981 | 32.920 | 2 |
| 2025-05-18T18:28:00 | 57.704369 | 3.808153 | 2.0 | 11.811 | 2 | 37.793 | 11.931 | 32.911 | 2 |
| 2025-05-18T18:29:00 | 57.703713 | 3.811402 | 2.0 | 11.795 | 2 | 37.832 | 11.976 | 32.909 | 2 |
| 2025-05-18T18:30:00 | 57.703057 | 3.814646 | 2.0 | 11.743 | 2 | 37.812 | 11.949 | 32.914 | 2 |
| 2025-05-18T18:31:00 | 57.702377 | 3.817861 | 2.0 | 11.752 | 2 | 37.769 | 11.913 | 32.904 | 2 |
| 2025-05-18T18:32:00 | 57.701738 | 3.821076 | 2.0 | 11.720 | 2 | 37.767 | 11.918 | 32.898 | 2 |
| 2025-05-18T18:33:00 | 57.701077 | 3.824267 | 2.0 | 11.699 | 2 | 37.730 | 11.882 | 32.894 | 2 |
| 2025-05-18T18:34:00 | 57.700417 | 3.827441 | 2.0 | 11.716 | 2 | 37.713 | 11.871 | 32.887 | 2 |
| 2025-05-18T18:35:00 | 57.699773 | 3.830621 | 2.0 | 11.803 | 2 | 37.727 | 11.890 | 32.884 | 2 |
| 2025-05-18T18:36:00 | 57.699177 | 3.833825 | 2.0 | 11.920 | 2 | 37.818 | 11.993 | 32.881 | 2 |
| 2025-05-18T18:37:00 | 57.698546 | 3.837024 | 2.0 | 11.896 | 2 | 37.911 | 12.074 | 32.899 | 2 |
| 2025-05-18T18:38:00 | 57.697877 | 3.840232 | 2.0 | 11.904 | 2 | 37.911 | 12.064 | 32.908 | 2 |
| 2025-05-18T18:39:00 | 57.697210 | 3.843421 | 2.0 | 11.910 | 2 | 37.916 | 12.068 | 32.909 | 2 |
| 2025-05-18T18:40:00 | 57.696558 | 3.846645 | 2.0 | 11.900 | 2 | 37.920 | 12.071 | 32.911 | 2 |
| 2025-05-18T18:41:00 | 57.695905 | 3.849844 | 2.0 | 11.902 | 2 | 37.911 | 12.063 | 32.909 | 2 |
| 2025-05-18T18:42:00 | 57.695229 | 3.853020 | 2.0 | 11.900 | 2 | 37.908 | 12.064 | 32.905 | 2 |
| 2025-05-18T18:43:00 | 57.694575 | 3.856233 | 2.0 | 11.880 | 2 | 37.906 | 12.061 | 32.906 | 2 |
| 2025-05-18T18:44:00 | 57.693970 | 3.859456 | 2.0 | 11.891 | 2 | 37.894 | 12.048 | 32.906 | 2 |
| 2025-05-18T18:45:00 | 57.693318 | 3.862661 | 2.0 | 11.857 | 2 | 37.899 | 12.054 | 32.905 | 2 |
| 2025-05-18T18:46:00 | 57.692663 | 3.865827 | 2.0 | 11.848 | 2 | 37.872 | 12.022 | 32.908 | 2 |
| 2025-05-18T18:47:00 | 57.692017 | 3.869021 | 2.0 | 11.840 | 2 | 37.859 | 12.013 | 32.903 | 2 |
| 2025-05-18T18:48:00 | 57.691374 | 3.872224 | 2.0 | 11.750 | 2 | 37.844 | 11.995 | 32.904 | 2 |
| 2025-05-18T18:49:00 | 57.690714 | 3.875437 | 2.0 | 11.827 | 2 | 37.773 | 11.922 | 32.900 | 2 |
| 2025-05-18T18:50:00 | 57.690035 | 3.878662 | 2.0 | 11.845 | 2 | 37.816 | 11.989 | 32.882 | 2 |
| 2025-05-18T18:51:00 | 57.689363 | 3.881879 | 2.0 | 11.820 | 2 | 37.848 | 12.008 | 32.897 | 2 |
| 2025-05-18T18:52:00 | 57.688719 | 3.885106 | 2.0 | 11.774 | 2 | 37.825 | 11.981 | 32.898 | 2 |
| 2025-05-18T18:53:00 | 57.688075 | 3.888319 | 2.0 | 11.747 | 2 | 37.768 | 11.932 | 32.886 | 2 |
| 2025-05-18T18:54:00 | 57.687413 | 3.891510 | 2.0 | 11.754 | 2 | 37.742 | 11.917 | 32.874 | 2 |
| 2025-05-18T18:55:00 | 57.686795 | 3.894704 | 2.0 | 11.732 | 2 | 37.737 | 11.918 | 32.869 | 2 |
| 2025-05-18T18:56:00 | 57.686167 | 3.897915 | 2.0 | 11.707 | 2 | 37.526 | 11.896 | 32.683 | 2 |
| 2025-05-18T18:58:00 | 57.684847 | 3.904273 | 2.0 | 11.857 | 2 | 37.716 | 11.925 | 32.842 | 2 |
| 2025-05-18T18:59:00 | 57.684220 | 3.907484 | 2.0 | 11.861 | 2 | 37.813 | 12.027 | 32.846 | 2 |
| 2025-05-18T19:00:00 | 57.683574 | 3.910692 | 2.0 | 11.807 | 2 | 37.825 | 12.016 | 32.867 | 2 |
| 2025-05-18T19:01:00 | 57.682885 | 3.913837 | 2.0 | 11.821 | 2 | 37.657 | 11.970 | 32.745 | 2 |
| 2025-05-18T19:02:00 | 57.682215 | 3.916995 | 2.0 | 11.884 | 2 | 37.788 | 11.998 | 32.847 | 2 |
| 2025-05-18T19:05:00 | 57.680349 | 3.926617 | 2.0 | 11.973 | 2 | 37.791 | 12.021 | 32.830 | 2 |
| 2025-05-18T19:06:00 | 57.679668 | 3.929836 | 2.0 | 11.989 | 2 | 37.921 | 12.129 | 32.861 | 2 |
| 2025-05-18T19:07:00 | 57.679003 | 3.933053 | 2.0 | 12.005 | 2 | 37.691 | 12.151 | 32.620 | 2 |
| 2025-05-18T19:08:00 | 57.678354 | 3.936308 | 2.0 | 12.061 | 2 | 37.969 | 12.178 | 32.864 | 2 |
| 2025-05-18T19:09:00 | 57.677694 | 3.939578 | 2.0 | 12.081 | 2 | 38.012 | 12.222 | 32.867 | 2 |
| 2025-05-18T19:10:00 | 57.677014 | 3.942855 | 2.0 | 12.071 | 2 | 38.029 | 12.242 | 32.865 | 2 |
| 2025-05-18T19:11:00 | 57.676347 | 3.946097 | 2.0 | 12.134 | 2 | 37.417 | 12.238 | 32.281 | 2 |
| 2025-05-18T19:12:00 | 57.675719 | 3.949305 | 2.0 | 12.169 | 2 | 37.545 | 12.300 | 32.350 | 2 |
| 2025-05-18T19:13:00 | 57.675095 | 3.952455 | 2.0 | 12.214 | 2 | 37.739 | 12.338 | 32.503 | 2 |
| 2025-05-18T19:14:00 | 57.674472 | 3.955558 | 2.0 | 12.280 | 2 | 37.766 | 12.386 | 32.487 | 2 |
| 2025-05-18T19:15:00 | 57.673847 | 3.958694 | 2.0 | 12.273 | 2 | 38.184 | 12.437 | 32.843 | 2 |
| 2025-05-18T19:16:00 | 57.673198 | 3.961804 | 2.0 | 12.260 | 2 | 37.799 | 12.430 | 32.481 | 2 |
| 2025-05-18T19:17:00 | 57.672548 | 3.964917 | 2.0 | 12.233 | 2 | 37.791 | 12.419 | 32.483 | 2 |
| 2025-05-18T19:18:00 | 57.671890 | 3.967994 | 2.0 | 12.196 | 2 | 37.562 | 12.395 | 32.284 | 2 |
| 2025-05-18T19:19:00 | 57.671254 | 3.971092 | 2.0 | 12.150 | 2 | 37.585 | 12.350 | 32.345 | 2 |
| 2025-05-18T19:20:00 | 57.670638 | 3.974198 | 2.0 | 12.132 | 2 | 37.850 | 12.309 | 32.635 | 2 |
| 2025-05-18T19:21:00 | 57.670047 | 3.977237 | 2.0 | 12.138 | 2 | 37.494 | 12.302 | 32.299 | 2 |
| 2025-05-18T19:22:00 | 57.669450 | 3.980332 | 2.0 | 12.149 | 2 | 37.736 | 12.310 | 32.524 | 2 |
| 2025-05-18T19:23:00 | 57.668808 | 3.983457 | 2.0 | 12.093 | 2 | 37.596 | 12.298 | 32.401 | 2 |
| 2025-05-18T19:24:00 | 57.668137 | 3.986561 | 2.0 | 12.084 | 2 | 37.706 | 12.258 | 32.541 | 2 |
| 2025-05-18T19:25:00 | 57.667526 | 3.989710 | 2.0 | 12.069 | 2 | 37.731 | 12.248 | 32.574 | 2 |
| 2025-05-18T19:26:00 | 57.666893 | 3.992854 | 2.0 | 12.066 | 2 | 37.685 | 12.235 | 32.541 | 2 |
| 2025-05-18T19:27:00 | 57.666251 | 3.995952 | 2.0 | 12.035 | 2 | 37.885 | 12.225 | 32.742 | 2 |
| 2025-05-18T19:28:00 | 57.665621 | 3.999069 | 2.0 | 12.003 | 2 | 37.646 | 12.196 | 32.537 | 2 |
| 2025-05-18T19:29:00 | 57.664983 | 4.002206 | 2.0 | 11.964 | 2 | 37.552 | 12.164 | 32.474 | 2 |
| 2025-05-18T19:30:00 | 57.664367 | 4.005329 | 2.0 | 11.937 | 2 | 37.643 | 12.128 | 32.593 | 2 |
| 2025-05-18T19:31:00 | 57.663723 | 4.008431 | 2.0 | 11.914 | 2 | 37.554 | 12.105 | 32.528 | 2 |
| 2025-05-18T19:32:00 | 57.663070 | 4.011518 | 2.0 | 11.924 | 2 | 37.449 | 12.079 | 32.449 | 2 |
| 2025-05-18T19:33:00 | 57.662435 | 4.014650 | 2.0 | 11.921 | 2 | 37.388 | 12.093 | 32.378 | 2 |
| 2025-05-18T19:34:00 | 57.661800 | 4.017762 | 2.0 | 11.913 | 2 | 37.499 | 12.084 | 32.493 | 2 |
| 2025-05-18T19:35:00 | 57.661194 | 4.020844 | 2.0 | 11.941 | 2 | 37.408 | 12.081 | 32.408 | 2 |
| 2025-05-18T19:36:00 | 57.660572 | 4.023964 | 2.0 | 11.977 | 2 | 37.443 | 12.111 | 32.415 | 2 |
| 2025-05-18T19:37:00 | 57.659926 | 4.027137 | 2.0 | 11.988 | 2 | 37.540 | 12.150 | 32.475 | 2 |
| 2025-05-18T19:38:00 | 57.659266 | 4.030326 | 2.0 | 11.953 | 2 | 37.506 | 12.139 | 32.452 | 2 |
| 2025-05-18T19:39:00 | 57.658594 | 4.033550 | 2.0 | 12.014 | 2 | 37.518 | 12.135 | 32.467 | 2 |
| 2025-05-18T19:40:00 | 57.657931 | 4.036812 | 2.0 | 11.962 | 2 | 37.579 | 12.163 | 32.501 | 2 |
| 2025-05-18T19:41:00 | 57.657256 | 4.040047 | 2.0 | 12.022 | 2 | 37.557 | 12.144 | 32.497 | 2 |
| 2025-05-18T19:42:00 | 57.656622 | 4.043281 | 2.0 | 11.824 | 2 | 37.632 | 12.138 | 32.574 | 2 |
| 2025-05-18T19:43:00 | 57.655998 | 4.046478 | 2.0 | 12.168 | 2 | 37.583 | 12.059 | 32.596 | 2 |
| 2025-05-18T19:44:00 | 57.655335 | 4.049635 | 2.0 | 12.174 | 2 | 37.765 | 12.310 | 32.552 | 2 |
| 2025-05-18T19:45:00 | 57.654669 | 4.052801 | 2.0 | 12.120 | 2 | 37.840 | 12.321 | 32.615 | 2 |
| 2025-05-18T19:46:00 | 57.654057 | 4.055996 | 2.0 | 12.116 | 2 | 37.783 | 12.280 | 32.596 | 2 |
| 2025-05-18T19:47:00 | 57.653441 | 4.059195 | 2.0 | 12.139 | 2 | 37.802 | 12.277 | 32.616 | 2 |
| 2025-05-18T19:48:00 | 57.652777 | 4.062351 | 2.0 | 12.167 | 2 | 37.824 | 12.312 | 32.607 | 2 |
| 2025-05-18T19:49:00 | 57.652091 | 4.065444 | 2.0 | 12.174 | 2 | 37.858 | 12.331 | 32.623 | 2 |
| 2025-05-18T19:50:00 | 57.650992 | 4.067986 | 2.0 | 12.177 | 2 | 37.900 | 12.341 | 32.655 | 2 |
| 2025-05-18T19:51:00 | 57.649295 | 4.068735 | 2.0 | 12.112 | 2 | 37.862 | 12.330 | 32.628 | 2 |
| 2025-05-18T19:52:00 | 57.647473 | 4.068275 | 2.0 | 11.980 | 2 | 37.820 | 12.247 | 32.660 | 2 |
| 2025-05-18T19:53:00 | 57.645612 | 4.068477 | 2.0 | 11.982 | 2 | 37.653 | 12.142 | 32.591 | 2 |
| 2025-05-18T19:54:00 | 57.643752 | 4.068924 | 2.0 | 11.971 | 2 | 37.698 | 12.157 | 32.621 | 2 |
| 2025-05-18T19:55:00 | 57.641884 | 4.068924 | 2.0 | 11.915 | 2 | 37.684 | 12.112 | 32.647 | 2 |
| 2025-05-18T19:56:00 | 57.640022 | 4.068613 | 2.0 | 12.082 | 2 | 37.671 | 12.118 | 32.629 | 2 |
| 2025-05-18T19:57:00 | 57.638169 | 4.068380 | 2.0 | 12.132 | 2 | 37.814 | 12.242 | 32.659 | 2 |
| 2025-05-18T19:58:00 | 57.636317 | 4.068294 | 2.0 | 12.182 | 2 | 37.905 | 12.308 | 32.688 | 2 |
| 2025-05-18T19:59:00 | 57.634466 | 4.068215 | 2.0 | 12.175 | 2 | 37.972 | 12.341 | 32.724 | 2 |
| 2025-05-18T20:00:00 | 57.632605 | 4.067999 | 2.0 | 12.081 | 2 | 37.973 | 12.323 | 32.741 | 2 |
| 2025-05-18T20:01:00 | 57.630750 | 4.067775 | 2.0 | 11.917 | 2 | 37.903 | 12.223 | 32.761 | 2 |
| 2025-05-18T20:02:00 | 57.628891 | 4.067624 | 2.0 | 11.897 | 2 | 37.784 | 12.082 | 32.770 | 2 |
| 2025-05-18T20:03:00 | 57.627033 | 4.067480 | 2.0 | 11.857 | 2 | 37.769 | 12.063 | 32.772 | 2 |
| 2025-05-18T20:04:00 | 57.625177 | 4.067401 | 2.0 | 11.879 | 2 | 37.763 | 12.023 | 32.801 | 2 |
| 2025-05-18T20:05:00 | 57.623353 | 4.067255 | 2.0 | 11.952 | 2 | 37.843 | 12.063 | 32.843 | 2 |
| 2025-05-18T20:06:00 | 57.621560 | 4.067005 | 2.0 | 11.987 | 2 | 37.977 | 12.121 | 32.922 | 2 |
| 2025-05-18T20:07:00 | 57.619783 | 4.066795 | 2.0 | 12.030 | 2 | 38.059 | 12.155 | 32.971 | 2 |
| 2025-05-18T20:08:00 | 57.618018 | 4.066608 | 2.0 | 12.043 | 2 | 38.137 | 12.198 | 33.008 | 2 |
| 2025-05-18T20:09:00 | 57.616246 | 4.066459 | 2.0 | 12.083 | 2 | 38.180 | 12.200 | 33.048 | 2 |
| 2025-05-18T20:10:00 | 57.614461 | 4.066242 | 2.0 | 12.131 | 2 | 38.262 | 12.266 | 33.068 | 2 |
| 2025-05-18T20:11:00 | 57.612667 | 4.066052 | 2.0 | 12.200 | 2 | 38.331 | 12.300 | 33.105 | 2 |
| 2025-05-18T20:12:00 | 57.610878 | 4.065857 | 2.0 | 12.172 | 2 | 38.396 | 12.354 | 33.120 | 2 |
| 2025-05-18T20:13:00 | 57.609088 | 4.065671 | 2.0 | 12.150 | 2 | 38.374 | 12.334 | 33.116 | 2 |
| 2025-05-18T20:14:00 | 57.607298 | 4.065565 | 2.0 | 11.802 | 2 | 38.319 | 12.235 | 33.151 | 2 |
| 2025-05-18T20:15:00 | 57.605496 | 4.065406 | 2.0 | 11.685 | 2 | 38.055 | 11.953 | 33.146 | 2 |
| 2025-05-18T20:16:00 | 57.603711 | 4.065169 | 2.0 | 11.680 | 2 | 37.950 | 11.863 | 33.124 | 2 |
| 2025-05-18T20:17:00 | 57.601918 | 4.064993 | 2.0 | 11.688 | 2 | 37.928 | 11.850 | 33.114 | 2 |
| 2025-05-18T20:18:00 | 57.600125 | 4.064825 | 2.0 | 11.722 | 2 | 37.928 | 11.867 | 33.099 | 2 |
| 2025-05-18T20:19:00 | 57.598322 | 4.064655 | 2.0 | 11.663 | 2 | 37.931 | 11.870 | 33.099 | 2 |
| 2025-05-18T20:20:00 | 57.596526 | 4.064535 | 2.0 | 11.640 | 2 | 37.897 | 11.823 | 33.108 | 2 |
| 2025-05-18T20:21:00 | 57.594734 | 4.064390 | 2.0 | 11.679 | 2 | 37.875 | 11.817 | 33.092 | 2 |
| 2025-05-18T20:22:00 | 57.592947 | 4.064190 | 2.0 | 11.688 | 2 | 37.901 | 11.848 | 33.090 | 2 |
| 2025-05-18T20:23:00 | 57.591166 | 4.063974 | 2.0 | 11.695 | 2 | 37.908 | 11.857 | 33.089 | 2 |
| 2025-05-18T20:24:00 | 57.589389 | 4.063814 | 2.0 | 11.692 | 2 | 37.903 | 11.859 | 33.082 | 2 |
| 2025-05-18T20:25:00 | 57.587600 | 4.063667 | 2.0 | 11.745 | 2 | 37.897 | 11.879 | 33.058 | 2 |
| 2025-05-18T20:26:00 | 57.585798 | 4.063466 | 2.0 | 11.827 | 2 | 37.917 | 11.914 | 33.047 | 2 |
| 2025-05-18T20:27:00 | 57.583993 | 4.063309 | 2.0 | 11.953 | 2 | 37.986 | 12.013 | 33.026 | 2 |
| 2025-05-18T20:28:00 | 57.582177 | 4.063112 | 2.0 | 12.004 | 2 | 38.065 | 12.123 | 33.005 | 2 |
| 2025-05-18T20:29:00 | 57.580345 | 4.062964 | 2.0 | 11.849 | 2 | 38.051 | 12.105 | 33.007 | 2 |
| 2025-05-18T20:30:00 | 57.578516 | 4.062877 | 2.0 | 11.803 | 2 | 37.947 | 12.006 | 32.994 | 2 |
| 2025-05-18T20:31:00 | 57.576688 | 4.062665 | 2.0 | 11.872 | 2 | 37.894 | 11.979 | 32.967 | 2 |
| 2025-05-18T20:32:00 | 57.574882 | 4.062397 | 2.0 | 11.947 | 2 | 37.921 | 12.050 | 32.930 | 2 |
| 2025-05-18T20:33:00 | 57.573072 | 4.062173 | 2.0 | 11.896 | 2 | 37.962 | 12.114 | 32.913 | 2 |
| 2025-05-18T20:34:00 | 57.571262 | 4.062010 | 2.0 | 11.847 | 2 | 37.892 | 12.048 | 32.904 | 2 |
| 2025-05-18T20:35:00 | 57.569440 | 4.061860 | 2.0 | 11.888 | 2 | 37.834 | 12.021 | 32.872 | 2 |
| 2025-05-18T20:36:00 | 57.567605 | 4.061701 | 2.0 | 11.890 | 2 | 37.843 | 12.054 | 32.851 | 2 |
| 2025-05-18T20:37:00 | 57.565765 | 4.061486 | 2.0 | 11.948 | 2 | 37.832 | 12.060 | 32.835 | 2 |
| 2025-05-18T20:38:00 | 57.563927 | 4.061281 | 2.0 | 12.034 | 2 | 37.867 | 12.131 | 32.807 | 2 |
| 2025-05-18T20:39:00 | 57.562093 | 4.061122 | 2.0 | 12.044 | 2 | 37.914 | 12.198 | 32.793 | 2 |
| 2025-05-18T20:40:00 | 57.560257 | 4.060982 | 2.0 | 12.072 | 2 | 37.915 | 12.204 | 32.789 | 2 |
| 2025-05-18T20:41:00 | 57.558420 | 4.060837 | 2.0 | 12.136 | 2 | 37.924 | 12.236 | 32.770 | 2 |
| 2025-05-18T20:42:00 | 57.556566 | 4.060641 | 2.0 | 12.164 | 2 | 37.979 | 12.309 | 32.759 | 2 |
| 2025-05-18T20:43:00 | 57.554714 | 4.060438 | 2.0 | 12.144 | 2 | 37.991 | 12.325 | 32.756 | 2 |
| 2025-05-18T20:44:00 | 57.552864 | 4.060245 | 2.0 | 12.103 | 2 | 37.965 | 12.297 | 32.756 | 2 |
| 2025-05-18T20:45:00 | 57.551016 | 4.060100 | 2.0 | 12.127 | 2 | 37.928 | 12.271 | 32.743 | 2 |
| 2025-05-18T20:46:00 | 57.549184 | 4.059950 | 2.0 | 12.137 | 2 | 37.936 | 12.288 | 32.736 | 2 |
| 2025-05-18T20:47:00 | 57.547350 | 4.059767 | 2.0 | 12.126 | 2 | 37.931 | 12.298 | 32.722 | 2 |
| 2025-05-18T20:48:00 | 57.545521 | 4.059545 | 2.0 | 12.063 | 2 | 37.904 | 12.282 | 32.710 | 2 |
| 2025-05-18T20:49:00 | 57.543681 | 4.059343 | 2.0 | 12.004 | 2 | 37.838 | 12.216 | 32.704 | 2 |
| 2025-05-18T20:50:00 | 57.541875 | 4.059210 | 2.0 | 12.077 | 2 | 37.794 | 12.176 | 32.697 | 2 |
| 2025-05-18T20:51:00 | 57.540067 | 4.059048 | 2.0 | 12.167 | 2 | 37.863 | 12.264 | 32.686 | 2 |
| 2025-05-18T20:52:00 | 57.538266 | 4.058819 | 2.0 | 12.131 | 2 | 37.915 | 12.311 | 32.695 | 2 |
| 2025-05-18T20:53:00 | 57.536468 | 4.058700 | 2.0 | 12.115 | 2 | 37.909 | 12.294 | 32.704 | 2 |
| 2025-05-18T20:54:00 | 57.534670 | 4.058554 | 2.0 | 12.110 | 2 | 37.903 | 12.281 | 32.710 | 2 |
| 2025-05-18T20:55:00 | 57.532875 | 4.058369 | 2.0 | 12.117 | 2 | 37.903 | 12.272 | 32.718 | 2 |
| 2025-05-18T20:56:00 | 57.531077 | 4.058161 | 2.0 | 12.111 | 2 | 37.926 | 12.284 | 32.730 | 2 |
| 2025-05-18T20:57:00 | 57.529278 | 4.057948 | 2.0 | 12.120 | 2 | 37.926 | 12.273 | 32.739 | 2 |
| 2025-05-18T20:58:00 | 57.527487 | 4.057803 | 2.0 | 12.100 | 2 | 37.940 | 12.282 | 32.745 | 2 |
| 2025-05-18T20:59:00 | 57.525686 | 4.057661 | 2.0 | 12.071 | 2 | 37.935 | 12.258 | 32.761 | 2 |
| 2025-05-18T21:00:00 | 57.523897 | 4.057508 | 2.0 | 12.109 | 2 | 37.939 | 12.246 | 32.775 | 2 |
| 2025-05-18T21:01:00 | 57.522111 | 4.057369 | 2.0 | 12.087 | 2 | 37.983 | 12.268 | 32.798 | 2 |
| 2025-05-18T21:02:00 | 57.520335 | 4.057174 | 2.0 | 12.079 | 2 | 38.017 | 12.250 | 32.847 | 2 |
| 2025-05-18T21:03:00 | 57.518568 | 4.056937 | 2.0 | 12.116 | 2 | 38.074 | 12.248 | 32.903 | 2 |
| 2025-05-18T21:04:00 | 57.516791 | 4.056766 | 2.0 | 12.149 | 2 | 38.164 | 12.288 | 32.955 | 2 |
| 2025-05-18T21:05:00 | 57.515010 | 4.056581 | 2.0 | 12.132 | 2 | 38.206 | 12.302 | 32.983 | 2 |
| 2025-05-18T21:06:00 | 57.513225 | 4.056428 | 2.0 | 12.215 | 2 | 38.235 | 12.311 | 33.003 | 2 |
| 2025-05-18T21:07:00 | 57.511439 | 4.056228 | 2.0 | 12.266 | 2 | 38.327 | 12.382 | 33.029 | 2 |
| 2025-05-18T21:08:00 | 57.509657 | 4.056013 | 2.0 | 12.274 | 2 | 38.409 | 12.433 | 33.062 | 2 |
| 2025-05-18T21:09:00 | 57.507871 | 4.055842 | 2.0 | 12.193 | 2 | 38.418 | 12.413 | 33.089 | 2 |
| 2025-05-18T21:10:00 | 57.506222 | 4.054717 | 2.0 | 12.073 | 2 | 38.367 | 12.346 | 33.099 | 2 |
| 2025-05-18T21:11:00 | 57.505312 | 4.051961 | 2.0 | 12.033 | 2 | 38.274 | 12.225 | 33.116 | 2 |
| 2025-05-18T21:12:00 | 57.505343 | 4.048744 | 2.0 | 12.026 | 2 | 38.254 | 12.202 | 33.117 | 2 |
| 2025-05-18T21:13:00 | 57.506084 | 4.045861 | 2.0 | 12.006 | 2 | 38.247 | 12.185 | 33.126 | 2 |
| 2025-05-18T21:14:00 | 57.506870 | 4.042861 | 2.0 | 12.045 | 2 | 38.245 | 12.180 | 33.128 | 2 |
| 2025-05-18T21:15:00 | 57.507450 | 4.039593 | 2.0 | 12.038 | 2 | 38.273 | 12.207 | 33.131 | 2 |
| 2025-05-18T21:16:00 | 57.508141 | 4.036372 | 2.0 | 12.099 | 2 | 38.270 | 12.207 | 33.128 | 2 |
| 2025-05-18T21:17:00 | 57.508953 | 4.033274 | 2.0 | 12.166 | 2 | 38.320 | 12.273 | 33.118 | 2 |
| 2025-05-18T21:18:00 | 57.509786 | 4.030236 | 2.0 | 12.258 | 2 | 38.371 | 12.340 | 33.108 | 2 |
| 2025-05-18T21:19:00 | 57.510607 | 4.027205 | 2.0 | 12.300 | 2 | 38.443 | 12.423 | 33.104 | 2 |
| 2025-05-18T21:20:00 | 57.511425 | 4.024191 | 2.0 | 12.298 | 2 | 38.491 | 12.455 | 33.122 | 2 |
| 2025-05-18T21:21:00 | 57.512254 | 4.021250 | 2.0 | 12.330 | 2 | 38.504 | 12.464 | 33.126 | 2 |
| 2025-05-18T21:22:00 | 57.513067 | 4.018330 | 2.0 | 12.251 | 2 | 38.507 | 12.480 | 33.115 | 2 |
| 2025-05-18T21:23:00 | 57.513854 | 4.015397 | 2.0 | 12.207 | 2 | 38.411 | 12.404 | 33.090 | 2 |
| 2025-05-18T21:24:00 | 57.514683 | 4.012433 | 2.0 | 12.185 | 2 | 38.342 | 12.369 | 33.055 | 2 |
| 2025-05-18T21:25:00 | 57.515486 | 4.009439 | 2.0 | 12.154 | 2 | 38.284 | 12.347 | 33.018 | 2 |
| 2025-05-18T21:26:00 | 57.516293 | 4.006511 | 2.0 | 12.103 | 2 | 38.196 | 12.311 | 32.965 | 2 |
| 2025-05-18T21:27:00 | 57.517128 | 4.003575 | 2.0 | 12.098 | 2 | 38.100 | 12.257 | 32.920 | 2 |
| 2025-05-18T21:28:00 | 57.517934 | 4.000565 | 2.0 | 12.161 | 2 | 38.086 | 12.277 | 32.889 | 2 |
| 2025-05-18T21:29:00 | 57.518755 | 3.997565 | 2.0 | 12.232 | 2 | 38.125 | 12.341 | 32.871 | 2 |
| 2025-05-18T21:30:00 | 57.519587 | 3.994567 | 2.0 | 12.240 | 2 | 38.165 | 12.390 | 32.866 | 2 |
| 2025-05-18T21:31:00 | 57.520420 | 3.991563 | 2.0 | 12.266 | 2 | 38.168 | 12.407 | 32.854 | 2 |
| 2025-05-18T21:32:00 | 57.521242 | 3.988526 | 2.0 | 12.212 | 2 | 38.170 | 12.426 | 32.839 | 2 |
| 2025-05-18T21:33:00 | 57.522034 | 3.985480 | 2.0 | 12.076 | 2 | 38.086 | 12.342 | 32.832 | 2 |
| 2025-05-18T21:34:00 | 57.522886 | 3.982503 | 2.0 | 12.008 | 2 | 37.984 | 12.236 | 32.827 | 2 |
| 2025-05-18T21:35:00 | 57.523753 | 3.979523 | 2.0 | 11.972 | 2 | 37.917 | 12.168 | 32.822 | 2 |
| 2025-05-18T21:36:00 | 57.524582 | 3.976524 | 2.0 | 11.975 | 2 | 37.875 | 12.137 | 32.809 | 2 |
| 2025-05-18T21:37:00 | 57.525414 | 3.973605 | 2.0 | 11.976 | 2 | 37.879 | 12.144 | 32.807 | 2 |
| 2025-05-18T21:38:00 | 57.526192 | 3.970730 | 2.0 | 11.887 | 2 | 37.867 | 12.113 | 32.823 | 2 |
| 2025-05-18T21:39:00 | 57.526950 | 3.967878 | 2.0 | 11.955 | 2 | 37.841 | 12.083 | 32.824 | 2 |
| 2025-05-18T21:40:00 | 57.527679 | 3.965048 | 2.0 | 11.978 | 2 | 37.859 | 12.115 | 32.813 | 2 |
| 2025-05-18T21:41:00 | 57.528474 | 3.962198 | 2.0 | 12.013 | 2 | 37.886 | 12.151 | 32.807 | 2 |
| 2025-05-18T21:42:00 | 57.529280 | 3.959327 | 2.0 | 12.009 | 2 | 37.902 | 12.174 | 32.803 | 2 |
| 2025-05-18T21:43:00 | 57.530105 | 3.956459 | 2.0 | 12.031 | 2 | 37.858 | 12.177 | 32.758 | 2 |
| 2025-05-18T21:44:00 | 57.530897 | 3.953507 | 2.0 | 12.005 | 2 | 37.919 | 12.190 | 32.805 | 2 |
| 2025-05-18T21:45:00 | 57.531694 | 3.950540 | 2.0 | 11.994 | 2 | 37.595 | 12.167 | 32.513 | 2 |
| 2025-05-18T21:46:00 | 57.532502 | 3.947601 | 2.0 | 11.996 | 2 | 37.906 | 12.159 | 32.820 | 2 |
| 2025-05-18T21:47:00 | 57.533325 | 3.944733 | 2.0 | 12.058 | 2 | 37.935 | 12.176 | 32.833 | 2 |
| 2025-05-18T21:48:00 | 57.534132 | 3.941819 | 2.0 | 12.074 | 2 | 37.989 | 12.221 | 32.845 | 2 |
| 2025-05-18T21:49:00 | 57.534917 | 3.938854 | 2.0 | 12.117 | 2 | 38.027 | 12.244 | 32.862 | 2 |
| 2025-05-18T21:50:00 | 57.535679 | 3.935942 | 2.0 | 12.109 | 2 | 38.084 | 12.275 | 32.889 | 2 |
| 2025-05-18T21:51:00 | 57.536521 | 3.933030 | 2.0 | 12.132 | 2 | 37.909 | 12.268 | 32.727 | 2 |
| 2025-05-18T21:52:00 | 57.537341 | 3.930071 | 2.0 | 12.208 | 2 | 38.172 | 12.307 | 32.946 | 2 |
| 2025-05-18T21:53:00 | 57.538165 | 3.927074 | 2.0 | 12.261 | 2 | 38.212 | 12.374 | 32.925 | 2 |
| 2025-05-18T21:54:00 | 57.538997 | 3.924001 | 2.0 | 12.304 | 2 | 38.396 | 12.425 | 33.057 | 2 |
| 2025-05-18T21:55:00 | 57.539835 | 3.920880 | 2.0 | 12.221 | 2 | 38.389 | 12.454 | 33.025 | 2 |
| 2025-05-18T21:56:00 | 57.540686 | 3.917800 | 2.0 | 12.035 | 2 | 38.408 | 12.353 | 33.132 | 2 |
| 2025-05-18T21:57:00 | 57.541557 | 3.914795 | 2.0 | 11.955 | 2 | 38.283 | 12.194 | 33.152 | 2 |
| 2025-05-18T21:58:00 | 57.542415 | 3.911772 | 2.0 | 11.940 | 2 | 38.219 | 12.121 | 33.155 | 2 |
| 2025-05-18T21:59:00 | 57.543231 | 3.908675 | 2.0 | 11.841 | 2 | 38.200 | 12.093 | 33.162 | 2 |
| 2025-05-18T22:00:00 | 57.544075 | 3.905639 | 2.0 | 11.796 | 2 | 37.920 | 11.998 | 32.975 | 2 |
| 2025-05-18T22:01:00 | 57.544905 | 3.902651 | 2.0 | 11.850 | 2 | 37.504 | 11.981 | 32.588 | 2 |
| 2025-05-18T22:02:00 | 57.545729 | 3.899706 | 2.0 | 11.869 | 2 | 37.725 | 12.020 | 32.767 | 2 |
| 2025-05-18T22:03:00 | 57.546552 | 3.896737 | 2.0 | 11.698 | 2 | 37.713 | 12.010 | 32.764 | 2 |
| 2025-05-18T22:04:00 | 57.547383 | 3.893788 | 2.0 | 11.801 | 2 | 37.332 | 11.876 | 32.513 | 2 |
| 2025-05-18T22:05:00 | 57.548170 | 3.890814 | 2.0 | 11.802 | 2 | 37.947 | 11.971 | 33.025 | 2 |
| 2025-05-18T22:06:00 | 57.548948 | 3.887806 | 2.0 | 11.771 | 2 | 37.655 | 11.964 | 32.749 | 2 |
| 2025-05-18T22:07:00 | 57.549756 | 3.884797 | 2.0 | 11.796 | 2 | 37.873 | 11.931 | 32.989 | 2 |
| 2025-05-18T22:08:00 | 57.550599 | 3.881790 | 2.0 | 11.884 | 2 | 37.966 | 11.973 | 33.042 | 2 |
| 2025-05-18T22:09:00 | 57.551401 | 3.878832 | 2.0 | 11.982 | 2 | 38.085 | 12.058 | 33.082 | 2 |
| 2025-05-18T22:10:00 | 57.552236 | 3.875870 | 2.0 | 12.008 | 2 | 37.843 | 12.137 | 32.778 | 2 |
| 2025-05-18T22:11:00 | 57.553068 | 3.872898 | 2.0 | 11.968 | 2 | 38.136 | 12.159 | 33.042 | 2 |
| 2025-05-18T22:12:00 | 57.553875 | 3.869916 | 2.0 | 11.867 | 2 | 38.126 | 12.129 | 33.058 | 2 |
| 2025-05-18T22:13:00 | 57.554721 | 3.866924 | 2.0 | 11.731 | 2 | 38.092 | 11.993 | 33.146 | 2 |
| 2025-05-18T22:14:00 | 57.555522 | 3.863928 | 2.0 | 11.821 | 2 | 38.150 | 11.928 | 33.260 | 2 |
| 2025-05-18T22:15:00 | 57.556272 | 3.860976 | 2.0 | 11.829 | 2 | 38.536 | 11.987 | 33.582 | 2 |
| 2025-05-18T22:16:00 | 57.557108 | 3.858065 | 2.0 | 11.806 | 2 | 38.243 | 11.987 | 33.298 | 2 |
| 2025-05-18T22:17:00 | 57.557952 | 3.855199 | 2.0 | 11.832 | 2 | 38.388 | 11.978 | 33.447 | 2 |
| 2025-05-18T22:18:00 | 57.558785 | 3.852272 | 2.0 | 11.841 | 2 | 38.307 | 11.998 | 33.350 | 2 |
| 2025-05-18T22:19:00 | 57.559579 | 3.849283 | 2.0 | 11.853 | 2 | 38.441 | 12.007 | 33.472 | 2 |
| 2025-05-18T22:20:00 | 57.560398 | 3.846347 | 2.0 | 11.853 | 2 | 38.334 | 12.016 | 33.360 | 2 |
| 2025-05-18T22:21:00 | 57.561206 | 3.843466 | 2.0 | 11.880 | 2 | 38.349 | 12.022 | 33.370 | 2 |
| 2025-05-18T22:22:00 | 57.561982 | 3.840586 | 2.0 | 11.879 | 2 | 38.332 | 12.044 | 33.333 | 2 |
| 2025-05-18T22:23:00 | 57.562735 | 3.837764 | 2.0 | 11.847 | 2 | 38.226 | 12.035 | 33.239 | 2 |
| 2025-05-18T22:24:00 | 57.563532 | 3.834902 | 2.0 | 11.859 | 2 | 38.199 | 12.014 | 33.231 | 2 |
| 2025-05-18T22:25:00 | 57.564319 | 3.832003 | 2.0 | 11.882 | 2 | 38.225 | 12.029 | 33.243 | 2 |
| 2025-05-18T22:26:00 | 57.565124 | 3.829060 | 2.0 | 11.895 | 2 | 38.462 | 12.047 | 33.457 | 2 |
| 2025-05-18T22:27:00 | 57.565936 | 3.826105 | 2.0 | 11.918 | 2 | 38.286 | 12.060 | 33.275 | 2 |
| 2025-05-18T22:28:00 | 57.566737 | 3.823188 | 2.0 | 11.902 | 2 | 38.408 | 12.083 | 33.372 | 2 |
| 2025-05-18T22:29:00 | 57.567538 | 3.820239 | 2.0 | 11.820 | 2 | 38.426 | 12.051 | 33.418 | 2 |
| 2025-05-18T22:30:00 | 57.568323 | 3.817245 | 2.0 | 11.840 | 2 | 38.348 | 11.988 | 33.399 | 2 |
| 2025-05-18T22:31:00 | 57.569139 | 3.814276 | 2.0 | 11.885 | 2 | 38.323 | 12.016 | 33.350 | 2 |
| 2025-05-18T22:32:00 | 57.569962 | 3.811303 | 2.0 | 11.905 | 2 | 38.365 | 12.059 | 33.352 | 2 |
| 2025-05-18T22:33:00 | 57.570785 | 3.808301 | 2.0 | 11.905 | 2 | 38.297 | 12.064 | 33.282 | 2 |
| 2025-05-18T22:34:00 | 57.571613 | 3.805335 | 2.0 | 11.959 | 2 | 38.418 | 12.078 | 33.386 | 2 |
| 2025-05-18T22:35:00 | 57.572442 | 3.802436 | 2.0 | 11.937 | 2 | 38.474 | 12.116 | 33.406 | 2 |
| 2025-05-18T22:36:00 | 57.573227 | 3.799553 | 2.0 | 11.928 | 2 | 38.464 | 12.099 | 33.412 | 2 |
| 2025-05-18T22:37:00 | 57.574045 | 3.796634 | 2.0 | 11.948 | 2 | 38.495 | 12.098 | 33.443 | 2 |
| 2025-05-18T22:38:00 | 57.574883 | 3.793694 | 2.0 | 11.941 | 2 | 38.439 | 12.109 | 33.379 | 2 |
| 2025-05-18T22:39:00 | 57.575691 | 3.790715 | 2.0 | 11.946 | 2 | 38.434 | 12.104 | 33.378 | 2 |
| 2025-05-18T22:40:00 | 57.576487 | 3.787713 | 2.0 | 11.979 | 2 | 38.453 | 12.114 | 33.388 | 2 |
| 2025-05-18T22:41:00 | 57.577320 | 3.784742 | 2.0 | 12.022 | 2 | 38.542 | 12.146 | 33.445 | 2 |
| 2025-05-18T22:42:00 | 57.578147 | 3.781743 | 2.0 | 12.074 | 2 | 38.542 | 12.193 | 33.403 | 2 |
| 2025-05-18T22:43:00 | 57.578956 | 3.778769 | 2.0 | 12.108 | 2 | 38.599 | 12.239 | 33.417 | 2 |
| 2025-05-18T22:44:00 | 57.579780 | 3.775778 | 2.0 | 12.118 | 2 | 38.650 | 12.274 | 33.435 | 2 |
| 2025-05-18T22:45:00 | 57.580583 | 3.772787 | 2.0 | 12.080 | 2 | 38.665 | 12.268 | 33.455 | 2 |
| 2025-05-18T22:46:00 | 57.581366 | 3.769826 | 2.0 | 12.056 | 2 | 38.672 | 12.241 | 33.486 | 2 |
| 2025-05-18T22:47:00 | 57.582196 | 3.766880 | 2.0 | 12.045 | 2 | 38.707 | 12.217 | 33.541 | 2 |
| 2025-05-18T22:48:00 | 57.582987 | 3.763960 | 2.0 | 12.036 | 2 | 38.699 | 12.210 | 33.540 | 2 |
| 2025-05-18T22:49:00 | 57.583824 | 3.761063 | 2.0 | 12.027 | 2 | 38.737 | 12.199 | 33.586 | 2 |
| 2025-05-18T22:50:00 | 57.584623 | 3.758137 | 2.0 | 12.023 | 2 | 38.743 | 12.190 | 33.600 | 2 |
| 2025-05-18T22:51:00 | 57.585421 | 3.755221 | 2.0 | 12.016 | 2 | 38.753 | 12.187 | 33.613 | 2 |
| 2025-05-18T22:52:00 | 57.586231 | 3.752310 | 2.0 | 11.962 | 2 | 38.774 | 12.164 | 33.654 | 2 |
| 2025-05-18T22:53:00 | 57.587049 | 3.749357 | 2.0 | 12.004 | 2 | 38.765 | 12.139 | 33.667 | 2 |
| 2025-05-18T22:54:00 | 57.587864 | 3.746479 | 2.0 | 12.074 | 2 | 38.789 | 12.179 | 33.655 | 2 |
| 2025-05-18T22:55:00 | 57.588649 | 3.743549 | 2.0 | 12.131 | 2 | 38.874 | 12.245 | 33.677 | 2 |
| 2025-05-18T22:56:00 | 57.589439 | 3.740590 | 2.0 | 12.141 | 2 | 38.933 | 12.291 | 33.693 | 2 |
| 2025-05-18T22:57:00 | 57.590226 | 3.737679 | 2.0 | 12.178 | 2 | 38.976 | 12.305 | 33.722 | 2 |
| 2025-05-18T22:58:00 | 57.591024 | 3.734760 | 2.0 | 12.197 | 2 | 39.035 | 12.345 | 33.743 | 2 |
| 2025-05-18T22:59:00 | 57.591847 | 3.731771 | 2.0 | 12.189 | 2 | 39.096 | 12.355 | 33.792 | 2 |
| 2025-05-18T23:00:00 | 57.592681 | 3.728815 | 2.0 | 12.161 | 2 | 39.088 | 12.347 | 33.792 | 2 |
| 2025-05-18T23:01:00 | 57.593481 | 3.725823 | 2.0 | 12.129 | 2 | 39.103 | 12.320 | 33.831 | 2 |
| 2025-05-18T23:02:00 | 57.594263 | 3.722824 | 2.0 | 12.068 | 2 | 39.090 | 12.286 | 33.849 | 2 |
| 2025-05-18T23:03:00 | 57.595096 | 3.719868 | 2.0 | 12.024 | 2 | 39.045 | 12.221 | 33.864 | 2 |
| 2025-05-18T23:04:00 | 57.595931 | 3.716933 | 2.0 | 12.025 | 2 | 38.984 | 12.192 | 33.832 | 2 |
| 2025-05-18T23:05:00 | 57.596747 | 3.713965 | 2.0 | 12.000 | 2 | 38.986 | 12.189 | 33.836 | 2 |
| 2025-05-18T23:06:00 | 57.597563 | 3.711047 | 2.0 | 11.960 | 2 | 38.927 | 12.158 | 33.807 | 2 |
| 2025-05-18T23:07:00 | 57.598373 | 3.708111 | 2.0 | 11.942 | 2 | 38.887 | 12.126 | 33.797 | 2 |
| 2025-05-18T23:08:00 | 57.599163 | 3.705138 | 2.0 | 11.883 | 2 | 38.894 | 12.102 | 33.826 | 2 |
| 2025-05-18T23:09:00 | 57.599975 | 3.702165 | 2.0 | 11.886 | 2 | 38.874 | 12.050 | 33.854 | 2 |
| 2025-05-18T23:10:00 | 57.600790 | 3.699232 | 2.0 | 11.888 | 2 | 38.893 | 12.058 | 33.865 | 2 |
| 2025-05-18T23:11:00 | 57.601610 | 3.696316 | 2.0 | 11.848 | 2 | 38.877 | 12.040 | 33.866 | 2 |
| 2025-05-18T23:12:00 | 57.602410 | 3.693379 | 2.0 | 11.877 | 2 | 38.854 | 12.024 | 33.858 | 2 |
| 2025-05-18T23:13:00 | 57.603197 | 3.690412 | 2.0 | 11.848 | 2 | 38.864 | 12.037 | 33.856 | 2 |
| 2025-05-18T23:14:00 | 57.603985 | 3.687528 | 2.0 | 11.847 | 2 | 38.836 | 12.013 | 33.850 | 2 |
| 2025-05-18T23:15:00 | 57.604791 | 3.684660 | 2.0 | 11.839 | 2 | 38.820 | 12.014 | 33.834 | 2 |
| 2025-05-18T23:16:00 | 57.605593 | 3.681816 | 2.0 | 11.819 | 2 | 38.810 | 12.003 | 33.834 | 2 |
| 2025-05-18T23:17:00 | 57.606411 | 3.678893 | 2.0 | 11.745 | 2 | 38.789 | 11.974 | 33.840 | 2 |
| 2025-05-18T23:18:00 | 57.607214 | 3.675949 | 2.0 | 11.702 | 2 | 38.735 | 11.913 | 33.843 | 2 |
| 2025-05-18T23:19:00 | 57.607996 | 3.673013 | 2.0 | 11.679 | 2 | 38.698 | 11.865 | 33.851 | 2 |
| 2025-05-18T23:20:00 | 57.608803 | 3.670056 | 2.0 | 11.681 | 2 | 38.687 | 11.851 | 33.853 | 2 |
| 2025-05-18T23:21:00 | 57.609583 | 3.667077 | 2.0 | 11.696 | 2 | 38.685 | 11.848 | 33.853 | 2 |
| 2025-05-18T23:22:00 | 57.610370 | 3.664114 | 2.0 | 11.727 | 2 | 38.708 | 11.872 | 33.854 | 2 |
| 2025-05-18T23:23:00 | 57.611195 | 3.661195 | 2.0 | 11.760 | 2 | 38.743 | 11.897 | 33.865 | 2 |
| 2025-05-18T23:24:00 | 57.612010 | 3.658215 | 2.0 | 11.799 | 2 | 38.788 | 11.931 | 33.878 | 2 |
| 2025-05-18T23:25:00 | 57.612815 | 3.655141 | 2.0 | 11.807 | 2 | 38.836 | 11.963 | 33.896 | 2 |
| 2025-05-18T23:26:00 | 57.613653 | 3.652149 | 2.0 | 11.818 | 2 | 38.867 | 11.974 | 33.916 | 2 |
| 2025-05-18T23:27:00 | 57.614490 | 3.649181 | 2.0 | 11.812 | 2 | 38.888 | 11.978 | 33.933 | 2 |
| 2025-05-18T23:28:00 | 57.615302 | 3.646182 | 2.0 | 11.843 | 2 | 38.915 | 11.984 | 33.954 | 2 |
| 2025-05-18T23:29:00 | 57.616126 | 3.643259 | 2.0 | 11.854 | 2 | 38.952 | 12.010 | 33.966 | 2 |
| 2025-05-18T23:30:00 | 57.616936 | 3.640351 | 2.0 | 11.875 | 2 | 38.976 | 12.021 | 33.979 | 2 |
| 2025-05-18T23:31:00 | 57.617782 | 3.637401 | 2.0 | 11.882 | 2 | 38.999 | 12.043 | 33.981 | 2 |
| 2025-05-18T23:32:00 | 57.618587 | 3.634479 | 2.0 | 11.887 | 2 | 39.009 | 12.045 | 33.989 | 2 |
| 2025-05-18T23:33:00 | 57.619403 | 3.631558 | 2.0 | 11.889 | 2 | 39.024 | 12.053 | 33.997 | 2 |
| 2025-05-18T23:34:00 | 57.620228 | 3.628591 | 2.0 | 11.868 | 2 | 39.037 | 12.051 | 34.011 | 2 |
| 2025-05-18T23:35:00 | 57.621035 | 3.625597 | 2.0 | 11.798 | 2 | 39.030 | 12.021 | 34.032 | 2 |
| 2025-05-18T23:36:00 | 57.621843 | 3.622578 | 2.0 | 11.792 | 2 | 39.018 | 11.963 | 34.073 | 2 |
| 2025-05-18T23:37:00 | 57.622652 | 3.619560 | 2.0 | 11.827 | 2 | 39.052 | 11.964 | 34.105 | 2 |
| 2025-05-18T23:38:00 | 57.623470 | 3.616539 | 2.0 | 11.846 | 2 | 39.097 | 11.996 | 34.120 | 2 |
| 2025-05-18T23:39:00 | 57.624312 | 3.613541 | 2.0 | 11.868 | 2 | 39.129 | 12.014 | 34.134 | 2 |
| 2025-05-18T23:40:00 | 57.625127 | 3.610553 | 2.0 | 11.868 | 2 | 39.156 | 12.032 | 34.144 | 2 |
| 2025-05-18T23:41:00 | 57.625956 | 3.607548 | 2.0 | 11.865 | 2 | 39.168 | 12.031 | 34.157 | 2 |
| 2025-05-18T23:42:00 | 57.626767 | 3.604580 | 2.0 | 11.874 | 2 | 39.184 | 12.031 | 34.172 | 2 |
| 2025-05-18T23:43:00 | 57.627591 | 3.601590 | 2.0 | 11.873 | 2 | 39.203 | 12.038 | 34.184 | 2 |
| 2025-05-18T23:44:00 | 57.628414 | 3.598525 | 2.0 | 11.854 | 2 | 39.221 | 12.037 | 34.203 | 2 |
| 2025-05-18T23:45:00 | 57.629254 | 3.595433 | 2.0 | 11.862 | 2 | 39.233 | 12.018 | 34.232 | 2 |
| 2025-05-18T23:46:00 | 57.629744 | 3.592208 | 2.0 | 11.907 | 2 | 39.274 | 12.037 | 34.254 | 2 |
| 2025-05-18T23:47:00 | 57.629182 | 3.589161 | 2.0 | 11.918 | 2 | 39.315 | 12.076 | 34.258 | 2 |
| 2025-05-18T23:48:00 | 57.627768 | 3.587412 | 2.0 | 11.927 | 2 | 39.319 | 12.077 | 34.261 | 2 |
| 2025-05-18T23:49:00 | 57.626030 | 3.587354 | 2.0 | 11.974 | 2 | 39.322 | 12.105 | 34.239 | 2 |
| 2025-05-18T23:50:00 | 57.624188 | 3.587437 | 2.0 | 12.015 | 2 | 39.320 | 12.146 | 34.199 | 2 |
| 2025-05-18T23:51:00 | 57.622343 | 3.586680 | 2.0 | 12.009 | 2 | 39.315 | 12.166 | 34.176 | 2 |
| 2025-05-18T23:52:00 | 57.620440 | 3.586249 | 2.0 | 12.123 | 2 | 39.364 | 12.196 | 34.196 | 2 |
| 2025-05-18T23:53:00 | 57.618533 | 3.586157 | 2.0 | 12.135 | 2 | 39.454 | 12.285 | 34.202 | 2 |
| 2025-05-18T23:54:00 | 57.616657 | 3.586148 | 2.0 | 12.057 | 2 | 39.466 | 12.282 | 34.216 | 2 |
| 2025-05-18T23:55:00 | 57.614793 | 3.586155 | 2.0 | 11.904 | 2 | 39.481 | 12.207 | 34.299 | 2 |
| 2025-05-18T23:56:00 | 57.612945 | 3.586128 | 2.0 | 11.791 | 2 | 39.407 | 12.041 | 34.380 | 2 |
| 2025-05-18T23:57:00 | 57.611094 | 3.586070 | 2.0 | 11.797 | 2 | 39.320 | 11.966 | 34.364 | 2 |
| 2025-05-18T23:58:00 | 57.609237 | 3.586020 | 2.0 | 11.782 | 2 | 39.288 | 11.966 | 34.333 | 2 |
| 2025-05-18T23:59:00 | 57.607386 | 3.586098 | 2.0 | 11.766 | 2 | 39.256 | 11.944 | 34.322 | 2 |
| 2025-05-19T00:00:00 | 57.605541 | 3.586131 | 2.0 | 11.772 | 2 | 39.237 | 11.937 | 34.310 | 2 |
| 2025-05-19T00:01:00 | 57.603696 | 3.586062 | 2.0 | 11.746 | 2 | 39.220 | 11.930 | 34.300 | 2 |
| 2025-05-19T00:02:00 | 57.601834 | 3.586003 | 2.0 | 11.735 | 2 | 39.197 | 11.913 | 34.293 | 2 |
| 2025-05-19T00:03:00 | 57.599967 | 3.586007 | 2.0 | 11.746 | 2 | 39.180 | 11.903 | 34.286 | 2 |
| 2025-05-19T00:04:00 | 57.598098 | 3.586075 | 2.0 | 11.773 | 2 | 39.180 | 11.920 | 34.270 | 2 |
| 2025-05-19T00:05:00 | 57.596219 | 3.586122 | 2.0 | 11.746 | 2 | 39.185 | 11.933 | 34.263 | 2 |
| 2025-05-19T00:06:00 | 57.594324 | 3.586053 | 2.0 | 11.761 | 2 | 39.160 | 11.915 | 34.255 | 2 |
| 2025-05-19T00:07:00 | 57.592435 | 3.585908 | 2.0 | 11.949 | 2 | 39.164 | 11.974 | 34.205 | 2 |
| 2025-05-19T00:08:00 | 57.590554 | 3.585949 | 2.0 | 11.975 | 2 | 39.163 | 12.108 | 34.081 | 2 |
| 2025-05-19T00:09:00 | 57.588695 | 3.586086 | 2.0 | 12.017 | 2 | 39.132 | 12.151 | 34.012 | 2 |
| 2025-05-19T00:10:00 | 57.586825 | 3.586128 | 2.0 | 12.006 | 2 | 39.116 | 12.174 | 33.976 | 2 |
| 2025-05-19T00:11:00 | 57.584967 | 3.586088 | 2.0 | 12.046 | 2 | 39.082 | 12.173 | 33.944 | 2 |
| 2025-05-19T00:12:00 | 57.583120 | 3.586012 | 2.0 | 12.038 | 2 | 39.058 | 12.207 | 33.890 | 2 |
| 2025-05-19T00:13:00 | 57.581276 | 3.586083 | 2.0 | 12.024 | 2 | 38.968 | 12.199 | 33.810 | 2 |
| 2025-05-19T00:14:00 | 57.579433 | 3.586177 | 2.0 | 12.021 | 2 | 38.932 | 12.186 | 33.787 | 2 |
| 2025-05-19T00:15:00 | 57.577604 | 3.586095 | 2.0 | 12.033 | 2 | 38.932 | 12.185 | 33.788 | 2 |
| 2025-05-19T00:16:00 | 57.575775 | 3.586057 | 2.0 | 12.043 | 2 | 38.938 | 12.200 | 33.780 | 2 |
| 2025-05-19T00:17:00 | 57.573954 | 3.586071 | 2.0 | 12.043 | 2 | 38.946 | 12.206 | 33.782 | 2 |
| 2025-05-19T00:18:00 | 57.572131 | 3.586088 | 2.0 | 12.037 | 2 | 38.946 | 12.206 | 33.782 | 2 |
| 2025-05-19T00:19:00 | 57.570300 | 3.586058 | 2.0 | 12.011 | 2 | 38.936 | 12.198 | 33.780 | 2 |
| 2025-05-19T00:20:00 | 57.568462 | 3.586026 | 2.0 | 11.993 | 2 | 38.915 | 12.169 | 33.786 | 2 |
| 2025-05-19T00:21:00 | 57.566628 | 3.586005 | 2.0 | 12.007 | 2 | 38.871 | 12.163 | 33.748 | 2 |
| 2025-05-19T00:22:00 | 57.564783 | 3.586038 | 2.0 | 12.014 | 2 | 38.842 | 12.171 | 33.713 | 2 |
| 2025-05-19T00:23:00 | 57.562937 | 3.586049 | 2.0 | 12.022 | 2 | 38.824 | 12.179 | 33.688 | 2 |
| 2025-05-19T00:24:00 | 57.561082 | 3.586079 | 2.0 | 12.022 | 2 | 38.819 | 12.187 | 33.676 | 2 |
| 2025-05-19T00:25:00 | 57.559218 | 3.586085 | 2.0 | 11.992 | 2 | 38.798 | 12.181 | 33.662 | 2 |
| 2025-05-19T00:26:00 | 57.557358 | 3.586046 | 2.0 | 11.983 | 2 | 38.761 | 12.157 | 33.647 | 2 |
| 2025-05-19T00:27:00 | 57.555490 | 3.586042 | 2.0 | 11.976 | 2 | 38.741 | 12.145 | 33.639 | 2 |
| 2025-05-19T00:28:00 | 57.553622 | 3.586078 | 2.0 | 11.943 | 2 | 38.724 | 12.137 | 33.630 | 2 |
| 2025-05-19T00:29:00 | 57.551742 | 3.586129 | 2.0 | 11.903 | 2 | 38.685 | 12.101 | 33.624 | 2 |
| 2025-05-19T00:30:00 | 57.549857 | 3.586138 | 2.0 | 11.876 | 2 | 38.641 | 12.068 | 33.611 | 2 |
| 2025-05-19T00:31:00 | 57.547977 | 3.586076 | 2.0 | 11.839 | 2 | 38.606 | 12.035 | 33.607 | 2 |
| 2025-05-19T00:32:00 | 57.546113 | 3.586063 | 2.0 | 11.830 | 2 | 38.570 | 12.004 | 33.600 | 2 |
| 2025-05-19T00:33:00 | 57.544241 | 3.586064 | 2.0 | 11.838 | 2 | 38.556 | 11.999 | 33.591 | 2 |
| 2025-05-19T00:34:00 | 57.542370 | 3.586102 | 2.0 | 11.840 | 2 | 38.552 | 12.005 | 33.582 | 2 |
| 2025-05-19T00:35:00 | 57.540500 | 3.586141 | 2.0 | 11.816 | 2 | 38.538 | 12.001 | 33.572 | 2 |
| 2025-05-19T00:36:00 | 57.538623 | 3.586114 | 2.0 | 11.779 | 2 | 38.509 | 11.977 | 33.565 | 2 |
| 2025-05-19T00:37:00 | 57.536752 | 3.586110 | 2.0 | 11.757 | 2 | 38.472 | 11.945 | 33.558 | 2 |
| 2025-05-19T00:38:00 | 57.534878 | 3.586108 | 2.0 | 11.747 | 2 | 38.442 | 11.922 | 33.550 | 2 |
| 2025-05-19T00:39:00 | 57.533001 | 3.586099 | 2.0 | 11.739 | 2 | 38.421 | 11.911 | 33.539 | 2 |
| 2025-05-19T00:40:00 | 57.531120 | 3.586131 | 2.0 | 11.722 | 2 | 38.404 | 11.901 | 33.532 | 2 |
| 2025-05-19T00:41:00 | 57.529238 | 3.586118 | 2.0 | 11.718 | 2 | 38.385 | 11.889 | 33.524 | 2 |
| 2025-05-19T00:42:00 | 57.527367 | 3.586025 | 2.0 | 11.778 | 2 | 38.386 | 11.899 | 33.516 | 2 |
| 2025-05-19T00:43:00 | 57.525498 | 3.585968 | 2.0 | 11.821 | 2 | 38.425 | 11.949 | 33.509 | 2 |
| 2025-05-19T00:44:00 | 57.523624 | 3.586038 | 2.0 | 11.803 | 2 | 38.450 | 11.981 | 33.504 | 2 |
| 2025-05-19T00:45:00 | 57.521736 | 3.586112 | 2.0 | 11.780 | 2 | 38.429 | 11.964 | 33.499 | 2 |
| 2025-05-19T00:46:00 | 57.519850 | 3.586088 | 2.0 | 11.784 | 2 | 38.404 | 11.946 | 33.491 | 2 |
| 2025-05-19T00:47:00 | 57.517953 | 3.586041 | 2.0 | 11.807 | 2 | 38.403 | 11.956 | 33.481 | 2 |
| 2025-05-19T00:48:00 | 57.516042 | 3.586037 | 2.0 | 11.804 | 2 | 38.412 | 11.970 | 33.477 | 2 |
| 2025-05-19T00:49:00 | 57.514130 | 3.586139 | 2.0 | 11.802 | 2 | 38.405 | 11.969 | 33.471 | 2 |
| 2025-05-19T00:50:00 | 57.512227 | 3.586137 | 2.0 | 11.807 | 2 | 38.403 | 11.967 | 33.471 | 2 |
| 2025-05-19T00:51:00 | 57.510323 | 3.586084 | 2.0 | 11.818 | 2 | 38.410 | 11.974 | 33.472 | 2 |
| 2025-05-19T00:52:00 | 57.508406 | 3.586086 | 2.0 | 11.789 | 2 | 38.419 | 11.979 | 33.476 | 2 |
| 2025-05-19T00:53:00 | 57.506491 | 3.586127 | 2.0 | 11.758 | 2 | 38.402 | 11.950 | 33.486 | 2 |
| 2025-05-19T00:54:00 | 57.504568 | 3.586126 | 2.0 | 11.750 | 2 | 38.381 | 11.923 | 33.489 | 2 |
| 2025-05-19T00:55:00 | 57.502645 | 3.586124 | 2.0 | 11.741 | 2 | 38.386 | 11.917 | 33.500 | 2 |
| 2025-05-19T00:56:00 | 57.500738 | 3.586118 | 2.0 | 11.731 | 2 | 38.381 | 11.906 | 33.505 | 2 |
| 2025-05-19T00:57:00 | 57.498863 | 3.586085 | 2.0 | 11.706 | 2 | 38.363 | 11.893 | 33.499 | 2 |
| 2025-05-19T00:58:00 | 57.497003 | 3.586040 | 2.0 | 11.697 | 2 | 38.341 | 11.870 | 33.498 | 2 |
| 2025-05-19T00:59:00 | 57.495145 | 3.586034 | 2.0 | 11.698 | 2 | 38.335 | 11.865 | 33.497 | 2 |
| 2025-05-19T01:00:00 | 57.493310 | 3.586047 | 2.0 | 11.675 | 2 | 38.335 | 11.857 | 33.504 | 2 |
| 2025-05-19T01:01:00 | 57.491464 | 3.586067 | 2.0 | 11.683 | 2 | 38.309 | 11.846 | 33.489 | 2 |
| 2025-05-19T01:02:00 | 57.489625 | 3.586078 | 2.0 | 11.654 | 2 | 38.316 | 11.845 | 33.496 | 2 |
| 2025-05-19T01:03:00 | 57.487785 | 3.586069 | 2.0 | 11.650 | 2 | 38.284 | 11.821 | 33.487 | 2 |
| 2025-05-19T01:04:00 | 57.485936 | 3.586052 | 2.0 | 11.670 | 2 | 38.285 | 11.821 | 33.488 | 2 |
| 2025-05-19T01:05:00 | 57.484086 | 3.586070 | 2.0 | 11.669 | 2 | 38.310 | 11.834 | 33.500 | 2 |
| 2025-05-19T01:06:00 | 57.482235 | 3.586066 | 2.0 | 11.693 | 2 | 38.312 | 11.839 | 33.498 | 2 |
| 2025-05-19T01:07:00 | 57.480385 | 3.586089 | 2.0 | 11.720 | 2 | 38.341 | 11.864 | 33.504 | 2 |
| 2025-05-19T01:08:00 | 57.478522 | 3.586133 | 2.0 | 11.729 | 2 | 38.387 | 11.888 | 33.527 | 2 |
| 2025-05-19T01:09:00 | 57.476659 | 3.586118 | 2.0 | 11.731 | 2 | 38.396 | 11.893 | 33.531 | 2 |
| 2025-05-19T01:10:00 | 57.474797 | 3.586035 | 2.0 | 11.730 | 2 | 38.402 | 11.895 | 33.535 | 2 |
| 2025-05-19T01:11:00 | 57.472936 | 3.586012 | 2.0 | 11.740 | 2 | 38.424 | 11.897 | 33.555 | 2 |
| 2025-05-19T01:12:00 | 57.471068 | 3.586032 | 2.0 | 11.737 | 2 | 38.458 | 11.905 | 33.581 | 2 |
| 2025-05-19T01:13:00 | 57.469205 | 3.586092 | 2.0 | 11.724 | 2 | 38.471 | 11.901 | 33.597 | 2 |
| 2025-05-19T01:14:00 | 57.467355 | 3.586118 | 2.0 | 11.700 | 2 | 38.482 | 11.885 | 33.622 | 2 |
| 2025-05-19T01:15:00 | 57.465508 | 3.586050 | 2.0 | 11.691 | 2 | 38.468 | 11.866 | 33.625 | 2 |
| 2025-05-19T01:16:00 | 57.463663 | 3.586039 | 2.0 | 11.687 | 2 | 38.472 | 11.856 | 33.638 | 2 |
| 2025-05-19T01:17:00 | 57.461811 | 3.586062 | 2.0 | 11.677 | 2 | 38.489 | 11.852 | 33.659 | 2 |
| 2025-05-19T01:18:00 | 57.459934 | 3.586056 | 2.0 | 11.677 | 2 | 38.493 | 11.844 | 33.670 | 2 |
| 2025-05-19T01:19:00 | 57.458048 | 3.586057 | 2.0 | 11.679 | 2 | 38.510 | 11.844 | 33.686 | 2 |
| 2025-05-19T01:20:00 | 57.456180 | 3.586071 | 2.0 | 11.681 | 2 | 38.542 | 11.845 | 33.717 | 2 |
| 2025-05-19T01:21:00 | 57.454308 | 3.586058 | 2.0 | 11.682 | 2 | 38.576 | 11.847 | 33.748 | 2 |
| 2025-05-19T01:22:00 | 57.452429 | 3.586046 | 2.0 | 11.686 | 2 | 38.602 | 11.848 | 33.772 | 2 |
| 2025-05-19T01:23:00 | 57.450548 | 3.586041 | 2.0 | 11.692 | 2 | 38.635 | 11.854 | 33.799 | 2 |
| 2025-05-19T01:24:00 | 57.448658 | 3.586023 | 2.0 | 11.691 | 2 | 38.665 | 11.856 | 33.827 | 2 |
| 2025-05-19T01:25:00 | 57.446758 | 3.585975 | 2.0 | 11.685 | 2 | 38.699 | 11.856 | 33.860 | 2 |
| 2025-05-19T01:26:00 | 57.444854 | 3.586056 | 2.0 | 11.683 | 2 | 38.735 | 11.852 | 33.898 | 2 |
| 2025-05-19T01:27:00 | 57.442950 | 3.586103 | 2.0 | 11.673 | 2 | 38.762 | 11.847 | 33.929 | 2 |
| 2025-05-19T01:28:00 | 57.441041 | 3.586063 | 2.0 | 11.661 | 2 | 38.772 | 11.837 | 33.948 | 2 |
| 2025-05-19T01:29:00 | 57.439138 | 3.586048 | 2.0 | 11.651 | 2 | 38.778 | 11.826 | 33.964 | 2 |
| 2025-05-19T01:30:00 | 57.437226 | 3.586063 | 2.0 | 11.637 | 2 | 38.781 | 11.815 | 33.977 | 2 |
| 2025-05-19T01:31:00 | 57.435307 | 3.586075 | 2.0 | 11.632 | 2 | 38.784 | 11.804 | 33.990 | 2 |
| 2025-05-19T01:32:00 | 57.433382 | 3.586050 | 2.0 | 11.627 | 2 | 38.791 | 11.798 | 34.003 | 2 |
| 2025-05-19T01:33:00 | 57.431456 | 3.586083 | 2.0 | 11.622 | 2 | 38.801 | 11.793 | 34.017 | 2 |
| 2025-05-19T01:34:00 | 57.429536 | 3.586050 | 2.0 | 11.613 | 2 | 38.810 | 11.787 | 34.031 | 2 |
| 2025-05-19T01:35:00 | 57.427606 | 3.586023 | 2.0 | 11.608 | 2 | 38.821 | 11.778 | 34.050 | 2 |
| 2025-05-19T01:36:00 | 57.425667 | 3.586064 | 2.0 | 11.613 | 2 | 38.841 | 11.776 | 34.072 | 2 |
| 2025-05-19T01:37:00 | 57.423734 | 3.586102 | 2.0 | 11.622 | 2 | 38.857 | 11.780 | 34.084 | 2 |
| 2025-05-19T01:38:00 | 57.421794 | 3.586068 | 2.0 | 11.628 | 2 | 38.880 | 11.790 | 34.097 | 2 |
| 2025-05-19T01:39:00 | 57.419850 | 3.586021 | 2.0 | 11.642 | 2 | 38.905 | 11.795 | 34.117 | 2 |
| 2025-05-19T01:40:00 | 57.417902 | 3.586057 | 2.0 | 11.671 | 2 | 38.947 | 11.812 | 34.142 | 2 |
| 2025-05-19T01:41:00 | 57.415970 | 3.586073 | 2.0 | 11.675 | 2 | 39.005 | 11.835 | 34.178 | 2 |
| 2025-05-19T01:42:00 | 57.414034 | 3.586079 | 2.0 | 11.670 | 2 | 39.047 | 11.840 | 34.214 | 2 |
| 2025-05-19T01:43:00 | 57.412088 | 3.586120 | 2.0 | 11.643 | 2 | 39.084 | 11.831 | 34.259 | 2 |
| 2025-05-19T01:44:00 | 57.410133 | 3.586093 | 2.0 | 11.612 | 2 | 39.100 | 11.805 | 34.298 | 2 |
| 2025-05-19T01:45:00 | 57.408169 | 3.586076 | 2.0 | 11.579 | 2 | 39.115 | 11.774 | 34.342 | 2 |
| 2025-05-19T01:46:00 | 57.406221 | 3.586127 | 2.0 | 11.547 | 2 | 39.123 | 11.740 | 34.381 | 2 |
| 2025-05-19T01:47:00 | 57.404269 | 3.586087 | 2.0 | 11.521 | 2 | 39.129 | 11.712 | 34.413 | 2 |
| 2025-05-19T01:48:00 | 57.402317 | 3.586047 | 2.0 | 11.469 | 2 | 39.133 | 11.682 | 34.445 | 2 |
| 2025-05-19T01:49:00 | 57.400368 | 3.586059 | 2.0 | 11.450 | 2 | 39.131 | 11.632 | 34.489 | 2 |
| 2025-05-19T01:50:00 | 57.398410 | 3.586085 | 2.0 | 11.421 | 2 | 39.133 | 11.615 | 34.507 | 2 |
| 2025-05-19T01:51:00 | 57.396460 | 3.586038 | 2.0 | 11.411 | 2 | 39.134 | 11.590 | 34.531 | 2 |
| 2025-05-19T01:52:00 | 57.394507 | 3.586017 | 2.0 | 11.407 | 2 | 39.139 | 11.580 | 34.545 | 2 |
| 2025-05-19T01:53:00 | 57.392566 | 3.586026 | 2.0 | 11.401 | 2 | 39.150 | 11.575 | 34.561 | 2 |
| 2025-05-19T01:54:00 | 57.390616 | 3.586013 | 2.0 | 11.373 | 2 | 39.158 | 11.567 | 34.576 | 2 |
| 2025-05-19T01:55:00 | 57.388664 | 3.586013 | 2.0 | 11.341 | 2 | 39.145 | 11.536 | 34.592 | 2 |
| 2025-05-19T01:56:00 | 57.386719 | 3.585997 | 2.0 | 11.322 | 2 | 39.132 | 11.506 | 34.608 | 2 |
| 2025-05-19T01:57:00 | 57.384775 | 3.585991 | 2.0 | 11.328 | 2 | 39.129 | 11.492 | 34.618 | 2 |
| 2025-05-19T01:58:00 | 57.382835 | 3.586036 | 2.0 | 11.321 | 2 | 39.143 | 11.495 | 34.629 | 2 |
| 2025-05-19T01:59:00 | 57.380894 | 3.586034 | 2.0 | 11.304 | 2 | 39.147 | 11.487 | 34.640 | 2 |
| 2025-05-19T02:00:00 | 57.378963 | 3.586075 | 2.0 | 11.292 | 2 | 39.146 | 11.472 | 34.653 | 2 |
| 2025-05-19T02:01:00 | 57.377033 | 3.586067 | 2.0 | 11.287 | 2 | 39.142 | 11.460 | 34.661 | 2 |
| 2025-05-19T02:02:00 | 57.375121 | 3.586021 | 2.0 | 11.324 | 2 | 39.149 | 11.463 | 34.665 | 2 |
| 2025-05-19T02:03:00 | 57.373219 | 3.585992 | 2.0 | 11.349 | 2 | 39.193 | 11.496 | 34.677 | 2 |
| 2025-05-19T02:04:00 | 57.371323 | 3.586016 | 2.0 | 11.360 | 2 | 39.238 | 11.517 | 34.702 | 2 |
| 2025-05-19T02:05:00 | 57.369417 | 3.586075 | 2.0 | 11.336 | 2 | 39.279 | 11.522 | 34.738 | 2 |
| 2025-05-19T02:06:00 | 57.367495 | 3.586107 | 2.0 | 11.349 | 2 | 39.303 | 11.504 | 34.778 | 2 |
| 2025-05-19T02:07:00 | 57.365586 | 3.586106 | 2.0 | 11.378 | 2 | 39.370 | 11.522 | 34.828 | 2 |
| 2025-05-19T02:08:00 | 57.363678 | 3.586082 | 2.0 | 11.378 | 2 | 39.415 | 11.546 | 34.849 | 2 |
| 2025-05-19T02:09:00 | 57.361776 | 3.586031 | 2.0 | 11.354 | 2 | 39.415 | 11.541 | 34.854 | 2 |
| 2025-05-19T02:10:00 | 57.359884 | 3.585952 | 2.0 | 11.331 | 2 | 39.384 | 11.522 | 34.841 | 2 |
| 2025-05-19T02:11:00 | 57.357986 | 3.585964 | 2.0 | 11.337 | 2 | 39.347 | 11.497 | 34.828 | 2 |
| 2025-05-19T02:12:00 | 57.356098 | 3.586018 | 2.0 | 11.366 | 2 | 39.346 | 11.510 | 34.815 | 2 |
| 2025-05-19T02:13:00 | 57.354209 | 3.586008 | 2.0 | 11.396 | 2 | 39.355 | 11.537 | 34.799 | 2 |
| 2025-05-19T02:14:00 | 57.352322 | 3.585961 | 2.0 | 11.410 | 2 | 39.360 | 11.565 | 34.777 | 2 |
| 2025-05-19T02:15:00 | 57.350440 | 3.586007 | 2.0 | 11.419 | 2 | 39.359 | 11.576 | 34.766 | 2 |
| 2025-05-19T02:16:00 | 57.348552 | 3.586091 | 2.0 | 11.430 | 2 | 39.366 | 11.587 | 34.762 | 2 |
| 2025-05-19T02:17:00 | 57.346670 | 3.586072 | 2.0 | 11.432 | 2 | 39.377 | 11.597 | 34.764 | 2 |
| 2025-05-19T02:18:00 | 57.344794 | 3.586013 | 2.0 | 11.407 | 2 | 39.380 | 11.594 | 34.770 | 2 |
| 2025-05-19T02:19:00 | 57.342920 | 3.586068 | 2.0 | 11.385 | 2 | 39.359 | 11.571 | 34.771 | 2 |
| 2025-05-19T02:20:00 | 57.341044 | 3.586119 | 2.0 | 11.376 | 2 | 39.338 | 11.551 | 34.769 | 2 |
| 2025-05-19T02:21:00 | 57.339156 | 3.586086 | 2.0 | 11.373 | 2 | 39.333 | 11.544 | 34.770 | 2 |
| 2025-05-19T02:22:00 | 57.337271 | 3.586053 | 2.0 | 11.359 | 2 | 39.330 | 11.538 | 34.773 | 2 |
| 2025-05-19T02:23:00 | 57.335389 | 3.586090 | 2.0 | 11.340 | 2 | 39.324 | 11.523 | 34.781 | 2 |
| 2025-05-19T02:24:00 | 57.333508 | 3.586105 | 2.0 | 11.333 | 2 | 39.324 | 11.507 | 34.796 | 2 |
| 2025-05-19T02:25:00 | 57.331620 | 3.586105 | 2.0 | 11.321 | 2 | 39.327 | 11.500 | 34.806 | 2 |
| 2025-05-19T02:26:00 | 57.329734 | 3.586044 | 2.0 | 11.291 | 2 | 39.326 | 11.483 | 34.821 | 2 |
| 2025-05-19T02:27:00 | 57.327846 | 3.585986 | 2.0 | 11.262 | 2 | 39.316 | 11.457 | 34.835 | 2 |
| 2025-05-19T02:28:00 | 57.325970 | 3.586014 | 2.0 | 11.238 | 2 | 39.296 | 11.426 | 34.845 | 2 |
| 2025-05-19T02:29:00 | 57.324086 | 3.586053 | 2.0 | 11.222 | 2 | 39.284 | 11.404 | 34.854 | 2 |
| 2025-05-19T02:30:00 | 57.322209 | 3.586017 | 2.0 | 11.206 | 2 | 39.278 | 11.388 | 34.863 | 2 |
| 2025-05-19T02:31:00 | 57.320317 | 3.586024 | 2.0 | 11.192 | 2 | 39.274 | 11.373 | 34.873 | 2 |
| 2025-05-19T02:32:00 | 57.318427 | 3.586017 | 2.0 | 11.186 | 2 | 39.269 | 11.361 | 34.880 | 2 |
| 2025-05-19T02:33:00 | 57.316518 | 3.586070 | 2.0 | 11.187 | 2 | 39.267 | 11.355 | 34.883 | 2 |
| 2025-05-19T02:34:00 | 57.314628 | 3.586023 | 2.0 | 11.189 | 2 | 39.269 | 11.356 | 34.884 | 2 |
| 2025-05-19T02:35:00 | 57.312738 | 3.586004 | 2.0 | 11.187 | 2 | 39.274 | 11.356 | 34.889 | 2 |
| 2025-05-19T02:36:00 | 57.310843 | 3.586017 | 2.0 | 11.183 | 2 | 39.273 | 11.354 | 34.890 | 2 |
| 2025-05-19T02:37:00 | 57.308948 | 3.586000 | 2.0 | 11.182 | 2 | 39.277 | 11.351 | 34.897 | 2 |
| 2025-05-19T02:38:00 | 57.307047 | 3.586027 | 2.0 | 11.186 | 2 | 39.284 | 11.351 | 34.904 | 2 |
| 2025-05-19T02:39:00 | 57.305152 | 3.586064 | 2.0 | 11.191 | 2 | 39.293 | 11.354 | 34.910 | 2 |
| 2025-05-19T02:40:00 | 57.303243 | 3.586067 | 2.0 | 11.203 | 2 | 39.307 | 11.360 | 34.918 | 2 |
| 2025-05-19T02:41:00 | 57.301348 | 3.586091 | 2.0 | 11.212 | 2 | 39.323 | 11.372 | 34.923 | 2 |
| 2025-05-19T02:42:00 | 57.299459 | 3.586111 | 2.0 | 11.215 | 2 | 39.334 | 11.379 | 34.927 | 2 |
| 2025-05-19T02:43:00 | 57.297554 | 3.586074 | 2.0 | 11.227 | 2 | 39.342 | 11.384 | 34.930 | 2 |
| 2025-05-19T02:44:00 | 57.295647 | 3.586056 | 2.0 | 11.241 | 2 | 39.352 | 11.396 | 34.929 | 2 |
| 2025-05-19T02:45:00 | 57.293741 | 3.586069 | 2.0 | 11.243 | 2 | 39.362 | 11.407 | 34.928 | 2 |
| 2025-05-19T02:46:00 | 57.291842 | 3.586064 | 2.0 | 11.238 | 2 | 39.374 | 11.408 | 34.939 | 2 |
| 2025-05-19T02:47:00 | 57.289925 | 3.586055 | 2.0 | 11.237 | 2 | 39.382 | 11.406 | 34.949 | 2 |
| 2025-05-19T02:48:00 | 57.288021 | 3.586040 | 2.0 | 11.227 | 2 | 39.390 | 11.402 | 34.961 | 2 |
| 2025-05-19T02:49:00 | 57.286120 | 3.586014 | 2.0 | 11.203 | 2 | 39.389 | 11.390 | 34.971 | 2 |
| 2025-05-19T02:50:00 | 57.284233 | 3.585998 | 2.0 | 11.173 | 2 | 39.376 | 11.367 | 34.980 | 2 |
| 2025-05-19T02:51:00 | 57.282348 | 3.586026 | 2.0 | 11.133 | 2 | 39.356 | 11.336 | 34.990 | 2 |
| 2025-05-19T02:52:00 | 57.280461 | 3.585993 | 2.0 | 11.098 | 2 | 39.325 | 11.298 | 34.995 | 2 |
| 2025-05-19T02:53:00 | 57.278573 | 3.585944 | 2.0 | 11.058 | 2 | 39.301 | 11.260 | 35.007 | 2 |
| 2025-05-19T02:54:00 | 57.276695 | 3.585981 | 2.0 | 11.013 | 2 | 39.277 | 11.220 | 35.021 | 2 |
| 2025-05-19T02:55:00 | 57.274813 | 3.586042 | 2.0 | 10.970 | 2 | 39.257 | 11.178 | 35.041 | 2 |
| 2025-05-19T02:56:00 | 57.272923 | 3.586066 | 2.0 | 10.929 | 2 | 39.233 | 11.135 | 35.059 | 2 |
| 2025-05-19T02:57:00 | 57.271033 | 3.586122 | 2.0 | 10.894 | 2 | 39.211 | 11.095 | 35.075 | 2 |
| 2025-05-19T02:58:00 | 57.269146 | 3.586125 | 2.0 | 10.860 | 2 | 39.196 | 11.062 | 35.091 | 2 |
| 2025-05-19T02:59:00 | 57.267246 | 3.586082 | 2.0 | 10.804 | 2 | 39.181 | 11.025 | 35.112 | 2 |
| 2025-05-19T03:00:00 | 57.265332 | 3.586048 | 2.0 | 10.738 | 2 | 39.146 | 10.966 | 35.133 | 2 |
| 2025-05-19T03:01:00 | 57.263398 | 3.586052 | 2.0 | 10.669 | 2 | 39.098 | 10.902 | 35.147 | 2 |
| 2025-05-19T03:02:00 | 57.261455 | 3.586066 | 2.0 | 10.615 | 2 | 39.045 | 10.837 | 35.156 | 2 |
| 2025-05-19T03:03:00 | 57.259512 | 3.586076 | 2.0 | 10.579 | 2 | 39.002 | 10.786 | 35.162 | 2 |
| 2025-05-19T03:04:00 | 57.257573 | 3.586029 | 2.0 | 10.566 | 2 | 38.971 | 10.750 | 35.165 | 2 |
| 2025-05-19T03:05:00 | 57.255645 | 3.586031 | 2.0 | 10.590 | 2 | 38.965 | 10.742 | 35.167 | 2 |
| 2025-05-19T03:06:00 | 57.253717 | 3.586050 | 2.0 | 10.644 | 2 | 38.992 | 10.769 | 35.168 | 2 |
| 2025-05-19T03:07:00 | 57.251779 | 3.586025 | 2.0 | 10.664 | 2 | 39.043 | 10.821 | 35.169 | 2 |
| 2025-05-19T03:08:00 | 57.249849 | 3.585994 | 2.0 | 10.655 | 2 | 39.059 | 10.832 | 35.175 | 2 |
| 2025-05-19T03:09:00 | 57.247936 | 3.585994 | 2.0 | 10.637 | 2 | 39.050 | 10.823 | 35.174 | 2 |
| 2025-05-19T03:10:00 | 57.246018 | 3.586024 | 2.0 | 10.618 | 2 | 39.032 | 10.802 | 35.176 | 2 |
| 2025-05-19T03:11:00 | 57.244105 | 3.586024 | 2.0 | 10.605 | 2 | 39.018 | 10.789 | 35.175 | 2 |
| 2025-05-19T03:12:00 | 57.242178 | 3.586013 | 2.0 | 10.584 | 2 | 39.004 | 10.771 | 35.178 | 2 |
| 2025-05-19T03:13:00 | 57.240258 | 3.586008 | 2.0 | 10.563 | 2 | 38.984 | 10.752 | 35.176 | 2 |
| 2025-05-19T03:14:00 | 57.238346 | 3.586048 | 2.0 | 10.569 | 2 | 38.967 | 10.736 | 35.175 | 2 |
| 2025-05-19T03:15:00 | 57.236421 | 3.586080 | 2.0 | 10.587 | 2 | 38.971 | 10.743 | 35.172 | 2 |
| 2025-05-19T03:16:00 | 57.234501 | 3.585996 | 2.0 | 10.609 | 2 | 38.985 | 10.758 | 35.172 | 2 |
| 2025-05-19T03:17:00 | 57.232593 | 3.585931 | 2.0 | 10.632 | 2 | 39.007 | 10.785 | 35.168 | 2 |
| 2025-05-19T03:18:00 | 57.230690 | 3.585998 | 2.0 | 10.623 | 2 | 39.026 | 10.801 | 35.171 | 2 |
| 2025-05-19T03:19:00 | 57.228792 | 3.586058 | 2.0 | 10.620 | 2 | 39.016 | 10.790 | 35.172 | 2 |
| 2025-05-19T03:20:00 | 57.226895 | 3.586065 | 2.0 | 10.605 | 2 | 39.013 | 10.788 | 35.171 | 2 |
| 2025-05-19T03:21:00 | 57.224978 | 3.586010 | 2.0 | 10.590 | 2 | 38.999 | 10.772 | 35.172 | 2 |
| 2025-05-19T03:22:00 | 57.223065 | 3.585985 | 2.0 | 10.588 | 2 | 38.987 | 10.761 | 35.171 | 2 |
| 2025-05-19T03:23:00 | 57.221162 | 3.586046 | 2.0 | 10.576 | 2 | 38.596 | 10.756 | 34.782 | 2 |
| 2025-05-19T03:24:00 | 57.219251 | 3.586060 | 2.0 | 10.573 | 2 | 38.971 | 10.747 | 35.168 | 2 |
| 2025-05-19T03:25:00 | 57.217335 | 3.586019 | 2.0 | 10.564 | 2 | 38.964 | 10.741 | 35.167 | 2 |
| 2025-05-19T03:26:00 | 57.215418 | 3.586016 | 2.0 | 10.561 | 2 | 38.326 | 10.734 | 34.532 | 2 |
| 2025-05-19T03:27:00 | 57.213498 | 3.586044 | 2.0 | 10.558 | 2 | 38.755 | 10.731 | 34.966 | 2 |
| 2025-05-19T03:28:00 | 57.211589 | 3.586019 | 2.0 | 10.575 | 2 | 38.314 | 10.730 | 34.523 | 2 |
| 2025-05-19T03:29:00 | 57.209676 | 3.586025 | 2.0 | 10.596 | 2 | 38.366 | 10.747 | 34.560 | 2 |
| 2025-05-19T03:30:00 | 57.207772 | 3.586048 | 2.0 | 10.610 | 2 | 38.932 | 10.767 | 35.110 | 2 |
| 2025-05-19T03:31:00 | 57.205864 | 3.586037 | 2.0 | 10.617 | 2 | 38.877 | 10.781 | 35.041 | 2 |
| 2025-05-19T03:33:00 | 57.202078 | 3.586009 | 2.0 | 10.611 | 2 | 38.578 | 10.780 | 34.741 | 2 |
| 2025-05-19T03:34:00 | 57.200192 | 3.586067 | 2.0 | 10.635 | 2 | 38.693 | 10.784 | 34.853 | 2 |
| 2025-05-19T03:35:00 | 57.198295 | 3.586054 | 2.0 | 10.618 | 2 | 38.622 | 10.800 | 34.766 | 2 |
| 2025-05-19T03:36:00 | 57.196411 | 3.585995 | 2.0 | 10.598 | 2 | 38.466 | 10.785 | 34.624 | 2 |
| 2025-05-19T03:37:00 | 57.194523 | 3.586050 | 2.0 | 10.553 | 2 | 38.571 | 10.753 | 34.760 | 2 |
| 2025-05-19T03:38:00 | 57.192641 | 3.586133 | 2.0 | 10.557 | 2 | 38.631 | 10.726 | 34.846 | 2 |
| 2025-05-19T03:39:00 | 57.190763 | 3.586124 | 2.0 | 10.543 | 2 | 38.280 | 10.725 | 34.494 | 2 |
| 2025-05-19T03:40:00 | 57.188875 | 3.586046 | 2.0 | 10.518 | 2 | 38.508 | 10.709 | 34.738 | 2 |
| 2025-05-19T03:41:00 | 57.186976 | 3.586027 | 2.0 | 10.504 | 2 | 38.292 | 10.688 | 34.541 | 2 |
| 2025-05-19T03:42:00 | 57.185068 | 3.586066 | 2.0 | 10.494 | 2 | 38.311 | 10.673 | 34.574 | 2 |
| 2025-05-19T03:43:00 | 57.183161 | 3.586069 | 2.0 | 10.495 | 2 | 38.559 | 10.665 | 34.832 | 2 |
| 2025-05-19T03:44:00 | 57.181258 | 3.586043 | 2.0 | 10.505 | 2 | 38.613 | 10.667 | 34.884 | 2 |
| 2025-05-19T03:45:00 | 57.179368 | 3.586081 | 2.0 | 10.521 | 2 | 38.713 | 10.679 | 34.973 | 2 |
| 2025-05-19T03:46:00 | 57.177478 | 3.586122 | 2.0 | 10.540 | 2 | 38.903 | 10.691 | 35.153 | 2 |
| 2025-05-19T03:47:00 | 57.175595 | 3.586072 | 2.0 | 10.556 | 2 | 38.621 | 10.712 | 34.849 | 2 |
| 2025-05-19T03:48:00 | 57.173703 | 3.586069 | 2.0 | 10.567 | 2 | 38.662 | 10.727 | 34.876 | 2 |
| 2025-05-19T03:49:00 | 57.171807 | 3.586074 | 2.0 | 10.569 | 2 | 38.513 | 10.734 | 34.720 | 2 |
| 2025-05-19T03:50:00 | 57.169918 | 3.586048 | 2.0 | 10.581 | 2 | 38.548 | 10.741 | 34.748 | 2 |
| 2025-05-19T03:51:00 | 57.168033 | 3.586064 | 2.0 | 10.583 | 2 | 38.527 | 10.750 | 34.719 | 2 |
| 2025-05-19T03:52:00 | 57.166162 | 3.586075 | 2.0 | 10.584 | 2 | 38.725 | 10.751 | 34.917 | 2 |
| 2025-05-19T03:53:00 | 57.164296 | 3.586086 | 2.0 | 10.590 | 2 | 38.713 | 10.754 | 34.902 | 2 |
| 2025-05-19T03:54:00 | 57.162431 | 3.586107 | 2.0 | 10.586 | 2 | 38.705 | 10.758 | 34.890 | 2 |
| 2025-05-19T03:55:00 | 57.160570 | 3.586044 | 2.0 | 10.571 | 2 | 38.768 | 10.753 | 34.958 | 2 |
| 2025-05-19T03:56:00 | 57.158709 | 3.585987 | 2.0 | 10.588 | 2 | 38.723 | 10.742 | 34.923 | 2 |
| 2025-05-19T03:57:00 | 57.156845 | 3.586032 | 2.0 | 10.580 | 2 | 38.718 | 10.754 | 34.907 | 2 |
| 2025-05-19T03:58:00 | 57.154970 | 3.586039 | 2.0 | 10.588 | 2 | 38.724 | 10.748 | 34.918 | 2 |
| 2025-05-19T03:59:00 | 57.153101 | 3.586055 | 2.0 | 10.605 | 2 | 38.841 | 10.763 | 35.022 | 2 |
| 2025-05-19T04:00:00 | 57.151215 | 3.586071 | 2.0 | 10.616 | 2 | 38.736 | 10.775 | 34.905 | 2 |
| 2025-05-19T04:01:00 | 57.149339 | 3.586052 | 2.0 | 10.621 | 2 | 38.670 | 10.783 | 34.831 | 2 |
| 2025-05-19T04:02:00 | 57.147456 | 3.586011 | 2.0 | 10.631 | 2 | 38.691 | 10.790 | 34.845 | 2 |
| 2025-05-19T04:03:00 | 57.145589 | 3.586065 | 2.0 | 10.641 | 2 | 38.713 | 10.800 | 34.858 | 2 |
| 2025-05-19T04:04:00 | 57.143723 | 3.586080 | 2.0 | 10.642 | 2 | 38.874 | 10.809 | 35.011 | 2 |
| 2025-05-19T04:05:00 | 57.141853 | 3.586012 | 2.0 | 10.646 | 2 | 38.852 | 10.811 | 34.987 | 2 |
| 2025-05-19T04:06:00 | 57.139980 | 3.585992 | 2.0 | 10.646 | 2 | 38.757 | 10.814 | 34.889 | 2 |
| 2025-05-19T04:07:00 | 57.138098 | 3.586009 | 2.0 | 10.647 | 2 | 38.772 | 10.814 | 34.904 | 2 |
| 2025-05-19T04:08:00 | 57.136215 | 3.586051 | 2.0 | 10.650 | 2 | 38.792 | 10.817 | 34.921 | 2 |
| 2025-05-19T04:09:00 | 57.134335 | 3.586091 | 2.0 | 10.642 | 2 | 38.805 | 10.817 | 34.934 | 2 |
| 2025-05-19T04:10:00 | 57.132452 | 3.586058 | 2.0 | 10.632 | 2 | 38.835 | 10.809 | 34.972 | 2 |
| 2025-05-19T04:11:00 | 57.130562 | 3.586024 | 2.0 | 10.629 | 2 | 38.811 | 10.802 | 34.954 | 2 |
| 2025-05-19T04:12:00 | 57.128687 | 3.586012 | 2.0 | 10.618 | 2 | 38.787 | 10.796 | 34.936 | 2 |
| 2025-05-19T04:13:00 | 57.126811 | 3.586049 | 2.0 | 10.623 | 2 | 38.793 | 10.788 | 34.950 | 2 |
| 2025-05-19T04:14:00 | 57.124932 | 3.586067 | 2.0 | 10.618 | 2 | 38.821 | 10.791 | 34.975 | 2 |
| 2025-05-19T04:15:00 | 57.123052 | 3.586031 | 2.0 | 10.612 | 2 | 38.858 | 10.787 | 35.016 | 2 |
| 2025-05-19T04:16:00 | 57.121196 | 3.586015 | 2.0 | 10.599 | 2 | 38.802 | 10.777 | 34.969 | 2 |
| 2025-05-19T04:17:00 | 57.119341 | 3.586023 | 2.0 | 10.598 | 2 | 38.813 | 10.768 | 34.989 | 2 |
| 2025-05-19T04:18:00 | 57.117485 | 3.586057 | 2.0 | 10.595 | 2 | 38.814 | 10.764 | 34.994 | 2 |
| 2025-05-19T04:19:00 | 57.115612 | 3.586078 | 2.0 | 10.598 | 2 | 38.854 | 10.765 | 35.033 | 2 |
| 2025-05-19T04:20:00 | 57.113748 | 3.586092 | 2.0 | 10.604 | 2 | 38.837 | 10.769 | 35.012 | 2 |
| 2025-05-19T04:21:00 | 57.111875 | 3.586058 | 2.0 | 10.608 | 2 | 38.841 | 10.772 | 35.013 | 2 |
| 2025-05-19T04:22:00 | 57.110013 | 3.586008 | 2.0 | 10.600 | 2 | 38.888 | 10.775 | 35.058 | 2 |
| 2025-05-19T04:23:00 | 57.108147 | 3.586002 | 2.0 | 10.599 | 2 | 38.892 | 10.769 | 35.067 | 2 |
| 2025-05-19T04:24:00 | 57.106283 | 3.586064 | 2.0 | 10.596 | 2 | 38.862 | 10.767 | 35.039 | 2 |
| 2025-05-19T04:25:00 | 57.104417 | 3.586064 | 2.0 | 10.596 | 2 | 38.868 | 10.763 | 35.049 | 2 |
| 2025-05-19T04:26:00 | 57.102544 | 3.585995 | 2.0 | 10.586 | 2 | 38.881 | 10.766 | 35.059 | 2 |
| 2025-05-19T04:27:00 | 57.100679 | 3.585997 | 2.0 | 10.577 | 2 | 38.866 | 10.754 | 35.056 | 2 |
| 2025-05-19T04:28:00 | 57.098811 | 3.586051 | 2.0 | 10.565 | 2 | 38.879 | 10.745 | 35.077 | 2 |
| 2025-05-19T04:29:00 | 57.096931 | 3.586122 | 2.0 | 10.552 | 2 | 38.855 | 10.731 | 35.067 | 2 |
| 2025-05-19T04:30:00 | 57.095051 | 3.586083 | 2.0 | 10.541 | 2 | 38.860 | 10.719 | 35.083 | 2 |
| 2025-05-19T04:31:00 | 57.093168 | 3.586012 | 2.0 | 10.538 | 2 | 38.850 | 10.711 | 35.081 | 2 |
| 2025-05-19T04:32:00 | 57.091276 | 3.585981 | 2.0 | 10.539 | 2 | 38.852 | 10.707 | 35.087 | 2 |
| 2025-05-19T04:33:00 | 57.089373 | 3.586037 | 2.0 | 10.552 | 2 | 38.855 | 10.710 | 35.087 | 2 |
| 2025-05-19T04:34:00 | 57.087480 | 3.586051 | 2.0 | 10.568 | 2 | 38.887 | 10.722 | 35.107 | 2 |
| 2025-05-19T04:35:00 | 57.085586 | 3.586043 | 2.0 | 10.588 | 2 | 38.900 | 10.739 | 35.104 | 2 |
| 2025-05-19T04:36:00 | 57.083689 | 3.586045 | 2.0 | 10.600 | 2 | 38.922 | 10.758 | 35.108 | 2 |
| 2025-05-19T04:37:00 | 57.081791 | 3.586011 | 2.0 | 10.614 | 2 | 38.951 | 10.770 | 35.126 | 2 |
| 2025-05-19T04:38:00 | 57.079889 | 3.586004 | 2.0 | 10.623 | 2 | 38.956 | 10.783 | 35.118 | 2 |
| 2025-05-19T04:39:00 | 57.077996 | 3.586049 | 2.0 | 10.638 | 2 | 38.973 | 10.793 | 35.126 | 2 |
| 2025-05-19T04:40:00 | 57.076106 | 3.586106 | 2.0 | 10.654 | 2 | 38.988 | 10.808 | 35.126 | 2 |
| 2025-05-19T04:41:00 | 57.074227 | 3.586077 | 2.0 | 10.662 | 2 | 39.005 | 10.821 | 35.131 | 2 |
| 2025-05-19T04:42:00 | 57.072361 | 3.586055 | 2.0 | 10.670 | 2 | 39.018 | 10.830 | 35.135 | 2 |
| 2025-05-19T04:43:00 | 57.070484 | 3.586023 | 2.0 | 10.665 | 2 | 39.020 | 10.836 | 35.132 | 2 |
| 2025-05-19T04:44:00 | 57.068601 | 3.585985 | 2.0 | 10.658 | 2 | 39.015 | 10.830 | 35.132 | 2 |
| 2025-05-19T04:45:00 | 57.066722 | 3.586024 | 2.0 | 10.650 | 2 | 39.009 | 10.824 | 35.132 | 2 |
| 2025-05-19T04:46:00 | 57.064865 | 3.586098 | 2.0 | 10.650 | 2 | 39.001 | 10.819 | 35.129 | 2 |
| 2025-05-19T04:47:00 | 57.062996 | 3.586128 | 2.0 | 10.643 | 2 | 38.998 | 10.816 | 35.129 | 2 |
| 2025-05-19T04:48:00 | 57.061123 | 3.586050 | 2.0 | 10.638 | 2 | 38.994 | 10.812 | 35.129 | 2 |
| 2025-05-19T04:49:00 | 57.059246 | 3.585989 | 2.0 | 10.622 | 2 | 38.984 | 10.803 | 35.127 | 2 |
| 2025-05-19T04:50:00 | 57.057379 | 3.586001 | 2.0 | 10.615 | 2 | 38.971 | 10.790 | 35.127 | 2 |
| 2025-05-19T04:51:00 | 57.055502 | 3.586034 | 2.0 | 10.612 | 2 | 38.963 | 10.783 | 35.125 | 2 |
| 2025-05-19T04:52:00 | 57.053636 | 3.586064 | 2.0 | 10.606 | 2 | 38.956 | 10.779 | 35.122 | 2 |
| 2025-05-19T04:53:00 | 57.051767 | 3.586120 | 2.0 | 10.605 | 2 | 38.949 | 10.774 | 35.120 | 2 |
| 2025-05-19T04:54:00 | 57.049888 | 3.586166 | 2.0 | 10.606 | 2 | 38.948 | 10.773 | 35.120 | 2 |
| 2025-05-19T04:55:00 | 57.048011 | 3.586187 | 2.0 | 10.605 | 2 | 38.949 | 10.774 | 35.120 | 2 |
| 2025-05-19T04:56:00 | 57.046221 | 3.586446 | 2.0 | 10.600 | 2 | 38.944 | 10.772 | 35.117 | 2 |
| 2025-05-19T04:57:00 | 57.045761 | 3.588087 | 2.0 | 10.600 | 2 | 38.941 | 10.767 | 35.119 | 2 |
| 2025-05-19T04:58:00 | 57.046337 | 3.589123 | 2.0 | 10.602 | 2 | 38.941 | 10.766 | 35.120 | 2 |
| 2025-05-19T04:59:00 | 57.047512 | 3.589963 | 2.0 | 10.601 | 2 | 38.943 | 10.768 | 35.120 | 2 |
| 2025-05-19T05:00:00 | 57.049070 | 3.591061 | 2.0 | 10.602 | 2 | 38.936 | 10.768 | 35.113 | 2 |
| 2025-05-19T05:01:00 | 57.050829 | 3.592374 | 2.0 | 10.605 | 2 | 38.940 | 10.770 | 35.115 | 2 |
| 2025-05-19T05:02:00 | 57.052622 | 3.593660 | 2.0 | 10.606 | 2 | 38.945 | 10.776 | 35.114 | 2 |
| 2025-05-19T05:03:00 | 57.054224 | 3.594812 | 2.0 | 10.604 | 2 | 38.943 | 10.774 | 35.114 | 2 |
| 2025-05-19T05:04:00 | 57.056192 | 3.596234 | 2.0 | 10.609 | 2 | 38.943 | 10.775 | 35.113 | 2 |
| 2025-05-19T05:05:00 | 57.058319 | 3.597823 | 2.0 | 10.609 | 2 | 38.951 | 10.778 | 35.118 | 2 |
| 2025-05-19T05:06:00 | 57.060534 | 3.599464 | 2.0 | 10.611 | 2 | 38.956 | 10.779 | 35.122 | 2 |
| 2025-05-19T05:07:00 | 57.062784 | 3.601112 | 2.0 | 10.634 | 2 | 38.960 | 10.781 | 35.124 | 2 |
| 2025-05-19T05:08:00 | 57.064960 | 3.602798 | 2.0 | 10.672 | 2 | 38.984 | 10.809 | 35.121 | 2 |
| 2025-05-19T05:09:00 | 57.067240 | 3.604428 | 2.0 | 10.686 | 2 | 39.019 | 10.843 | 35.124 | 2 |
| 2025-05-19T05:10:00 | 57.069543 | 3.606043 | 2.0 | 10.671 | 2 | 39.023 | 10.850 | 35.121 | 2 |
| 2025-05-19T05:11:00 | 57.071744 | 3.607712 | 2.0 | 10.674 | 2 | 39.017 | 10.840 | 35.125 | 2 |
| 2025-05-19T05:12:00 | 57.073838 | 3.609448 | 2.0 | 10.678 | 2 | 39.020 | 10.845 | 35.123 | 2 |
| 2025-05-19T05:13:00 | 57.075913 | 3.611388 | 2.0 | 10.679 | 2 | 39.029 | 10.846 | 35.131 | 2 |
| 2025-05-19T05:14:00 | 57.078108 | 3.613149 | 2.0 | 10.653 | 2 | 39.030 | 10.843 | 35.135 | 2 |
| 2025-05-19T05:15:00 | 57.080342 | 3.614812 | 2.0 | 10.618 | 2 | 39.008 | 10.817 | 35.138 | 2 |
| 2025-05-19T05:16:00 | 57.082552 | 3.616420 | 2.0 | 10.600 | 2 | 38.978 | 10.784 | 35.139 | 2 |
| 2025-05-19T05:17:00 | 57.084810 | 3.618028 | 2.0 | 10.600 | 2 | 38.962 | 10.770 | 35.137 | 2 |
| 2025-05-19T05:18:00 | 57.087058 | 3.619672 | 2.0 | 10.616 | 2 | 38.964 | 10.772 | 35.137 | 2 |
| 2025-05-19T05:19:00 | 57.089318 | 3.621322 | 2.0 | 10.630 | 2 | 38.981 | 10.787 | 35.140 | 2 |
| 2025-05-19T05:20:00 | 57.091566 | 3.622841 | 2.0 | 10.646 | 2 | 38.998 | 10.802 | 35.142 | 2 |
| 2025-05-19T05:21:00 | 57.093800 | 3.624489 | 2.0 | 10.661 | 2 | 39.014 | 10.816 | 35.145 | 2 |
| 2025-05-19T05:22:00 | 57.096040 | 3.626285 | 2.0 | 10.675 | 2 | 39.030 | 10.832 | 35.146 | 2 |
| 2025-05-19T05:23:00 | 57.098311 | 3.628034 | 2.0 | 10.680 | 2 | 39.043 | 10.844 | 35.147 | 2 |
| 2025-05-19T05:24:00 | 57.100689 | 3.629226 | 2.0 | 10.670 | 2 | 39.044 | 10.848 | 35.144 | 2 |
| 2025-05-19T05:25:00 | 57.103030 | 3.630391 | 2.0 | 10.654 | 2 | 39.035 | 10.837 | 35.146 | 2 |
| 2025-05-19T05:26:00 | 57.105299 | 3.631524 | 2.0 | 10.637 | 2 | 39.022 | 10.822 | 35.147 | 2 |
| 2025-05-19T05:27:00 | 57.107580 | 3.632640 | 2.0 | 10.625 | 2 | 39.008 | 10.804 | 35.150 | 2 |
| 2025-05-19T05:28:00 | 57.109952 | 3.633802 | 2.0 | 10.627 | 2 | 39.000 | 10.795 | 35.151 | 2 |
| 2025-05-19T05:29:00 | 57.112309 | 3.634972 | 2.0 | 10.635 | 2 | 39.003 | 10.798 | 35.151 | 2 |
| 2025-05-19T05:30:00 | 57.114652 | 3.636115 | 2.0 | 10.644 | 2 | 39.011 | 10.805 | 35.152 | 2 |
| 2025-05-19T05:31:00 | 57.117031 | 3.637272 | 2.0 | 10.644 | 2 | 39.020 | 10.813 | 35.154 | 2 |
| 2025-05-19T05:32:00 | 57.119410 | 3.638436 | 2.0 | 10.639 | 2 | 39.021 | 10.813 | 35.155 | 2 |
| 2025-05-19T05:33:00 | 57.121786 | 3.639617 | 2.0 | 10.624 | 2 | 39.015 | 10.805 | 35.156 | 2 |
| 2025-05-19T05:34:00 | 57.124125 | 3.640792 | 2.0 | 10.602 | 2 | 39.002 | 10.790 | 35.158 | 2 |
| 2025-05-19T05:35:00 | 57.126401 | 3.642047 | 2.0 | 10.576 | 2 | 38.977 | 10.768 | 35.154 | 2 |
| 2025-05-19T05:36:00 | 57.128670 | 3.643542 | 2.0 | 10.566 | 2 | 38.955 | 10.745 | 35.154 | 2 |
| 2025-05-19T05:37:00 | 57.130935 | 3.645080 | 2.0 | 10.582 | 2 | 38.949 | 10.740 | 35.153 | 2 |
| 2025-05-19T05:38:00 | 57.133114 | 3.646528 | 2.0 | 10.606 | 2 | 38.960 | 10.755 | 35.149 | 2 |
| 2025-05-19T05:39:00 | 57.135379 | 3.648019 | 2.0 | 10.625 | 2 | 38.984 | 10.778 | 35.151 | 2 |
| 2025-05-19T05:40:00 | 57.137585 | 3.649488 | 2.0 | 10.621 | 2 | 39.001 | 10.792 | 35.155 | 2 |
| 2025-05-19T05:41:00 | 57.139839 | 3.650983 | 2.0 | 10.628 | 2 | 39.002 | 10.791 | 35.157 | 2 |
| 2025-05-19T05:42:00 | 57.142059 | 3.652417 | 2.0 | 10.635 | 2 | 39.008 | 10.796 | 35.158 | 2 |
| 2025-05-19T05:43:00 | 57.144263 | 3.653854 | 2.0 | 10.651 | 2 | 39.010 | 10.805 | 35.151 | 2 |
| 2025-05-19T05:44:00 | 57.146473 | 3.655290 | 2.0 | 10.666 | 2 | 39.027 | 10.823 | 35.151 | 2 |
| 2025-05-19T05:45:00 | 57.148698 | 3.656730 | 2.0 | 10.679 | 2 | 39.042 | 10.835 | 35.155 | 2 |
| 2025-05-19T05:46:00 | 57.150977 | 3.658205 | 2.0 | 10.676 | 2 | 39.055 | 10.847 | 35.156 | 2 |
| 2025-05-19T05:47:00 | 57.153222 | 3.659690 | 2.0 | 10.667 | 2 | 39.055 | 10.842 | 35.161 | 2 |
| 2025-05-19T05:48:00 | 57.155484 | 3.661190 | 2.0 | 10.652 | 2 | 39.049 | 10.834 | 35.163 | 2 |
| 2025-05-19T05:49:00 | 57.157745 | 3.662675 | 2.0 | 10.641 | 2 | 39.036 | 10.819 | 35.164 | 2 |
| 2025-05-19T05:50:00 | 57.160003 | 3.663952 | 2.0 | 10.648 | 2 | 39.029 | 10.811 | 35.165 | 2 |
| 2025-05-19T05:51:00 | 57.162202 | 3.664950 | 2.0 | 10.659 | 2 | 39.034 | 10.819 | 35.162 | 2 |
| 2025-05-19T05:52:00 | 57.163764 | 3.665646 | 2.0 | 10.667 | 2 | 39.044 | 10.829 | 35.163 | 2 |
| 2025-05-19T05:53:00 | 57.164555 | 3.666429 | 2.0 | 10.673 | 2 | 39.051 | 10.835 | 35.164 | 2 |
| 2025-05-19T05:54:00 | 57.165040 | 3.666420 | 2.0 | 10.678 | 2 | 39.056 | 10.842 | 35.162 | 2 |
| 2025-05-19T05:55:00 | 57.165381 | 3.666455 | 2.0 | 10.678 | 2 | 39.069 | 10.854 | 35.164 | 2 |
| 2025-05-19T05:56:00 | 57.165628 | 3.666468 | 2.0 | 10.689 | 2 | 39.076 | 10.860 | 35.165 | 2 |
| 2025-05-19T05:57:00 | 57.165770 | 3.666471 | 2.0 | 10.686 | 2 | 39.087 | 10.872 | 35.164 | 2 |
| 2025-05-19T05:58:00 | 57.165826 | 3.666327 | 2.0 | 10.685 | 2 | 39.088 | 10.872 | 35.165 | 2 |
| 2025-05-19T05:59:00 | 57.165845 | 3.666176 | 2.0 | 10.687 | 2 | 38.859 | 10.872 | 34.936 | 2 |
| 2025-05-19T06:00:00 | 57.165908 | 3.666153 | 2.0 | 10.690 | 2 | 38.708 | 10.876 | 34.780 | 2 |
| 2025-05-19T06:01:00 | 57.165976 | 3.666222 | 2.0 | 10.693 | 2 | 39.094 | 10.880 | 35.164 | 2 |
| 2025-05-19T06:02:00 | 57.166053 | 3.666298 | 2.0 | 10.697 | 2 | 39.100 | 10.885 | 35.165 | 2 |
| 2025-05-19T06:03:00 | 57.166136 | 3.666340 | 2.0 | 10.694 | 2 | 39.103 | 10.888 | 35.165 | 2 |
| 2025-05-19T06:04:00 | 57.166188 | 3.666388 | 2.0 | 10.693 | 2 | 39.065 | 10.885 | 35.130 | 2 |
| 2025-05-19T06:06:00 | 57.166117 | 3.666434 | 2.0 | 10.699 | 2 | 39.090 | 10.888 | 35.152 | 2 |
| 2025-05-19T06:07:00 | 57.166061 | 3.666422 | 2.0 | 10.706 | 2 | 39.106 | 10.892 | 35.164 | 2 |
| 2025-05-19T06:08:00 | 57.165992 | 3.666420 | 2.0 | 10.708 | 2 | 38.828 | 10.899 | 34.879 | 2 |
| 2025-05-19T06:10:00 | 57.165924 | 3.666439 | 2.0 | 10.704 | 2 | 38.633 | 10.899 | 34.683 | 2 |
| 2025-05-19T06:12:00 | 57.166034 | 3.666509 | 2.0 | 10.707 | 2 | 38.853 | 10.898 | 34.905 | 2 |
| 2025-05-19T06:13:00 | 57.166065 | 3.666526 | 2.0 | 10.709 | 2 | 38.564 | 10.901 | 34.612 | 2 |
| 2025-05-19T06:14:00 | 57.166059 | 3.666510 | 2.0 | 10.710 | 2 | 39.117 | 10.904 | 35.164 | 2 |
| 2025-05-19T06:15:00 | 57.166012 | 3.666489 | 2.0 | 10.707 | 2 | 38.714 | 10.904 | 34.760 | 2 |
| 2025-05-19T06:16:00 | 57.165955 | 3.666510 | 2.0 | 10.710 | 2 | 38.704 | 10.901 | 34.753 | 2 |
| 2025-05-19T06:17:00 | 57.165880 | 3.666533 | 2.0 | 10.717 | 2 | 38.614 | 10.905 | 34.659 | 2 |
| 2025-05-19T06:18:00 | 57.165847 | 3.666541 | 2.0 | 10.723 | 2 | 38.671 | 10.912 | 34.709 | 2 |
| 2025-05-19T06:19:00 | 57.165811 | 3.666551 | 2.0 | 10.714 | 2 | 38.728 | 10.916 | 34.762 | 2 |
| 2025-05-19T06:20:00 | 57.165818 | 3.666596 | 2.0 | 10.716 | 2 | 39.123 | 10.908 | 35.166 | 2 |
| 2025-05-19T06:21:00 | 57.165828 | 3.666616 | 2.0 | 10.719 | 2 | 38.576 | 10.910 | 34.616 | 2 |
| 2025-05-19T06:22:00 | 57.165838 | 3.666580 | 2.0 | 10.720 | 2 | 38.791 | 10.915 | 34.826 | 2 |
| 2025-05-19T06:23:00 | 57.165828 | 3.666506 | 2.0 | 10.721 | 2 | 38.778 | 10.915 | 34.813 | 2 |
| 2025-05-19T06:24:00 | 57.165794 | 3.666493 | 2.0 | 10.724 | 2 | 38.622 | 10.916 | 34.656 | 2 |
| 2025-05-19T06:25:00 | 57.165817 | 3.666528 | 2.0 | 10.719 | 2 | 38.856 | 10.917 | 34.890 | 2 |
| 2025-05-19T06:26:00 | 57.165842 | 3.666553 | 2.0 | 10.722 | 2 | 38.661 | 10.916 | 34.695 | 2 |
| 2025-05-19T06:27:00 | 57.165857 | 3.666561 | 2.0 | 10.721 | 2 | 38.848 | 10.919 | 34.880 | 2 |
| 2025-05-19T06:28:00 | 57.165859 | 3.666516 | 2.0 | 10.716 | 2 | 38.701 | 10.916 | 34.735 | 2 |
| 2025-05-19T06:29:00 | 57.165884 | 3.666477 | 2.0 | 10.714 | 2 | 38.689 | 10.912 | 34.727 | 2 |
| 2025-05-19T06:30:00 | 57.165911 | 3.666461 | 2.0 | 10.717 | 2 | 38.910 | 10.912 | 34.949 | 2 |
| 2025-05-19T06:31:00 | 57.165844 | 3.666432 | 2.0 | 10.721 | 2 | 38.723 | 10.913 | 34.760 | 2 |
| 2025-05-19T06:32:00 | 57.165834 | 3.666451 | 2.0 | 10.725 | 2 | 38.822 | 10.917 | 34.856 | 2 |
| 2025-05-19T06:33:00 | 57.165823 | 3.666470 | 2.0 | 10.728 | 2 | 38.784 | 10.921 | 34.814 | 2 |
| 2025-05-19T06:34:00 | 57.165799 | 3.666440 | 2.0 | 10.725 | 2 | 39.012 | 10.923 | 35.040 | 2 |
| 2025-05-19T06:35:00 | 57.165801 | 3.666382 | 2.0 | 10.726 | 2 | 39.132 | 10.921 | 35.162 | 2 |
| 2025-05-19T06:36:00 | 57.165835 | 3.666361 | 2.0 | 10.727 | 2 | 38.882 | 10.923 | 34.910 | 2 |
| 2025-05-19T06:37:00 | 57.165831 | 3.666325 | 2.0 | 10.725 | 2 | 38.911 | 10.922 | 34.940 | 2 |
| 2025-05-19T06:38:00 | 57.165861 | 3.666275 | 2.0 | 10.729 | 2 | 38.896 | 10.922 | 34.925 | 2 |
| 2025-05-19T06:39:00 | 57.165867 | 3.666271 | 2.0 | 10.732 | 2 | 39.020 | 10.927 | 35.044 | 2 |
| 2025-05-19T06:40:00 | 57.165827 | 3.666296 | 2.0 | 10.732 | 2 | 39.034 | 10.930 | 35.056 | 2 |
| 2025-05-19T06:41:00 | 57.165839 | 3.666319 | 2.0 | 10.730 | 2 | 38.867 | 10.929 | 34.889 | 2 |
| 2025-05-19T06:42:00 | 57.165900 | 3.666320 | 2.0 | 10.725 | 2 | 38.877 | 10.926 | 34.902 | 2 |
| 2025-05-19T06:43:00 | 57.165928 | 3.666274 | 2.0 | 10.723 | 2 | 38.867 | 10.921 | 34.897 | 2 |
| 2025-05-19T06:44:00 | 57.165943 | 3.666221 | 2.0 | 10.727 | 2 | 38.899 | 10.920 | 34.930 | 2 |
| 2025-05-19T06:45:00 | 57.165918 | 3.666220 | 2.0 | 10.731 | 2 | 38.896 | 10.925 | 34.922 | 2 |
| 2025-05-19T06:46:00 | 57.165909 | 3.666307 | 2.0 | 10.738 | 2 | 38.925 | 10.928 | 34.948 | 2 |
| 2025-05-19T06:47:00 | 57.165908 | 3.666341 | 2.0 | 10.740 | 2 | 38.911 | 10.933 | 34.929 | 2 |
| 2025-05-19T06:48:00 | 57.165907 | 3.666349 | 2.0 | 10.742 | 2 | 38.946 | 10.936 | 34.962 | 2 |
| 2025-05-19T06:49:00 | 57.165920 | 3.666388 | 2.0 | 10.746 | 2 | 38.986 | 10.939 | 34.999 | 2 |
| 2025-05-19T06:50:00 | 57.165927 | 3.666418 | 2.0 | 10.747 | 2 | 38.947 | 10.941 | 34.958 | 2 |
| 2025-05-19T06:51:00 | 57.165920 | 3.666481 | 2.0 | 10.739 | 2 | 38.983 | 10.939 | 34.996 | 2 |
| 2025-05-19T06:52:00 | 57.165918 | 3.666540 | 2.0 | 10.750 | 2 | 38.985 | 10.938 | 34.999 | 2 |
| 2025-05-19T06:53:00 | 57.165887 | 3.666619 | 2.0 | 10.746 | 2 | 39.030 | 10.946 | 35.036 | 2 |
| 2025-05-19T06:54:00 | 57.165940 | 3.666727 | 2.0 | 10.738 | 2 | 39.005 | 10.941 | 35.016 | 2 |
| 2025-05-19T06:55:00 | 57.166086 | 3.666901 | 2.0 | 10.740 | 2 | 39.005 | 10.936 | 35.021 | 2 |
| 2025-05-19T06:56:00 | 57.166409 | 3.666615 | 2.0 | 10.738 | 2 | 39.026 | 10.939 | 35.039 | 2 |
| 2025-05-19T06:57:00 | 57.166875 | 3.665386 | 2.0 | 10.739 | 2 | 39.015 | 10.937 | 35.030 | 2 |
| 2025-05-19T06:58:00 | 57.167498 | 3.663229 | 2.0 | 10.737 | 2 | 39.039 | 10.939 | 35.052 | 2 |
| 2025-05-19T06:59:00 | 57.167819 | 3.660449 | 2.0 | 10.732 | 2 | 39.042 | 10.936 | 35.058 | 2 |
| 2025-05-19T07:00:00 | 57.167716 | 3.656979 | 2.0 | 10.733 | 2 | 39.034 | 10.926 | 35.059 | 2 |
| 2025-05-19T07:01:00 | 57.167496 | 3.652238 | 2.0 | 10.714 | 2 | 39.035 | 10.919 | 35.067 | 2 |
| 2025-05-19T07:02:00 | 57.167263 | 3.646882 | 2.0 | 10.703 | 2 | 39.025 | 10.901 | 35.074 | 2 |
| 2025-05-19T07:03:00 | 57.167026 | 3.641320 | 2.0 | 10.696 | 2 | 39.010 | 10.888 | 35.072 | 2 |
| 2025-05-19T07:04:00 | 57.166795 | 3.635730 | 2.0 | 10.688 | 2 | 39.011 | 10.881 | 35.079 | 2 |
| 2025-05-19T07:05:00 | 57.166563 | 3.630150 | 2.0 | 10.670 | 2 | 39.007 | 10.871 | 35.085 | 2 |
| 2025-05-19T07:06:00 | 57.166331 | 3.624580 | 2.0 | 10.627 | 2 | 39.019 | 10.848 | 35.119 | 2 |
| 2025-05-19T07:07:00 | 57.166092 | 3.619016 | 2.0 | 10.627 | 2 | 38.957 | 10.815 | 35.089 | 2 |
| 2025-05-19T07:08:00 | 57.165846 | 3.613455 | 2.0 | 10.638 | 2 | 38.959 | 10.813 | 35.092 | 2 |
| 2025-05-19T07:09:00 | 57.165618 | 3.607918 | 2.0 | 10.643 | 2 | 38.986 | 10.824 | 35.109 | 2 |
| 2025-05-19T07:10:00 | 57.165398 | 3.602320 | 2.0 | 10.642 | 2 | 39.009 | 10.825 | 35.131 | 2 |
| 2025-05-19T07:11:00 | 57.165171 | 3.596752 | 2.0 | 10.627 | 2 | 38.999 | 10.823 | 35.123 | 2 |
| 2025-05-19T07:12:00 | 57.164955 | 3.591259 | 2.0 | 10.632 | 2 | 38.987 | 10.809 | 35.124 | 2 |
| 2025-05-19T07:13:00 | 57.164740 | 3.585824 | 2.0 | 10.649 | 2 | 39.002 | 10.818 | 35.131 | 2 |
| 2025-05-19T07:14:00 | 57.164520 | 3.580402 | 2.0 | 10.646 | 2 | 39.003 | 10.829 | 35.121 | 2 |
| 2025-05-19T07:15:00 | 57.164300 | 3.574987 | 2.0 | 10.638 | 2 | 39.022 | 10.824 | 35.145 | 2 |
| 2025-05-19T07:16:00 | 57.164087 | 3.569561 | 2.0 | 10.615 | 2 | 39.010 | 10.814 | 35.143 | 2 |
| 2025-05-19T07:17:00 | 57.163871 | 3.564138 | 2.0 | 10.596 | 2 | 38.997 | 10.793 | 35.150 | 2 |
| 2025-05-19T07:18:00 | 57.163652 | 3.558713 | 2.0 | 10.585 | 2 | 38.974 | 10.776 | 35.143 | 2 |
| 2025-05-19T07:19:00 | 57.163500 | 3.553306 | 2.0 | 10.571 | 2 | 38.966 | 10.762 | 35.149 | 2 |
| 2025-05-19T07:20:00 | 57.163426 | 3.547917 | 2.0 | 10.583 | 2 | 38.958 | 10.754 | 35.148 | 2 |
| 2025-05-19T07:21:00 | 57.163364 | 3.542509 | 2.0 | 10.598 | 2 | 38.971 | 10.765 | 35.151 | 2 |
| 2025-05-19T07:22:00 | 57.163311 | 3.537090 | 2.0 | 10.599 | 2 | 38.983 | 10.777 | 35.151 | 2 |
| 2025-05-19T07:23:00 | 57.163249 | 3.531676 | 2.0 | 10.578 | 2 | 38.978 | 10.770 | 35.153 | 2 |
| 2025-05-19T07:24:00 | 57.163185 | 3.526273 | 2.0 | 10.588 | 2 | 38.965 | 10.757 | 35.152 | 2 |
| 2025-05-19T07:25:00 | 57.163165 | 3.520828 | 2.0 | 10.585 | 2 | 38.971 | 10.765 | 35.151 | 2 |
| 2025-05-19T07:26:00 | 57.163242 | 3.515417 | 2.0 | 10.605 | 2 | 38.970 | 10.766 | 35.149 | 2 |
| 2025-05-19T07:27:00 | 57.163327 | 3.510020 | 2.0 | 10.618 | 2 | 38.988 | 10.786 | 35.148 | 2 |
| 2025-05-19T07:28:00 | 57.163410 | 3.505376 | 2.0 | 10.610 | 2 | 38.997 | 10.793 | 35.150 | 2 |
| 2025-05-19T07:29:00 | 57.163559 | 3.501885 | 2.0 | 10.604 | 2 | 38.989 | 10.784 | 35.151 | 2 |
| 2025-05-19T07:30:00 | 57.164249 | 3.501032 | 2.0 | 10.604 | 2 | 38.984 | 10.779 | 35.150 | 2 |
| 2025-05-19T07:31:00 | 57.164690 | 3.501109 | 2.0 | 10.603 | 2 | 38.982 | 10.775 | 35.152 | 2 |
| 2025-05-19T07:32:00 | 57.165037 | 3.501158 | 2.0 | 10.606 | 2 | 38.984 | 10.779 | 35.150 | 2 |
| 2025-05-19T07:33:00 | 57.165327 | 3.501179 | 2.0 | 10.606 | 2 | 38.985 | 10.779 | 35.151 | 2 |
| 2025-05-19T07:34:00 | 57.165589 | 3.501141 | 2.0 | 10.605 | 2 | 38.985 | 10.778 | 35.152 | 2 |
| 2025-05-19T07:35:00 | 57.165797 | 3.501088 | 2.0 | 10.609 | 2 | 38.984 | 10.778 | 35.151 | 2 |
| 2025-05-19T07:36:00 | 57.165960 | 3.501086 | 2.0 | 10.616 | 2 | 38.990 | 10.785 | 35.151 | 2 |
| 2025-05-19T07:37:00 | 57.166041 | 3.501135 | 2.0 | 10.619 | 2 | 38.994 | 10.789 | 35.151 | 2 |
| 2025-05-19T07:38:00 | 57.166082 | 3.501166 | 2.0 | 10.613 | 2 | 38.996 | 10.790 | 35.152 | 2 |
| 2025-05-19T07:39:00 | 57.166103 | 3.501137 | 2.0 | 10.610 | 2 | 38.993 | 10.787 | 35.152 | 2 |
| 2025-05-19T07:40:00 | 57.166110 | 3.501096 | 2.0 | 10.611 | 2 | 38.990 | 10.784 | 35.152 | 2 |
| 2025-05-19T07:41:00 | 57.166103 | 3.501049 | 2.0 | 10.611 | 2 | 38.989 | 10.784 | 35.151 | 2 |
| 2025-05-19T07:42:00 | 57.166115 | 3.500985 | 2.0 | 10.607 | 2 | 38.990 | 10.783 | 35.152 | 2 |
| 2025-05-19T07:43:00 | 57.166116 | 3.500929 | 2.0 | 10.611 | 2 | 38.987 | 10.782 | 35.150 | 2 |
| 2025-05-19T07:44:00 | 57.166084 | 3.500940 | 2.0 | 10.611 | 2 | 38.986 | 10.780 | 35.151 | 2 |
| 2025-05-19T07:45:00 | 57.166074 | 3.500917 | 2.0 | 10.623 | 2 | 38.991 | 10.787 | 35.150 | 2 |
| 2025-05-19T07:46:00 | 57.166133 | 3.500932 | 2.0 | 10.630 | 2 | 39.000 | 10.795 | 35.151 | 2 |
| 2025-05-19T07:47:00 | 57.166193 | 3.500985 | 2.0 | 10.630 | 2 | 39.006 | 10.802 | 35.150 | 2 |
| 2025-05-19T07:48:00 | 57.166231 | 3.501018 | 2.0 | 10.621 | 2 | 39.006 | 10.800 | 35.152 | 2 |
| 2025-05-19T07:49:00 | 57.166259 | 3.501042 | 2.0 | 10.622 | 2 | 39.000 | 10.794 | 35.152 | 2 |
| 2025-05-19T07:50:00 | 57.166252 | 3.501034 | 2.0 | 10.625 | 2 | 39.000 | 10.795 | 35.151 | 2 |
| 2025-05-19T07:51:00 | 57.166232 | 3.501016 | 2.0 | 10.623 | 2 | 39.001 | 10.797 | 35.150 | 2 |
| 2025-05-19T07:52:00 | 57.166176 | 3.501010 | 2.0 | 10.630 | 2 | 39.001 | 10.796 | 35.151 | 2 |
| 2025-05-19T07:53:00 | 57.166115 | 3.500999 | 2.0 | 10.634 | 2 | 39.006 | 10.802 | 35.150 | 2 |
| 2025-05-19T07:54:00 | 57.166084 | 3.500986 | 2.0 | 10.625 | 2 | 39.009 | 10.804 | 35.151 | 2 |
| 2025-05-19T07:55:00 | 57.166102 | 3.500932 | 2.0 | 10.616 | 2 | 39.001 | 10.794 | 35.153 | 2 |
| 2025-05-19T07:56:00 | 57.166139 | 3.500873 | 2.0 | 10.613 | 2 | 38.994 | 10.788 | 35.152 | 2 |
| 2025-05-19T07:57:00 | 57.166194 | 3.500799 | 2.0 | 10.615 | 2 | 38.991 | 10.784 | 35.153 | 2 |
| 2025-05-19T07:58:00 | 57.166243 | 3.500789 | 2.0 | 10.613 | 2 | 38.991 | 10.786 | 35.151 | 2 |
| 2025-05-19T07:59:00 | 57.166283 | 3.500790 | 2.0 | 10.615 | 2 | 38.994 | 10.789 | 35.151 | 2 |
| 2025-05-19T08:00:00 | 57.166287 | 3.500777 | 2.0 | 10.615 | 2 | 39.002 | 10.798 | 35.150 | 2 |
| 2025-05-19T08:01:00 | 57.166272 | 3.500762 | 2.0 | 10.620 | 2 | 39.005 | 10.801 | 35.150 | 2 |
| 2025-05-19T08:02:00 | 57.166230 | 3.500711 | 2.0 | 10.602 | 2 | 39.011 | 10.807 | 35.151 | 2 |
| 2025-05-19T08:03:00 | 57.166250 | 3.500636 | 2.0 | 10.611 | 2 | 39.002 | 10.797 | 35.151 | 2 |
| 2025-05-19T08:04:00 | 57.166273 | 3.500564 | 2.0 | 10.600 | 2 | 39.004 | 10.800 | 35.150 | 2 |
| 2025-05-19T08:05:00 | 57.166317 | 3.500522 | 2.0 | 10.586 | 2 | 38.993 | 10.788 | 35.151 | 2 |
| 2025-05-19T08:06:00 | 57.166319 | 3.500580 | 2.0 | 10.628 | 2 | 38.993 | 10.791 | 35.148 | 2 |
| 2025-05-19T08:07:00 | 57.166365 | 3.500657 | 2.0 | 10.633 | 2 | 39.022 | 10.820 | 35.149 | 2 |
| 2025-05-19T08:08:00 | 57.166383 | 3.500703 | 2.0 | 10.641 | 2 | 39.031 | 10.827 | 35.151 | 2 |
| 2025-05-19T08:09:00 | 57.166361 | 3.500761 | 2.0 | 10.645 | 2 | 39.038 | 10.835 | 35.151 | 2 |
| 2025-05-19T08:10:00 | 57.166374 | 3.500823 | 2.0 | 10.652 | 2 | 39.043 | 10.840 | 35.151 | 2 |
| 2025-05-19T08:11:00 | 57.166424 | 3.500872 | 2.0 | 10.657 | 2 | 39.049 | 10.847 | 35.150 | 2 |
| 2025-05-19T08:12:00 | 57.166466 | 3.500929 | 2.0 | 10.655 | 2 | 39.053 | 10.850 | 35.151 | 2 |
| 2025-05-19T08:13:00 | 57.166469 | 3.500979 | 2.0 | 10.651 | 2 | 39.052 | 10.849 | 35.151 | 2 |
| 2025-05-19T08:14:00 | 57.166395 | 3.500977 | 2.0 | 10.666 | 2 | 39.052 | 10.849 | 35.151 | 2 |
| 2025-05-19T08:15:00 | 57.166362 | 3.501002 | 2.0 | 10.678 | 2 | 39.065 | 10.866 | 35.148 | 2 |
| 2025-05-19T08:16:00 | 57.166385 | 3.501013 | 2.0 | 10.655 | 2 | 39.070 | 10.867 | 35.152 | 2 |
| 2025-05-19T08:17:00 | 57.166445 | 3.501000 | 2.0 | 10.653 | 2 | 39.056 | 10.852 | 35.152 | 2 |
| 2025-05-19T08:18:00 | 57.166500 | 3.500932 | 2.0 | 10.654 | 2 | 39.053 | 10.850 | 35.151 | 2 |
| 2025-05-19T08:19:00 | 57.166527 | 3.500907 | 2.0 | 10.651 | 2 | 39.054 | 10.851 | 35.151 | 2 |
| 2025-05-19T08:20:00 | 57.166493 | 3.500938 | 2.0 | 10.654 | 2 | 39.053 | 10.851 | 35.150 | 2 |
| 2025-05-19T08:21:00 | 57.166430 | 3.500898 | 2.0 | 10.650 | 2 | 39.050 | 10.846 | 35.152 | 2 |
| 2025-05-19T08:22:00 | 57.166395 | 3.500898 | 2.0 | 10.647 | 2 | 39.049 | 10.847 | 35.150 | 2 |
| 2025-05-19T08:23:00 | 57.166401 | 3.500901 | 2.0 | 10.658 | 2 | 39.049 | 10.847 | 35.150 | 2 |
| 2025-05-19T08:24:00 | 57.166453 | 3.500926 | 2.0 | 10.657 | 2 | 39.058 | 10.856 | 35.151 | 2 |
| 2025-05-19T08:25:00 | 57.166507 | 3.500923 | 2.0 | 10.655 | 2 | 39.057 | 10.855 | 35.151 | 2 |
| 2025-05-19T08:26:00 | 57.166557 | 3.500891 | 2.0 | 10.656 | 2 | 39.056 | 10.854 | 35.151 | 2 |
| 2025-05-19T08:27:00 | 57.166621 | 3.500824 | 2.0 | 10.651 | 2 | 39.054 | 10.854 | 35.149 | 2 |
| 2025-05-19T08:28:00 | 57.166705 | 3.500816 | 2.0 | 10.648 | 2 | 39.050 | 10.849 | 35.149 | 2 |
| 2025-05-19T08:29:00 | 57.166840 | 3.500821 | 2.0 | 10.646 | 2 | 39.050 | 10.848 | 35.150 | 2 |
| 2025-05-19T08:30:00 | 57.167040 | 3.500845 | 2.0 | 10.656 | 2 | 39.048 | 10.846 | 35.150 | 2 |
| 2025-05-19T08:31:00 | 57.167260 | 3.500881 | 2.0 | 10.662 | 2 | 39.056 | 10.854 | 35.151 | 2 |
| 2025-05-19T08:32:00 | 57.167486 | 3.500922 | 2.0 | 10.658 | 2 | 39.062 | 10.861 | 35.150 | 2 |
| 2025-05-19T08:33:00 | 57.167714 | 3.500964 | 2.0 | 10.654 | 2 | 39.058 | 10.856 | 35.151 | 2 |
| 2025-05-19T08:34:00 | 57.167879 | 3.501018 | 2.0 | 10.653 | 2 | 39.056 | 10.853 | 35.152 | 2 |
| 2025-05-19T08:35:00 | 57.168018 | 3.501056 | 2.0 | 10.672 | 2 | 39.055 | 10.857 | 35.147 | 2 |
| 2025-05-19T08:36:00 | 57.168134 | 3.501045 | 2.0 | 10.667 | 2 | 39.069 | 10.869 | 35.149 | 2 |
| 2025-05-19T08:37:00 | 57.168257 | 3.501079 | 2.0 | 10.659 | 2 | 39.068 | 10.866 | 35.151 | 2 |
| 2025-05-19T08:38:00 | 57.168406 | 3.501119 | 2.0 | 10.674 | 2 | 39.064 | 10.861 | 35.152 | 2 |
| 2025-05-19T08:39:00 | 57.168552 | 3.501173 | 2.0 | 10.664 | 2 | 39.074 | 10.872 | 35.151 | 2 |
| 2025-05-19T08:40:00 | 57.168694 | 3.501214 | 2.0 | 10.654 | 2 | 39.066 | 10.863 | 35.152 | 2 |
| 2025-05-19T08:41:00 | 57.168847 | 3.501208 | 2.0 | 10.650 | 2 | 39.057 | 10.855 | 35.151 | 2 |
| 2025-05-19T08:42:00 | 57.169007 | 3.501197 | 2.0 | 10.661 | 2 | 39.054 | 10.853 | 35.149 | 2 |
| 2025-05-19T08:43:00 | 57.169161 | 3.501171 | 2.0 | 10.676 | 2 | 39.061 | 10.862 | 35.148 | 2 |
| 2025-05-19T08:44:00 | 57.169359 | 3.501170 | 2.0 | 10.668 | 2 | 39.065 | 10.864 | 35.150 | 2 |
| 2025-05-19T08:45:00 | 57.169772 | 3.500868 | 2.0 | 10.671 | 2 | 39.056 | 10.854 | 35.151 | 2 |
| 2025-05-19T08:46:00 | 57.170537 | 3.500054 | 2.0 | 10.673 | 2 | 39.059 | 10.855 | 35.153 | 2 |
| 2025-05-19T08:47:00 | 57.171681 | 3.498549 | 2.0 | 10.674 | 2 | 39.057 | 10.856 | 35.150 | 2 |
| 2025-05-19T08:48:00 | 57.173072 | 3.496739 | 2.0 | 10.653 | 2 | 39.057 | 10.854 | 35.152 | 2 |
| 2025-05-19T08:49:00 | 57.174504 | 3.494436 | 2.0 | 10.645 | 2 | 39.040 | 10.836 | 35.152 | 2 |
| 2025-05-19T08:50:00 | 57.175668 | 3.491196 | 2.0 | 10.649 | 2 | 39.029 | 10.827 | 35.149 | 2 |
| 2025-05-19T08:51:00 | 57.176351 | 3.487010 | 2.0 | 10.665 | 2 | 39.026 | 10.833 | 35.141 | 2 |
| 2025-05-19T08:52:00 | 57.176481 | 3.482167 | 2.0 | 10.685 | 2 | 39.042 | 10.849 | 35.141 | 2 |
| 2025-05-19T08:53:00 | 57.176457 | 3.477033 | 2.0 | 10.713 | 2 | 39.067 | 10.871 | 35.145 | 2 |
| 2025-05-19T08:54:00 | 57.176434 | 3.471848 | 2.0 | 10.731 | 2 | 39.094 | 10.897 | 35.147 | 2 |
| 2025-05-19T08:55:00 | 57.176031 | 3.466717 | 2.0 | 10.726 | 2 | 39.111 | 10.910 | 35.152 | 2 |
| 2025-05-19T08:56:00 | 57.175587 | 3.461510 | 2.0 | 10.701 | 2 | 39.102 | 10.899 | 35.153 | 2 |
| 2025-05-19T08:57:00 | 57.175126 | 3.456294 | 2.0 | 10.679 | 2 | 39.084 | 10.880 | 35.154 | 2 |
| 2025-05-19T08:58:00 | 57.174668 | 3.451079 | 2.0 | 10.663 | 2 | 39.062 | 10.855 | 35.156 | 2 |
| 2025-05-19T08:59:00 | 57.174204 | 3.445848 | 2.0 | 10.653 | 2 | 39.050 | 10.843 | 35.155 | 2 |
| 2025-05-19T09:00:00 | 57.173734 | 3.440596 | 2.0 | 10.650 | 2 | 39.031 | 10.834 | 35.145 | 2 |
| 2025-05-19T09:01:00 | 57.173264 | 3.435363 | 2.0 | 10.652 | 2 | 39.034 | 10.830 | 35.152 | 2 |
| 2025-05-19T09:02:00 | 57.172806 | 3.430119 | 2.0 | 10.642 | 2 | 39.031 | 10.828 | 35.150 | 2 |
| 2025-05-19T09:03:00 | 57.172353 | 3.424919 | 2.0 | 10.663 | 2 | 39.032 | 10.829 | 35.150 | 2 |
| 2025-05-19T09:04:00 | 57.171896 | 3.419680 | 2.0 | 10.655 | 2 | 39.045 | 10.842 | 35.151 | 2 |
| 2025-05-19T09:05:00 | 57.171440 | 3.414445 | 2.0 | 10.656 | 2 | 39.039 | 10.835 | 35.152 | 2 |
| 2025-05-19T09:06:00 | 57.170979 | 3.409198 | 2.0 | 10.653 | 2 | 39.036 | 10.832 | 35.152 | 2 |
| 2025-05-19T09:07:00 | 57.170523 | 3.403959 | 2.0 | 10.678 | 2 | 39.040 | 10.837 | 35.151 | 2 |
| 2025-05-19T09:08:00 | 57.170067 | 3.398756 | 2.0 | 10.704 | 2 | 39.062 | 10.860 | 35.151 | 2 |
| 2025-05-19T09:09:00 | 57.169610 | 3.393535 | 2.0 | 10.697 | 2 | 39.082 | 10.880 | 35.152 | 2 |
| 2025-05-19T09:10:00 | 57.169161 | 3.388325 | 2.0 | 10.709 | 2 | 39.080 | 10.877 | 35.153 | 2 |
| 2025-05-19T09:11:00 | 57.168714 | 3.383103 | 2.0 | 10.703 | 2 | 39.086 | 10.884 | 35.152 | 2 |
| 2025-05-19T09:12:00 | 57.168261 | 3.377862 | 2.0 | 10.707 | 2 | 39.081 | 10.879 | 35.152 | 2 |
| 2025-05-19T09:13:00 | 57.167751 | 3.372620 | 2.0 | 10.704 | 2 | 39.081 | 10.880 | 35.151 | 2 |
| 2025-05-19T09:14:00 | 57.167164 | 3.367403 | 2.0 | 10.706 | 2 | 39.075 | 10.881 | 35.144 | 2 |
| 2025-05-19T09:15:00 | 57.166572 | 3.362236 | 2.0 | 10.709 | 2 | 39.078 | 10.882 | 35.146 | 2 |
| 2025-05-19T09:16:00 | 57.165992 | 3.357118 | 2.0 | 10.708 | 2 | 39.083 | 10.887 | 35.146 | 2 |
| 2025-05-19T09:17:00 | 57.165479 | 3.352707 | 2.0 | 10.699 | 2 | 39.078 | 10.879 | 35.149 | 2 |
| 2025-05-19T09:18:00 | 57.165051 | 3.348908 | 2.0 | 10.705 | 2 | 39.074 | 10.876 | 35.147 | 2 |
| 2025-05-19T09:19:00 | 57.164653 | 3.345387 | 2.0 | 10.707 | 2 | 39.078 | 10.881 | 35.147 | 2 |
| 2025-05-19T09:20:00 | 57.164303 | 3.342292 | 2.0 | 10.714 | 2 | 39.080 | 10.883 | 35.147 | 2 |
| 2025-05-19T09:21:00 | 57.164005 | 3.339612 | 2.0 | 10.727 | 2 | 39.089 | 10.893 | 35.146 | 2 |
| 2025-05-19T09:22:00 | 57.163748 | 3.337341 | 2.0 | 10.719 | 2 | 39.092 | 10.896 | 35.146 | 2 |
| 2025-05-19T09:23:00 | 57.163510 | 3.335409 | 2.0 | 10.717 | 2 | 39.090 | 10.894 | 35.146 | 2 |
| 2025-05-19T09:24:00 | 57.163711 | 3.334191 | 2.0 | 10.719 | 2 | 39.088 | 10.892 | 35.146 | 2 |
| 2025-05-19T09:25:00 | 57.163996 | 3.333717 | 2.0 | 10.716 | 2 | 39.086 | 10.890 | 35.146 | 2 |
| 2025-05-19T09:26:00 | 57.164156 | 3.333492 | 2.0 | 10.728 | 2 | 39.086 | 10.890 | 35.146 | 2 |
| 2025-05-19T09:27:00 | 57.164209 | 3.333344 | 2.0 | 10.728 | 2 | 39.094 | 10.898 | 35.146 | 2 |
| 2025-05-19T09:28:00 | 57.164192 | 3.333220 | 2.0 | 10.735 | 2 | 39.097 | 10.901 | 35.147 | 2 |
| 2025-05-19T09:29:00 | 57.164127 | 3.333102 | 2.0 | 10.745 | 2 | 39.100 | 10.905 | 35.146 | 2 |
| 2025-05-19T09:30:00 | 57.164031 | 3.332989 | 2.0 | 10.752 | 2 | 39.112 | 10.922 | 35.141 | 2 |
| 2025-05-19T09:31:00 | 57.163980 | 3.332787 | 2.0 | 10.745 | 2 | 39.118 | 10.923 | 35.146 | 2 |
| 2025-05-19T09:32:00 | 57.163986 | 3.332525 | 2.0 | 10.749 | 2 | 39.111 | 10.916 | 35.146 | 2 |
| 2025-05-19T09:33:00 | 57.164067 | 3.332311 | 2.0 | 10.761 | 2 | 39.117 | 10.924 | 35.145 | 2 |
| 2025-05-19T09:34:00 | 57.164133 | 3.332153 | 2.0 | 10.761 | 2 | 39.125 | 10.931 | 35.146 | 2 |
| 2025-05-19T09:35:00 | 57.164209 | 3.332018 | 2.0 | 10.763 | 2 | 39.126 | 10.932 | 35.146 | 2 |
| 2025-05-19T09:36:00 | 57.164326 | 3.331945 | 2.0 | 10.769 | 2 | 39.128 | 10.936 | 35.144 | 2 |
| 2025-05-19T09:37:00 | 57.164461 | 3.331927 | 2.0 | 10.759 | 2 | 39.133 | 10.939 | 35.146 | 2 |
| 2025-05-19T09:38:00 | 57.164576 | 3.332027 | 2.0 | 10.763 | 2 | 39.122 | 10.929 | 35.145 | 2 |
| 2025-05-19T09:39:00 | 57.164645 | 3.332172 | 2.0 | 10.765 | 2 | 39.127 | 10.934 | 35.145 | 2 |
| 2025-05-19T09:40:00 | 57.164689 | 3.332329 | 2.0 | 10.744 | 2 | 39.125 | 10.932 | 35.145 | 2 |
| 2025-05-19T09:41:00 | 57.164677 | 3.332487 | 2.0 | 10.743 | 2 | 39.112 | 10.917 | 35.146 | 2 |
| 2025-05-19T09:42:00 | 57.164632 | 3.332635 | 2.0 | 10.708 | 2 | 39.105 | 10.908 | 35.148 | 2 |
| 2025-05-19T09:43:00 | 57.164592 | 3.332808 | 2.0 | 10.671 | 2 | 39.073 | 10.874 | 35.148 | 2 |
| 2025-05-19T09:44:00 | 57.164564 | 3.332947 | 2.0 | 10.654 | 2 | 39.037 | 10.834 | 35.151 | 2 |
| 2025-05-19T09:45:00 | 57.164530 | 3.333059 | 2.0 | 10.649 | 2 | 39.028 | 10.830 | 35.145 | 2 |
| 2025-05-19T09:46:00 | 57.164506 | 3.333124 | 2.0 | 10.660 | 2 | 39.019 | 10.819 | 35.147 | 2 |
| 2025-05-19T09:47:00 | 57.164496 | 3.333187 | 2.0 | 10.684 | 2 | 39.032 | 10.835 | 35.145 | 2 |
| 2025-05-19T09:48:00 | 57.164495 | 3.333264 | 2.0 | 10.710 | 2 | 39.056 | 10.861 | 35.144 | 2 |
| 2025-05-19T09:49:00 | 57.164513 | 3.333343 | 2.0 | 10.714 | 2 | 39.075 | 10.880 | 35.145 | 2 |
| 2025-05-19T09:50:00 | 57.164560 | 3.333398 | 2.0 | 10.718 | 2 | 39.080 | 10.885 | 35.145 | 2 |
| 2025-05-19T09:51:00 | 57.164627 | 3.333411 | 2.0 | 10.715 | 2 | 39.082 | 10.887 | 35.145 | 2 |
| 2025-05-19T09:52:00 | 57.164679 | 3.333416 | 2.0 | 10.723 | 2 | 39.084 | 10.889 | 35.145 | 2 |
| 2025-05-19T09:53:00 | 57.164740 | 3.333416 | 2.0 | 10.710 | 2 | 39.088 | 10.891 | 35.147 | 2 |
| 2025-05-19T09:54:00 | 57.164802 | 3.333454 | 2.0 | 10.710 | 2 | 39.075 | 10.881 | 35.144 | 2 |
| 2025-05-19T09:55:00 | 57.164868 | 3.333476 | 2.0 | 10.709 | 2 | 39.075 | 10.881 | 35.144 | 2 |
| 2025-05-19T09:56:00 | 57.164955 | 3.333484 | 2.0 | 10.677 | 2 | 39.069 | 10.872 | 35.146 | 2 |
| 2025-05-19T09:57:00 | 57.165060 | 3.333502 | 2.0 | 10.681 | 2 | 39.047 | 10.849 | 35.146 | 2 |
| 2025-05-19T09:58:00 | 57.165155 | 3.333575 | 2.0 | 10.673 | 2 | 39.048 | 10.850 | 35.146 | 2 |
| 2025-05-19T09:59:00 | 57.165217 | 3.333671 | 2.0 | 10.719 | 2 | 39.045 | 10.849 | 35.144 | 2 |
| 2025-05-19T10:00:00 | 57.165259 | 3.333776 | 2.0 | 10.755 | 2 | 39.087 | 10.895 | 35.142 | 2 |
| 2025-05-19T10:01:00 | 57.165269 | 3.333886 | 2.0 | 10.773 | 2 | 39.119 | 10.927 | 35.144 | 2 |
| 2025-05-19T10:02:00 | 57.165265 | 3.334004 | 2.0 | 10.790 | 2 | 39.134 | 10.942 | 35.144 | 2 |
| 2025-05-19T10:03:00 | 57.165257 | 3.334118 | 2.0 | 10.826 | 2 | 39.157 | 10.966 | 35.144 | 2 |
| 2025-05-19T10:04:00 | 57.165238 | 3.334203 | 2.0 | 10.820 | 2 | 39.182 | 10.993 | 35.143 | 2 |
| 2025-05-19T10:05:00 | 57.165223 | 3.334281 | 2.0 | 10.820 | 2 | 39.176 | 10.988 | 35.142 | 2 |
| 2025-05-19T10:06:00 | 57.165199 | 3.334328 | 2.0 | 10.840 | 2 | 39.177 | 10.991 | 35.140 | 2 |
| 2025-05-19T10:07:00 | 57.165198 | 3.334348 | 2.0 | 10.851 | 2 | 39.192 | 11.010 | 35.137 | 2 |
| 2025-05-19T10:08:00 | 57.165217 | 3.334339 | 2.0 | 10.848 | 2 | 39.210 | 11.019 | 35.147 | 2 |
| 2025-05-19T10:09:00 | 57.165253 | 3.334309 | 2.0 | 10.852 | 2 | 39.208 | 11.016 | 35.147 | 2 |
| 2025-05-19T10:10:00 | 57.165299 | 3.334289 | 2.0 | 10.823 | 2 | 39.206 | 11.014 | 35.147 | 2 |
| 2025-05-19T10:11:00 | 57.165340 | 3.334260 | 2.0 | 10.739 | 2 | 39.179 | 10.986 | 35.147 | 2 |
| 2025-05-19T10:12:00 | 57.165386 | 3.334214 | 2.0 | 10.758 | 2 | 39.114 | 10.919 | 35.146 | 2 |
| 2025-05-19T10:13:00 | 57.165449 | 3.334179 | 2.0 | 10.775 | 2 | 39.126 | 10.935 | 35.143 | 2 |
| 2025-05-19T10:14:00 | 57.165564 | 3.334167 | 2.0 | 10.655 | 2 | 39.126 | 10.923 | 35.155 | 2 |
| 2025-05-19T10:15:00 | 57.165714 | 3.334206 | 2.0 | 10.599 | 2 | 39.030 | 10.824 | 35.153 | 2 |
| 2025-05-19T10:16:00 | 57.165866 | 3.334278 | 2.0 | 10.594 | 2 | 38.972 | 10.772 | 35.145 | 2 |
| 2025-05-19T10:17:00 | 57.166018 | 3.334327 | 2.0 | 10.629 | 2 | 38.966 | 10.769 | 35.142 | 2 |
| 2025-05-19T10:18:00 | 57.166144 | 3.334351 | 2.0 | 10.726 | 2 | 39.006 | 10.815 | 35.138 | 2 |
| 2025-05-19T10:19:00 | 57.166230 | 3.334391 | 2.0 | 10.749 | 2 | 39.085 | 10.895 | 35.140 | 2 |
| 2025-05-19T10:20:00 | 57.166278 | 3.334408 | 2.0 | 10.733 | 2 | 39.109 | 10.916 | 35.144 | 2 |
| 2025-05-19T10:21:00 | 57.166229 | 3.334427 | 2.0 | 10.661 | 2 | 39.088 | 10.888 | 35.150 | 2 |
| 2025-05-19T10:22:00 | 57.166182 | 3.334422 | 2.0 | 10.627 | 2 | 39.029 | 10.827 | 35.149 | 2 |
| 2025-05-19T10:23:00 | 57.166134 | 3.334392 | 2.0 | 10.663 | 2 | 39.005 | 10.805 | 35.146 | 2 |
| 2025-05-19T10:24:00 | 57.166125 | 3.334345 | 2.0 | 10.691 | 2 | 39.032 | 10.839 | 35.141 | 2 |
| 2025-05-19T10:25:00 | 57.166129 | 3.334288 | 2.0 | 10.684 | 2 | 39.054 | 10.858 | 35.145 | 2 |
| 2025-05-19T10:26:00 | 57.166179 | 3.334230 | 2.0 | 10.686 | 2 | 39.049 | 10.852 | 35.145 | 2 |
| 2025-05-19T10:27:00 | 57.166252 | 3.334192 | 2.0 | 10.703 | 2 | 39.056 | 10.861 | 35.144 | 2 |
| 2025-05-19T10:28:00 | 57.166309 | 3.334146 | 2.0 | 10.705 | 2 | 39.071 | 10.875 | 35.145 | 2 |
| 2025-05-19T10:29:00 | 57.166312 | 3.334072 | 2.0 | 10.690 | 2 | 39.077 | 10.881 | 35.146 | 2 |
| 2025-05-19T10:30:00 | 57.166301 | 3.333963 | 2.0 | 10.689 | 2 | 39.061 | 10.862 | 35.148 | 2 |
| 2025-05-19T10:31:00 | 57.166289 | 3.333847 | 2.0 | 10.686 | 2 | 39.055 | 10.858 | 35.146 | 2 |
| 2025-05-19T10:32:00 | 57.166266 | 3.333751 | 2.0 | 10.697 | 2 | 39.054 | 10.857 | 35.146 | 2 |
| 2025-05-19T10:33:00 | 57.166243 | 3.333657 | 2.0 | 10.729 | 2 | 39.066 | 10.871 | 35.144 | 2 |
| 2025-05-19T10:34:00 | 57.166180 | 3.333581 | 2.0 | 10.776 | 2 | 39.097 | 10.906 | 35.142 | 2 |
| 2025-05-19T10:35:00 | 57.166087 | 3.333515 | 2.0 | 10.813 | 2 | 39.137 | 10.948 | 35.142 | 2 |
| 2025-05-19T10:36:00 | 57.166034 | 3.333409 | 2.0 | 10.849 | 2 | 39.173 | 10.984 | 35.143 | 2 |
| 2025-05-19T10:37:00 | 57.166021 | 3.333265 | 2.0 | 10.902 | 2 | 39.207 | 11.020 | 35.143 | 2 |
| 2025-05-19T10:38:00 | 57.166015 | 3.333184 | 2.0 | 10.926 | 2 | 39.259 | 11.075 | 35.142 | 2 |
| 2025-05-19T10:39:00 | 57.166034 | 3.333168 | 2.0 | 10.869 | 2 | 39.274 | 11.081 | 35.151 | 2 |
| 2025-05-19T10:40:00 | 57.166093 | 3.333179 | 2.0 | 10.851 | 2 | 39.228 | 11.035 | 35.149 | 2 |
| 2025-05-19T10:41:00 | 57.166169 | 3.333185 | 2.0 | 10.867 | 2 | 39.211 | 11.021 | 35.146 | 2 |
| 2025-05-19T10:42:00 | 57.166253 | 3.333197 | 2.0 | 10.884 | 2 | 39.223 | 11.036 | 35.143 | 2 |
| 2025-05-19T10:43:00 | 57.166293 | 3.333205 | 2.0 | 10.871 | 2 | 39.239 | 11.051 | 35.145 | 2 |
| 2025-05-19T10:44:00 | 57.166289 | 3.333211 | 2.0 | 10.840 | 2 | 39.227 | 11.035 | 35.148 | 2 |
| 2025-05-19T10:45:00 | 57.166283 | 3.333199 | 2.0 | 10.821 | 2 | 39.202 | 11.009 | 35.148 | 2 |
| 2025-05-19T10:46:00 | 57.166293 | 3.333166 | 2.0 | 10.853 | 2 | 39.189 | 10.999 | 35.145 | 2 |
| 2025-05-19T10:47:00 | 57.166336 | 3.333128 | 2.0 | 10.816 | 2 | 39.207 | 11.015 | 35.147 | 2 |
| 2025-05-19T10:48:00 | 57.166384 | 3.333107 | 2.0 | 10.833 | 2 | 39.178 | 10.985 | 35.147 | 2 |
| 2025-05-19T10:49:00 | 57.166361 | 3.333116 | 2.0 | 10.878 | 2 | 39.191 | 11.003 | 35.143 | 2 |
| 2025-05-19T10:50:00 | 57.166325 | 3.333129 | 2.0 | 10.841 | 2 | 39.227 | 11.039 | 35.144 | 2 |
| 2025-05-19T10:51:00 | 57.166311 | 3.333142 | 2.0 | 10.886 | 2 | 39.212 | 11.022 | 35.146 | 2 |
| 2025-05-19T10:52:00 | 57.166302 | 3.333150 | 2.0 | 10.863 | 2 | 39.241 | 11.054 | 35.144 | 2 |
| 2025-05-19T10:53:00 | 57.166265 | 3.333143 | 2.0 | 10.834 | 2 | 39.215 | 11.020 | 35.151 | 2 |
| 2025-05-19T10:54:00 | 57.166254 | 3.333127 | 2.0 | 10.870 | 2 | 39.201 | 11.011 | 35.145 | 2 |
| 2025-05-19T10:55:00 | 57.166262 | 3.333126 | 2.0 | 10.834 | 2 | 39.222 | 11.031 | 35.147 | 2 |
| 2025-05-19T10:56:00 | 57.166265 | 3.333150 | 2.0 | 10.848 | 2 | 39.201 | 11.008 | 35.148 | 2 |
| 2025-05-19T10:57:00 | 57.166239 | 3.333189 | 2.0 | 10.822 | 2 | 39.195 | 11.007 | 35.143 | 2 |
| 2025-05-19T10:58:00 | 57.166217 | 3.333192 | 2.0 | 10.831 | 2 | 39.183 | 10.991 | 35.146 | 2 |
| 2025-05-19T10:59:00 | 57.166227 | 3.333168 | 2.0 | 10.851 | 2 | 39.190 | 10.998 | 35.147 | 2 |
| 2025-05-19T11:00:00 | 57.166234 | 3.333168 | 2.0 | 10.837 | 2 | 39.214 | 11.025 | 35.145 | 2 |
| 2025-05-19T11:01:00 | 57.166234 | 3.333196 | 2.0 | 10.811 | 2 | 39.195 | 11.002 | 35.148 | 2 |
| 2025-05-19T11:02:00 | 57.166240 | 3.333221 | 2.0 | 10.784 | 2 | 39.170 | 10.975 | 35.149 | 2 |
| 2025-05-19T11:03:00 | 57.166258 | 3.333235 | 2.0 | 10.775 | 2 | 39.146 | 10.952 | 35.147 | 2 |
| 2025-05-19T11:04:00 | 57.166311 | 3.333251 | 2.0 | 10.782 | 2 | 39.139 | 10.945 | 35.146 | 2 |
| 2025-05-19T11:05:00 | 57.166332 | 3.333270 | 2.0 | 10.798 | 2 | 39.145 | 10.952 | 35.146 | 2 |
| 2025-05-19T11:06:00 | 57.166348 | 3.333267 | 2.0 | 10.808 | 2 | 39.162 | 10.970 | 35.145 | 2 |
| 2025-05-19T11:07:00 | 57.166347 | 3.333270 | 2.0 | 10.822 | 2 | 39.175 | 10.985 | 35.144 | 2 |
| 2025-05-19T11:08:00 | 57.166335 | 3.333283 | 2.0 | 10.823 | 2 | 39.184 | 10.992 | 35.146 | 2 |
| 2025-05-19T11:09:00 | 57.166336 | 3.333305 | 2.0 | 10.826 | 2 | 39.179 | 10.986 | 35.147 | 2 |
| 2025-05-19T11:10:00 | 57.166365 | 3.333325 | 2.0 | 10.847 | 2 | 39.191 | 11.002 | 35.144 | 2 |
| 2025-05-19T11:11:00 | 57.166407 | 3.333344 | 2.0 | 10.845 | 2 | 39.202 | 11.012 | 35.145 | 2 |
| 2025-05-19T11:12:00 | 57.166427 | 3.333324 | 2.0 | 10.856 | 2 | 39.207 | 11.018 | 35.144 | 2 |
| 2025-05-19T11:13:00 | 57.166444 | 3.333286 | 2.0 | 10.973 | 2 | 39.229 | 11.044 | 35.142 | 2 |
| 2025-05-19T11:14:00 | 57.166487 | 3.333236 | 2.0 | 10.888 | 2 | 39.308 | 11.123 | 35.145 | 2 |
| 2025-05-19T11:15:00 | 57.166521 | 3.333200 | 2.0 | 10.860 | 2 | 39.244 | 11.048 | 35.153 | 2 |
| 2025-05-19T11:16:00 | 57.166525 | 3.333190 | 2.0 | 10.889 | 2 | 39.229 | 11.039 | 35.146 | 2 |
| 2025-05-19T11:17:00 | 57.166529 | 3.333183 | 2.0 | 10.868 | 2 | 39.249 | 11.061 | 35.145 | 2 |
| 2025-05-19T11:18:00 | 57.166540 | 3.333210 | 2.0 | 10.878 | 2 | 39.223 | 11.031 | 35.148 | 2 |
| 2025-05-19T11:19:00 | 57.166557 | 3.333270 | 2.0 | 10.866 | 2 | 39.238 | 11.050 | 35.145 | 2 |
| 2025-05-19T11:20:00 | 57.166554 | 3.333330 | 2.0 | 10.883 | 2 | 39.222 | 11.029 | 35.149 | 2 |
| 2025-05-19T11:21:00 | 57.166505 | 3.333404 | 2.0 | 10.839 | 2 | 39.238 | 11.050 | 35.145 | 2 |
| 2025-05-19T11:22:00 | 57.166421 | 3.333471 | 2.0 | 10.841 | 2 | 39.213 | 11.020 | 35.149 | 2 |
| 2025-05-19T11:23:00 | 57.166398 | 3.333502 | 2.0 | 10.733 | 2 | 39.179 | 10.979 | 35.154 | 2 |
| 2025-05-19T11:24:00 | 57.166436 | 3.333510 | 2.0 | 10.747 | 2 | 39.106 | 10.909 | 35.148 | 2 |
| 2025-05-19T11:25:00 | 57.166522 | 3.333489 | 2.0 | 10.754 | 2 | 39.112 | 10.919 | 35.144 | 2 |
| 2025-05-19T11:26:00 | 57.166647 | 3.333444 | 2.0 | 10.946 | 2 | 39.148 | 10.962 | 35.139 | 2 |
| 2025-05-19T11:27:00 | 57.166865 | 3.333284 | 2.0 | 11.009 | 2 | 39.312 | 11.141 | 35.132 | 2 |
| 2025-05-19T11:28:00 | 57.167284 | 3.332571 | 2.0 | 10.930 | 2 | 39.340 | 11.151 | 35.150 | 2 |
| 2025-05-19T11:29:00 | 57.167564 | 3.331205 | 2.0 | 10.950 | 2 | 39.275 | 11.086 | 35.147 | 2 |
| 2025-05-19T11:30:00 | 57.167416 | 3.328755 | 2.0 | 10.954 | 2 | 39.302 | 11.116 | 35.146 | 2 |
| 2025-05-19T11:31:00 | 57.167125 | 3.325026 | 2.0 | 10.956 | 2 | 39.303 | 11.118 | 35.145 | 2 |
| 2025-05-19T11:32:00 | 57.166729 | 3.320280 | 2.0 | 10.971 | 2 | 39.308 | 11.137 | 35.131 | 2 |
| 2025-05-19T11:33:00 | 57.166320 | 3.315115 | 2.0 | 10.904 | 2 | 39.314 | 11.130 | 35.144 | 2 |
| 2025-05-19T11:34:00 | 57.165903 | 3.309826 | 2.0 | 10.901 | 2 | 39.283 | 11.099 | 35.143 | 2 |
| 2025-05-19T11:35:00 | 57.165488 | 3.304504 | 2.0 | 10.945 | 2 | 39.250 | 11.066 | 35.141 | 2 |
| 2025-05-19T11:36:00 | 57.165075 | 3.299163 | 2.0 | 10.896 | 2 | 39.282 | 11.106 | 35.135 | 2 |
| 2025-05-19T11:37:00 | 57.164668 | 3.293798 | 2.0 | 10.911 | 2 | 39.262 | 11.080 | 35.140 | 2 |
| 2025-05-19T11:38:00 | 57.164261 | 3.288457 | 2.0 | 10.918 | 2 | 39.288 | 11.112 | 35.135 | 2 |
| 2025-05-19T11:39:00 | 57.163843 | 3.283166 | 2.0 | 10.875 | 2 | 39.265 | 11.075 | 35.148 | 2 |
| 2025-05-19T11:40:00 | 57.163422 | 3.277839 | 2.0 | 10.924 | 2 | 39.244 | 11.066 | 35.135 | 2 |
| 2025-05-19T11:41:00 | 57.163003 | 3.272519 | 2.0 | 10.904 | 2 | 39.277 | 11.101 | 35.135 | 2 |
| 2025-05-19T11:42:00 | 57.162577 | 3.267193 | 2.0 | 10.883 | 2 | 39.260 | 11.075 | 35.143 | 2 |
| 2025-05-19T11:43:00 | 57.162151 | 3.261872 | 2.0 | 10.856 | 2 | 39.228 | 11.047 | 35.138 | 2 |
| 2025-05-19T11:44:00 | 57.161721 | 3.256526 | 2.0 | 10.906 | 2 | 39.236 | 11.059 | 35.134 | 2 |
| 2025-05-19T11:45:00 | 57.161510 | 3.251161 | 2.0 | 10.894 | 2 | 39.256 | 11.075 | 35.139 | 2 |
| 2025-05-19T11:46:00 | 57.161343 | 3.245783 | 2.0 | 10.888 | 2 | 39.259 | 11.078 | 35.139 | 2 |
| 2025-05-19T11:47:00 | 57.161175 | 3.240410 | 2.0 | 10.871 | 2 | 39.254 | 11.073 | 35.139 | 2 |
| 2025-05-19T11:48:00 | 57.161213 | 3.235028 | 2.0 | 10.925 | 2 | 39.234 | 11.055 | 35.136 | 2 |
| 2025-05-19T11:49:00 | 57.161304 | 3.229668 | 2.0 | 10.920 | 2 | 39.262 | 11.082 | 35.138 | 2 |
| 2025-05-19T11:50:00 | 57.161408 | 3.224343 | 2.0 | 10.826 | 2 | 39.245 | 11.070 | 35.133 | 2 |
| 2025-05-19T11:51:00 | 57.161503 | 3.218996 | 2.0 | 10.808 | 2 | 39.203 | 11.025 | 35.134 | 2 |
| 2025-05-19T11:52:00 | 57.161588 | 3.213638 | 2.0 | 10.892 | 2 | 39.179 | 11.009 | 35.125 | 2 |
| 2025-05-19T11:53:00 | 57.161668 | 3.208251 | 2.0 | 10.907 | 2 | 39.240 | 11.074 | 35.124 | 2 |
| 2025-05-19T11:54:00 | 57.161749 | 3.202879 | 2.0 | 10.875 | 2 | 39.244 | 11.073 | 35.129 | 2 |
| 2025-05-19T11:55:00 | 57.161837 | 3.197490 | 2.0 | 10.843 | 2 | 39.222 | 11.045 | 35.134 | 2 |
| 2025-05-19T11:56:00 | 57.161919 | 3.192105 | 2.0 | 10.896 | 2 | 39.225 | 11.054 | 35.128 | 2 |
| 2025-05-19T11:57:00 | 57.161990 | 3.186739 | 2.0 | 10.902 | 2 | 39.261 | 11.087 | 35.132 | 2 |
| 2025-05-19T11:58:00 | 57.162058 | 3.181379 | 2.0 | 10.873 | 2 | 39.237 | 11.052 | 35.142 | 2 |
| 2025-05-19T11:59:00 | 57.162131 | 3.176051 | 2.0 | 10.910 | 2 | 39.255 | 11.084 | 35.129 | 2 |
| 2025-05-19T12:00:00 | 57.162206 | 3.171246 | 2.0 | 11.021 | 2 | 39.271 | 11.107 | 35.123 | 2 |
| 2025-05-19T12:01:00 | 57.162935 | 3.168804 | 2.0 | 10.925 | 2 | 39.351 | 11.178 | 35.135 | 2 |
| 2025-05-19T12:02:00 | 57.163702 | 3.168687 | 2.0 | 10.980 | 2 | 39.283 | 11.095 | 35.147 | 2 |
| 2025-05-19T12:03:00 | 57.164304 | 3.168676 | 2.0 | 11.078 | 2 | 39.338 | 11.170 | 35.130 | 2 |
| 2025-05-19T12:04:00 | 57.164851 | 3.168616 | 2.0 | 11.089 | 2 | 39.411 | 11.241 | 35.135 | 2 |
| 2025-05-19T12:05:00 | 57.165205 | 3.168537 | 2.0 | 10.994 | 2 | 39.389 | 11.201 | 35.151 | 2 |
| 2025-05-19T12:06:00 | 57.165408 | 3.168371 | 2.0 | 10.971 | 2 | 39.353 | 11.175 | 35.140 | 2 |
| 2025-05-19T12:07:00 | 57.165484 | 3.168231 | 2.0 | 11.115 | 2 | 39.332 | 11.147 | 35.146 | 2 |
| 2025-05-19T12:08:00 | 57.165506 | 3.168091 | 2.0 | 11.145 | 2 | 39.444 | 11.278 | 35.132 | 2 |
| 2025-05-19T12:09:00 | 57.165478 | 3.167989 | 2.0 | 11.110 | 2 | 39.483 | 11.307 | 35.143 | 2 |
| 2025-05-19T12:10:00 | 57.165430 | 3.167884 | 2.0 | 11.130 | 2 | 39.459 | 11.279 | 35.146 | 2 |
| 2025-05-19T12:11:00 | 57.165409 | 3.167755 | 2.0 | 11.144 | 2 | 39.471 | 11.296 | 35.142 | 2 |
| 2025-05-19T12:12:00 | 57.165477 | 3.167622 | 2.0 | 11.174 | 2 | 39.488 | 11.315 | 35.141 | 2 |
| 2025-05-19T12:13:00 | 57.165517 | 3.167550 | 2.0 | 11.169 | 2 | 39.511 | 11.338 | 35.142 | 2 |
| 2025-05-19T12:14:00 | 57.165516 | 3.167476 | 2.0 | 11.107 | 2 | 39.507 | 11.331 | 35.144 | 2 |
| 2025-05-19T12:15:00 | 57.165504 | 3.167392 | 2.0 | 11.102 | 2 | 39.463 | 11.282 | 35.147 | 2 |
| 2025-05-19T12:16:00 | 57.165476 | 3.167331 | 2.0 | 11.142 | 2 | 39.473 | 11.302 | 35.138 | 2 |
| 2025-05-19T12:17:00 | 57.165428 | 3.167276 | 2.0 | 11.156 | 2 | 39.501 | 11.330 | 35.139 | 2 |
| 2025-05-19T12:18:00 | 57.165403 | 3.167232 | 2.0 | 11.132 | 2 | 39.505 | 11.330 | 35.143 | 2 |
| 2025-05-19T12:19:00 | 57.165414 | 3.167270 | 2.0 | 11.079 | 2 | 39.495 | 11.320 | 35.143 | 2 |
| 2025-05-19T12:20:00 | 57.165479 | 3.167375 | 2.0 | 10.947 | 2 | 39.429 | 11.240 | 35.154 | 2 |
| 2025-05-19T12:21:00 | 57.165568 | 3.167432 | 2.0 | 11.035 | 2 | 39.337 | 11.153 | 35.145 | 2 |
| 2025-05-19T12:22:00 | 57.165656 | 3.167445 | 2.0 | 11.102 | 2 | 39.416 | 11.252 | 35.129 | 2 |
| 2025-05-19T12:23:00 | 57.165731 | 3.167487 | 2.0 | 11.115 | 2 | 39.458 | 11.284 | 35.140 | 2 |
| 2025-05-19T12:24:00 | 57.165784 | 3.167502 | 2.0 | 11.112 | 2 | 39.471 | 11.296 | 35.142 | 2 |
| 2025-05-19T12:25:00 | 57.165789 | 3.167469 | 2.0 | 11.155 | 2 | 39.489 | 11.317 | 35.140 | 2 |
| 2025-05-19T12:26:00 | 57.165838 | 3.167338 | 2.0 | 11.178 | 2 | 39.516 | 11.345 | 35.140 | 2 |
| 2025-05-19T12:27:00 | 57.165848 | 3.167226 | 2.0 | 11.176 | 2 | 39.537 | 11.366 | 35.141 | 2 |
| 2025-05-19T12:28:00 | 57.165835 | 3.167123 | 2.0 | 11.184 | 2 | 39.538 | 11.365 | 35.143 | 2 |
| 2025-05-19T12:29:00 | 57.165868 | 3.167057 | 2.0 | 11.187 | 2 | 39.547 | 11.375 | 35.142 | 2 |
| 2025-05-19T12:30:00 | 57.165913 | 3.167070 | 2.0 | 11.164 | 2 | 39.546 | 11.371 | 35.145 | 2 |
| 2025-05-19T12:31:00 | 57.165985 | 3.167096 | 2.0 | 11.177 | 2 | 39.534 | 11.361 | 35.142 | 2 |
| 2025-05-19T12:32:00 | 57.166045 | 3.167102 | 2.0 | 11.158 | 2 | 39.537 | 11.364 | 35.143 | 2 |
| 2025-05-19T12:33:00 | 57.166076 | 3.167137 | 2.0 | 11.089 | 2 | 39.492 | 11.310 | 35.149 | 2 |
| 2025-05-19T12:34:00 | 57.166071 | 3.167162 | 2.0 | 11.136 | 2 | 39.464 | 11.292 | 35.139 | 2 |
| 2025-05-19T12:35:00 | 57.166036 | 3.167141 | 2.0 | 11.159 | 2 | 39.502 | 11.334 | 35.136 | 2 |
| 2025-05-19T12:36:00 | 57.166025 | 3.167136 | 2.0 | 11.094 | 2 | 39.506 | 11.329 | 35.145 | 2 |
| 2025-05-19T12:37:00 | 57.166093 | 3.167103 | 2.0 | 11.169 | 2 | 39.477 | 11.305 | 35.139 | 2 |
| 2025-05-19T12:38:00 | 57.166153 | 3.167050 | 2.0 | 11.190 | 2 | 39.532 | 11.363 | 35.139 | 2 |
| 2025-05-19T12:39:00 | 57.166208 | 3.167033 | 2.0 | 11.170 | 2 | 39.547 | 11.375 | 35.142 | 2 |
| 2025-05-19T12:40:00 | 57.166225 | 3.167058 | 2.0 | 10.962 | 2 | 39.518 | 11.331 | 35.155 | 2 |
| 2025-05-19T12:41:00 | 57.166284 | 3.167048 | 2.0 | 11.047 | 2 | 39.373 | 11.185 | 35.150 | 2 |
| 2025-05-19T12:42:00 | 57.166368 | 3.167007 | 2.0 | 11.096 | 2 | 39.423 | 11.254 | 35.134 | 2 |
| 2025-05-19T12:43:00 | 57.166467 | 3.166981 | 2.0 | 10.983 | 2 | 39.448 | 11.268 | 35.146 | 2 |
| 2025-05-19T12:44:00 | 57.166567 | 3.166984 | 2.0 | 11.105 | 2 | 39.381 | 11.201 | 35.143 | 2 |
| 2025-05-19T12:45:00 | 57.166660 | 3.167003 | 2.0 | 11.150 | 2 | 39.469 | 11.302 | 35.134 | 2 |
| 2025-05-19T12:46:00 | 57.166763 | 3.167020 | 2.0 | 11.145 | 2 | 39.508 | 11.333 | 35.143 | 2 |
| 2025-05-19T12:47:00 | 57.166875 | 3.167108 | 2.0 | 11.185 | 2 | 39.527 | 11.358 | 35.138 | 2 |
| 2025-05-19T12:48:00 | 57.166955 | 3.167223 | 2.0 | 11.043 | 2 | 39.529 | 11.346 | 35.152 | 2 |
| 2025-05-19T12:49:00 | 57.167013 | 3.167312 | 2.0 | 10.960 | 2 | 39.404 | 11.215 | 35.153 | 2 |
| 2025-05-19T12:50:00 | 57.167058 | 3.167321 | 2.0 | 11.024 | 2 | 39.351 | 11.175 | 35.138 | 2 |
| 2025-05-19T12:51:00 | 57.167119 | 3.167291 | 2.0 | 11.091 | 2 | 39.403 | 11.228 | 35.139 | 2 |
| 2025-05-19T12:52:00 | 57.167165 | 3.167236 | 2.0 | 11.158 | 2 | 39.459 | 11.290 | 35.136 | 2 |
| 2025-05-19T12:53:00 | 57.167207 | 3.167162 | 2.0 | 11.172 | 2 | 39.523 | 11.352 | 35.140 | 2 |
| 2025-05-19T12:54:00 | 57.167224 | 3.167129 | 2.0 | 11.161 | 2 | 39.536 | 11.362 | 35.143 | 2 |
| 2025-05-19T12:55:00 | 57.167244 | 3.167094 | 2.0 | 11.153 | 2 | 39.528 | 11.353 | 35.144 | 2 |
| 2025-05-19T12:56:00 | 57.167270 | 3.167045 | 2.0 | 11.146 | 2 | 39.522 | 11.348 | 35.143 | 2 |
| 2025-05-19T12:57:00 | 57.167288 | 3.167025 | 2.0 | 11.125 | 2 | 39.505 | 11.327 | 35.146 | 2 |
| 2025-05-19T12:58:00 | 57.167281 | 3.167024 | 2.0 | 11.146 | 2 | 39.498 | 11.324 | 35.142 | 2 |
| 2025-05-19T12:59:00 | 57.167277 | 3.167029 | 2.0 | 11.139 | 2 | 39.514 | 11.340 | 35.143 | 2 |
| 2025-05-19T13:00:00 | 57.167276 | 3.167023 | 2.0 | 11.123 | 2 | 39.509 | 11.333 | 35.144 | 2 |
| 2025-05-19T13:01:00 | 57.167287 | 3.167019 | 2.0 | 11.104 | 2 | 39.493 | 11.316 | 35.145 | 2 |
| 2025-05-19T13:02:00 | 57.167302 | 3.167018 | 2.0 | 11.103 | 2 | 39.478 | 11.301 | 35.144 | 2 |
| 2025-05-19T13:03:00 | 57.167335 | 3.167031 | 2.0 | 11.117 | 2 | 39.477 | 11.302 | 35.142 | 2 |
| 2025-05-19T13:04:00 | 57.167413 | 3.167050 | 2.0 | 11.122 | 2 | 39.491 | 11.316 | 35.143 | 2 |
| 2025-05-19T13:05:00 | 57.167497 | 3.166741 | 2.0 | 11.121 | 2 | 39.492 | 11.319 | 35.141 | 2 |
| 2025-05-19T13:06:00 | 57.167408 | 3.165273 | 2.0 | 11.121 | 2 | 39.490 | 11.319 | 35.139 | 2 |
| 2025-05-19T13:07:00 | 57.167280 | 3.162478 | 2.0 | 11.123 | 2 | 39.487 | 11.319 | 35.136 | 2 |
| 2025-05-19T13:08:00 | 57.167071 | 3.158505 | 2.0 | 11.151 | 2 | 39.501 | 11.332 | 35.137 | 2 |
| 2025-05-19T13:09:00 | 57.166829 | 3.153676 | 2.0 | 11.159 | 2 | 39.512 | 11.347 | 35.134 | 2 |
| 2025-05-19T13:10:00 | 57.166573 | 3.148418 | 2.0 | 11.121 | 2 | 39.509 | 11.339 | 35.139 | 2 |
| 2025-05-19T13:11:00 | 57.166312 | 3.143030 | 2.0 | 11.110 | 2 | 39.489 | 11.316 | 35.141 | 2 |
| 2025-05-19T13:12:00 | 57.166048 | 3.137630 | 2.0 | 11.113 | 2 | 39.478 | 11.304 | 35.141 | 2 |
| 2025-05-19T13:13:00 | 57.165789 | 3.132197 | 2.0 | 11.110 | 2 | 39.469 | 11.292 | 35.144 | 2 |
| 2025-05-19T13:14:00 | 57.165525 | 3.126778 | 2.0 | 11.073 | 2 | 39.466 | 11.290 | 35.143 | 2 |
| 2025-05-19T13:15:00 | 57.165269 | 3.121375 | 2.0 | 11.108 | 2 | 39.443 | 11.270 | 35.139 | 2 |
| 2025-05-19T13:16:00 | 57.165009 | 3.115913 | 2.0 | 11.089 | 2 | 39.453 | 11.283 | 35.136 | 2 |
| 2025-05-19T13:17:00 | 57.164745 | 3.110468 | 2.0 | 11.081 | 2 | 39.439 | 11.267 | 35.138 | 2 |
| 2025-05-19T13:18:00 | 57.164620 | 3.105038 | 2.0 | 11.077 | 2 | 39.431 | 11.264 | 35.133 | 2 |
| 2025-05-19T13:19:00 | 57.164517 | 3.099610 | 2.0 | 11.037 | 2 | 39.415 | 11.245 | 35.135 | 2 |
| 2025-05-19T13:20:00 | 57.164424 | 3.094156 | 2.0 | 11.048 | 2 | 39.387 | 11.219 | 35.132 | 2 |
| 2025-05-19T13:21:00 | 57.164323 | 3.088720 | 2.0 | 11.063 | 2 | 39.394 | 11.232 | 35.126 | 2 |
| 2025-05-19T13:22:00 | 57.164230 | 3.083294 | 2.0 | 11.053 | 2 | 39.393 | 11.239 | 35.119 | 2 |
| 2025-05-19T13:23:00 | 57.164129 | 3.077858 | 2.0 | 11.058 | 2 | 39.391 | 11.228 | 35.127 | 2 |
| 2025-05-19T13:24:00 | 57.164030 | 3.072406 | 2.0 | 11.037 | 2 | 39.394 | 11.231 | 35.127 | 2 |
| 2025-05-19T13:25:00 | 57.163929 | 3.066952 | 2.0 | 11.014 | 2 | 39.377 | 11.212 | 35.129 | 2 |
| 2025-05-19T13:26:00 | 57.163840 | 3.061497 | 2.0 | 11.024 | 2 | 39.295 | 11.199 | 35.059 | 2 |
| 2025-05-19T13:27:00 | 57.163738 | 3.056049 | 2.0 | 10.976 | 2 | 39.355 | 11.194 | 35.124 | 2 |
| 2025-05-19T13:28:00 | 57.163627 | 3.050610 | 2.0 | 11.007 | 2 | 39.076 | 11.163 | 34.875 | 2 |
| 2025-05-19T13:29:00 | 57.163520 | 3.045349 | 2.0 | 11.006 | 2 | 39.343 | 11.188 | 35.118 | 2 |
| 2025-05-19T13:30:00 | 57.163464 | 3.040369 | 2.0 | 11.012 | 2 | 39.082 | 11.182 | 34.863 | 2 |
| 2025-05-19T13:31:00 | 57.163430 | 3.035461 | 2.0 | 10.982 | 2 | 39.192 | 11.186 | 34.969 | 2 |
| 2025-05-19T13:32:00 | 57.163407 | 3.030610 | 2.0 | 10.959 | 2 | 39.318 | 11.157 | 35.122 | 2 |
| 2025-05-19T13:33:00 | 57.163386 | 3.025745 | 2.0 | 10.980 | 2 | 39.231 | 11.139 | 35.053 | 2 |
| 2025-05-19T13:34:00 | 57.163372 | 3.020905 | 2.0 | 10.975 | 2 | 39.039 | 11.162 | 34.840 | 2 |
| 2025-05-19T13:35:00 | 57.163348 | 3.016804 | 2.0 | 10.941 | 2 | 39.302 | 11.144 | 35.119 | 2 |
| 2025-05-19T13:36:00 | 57.163497 | 3.013693 | 2.0 | 10.948 | 2 | 39.201 | 11.120 | 35.041 | 2 |
| 2025-05-19T13:37:00 | 57.163648 | 3.011232 | 2.0 | 10.949 | 2 | 38.997 | 11.125 | 34.833 | 2 |
| 2025-05-19T13:38:00 | 57.163775 | 3.009154 | 2.0 | 10.952 | 2 | 39.232 | 11.124 | 35.068 | 2 |
| 2025-05-19T13:39:00 | 57.163999 | 3.007374 | 2.0 | 10.958 | 2 | 38.997 | 11.127 | 34.831 | 2 |
| 2025-05-19T13:40:00 | 57.164248 | 3.005663 | 2.0 | 10.948 | 2 | 38.767 | 11.129 | 34.600 | 2 |
| 2025-05-19T13:41:00 | 57.164523 | 3.003810 | 2.0 | 10.954 | 2 | 38.965 | 11.126 | 34.800 | 2 |
| 2025-05-19T13:42:00 | 57.164839 | 3.002448 | 2.0 | 10.953 | 2 | 38.800 | 11.128 | 34.634 | 2 |
| 2025-05-19T13:44:00 | 57.165422 | 3.001955 | 2.0 | 10.975 | 2 | 38.808 | 11.111 | 34.658 | 2 |
| 2025-05-19T13:47:00 | 57.165655 | 3.001797 | 2.0 | 10.918 | 2 | 38.918 | 11.091 | 34.786 | 2 |
| 2025-05-19T13:48:00 | 57.165633 | 3.001717 | 2.0 | 10.932 | 2 | 38.815 | 11.094 | 34.681 | 2 |
| 2025-05-19T13:49:00 | 57.165597 | 3.001591 | 2.0 | 10.941 | 2 | 38.813 | 11.107 | 34.667 | 2 |
| 2025-05-19T13:50:00 | 57.165584 | 3.001445 | 2.0 | 10.940 | 2 | 38.848 | 11.114 | 34.695 | 2 |
| 2025-05-19T13:51:00 | 57.165622 | 3.001330 | 2.0 | 10.938 | 2 | 38.831 | 11.112 | 34.680 | 2 |
| 2025-05-19T13:52:00 | 57.165636 | 3.001243 | 2.0 | 10.921 | 2 | 38.702 | 11.110 | 34.553 | 2 |
| 2025-05-19T13:53:00 | 57.165618 | 3.001143 | 2.0 | 10.923 | 2 | 38.933 | 11.094 | 34.798 | 2 |
| 2025-05-19T13:54:00 | 57.165552 | 3.001034 | 2.0 | 10.923 | 2 | 38.742 | 11.097 | 34.605 | 2 |
| 2025-05-19T13:55:00 | 57.165481 | 3.000847 | 2.0 | 10.915 | 2 | 38.997 | 11.095 | 34.861 | 2 |
| 2025-05-19T13:56:00 | 57.165425 | 3.000673 | 2.0 | 10.915 | 2 | 38.784 | 11.088 | 34.656 | 2 |
| 2025-05-19T13:57:00 | 57.165383 | 3.000547 | 2.0 | 10.913 | 2 | 39.061 | 11.088 | 34.932 | 2 |
| 2025-05-19T13:58:00 | 57.165378 | 3.000502 | 2.0 | 10.908 | 2 | 38.953 | 11.084 | 34.828 | 2 |
| 2025-05-19T13:59:00 | 57.165408 | 3.000578 | 2.0 | 10.902 | 2 | 39.030 | 11.079 | 34.909 | 2 |
| 2025-05-19T14:00:00 | 57.165455 | 3.000734 | 2.0 | 10.893 | 2 | 38.834 | 11.073 | 34.720 | 2 |
| 2025-05-19T14:01:00 | 57.165426 | 3.000915 | 2.0 | 10.890 | 2 | 38.999 | 11.065 | 34.892 | 2 |
| 2025-05-19T14:02:00 | 57.165405 | 3.000958 | 2.0 | 10.888 | 2 | 39.002 | 11.062 | 34.898 | 2 |
| 2025-05-19T14:03:00 | 57.165396 | 3.000833 | 2.0 | 10.907 | 2 | 38.978 | 11.063 | 34.873 | 2 |
| 2025-05-19T14:04:00 | 57.165413 | 3.000751 | 2.0 | 10.907 | 2 | 38.995 | 11.077 | 34.876 | 2 |
| 2025-05-19T14:05:00 | 57.165424 | 3.000715 | 2.0 | 10.900 | 2 | 39.014 | 11.077 | 34.895 | 2 |
| 2025-05-19T14:06:00 | 57.165428 | 3.000757 | 2.0 | 10.904 | 2 | 38.971 | 11.070 | 34.859 | 2 |
| 2025-05-19T14:07:00 | 57.165427 | 3.000815 | 2.0 | 10.895 | 2 | 38.885 | 11.073 | 34.770 | 2 |
| 2025-05-19T14:08:00 | 57.165442 | 3.000866 | 2.0 | 10.903 | 2 | 38.893 | 11.068 | 34.783 | 2 |
| 2025-05-19T14:09:00 | 57.165484 | 3.000832 | 2.0 | 10.888 | 2 | 39.059 | 11.070 | 34.947 | 2 |
| 2025-05-19T14:10:00 | 57.165532 | 3.000771 | 2.0 | 10.897 | 2 | 38.994 | 11.058 | 34.893 | 2 |
| 2025-05-19T14:11:00 | 57.165568 | 3.000725 | 2.0 | 10.880 | 2 | 39.008 | 11.065 | 34.901 | 2 |
| 2025-05-19T14:12:00 | 57.165594 | 3.000666 | 2.0 | 10.906 | 2 | 38.925 | 11.058 | 34.825 | 2 |
| 2025-05-19T14:13:00 | 57.165606 | 3.000642 | 2.0 | 10.897 | 2 | 39.048 | 11.071 | 34.935 | 2 |
| 2025-05-19T14:14:00 | 57.165579 | 3.000654 | 2.0 | 10.890 | 2 | 38.963 | 11.068 | 34.853 | 2 |
| 2025-05-19T14:15:00 | 57.165563 | 3.000659 | 2.0 | 10.891 | 2 | 38.964 | 11.061 | 34.861 | 2 |
| 2025-05-19T14:16:00 | 57.165566 | 3.000625 | 2.0 | 10.915 | 2 | 39.021 | 11.070 | 34.909 | 2 |
| 2025-05-19T14:17:00 | 57.165553 | 3.000590 | 2.0 | 10.898 | 2 | 39.034 | 11.084 | 34.909 | 2 |
| 2025-05-19T14:18:00 | 57.165540 | 3.000603 | 2.0 | 10.910 | 2 | 38.998 | 11.069 | 34.887 | 2 |
| 2025-05-19T14:19:00 | 57.165537 | 3.000606 | 2.0 | 10.918 | 2 | 39.029 | 11.083 | 34.905 | 2 |
| 2025-05-19T14:20:00 | 57.165538 | 3.000556 | 2.0 | 10.897 | 2 | 39.054 | 11.087 | 34.926 | 2 |
| 2025-05-19T14:21:00 | 57.165555 | 3.000544 | 2.0 | 10.922 | 2 | 39.050 | 11.075 | 34.933 | 2 |
| 2025-05-19T14:22:00 | 57.165560 | 3.000657 | 2.0 | 10.928 | 2 | 39.046 | 11.092 | 34.913 | 2 |
| 2025-05-19T14:23:00 | 57.165544 | 3.000794 | 2.0 | 10.924 | 2 | 39.072 | 11.097 | 34.934 | 2 |
| 2025-05-19T14:24:00 | 57.165559 | 3.000845 | 2.0 | 10.933 | 2 | 39.065 | 11.095 | 34.929 | 2 |
| 2025-05-19T14:25:00 | 57.165563 | 3.000791 | 2.0 | 10.908 | 2 | 39.106 | 11.098 | 34.967 | 2 |
| 2025-05-19T14:26:00 | 57.165537 | 3.000735 | 2.0 | 10.901 | 2 | 39.080 | 11.079 | 34.959 | 2 |
| 2025-05-19T14:27:00 | 57.165529 | 3.000740 | 2.0 | 10.931 | 2 | 39.086 | 11.078 | 34.966 | 2 |
| 2025-05-19T14:28:00 | 57.165531 | 3.000784 | 2.0 | 10.927 | 2 | 39.127 | 11.097 | 34.989 | 2 |
| 2025-05-19T14:29:00 | 57.165521 | 3.000867 | 2.0 | 10.933 | 2 | 39.108 | 11.100 | 34.967 | 2 |
| 2025-05-19T14:30:00 | 57.165493 | 3.000902 | 2.0 | 10.914 | 2 | 39.127 | 11.099 | 34.987 | 2 |
| 2025-05-19T14:31:00 | 57.165492 | 3.000819 | 2.0 | 10.935 | 2 | 39.121 | 11.087 | 34.993 | 2 |
| 2025-05-19T14:32:00 | 57.165517 | 3.000733 | 2.0 | 10.939 | 2 | 39.144 | 11.108 | 34.996 | 2 |
| 2025-05-19T14:33:00 | 57.165517 | 3.000630 | 2.0 | 10.943 | 2 | 39.156 | 11.110 | 35.006 | 2 |
| 2025-05-19T14:34:00 | 57.165482 | 3.000579 | 2.0 | 10.941 | 2 | 39.208 | 11.112 | 35.056 | 2 |
| 2025-05-19T14:35:00 | 57.165486 | 3.000556 | 2.0 | 10.952 | 2 | 39.179 | 11.110 | 35.029 | 2 |
| 2025-05-19T14:36:00 | 57.165489 | 3.000571 | 2.0 | 10.951 | 2 | 39.195 | 11.124 | 35.031 | 2 |
| 2025-05-19T14:37:00 | 57.165476 | 3.000628 | 2.0 | 10.945 | 2 | 39.198 | 11.115 | 35.043 | 2 |
| 2025-05-19T14:38:00 | 57.165445 | 3.000650 | 2.0 | 10.934 | 2 | 39.185 | 11.114 | 35.031 | 2 |
| 2025-05-19T14:39:00 | 57.165442 | 3.000629 | 2.0 | 10.949 | 2 | 39.206 | 11.104 | 35.061 | 2 |
| 2025-05-19T14:40:00 | 57.165445 | 3.000615 | 2.0 | 10.965 | 2 | 39.223 | 11.121 | 35.062 | 2 |
| 2025-05-19T14:41:00 | 57.165425 | 3.000654 | 2.0 | 10.961 | 2 | 39.241 | 11.134 | 35.067 | 2 |
| 2025-05-19T14:42:00 | 57.165376 | 3.000658 | 2.0 | 10.955 | 2 | 39.234 | 11.127 | 35.067 | 2 |
| 2025-05-19T14:43:00 | 57.165429 | 3.000600 | 2.0 | 10.949 | 2 | 39.233 | 11.123 | 35.070 | 2 |
| 2025-05-19T14:44:00 | 57.165507 | 3.000513 | 2.0 | 10.941 | 2 | 39.234 | 11.117 | 35.077 | 2 |
| 2025-05-19T14:45:00 | 57.165565 | 3.000454 | 2.0 | 10.944 | 2 | 39.253 | 11.112 | 35.100 | 2 |
| 2025-05-19T14:46:00 | 57.165589 | 3.000512 | 2.0 | 10.949 | 2 | 39.264 | 11.116 | 35.108 | 2 |
| 2025-05-19T14:47:00 | 57.165544 | 3.000626 | 2.0 | 10.947 | 2 | 39.271 | 11.118 | 35.113 | 2 |
| 2025-05-19T14:48:00 | 57.165520 | 3.000681 | 2.0 | 10.950 | 2 | 39.263 | 11.118 | 35.105 | 2 |
| 2025-05-19T14:49:00 | 57.165535 | 3.000658 | 2.0 | 10.950 | 2 | 39.261 | 11.119 | 35.102 | 2 |
| 2025-05-19T14:50:00 | 57.165592 | 3.000716 | 2.0 | 10.941 | 2 | 39.266 | 11.117 | 35.109 | 2 |
| 2025-05-19T14:51:00 | 57.165658 | 3.000874 | 2.0 | 10.958 | 2 | 39.266 | 11.116 | 35.110 | 2 |
| 2025-05-19T14:52:00 | 57.165680 | 3.001023 | 2.0 | 10.944 | 2 | 39.281 | 11.126 | 35.115 | 2 |
| 2025-05-19T14:53:00 | 57.165662 | 3.001132 | 2.0 | 10.943 | 2 | 39.273 | 11.113 | 35.119 | 2 |
| 2025-05-19T14:54:00 | 57.165631 | 3.001297 | 2.0 | 10.945 | 2 | 39.273 | 11.115 | 35.118 | 2 |
| 2025-05-19T14:55:00 | 57.165602 | 3.001444 | 2.0 | 10.949 | 2 | 39.272 | 11.116 | 35.116 | 2 |
| 2025-05-19T14:56:00 | 57.165586 | 3.001587 | 2.0 | 10.952 | 2 | 39.277 | 11.120 | 35.117 | 2 |
| 2025-05-19T14:57:00 | 57.165609 | 3.001754 | 2.0 | 10.965 | 2 | 39.278 | 11.123 | 35.115 | 2 |
| 2025-05-19T14:58:00 | 57.165666 | 3.001905 | 2.0 | 10.957 | 2 | 39.285 | 11.130 | 35.115 | 2 |
| 2025-05-19T14:59:00 | 57.165744 | 3.001996 | 2.0 | 10.962 | 2 | 39.285 | 11.128 | 35.117 | 2 |
| 2025-05-19T15:00:00 | 57.166001 | 3.002066 | 2.0 | 10.944 | 2 | 39.285 | 11.126 | 35.119 | 2 |
| 2025-05-19T15:01:00 | 57.166624 | 3.001986 | 2.0 | 10.949 | 2 | 39.275 | 11.116 | 35.119 | 2 |
| 2025-05-19T15:02:00 | 57.167386 | 3.001339 | 2.0 | 10.952 | 2 | 39.275 | 11.115 | 35.120 | 2 |
| 2025-05-19T15:03:00 | 57.168176 | 2.999292 | 2.0 | 10.939 | 2 | 39.277 | 11.119 | 35.118 | 2 |
| 2025-05-19T15:04:00 | 57.169333 | 2.996955 | 2.0 | 10.908 | 2 | 39.263 | 11.102 | 35.120 | 2 |
| 2025-05-19T15:05:00 | 57.170522 | 2.994248 | 2.0 | 10.909 | 2 | 39.244 | 11.080 | 35.122 | 2 |
| 2025-05-19T15:06:00 | 57.171720 | 2.991302 | 2.0 | 10.903 | 2 | 39.240 | 11.075 | 35.123 | 2 |
| 2025-05-19T15:07:00 | 57.172946 | 2.988267 | 2.0 | 10.897 | 2 | 39.241 | 11.075 | 35.124 | 2 |
| 2025-05-19T15:08:00 | 57.174170 | 2.985232 | 2.0 | 10.869 | 2 | 39.231 | 11.061 | 35.127 | 2 |
| 2025-05-19T15:09:00 | 57.175422 | 2.982196 | 2.0 | 10.868 | 2 | 39.207 | 11.039 | 35.124 | 2 |
| 2025-05-19T15:10:00 | 57.176674 | 2.979149 | 2.0 | 10.884 | 2 | 39.215 | 11.047 | 35.125 | 2 |
| 2025-05-19T15:11:00 | 57.177917 | 2.976088 | 2.0 | 10.858 | 2 | 39.218 | 11.049 | 35.126 | 2 |
| 2025-05-19T15:12:00 | 57.179145 | 2.973043 | 2.0 | 10.839 | 2 | 39.199 | 11.028 | 35.127 | 2 |
| 2025-05-19T15:13:00 | 57.180357 | 2.970061 | 2.0 | 10.820 | 2 | 39.180 | 11.007 | 35.128 | 2 |
| 2025-05-19T15:14:00 | 57.181565 | 2.967130 | 2.0 | 10.802 | 2 | 39.163 | 10.993 | 35.124 | 2 |
| 2025-05-19T15:15:00 | 57.182757 | 2.964176 | 2.0 | 10.799 | 2 | 39.144 | 10.975 | 35.123 | 2 |
| 2025-05-19T15:16:00 | 57.183966 | 2.961216 | 2.0 | 10.794 | 2 | 39.140 | 10.971 | 35.122 | 2 |
| 2025-05-19T15:17:00 | 57.185203 | 2.958213 | 2.0 | 10.803 | 2 | 39.138 | 10.967 | 35.124 | 2 |
| 2025-05-19T15:18:00 | 57.186455 | 2.955140 | 2.0 | 10.816 | 2 | 39.146 | 10.976 | 35.124 | 2 |
| 2025-05-19T15:19:00 | 57.187703 | 2.952061 | 2.0 | 10.817 | 2 | 39.154 | 10.986 | 35.122 | 2 |
| 2025-05-19T15:20:00 | 57.188958 | 2.949024 | 2.0 | 10.809 | 2 | 39.156 | 10.986 | 35.124 | 2 |
| 2025-05-19T15:21:00 | 57.190226 | 2.945958 | 2.0 | 10.833 | 2 | 39.155 | 10.986 | 35.123 | 2 |
| 2025-05-19T15:22:00 | 57.191465 | 2.942860 | 2.0 | 10.818 | 2 | 39.167 | 10.997 | 35.125 | 2 |
| 2025-05-19T15:23:00 | 57.192719 | 2.939812 | 2.0 | 10.823 | 2 | 39.161 | 10.991 | 35.124 | 2 |
| 2025-05-19T15:24:00 | 57.193970 | 2.936753 | 2.0 | 10.833 | 2 | 39.163 | 10.995 | 35.123 | 2 |
| 2025-05-19T15:25:00 | 57.195210 | 2.933729 | 2.0 | 10.833 | 2 | 39.172 | 11.004 | 35.123 | 2 |
| 2025-05-19T15:26:00 | 57.196442 | 2.930711 | 2.0 | 10.829 | 2 | 39.169 | 11.002 | 35.122 | 2 |
| 2025-05-19T15:27:00 | 57.197689 | 2.927646 | 2.0 | 10.836 | 2 | 39.171 | 11.000 | 35.126 | 2 |
| 2025-05-19T15:28:00 | 57.198943 | 2.924563 | 2.0 | 10.830 | 2 | 39.170 | 11.004 | 35.121 | 2 |
| 2025-05-19T15:29:00 | 57.200214 | 2.921565 | 2.0 | 10.822 | 2 | 39.167 | 11.001 | 35.121 | 2 |
| 2025-05-19T15:30:00 | 57.201457 | 2.918514 | 2.0 | 10.812 | 2 | 39.159 | 10.989 | 35.124 | 2 |
| 2025-05-19T15:31:00 | 57.202708 | 2.915404 | 2.0 | 10.797 | 2 | 39.151 | 10.981 | 35.124 | 2 |
| 2025-05-19T15:32:00 | 57.203995 | 2.912257 | 2.0 | 10.805 | 2 | 39.138 | 10.968 | 35.123 | 2 |
| 2025-05-19T15:33:00 | 57.205260 | 2.909118 | 2.0 | 10.794 | 2 | 39.144 | 10.974 | 35.124 | 2 |
| 2025-05-19T15:34:00 | 57.206517 | 2.905968 | 2.0 | 10.792 | 2 | 39.133 | 10.963 | 35.123 | 2 |
| 2025-05-19T15:35:00 | 57.207780 | 2.902859 | 2.0 | 10.790 | 2 | 39.131 | 10.965 | 35.119 | 2 |
| 2025-05-19T15:36:00 | 57.209052 | 2.899802 | 2.0 | 10.777 | 2 | 39.124 | 10.957 | 35.120 | 2 |
| 2025-05-19T15:37:00 | 57.210316 | 2.896761 | 2.0 | 10.772 | 2 | 39.115 | 10.948 | 35.119 | 2 |
| 2025-05-19T15:38:00 | 57.211585 | 2.893703 | 2.0 | 10.757 | 2 | 39.107 | 10.940 | 35.119 | 2 |
| 2025-05-19T15:39:00 | 57.212820 | 2.890603 | 2.0 | 10.757 | 2 | 39.098 | 10.931 | 35.119 | 2 |
| 2025-05-19T15:40:00 | 57.214076 | 2.887576 | 2.0 | 10.753 | 2 | 39.093 | 10.926 | 35.119 | 2 |
| 2025-05-19T15:41:00 | 57.215266 | 2.884543 | 2.0 | 10.750 | 2 | 39.090 | 10.924 | 35.117 | 2 |
| 2025-05-19T15:42:00 | 57.216528 | 2.881518 | 2.0 | 10.741 | 2 | 39.086 | 10.920 | 35.117 | 2 |
| 2025-05-19T15:43:00 | 57.217793 | 2.878404 | 2.0 | 10.740 | 2 | 39.078 | 10.913 | 35.116 | 2 |
| 2025-05-19T15:44:00 | 57.219046 | 2.875309 | 2.0 | 10.749 | 2 | 39.073 | 10.913 | 35.111 | 2 |
| 2025-05-19T15:45:00 | 57.220308 | 2.872295 | 2.0 | 10.750 | 2 | 39.084 | 10.920 | 35.115 | 2 |
| 2025-05-19T15:46:00 | 57.221570 | 2.869242 | 2.0 | 10.745 | 2 | 39.084 | 10.918 | 35.117 | 2 |
| 2025-05-19T15:47:00 | 57.222824 | 2.866103 | 2.0 | 10.745 | 2 | 39.082 | 10.916 | 35.117 | 2 |
| 2025-05-19T15:48:00 | 57.224108 | 2.862946 | 2.0 | 10.734 | 2 | 39.080 | 10.914 | 35.117 | 2 |
| 2025-05-19T15:49:00 | 57.225407 | 2.859777 | 2.0 | 10.730 | 2 | 39.072 | 10.906 | 35.117 | 2 |
| 2025-05-19T15:50:00 | 57.226661 | 2.856693 | 2.0 | 10.731 | 2 | 39.069 | 10.901 | 35.118 | 2 |
| 2025-05-19T15:51:00 | 57.227933 | 2.853637 | 2.0 | 10.744 | 2 | 39.071 | 10.902 | 35.120 | 2 |
| 2025-05-19T15:52:00 | 57.229183 | 2.850554 | 2.0 | 10.753 | 2 | 39.084 | 10.915 | 35.120 | 2 |
| 2025-05-19T15:53:00 | 57.230420 | 2.847494 | 2.0 | 10.747 | 2 | 39.093 | 10.922 | 35.122 | 2 |
| 2025-05-19T15:54:00 | 57.231639 | 2.844524 | 2.0 | 10.745 | 2 | 39.087 | 10.919 | 35.119 | 2 |
| 2025-05-19T15:55:00 | 57.232782 | 2.841453 | 2.0 | 10.737 | 2 | 39.086 | 10.914 | 35.123 | 2 |
| 2025-05-19T15:56:00 | 57.233784 | 2.838041 | 2.0 | 10.728 | 2 | 39.079 | 10.905 | 35.125 | 2 |
| 2025-05-19T15:57:00 | 57.235331 | 2.835925 | 2.0 | 10.713 | 2 | 39.069 | 10.896 | 35.123 | 2 |
| 2025-05-19T15:58:00 | 57.237055 | 2.836928 | 2.0 | 10.706 | 2 | 39.055 | 10.882 | 35.123 | 2 |
| 2025-05-19T15:59:00 | 57.238110 | 2.839973 | 2.0 | 10.711 | 2 | 39.051 | 10.879 | 35.122 | 2 |
| 2025-05-19T16:00:00 | 57.238253 | 2.843629 | 2.0 | 10.735 | 2 | 39.061 | 10.890 | 35.121 | 2 |
| 2025-05-19T16:01:00 | 57.238389 | 2.847168 | 2.0 | 10.736 | 2 | 39.079 | 10.906 | 35.124 | 2 |
| 2025-05-19T16:02:00 | 57.238452 | 2.850646 | 2.0 | 10.736 | 2 | 39.079 | 10.904 | 35.126 | 2 |
| 2025-05-19T16:03:00 | 57.238405 | 2.854050 | 2.0 | 10.744 | 2 | 39.083 | 10.909 | 35.125 | 2 |
| 2025-05-19T16:04:00 | 57.238325 | 2.857367 | 2.0 | 10.755 | 2 | 39.090 | 10.915 | 35.126 | 2 |
| 2025-05-19T16:05:00 | 57.238310 | 2.860620 | 2.0 | 10.762 | 2 | 39.099 | 10.925 | 35.126 | 2 |
| 2025-05-19T16:06:00 | 57.238327 | 2.863888 | 2.0 | 10.769 | 2 | 39.108 | 10.934 | 35.126 | 2 |
| 2025-05-19T16:07:00 | 57.238340 | 2.867205 | 2.0 | 10.760 | 2 | 39.110 | 10.935 | 35.127 | 2 |
| 2025-05-19T16:08:00 | 57.238344 | 2.870584 | 2.0 | 10.754 | 2 | 39.105 | 10.930 | 35.127 | 2 |
| 2025-05-19T16:09:00 | 57.238349 | 2.874017 | 2.0 | 10.750 | 2 | 39.099 | 10.923 | 35.127 | 2 |
| 2025-05-19T16:10:00 | 57.238355 | 2.877574 | 2.0 | 10.756 | 2 | 39.096 | 10.921 | 35.126 | 2 |
| 2025-05-19T16:11:00 | 57.238352 | 2.881180 | 2.0 | 10.759 | 2 | 39.100 | 10.926 | 35.126 | 2 |
| 2025-05-19T16:12:00 | 57.238377 | 2.884827 | 2.0 | 10.758 | 2 | 39.103 | 10.928 | 35.127 | 2 |
| 2025-05-19T16:13:00 | 57.238360 | 2.888512 | 2.0 | 10.771 | 2 | 39.106 | 10.929 | 35.129 | 2 |
| 2025-05-19T16:14:00 | 57.238373 | 2.892192 | 2.0 | 10.772 | 2 | 39.118 | 10.940 | 35.130 | 2 |
| 2025-05-19T16:15:00 | 57.238395 | 2.895871 | 2.0 | 10.775 | 2 | 39.121 | 10.942 | 35.131 | 2 |
| 2025-05-19T16:16:00 | 57.238421 | 2.899558 | 2.0 | 10.780 | 2 | 39.124 | 10.944 | 35.132 | 2 |
| 2025-05-19T16:17:00 | 57.238411 | 2.903263 | 2.0 | 10.782 | 2 | 39.129 | 10.949 | 35.133 | 2 |
| 2025-05-19T16:18:00 | 57.238406 | 2.906961 | 2.0 | 10.780 | 2 | 39.131 | 10.951 | 35.133 | 2 |
| 2025-05-19T16:19:00 | 57.238423 | 2.910621 | 2.0 | 10.775 | 2 | 39.129 | 10.947 | 35.134 | 2 |
| 2025-05-19T16:20:00 | 57.238456 | 2.914303 | 2.0 | 10.775 | 2 | 39.127 | 10.945 | 35.134 | 2 |
| 2025-05-19T16:21:00 | 57.238426 | 2.917991 | 2.0 | 10.782 | 2 | 39.129 | 10.946 | 35.135 | 2 |
| 2025-05-19T16:22:00 | 57.238420 | 2.921667 | 2.0 | 10.774 | 2 | 39.131 | 10.947 | 35.136 | 2 |
| 2025-05-19T16:23:00 | 57.238442 | 2.925345 | 2.0 | 10.785 | 2 | 39.130 | 10.946 | 35.136 | 2 |
| 2025-05-19T16:24:00 | 57.238441 | 2.929018 | 2.0 | 10.782 | 2 | 39.138 | 10.953 | 35.138 | 2 |
| 2025-05-19T16:25:00 | 57.238448 | 2.932672 | 2.0 | 10.784 | 2 | 39.137 | 10.950 | 35.140 | 2 |
| 2025-05-19T16:26:00 | 57.238477 | 2.936306 | 2.0 | 10.787 | 2 | 39.140 | 10.954 | 35.139 | 2 |
| 2025-05-19T16:27:00 | 57.238521 | 2.939996 | 2.0 | 10.789 | 2 | 39.142 | 10.955 | 35.140 | 2 |
| 2025-05-19T16:28:00 | 57.238506 | 2.943733 | 2.0 | 10.780 | 2 | 39.144 | 10.957 | 35.140 | 2 |
| 2025-05-19T16:29:00 | 57.238506 | 2.947463 | 2.0 | 10.778 | 2 | 39.139 | 10.949 | 35.143 | 2 |
| 2025-05-19T16:30:00 | 57.238498 | 2.951184 | 2.0 | 10.776 | 2 | 39.136 | 10.946 | 35.142 | 2 |
| 2025-05-19T16:31:00 | 57.238514 | 2.954865 | 2.0 | 10.776 | 2 | 39.134 | 10.944 | 35.142 | 2 |
| 2025-05-19T16:32:00 | 57.238559 | 2.958518 | 2.0 | 10.785 | 2 | 39.137 | 10.947 | 35.142 | 2 |
| 2025-05-19T16:33:00 | 57.238530 | 2.962156 | 2.0 | 10.789 | 2 | 39.145 | 10.955 | 35.143 | 2 |
| 2025-05-19T16:34:00 | 57.238507 | 2.965757 | 2.0 | 10.792 | 2 | 39.149 | 10.958 | 35.144 | 2 |
| 2025-05-19T16:35:00 | 57.238551 | 2.969348 | 2.0 | 10.799 | 2 | 39.153 | 10.962 | 35.144 | 2 |
| 2025-05-19T16:36:00 | 57.238580 | 2.972922 | 2.0 | 10.802 | 2 | 39.160 | 10.968 | 35.145 | 2 |
| 2025-05-19T16:37:00 | 57.238599 | 2.976500 | 2.0 | 10.807 | 2 | 39.163 | 10.971 | 35.146 | 2 |
| 2025-05-19T16:38:00 | 57.238614 | 2.980074 | 2.0 | 10.796 | 2 | 39.166 | 10.973 | 35.147 | 2 |
| 2025-05-19T16:39:00 | 57.238625 | 2.983667 | 2.0 | 10.791 | 2 | 39.159 | 10.965 | 35.147 | 2 |
| 2025-05-19T16:40:00 | 57.238591 | 2.987278 | 2.0 | 10.782 | 2 | 39.153 | 10.957 | 35.149 | 2 |
| 2025-05-19T16:41:00 | 57.238583 | 2.990898 | 2.0 | 10.813 | 2 | 39.151 | 10.956 | 35.148 | 2 |
| 2025-05-19T16:42:00 | 57.238613 | 2.994497 | 2.0 | 10.844 | 2 | 39.179 | 10.987 | 35.146 | 2 |
| 2025-05-19T16:43:00 | 57.238639 | 2.998090 | 2.0 | 10.855 | 2 | 39.203 | 11.012 | 35.146 | 2 |
| 2025-05-19T16:44:00 | 57.238630 | 3.001693 | 2.0 | 10.843 | 2 | 39.212 | 11.021 | 35.147 | 2 |
| 2025-05-19T16:45:00 | 57.238637 | 3.005298 | 2.0 | 10.869 | 2 | 39.207 | 11.014 | 35.148 | 2 |
| 2025-05-19T16:46:00 | 57.238640 | 3.008909 | 2.0 | 10.841 | 2 | 39.226 | 11.032 | 35.150 | 2 |
| 2025-05-19T16:47:00 | 57.238622 | 3.012496 | 2.0 | 10.799 | 2 | 39.202 | 11.003 | 35.154 | 2 |
| 2025-05-19T16:48:00 | 57.238640 | 3.016067 | 2.0 | 10.785 | 2 | 39.164 | 10.964 | 35.153 | 2 |
| 2025-05-19T16:49:00 | 57.238647 | 3.019638 | 2.0 | 10.795 | 2 | 39.154 | 10.956 | 35.151 | 2 |
| 2025-05-19T16:50:00 | 57.238680 | 3.023218 | 2.0 | 10.796 | 2 | 39.159 | 10.962 | 35.150 | 2 |
| 2025-05-19T16:51:00 | 57.238717 | 3.026794 | 2.0 | 10.833 | 2 | 39.165 | 10.971 | 35.148 | 2 |
| 2025-05-19T16:52:00 | 57.238709 | 3.030366 | 2.0 | 10.846 | 2 | 39.196 | 11.003 | 35.148 | 2 |
| 2025-05-19T16:53:00 | 57.238692 | 3.033916 | 2.0 | 10.828 | 2 | 39.202 | 11.008 | 35.149 | 2 |
| 2025-05-19T16:54:00 | 57.238716 | 3.037493 | 2.0 | 10.816 | 2 | 39.192 | 10.995 | 35.152 | 2 |
| 2025-05-19T16:55:00 | 57.238712 | 3.041087 | 2.0 | 10.796 | 2 | 39.179 | 10.981 | 35.152 | 2 |
| 2025-05-19T16:56:00 | 57.238722 | 3.044686 | 2.0 | 10.794 | 2 | 39.160 | 10.962 | 35.151 | 2 |
| 2025-05-19T16:57:00 | 57.238721 | 3.048269 | 2.0 | 10.836 | 2 | 39.164 | 10.970 | 35.147 | 2 |
| 2025-05-19T16:58:00 | 57.238733 | 3.051848 | 2.0 | 10.835 | 2 | 39.196 | 11.002 | 35.149 | 2 |
| 2025-05-19T16:59:00 | 57.238754 | 3.055419 | 2.0 | 10.845 | 2 | 39.196 | 11.005 | 35.146 | 2 |
| 2025-05-19T17:00:00 | 57.238782 | 3.058965 | 2.0 | 10.863 | 2 | 39.207 | 11.017 | 35.145 | 2 |
| 2025-05-19T17:01:00 | 57.238803 | 3.062520 | 2.0 | 10.842 | 2 | 39.220 | 11.026 | 35.150 | 2 |
| 2025-05-19T17:02:00 | 57.238784 | 3.066109 | 2.0 | 10.828 | 2 | 39.204 | 11.009 | 35.150 | 2 |
| 2025-05-19T17:03:00 | 57.238738 | 3.069713 | 2.0 | 10.815 | 2 | 39.190 | 10.994 | 35.150 | 2 |
| 2025-05-19T17:04:00 | 57.238729 | 3.073255 | 2.0 | 10.819 | 2 | 39.181 | 10.986 | 35.149 | 2 |
| 2025-05-19T17:05:00 | 57.238792 | 3.076759 | 2.0 | 10.805 | 2 | 39.180 | 10.984 | 35.150 | 2 |
| 2025-05-19T17:06:00 | 57.238852 | 3.080272 | 2.0 | 10.800 | 2 | 39.172 | 10.976 | 35.150 | 2 |
| 2025-05-19T17:07:00 | 57.238872 | 3.083809 | 2.0 | 10.793 | 2 | 39.166 | 10.970 | 35.149 | 2 |
| 2025-05-19T17:08:00 | 57.238850 | 3.087380 | 2.0 | 10.809 | 2 | 39.159 | 10.964 | 35.148 | 2 |
| 2025-05-19T17:09:00 | 57.238813 | 3.090964 | 2.0 | 10.804 | 2 | 39.168 | 10.977 | 35.145 | 2 |
| 2025-05-19T17:10:00 | 57.238803 | 3.094502 | 2.0 | 10.791 | 2 | 39.159 | 10.967 | 35.145 | 2 |
| 2025-05-19T17:11:00 | 57.238821 | 3.098053 | 2.0 | 10.807 | 2 | 39.154 | 10.961 | 35.146 | 2 |
| 2025-05-19T17:12:00 | 57.238827 | 3.101598 | 2.0 | 10.830 | 2 | 39.172 | 10.981 | 35.145 | 2 |
| 2025-05-19T17:13:00 | 57.238856 | 3.105120 | 2.0 | 10.849 | 2 | 39.191 | 11.000 | 35.146 | 2 |
| 2025-05-19T17:14:00 | 57.238873 | 3.108637 | 2.0 | 10.841 | 2 | 39.207 | 11.015 | 35.147 | 2 |
| 2025-05-19T17:15:00 | 57.238866 | 3.112160 | 2.0 | 10.841 | 2 | 39.199 | 11.005 | 35.149 | 2 |
| 2025-05-19T17:16:00 | 57.238849 | 3.115684 | 2.0 | 10.856 | 2 | 39.204 | 11.013 | 35.146 | 2 |
| 2025-05-19T17:17:00 | 57.238885 | 3.119221 | 2.0 | 10.859 | 2 | 39.216 | 11.025 | 35.147 | 2 |
| 2025-05-19T17:18:00 | 57.238896 | 3.122793 | 2.0 | 10.857 | 2 | 39.218 | 11.025 | 35.149 | 2 |
| 2025-05-19T17:19:00 | 57.238906 | 3.126351 | 2.0 | 10.854 | 2 | 39.217 | 11.024 | 35.149 | 2 |
| 2025-05-19T17:20:00 | 57.238905 | 3.129924 | 2.0 | 10.846 | 2 | 39.214 | 11.020 | 35.150 | 2 |
| 2025-05-19T17:21:00 | 57.238900 | 3.133475 | 2.0 | 10.854 | 2 | 39.209 | 11.015 | 35.149 | 2 |
| 2025-05-19T17:22:00 | 57.238950 | 3.137006 | 2.0 | 10.857 | 2 | 39.215 | 11.022 | 35.149 | 2 |
| 2025-05-19T17:23:00 | 57.238911 | 3.140575 | 2.0 | 10.869 | 2 | 39.215 | 11.027 | 35.144 | 2 |
| 2025-05-19T17:24:00 | 57.238896 | 3.144094 | 2.0 | 10.858 | 2 | 39.225 | 11.033 | 35.148 | 2 |
| 2025-05-19T17:25:00 | 57.238933 | 3.147606 | 2.0 | 10.868 | 2 | 39.222 | 11.028 | 35.150 | 2 |
| 2025-05-19T17:26:00 | 57.238971 | 3.151099 | 2.0 | 10.856 | 2 | 39.226 | 11.033 | 35.149 | 2 |
| 2025-05-19T17:27:00 | 57.239009 | 3.154624 | 2.0 | 10.860 | 2 | 39.220 | 11.024 | 35.152 | 2 |
| 2025-05-19T17:28:00 | 57.239013 | 3.158180 | 2.0 | 10.871 | 2 | 39.222 | 11.027 | 35.151 | 2 |
| 2025-05-19T17:29:00 | 57.238995 | 3.161739 | 2.0 | 10.858 | 2 | 39.227 | 11.036 | 35.147 | 2 |
| 2025-05-19T17:30:00 | 57.238980 | 3.165298 | 2.0 | 10.860 | 2 | 39.217 | 11.023 | 35.150 | 2 |
| 2025-05-19T17:31:00 | 57.238953 | 3.168836 | 2.0 | 10.888 | 2 | 39.225 | 11.032 | 35.149 | 2 |
| 2025-05-19T17:32:00 | 57.238986 | 3.172328 | 2.0 | 10.904 | 2 | 39.248 | 11.057 | 35.148 | 2 |
| 2025-05-19T17:33:00 | 57.239010 | 3.175831 | 2.0 | 10.930 | 2 | 39.263 | 11.071 | 35.150 | 2 |
| 2025-05-19T17:34:00 | 57.239036 | 3.179372 | 2.0 | 10.952 | 2 | 39.289 | 11.099 | 35.149 | 2 |
| 2025-05-19T17:35:00 | 57.239056 | 3.182929 | 2.0 | 10.951 | 2 | 39.308 | 11.117 | 35.151 | 2 |
| 2025-05-19T17:36:00 | 57.239055 | 3.186483 | 2.0 | 10.948 | 2 | 38.669 | 11.116 | 34.515 | 2 |
| 2025-05-19T17:37:00 | 57.239058 | 3.190017 | 2.0 | 10.946 | 2 | 39.307 | 11.115 | 35.152 | 2 |
| 2025-05-19T17:38:00 | 57.239055 | 3.193562 | 2.0 | 10.941 | 2 | 39.304 | 11.110 | 35.153 | 2 |
| 2025-05-19T17:39:00 | 57.239067 | 3.197128 | 2.0 | 10.932 | 2 | 39.300 | 11.106 | 35.153 | 2 |
| 2025-05-19T17:40:00 | 57.239048 | 3.200673 | 2.0 | 10.920 | 2 | 39.280 | 11.095 | 35.144 | 2 |
| 2025-05-19T17:41:00 | 57.239043 | 3.204251 | 2.0 | 10.914 | 2 | 39.282 | 11.087 | 35.153 | 2 |
| 2025-05-19T17:42:00 | 57.239054 | 3.207797 | 2.0 | 10.906 | 2 | 39.275 | 11.080 | 35.153 | 2 |
| 2025-05-19T17:43:00 | 57.239103 | 3.211299 | 2.0 | 10.888 | 2 | 39.267 | 11.071 | 35.154 | 2 |
| 2025-05-19T17:44:00 | 57.239149 | 3.214782 | 2.0 | 10.887 | 2 | 39.254 | 11.057 | 35.154 | 2 |
| 2025-05-19T17:45:00 | 57.239164 | 3.218284 | 2.0 | 10.885 | 2 | 39.252 | 11.056 | 35.153 | 2 |
| 2025-05-19T17:46:00 | 57.239159 | 3.221852 | 2.0 | 10.914 | 2 | 39.251 | 11.055 | 35.153 | 2 |
| 2025-05-19T17:47:00 | 57.239095 | 3.225458 | 2.0 | 10.945 | 2 | 39.228 | 11.082 | 35.104 | 2 |
| 2025-05-19T17:48:00 | 57.239055 | 3.229026 | 2.0 | 10.966 | 2 | 39.306 | 11.115 | 35.151 | 2 |
| 2025-05-19T17:49:00 | 57.239135 | 3.232520 | 2.0 | 10.967 | 2 | 39.324 | 11.129 | 35.155 | 2 |
| 2025-05-19T17:50:00 | 57.239187 | 3.236027 | 2.0 | 10.971 | 2 | 39.289 | 11.136 | 35.113 | 2 |
| 2025-05-19T17:51:00 | 57.239183 | 3.239605 | 2.0 | 10.974 | 2 | 39.150 | 11.137 | 34.974 | 2 |
| 2025-05-19T17:52:00 | 57.239146 | 3.243212 | 2.0 | 10.962 | 2 | 38.903 | 11.140 | 34.725 | 2 |
| 2025-05-19T17:53:00 | 57.239135 | 3.246795 | 2.0 | 10.939 | 2 | 39.272 | 11.125 | 35.107 | 2 |
| 2025-05-19T17:54:00 | 57.239189 | 3.250383 | 2.0 | 10.909 | 2 | 38.714 | 11.103 | 34.572 | 2 |
| 2025-05-19T17:55:00 | 57.239244 | 3.253971 | 2.0 | 10.919 | 2 | 38.862 | 11.080 | 34.741 | 2 |
| 2025-05-19T17:56:00 | 57.239244 | 3.257577 | 2.0 | 10.918 | 2 | 38.865 | 11.088 | 34.736 | 2 |
| 2025-05-19T17:57:00 | 57.239212 | 3.261190 | 2.0 | 10.922 | 2 | 38.850 | 11.085 | 34.724 | 2 |
| 2025-05-19T17:58:00 | 57.239217 | 3.264800 | 2.0 | 10.911 | 2 | 39.144 | 11.087 | 35.016 | 2 |
| 2025-05-19T17:59:00 | 57.239196 | 3.268426 | 2.0 | 10.900 | 2 | 38.711 | 11.078 | 34.592 | 2 |
| 2025-05-19T18:00:00 | 57.239189 | 3.272030 | 2.0 | 10.877 | 2 | 39.071 | 11.062 | 34.967 | 2 |
| 2025-05-19T18:01:00 | 57.239222 | 3.275601 | 2.0 | 10.891 | 2 | 38.508 | 11.046 | 34.420 | 2 |
| 2025-05-19T18:02:00 | 57.239221 | 3.279162 | 2.0 | 10.896 | 2 | 38.857 | 11.060 | 34.755 | 2 |
| 2025-05-19T18:03:00 | 57.239243 | 3.282710 | 2.0 | 10.888 | 2 | 38.793 | 11.060 | 34.691 | 2 |
| 2025-05-19T18:04:00 | 57.239254 | 3.286261 | 2.0 | 10.918 | 2 | 38.604 | 11.056 | 34.506 | 2 |
| 2025-05-19T18:05:00 | 57.239257 | 3.289839 | 2.0 | 10.934 | 2 | 38.950 | 11.086 | 34.823 | 2 |
| 2025-05-19T18:06:00 | 57.239276 | 3.293424 | 2.0 | 10.924 | 2 | 39.001 | 11.096 | 34.864 | 2 |
| 2025-05-19T18:07:00 | 57.239262 | 3.297016 | 2.0 | 10.928 | 2 | 38.746 | 11.091 | 34.615 | 2 |
| 2025-05-19T18:08:00 | 57.239269 | 3.300622 | 2.0 | 10.925 | 2 | 39.077 | 11.099 | 34.937 | 2 |
| 2025-05-19T18:09:00 | 57.239273 | 3.304225 | 2.0 | 10.902 | 2 | 38.948 | 11.082 | 34.825 | 2 |
| 2025-05-19T18:10:00 | 57.239280 | 3.307848 | 2.0 | 10.906 | 2 | 38.889 | 11.071 | 34.776 | 2 |
| 2025-05-19T18:11:00 | 57.239268 | 3.311489 | 2.0 | 10.903 | 2 | 38.805 | 11.073 | 34.691 | 2 |
| 2025-05-19T18:12:00 | 57.239254 | 3.315114 | 2.0 | 10.897 | 2 | 38.839 | 11.067 | 34.730 | 2 |
| 2025-05-19T18:13:00 | 57.239315 | 3.318713 | 2.0 | 10.911 | 2 | 38.936 | 11.070 | 34.824 | 2 |
| 2025-05-19T18:14:00 | 57.239352 | 3.322316 | 2.0 | 10.921 | 2 | 39.075 | 11.079 | 34.954 | 2 |
| 2025-05-19T18:15:00 | 57.239364 | 3.325932 | 2.0 | 10.912 | 2 | 38.966 | 11.085 | 34.840 | 2 |
| 2025-05-19T18:16:00 | 57.239134 | 3.329514 | 2.0 | 10.903 | 2 | 38.878 | 11.074 | 34.763 | 2 |
| 2025-05-19T18:17:00 | 57.237730 | 3.332081 | 2.0 | 10.889 | 2 | 38.866 | 11.067 | 34.757 | 2 |
| 2025-05-19T18:18:00 | 57.235688 | 3.332400 | 2.0 | 10.887 | 2 | 38.960 | 11.057 | 34.860 | 2 |
| 2025-05-19T18:19:00 | 57.233624 | 3.331961 | 2.0 | 10.872 | 2 | 39.083 | 11.051 | 34.989 | 2 |
| 2025-05-19T18:20:00 | 57.231707 | 3.332556 | 2.0 | 10.853 | 2 | 38.979 | 11.038 | 34.897 | 2 |
| 2025-05-19T18:21:00 | 57.229853 | 3.333246 | 2.0 | 10.859 | 2 | 38.991 | 11.023 | 34.924 | 2 |
| 2025-05-19T18:22:00 | 57.227962 | 3.333206 | 2.0 | 10.867 | 2 | 39.030 | 11.024 | 34.962 | 2 |
| 2025-05-19T18:23:00 | 57.226066 | 3.333191 | 2.0 | 10.879 | 2 | 39.057 | 11.037 | 34.976 | 2 |
| 2025-05-19T18:24:00 | 57.224157 | 3.333351 | 2.0 | 10.860 | 2 | 38.936 | 11.041 | 34.852 | 2 |
| 2025-05-19T18:25:00 | 57.222258 | 3.333477 | 2.0 | 10.862 | 2 | 39.032 | 11.029 | 34.959 | 2 |
| 2025-05-19T18:26:00 | 57.220357 | 3.333511 | 2.0 | 10.857 | 2 | 38.958 | 11.027 | 34.887 | 2 |
| 2025-05-19T18:27:00 | 57.218469 | 3.333454 | 2.0 | 10.861 | 2 | 38.940 | 11.027 | 34.869 | 2 |
| 2025-05-19T18:28:00 | 57.216535 | 3.333391 | 2.0 | 10.823 | 2 | 39.081 | 11.021 | 35.016 | 2 |
| 2025-05-19T18:29:00 | 57.214577 | 3.333377 | 2.0 | 10.833 | 2 | 38.930 | 10.994 | 34.890 | 2 |
| 2025-05-19T18:30:00 | 57.212624 | 3.333401 | 2.0 | 10.856 | 2 | 38.925 | 11.006 | 34.874 | 2 |
| 2025-05-19T18:31:00 | 57.210695 | 3.333465 | 2.0 | 10.852 | 2 | 39.041 | 11.023 | 34.974 | 2 |
| 2025-05-19T18:32:00 | 57.208757 | 3.333392 | 2.0 | 10.865 | 2 | 38.994 | 11.021 | 34.929 | 2 |
| 2025-05-19T18:33:00 | 57.206817 | 3.333422 | 2.0 | 10.868 | 2 | 39.015 | 11.033 | 34.938 | 2 |
| 2025-05-19T18:34:00 | 57.204882 | 3.333502 | 2.0 | 10.858 | 2 | 39.034 | 11.034 | 34.956 | 2 |
| 2025-05-19T18:35:00 | 57.202954 | 3.333467 | 2.0 | 10.851 | 2 | 39.013 | 11.022 | 34.947 | 2 |
| 2025-05-19T18:36:00 | 57.201032 | 3.333394 | 2.0 | 10.853 | 2 | 39.034 | 11.018 | 34.971 | 2 |
| 2025-05-19T18:37:00 | 57.199115 | 3.333433 | 2.0 | 10.849 | 2 | 39.015 | 11.020 | 34.951 | 2 |
| 2025-05-19T18:38:00 | 57.197208 | 3.333492 | 2.0 | 10.851 | 2 | 39.041 | 11.012 | 34.984 | 2 |
| 2025-05-19T18:39:00 | 57.195311 | 3.333524 | 2.0 | 10.849 | 2 | 39.043 | 11.021 | 34.978 | 2 |
| 2025-05-19T18:40:00 | 57.193404 | 3.333485 | 2.0 | 10.806 | 2 | 39.038 | 11.007 | 34.986 | 2 |
| 2025-05-19T18:41:00 | 57.191499 | 3.333433 | 2.0 | 10.827 | 2 | 39.042 | 10.980 | 35.016 | 2 |
| 2025-05-19T18:42:00 | 57.189595 | 3.333431 | 2.0 | 10.808 | 2 | 39.024 | 10.991 | 34.987 | 2 |
| 2025-05-19T18:43:00 | 57.187689 | 3.333511 | 2.0 | 10.831 | 2 | 39.027 | 10.979 | 35.002 | 2 |
| 2025-05-19T18:44:00 | 57.185793 | 3.333583 | 2.0 | 10.826 | 2 | 39.089 | 11.001 | 35.043 | 2 |
| 2025-05-19T18:45:00 | 57.183887 | 3.333537 | 2.0 | 10.785 | 2 | 39.079 | 10.983 | 35.050 | 2 |
| 2025-05-19T18:46:00 | 57.181995 | 3.333471 | 2.0 | 10.814 | 2 | 39.048 | 10.961 | 35.040 | 2 |
| 2025-05-19T18:47:00 | 57.180070 | 3.333333 | 2.0 | 10.815 | 2 | 39.064 | 10.978 | 35.040 | 2 |
| 2025-05-19T18:48:00 | 57.178117 | 3.333272 | 2.0 | 10.817 | 2 | 39.091 | 10.983 | 35.062 | 2 |
| 2025-05-19T18:49:00 | 57.176168 | 3.333353 | 2.0 | 10.847 | 2 | 39.103 | 10.989 | 35.068 | 2 |
| 2025-05-19T18:50:00 | 57.174234 | 3.333416 | 2.0 | 10.855 | 2 | 39.114 | 11.016 | 35.053 | 2 |
| 2025-05-19T18:51:00 | 57.172292 | 3.333436 | 2.0 | 10.840 | 2 | 39.118 | 11.016 | 35.057 | 2 |
| 2025-05-19T18:52:00 | 57.170332 | 3.333424 | 2.0 | 10.855 | 2 | 39.135 | 11.011 | 35.079 | 2 |
| 2025-05-19T18:53:00 | 57.168386 | 3.333404 | 2.0 | 10.857 | 2 | 39.127 | 11.021 | 35.062 | 2 |
| 2025-05-19T18:54:00 | 57.166437 | 3.333426 | 2.0 | 10.869 | 2 | 39.142 | 11.026 | 35.072 | 2 |
| 2025-05-19T18:55:00 | 57.164484 | 3.333493 | 2.0 | 10.866 | 2 | 39.197 | 11.035 | 35.118 | 2 |
| 2025-05-19T18:56:00 | 57.162518 | 3.333506 | 2.0 | 10.895 | 2 | 39.198 | 11.036 | 35.118 | 2 |
| 2025-05-19T18:57:00 | 57.160562 | 3.333444 | 2.0 | 10.913 | 2 | 39.208 | 11.064 | 35.101 | 2 |
| 2025-05-19T18:58:00 | 57.158590 | 3.333426 | 2.0 | 10.883 | 2 | 39.234 | 11.071 | 35.121 | 2 |
| 2025-05-19T18:59:00 | 57.156623 | 3.333459 | 2.0 | 10.903 | 2 | 39.211 | 11.056 | 35.112 | 2 |
| 2025-05-19T19:00:00 | 57.154667 | 3.333456 | 2.0 | 10.871 | 2 | 39.234 | 11.065 | 35.126 | 2 |
| 2025-05-19T19:01:00 | 57.152710 | 3.333427 | 2.0 | 10.879 | 2 | 39.212 | 11.040 | 35.128 | 2 |
| 2025-05-19T19:02:00 | 57.150743 | 3.333496 | 2.0 | 10.890 | 2 | 39.219 | 11.047 | 35.129 | 2 |
| 2025-05-19T19:03:00 | 57.148784 | 3.333480 | 2.0 | 10.884 | 2 | 39.233 | 11.057 | 35.133 | 2 |
| 2025-05-19T19:04:00 | 57.146839 | 3.333436 | 2.0 | 10.883 | 2 | 39.230 | 11.048 | 35.139 | 2 |
| 2025-05-19T19:05:00 | 57.144896 | 3.333414 | 2.0 | 10.871 | 2 | 39.228 | 11.049 | 35.136 | 2 |
| 2025-05-19T19:06:00 | 57.142943 | 3.333425 | 2.0 | 10.871 | 2 | 39.229 | 11.040 | 35.145 | 2 |
| 2025-05-19T19:07:00 | 57.140978 | 3.333415 | 2.0 | 10.843 | 2 | 39.224 | 11.033 | 35.147 | 2 |
| 2025-05-19T19:08:00 | 57.139002 | 3.333434 | 2.0 | 10.840 | 2 | 39.204 | 11.012 | 35.147 | 2 |
| 2025-05-19T19:09:00 | 57.137032 | 3.333452 | 2.0 | 10.858 | 2 | 39.201 | 11.011 | 35.145 | 2 |
| 2025-05-19T19:10:00 | 57.135079 | 3.333483 | 2.0 | 10.858 | 2 | 39.213 | 11.026 | 35.143 | 2 |
| 2025-05-19T19:11:00 | 57.133133 | 3.333481 | 2.0 | 10.838 | 2 | 39.209 | 11.018 | 35.146 | 2 |
| 2025-05-19T19:12:00 | 57.131203 | 3.333425 | 2.0 | 10.835 | 2 | 39.197 | 11.006 | 35.146 | 2 |
| 2025-05-19T19:13:00 | 57.129278 | 3.333372 | 2.0 | 10.813 | 2 | 39.189 | 10.998 | 35.146 | 2 |
| 2025-05-19T19:14:00 | 57.127352 | 3.333395 | 2.0 | 10.830 | 2 | 39.172 | 10.982 | 35.144 | 2 |
| 2025-05-19T19:15:00 | 57.125417 | 3.333425 | 2.0 | 10.824 | 2 | 39.187 | 11.000 | 35.142 | 2 |
| 2025-05-19T19:16:00 | 57.123495 | 3.333474 | 2.0 | 10.807 | 2 | 39.175 | 10.985 | 35.144 | 2 |
| 2025-05-19T19:17:00 | 57.121558 | 3.333468 | 2.0 | 10.807 | 2 | 39.164 | 10.976 | 35.142 | 2 |
| 2025-05-19T19:18:00 | 57.119620 | 3.333381 | 2.0 | 10.818 | 2 | 39.164 | 10.978 | 35.140 | 2 |
| 2025-05-19T19:19:00 | 57.117676 | 3.333353 | 2.0 | 10.812 | 2 | 39.170 | 10.984 | 35.140 | 2 |
| 2025-05-19T19:20:00 | 57.115742 | 3.333397 | 2.0 | 10.815 | 2 | 39.166 | 10.981 | 35.139 | 2 |
| 2025-05-19T19:21:00 | 57.113816 | 3.333492 | 2.0 | 10.833 | 2 | 39.168 | 10.984 | 35.138 | 2 |
| 2025-05-19T19:22:00 | 57.111880 | 3.333429 | 2.0 | 10.819 | 2 | 39.181 | 10.997 | 35.139 | 2 |
| 2025-05-19T19:23:00 | 57.109938 | 3.333370 | 2.0 | 10.810 | 2 | 39.170 | 10.984 | 35.140 | 2 |
| 2025-05-19T19:24:00 | 57.107989 | 3.333392 | 2.0 | 10.811 | 2 | 39.161 | 10.978 | 35.137 | 2 |
| 2025-05-19T19:25:00 | 57.106041 | 3.333485 | 2.0 | 10.822 | 2 | 39.161 | 10.978 | 35.137 | 2 |
| 2025-05-19T19:26:00 | 57.104094 | 3.333490 | 2.0 | 10.812 | 2 | 39.170 | 10.987 | 35.137 | 2 |
| 2025-05-19T19:27:00 | 57.102160 | 3.333445 | 2.0 | 10.813 | 2 | 39.162 | 10.979 | 35.137 | 2 |
| 2025-05-19T19:28:00 | 57.100219 | 3.333384 | 2.0 | 10.820 | 2 | 39.166 | 10.983 | 35.137 | 2 |
| 2025-05-19T19:29:00 | 57.098295 | 3.333442 | 2.0 | 10.814 | 2 | 39.170 | 10.986 | 35.138 | 2 |
| 2025-05-19T19:30:00 | 57.096378 | 3.333521 | 2.0 | 10.809 | 2 | 39.163 | 10.979 | 35.138 | 2 |
| 2025-05-19T19:31:00 | 57.094476 | 3.333473 | 2.0 | 10.803 | 2 | 39.156 | 10.975 | 35.135 | 2 |
| 2025-05-19T19:32:00 | 57.092575 | 3.333400 | 2.0 | 10.802 | 2 | 39.149 | 10.971 | 35.131 | 2 |
| 2025-05-19T19:33:00 | 57.090666 | 3.333392 | 2.0 | 10.809 | 2 | 39.152 | 10.970 | 35.135 | 2 |
| 2025-05-19T19:34:00 | 57.088756 | 3.333368 | 2.0 | 10.803 | 2 | 39.157 | 10.975 | 35.136 | 2 |
| 2025-05-19T19:35:00 | 57.086843 | 3.333408 | 2.0 | 10.803 | 2 | 39.154 | 10.970 | 35.137 | 2 |
| 2025-05-19T19:36:00 | 57.084924 | 3.333430 | 2.0 | 10.813 | 2 | 39.153 | 10.971 | 35.135 | 2 |
| 2025-05-19T19:37:00 | 57.082997 | 3.333395 | 2.0 | 10.818 | 2 | 39.164 | 10.984 | 35.134 | 2 |
| 2025-05-19T19:38:00 | 57.081087 | 3.333387 | 2.0 | 10.805 | 2 | 39.163 | 10.981 | 35.136 | 2 |
| 2025-05-19T19:39:00 | 57.079170 | 3.333427 | 2.0 | 10.786 | 2 | 39.149 | 10.967 | 35.135 | 2 |
| 2025-05-19T19:40:00 | 57.077254 | 3.333441 | 2.0 | 10.798 | 2 | 39.135 | 10.955 | 35.133 | 2 |
| 2025-05-19T19:41:00 | 57.075350 | 3.333386 | 2.0 | 10.807 | 2 | 39.143 | 10.967 | 35.129 | 2 |
| 2025-05-19T19:42:00 | 57.073445 | 3.333372 | 2.0 | 10.822 | 2 | 39.151 | 10.976 | 35.129 | 2 |
| 2025-05-19T19:43:00 | 57.071510 | 3.333318 | 2.0 | 10.825 | 2 | 39.164 | 10.990 | 35.128 | 2 |
| 2025-05-19T19:44:00 | 57.069576 | 3.333382 | 2.0 | 10.844 | 2 | 39.166 | 10.994 | 35.126 | 2 |
| 2025-05-19T19:45:00 | 57.067649 | 3.333443 | 2.0 | 10.838 | 2 | 39.176 | 11.008 | 35.123 | 2 |
| 2025-05-19T19:46:00 | 57.065705 | 3.333399 | 2.0 | 10.828 | 2 | 39.175 | 11.006 | 35.124 | 2 |
| 2025-05-19T19:47:00 | 57.063763 | 3.333406 | 2.0 | 10.814 | 2 | 39.163 | 10.994 | 35.123 | 2 |
| 2025-05-19T19:48:00 | 57.061812 | 3.333412 | 2.0 | 10.821 | 2 | 39.151 | 10.983 | 35.122 | 2 |
| 2025-05-19T19:49:00 | 57.059843 | 3.333372 | 2.0 | 10.831 | 2 | 39.154 | 10.989 | 35.119 | 2 |
| 2025-05-19T19:50:00 | 57.057885 | 3.333403 | 2.0 | 10.817 | 2 | 39.158 | 10.996 | 35.117 | 2 |
| 2025-05-19T19:51:00 | 57.055928 | 3.333417 | 2.0 | 10.805 | 2 | 39.144 | 10.981 | 35.117 | 2 |
| 2025-05-19T19:52:00 | 57.053981 | 3.333410 | 2.0 | 10.811 | 2 | 39.137 | 10.975 | 35.116 | 2 |
| 2025-05-19T19:53:00 | 57.052035 | 3.333341 | 2.0 | 10.801 | 2 | 39.136 | 10.973 | 35.117 | 2 |
| 2025-05-19T19:54:00 | 57.050107 | 3.333379 | 2.0 | 10.807 | 2 | 39.135 | 10.975 | 35.114 | 2 |
| 2025-05-19T19:55:00 | 57.048182 | 3.333456 | 2.0 | 10.809 | 2 | 39.135 | 10.973 | 35.116 | 2 |
| 2025-05-19T19:56:00 | 57.046255 | 3.333444 | 2.0 | 10.836 | 2 | 39.132 | 10.979 | 35.107 | 2 |
| 2025-05-19T19:57:00 | 57.044323 | 3.333385 | 2.0 | 10.854 | 2 | 39.162 | 11.008 | 35.109 | 2 |
| 2025-05-19T19:58:00 | 57.042405 | 3.333296 | 2.0 | 10.807 | 2 | 39.171 | 11.014 | 35.112 | 2 |
| 2025-05-19T19:59:00 | 57.040473 | 3.333290 | 2.0 | 10.819 | 2 | 39.138 | 10.981 | 35.111 | 2 |
| 2025-05-19T20:00:00 | 57.038553 | 3.333286 | 2.0 | 10.827 | 2 | 39.141 | 10.986 | 35.109 | 2 |
| 2025-05-19T20:01:00 | 57.036614 | 3.333321 | 2.0 | 10.838 | 2 | 39.150 | 10.996 | 35.109 | 2 |
| 2025-05-19T20:02:00 | 57.034672 | 3.333443 | 2.0 | 10.845 | 2 | 39.154 | 11.004 | 35.105 | 2 |
| 2025-05-19T20:03:00 | 57.032737 | 3.333432 | 2.0 | 10.848 | 2 | 39.163 | 11.013 | 35.105 | 2 |
| 2025-05-19T20:04:00 | 57.030816 | 3.333395 | 2.0 | 10.857 | 2 | 39.166 | 11.015 | 35.106 | 2 |
| 2025-05-19T20:05:00 | 57.028890 | 3.333356 | 2.0 | 10.867 | 2 | 39.175 | 11.025 | 35.106 | 2 |
| 2025-05-19T20:06:00 | 57.026970 | 3.333324 | 2.0 | 10.870 | 2 | 39.182 | 11.035 | 35.103 | 2 |
| 2025-05-19T20:07:00 | 57.025053 | 3.333385 | 2.0 | 10.868 | 2 | 39.183 | 11.035 | 35.104 | 2 |
| 2025-05-19T20:08:00 | 57.023139 | 3.333419 | 2.0 | 10.869 | 2 | 39.185 | 11.037 | 35.104 | 2 |
| 2025-05-19T20:09:00 | 57.021219 | 3.333369 | 2.0 | 10.864 | 2 | 39.183 | 11.033 | 35.106 | 2 |
| 2025-05-19T20:10:00 | 57.019300 | 3.333404 | 2.0 | 10.874 | 2 | 39.181 | 11.033 | 35.104 | 2 |
| 2025-05-19T20:11:00 | 57.017384 | 3.333417 | 2.0 | 10.888 | 2 | 39.188 | 11.043 | 35.102 | 2 |
| 2025-05-19T20:12:00 | 57.015474 | 3.333372 | 2.0 | 10.861 | 2 | 39.198 | 11.053 | 35.102 | 2 |
| 2025-05-19T20:13:00 | 57.013556 | 3.333423 | 2.0 | 10.846 | 2 | 39.165 | 11.023 | 35.098 | 2 |
| 2025-05-19T20:14:00 | 57.011629 | 3.333474 | 2.0 | 10.880 | 2 | 39.159 | 11.021 | 35.094 | 2 |
| 2025-05-19T20:15:00 | 57.009723 | 3.333404 | 2.0 | 10.886 | 2 | 39.185 | 11.046 | 35.096 | 2 |
| 2025-05-19T20:16:00 | 57.007805 | 3.333319 | 2.0 | 10.898 | 2 | 39.196 | 11.053 | 35.100 | 2 |
| 2025-05-19T20:17:00 | 57.005890 | 3.333310 | 2.0 | 10.911 | 2 | 39.210 | 11.066 | 35.102 | 2 |
| 2025-05-19T20:18:00 | 57.003967 | 3.333379 | 2.0 | 10.916 | 2 | 39.222 | 11.078 | 35.102 | 2 |
| 2025-05-19T20:19:00 | 57.002043 | 3.333521 | 2.0 | 10.912 | 2 | 39.227 | 11.082 | 35.103 | 2 |
| 2025-05-19T20:20:00 | 57.000108 | 3.333509 | 2.0 | 10.912 | 2 | 39.225 | 11.079 | 35.104 | 2 |
| 2025-05-19T20:21:00 | 56.998182 | 3.333355 | 2.0 | 10.905 | 2 | 39.221 | 11.076 | 35.103 | 2 |
| 2025-05-19T20:22:00 | 56.996273 | 3.333282 | 2.0 | 10.910 | 2 | 39.215 | 11.072 | 35.101 | 2 |
| 2025-05-19T20:23:00 | 56.994343 | 3.333346 | 2.0 | 10.903 | 2 | 39.214 | 11.075 | 35.097 | 2 |
| 2025-05-19T20:24:00 | 56.992439 | 3.333416 | 2.0 | 10.890 | 2 | 39.210 | 11.068 | 35.100 | 2 |
| 2025-05-19T20:25:00 | 56.990543 | 3.333422 | 2.0 | 10.881 | 2 | 39.198 | 11.054 | 35.101 | 2 |
| 2025-05-19T20:26:00 | 56.988649 | 3.333336 | 2.0 | 10.880 | 2 | 39.189 | 11.049 | 35.097 | 2 |
| 2025-05-19T20:27:00 | 56.986747 | 3.333257 | 2.0 | 10.878 | 2 | 39.186 | 11.045 | 35.098 | 2 |
| 2025-05-19T20:28:00 | 56.984858 | 3.333287 | 2.0 | 10.881 | 2 | 39.186 | 11.045 | 35.098 | 2 |
| 2025-05-19T20:29:00 | 56.982948 | 3.333368 | 2.0 | 10.883 | 2 | 39.190 | 11.048 | 35.099 | 2 |
| 2025-05-19T20:30:00 | 56.981038 | 3.333385 | 2.0 | 10.890 | 2 | 39.194 | 11.051 | 35.100 | 2 |
| 2025-05-19T20:31:00 | 56.979135 | 3.333378 | 2.0 | 10.898 | 2 | 39.201 | 11.059 | 35.099 | 2 |
| 2025-05-19T20:32:00 | 56.977237 | 3.333441 | 2.0 | 10.887 | 2 | 39.201 | 11.060 | 35.098 | 2 |
| 2025-05-19T20:33:00 | 56.975347 | 3.333528 | 2.0 | 10.894 | 2 | 39.195 | 11.056 | 35.096 | 2 |
| 2025-05-19T20:34:00 | 56.973456 | 3.333447 | 2.0 | 10.880 | 2 | 39.196 | 11.054 | 35.099 | 2 |
| 2025-05-19T20:35:00 | 56.971566 | 3.333307 | 2.0 | 10.870 | 2 | 39.185 | 11.045 | 35.097 | 2 |
| 2025-05-19T20:36:00 | 56.969678 | 3.333305 | 2.0 | 10.865 | 2 | 39.178 | 11.037 | 35.097 | 2 |
| 2025-05-19T20:37:00 | 56.967793 | 3.333439 | 2.0 | 10.862 | 2 | 39.174 | 11.031 | 35.099 | 2 |
| 2025-05-19T20:38:00 | 56.965926 | 3.333509 | 2.0 | 10.869 | 2 | 39.168 | 11.030 | 35.094 | 2 |
| 2025-05-19T20:39:00 | 56.964045 | 3.333366 | 2.0 | 10.861 | 2 | 39.173 | 11.034 | 35.095 | 2 |
| 2025-05-19T20:40:00 | 56.962165 | 3.333290 | 2.0 | 10.852 | 2 | 39.167 | 11.027 | 35.096 | 2 |
| 2025-05-19T20:41:00 | 56.960297 | 3.333355 | 2.0 | 10.853 | 2 | 39.160 | 11.019 | 35.097 | 2 |
| 2025-05-19T20:42:00 | 56.958425 | 3.333408 | 2.0 | 10.852 | 2 | 39.160 | 11.019 | 35.097 | 2 |
| 2025-05-19T20:43:00 | 56.956566 | 3.333398 | 2.0 | 10.872 | 2 | 39.162 | 11.022 | 35.096 | 2 |
| 2025-05-19T20:44:00 | 56.954704 | 3.333310 | 2.0 | 10.876 | 2 | 39.177 | 11.038 | 35.095 | 2 |
| 2025-05-19T20:45:00 | 56.952823 | 3.333302 | 2.0 | 10.877 | 2 | 39.181 | 11.041 | 35.096 | 2 |
| 2025-05-19T20:46:00 | 56.950942 | 3.333361 | 2.0 | 10.867 | 2 | 39.183 | 11.042 | 35.098 | 2 |
| 2025-05-19T20:47:00 | 56.949061 | 3.333443 | 2.0 | 10.866 | 2 | 39.174 | 11.033 | 35.097 | 2 |
| 2025-05-19T20:48:00 | 56.947178 | 3.333427 | 2.0 | 10.861 | 2 | 39.173 | 11.031 | 35.098 | 2 |
| 2025-05-19T20:49:00 | 56.945300 | 3.333377 | 2.0 | 10.851 | 2 | 39.167 | 11.026 | 35.097 | 2 |
| 2025-05-19T20:50:00 | 56.943420 | 3.333347 | 2.0 | 10.848 | 2 | 39.159 | 11.018 | 35.096 | 2 |
| 2025-05-19T20:51:00 | 56.941521 | 3.333301 | 2.0 | 10.852 | 2 | 39.157 | 11.016 | 35.096 | 2 |
| 2025-05-19T20:52:00 | 56.939624 | 3.333285 | 2.0 | 10.844 | 2 | 39.159 | 11.018 | 35.096 | 2 |
| 2025-05-19T20:53:00 | 56.937737 | 3.333335 | 2.0 | 10.845 | 2 | 39.152 | 11.011 | 35.096 | 2 |
| 2025-05-19T20:54:00 | 56.935871 | 3.333434 | 2.0 | 10.849 | 2 | 39.153 | 11.012 | 35.096 | 2 |
| 2025-05-19T20:55:00 | 56.934002 | 3.333400 | 2.0 | 10.859 | 2 | 39.157 | 11.017 | 35.095 | 2 |
| 2025-05-19T20:56:00 | 56.932115 | 3.333329 | 2.0 | 10.862 | 2 | 39.164 | 11.025 | 35.095 | 2 |
| 2025-05-19T20:57:00 | 56.930208 | 3.333352 | 2.0 | 10.864 | 2 | 39.169 | 11.029 | 35.096 | 2 |
| 2025-05-19T20:58:00 | 56.928289 | 3.333389 | 2.0 | 10.870 | 2 | 39.172 | 11.031 | 35.097 | 2 |
| 2025-05-19T20:59:00 | 56.926343 | 3.333365 | 2.0 | 10.863 | 2 | 39.175 | 11.035 | 35.096 | 2 |
| 2025-05-19T21:00:00 | 56.924396 | 3.333347 | 2.0 | 10.868 | 2 | 39.169 | 11.028 | 35.097 | 2 |
| 2025-05-19T21:01:00 | 56.922445 | 3.333365 | 2.0 | 10.880 | 2 | 39.176 | 11.036 | 35.096 | 2 |
| 2025-05-19T21:02:00 | 56.920493 | 3.333386 | 2.0 | 10.888 | 2 | 39.180 | 11.047 | 35.090 | 2 |
| 2025-05-19T21:03:00 | 56.918543 | 3.333390 | 2.0 | 10.884 | 2 | 39.189 | 11.054 | 35.092 | 2 |
| 2025-05-19T21:04:00 | 56.916600 | 3.333415 | 2.0 | 10.861 | 2 | 39.183 | 11.046 | 35.094 | 2 |
| 2025-05-19T21:05:00 | 56.914674 | 3.333385 | 2.0 | 10.846 | 2 | 39.161 | 11.024 | 35.093 | 2 |
| 2025-05-19T21:06:00 | 56.912760 | 3.333354 | 2.0 | 10.850 | 2 | 39.147 | 11.013 | 35.089 | 2 |
| 2025-05-19T21:07:00 | 56.910856 | 3.333411 | 2.0 | 10.854 | 2 | 39.151 | 11.018 | 35.088 | 2 |
| 2025-05-19T21:08:00 | 56.908952 | 3.333372 | 2.0 | 10.838 | 2 | 39.152 | 11.018 | 35.089 | 2 |
| 2025-05-19T21:09:00 | 56.907055 | 3.333340 | 2.0 | 10.831 | 2 | 39.134 | 11.002 | 35.087 | 2 |
| 2025-05-19T21:10:00 | 56.905165 | 3.333351 | 2.0 | 10.835 | 2 | 39.131 | 10.999 | 35.087 | 2 |
| 2025-05-19T21:11:00 | 56.903293 | 3.333345 | 2.0 | 10.829 | 2 | 39.131 | 10.999 | 35.087 | 2 |
| 2025-05-19T21:12:00 | 56.901441 | 3.333314 | 2.0 | 10.839 | 2 | 39.129 | 10.997 | 35.087 | 2 |
| 2025-05-19T21:13:00 | 56.899588 | 3.333331 | 2.0 | 10.854 | 2 | 39.139 | 11.009 | 35.085 | 2 |
| 2025-05-19T21:14:00 | 56.897727 | 3.333410 | 2.0 | 10.865 | 2 | 39.151 | 11.020 | 35.087 | 2 |
| 2025-05-19T21:15:00 | 56.895858 | 3.333389 | 2.0 | 10.880 | 2 | 39.165 | 11.033 | 35.088 | 2 |
| 2025-05-19T21:16:00 | 56.893994 | 3.333333 | 2.0 | 10.902 | 2 | 39.180 | 11.049 | 35.088 | 2 |
| 2025-05-19T21:17:00 | 56.892131 | 3.333421 | 2.0 | 10.919 | 2 | 39.194 | 11.068 | 35.084 | 2 |
| 2025-05-19T21:18:00 | 56.890287 | 3.333480 | 2.0 | 10.924 | 2 | 39.212 | 11.085 | 35.085 | 2 |
| 2025-05-19T21:19:00 | 56.888446 | 3.333419 | 2.0 | 10.925 | 2 | 39.218 | 11.089 | 35.088 | 2 |
| 2025-05-19T21:20:00 | 56.886593 | 3.333323 | 2.0 | 10.920 | 2 | 39.219 | 11.090 | 35.088 | 2 |
| 2025-05-19T21:21:00 | 56.884749 | 3.333363 | 2.0 | 10.912 | 2 | 39.213 | 11.084 | 35.087 | 2 |
| 2025-05-19T21:22:00 | 56.882913 | 3.333408 | 2.0 | 10.903 | 2 | 39.203 | 11.076 | 35.085 | 2 |
| 2025-05-19T21:23:00 | 56.881074 | 3.333426 | 2.0 | 10.890 | 2 | 39.192 | 11.068 | 35.082 | 2 |
| 2025-05-19T21:24:00 | 56.879232 | 3.333430 | 2.0 | 10.858 | 2 | 39.170 | 11.052 | 35.075 | 2 |
| 2025-05-19T21:25:00 | 56.877381 | 3.333381 | 2.0 | 10.830 | 2 | 39.135 | 11.020 | 35.071 | 2 |
| 2025-05-19T21:26:00 | 56.875539 | 3.333340 | 2.0 | 10.810 | 2 | 39.105 | 10.996 | 35.064 | 2 |
| 2025-05-19T21:27:00 | 56.873677 | 3.333350 | 2.0 | 10.793 | 2 | 39.075 | 10.971 | 35.057 | 2 |
| 2025-05-19T21:28:00 | 56.871802 | 3.333377 | 2.0 | 10.776 | 2 | 39.055 | 10.959 | 35.049 | 2 |
| 2025-05-19T21:29:00 | 56.869929 | 3.333381 | 2.0 | 10.776 | 2 | 39.038 | 10.942 | 35.048 | 2 |
| 2025-05-19T21:30:00 | 56.868057 | 3.333362 | 2.0 | 10.769 | 2 | 39.038 | 10.943 | 35.047 | 2 |
| 2025-05-19T21:31:00 | 56.866178 | 3.333425 | 2.0 | 10.766 | 2 | 39.032 | 10.936 | 35.048 | 2 |
| 2025-05-19T21:32:00 | 56.864312 | 3.333413 | 2.0 | 10.754 | 2 | 39.025 | 10.932 | 35.045 | 2 |
| 2025-05-19T21:33:00 | 56.862464 | 3.333374 | 2.0 | 10.748 | 2 | 39.015 | 10.922 | 35.044 | 2 |
| 2025-05-19T21:34:00 | 56.860601 | 3.333369 | 2.0 | 10.737 | 2 | 39.006 | 10.911 | 35.046 | 2 |
| 2025-05-19T21:35:00 | 56.858755 | 3.333452 | 2.0 | 10.746 | 2 | 38.994 | 10.906 | 35.038 | 2 |
| 2025-05-19T21:36:00 | 56.856924 | 3.333461 | 2.0 | 10.757 | 2 | 39.004 | 10.916 | 35.039 | 2 |
| 2025-05-19T21:37:00 | 56.855107 | 3.333313 | 2.0 | 10.754 | 2 | 39.013 | 10.923 | 35.041 | 2 |
| 2025-05-19T21:38:00 | 56.853291 | 3.333251 | 2.0 | 10.755 | 2 | 39.014 | 10.922 | 35.043 | 2 |
| 2025-05-19T21:39:00 | 56.851469 | 3.333280 | 2.0 | 10.761 | 2 | 39.017 | 10.922 | 35.046 | 2 |
| 2025-05-19T21:40:00 | 56.849634 | 3.333339 | 2.0 | 10.763 | 2 | 39.029 | 10.929 | 35.052 | 2 |
| 2025-05-19T21:41:00 | 56.847796 | 3.333413 | 2.0 | 10.773 | 2 | 39.033 | 10.930 | 35.055 | 2 |
| 2025-05-19T21:42:00 | 56.845947 | 3.333406 | 2.0 | 10.798 | 2 | 39.040 | 10.943 | 35.049 | 2 |
| 2025-05-19T21:43:00 | 56.844103 | 3.333347 | 2.0 | 10.828 | 2 | 39.063 | 10.968 | 35.048 | 2 |
| 2025-05-19T21:44:00 | 56.842253 | 3.333320 | 2.0 | 10.834 | 2 | 39.089 | 10.993 | 35.050 | 2 |
| 2025-05-19T21:45:00 | 56.840402 | 3.333361 | 2.0 | 10.829 | 2 | 39.093 | 10.997 | 35.051 | 2 |
| 2025-05-19T21:46:00 | 56.838561 | 3.333352 | 2.0 | 10.833 | 2 | 39.089 | 10.995 | 35.048 | 2 |
| 2025-05-19T21:47:00 | 56.836717 | 3.333320 | 2.0 | 10.834 | 2 | 39.087 | 10.998 | 35.044 | 2 |
| 2025-05-19T21:48:00 | 56.834866 | 3.333372 | 2.0 | 10.821 | 2 | 39.089 | 11.000 | 35.044 | 2 |
| 2025-05-19T21:49:00 | 56.833001 | 3.333412 | 2.0 | 10.824 | 2 | 39.075 | 10.988 | 35.041 | 2 |
| 2025-05-19T21:50:00 | 56.831140 | 3.333408 | 2.0 | 10.837 | 2 | 39.074 | 10.991 | 35.037 | 2 |
| 2025-05-19T21:51:00 | 56.829281 | 3.333412 | 2.0 | 10.849 | 2 | 39.084 | 11.006 | 35.033 | 2 |
| 2025-05-19T21:52:00 | 56.827424 | 3.333421 | 2.0 | 10.842 | 2 | 39.091 | 11.013 | 35.033 | 2 |
| 2025-05-19T21:53:00 | 56.825567 | 3.333419 | 2.0 | 10.827 | 2 | 39.080 | 11.003 | 35.032 | 2 |
| 2025-05-19T21:54:00 | 56.823715 | 3.333346 | 2.0 | 10.812 | 2 | 39.062 | 10.991 | 35.025 | 2 |
| 2025-05-19T21:55:00 | 56.821844 | 3.333292 | 2.0 | 10.799 | 2 | 39.048 | 10.978 | 35.024 | 2 |
| 2025-05-19T21:56:00 | 56.819991 | 3.333337 | 2.0 | 10.802 | 2 | 39.033 | 10.967 | 35.019 | 2 |
| 2025-05-19T21:57:00 | 56.818138 | 3.333443 | 2.0 | 10.835 | 2 | 39.035 | 10.972 | 35.016 | 2 |
| 2025-05-19T21:58:00 | 56.816284 | 3.333365 | 2.0 | 10.858 | 2 | 39.053 | 11.003 | 35.005 | 2 |
| 2025-05-19T21:59:00 | 56.814429 | 3.333263 | 2.0 | 10.853 | 2 | 39.078 | 11.023 | 35.011 | 2 |
| 2025-05-19T22:00:00 | 56.812592 | 3.333354 | 2.0 | 10.828 | 2 | 39.074 | 11.015 | 35.014 | 2 |
| 2025-05-19T22:01:00 | 56.810749 | 3.333409 | 2.0 | 10.788 | 2 | 39.048 | 10.987 | 35.015 | 2 |
| 2025-05-19T22:02:00 | 56.808914 | 3.333323 | 2.0 | 10.782 | 2 | 39.016 | 10.956 | 35.013 | 2 |
| 2025-05-19T22:03:00 | 56.807100 | 3.333213 | 2.0 | 10.788 | 2 | 39.007 | 10.951 | 35.008 | 2 |
| 2025-05-19T22:04:00 | 56.805267 | 3.333195 | 2.0 | 10.803 | 2 | 39.011 | 10.956 | 35.008 | 2 |
| 2025-05-19T22:05:00 | 56.803432 | 3.333275 | 2.0 | 10.820 | 2 | 39.020 | 10.972 | 35.001 | 2 |
| 2025-05-19T22:06:00 | 56.801583 | 3.333382 | 2.0 | 10.827 | 2 | 39.035 | 10.988 | 35.001 | 2 |
| 2025-05-19T22:07:00 | 56.799739 | 3.333349 | 2.0 | 10.826 | 2 | 39.040 | 10.993 | 35.001 | 2 |
| 2025-05-19T22:08:00 | 56.797889 | 3.333278 | 2.0 | 10.822 | 2 | 39.039 | 10.991 | 35.002 | 2 |
| 2025-05-19T22:09:00 | 56.796036 | 3.333215 | 2.0 | 10.816 | 2 | 39.033 | 10.988 | 34.999 | 2 |
| 2025-05-19T22:10:00 | 56.794186 | 3.333272 | 2.0 | 10.814 | 2 | 39.026 | 10.983 | 34.997 | 2 |
| 2025-05-19T22:11:00 | 56.792323 | 3.333374 | 2.0 | 10.809 | 2 | 39.018 | 10.978 | 34.994 | 2 |
| 2025-05-19T22:12:00 | 56.790476 | 3.333403 | 2.0 | 10.806 | 2 | 39.012 | 10.975 | 34.991 | 2 |
| 2025-05-19T22:13:00 | 56.788614 | 3.333330 | 2.0 | 10.813 | 2 | 39.007 | 10.972 | 34.988 | 2 |
| 2025-05-19T22:14:00 | 56.786746 | 3.333300 | 2.0 | 10.820 | 2 | 39.015 | 10.981 | 34.988 | 2 |
| 2025-05-19T22:15:00 | 56.784883 | 3.333340 | 2.0 | 10.823 | 2 | 39.021 | 10.985 | 34.990 | 2 |
| 2025-05-19T22:16:00 | 56.783025 | 3.333393 | 2.0 | 10.836 | 2 | 39.026 | 10.991 | 34.989 | 2 |
| 2025-05-19T22:17:00 | 56.781177 | 3.333414 | 2.0 | 10.839 | 2 | 39.033 | 11.002 | 34.986 | 2 |
| 2025-05-19T22:18:00 | 56.779336 | 3.333407 | 2.0 | 10.842 | 2 | 39.039 | 11.005 | 34.989 | 2 |
| 2025-05-19T22:19:00 | 56.777494 | 3.333313 | 2.0 | 10.834 | 2 | 39.042 | 11.007 | 34.990 | 2 |
| 2025-05-19T22:20:00 | 56.775658 | 3.333264 | 2.0 | 10.823 | 2 | 39.035 | 10.998 | 34.992 | 2 |
| 2025-05-19T22:21:00 | 56.773808 | 3.333298 | 2.0 | 10.800 | 2 | 39.023 | 10.985 | 34.992 | 2 |
| 2025-05-19T22:22:00 | 56.771961 | 3.333335 | 2.0 | 10.794 | 2 | 39.003 | 10.967 | 34.989 | 2 |
| 2025-05-19T22:23:00 | 56.770116 | 3.333395 | 2.0 | 10.782 | 2 | 38.993 | 10.959 | 34.987 | 2 |
| 2025-05-19T22:24:00 | 56.768264 | 3.333469 | 2.0 | 10.771 | 2 | 38.978 | 10.947 | 34.983 | 2 |
| 2025-05-19T22:25:00 | 56.766420 | 3.333431 | 2.0 | 10.745 | 2 | 38.961 | 10.932 | 34.981 | 2 |
| 2025-05-19T22:26:00 | 56.764573 | 3.333312 | 2.0 | 10.736 | 2 | 38.938 | 10.911 | 34.978 | 2 |
| 2025-05-19T22:27:00 | 56.762719 | 3.333242 | 2.0 | 10.738 | 2 | 38.929 | 10.903 | 34.976 | 2 |
| 2025-05-19T22:28:00 | 56.760847 | 3.333306 | 2.0 | 10.744 | 2 | 38.932 | 10.907 | 34.975 | 2 |
| 2025-05-19T22:29:00 | 56.758977 | 3.333383 | 2.0 | 10.718 | 2 | 38.933 | 10.906 | 34.977 | 2 |
| 2025-05-19T22:30:00 | 56.757122 | 3.333349 | 2.0 | 10.728 | 2 | 38.913 | 10.888 | 34.974 | 2 |
| 2025-05-19T22:31:00 | 56.755265 | 3.333341 | 2.0 | 10.732 | 2 | 38.918 | 10.895 | 34.973 | 2 |
| 2025-05-19T22:32:00 | 56.753417 | 3.333416 | 2.0 | 10.732 | 2 | 38.921 | 10.899 | 34.972 | 2 |
| 2025-05-19T22:33:00 | 56.751584 | 3.333455 | 2.0 | 10.734 | 2 | 38.919 | 10.898 | 34.971 | 2 |
| 2025-05-19T22:34:00 | 56.749735 | 3.333282 | 2.0 | 10.699 | 2 | 38.916 | 10.894 | 34.972 | 2 |
| 2025-05-19T22:35:00 | 56.747901 | 3.333258 | 2.0 | 10.698 | 2 | 38.892 | 10.869 | 34.972 | 2 |
| 2025-05-19T22:36:00 | 56.746072 | 3.333367 | 2.0 | 10.689 | 2 | 38.887 | 10.865 | 34.970 | 2 |
| 2025-05-19T22:37:00 | 56.744217 | 3.333404 | 2.0 | 10.701 | 2 | 38.880 | 10.859 | 34.969 | 2 |
| 2025-05-19T22:38:00 | 56.742364 | 3.333345 | 2.0 | 10.720 | 2 | 38.891 | 10.870 | 34.970 | 2 |
| 2025-05-19T22:39:00 | 56.740494 | 3.333304 | 2.0 | 10.721 | 2 | 38.909 | 10.887 | 34.971 | 2 |
| 2025-05-19T22:40:00 | 56.738616 | 3.333279 | 2.0 | 10.728 | 2 | 38.911 | 10.886 | 34.974 | 2 |
| 2025-05-19T22:41:00 | 56.736758 | 3.333256 | 2.0 | 10.748 | 2 | 38.918 | 10.897 | 34.971 | 2 |
| 2025-05-19T22:42:00 | 56.734910 | 3.333336 | 2.0 | 10.784 | 2 | 38.939 | 10.920 | 34.970 | 2 |
| 2025-05-19T22:43:00 | 56.733063 | 3.333487 | 2.0 | 10.794 | 2 | 38.973 | 10.951 | 34.974 | 2 |
| 2025-05-19T22:44:00 | 56.731210 | 3.333636 | 2.0 | 10.782 | 2 | 38.985 | 10.957 | 34.981 | 2 |
| 2025-05-19T22:45:00 | 56.729363 | 3.333729 | 2.0 | 10.779 | 2 | 38.978 | 10.947 | 34.983 | 2 |
| 2025-05-19T22:46:00 | 56.727503 | 3.333905 | 2.0 | 10.784 | 2 | 38.977 | 10.946 | 34.983 | 2 |
| 2025-05-19T22:47:00 | 56.725652 | 3.334054 | 2.0 | 10.785 | 2 | 38.982 | 10.950 | 34.984 | 2 |
| 2025-05-19T22:48:00 | 56.723807 | 3.334115 | 2.0 | 10.794 | 2 | 38.984 | 10.951 | 34.985 | 2 |
| 2025-05-19T22:49:00 | 56.721965 | 3.334157 | 2.0 | 10.804 | 2 | 38.993 | 10.961 | 34.985 | 2 |
| 2025-05-19T22:50:00 | 56.720124 | 3.334240 | 2.0 | 10.773 | 2 | 38.995 | 10.964 | 34.984 | 2 |
| 2025-05-19T22:51:00 | 56.718299 | 3.334345 | 2.0 | 10.747 | 2 | 38.970 | 10.934 | 34.988 | 2 |
| 2025-05-19T22:52:00 | 56.716490 | 3.334515 | 2.0 | 10.747 | 2 | 38.950 | 10.913 | 34.988 | 2 |
| 2025-05-19T22:53:00 | 56.714681 | 3.334681 | 2.0 | 10.758 | 2 | 38.953 | 10.917 | 34.987 | 2 |
| 2025-05-19T22:54:00 | 56.712879 | 3.334788 | 2.0 | 10.752 | 2 | 38.960 | 10.922 | 34.989 | 2 |
| 2025-05-19T22:55:00 | 56.711065 | 3.334934 | 2.0 | 10.743 | 2 | 38.956 | 10.917 | 34.990 | 2 |
| 2025-05-19T22:56:00 | 56.709223 | 3.335074 | 2.0 | 10.744 | 2 | 38.951 | 10.909 | 34.992 | 2 |
| 2025-05-19T22:57:00 | 56.707379 | 3.335100 | 2.0 | 10.747 | 2 | 38.955 | 10.913 | 34.993 | 2 |
| 2025-05-19T22:58:00 | 56.705545 | 3.335204 | 2.0 | 10.742 | 2 | 38.951 | 10.913 | 34.989 | 2 |
| 2025-05-19T22:59:00 | 56.703710 | 3.335332 | 2.0 | 10.746 | 2 | 38.952 | 10.909 | 34.993 | 2 |
| 2025-05-19T23:00:00 | 56.701841 | 3.335423 | 2.0 | 10.757 | 2 | 38.960 | 10.915 | 34.996 | 2 |
| 2025-05-19T23:01:00 | 56.699994 | 3.335604 | 2.0 | 10.768 | 2 | 38.971 | 10.924 | 34.998 | 2 |
| 2025-05-19T23:02:00 | 56.698150 | 3.335803 | 2.0 | 10.778 | 2 | 38.985 | 10.936 | 35.001 | 2 |
| 2025-05-19T23:03:00 | 56.696308 | 3.335922 | 2.0 | 10.790 | 2 | 38.995 | 10.945 | 35.002 | 2 |
| 2025-05-19T23:04:00 | 56.694457 | 3.335961 | 2.0 | 10.801 | 2 | 39.004 | 10.959 | 34.998 | 2 |
| 2025-05-19T23:05:00 | 56.692645 | 3.336003 | 2.0 | 10.816 | 2 | 39.016 | 10.968 | 35.001 | 2 |
| 2025-05-19T23:06:00 | 56.690832 | 3.336165 | 2.0 | 10.815 | 2 | 39.029 | 10.980 | 35.003 | 2 |
| 2025-05-19T23:07:00 | 56.688995 | 3.336352 | 2.0 | 10.811 | 2 | 39.031 | 10.980 | 35.005 | 2 |
| 2025-05-19T23:08:00 | 56.687168 | 3.336426 | 2.0 | 10.818 | 2 | 39.027 | 10.978 | 35.003 | 2 |
| 2025-05-19T23:09:00 | 56.685356 | 3.336471 | 2.0 | 10.817 | 2 | 39.032 | 10.984 | 35.002 | 2 |
| 2025-05-19T23:10:00 | 56.683578 | 3.336626 | 2.0 | 10.810 | 2 | 39.030 | 10.981 | 35.003 | 2 |
| 2025-05-19T23:11:00 | 56.681795 | 3.336831 | 2.0 | 10.814 | 2 | 39.021 | 10.975 | 35.000 | 2 |
| 2025-05-19T23:12:00 | 56.679978 | 3.336935 | 2.0 | 10.815 | 2 | 39.023 | 10.979 | 34.998 | 2 |
| 2025-05-19T23:13:00 | 56.678163 | 3.336946 | 2.0 | 10.809 | 2 | 39.026 | 10.979 | 35.001 | 2 |
| 2025-05-19T23:14:00 | 56.676329 | 3.337069 | 2.0 | 10.798 | 2 | 39.019 | 10.973 | 34.999 | 2 |
| 2025-05-19T23:15:00 | 56.674492 | 3.337347 | 2.0 | 10.797 | 2 | 39.006 | 10.963 | 34.996 | 2 |
| 2025-05-19T23:16:00 | 56.672668 | 3.337478 | 2.0 | 10.796 | 2 | 39.003 | 10.964 | 34.992 | 2 |
| 2025-05-19T23:17:00 | 56.670872 | 3.337810 | 2.0 | 10.782 | 2 | 39.003 | 10.961 | 34.995 | 2 |
| 2025-05-19T23:18:00 | 56.669313 | 3.339345 | 2.0 | 10.781 | 2 | 38.991 | 10.948 | 34.995 | 2 |
| 2025-05-19T23:19:00 | 56.668259 | 3.341919 | 2.0 | 10.780 | 2 | 38.989 | 10.948 | 34.993 | 2 |
| 2025-05-19T23:20:00 | 56.667765 | 3.345010 | 2.0 | 10.779 | 2 | 38.985 | 10.945 | 34.992 | 2 |
| 2025-05-19T23:21:00 | 56.667841 | 3.348154 | 2.0 | 10.778 | 2 | 38.984 | 10.945 | 34.991 | 2 |
| 2025-05-19T23:22:00 | 56.667980 | 3.351322 | 2.0 | 10.781 | 2 | 38.984 | 10.945 | 34.991 | 2 |
| 2025-05-19T23:23:00 | 56.667753 | 3.354580 | 2.0 | 10.778 | 2 | 38.986 | 10.945 | 34.993 | 2 |
| 2025-05-19T23:24:00 | 56.667431 | 3.357951 | 2.0 | 10.780 | 2 | 38.983 | 10.944 | 34.991 | 2 |
| 2025-05-19T23:25:00 | 56.667209 | 3.361311 | 2.0 | 10.797 | 2 | 38.979 | 10.947 | 34.984 | 2 |
| 2025-05-19T23:26:00 | 56.667043 | 3.364750 | 2.0 | 10.794 | 2 | 38.998 | 10.962 | 34.989 | 2 |
| 2025-05-19T23:27:00 | 56.666897 | 3.368229 | 2.0 | 10.819 | 2 | 38.999 | 10.962 | 34.990 | 2 |
| 2025-05-19T23:28:00 | 56.666766 | 3.371738 | 2.0 | 10.783 | 2 | 39.019 | 10.980 | 34.993 | 2 |
| 2025-05-19T23:29:00 | 56.666686 | 3.375116 | 2.0 | 10.768 | 2 | 38.988 | 10.945 | 34.995 | 2 |
| 2025-05-19T23:30:00 | 56.666734 | 3.378433 | 2.0 | 10.785 | 2 | 38.981 | 10.941 | 34.992 | 2 |
| 2025-05-19T23:31:00 | 56.666718 | 3.381741 | 2.0 | 10.793 | 2 | 38.990 | 10.949 | 34.993 | 2 |
| 2025-05-19T23:32:00 | 56.666660 | 3.385035 | 2.0 | 10.790 | 2 | 38.999 | 10.960 | 34.992 | 2 |
| 2025-05-19T23:33:00 | 56.666620 | 3.388351 | 2.0 | 10.783 | 2 | 38.994 | 10.953 | 34.994 | 2 |
| 2025-05-19T23:34:00 | 56.666580 | 3.391722 | 2.0 | 10.812 | 2 | 38.994 | 10.955 | 34.992 | 2 |
| 2025-05-19T23:35:00 | 56.666527 | 3.395098 | 2.0 | 10.833 | 2 | 39.014 | 10.981 | 34.987 | 2 |
| 2025-05-19T23:36:00 | 56.666508 | 3.398418 | 2.0 | 10.837 | 2 | 39.031 | 10.999 | 34.987 | 2 |
| 2025-05-19T23:37:00 | 56.666541 | 3.401710 | 2.0 | 10.838 | 2 | 39.037 | 11.002 | 34.990 | 2 |
| 2025-05-19T23:38:00 | 56.666561 | 3.405018 | 2.0 | 10.832 | 2 | 39.035 | 10.999 | 34.991 | 2 |
| 2025-05-19T23:39:00 | 56.666538 | 3.408377 | 2.0 | 10.846 | 2 | 39.034 | 11.000 | 34.989 | 2 |
| 2025-05-19T23:40:00 | 56.666499 | 3.411767 | 2.0 | 10.844 | 2 | 39.042 | 11.009 | 34.988 | 2 |
| 2025-05-19T23:41:00 | 56.666484 | 3.415140 | 2.0 | 10.840 | 2 | 39.039 | 11.008 | 34.986 | 2 |
| 2025-05-19T23:42:00 | 56.666487 | 3.418497 | 2.0 | 10.838 | 2 | 39.036 | 11.005 | 34.986 | 2 |
| 2025-05-19T23:43:00 | 56.666489 | 3.421839 | 2.0 | 10.831 | 2 | 39.029 | 11.002 | 34.982 | 2 |
| 2025-05-19T23:44:00 | 56.666481 | 3.425162 | 2.0 | 10.832 | 2 | 39.022 | 10.999 | 34.978 | 2 |
| 2025-05-19T23:45:00 | 56.666505 | 3.428463 | 2.0 | 10.815 | 2 | 39.018 | 10.991 | 34.981 | 2 |
| 2025-05-19T23:46:00 | 56.666500 | 3.431805 | 2.0 | 10.821 | 2 | 39.010 | 10.983 | 34.981 | 2 |
| 2025-05-19T23:47:00 | 56.666423 | 3.435128 | 2.0 | 10.811 | 2 | 39.013 | 10.987 | 34.980 | 2 |
| 2025-05-19T23:48:00 | 56.666391 | 3.438401 | 2.0 | 10.788 | 2 | 39.000 | 10.971 | 34.982 | 2 |
| 2025-05-19T23:49:00 | 56.666425 | 3.441689 | 2.0 | 10.781 | 2 | 38.982 | 10.953 | 34.981 | 2 |
| 2025-05-19T23:50:00 | 56.666476 | 3.445006 | 2.0 | 10.778 | 2 | 38.977 | 10.948 | 34.981 | 2 |
| 2025-05-19T23:51:00 | 56.666488 | 3.448332 | 2.0 | 10.778 | 2 | 38.974 | 10.945 | 34.981 | 2 |
| 2025-05-19T23:52:00 | 56.666445 | 3.451660 | 2.0 | 10.774 | 2 | 38.970 | 10.941 | 34.981 | 2 |
| 2025-05-19T23:53:00 | 56.666366 | 3.455004 | 2.0 | 10.784 | 2 | 38.971 | 10.944 | 34.979 | 2 |
| 2025-05-19T23:54:00 | 56.666327 | 3.458375 | 2.0 | 10.792 | 2 | 38.978 | 10.950 | 34.980 | 2 |
| 2025-05-19T23:55:00 | 56.666328 | 3.461779 | 2.0 | 10.794 | 2 | 38.984 | 10.956 | 34.981 | 2 |
| 2025-05-19T23:56:00 | 56.666335 | 3.465167 | 2.0 | 10.796 | 2 | 38.987 | 10.959 | 34.981 | 2 |
| 2025-05-19T23:57:00 | 56.666337 | 3.468542 | 2.0 | 10.804 | 2 | 38.990 | 10.963 | 34.980 | 2 |
| 2025-05-19T23:58:00 | 56.666352 | 3.471865 | 2.0 | 10.817 | 2 | 38.998 | 10.971 | 34.980 | 2 |
| 2025-05-19T23:59:00 | 56.666373 | 3.475201 | 2.0 | 10.818 | 2 | 39.009 | 10.983 | 34.980 | 2 |
| 2025-05-20T00:00:00 | 56.666330 | 3.478531 | 2.0 | 10.812 | 2 | 39.003 | 10.983 | 34.974 | 2 |
| 2025-05-20T00:01:00 | 56.666345 | 3.481867 | 2.0 | 10.811 | 2 | 39.002 | 10.976 | 34.980 | 2 |
| 2025-05-20T00:02:00 | 56.666367 | 3.485199 | 2.0 | 10.824 | 2 | 39.006 | 10.979 | 34.981 | 2 |
| 2025-05-20T00:03:00 | 56.666382 | 3.488511 | 2.0 | 10.839 | 2 | 39.018 | 10.991 | 34.981 | 2 |
| 2025-05-20T00:04:00 | 56.666317 | 3.491849 | 2.0 | 10.845 | 2 | 39.034 | 11.005 | 34.984 | 2 |
| 2025-05-20T00:05:00 | 56.666269 | 3.495201 | 2.0 | 10.847 | 2 | 39.041 | 11.011 | 34.985 | 2 |
| 2025-05-20T00:06:00 | 56.666270 | 3.498575 | 2.0 | 10.847 | 2 | 39.044 | 11.013 | 34.986 | 2 |
| 2025-05-20T00:07:00 | 56.666270 | 3.501941 | 2.0 | 10.845 | 2 | 39.044 | 11.013 | 34.986 | 2 |
| 2025-05-20T00:08:00 | 56.666244 | 3.505258 | 2.0 | 10.849 | 2 | 39.039 | 11.010 | 34.984 | 2 |
| 2025-05-20T00:09:00 | 56.666281 | 3.508567 | 2.0 | 10.855 | 2 | 39.042 | 11.015 | 34.982 | 2 |
| 2025-05-20T00:10:00 | 56.666294 | 3.511903 | 2.0 | 10.852 | 2 | 39.049 | 11.019 | 34.986 | 2 |
| 2025-05-20T00:11:00 | 56.666225 | 3.515254 | 2.0 | 10.850 | 2 | 39.048 | 11.017 | 34.986 | 2 |
| 2025-05-20T00:12:00 | 56.666259 | 3.518567 | 2.0 | 10.844 | 2 | 39.046 | 11.014 | 34.987 | 2 |
| 2025-05-20T00:13:00 | 56.666282 | 3.521905 | 2.0 | 10.842 | 2 | 39.043 | 11.009 | 34.989 | 2 |
| 2025-05-20T00:14:00 | 56.666287 | 3.525231 | 2.0 | 10.838 | 2 | 39.040 | 11.006 | 34.989 | 2 |
| 2025-05-20T00:15:00 | 56.666257 | 3.528566 | 2.0 | 10.833 | 2 | 39.037 | 11.004 | 34.988 | 2 |
| 2025-05-20T00:16:00 | 56.666215 | 3.531876 | 2.0 | 10.826 | 2 | 39.024 | 10.997 | 34.982 | 2 |
| 2025-05-20T00:17:00 | 56.666219 | 3.535157 | 2.0 | 10.821 | 2 | 39.023 | 10.992 | 34.985 | 2 |
| 2025-05-20T00:18:00 | 56.666232 | 3.538466 | 2.0 | 10.818 | 2 | 39.019 | 10.986 | 34.987 | 2 |
| 2025-05-20T00:19:00 | 56.666181 | 3.541774 | 2.0 | 10.809 | 2 | 39.016 | 10.982 | 34.988 | 2 |
| 2025-05-20T00:20:00 | 56.666155 | 3.545093 | 2.0 | 10.802 | 2 | 39.008 | 10.974 | 34.987 | 2 |
| 2025-05-20T00:21:00 | 56.666129 | 3.548429 | 2.0 | 10.798 | 2 | 39.002 | 10.968 | 34.987 | 2 |
| 2025-05-20T00:22:00 | 56.666157 | 3.551741 | 2.0 | 10.799 | 2 | 38.956 | 10.965 | 34.944 | 2 |
| 2025-05-20T00:23:00 | 56.666148 | 3.555080 | 2.0 | 10.788 | 2 | 38.998 | 10.964 | 34.987 | 2 |
| 2025-05-20T00:24:00 | 56.666128 | 3.558428 | 2.0 | 10.775 | 2 | 38.987 | 10.951 | 34.988 | 2 |
| 2025-05-20T00:25:00 | 56.666106 | 3.561766 | 2.0 | 10.766 | 2 | 38.976 | 10.940 | 34.988 | 2 |
| 2025-05-20T00:26:00 | 56.666094 | 3.565094 | 2.0 | 10.754 | 2 | 38.966 | 10.930 | 34.987 | 2 |
| 2025-05-20T00:27:00 | 56.666125 | 3.568385 | 2.0 | 10.740 | 2 | 38.953 | 10.916 | 34.988 | 2 |
| 2025-05-20T00:28:00 | 56.666111 | 3.571694 | 2.0 | 10.748 | 2 | 38.944 | 10.908 | 34.986 | 2 |
| 2025-05-20T00:29:00 | 56.666098 | 3.575036 | 2.0 | 10.769 | 2 | 38.913 | 10.917 | 34.947 | 2 |
| 2025-05-20T00:30:00 | 56.666058 | 3.578387 | 2.0 | 10.804 | 2 | 38.743 | 10.942 | 34.753 | 2 |
| 2025-05-20T00:31:00 | 56.666039 | 3.581731 | 2.0 | 10.804 | 2 | 39.001 | 10.966 | 34.988 | 2 |
| 2025-05-20T00:32:00 | 56.666040 | 3.585025 | 2.0 | 10.817 | 2 | 39.007 | 10.971 | 34.989 | 2 |
| 2025-05-20T00:33:00 | 56.666115 | 3.588325 | 2.0 | 10.825 | 2 | 39.018 | 10.983 | 34.989 | 2 |
| 2025-05-20T00:34:00 | 56.666121 | 3.591628 | 2.0 | 10.857 | 2 | 39.032 | 10.998 | 34.989 | 2 |
| 2025-05-20T00:35:00 | 56.666085 | 3.594946 | 2.0 | 10.873 | 2 | 39.056 | 11.022 | 34.990 | 2 |
| 2025-05-20T00:36:00 | 56.666059 | 3.598276 | 2.0 | 10.888 | 2 | 39.072 | 11.039 | 34.989 | 2 |
| 2025-05-20T00:37:00 | 56.666016 | 3.601603 | 2.0 | 10.890 | 2 | 39.085 | 11.054 | 34.988 | 2 |
| 2025-05-20T00:38:00 | 56.666010 | 3.604940 | 2.0 | 10.880 | 2 | 38.776 | 11.052 | 34.682 | 2 |
| 2025-05-20T00:39:00 | 56.666020 | 3.608292 | 2.0 | 10.866 | 2 | 38.710 | 11.042 | 34.625 | 2 |
| 2025-05-20T00:40:00 | 56.665970 | 3.611663 | 2.0 | 10.849 | 2 | 38.684 | 11.029 | 34.612 | 2 |
| 2025-05-20T00:41:00 | 56.665226 | 3.614646 | 2.0 | 10.831 | 2 | 38.479 | 11.012 | 34.423 | 2 |
| 2025-05-20T00:42:00 | 56.663675 | 3.615987 | 2.0 | 10.818 | 2 | 38.362 | 10.994 | 34.323 | 2 |
| 2025-05-20T00:43:00 | 56.661973 | 3.615719 | 2.0 | 10.810 | 2 | 38.334 | 10.983 | 34.306 | 2 |
| 2025-05-20T00:44:00 | 56.660201 | 3.615461 | 2.0 | 10.802 | 2 | 38.444 | 10.975 | 34.423 | 2 |
| 2025-05-20T00:46:00 | 56.656573 | 3.616707 | 2.0 | 10.798 | 2 | 38.349 | 10.960 | 34.342 | 2 |
| 2025-05-20T00:47:00 | 56.654721 | 3.616735 | 2.0 | 10.796 | 2 | 38.328 | 10.964 | 34.317 | 2 |
| 2025-05-20T00:48:00 | 56.652861 | 3.616651 | 2.0 | 10.793 | 2 | 38.327 | 10.962 | 34.318 | 2 |
| 2025-05-20T00:49:00 | 56.650982 | 3.616661 | 2.0 | 10.792 | 2 | 38.338 | 10.958 | 34.333 | 2 |
| 2025-05-20T00:50:00 | 56.649100 | 3.616765 | 2.0 | 10.793 | 2 | 38.722 | 10.957 | 34.718 | 2 |
| 2025-05-20T00:51:00 | 56.647210 | 3.616800 | 2.0 | 10.796 | 2 | 38.949 | 10.959 | 34.943 | 2 |
| 2025-05-20T00:52:00 | 56.645313 | 3.616780 | 2.0 | 10.803 | 2 | 38.934 | 10.962 | 34.925 | 2 |
| 2025-05-20T00:53:00 | 56.643409 | 3.616779 | 2.0 | 10.819 | 2 | 38.545 | 10.972 | 34.526 | 2 |
| 2025-05-20T00:54:00 | 56.641508 | 3.616761 | 2.0 | 10.828 | 2 | 38.619 | 10.985 | 34.588 | 2 |
| 2025-05-20T00:55:00 | 56.639615 | 3.616755 | 2.0 | 10.835 | 2 | 38.597 | 10.993 | 34.559 | 2 |
| 2025-05-20T00:56:00 | 56.637727 | 3.616797 | 2.0 | 10.851 | 2 | 38.465 | 11.003 | 34.417 | 2 |
| 2025-05-20T00:57:00 | 56.635851 | 3.616759 | 2.0 | 10.843 | 2 | 38.776 | 11.014 | 34.718 | 2 |
| 2025-05-20T00:58:00 | 56.633987 | 3.616676 | 2.0 | 10.831 | 2 | 38.722 | 11.006 | 34.671 | 2 |
| 2025-05-20T00:59:00 | 56.632125 | 3.616656 | 2.0 | 10.818 | 2 | 38.691 | 10.993 | 34.652 | 2 |
| 2025-05-20T01:00:00 | 56.630253 | 3.616650 | 2.0 | 10.802 | 2 | 38.699 | 10.982 | 34.671 | 2 |
| 2025-05-20T01:01:00 | 56.628380 | 3.616666 | 2.0 | 10.778 | 2 | 38.836 | 10.964 | 34.825 | 2 |
| 2025-05-20T01:02:00 | 56.626512 | 3.616661 | 2.0 | 10.784 | 2 | 38.760 | 10.946 | 34.766 | 2 |
| 2025-05-20T01:03:00 | 56.624645 | 3.616650 | 2.0 | 10.790 | 2 | 38.830 | 10.951 | 34.831 | 2 |
| 2025-05-20T01:04:00 | 56.622766 | 3.616654 | 2.0 | 10.795 | 2 | 38.646 | 10.956 | 34.643 | 2 |
| 2025-05-20T01:05:00 | 56.620878 | 3.616709 | 2.0 | 10.809 | 2 | 38.574 | 10.963 | 34.564 | 2 |
| 2025-05-20T01:06:00 | 56.618980 | 3.616615 | 2.0 | 10.822 | 2 | 38.591 | 10.977 | 34.568 | 2 |
| 2025-05-20T01:07:00 | 56.617103 | 3.616525 | 2.0 | 10.830 | 2 | 38.729 | 10.988 | 34.695 | 2 |
| 2025-05-20T01:08:00 | 56.615233 | 3.616514 | 2.0 | 10.835 | 2 | 38.802 | 10.995 | 34.761 | 2 |
| 2025-05-20T01:09:00 | 56.613352 | 3.616550 | 2.0 | 10.851 | 2 | 38.847 | 11.003 | 34.799 | 2 |
| 2025-05-20T01:10:00 | 56.611462 | 3.616516 | 2.0 | 10.860 | 2 | 38.744 | 11.017 | 34.683 | 2 |
| 2025-05-20T01:11:00 | 56.609568 | 3.616504 | 2.0 | 10.863 | 2 | 38.726 | 11.025 | 34.657 | 2 |
| 2025-05-20T01:12:00 | 56.607676 | 3.616481 | 2.0 | 10.863 | 2 | 38.879 | 11.028 | 34.807 | 2 |
| 2025-05-20T01:13:00 | 56.605780 | 3.616524 | 2.0 | 10.861 | 2 | 38.914 | 11.028 | 34.842 | 2 |
| 2025-05-20T01:14:00 | 56.603874 | 3.616538 | 2.0 | 10.844 | 2 | 38.801 | 11.025 | 34.732 | 2 |
| 2025-05-20T01:15:00 | 56.601981 | 3.616452 | 2.0 | 10.835 | 2 | 38.917 | 11.008 | 34.864 | 2 |
| 2025-05-20T01:16:00 | 56.600086 | 3.616493 | 2.0 | 10.832 | 2 | 38.831 | 10.999 | 34.787 | 2 |
| 2025-05-20T01:17:00 | 56.598188 | 3.616487 | 2.0 | 10.834 | 2 | 38.752 | 10.998 | 34.709 | 2 |
| 2025-05-20T01:18:00 | 56.596299 | 3.616367 | 2.0 | 10.837 | 2 | 38.779 | 11.001 | 34.733 | 2 |
| 2025-05-20T01:19:00 | 56.594401 | 3.616341 | 2.0 | 10.842 | 2 | 38.793 | 11.003 | 34.745 | 2 |
| 2025-05-20T01:20:00 | 56.592506 | 3.616394 | 2.0 | 10.847 | 2 | 38.870 | 11.010 | 34.815 | 2 |
| 2025-05-20T01:21:00 | 56.590601 | 3.616429 | 2.0 | 10.848 | 2 | 38.817 | 11.012 | 34.760 | 2 |
| 2025-05-20T01:22:00 | 56.588702 | 3.616362 | 2.0 | 10.847 | 2 | 38.840 | 11.014 | 34.781 | 2 |
| 2025-05-20T01:23:00 | 56.586798 | 3.616289 | 2.0 | 10.846 | 2 | 38.855 | 11.012 | 34.798 | 2 |
| 2025-05-20T01:24:00 | 56.584873 | 3.616311 | 2.0 | 10.838 | 2 | 38.864 | 11.010 | 34.809 | 2 |
| 2025-05-20T01:25:00 | 56.582938 | 3.616320 | 2.0 | 10.832 | 2 | 38.843 | 11.003 | 34.795 | 2 |
| 2025-05-20T01:26:00 | 56.581025 | 3.616375 | 2.0 | 10.821 | 2 | 38.850 | 10.995 | 34.809 | 2 |
| 2025-05-20T01:27:00 | 56.579149 | 3.616443 | 2.0 | 10.815 | 2 | 38.866 | 10.987 | 34.833 | 2 |
| 2025-05-20T01:28:00 | 56.577306 | 3.616398 | 2.0 | 10.800 | 2 | 38.871 | 10.979 | 34.846 | 2 |
| 2025-05-20T01:29:00 | 56.575469 | 3.616257 | 2.0 | 10.782 | 2 | 38.840 | 10.961 | 34.832 | 2 |
| 2025-05-20T01:30:00 | 56.573635 | 3.616191 | 2.0 | 10.779 | 2 | 38.856 | 10.949 | 34.859 | 2 |
| 2025-05-20T01:31:00 | 56.571795 | 3.616127 | 2.0 | 10.773 | 2 | 38.850 | 10.945 | 34.857 | 2 |
| 2025-05-20T01:32:00 | 56.569966 | 3.616139 | 2.0 | 10.776 | 2 | 38.860 | 10.942 | 34.870 | 2 |
| 2025-05-20T01:33:00 | 56.568120 | 3.616245 | 2.0 | 10.765 | 2 | 38.874 | 10.940 | 34.886 | 2 |
| 2025-05-20T01:34:00 | 56.566258 | 3.616254 | 2.0 | 10.769 | 2 | 38.856 | 10.930 | 34.877 | 2 |
| 2025-05-20T01:35:00 | 56.564396 | 3.616201 | 2.0 | 10.770 | 2 | 38.862 | 10.935 | 34.879 | 2 |
| 2025-05-20T01:36:00 | 56.562548 | 3.616152 | 2.0 | 10.777 | 2 | 38.882 | 10.937 | 34.897 | 2 |
| 2025-05-20T01:37:00 | 56.560707 | 3.616086 | 2.0 | 10.768 | 2 | 38.901 | 10.942 | 34.911 | 2 |
| 2025-05-20T01:38:00 | 56.558854 | 3.616132 | 2.0 | 10.760 | 2 | 38.890 | 10.932 | 34.909 | 2 |
| 2025-05-20T01:39:00 | 56.557000 | 3.616191 | 2.0 | 10.769 | 2 | 38.904 | 10.929 | 34.926 | 2 |
| 2025-05-20T01:40:00 | 56.555144 | 3.616226 | 2.0 | 10.780 | 2 | 38.897 | 10.937 | 34.912 | 2 |
| 2025-05-20T01:41:00 | 56.553303 | 3.616119 | 2.0 | 10.777 | 2 | 38.904 | 10.944 | 34.912 | 2 |
| 2025-05-20T01:42:00 | 56.551453 | 3.616018 | 2.0 | 10.780 | 2 | 38.905 | 10.943 | 34.914 | 2 |
| 2025-05-20T01:43:00 | 56.549598 | 3.615976 | 2.0 | 10.772 | 2 | 38.937 | 10.942 | 34.947 | 2 |
| 2025-05-20T01:44:00 | 56.547748 | 3.616079 | 2.0 | 10.783 | 2 | 38.934 | 10.939 | 34.947 | 2 |
| 2025-05-20T01:45:00 | 56.545917 | 3.616079 | 2.0 | 10.787 | 2 | 38.940 | 10.949 | 34.943 | 2 |
| 2025-05-20T01:46:00 | 56.544077 | 3.616060 | 2.0 | 10.782 | 2 | 38.949 | 10.952 | 34.949 | 2 |
| 2025-05-20T01:47:00 | 56.542237 | 3.616059 | 2.0 | 10.769 | 2 | 38.960 | 10.946 | 34.966 | 2 |
| 2025-05-20T01:48:00 | 56.540370 | 3.616077 | 2.0 | 10.759 | 2 | 38.935 | 10.934 | 34.953 | 2 |
| 2025-05-20T01:49:00 | 56.538508 | 3.616020 | 2.0 | 10.749 | 2 | 38.924 | 10.924 | 34.951 | 2 |
| 2025-05-20T01:50:00 | 56.536645 | 3.616011 | 2.0 | 10.747 | 2 | 38.934 | 10.915 | 34.970 | 2 |
| 2025-05-20T01:51:00 | 56.534790 | 3.615989 | 2.0 | 10.736 | 2 | 38.930 | 10.912 | 34.969 | 2 |
| 2025-05-20T01:52:00 | 56.532940 | 3.615913 | 2.0 | 10.739 | 2 | 38.928 | 10.903 | 34.975 | 2 |
| 2025-05-20T01:53:00 | 56.531079 | 3.615895 | 2.0 | 10.740 | 2 | 38.926 | 10.905 | 34.971 | 2 |
| 2025-05-20T01:54:00 | 56.529183 | 3.615971 | 2.0 | 10.747 | 2 | 38.948 | 10.907 | 34.991 | 2 |
| 2025-05-20T01:55:00 | 56.527277 | 3.616024 | 2.0 | 10.737 | 2 | 38.952 | 10.912 | 34.991 | 2 |
| 2025-05-20T01:56:00 | 56.525369 | 3.616058 | 2.0 | 10.725 | 2 | 38.940 | 10.902 | 34.988 | 2 |
| 2025-05-20T01:57:00 | 56.523468 | 3.615989 | 2.0 | 10.734 | 2 | 38.932 | 10.893 | 34.989 | 2 |
| 2025-05-20T01:58:00 | 56.521558 | 3.615882 | 2.0 | 10.764 | 2 | 38.945 | 10.907 | 34.988 | 2 |
| 2025-05-20T01:59:00 | 56.519639 | 3.615854 | 2.0 | 10.759 | 2 | 38.964 | 10.929 | 34.986 | 2 |
| 2025-05-20T02:00:00 | 56.517724 | 3.615796 | 2.0 | 10.720 | 2 | 38.953 | 10.915 | 34.989 | 2 |
| 2025-05-20T02:01:00 | 56.515788 | 3.615822 | 2.0 | 10.719 | 2 | 38.928 | 10.888 | 34.989 | 2 |
| 2025-05-20T02:02:00 | 56.513831 | 3.615922 | 2.0 | 10.717 | 2 | 38.924 | 10.884 | 34.989 | 2 |
| 2025-05-20T02:03:00 | 56.511874 | 3.615935 | 2.0 | 10.716 | 2 | 38.923 | 10.883 | 34.989 | 2 |
| 2025-05-20T02:04:00 | 56.509922 | 3.615881 | 2.0 | 10.723 | 2 | 38.924 | 10.884 | 34.989 | 2 |
| 2025-05-20T02:05:00 | 56.507974 | 3.615905 | 2.0 | 10.744 | 2 | 38.930 | 10.892 | 34.988 | 2 |
| 2025-05-20T02:06:00 | 56.506036 | 3.615840 | 2.0 | 10.759 | 2 | 38.948 | 10.911 | 34.988 | 2 |
| 2025-05-20T02:07:00 | 56.504107 | 3.615761 | 2.0 | 10.763 | 2 | 38.960 | 10.925 | 34.986 | 2 |
| 2025-05-20T02:08:00 | 56.502170 | 3.615751 | 2.0 | 10.750 | 2 | 38.963 | 10.927 | 34.987 | 2 |
| 2025-05-20T02:09:00 | 56.500246 | 3.615793 | 2.0 | 10.731 | 2 | 38.949 | 10.915 | 34.985 | 2 |
| 2025-05-20T02:10:00 | 56.498312 | 3.615686 | 2.0 | 10.697 | 2 | 38.926 | 10.889 | 34.987 | 2 |
| 2025-05-20T02:11:00 | 56.496373 | 3.615571 | 2.0 | 10.702 | 2 | 38.896 | 10.864 | 34.980 | 2 |
| 2025-05-20T02:12:00 | 56.494421 | 3.615619 | 2.0 | 10.723 | 2 | 38.898 | 10.872 | 34.975 | 2 |
| 2025-05-20T02:13:00 | 56.492460 | 3.615754 | 2.0 | 10.746 | 2 | 38.917 | 10.893 | 34.974 | 2 |
| 2025-05-20T02:14:00 | 56.490492 | 3.615767 | 2.0 | 10.755 | 2 | 38.934 | 10.913 | 34.972 | 2 |
| 2025-05-20T02:15:00 | 56.488538 | 3.615660 | 2.0 | 10.770 | 2 | 38.936 | 10.923 | 34.964 | 2 |
| 2025-05-20T02:16:00 | 56.486586 | 3.615599 | 2.0 | 10.777 | 2 | 38.955 | 10.936 | 34.971 | 2 |
| 2025-05-20T02:17:00 | 56.484643 | 3.615633 | 2.0 | 10.761 | 2 | 38.958 | 10.939 | 34.971 | 2 |
| 2025-05-20T02:18:00 | 56.482689 | 3.615643 | 2.0 | 10.743 | 2 | 38.943 | 10.923 | 34.971 | 2 |
| 2025-05-20T02:19:00 | 56.480744 | 3.615599 | 2.0 | 10.730 | 2 | 38.926 | 10.906 | 34.970 | 2 |
| 2025-05-20T02:20:00 | 56.478788 | 3.615598 | 2.0 | 10.748 | 2 | 38.917 | 10.898 | 34.969 | 2 |
| 2025-05-20T02:21:00 | 56.476837 | 3.615629 | 2.0 | 10.768 | 2 | 38.933 | 10.917 | 34.967 | 2 |
| 2025-05-20T02:22:00 | 56.474875 | 3.615598 | 2.0 | 10.777 | 2 | 38.951 | 10.936 | 34.967 | 2 |
| 2025-05-20T02:23:00 | 56.472921 | 3.615548 | 2.0 | 10.781 | 2 | 38.956 | 10.944 | 34.964 | 2 |
| 2025-05-20T02:24:00 | 56.470960 | 3.615513 | 2.0 | 10.788 | 2 | 38.959 | 10.947 | 34.964 | 2 |
| 2025-05-20T02:25:00 | 56.469024 | 3.615470 | 2.0 | 10.808 | 2 | 38.969 | 10.958 | 34.964 | 2 |
| 2025-05-20T02:26:00 | 56.467074 | 3.615426 | 2.0 | 10.801 | 2 | 38.983 | 10.971 | 34.965 | 2 |
| 2025-05-20T02:27:00 | 56.465117 | 3.615468 | 2.0 | 10.807 | 2 | 38.979 | 10.967 | 34.965 | 2 |
| 2025-05-20T02:28:00 | 56.463161 | 3.615541 | 2.0 | 10.824 | 2 | 38.987 | 10.976 | 34.965 | 2 |
| 2025-05-20T02:29:00 | 56.461206 | 3.615526 | 2.0 | 10.831 | 2 | 38.999 | 10.990 | 34.963 | 2 |
| 2025-05-20T02:30:00 | 56.459277 | 3.615455 | 2.0 | 10.829 | 2 | 39.001 | 10.995 | 34.960 | 2 |
| 2025-05-20T02:31:00 | 56.457351 | 3.615360 | 2.0 | 10.822 | 2 | 39.000 | 10.993 | 34.961 | 2 |
| 2025-05-20T02:32:00 | 56.455408 | 3.615372 | 2.0 | 10.816 | 2 | 38.995 | 10.987 | 34.962 | 2 |
| 2025-05-20T02:33:00 | 56.453461 | 3.615419 | 2.0 | 10.814 | 2 | 38.988 | 10.980 | 34.962 | 2 |
| 2025-05-20T02:34:00 | 56.451520 | 3.615428 | 2.0 | 10.821 | 2 | 38.988 | 10.981 | 34.961 | 2 |
| 2025-05-20T02:35:00 | 56.449590 | 3.615402 | 2.0 | 10.823 | 2 | 38.990 | 10.986 | 34.958 | 2 |
| 2025-05-20T02:36:00 | 56.447655 | 3.615340 | 2.0 | 10.816 | 2 | 38.985 | 10.987 | 34.952 | 2 |
| 2025-05-20T02:37:00 | 56.445705 | 3.615307 | 2.0 | 10.802 | 2 | 38.981 | 10.980 | 34.955 | 2 |
| 2025-05-20T02:38:00 | 56.443733 | 3.615237 | 2.0 | 10.795 | 2 | 38.971 | 10.965 | 34.959 | 2 |
| 2025-05-20T02:39:00 | 56.441753 | 3.615246 | 2.0 | 10.787 | 2 | 38.966 | 10.960 | 34.959 | 2 |
| 2025-05-20T02:40:00 | 56.439786 | 3.615316 | 2.0 | 10.795 | 2 | 38.959 | 10.952 | 34.959 | 2 |
| 2025-05-20T02:41:00 | 56.437820 | 3.615375 | 2.0 | 10.819 | 2 | 38.969 | 10.968 | 34.954 | 2 |
| 2025-05-20T02:42:00 | 56.435851 | 3.615355 | 2.0 | 10.828 | 2 | 38.984 | 10.986 | 34.952 | 2 |
| 2025-05-20T02:43:00 | 56.433895 | 3.615255 | 2.0 | 10.838 | 2 | 38.996 | 10.995 | 34.955 | 2 |
| 2025-05-20T02:44:00 | 56.431938 | 3.615177 | 2.0 | 10.840 | 2 | 39.004 | 11.003 | 34.956 | 2 |
| 2025-05-20T02:45:00 | 56.429984 | 3.615220 | 2.0 | 10.841 | 2 | 39.005 | 11.003 | 34.957 | 2 |
| 2025-05-20T02:46:00 | 56.428024 | 3.615304 | 2.0 | 10.845 | 2 | 39.008 | 11.008 | 34.955 | 2 |
| 2025-05-20T02:47:00 | 56.426055 | 3.615296 | 2.0 | 10.837 | 2 | 39.009 | 11.009 | 34.955 | 2 |
| 2025-05-20T02:48:00 | 56.424079 | 3.615300 | 2.0 | 10.829 | 2 | 38.996 | 11.001 | 34.950 | 2 |
| 2025-05-20T02:49:00 | 56.422123 | 3.615193 | 2.0 | 10.819 | 2 | 38.989 | 10.992 | 34.951 | 2 |
| 2025-05-20T02:50:00 | 56.420173 | 3.615146 | 2.0 | 10.811 | 2 | 38.983 | 10.983 | 34.954 | 2 |
| 2025-05-20T02:51:00 | 56.418212 | 3.615152 | 2.0 | 10.816 | 2 | 38.976 | 10.978 | 34.952 | 2 |
| 2025-05-20T02:52:00 | 56.416248 | 3.615140 | 2.0 | 10.811 | 2 | 38.980 | 10.982 | 34.952 | 2 |
| 2025-05-20T02:53:00 | 56.414295 | 3.615213 | 2.0 | 10.808 | 2 | 38.972 | 10.975 | 34.950 | 2 |
| 2025-05-20T02:54:00 | 56.412341 | 3.615161 | 2.0 | 10.814 | 2 | 38.972 | 10.976 | 34.950 | 2 |
| 2025-05-20T02:55:00 | 56.410368 | 3.615109 | 2.0 | 10.805 | 2 | 38.973 | 10.977 | 34.950 | 2 |
| 2025-05-20T02:56:00 | 56.408400 | 3.615095 | 2.0 | 10.794 | 2 | 38.963 | 10.970 | 34.946 | 2 |
| 2025-05-20T02:57:00 | 56.406429 | 3.615019 | 2.0 | 10.790 | 2 | 38.952 | 10.959 | 34.946 | 2 |
| 2025-05-20T02:58:00 | 56.404457 | 3.614958 | 2.0 | 10.794 | 2 | 38.949 | 10.956 | 34.946 | 2 |
| 2025-05-20T02:59:00 | 56.402474 | 3.614994 | 2.0 | 10.799 | 2 | 38.951 | 10.961 | 34.943 | 2 |
| 2025-05-20T03:00:00 | 56.400489 | 3.615052 | 2.0 | 10.789 | 2 | 38.953 | 10.963 | 34.943 | 2 |
| 2025-05-20T03:01:00 | 56.398504 | 3.615102 | 2.0 | 10.785 | 2 | 38.945 | 10.954 | 34.944 | 2 |
| 2025-05-20T03:02:00 | 56.396543 | 3.615099 | 2.0 | 10.786 | 2 | 38.939 | 10.951 | 34.940 | 2 |
| 2025-05-20T03:03:00 | 56.394585 | 3.615007 | 2.0 | 10.791 | 2 | 38.942 | 10.952 | 34.942 | 2 |
| 2025-05-20T03:04:00 | 56.392625 | 3.614916 | 2.0 | 10.797 | 2 | 38.946 | 10.958 | 34.941 | 2 |
| 2025-05-20T03:05:00 | 56.390660 | 3.614877 | 2.0 | 10.800 | 2 | 38.952 | 10.963 | 34.942 | 2 |
| 2025-05-20T03:06:00 | 56.388690 | 3.614935 | 2.0 | 10.805 | 2 | 38.954 | 10.966 | 34.941 | 2 |
| 2025-05-20T03:07:00 | 56.386721 | 3.615009 | 2.0 | 10.812 | 2 | 38.958 | 10.970 | 34.941 | 2 |
| 2025-05-20T03:08:00 | 56.384741 | 3.614976 | 2.0 | 10.808 | 2 | 38.963 | 10.976 | 34.941 | 2 |
| 2025-05-20T03:09:00 | 56.382956 | 3.616020 | 2.0 | 10.804 | 2 | 38.960 | 10.972 | 34.941 | 2 |
| 2025-05-20T03:10:00 | 56.381437 | 3.618136 | 2.0 | 10.806 | 2 | 38.956 | 10.969 | 34.940 | 2 |
| 2025-05-20T03:11:00 | 56.379683 | 3.619713 | 2.0 | 10.803 | 2 | 38.958 | 10.970 | 34.941 | 2 |
| 2025-05-20T03:12:00 | 56.377907 | 3.621135 | 2.0 | 10.809 | 2 | 38.958 | 10.970 | 34.941 | 2 |
| 2025-05-20T03:13:00 | 56.376282 | 3.622854 | 2.0 | 10.816 | 2 | 38.963 | 10.976 | 34.941 | 2 |
| 2025-05-20T03:14:00 | 56.374698 | 3.624630 | 2.0 | 10.821 | 2 | 38.968 | 10.981 | 34.941 | 2 |
| 2025-05-20T03:15:00 | 56.373059 | 3.626168 | 2.0 | 10.815 | 2 | 38.972 | 10.985 | 34.941 | 2 |
| 2025-05-20T03:16:00 | 56.371426 | 3.627693 | 2.0 | 10.800 | 2 | 38.967 | 10.977 | 34.944 | 2 |
| 2025-05-20T03:17:00 | 56.369822 | 3.629321 | 2.0 | 10.780 | 2 | 38.952 | 10.961 | 34.944 | 2 |
| 2025-05-20T03:18:00 | 56.368247 | 3.630989 | 2.0 | 10.785 | 2 | 38.938 | 10.947 | 34.943 | 2 |
| 2025-05-20T03:19:00 | 56.366698 | 3.632714 | 2.0 | 10.806 | 2 | 38.941 | 10.955 | 34.939 | 2 |
| 2025-05-20T03:20:00 | 56.365090 | 3.634279 | 2.0 | 10.820 | 2 | 38.958 | 10.974 | 34.937 | 2 |
| 2025-05-20T03:21:00 | 56.363451 | 3.635825 | 2.0 | 10.827 | 2 | 38.973 | 10.987 | 34.940 | 2 |
| 2025-05-20T03:22:00 | 56.361841 | 3.637489 | 2.0 | 10.827 | 2 | 38.978 | 10.990 | 34.942 | 2 |
| 2025-05-20T03:23:00 | 56.360268 | 3.639252 | 2.0 | 10.826 | 2 | 38.980 | 10.992 | 34.942 | 2 |
| 2025-05-20T03:24:00 | 56.358682 | 3.640937 | 2.0 | 10.835 | 2 | 38.980 | 10.992 | 34.942 | 2 |
| 2025-05-20T03:25:00 | 56.357079 | 3.642480 | 2.0 | 10.839 | 2 | 38.988 | 11.000 | 34.943 | 2 |
| 2025-05-20T03:26:00 | 56.355483 | 3.644040 | 2.0 | 10.833 | 2 | 38.992 | 11.003 | 34.944 | 2 |
| 2025-05-20T03:27:00 | 56.353890 | 3.645644 | 2.0 | 10.826 | 2 | 38.986 | 10.996 | 34.944 | 2 |
| 2025-05-20T03:28:00 | 56.352290 | 3.647254 | 2.0 | 10.817 | 2 | 38.981 | 10.991 | 34.944 | 2 |
| 2025-05-20T03:29:00 | 56.350703 | 3.648877 | 2.0 | 10.808 | 2 | 38.973 | 10.981 | 34.946 | 2 |
| 2025-05-20T03:30:00 | 56.349145 | 3.650584 | 2.0 | 10.806 | 2 | 38.965 | 10.973 | 34.945 | 2 |
| 2025-05-20T03:31:00 | 56.347591 | 3.652227 | 2.0 | 10.801 | 2 | 38.955 | 10.970 | 34.938 | 2 |
| 2025-05-20T03:32:00 | 56.346036 | 3.653782 | 2.0 | 10.817 | 2 | 38.961 | 10.970 | 34.944 | 2 |
| 2025-05-20T03:33:00 | 56.344451 | 3.655247 | 2.0 | 10.839 | 2 | 38.972 | 10.986 | 34.940 | 2 |
| 2025-05-20T03:34:00 | 56.342865 | 3.656768 | 2.0 | 10.863 | 2 | 38.996 | 11.007 | 34.944 | 2 |
| 2025-05-20T03:35:00 | 56.341307 | 3.658395 | 2.0 | 10.878 | 2 | 39.020 | 11.030 | 34.946 | 2 |
| 2025-05-20T03:36:00 | 56.339798 | 3.659994 | 2.0 | 10.874 | 2 | 39.032 | 11.042 | 34.947 | 2 |
| 2025-05-20T03:37:00 | 56.338354 | 3.661479 | 2.0 | 10.865 | 2 | 39.029 | 11.037 | 34.948 | 2 |
| 2025-05-20T03:38:00 | 56.336929 | 3.662915 | 2.0 | 10.852 | 2 | 39.022 | 11.027 | 34.951 | 2 |
| 2025-05-20T03:39:00 | 56.335489 | 3.664271 | 2.0 | 10.849 | 2 | 39.012 | 11.016 | 34.951 | 2 |
| 2025-05-20T03:40:00 | 56.334104 | 3.665704 | 2.0 | 10.866 | 2 | 39.014 | 11.019 | 34.951 | 2 |
| 2025-05-20T03:41:00 | 56.332785 | 3.667107 | 2.0 | 10.879 | 2 | 39.033 | 11.040 | 34.950 | 2 |
| 2025-05-20T03:42:00 | 56.331736 | 3.668701 | 2.0 | 10.880 | 2 | 39.049 | 11.056 | 34.950 | 2 |
| 2025-05-20T03:43:00 | 56.331486 | 3.670085 | 2.0 | 10.874 | 2 | 39.048 | 11.059 | 34.946 | 2 |
| 2025-05-20T03:44:00 | 56.331542 | 3.670739 | 2.0 | 10.868 | 2 | 39.047 | 11.055 | 34.949 | 2 |
| 2025-05-20T03:45:00 | 56.331620 | 3.670953 | 2.0 | 10.870 | 2 | 39.041 | 11.054 | 34.944 | 2 |
| 2025-05-20T03:46:00 | 56.331613 | 3.670810 | 2.0 | 10.872 | 2 | 39.048 | 11.057 | 34.948 | 2 |
| 2025-05-20T03:47:00 | 56.331576 | 3.670606 | 2.0 | 10.873 | 2 | 39.050 | 11.058 | 34.949 | 2 |
| 2025-05-20T03:48:00 | 56.331524 | 3.670412 | 2.0 | 10.872 | 2 | 39.052 | 11.059 | 34.950 | 2 |
| 2025-05-20T03:49:00 | 56.331478 | 3.670241 | 2.0 | 10.873 | 2 | 39.044 | 11.059 | 34.942 | 2 |
| 2025-05-20T03:50:00 | 56.331428 | 3.670124 | 2.0 | 10.870 | 2 | 39.051 | 11.058 | 34.950 | 2 |
| 2025-05-20T03:51:00 | 56.331370 | 3.670111 | 2.0 | 10.869 | 2 | 38.986 | 11.056 | 34.887 | 2 |
| 2025-05-20T03:52:00 | 56.331346 | 3.669949 | 2.0 | 10.870 | 2 | 39.051 | 11.057 | 34.951 | 2 |
| 2025-05-20T03:53:00 | 56.331260 | 3.669716 | 2.0 | 10.869 | 2 | 39.053 | 11.058 | 34.952 | 2 |
| 2025-05-20T03:54:00 | 56.331184 | 3.669440 | 2.0 | 10.871 | 2 | 39.000 | 11.058 | 34.899 | 2 |
| 2025-05-20T03:55:00 | 56.331102 | 3.669298 | 2.0 | 10.872 | 2 | 39.054 | 11.060 | 34.951 | 2 |
| 2025-05-20T03:56:00 | 56.331077 | 3.669209 | 2.0 | 10.873 | 2 | 39.054 | 11.060 | 34.951 | 2 |
| 2025-05-20T03:57:00 | 56.331040 | 3.669134 | 2.0 | 10.873 | 2 | 39.043 | 11.062 | 34.939 | 2 |
| 2025-05-20T03:58:00 | 56.330948 | 3.668980 | 2.0 | 10.874 | 2 | 39.055 | 11.062 | 34.951 | 2 |
| 2025-05-20T03:59:00 | 56.330903 | 3.668793 | 2.0 | 10.871 | 2 | 39.057 | 11.062 | 34.953 | 2 |
| 2025-05-20T04:00:00 | 56.330882 | 3.668786 | 2.0 | 10.871 | 2 | 39.055 | 11.060 | 34.952 | 2 |
| 2025-05-20T04:01:00 | 56.330888 | 3.668869 | 2.0 | 10.869 | 2 | 39.054 | 11.060 | 34.951 | 2 |
| 2025-05-20T04:02:00 | 56.330857 | 3.668944 | 2.0 | 10.867 | 2 | 39.053 | 11.059 | 34.951 | 2 |
| 2025-05-20T04:03:00 | 56.330826 | 3.668893 | 2.0 | 10.867 | 2 | 38.782 | 11.057 | 34.683 | 2 |
| 2025-05-20T04:04:00 | 56.330778 | 3.668747 | 2.0 | 10.866 | 2 | 38.959 | 11.056 | 34.860 | 2 |
| 2025-05-20T04:05:00 | 56.330779 | 3.668607 | 2.0 | 10.862 | 2 | 39.050 | 11.056 | 34.951 | 2 |
| 2025-05-20T04:06:00 | 56.330810 | 3.668493 | 2.0 | 10.867 | 2 | 38.846 | 11.054 | 34.750 | 2 |
| 2025-05-20T04:07:00 | 56.330792 | 3.668546 | 2.0 | 10.866 | 2 | 39.008 | 11.056 | 34.909 | 2 |
| 2025-05-20T04:08:00 | 56.330813 | 3.668533 | 2.0 | 10.866 | 2 | 38.952 | 11.056 | 34.853 | 2 |
| 2025-05-20T04:09:00 | 56.330824 | 3.668407 | 2.0 | 10.868 | 2 | 39.052 | 11.058 | 34.951 | 2 |
| 2025-05-20T04:10:00 | 56.330776 | 3.668235 | 2.0 | 10.865 | 2 | 38.819 | 11.058 | 34.719 | 2 |
| 2025-05-20T04:12:00 | 56.330755 | 3.668049 | 2.0 | 10.863 | 2 | 39.051 | 11.056 | 34.952 | 2 |
| 2025-05-20T04:13:00 | 56.330778 | 3.668079 | 2.0 | 10.862 | 2 | 38.801 | 11.055 | 34.704 | 2 |
| 2025-05-20T04:14:00 | 56.330798 | 3.668165 | 2.0 | 10.860 | 2 | 38.988 | 11.054 | 34.891 | 2 |
| 2025-05-20T04:15:00 | 56.330800 | 3.668133 | 2.0 | 10.862 | 2 | 38.730 | 11.053 | 34.635 | 2 |
| 2025-05-20T04:17:00 | 56.330774 | 3.668210 | 2.0 | 10.861 | 2 | 39.026 | 11.054 | 34.929 | 2 |
| 2025-05-20T04:19:00 | 56.330647 | 3.668071 | 2.0 | 10.860 | 2 | 38.773 | 11.053 | 34.678 | 2 |
| 2025-05-20T04:22:00 | 56.330633 | 3.668047 | 2.0 | 10.856 | 2 | 38.655 | 11.050 | 34.563 | 2 |
| 2025-05-20T04:23:00 | 56.330683 | 3.667953 | 2.0 | 10.855 | 2 | 38.757 | 11.050 | 34.665 | 2 |
| 2025-05-20T04:25:00 | 56.330703 | 3.667827 | 2.0 | 10.851 | 2 | 38.757 | 11.045 | 34.669 | 2 |
| 2025-05-20T04:35:00 | 56.330574 | 3.667349 | 2.0 | 10.841 | 2 | 38.714 | 11.038 | 34.633 | 2 |
| 2025-05-20T04:36:00 | 56.330550 | 3.667285 | 2.0 | 10.841 | 2 | 38.933 | 11.036 | 34.853 | 2 |
| 2025-05-20T04:37:00 | 56.330549 | 3.667172 | 2.0 | 10.836 | 2 | 38.688 | 11.034 | 34.611 | 2 |
| 2025-05-20T04:40:00 | 56.330602 | 3.667418 | 2.0 | 10.835 | 2 | 38.736 | 11.032 | 34.661 | 2 |
| 2025-05-20T04:41:00 | 56.330593 | 3.667493 | 2.0 | 10.834 | 2 | 38.784 | 11.029 | 34.711 | 2 |
| 2025-05-20T04:42:00 | 56.330565 | 3.667489 | 2.0 | 10.832 | 2 | 38.720 | 11.028 | 34.648 | 2 |
| 2025-05-20T04:43:00 | 56.330542 | 3.667383 | 2.0 | 10.832 | 2 | 38.801 | 11.027 | 34.730 | 2 |
| 2025-05-20T04:44:00 | 56.330558 | 3.667261 | 2.0 | 10.831 | 2 | 38.834 | 11.027 | 34.763 | 2 |
| 2025-05-20T04:45:00 | 56.330570 | 3.667281 | 2.0 | 10.828 | 2 | 38.817 | 11.026 | 34.747 | 2 |
| 2025-05-20T04:47:00 | 56.330467 | 3.667316 | 2.0 | 10.827 | 2 | 38.796 | 11.023 | 34.729 | 2 |
| 2025-05-20T04:48:00 | 56.330417 | 3.667273 | 2.0 | 10.826 | 2 | 38.683 | 11.024 | 34.615 | 2 |
| 2025-05-20T04:49:00 | 56.330388 | 3.667115 | 2.0 | 10.823 | 2 | 38.778 | 11.022 | 34.712 | 2 |
| 2025-05-20T04:50:00 | 56.330412 | 3.666847 | 2.0 | 10.827 | 2 | 38.873 | 11.020 | 34.809 | 2 |
| 2025-05-20T04:51:00 | 56.330508 | 3.666527 | 2.0 | 10.823 | 2 | 38.747 | 11.023 | 34.680 | 2 |
| 2025-05-20T04:52:00 | 56.330629 | 3.666328 | 2.0 | 10.818 | 2 | 38.887 | 11.018 | 34.825 | 2 |
| 2025-05-20T04:53:00 | 56.330672 | 3.666197 | 2.0 | 10.824 | 2 | 38.754 | 11.016 | 34.694 | 2 |
| 2025-05-20T04:54:00 | 56.330732 | 3.666322 | 2.0 | 10.815 | 2 | 38.780 | 11.019 | 34.717 | 2 |
| 2025-05-20T04:55:00 | 56.330831 | 3.666485 | 2.0 | 10.812 | 2 | 38.790 | 11.011 | 34.734 | 2 |
| 2025-05-20T04:56:00 | 56.330923 | 3.666561 | 2.0 | 10.809 | 2 | 38.776 | 11.009 | 34.722 | 2 |
| 2025-05-20T04:57:00 | 56.330880 | 3.666602 | 2.0 | 10.811 | 2 | 38.820 | 11.001 | 34.774 | 2 |
| 2025-05-20T04:58:00 | 56.330748 | 3.666562 | 2.0 | 10.811 | 2 | 38.748 | 10.997 | 34.706 | 2 |
| 2025-05-20T04:59:00 | 56.330789 | 3.666462 | 2.0 | 10.811 | 2 | 38.699 | 10.993 | 34.660 | 2 |
| 2025-05-20T05:00:00 | 56.330935 | 3.666465 | 2.0 | 10.809 | 2 | 38.782 | 10.991 | 34.745 | 2 |
| 2025-05-20T05:01:00 | 56.331026 | 3.666379 | 2.0 | 10.805 | 2 | 38.762 | 10.986 | 34.730 | 2 |
| 2025-05-20T05:02:00 | 56.331122 | 3.666346 | 2.0 | 10.807 | 2 | 38.760 | 10.984 | 34.730 | 2 |
| 2025-05-20T05:03:00 | 56.331172 | 3.666387 | 2.0 | 10.807 | 2 | 38.776 | 10.985 | 34.745 | 2 |
| 2025-05-20T05:04:00 | 56.331166 | 3.666422 | 2.0 | 10.805 | 2 | 38.877 | 10.982 | 34.849 | 2 |
| 2025-05-20T05:05:00 | 56.331380 | 3.666103 | 2.0 | 10.812 | 2 | 38.831 | 10.981 | 34.804 | 2 |
| 2025-05-20T05:06:00 | 56.332104 | 3.665910 | 2.0 | 10.810 | 2 | 38.818 | 10.986 | 34.786 | 2 |
| 2025-05-20T05:07:00 | 56.332611 | 3.667889 | 2.0 | 10.816 | 2 | 38.814 | 10.986 | 34.782 | 2 |
| 2025-05-20T05:08:00 | 56.331473 | 3.670154 | 2.0 | 10.810 | 2 | 38.781 | 10.991 | 34.744 | 2 |
| 2025-05-20T05:09:00 | 56.329237 | 3.671053 | 2.0 | 10.812 | 2 | 38.804 | 10.982 | 34.776 | 2 |
| 2025-05-20T05:10:00 | 56.326665 | 3.673063 | 2.0 | 10.836 | 2 | 38.818 | 10.992 | 34.780 | 2 |
| 2025-05-20T05:11:00 | 56.323891 | 3.675378 | 2.0 | 10.839 | 2 | 38.801 | 11.013 | 34.743 | 2 |
| 2025-05-20T05:12:00 | 56.321118 | 3.677920 | 2.0 | 10.818 | 2 | 38.805 | 11.013 | 34.747 | 2 |
| 2025-05-20T05:13:00 | 56.318271 | 3.680355 | 2.0 | 10.835 | 2 | 38.822 | 10.997 | 34.780 | 2 |
| 2025-05-20T05:14:00 | 56.315480 | 3.682986 | 2.0 | 10.874 | 2 | 38.841 | 11.020 | 34.777 | 2 |
| 2025-05-20T05:15:00 | 56.312743 | 3.685716 | 2.0 | 10.880 | 2 | 38.896 | 11.049 | 34.804 | 2 |
| 2025-05-20T05:16:00 | 56.309981 | 3.688440 | 2.0 | 10.891 | 2 | 38.882 | 11.055 | 34.785 | 2 |
| 2025-05-20T05:17:00 | 56.307193 | 3.691125 | 2.0 | 10.885 | 2 | 38.890 | 11.066 | 34.782 | 2 |
| 2025-05-20T05:18:00 | 56.304366 | 3.693630 | 2.0 | 10.865 | 2 | 38.889 | 11.059 | 34.788 | 2 |
| 2025-05-20T05:19:00 | 56.301519 | 3.696070 | 2.0 | 10.857 | 2 | 38.880 | 11.039 | 34.798 | 2 |
| 2025-05-20T05:20:00 | 56.298681 | 3.698425 | 2.0 | 10.860 | 2 | 38.870 | 11.033 | 34.793 | 2 |
| 2025-05-20T05:21:00 | 56.295840 | 3.700820 | 2.0 | 10.867 | 2 | 38.913 | 11.037 | 34.833 | 2 |
| 2025-05-20T05:22:00 | 56.293044 | 3.703284 | 2.0 | 10.879 | 2 | 38.908 | 11.044 | 34.821 | 2 |
| 2025-05-20T05:23:00 | 56.290183 | 3.705612 | 2.0 | 10.881 | 2 | 38.924 | 11.054 | 34.827 | 2 |
| 2025-05-20T05:24:00 | 56.287380 | 3.708066 | 2.0 | 10.880 | 2 | 38.931 | 11.054 | 34.834 | 2 |
| 2025-05-20T05:25:00 | 56.284592 | 3.710530 | 2.0 | 10.891 | 2 | 38.930 | 11.058 | 34.830 | 2 |
| 2025-05-20T05:26:00 | 56.281729 | 3.712831 | 2.0 | 10.893 | 2 | 38.959 | 11.066 | 34.851 | 2 |
| 2025-05-20T05:27:00 | 56.278954 | 3.715348 | 2.0 | 10.923 | 2 | 38.956 | 11.071 | 34.843 | 2 |
| 2025-05-20T05:28:00 | 56.276086 | 3.717641 | 2.0 | 10.961 | 2 | 38.991 | 11.104 | 34.847 | 2 |
| 2025-05-20T05:29:00 | 56.273286 | 3.720121 | 2.0 | 10.971 | 2 | 39.014 | 11.135 | 34.840 | 2 |
| 2025-05-20T05:30:00 | 56.270413 | 3.722500 | 2.0 | 10.971 | 2 | 39.031 | 11.144 | 34.849 | 2 |
| 2025-05-20T05:31:00 | 56.267573 | 3.724974 | 2.0 | 10.976 | 2 | 39.042 | 11.145 | 34.859 | 2 |
| 2025-05-20T05:32:00 | 56.264751 | 3.727390 | 2.0 | 10.980 | 2 | 39.061 | 11.148 | 34.875 | 2 |
| 2025-05-20T05:33:00 | 56.261946 | 3.729782 | 2.0 | 10.979 | 2 | 39.058 | 11.155 | 34.865 | 2 |
| 2025-05-20T05:34:00 | 56.259098 | 3.732146 | 2.0 | 10.962 | 2 | 39.084 | 11.157 | 34.889 | 2 |
| 2025-05-20T05:35:00 | 56.256272 | 3.734598 | 2.0 | 10.975 | 2 | 39.068 | 11.150 | 34.880 | 2 |
| 2025-05-20T05:36:00 | 56.253452 | 3.737050 | 2.0 | 11.022 | 2 | 39.092 | 11.174 | 34.881 | 2 |
| 2025-05-20T05:37:00 | 56.250613 | 3.739428 | 2.0 | 11.037 | 2 | 39.129 | 11.213 | 34.881 | 2 |
| 2025-05-20T05:38:00 | 56.247754 | 3.741777 | 2.0 | 11.039 | 2 | 39.154 | 11.227 | 34.892 | 2 |
| 2025-05-20T05:39:00 | 56.244918 | 3.744296 | 2.0 | 11.027 | 2 | 39.149 | 11.224 | 34.890 | 2 |
| 2025-05-20T05:40:00 | 56.242064 | 3.746710 | 2.0 | 10.986 | 2 | 39.133 | 11.204 | 34.893 | 2 |
| 2025-05-20T05:41:00 | 56.239186 | 3.749056 | 2.0 | 10.963 | 2 | 39.089 | 11.164 | 34.887 | 2 |
| 2025-05-20T05:42:00 | 56.236360 | 3.751470 | 2.0 | 10.966 | 2 | 39.066 | 11.143 | 34.884 | 2 |
| 2025-05-20T05:43:00 | 56.233524 | 3.753884 | 2.0 | 10.968 | 2 | 39.067 | 11.144 | 34.885 | 2 |
| 2025-05-20T05:44:00 | 56.230707 | 3.756292 | 2.0 | 10.999 | 2 | 39.075 | 11.148 | 34.889 | 2 |
| 2025-05-20T05:45:00 | 56.227940 | 3.758859 | 2.0 | 11.020 | 2 | 39.098 | 11.178 | 34.883 | 2 |
| 2025-05-20T05:46:00 | 56.225206 | 3.761542 | 2.0 | 11.018 | 2 | 39.115 | 11.196 | 34.883 | 2 |
| 2025-05-20T05:47:00 | 56.222377 | 3.763967 | 2.0 | 10.990 | 2 | 39.113 | 11.191 | 34.886 | 2 |
| 2025-05-20T05:48:00 | 56.219574 | 3.766562 | 2.0 | 10.967 | 2 | 39.088 | 11.162 | 34.888 | 2 |
| 2025-05-20T05:49:00 | 56.216800 | 3.769165 | 2.0 | 10.961 | 2 | 39.070 | 11.145 | 34.887 | 2 |
| 2025-05-20T05:50:00 | 56.214042 | 3.771800 | 2.0 | 10.966 | 2 | 39.062 | 11.136 | 34.887 | 2 |
| 2025-05-20T05:51:00 | 56.211258 | 3.774393 | 2.0 | 10.960 | 2 | 39.063 | 11.139 | 34.885 | 2 |
| 2025-05-20T05:52:00 | 56.208500 | 3.777007 | 2.0 | 10.967 | 2 | 39.058 | 11.135 | 34.884 | 2 |
| 2025-05-20T05:53:00 | 56.205702 | 3.779540 | 2.0 | 10.982 | 2 | 39.063 | 11.144 | 34.881 | 2 |
| 2025-05-20T05:54:00 | 56.202950 | 3.782218 | 2.0 | 11.004 | 2 | 39.070 | 11.158 | 34.874 | 2 |
| 2025-05-20T05:55:00 | 56.200149 | 3.784704 | 2.0 | 11.024 | 2 | 39.089 | 11.180 | 34.872 | 2 |
| 2025-05-20T05:56:00 | 56.197443 | 3.787342 | 2.0 | 11.034 | 2 | 39.104 | 11.197 | 34.871 | 2 |
| 2025-05-20T05:57:00 | 56.194707 | 3.789925 | 2.0 | 11.038 | 2 | 39.111 | 11.206 | 34.870 | 2 |
| 2025-05-20T05:58:00 | 56.191967 | 3.792571 | 2.0 | 11.048 | 2 | 39.114 | 11.211 | 34.868 | 2 |
| 2025-05-20T05:59:00 | 56.189215 | 3.795210 | 2.0 | 11.065 | 2 | 39.126 | 11.223 | 34.868 | 2 |
| 2025-05-20T06:00:00 | 56.186421 | 3.797751 | 2.0 | 11.078 | 2 | 39.140 | 11.239 | 34.867 | 2 |
| 2025-05-20T06:01:00 | 56.183702 | 3.800383 | 2.0 | 11.069 | 2 | 39.149 | 11.248 | 34.868 | 2 |
| 2025-05-20T06:02:00 | 56.180915 | 3.802898 | 2.0 | 11.038 | 2 | 39.138 | 11.235 | 34.869 | 2 |
| 2025-05-20T06:03:00 | 56.178168 | 3.805548 | 2.0 | 11.013 | 2 | 39.114 | 11.210 | 34.869 | 2 |
| 2025-05-20T06:04:00 | 56.175402 | 3.808132 | 2.0 | 10.994 | 2 | 39.088 | 11.183 | 34.868 | 2 |
| 2025-05-20T06:05:00 | 56.172670 | 3.810744 | 2.0 | 10.981 | 2 | 39.067 | 11.163 | 34.867 | 2 |
| 2025-05-20T06:06:00 | 56.169944 | 3.813250 | 2.0 | 10.997 | 2 | 39.059 | 11.158 | 34.863 | 2 |
| 2025-05-20T06:07:00 | 56.167211 | 3.815754 | 2.0 | 11.005 | 2 | 39.069 | 11.170 | 34.862 | 2 |
| 2025-05-20T06:08:00 | 56.164448 | 3.818252 | 2.0 | 11.010 | 2 | 39.076 | 11.177 | 34.862 | 2 |
| 2025-05-20T06:09:00 | 56.161678 | 3.820731 | 2.0 | 11.024 | 2 | 39.082 | 11.184 | 34.862 | 2 |
| 2025-05-20T06:10:00 | 56.158974 | 3.823416 | 2.0 | 11.049 | 2 | 39.095 | 11.202 | 34.857 | 2 |
| 2025-05-20T06:11:00 | 56.156261 | 3.826142 | 2.0 | 11.053 | 2 | 39.113 | 11.220 | 34.858 | 2 |
| 2025-05-20T06:12:00 | 56.153488 | 3.828635 | 2.0 | 11.049 | 2 | 39.118 | 11.225 | 34.858 | 2 |
| 2025-05-20T06:13:00 | 56.150711 | 3.831167 | 2.0 | 11.045 | 2 | 39.114 | 11.220 | 34.859 | 2 |
| 2025-05-20T06:14:00 | 56.147958 | 3.833741 | 2.0 | 11.043 | 2 | 39.110 | 11.216 | 34.859 | 2 |
| 2025-05-20T06:15:00 | 56.145208 | 3.836371 | 2.0 | 11.050 | 2 | 39.110 | 11.216 | 34.859 | 2 |
| 2025-05-20T06:16:00 | 56.142456 | 3.838986 | 2.0 | 11.038 | 2 | 39.113 | 11.219 | 34.859 | 2 |
| 2025-05-20T06:17:00 | 56.139660 | 3.841519 | 2.0 | 11.027 | 2 | 39.102 | 11.208 | 34.859 | 2 |
| 2025-05-20T06:18:00 | 56.136903 | 3.844131 | 2.0 | 11.036 | 2 | 39.093 | 11.200 | 34.857 | 2 |
| 2025-05-20T06:19:00 | 56.134126 | 3.846611 | 2.0 | 11.063 | 2 | 39.104 | 11.214 | 34.855 | 2 |
| 2025-05-20T06:20:00 | 56.131408 | 3.849344 | 2.0 | 11.063 | 2 | 39.125 | 11.235 | 34.856 | 2 |
| 2025-05-20T06:21:00 | 56.128604 | 3.851835 | 2.0 | 11.055 | 2 | 39.121 | 11.235 | 34.852 | 2 |
| 2025-05-20T06:22:00 | 56.125847 | 3.854504 | 2.0 | 11.057 | 2 | 39.116 | 11.228 | 34.854 | 2 |
| 2025-05-20T06:23:00 | 56.123048 | 3.857113 | 2.0 | 11.061 | 2 | 39.118 | 11.229 | 34.855 | 2 |
| 2025-05-20T06:24:00 | 56.120221 | 3.859640 | 2.0 | 11.073 | 2 | 39.124 | 11.236 | 34.854 | 2 |
| 2025-05-20T06:25:00 | 56.117471 | 3.862297 | 2.0 | 11.068 | 2 | 39.132 | 11.244 | 34.854 | 2 |
| 2025-05-20T06:26:00 | 56.114728 | 3.864957 | 2.0 | 11.073 | 2 | 39.128 | 11.239 | 34.855 | 2 |
| 2025-05-20T06:27:00 | 56.111969 | 3.867513 | 2.0 | 11.089 | 2 | 39.134 | 11.248 | 34.853 | 2 |
| 2025-05-20T06:28:00 | 56.109261 | 3.870196 | 2.0 | 11.108 | 2 | 39.148 | 11.262 | 34.853 | 2 |
| 2025-05-20T06:29:00 | 56.106465 | 3.872675 | 2.0 | 11.134 | 2 | 39.165 | 11.282 | 34.851 | 2 |
| 2025-05-20T06:30:00 | 56.103716 | 3.875170 | 2.0 | 11.176 | 2 | 39.193 | 11.312 | 34.851 | 2 |
| 2025-05-20T06:31:00 | 56.100965 | 3.877739 | 2.0 | 11.179 | 2 | 39.225 | 11.346 | 34.850 | 2 |
| 2025-05-20T06:32:00 | 56.098182 | 3.880362 | 2.0 | 11.164 | 2 | 39.229 | 11.346 | 34.854 | 2 |
| 2025-05-20T06:33:00 | 56.095391 | 3.882976 | 2.0 | 11.147 | 2 | 39.217 | 11.332 | 34.856 | 2 |
| 2025-05-20T06:34:00 | 56.092636 | 3.885597 | 2.0 | 11.147 | 2 | 39.201 | 11.317 | 34.854 | 2 |
| 2025-05-20T06:35:00 | 56.089914 | 3.888214 | 2.0 | 11.149 | 2 | 39.200 | 11.318 | 34.852 | 2 |
| 2025-05-20T06:36:00 | 56.087126 | 3.890748 | 2.0 | 11.149 | 2 | 39.201 | 11.319 | 34.852 | 2 |
| 2025-05-20T06:37:00 | 56.084348 | 3.893308 | 2.0 | 11.163 | 2 | 39.201 | 11.321 | 34.850 | 2 |
| 2025-05-20T06:38:00 | 56.081573 | 3.895879 | 2.0 | 11.177 | 2 | 38.692 | 11.336 | 34.332 | 2 |
| 2025-05-20T06:39:00 | 56.078797 | 3.898412 | 2.0 | 11.184 | 2 | 39.132 | 11.347 | 34.757 | 2 |
| 2025-05-20T06:40:00 | 56.076046 | 3.901109 | 2.0 | 11.181 | 2 | 39.231 | 11.353 | 34.850 | 2 |
| 2025-05-20T06:41:00 | 56.073242 | 3.903629 | 2.0 | 11.172 | 2 | 39.227 | 11.349 | 34.849 | 2 |
| 2025-05-20T06:42:00 | 56.070506 | 3.906273 | 2.0 | 11.169 | 2 | 39.178 | 11.341 | 34.808 | 2 |
| 2025-05-20T06:43:00 | 56.067725 | 3.908803 | 2.0 | 11.166 | 2 | 39.217 | 11.341 | 34.847 | 2 |
| 2025-05-20T06:44:00 | 56.065022 | 3.911509 | 2.0 | 11.155 | 2 | 38.934 | 11.333 | 34.574 | 2 |
| 2025-05-20T06:45:00 | 56.062274 | 3.914090 | 2.0 | 11.154 | 2 | 39.200 | 11.325 | 34.845 | 2 |
| 2025-05-20T06:47:00 | 56.056735 | 3.919153 | 2.0 | 11.133 | 2 | 39.097 | 11.323 | 34.745 | 2 |
| 2025-05-20T06:48:00 | 56.053952 | 3.921652 | 2.0 | 11.132 | 2 | 38.690 | 11.303 | 34.360 | 2 |
| 2025-05-20T06:49:00 | 56.051205 | 3.924243 | 2.0 | 11.160 | 2 | 38.650 | 11.311 | 34.313 | 2 |
| 2025-05-20T06:50:00 | 56.048412 | 3.926786 | 2.0 | 11.148 | 2 | 39.198 | 11.328 | 34.840 | 2 |
| 2025-05-20T06:52:00 | 56.042910 | 3.932007 | 2.0 | 11.147 | 2 | 38.705 | 11.316 | 34.363 | 2 |
| 2025-05-20T06:53:00 | 56.040193 | 3.934599 | 2.0 | 11.135 | 2 | 38.662 | 11.316 | 34.321 | 2 |
| 2025-05-20T06:54:00 | 56.037451 | 3.937143 | 2.0 | 11.110 | 2 | 38.667 | 11.302 | 34.339 | 2 |
| 2025-05-20T06:56:00 | 56.032024 | 3.942149 | 2.0 | 11.062 | 2 | 38.604 | 11.245 | 34.329 | 2 |
| 2025-05-20T06:57:00 | 56.029333 | 3.944717 | 2.0 | 11.069 | 2 | 38.714 | 11.235 | 34.448 | 2 |
| 2025-05-20T06:59:00 | 56.023907 | 3.949848 | 2.0 | 11.141 | 2 | 38.676 | 11.278 | 34.370 | 2 |
| 2025-05-20T07:00:00 | 56.021158 | 3.952404 | 2.0 | 11.159 | 2 | 39.121 | 11.314 | 34.777 | 2 |
| 2025-05-20T07:01:00 | 56.018349 | 3.954820 | 2.0 | 11.155 | 2 | 38.809 | 11.327 | 34.456 | 2 |
| 2025-05-20T07:02:00 | 56.015639 | 3.957415 | 2.0 | 11.158 | 2 | 38.639 | 11.325 | 34.290 | 2 |
| 2025-05-20T07:03:00 | 56.012903 | 3.959932 | 2.0 | 11.161 | 2 | 39.009 | 11.330 | 34.651 | 2 |
| 2025-05-20T07:04:00 | 56.010173 | 3.962548 | 2.0 | 11.160 | 2 | 38.826 | 11.331 | 34.469 | 2 |
| 2025-05-20T07:05:00 | 56.007424 | 3.965132 | 2.0 | 11.151 | 2 | 38.949 | 11.328 | 34.594 | 2 |
| 2025-05-20T07:06:00 | 56.004691 | 3.967622 | 2.0 | 11.140 | 2 | 38.926 | 11.318 | 34.580 | 2 |
| 2025-05-20T07:07:00 | 56.001946 | 3.970175 | 2.0 | 11.141 | 2 | 38.720 | 11.311 | 34.383 | 2 |
| 2025-05-20T07:08:00 | 55.999178 | 3.972716 | 2.0 | 11.142 | 2 | 38.932 | 11.311 | 34.593 | 2 |
| 2025-05-20T07:09:00 | 55.996455 | 3.975316 | 2.0 | 11.150 | 2 | 38.744 | 11.313 | 34.405 | 2 |
| 2025-05-20T07:10:00 | 55.993713 | 3.977859 | 2.0 | 11.161 | 2 | 38.979 | 11.321 | 34.630 | 2 |
| 2025-05-20T07:11:00 | 55.990927 | 3.980354 | 2.0 | 11.162 | 2 | 38.760 | 11.331 | 34.404 | 2 |
| 2025-05-20T07:12:00 | 55.988238 | 3.982975 | 2.0 | 11.159 | 2 | 38.888 | 11.330 | 34.531 | 2 |
| 2025-05-20T07:13:00 | 55.985489 | 3.985496 | 2.0 | 11.153 | 2 | 38.948 | 11.327 | 34.594 | 2 |
| 2025-05-20T07:14:00 | 55.982761 | 3.988098 | 2.0 | 11.169 | 2 | 38.935 | 11.324 | 34.584 | 2 |
| 2025-05-20T07:15:00 | 55.980009 | 3.990632 | 2.0 | 11.196 | 2 | 38.839 | 11.342 | 34.472 | 2 |
| 2025-05-20T07:16:00 | 55.977260 | 3.993258 | 2.0 | 11.202 | 2 | 38.935 | 11.365 | 34.545 | 2 |
| 2025-05-20T07:17:00 | 55.974484 | 3.995788 | 2.0 | 11.199 | 2 | 38.875 | 11.370 | 34.481 | 2 |
| 2025-05-20T07:18:00 | 55.971737 | 3.998401 | 2.0 | 11.202 | 2 | 38.869 | 11.367 | 34.478 | 2 |
| 2025-05-20T07:19:00 | 55.968974 | 4.000986 | 2.0 | 11.221 | 2 | 39.043 | 11.375 | 34.643 | 2 |
| 2025-05-20T07:20:00 | 55.966218 | 4.003516 | 2.0 | 11.228 | 2 | 38.935 | 11.389 | 34.523 | 2 |
| 2025-05-20T07:21:00 | 55.963492 | 4.006152 | 2.0 | 11.233 | 2 | 38.936 | 11.396 | 34.517 | 2 |
| 2025-05-20T07:22:00 | 55.960755 | 4.008647 | 2.0 | 11.248 | 2 | 39.005 | 11.403 | 34.579 | 2 |
| 2025-05-20T07:23:00 | 55.958023 | 4.011291 | 2.0 | 11.258 | 2 | 39.020 | 11.418 | 34.580 | 2 |
| 2025-05-20T07:24:00 | 55.955260 | 4.013901 | 2.0 | 11.270 | 2 | 39.115 | 11.430 | 34.662 | 2 |
| 2025-05-20T07:25:00 | 55.952473 | 4.016318 | 2.0 | 11.279 | 2 | 39.033 | 11.440 | 34.572 | 2 |
| 2025-05-20T07:26:00 | 55.949754 | 4.018881 | 2.0 | 11.287 | 2 | 39.045 | 11.446 | 34.578 | 2 |
| 2025-05-20T07:27:00 | 55.947009 | 4.021468 | 2.0 | 11.307 | 2 | 39.060 | 11.459 | 34.581 | 2 |
| 2025-05-20T07:28:00 | 55.944266 | 4.024018 | 2.0 | 11.303 | 2 | 39.072 | 11.475 | 34.577 | 2 |
| 2025-05-20T07:29:00 | 55.941537 | 4.026555 | 2.0 | 11.287 | 2 | 39.109 | 11.469 | 34.620 | 2 |
| 2025-05-20T07:30:00 | 55.938798 | 4.029141 | 2.0 | 11.306 | 2 | 39.129 | 11.459 | 34.649 | 2 |
| 2025-05-20T07:31:00 | 55.936028 | 4.031623 | 2.0 | 11.341 | 2 | 39.093 | 11.481 | 34.593 | 2 |
| 2025-05-20T07:32:00 | 55.933306 | 4.034274 | 2.0 | 11.357 | 2 | 39.136 | 11.509 | 34.609 | 2 |
| 2025-05-20T07:33:00 | 55.930517 | 4.036749 | 2.0 | 11.375 | 2 | 39.199 | 11.527 | 34.654 | 2 |
| 2025-05-20T07:34:00 | 55.927797 | 4.039436 | 2.0 | 11.376 | 2 | 39.199 | 11.540 | 34.642 | 2 |
| 2025-05-20T07:35:00 | 55.925045 | 4.041889 | 2.0 | 11.383 | 2 | 39.188 | 11.545 | 34.626 | 2 |
| 2025-05-20T07:36:00 | 55.922359 | 4.044538 | 2.0 | 11.377 | 2 | 39.210 | 11.550 | 34.643 | 2 |
| 2025-05-20T07:37:00 | 55.919622 | 4.047129 | 2.0 | 11.367 | 2 | 39.220 | 11.543 | 34.660 | 2 |
| 2025-05-20T07:38:00 | 55.916819 | 4.049582 | 2.0 | 11.368 | 2 | 39.217 | 11.534 | 34.665 | 2 |
| 2025-05-20T07:39:00 | 55.914039 | 4.052155 | 2.0 | 11.412 | 2 | 39.221 | 11.541 | 34.663 | 2 |
| 2025-05-20T07:40:00 | 55.911296 | 4.054731 | 2.0 | 11.467 | 2 | 39.249 | 11.587 | 34.647 | 2 |
| 2025-05-20T07:41:00 | 55.908535 | 4.057244 | 2.0 | 11.459 | 2 | 39.303 | 11.629 | 34.661 | 2 |
| 2025-05-20T07:42:00 | 55.905790 | 4.059835 | 2.0 | 11.446 | 2 | 39.324 | 11.624 | 34.686 | 2 |
| 2025-05-20T07:43:00 | 55.903043 | 4.062451 | 2.0 | 11.451 | 2 | 39.310 | 11.615 | 34.681 | 2 |
| 2025-05-20T07:44:00 | 55.900255 | 4.064977 | 2.0 | 11.453 | 2 | 39.329 | 11.621 | 34.694 | 2 |
| 2025-05-20T07:45:00 | 55.897507 | 4.067586 | 2.0 | 11.439 | 2 | 39.328 | 11.620 | 34.694 | 2 |
| 2025-05-20T07:46:00 | 55.894761 | 4.070110 | 2.0 | 11.441 | 2 | 39.304 | 11.606 | 34.684 | 2 |
| 2025-05-20T07:47:00 | 55.892030 | 4.072713 | 2.0 | 11.467 | 2 | 39.307 | 11.613 | 34.680 | 2 |
| 2025-05-20T07:48:00 | 55.889256 | 4.075312 | 2.0 | 11.484 | 2 | 39.337 | 11.637 | 34.687 | 2 |
| 2025-05-20T07:49:00 | 55.886513 | 4.077895 | 2.0 | 11.492 | 2 | 39.387 | 11.651 | 34.723 | 2 |
| 2025-05-20T07:50:00 | 55.883729 | 4.080417 | 2.0 | 11.502 | 2 | 39.386 | 11.659 | 34.715 | 2 |
| 2025-05-20T07:51:00 | 55.880926 | 4.082944 | 2.0 | 11.512 | 2 | 39.391 | 11.669 | 34.710 | 2 |
| 2025-05-20T07:52:00 | 55.878157 | 4.085520 | 2.0 | 11.525 | 2 | 39.409 | 11.680 | 34.718 | 2 |
| 2025-05-20T07:53:00 | 55.875402 | 4.088084 | 2.0 | 11.521 | 2 | 39.437 | 11.690 | 34.736 | 2 |
| 2025-05-20T07:54:00 | 55.872647 | 4.090615 | 2.0 | 11.514 | 2 | 39.412 | 11.685 | 34.716 | 2 |
| 2025-05-20T07:55:00 | 55.869873 | 4.093201 | 2.0 | 11.512 | 2 | 39.404 | 11.679 | 34.714 | 2 |
| 2025-05-20T07:56:00 | 55.867086 | 4.095769 | 2.0 | 11.521 | 2 | 39.425 | 11.681 | 34.732 | 2 |
| 2025-05-20T07:57:00 | 55.864360 | 4.098401 | 2.0 | 11.534 | 2 | 39.430 | 11.689 | 34.730 | 2 |
| 2025-05-20T07:58:00 | 55.861614 | 4.100872 | 2.0 | 11.541 | 2 | 39.449 | 11.701 | 34.737 | 2 |
| 2025-05-20T07:59:00 | 55.858842 | 4.103342 | 2.0 | 11.545 | 2 | 39.462 | 11.709 | 34.742 | 2 |
| 2025-05-20T08:00:00 | 55.856097 | 4.105942 | 2.0 | 11.542 | 2 | 39.456 | 11.711 | 34.735 | 2 |
| 2025-05-20T08:01:00 | 55.853367 | 4.108539 | 2.0 | 11.536 | 2 | 39.469 | 11.709 | 34.749 | 2 |
| 2025-05-20T08:02:00 | 55.850630 | 4.111110 | 2.0 | 11.526 | 2 | 39.458 | 11.700 | 34.747 | 2 |
| 2025-05-20T08:03:00 | 55.847903 | 4.113736 | 2.0 | 11.525 | 2 | 39.458 | 11.694 | 34.753 | 2 |
| 2025-05-20T08:04:00 | 55.845100 | 4.116192 | 2.0 | 11.540 | 2 | 39.458 | 11.695 | 34.752 | 2 |
| 2025-05-20T08:05:00 | 55.842373 | 4.118816 | 2.0 | 11.553 | 2 | 39.473 | 11.710 | 34.752 | 2 |
| 2025-05-20T08:06:00 | 55.839625 | 4.121477 | 2.0 | 11.555 | 2 | 39.484 | 11.720 | 34.754 | 2 |
| 2025-05-20T08:07:00 | 55.836828 | 4.123974 | 2.0 | 11.546 | 2 | 39.481 | 11.721 | 34.750 | 2 |
| 2025-05-20T08:08:00 | 55.834037 | 4.126569 | 2.0 | 11.539 | 2 | 39.477 | 11.714 | 34.753 | 2 |
| 2025-05-20T08:09:00 | 55.831296 | 4.129164 | 2.0 | 11.523 | 2 | 39.468 | 11.703 | 34.754 | 2 |
| 2025-05-20T08:10:00 | 55.828531 | 4.131724 | 2.0 | 11.514 | 2 | 39.455 | 11.690 | 34.753 | 2 |
| 2025-05-20T08:11:00 | 55.825761 | 4.134276 | 2.0 | 11.514 | 2 | 39.448 | 11.683 | 34.753 | 2 |
| 2025-05-20T08:12:00 | 55.822967 | 4.136908 | 2.0 | 11.523 | 2 | 39.448 | 11.685 | 34.751 | 2 |
| 2025-05-20T08:13:00 | 55.820191 | 4.139543 | 2.0 | 11.532 | 2 | 39.453 | 11.692 | 34.750 | 2 |
| 2025-05-20T08:14:00 | 55.817405 | 4.142071 | 2.0 | 11.543 | 2 | 39.461 | 11.701 | 34.749 | 2 |
| 2025-05-20T08:15:00 | 55.814656 | 4.144648 | 2.0 | 11.555 | 2 | 39.469 | 11.710 | 34.748 | 2 |
| 2025-05-20T08:16:00 | 55.811889 | 4.147202 | 2.0 | 11.567 | 2 | 39.481 | 11.724 | 34.747 | 2 |
| 2025-05-20T08:17:00 | 55.809147 | 4.149846 | 2.0 | 11.576 | 2 | 39.492 | 11.735 | 34.748 | 2 |
| 2025-05-20T08:18:00 | 55.806386 | 4.152414 | 2.0 | 11.578 | 2 | 39.498 | 11.742 | 34.747 | 2 |
| 2025-05-20T08:19:00 | 55.803602 | 4.154916 | 2.0 | 11.580 | 2 | 39.499 | 11.745 | 34.745 | 2 |
| 2025-05-20T08:20:00 | 55.800852 | 4.157491 | 2.0 | 11.570 | 2 | 39.496 | 11.747 | 34.740 | 2 |
| 2025-05-20T08:21:00 | 55.798107 | 4.160086 | 2.0 | 11.552 | 2 | 39.484 | 11.736 | 34.739 | 2 |
| 2025-05-20T08:22:00 | 55.795327 | 4.162643 | 2.0 | 11.535 | 2 | 39.465 | 11.717 | 34.738 | 2 |
| 2025-05-20T08:23:00 | 55.792538 | 4.165198 | 2.0 | 11.522 | 2 | 39.447 | 11.701 | 34.735 | 2 |
| 2025-05-20T08:24:00 | 55.789734 | 4.167791 | 2.0 | 11.509 | 2 | 39.435 | 11.691 | 34.733 | 2 |
| 2025-05-20T08:25:00 | 55.786954 | 4.170409 | 2.0 | 11.488 | 2 | 39.417 | 11.673 | 34.732 | 2 |
| 2025-05-20T08:26:00 | 55.784240 | 4.173164 | 2.0 | 11.469 | 2 | 39.396 | 11.654 | 34.729 | 2 |
| 2025-05-20T08:27:00 | 55.781832 | 4.176685 | 2.0 | 11.465 | 2 | 39.379 | 11.638 | 34.727 | 2 |
| 2025-05-20T08:28:00 | 55.779271 | 4.179817 | 2.0 | 11.481 | 2 | 39.373 | 11.636 | 34.723 | 2 |
| 2025-05-20T08:29:00 | 55.776739 | 4.183036 | 2.0 | 11.480 | 2 | 39.384 | 11.649 | 34.722 | 2 |
| 2025-05-20T08:30:00 | 55.774256 | 4.186412 | 2.0 | 11.475 | 2 | 39.383 | 11.647 | 34.723 | 2 |
| 2025-05-20T08:31:00 | 55.771783 | 4.189792 | 2.0 | 11.456 | 2 | 39.375 | 11.638 | 34.723 | 2 |
| 2025-05-20T08:32:00 | 55.769268 | 4.193122 | 2.0 | 11.455 | 2 | 39.360 | 11.624 | 34.722 | 2 |
| 2025-05-20T08:33:00 | 55.766783 | 4.196471 | 2.0 | 11.465 | 2 | 39.359 | 11.625 | 34.720 | 2 |
| 2025-05-20T08:34:00 | 55.764269 | 4.199848 | 2.0 | 11.481 | 2 | 39.366 | 11.634 | 34.718 | 2 |
| 2025-05-20T08:35:00 | 55.761782 | 4.203241 | 2.0 | 11.498 | 2 | 39.381 | 11.652 | 34.716 | 2 |
| 2025-05-20T08:36:00 | 55.759280 | 4.206694 | 2.0 | 11.496 | 2 | 39.392 | 11.663 | 34.717 | 2 |
| 2025-05-20T08:37:00 | 55.756789 | 4.210045 | 2.0 | 11.482 | 2 | 39.388 | 11.662 | 34.714 | 2 |
| 2025-05-20T08:38:00 | 55.754309 | 4.213434 | 2.0 | 11.484 | 2 | 39.379 | 11.651 | 34.715 | 2 |
| 2025-05-20T08:39:00 | 55.751795 | 4.216812 | 2.0 | 11.472 | 2 | 39.375 | 11.649 | 34.713 | 2 |
| 2025-05-20T08:40:00 | 55.749295 | 4.220215 | 2.0 | 11.465 | 2 | 39.364 | 11.638 | 34.713 | 2 |
| 2025-05-20T08:41:00 | 55.746787 | 4.223538 | 2.0 | 11.476 | 2 | 39.360 | 11.636 | 34.711 | 2 |
| 2025-05-20T08:42:00 | 55.744294 | 4.226821 | 2.0 | 11.486 | 2 | 39.368 | 11.645 | 34.710 | 2 |
| 2025-05-20T08:43:00 | 55.741825 | 4.230251 | 2.0 | 11.494 | 2 | 39.376 | 11.655 | 34.709 | 2 |
| 2025-05-20T08:44:00 | 55.739290 | 4.233581 | 2.0 | 11.483 | 2 | 39.382 | 11.659 | 34.711 | 2 |
| 2025-05-20T08:45:00 | 55.736802 | 4.237047 | 2.0 | 11.458 | 2 | 39.367 | 11.643 | 34.711 | 2 |
| 2025-05-20T08:46:00 | 55.734265 | 4.240344 | 2.0 | 11.436 | 2 | 39.347 | 11.622 | 34.711 | 2 |
| 2025-05-20T08:47:00 | 55.731761 | 4.243771 | 2.0 | 11.436 | 2 | 39.329 | 11.606 | 34.708 | 2 |
| 2025-05-20T08:48:00 | 55.729248 | 4.247145 | 2.0 | 11.439 | 2 | 39.327 | 11.605 | 34.707 | 2 |
| 2025-05-20T08:49:00 | 55.726743 | 4.250488 | 2.0 | 11.426 | 2 | 39.328 | 11.606 | 34.707 | 2 |
| 2025-05-20T08:50:00 | 55.724247 | 4.253952 | 2.0 | 11.420 | 2 | 39.317 | 11.594 | 34.708 | 2 |
| 2025-05-20T08:51:00 | 55.721688 | 4.257281 | 2.0 | 11.416 | 2 | 39.310 | 11.586 | 34.708 | 2 |
| 2025-05-20T08:52:00 | 55.719200 | 4.260691 | 2.0 | 11.407 | 2 | 39.305 | 11.581 | 34.708 | 2 |
| 2025-05-20T08:53:00 | 55.716665 | 4.264037 | 2.0 | 11.428 | 2 | 39.303 | 11.580 | 34.707 | 2 |
| 2025-05-20T08:54:00 | 55.714177 | 4.267476 | 2.0 | 11.437 | 2 | 39.317 | 11.597 | 34.705 | 2 |
| 2025-05-20T08:55:00 | 55.711657 | 4.270848 | 2.0 | 11.418 | 2 | 39.320 | 11.599 | 34.706 | 2 |
| 2025-05-20T08:56:00 | 55.709159 | 4.274183 | 2.0 | 11.406 | 2 | 39.305 | 11.585 | 34.704 | 2 |
| 2025-05-20T08:57:00 | 55.706704 | 4.277571 | 2.0 | 11.384 | 2 | 39.291 | 11.571 | 34.704 | 2 |
| 2025-05-20T08:58:00 | 55.704172 | 4.280894 | 2.0 | 11.355 | 2 | 39.267 | 11.551 | 34.699 | 2 |
| 2025-05-20T08:59:00 | 55.701703 | 4.284351 | 2.0 | 11.335 | 2 | 39.237 | 11.523 | 34.695 | 2 |
| 2025-05-20T09:00:00 | 55.699175 | 4.287672 | 2.0 | 11.336 | 2 | 39.212 | 11.503 | 34.689 | 2 |
| 2025-05-20T09:01:00 | 55.696696 | 4.291115 | 2.0 | 11.342 | 2 | 39.212 | 11.507 | 34.686 | 2 |
| 2025-05-20T09:02:00 | 55.694116 | 4.294475 | 2.0 | 11.343 | 2 | 39.215 | 11.513 | 34.683 | 2 |
| 2025-05-20T09:03:00 | 55.691594 | 4.297871 | 2.0 | 11.347 | 2 | 39.210 | 11.513 | 34.678 | 2 |
| 2025-05-20T09:04:00 | 55.689061 | 4.301234 | 2.0 | 11.331 | 2 | 39.213 | 11.515 | 34.679 | 2 |
| 2025-05-20T09:05:00 | 55.686586 | 4.304622 | 2.0 | 11.291 | 2 | 39.195 | 11.494 | 34.681 | 2 |
| 2025-05-20T09:06:00 | 55.684101 | 4.307990 | 2.0 | 11.271 | 2 | 39.160 | 11.457 | 34.681 | 2 |
| 2025-05-20T09:07:00 | 55.681595 | 4.311390 | 2.0 | 11.272 | 2 | 39.143 | 11.442 | 34.679 | 2 |
| 2025-05-20T09:08:00 | 55.679063 | 4.314744 | 2.0 | 11.306 | 2 | 39.145 | 11.446 | 34.677 | 2 |
| 2025-05-20T09:09:00 | 55.676547 | 4.318110 | 2.0 | 11.323 | 2 | 39.174 | 11.476 | 34.677 | 2 |
| 2025-05-20T09:10:00 | 55.674007 | 4.321445 | 2.0 | 11.324 | 2 | 39.191 | 11.491 | 34.680 | 2 |
| 2025-05-20T09:11:00 | 55.671538 | 4.324945 | 2.0 | 11.309 | 2 | 39.191 | 11.488 | 34.683 | 2 |
| 2025-05-20T09:12:00 | 55.669005 | 4.328245 | 2.0 | 11.311 | 2 | 39.181 | 11.478 | 34.682 | 2 |
| 2025-05-20T09:13:00 | 55.666495 | 4.331677 | 2.0 | 11.317 | 2 | 39.183 | 11.481 | 34.681 | 2 |
| 2025-05-20T09:14:00 | 55.663999 | 4.335054 | 2.0 | 11.314 | 2 | 39.181 | 11.481 | 34.679 | 2 |
| 2025-05-20T09:15:00 | 55.661479 | 4.338308 | 2.0 | 11.332 | 2 | 39.188 | 11.487 | 34.681 | 2 |
| 2025-05-20T09:16:00 | 55.659003 | 4.341687 | 2.0 | 11.310 | 2 | 39.198 | 11.496 | 34.682 | 2 |
| 2025-05-20T09:17:00 | 55.656513 | 4.345021 | 2.0 | 11.265 | 2 | 39.175 | 11.469 | 34.685 | 2 |
| 2025-05-20T09:18:00 | 55.654086 | 4.348433 | 2.0 | 11.272 | 2 | 39.143 | 11.436 | 34.684 | 2 |
| 2025-05-20T09:19:00 | 55.651613 | 4.351822 | 2.0 | 11.301 | 2 | 39.151 | 11.446 | 34.683 | 2 |
| 2025-05-20T09:20:00 | 55.649082 | 4.355091 | 2.0 | 11.343 | 2 | 39.179 | 11.474 | 34.684 | 2 |
| 2025-05-20T09:21:00 | 55.646597 | 4.358442 | 2.0 | 11.416 | 2 | 39.219 | 11.517 | 34.683 | 2 |
| 2025-05-20T09:22:00 | 55.644072 | 4.361723 | 2.0 | 11.437 | 2 | 39.280 | 11.580 | 34.684 | 2 |
| 2025-05-20T09:23:00 | 55.641554 | 4.365118 | 2.0 | 11.423 | 2 | 39.305 | 11.600 | 34.690 | 2 |
| 2025-05-20T09:24:00 | 55.639071 | 4.368559 | 2.0 | 11.390 | 2 | 39.293 | 11.584 | 34.693 | 2 |
| 2025-05-20T09:25:00 | 55.636551 | 4.371969 | 2.0 | 11.361 | 2 | 39.266 | 11.554 | 34.695 | 2 |
| 2025-05-20T09:26:00 | 55.634010 | 4.375355 | 2.0 | 11.326 | 2 | 39.237 | 11.524 | 34.694 | 2 |
| 2025-05-20T09:27:00 | 55.631468 | 4.378717 | 2.0 | 11.324 | 2 | 39.210 | 11.497 | 34.693 | 2 |
| 2025-05-20T09:28:00 | 55.628976 | 4.382143 | 2.0 | 11.301 | 2 | 39.199 | 11.489 | 34.690 | 2 |
| 2025-05-20T09:29:00 | 55.626439 | 4.385459 | 2.0 | 11.287 | 2 | 39.180 | 11.467 | 34.692 | 2 |
| 2025-05-20T09:30:00 | 55.623948 | 4.388865 | 2.0 | 11.319 | 2 | 39.095 | 11.460 | 34.614 | 2 |
| 2025-05-20T09:31:00 | 55.621419 | 4.392184 | 2.0 | 11.337 | 2 | 39.196 | 11.490 | 34.686 | 2 |
| 2025-05-20T09:32:00 | 55.618924 | 4.395621 | 2.0 | 11.343 | 2 | 39.212 | 11.505 | 34.688 | 2 |
| 2025-05-20T09:33:00 | 55.616402 | 4.398961 | 2.0 | 11.348 | 2 | 39.219 | 11.512 | 34.688 | 2 |
| 2025-05-20T09:34:00 | 55.613873 | 4.402366 | 2.0 | 11.346 | 2 | 39.223 | 11.516 | 34.688 | 2 |
| 2025-05-20T09:35:00 | 55.611376 | 4.405760 | 2.0 | 11.354 | 2 | 38.436 | 11.515 | 33.914 | 2 |
| 2025-05-20T09:36:00 | 55.608888 | 4.409213 | 2.0 | 11.367 | 2 | 38.972 | 11.524 | 34.433 | 2 |
| 2025-05-20T09:37:00 | 55.606353 | 4.412566 | 2.0 | 11.356 | 2 | 39.238 | 11.532 | 34.688 | 2 |
| 2025-05-20T09:38:00 | 55.603826 | 4.415911 | 2.0 | 11.347 | 2 | 39.201 | 11.522 | 34.661 | 2 |
| 2025-05-20T09:39:00 | 55.601345 | 4.419337 | 2.0 | 11.338 | 2 | 38.945 | 11.512 | 34.418 | 2 |
| 2025-05-20T09:40:00 | 55.598802 | 4.422644 | 2.0 | 11.349 | 2 | 38.459 | 11.509 | 33.942 | 2 |
| 2025-05-20T09:41:00 | 55.596287 | 4.425986 | 2.0 | 11.372 | 2 | 39.224 | 11.520 | 34.685 | 2 |
| 2025-05-20T09:42:00 | 55.593772 | 4.429340 | 2.0 | 11.401 | 2 | 39.219 | 11.545 | 34.657 | 2 |
| 2025-05-20T09:43:00 | 55.591280 | 4.432748 | 2.0 | 11.430 | 2 | 39.002 | 11.571 | 34.419 | 2 |
| 2025-05-20T09:44:00 | 55.588733 | 4.436056 | 2.0 | 11.447 | 2 | 39.299 | 11.599 | 34.685 | 2 |
| 2025-05-20T09:45:00 | 55.586224 | 4.439433 | 2.0 | 11.431 | 2 | 38.958 | 11.611 | 34.338 | 2 |
| 2025-05-20T09:46:00 | 55.583745 | 4.442899 | 2.0 | 11.424 | 2 | 38.779 | 11.595 | 34.177 | 2 |
| 2025-05-20T09:47:00 | 55.581225 | 4.446204 | 2.0 | 11.447 | 2 | 38.881 | 11.594 | 34.279 | 2 |
| 2025-05-20T09:48:00 | 55.578723 | 4.449520 | 2.0 | 11.469 | 2 | 38.524 | 11.621 | 33.903 | 2 |
| 2025-05-20T09:49:00 | 55.576235 | 4.452919 | 2.0 | 11.446 | 2 | 38.950 | 11.630 | 34.313 | 2 |
| 2025-05-20T09:50:00 | 55.573730 | 4.456219 | 2.0 | 11.449 | 2 | 38.779 | 11.614 | 34.160 | 2 |
| 2025-05-20T09:51:00 | 55.571247 | 4.459565 | 2.0 | 11.440 | 2 | 39.080 | 11.615 | 34.455 | 2 |
| 2025-05-20T09:52:00 | 55.568777 | 4.463036 | 2.0 | 11.429 | 2 | 38.659 | 11.608 | 34.048 | 2 |
| 2025-05-20T09:53:00 | 55.566255 | 4.466337 | 2.0 | 11.427 | 2 | 39.296 | 11.596 | 34.685 | 2 |
| 2025-05-20T09:54:00 | 55.563767 | 4.469636 | 2.0 | 11.424 | 2 | 38.961 | 11.598 | 34.354 | 2 |
| 2025-05-20T09:55:00 | 55.561263 | 4.472984 | 2.0 | 11.399 | 2 | 38.924 | 11.587 | 34.327 | 2 |
| 2025-05-20T09:56:00 | 55.558749 | 4.476330 | 2.0 | 11.394 | 2 | 38.760 | 11.567 | 34.185 | 2 |
| 2025-05-20T09:57:00 | 55.556250 | 4.479680 | 2.0 | 11.388 | 2 | 38.970 | 11.562 | 34.396 | 2 |
| 2025-05-20T09:58:00 | 55.553739 | 4.483019 | 2.0 | 11.376 | 2 | 38.920 | 11.555 | 34.353 | 2 |
| 2025-05-20T09:59:00 | 55.551210 | 4.486319 | 2.0 | 11.362 | 2 | 39.129 | 11.542 | 34.571 | 2 |
| 2025-05-20T10:00:00 | 55.548735 | 4.489780 | 2.0 | 11.360 | 2 | 38.993 | 11.532 | 34.446 | 2 |
| 2025-05-20T10:01:00 | 55.546184 | 4.493095 | 2.0 | 11.347 | 2 | 38.794 | 11.526 | 34.256 | 2 |
| 2025-05-20T10:02:00 | 55.543653 | 4.496518 | 2.0 | 11.353 | 2 | 38.891 | 11.518 | 34.359 | 2 |
| 2025-05-20T10:03:00 | 55.541157 | 4.500059 | 2.0 | 11.359 | 2 | 38.980 | 11.522 | 34.443 | 2 |
| 2025-05-20T10:04:00 | 55.538601 | 4.503415 | 2.0 | 11.363 | 2 | 39.042 | 11.529 | 34.497 | 2 |
| 2025-05-20T10:05:00 | 55.536068 | 4.506750 | 2.0 | 11.355 | 2 | 38.859 | 11.531 | 34.315 | 2 |
| 2025-05-20T10:06:00 | 55.533563 | 4.510208 | 2.0 | 11.321 | 2 | 39.001 | 11.516 | 34.469 | 2 |
| 2025-05-20T10:07:00 | 55.531037 | 4.513581 | 2.0 | 11.314 | 2 | 39.004 | 11.489 | 34.497 | 2 |
| 2025-05-20T10:08:00 | 55.528517 | 4.516944 | 2.0 | 11.311 | 2 | 38.839 | 11.483 | 34.340 | 2 |
| 2025-05-20T10:09:00 | 55.525997 | 4.520217 | 2.0 | 11.300 | 2 | 38.915 | 11.478 | 34.420 | 2 |
| 2025-05-20T10:10:00 | 55.523494 | 4.523571 | 2.0 | 11.293 | 2 | 38.821 | 11.468 | 34.336 | 2 |
| 2025-05-20T10:11:00 | 55.521044 | 4.526916 | 2.0 | 11.294 | 2 | 38.926 | 11.462 | 34.446 | 2 |
| 2025-05-20T10:12:00 | 55.518553 | 4.530281 | 2.0 | 11.324 | 2 | 38.850 | 11.465 | 34.368 | 2 |
| 2025-05-20T10:13:00 | 55.516051 | 4.533638 | 2.0 | 11.349 | 2 | 38.920 | 11.499 | 34.405 | 2 |
| 2025-05-20T10:14:00 | 55.513522 | 4.537002 | 2.0 | 11.326 | 2 | 39.045 | 11.511 | 34.517 | 2 |
| 2025-05-20T10:15:00 | 55.511060 | 4.540362 | 2.0 | 11.294 | 2 | 38.929 | 11.486 | 34.426 | 2 |
| 2025-05-20T10:16:00 | 55.508599 | 4.543737 | 2.0 | 11.312 | 2 | 38.895 | 11.466 | 34.411 | 2 |
| 2025-05-20T10:17:00 | 55.506079 | 4.547052 | 2.0 | 11.294 | 2 | 38.930 | 11.476 | 34.436 | 2 |
| 2025-05-20T10:18:00 | 55.503558 | 4.550318 | 2.0 | 11.278 | 2 | 39.001 | 11.463 | 34.519 | 2 |
| 2025-05-20T10:19:00 | 55.501111 | 4.553711 | 2.0 | 11.279 | 2 | 38.939 | 11.447 | 34.472 | 2 |
| 2025-05-20T10:20:00 | 55.498651 | 4.557087 | 2.0 | 11.319 | 2 | 38.910 | 11.457 | 34.434 | 2 |
| 2025-05-20T10:21:00 | 55.496158 | 4.560346 | 2.0 | 11.356 | 2 | 38.965 | 11.495 | 34.453 | 2 |
| 2025-05-20T10:22:00 | 55.493709 | 4.563725 | 2.0 | 11.384 | 2 | 39.039 | 11.528 | 34.495 | 2 |
| 2025-05-20T10:23:00 | 55.491176 | 4.566984 | 2.0 | 11.411 | 2 | 39.047 | 11.554 | 34.479 | 2 |
| 2025-05-20T10:24:00 | 55.488670 | 4.570351 | 2.0 | 11.437 | 2 | 39.104 | 11.582 | 34.509 | 2 |
| 2025-05-20T10:25:00 | 55.486206 | 4.573718 | 2.0 | 11.456 | 2 | 39.117 | 11.605 | 34.500 | 2 |
| 2025-05-20T10:26:00 | 55.483696 | 4.577015 | 2.0 | 11.478 | 2 | 39.146 | 11.626 | 34.509 | 2 |
| 2025-05-20T10:27:00 | 55.481132 | 4.580287 | 2.0 | 11.508 | 2 | 39.172 | 11.649 | 34.514 | 2 |
| 2025-05-20T10:28:00 | 55.478632 | 4.583720 | 2.0 | 11.517 | 2 | 39.219 | 11.676 | 34.535 | 2 |
| 2025-05-20T10:29:00 | 55.476129 | 4.587106 | 2.0 | 11.509 | 2 | 39.220 | 11.680 | 34.532 | 2 |
| 2025-05-20T10:30:00 | 55.473615 | 4.590450 | 2.0 | 11.505 | 2 | 39.223 | 11.674 | 34.540 | 2 |
| 2025-05-20T10:31:00 | 55.471117 | 4.593771 | 2.0 | 11.503 | 2 | 39.240 | 11.670 | 34.561 | 2 |
| 2025-05-20T10:32:00 | 55.468598 | 4.597035 | 2.0 | 11.493 | 2 | 39.250 | 11.669 | 34.572 | 2 |
| 2025-05-20T10:33:00 | 55.466158 | 4.600403 | 2.0 | 11.515 | 2 | 39.261 | 11.664 | 34.587 | 2 |
| 2025-05-20T10:34:00 | 55.463679 | 4.603787 | 2.0 | 11.537 | 2 | 39.283 | 11.685 | 34.589 | 2 |
| 2025-05-20T10:35:00 | 55.461165 | 4.607124 | 2.0 | 11.547 | 2 | 39.315 | 11.705 | 34.602 | 2 |
| 2025-05-20T10:36:00 | 55.458711 | 4.610519 | 2.0 | 11.554 | 2 | 39.328 | 11.715 | 34.605 | 2 |
| 2025-05-20T10:37:00 | 55.456178 | 4.613799 | 2.0 | 11.544 | 2 | 39.331 | 11.718 | 34.605 | 2 |
| 2025-05-20T10:38:00 | 55.453713 | 4.617153 | 2.0 | 11.535 | 2 | 39.342 | 11.710 | 34.624 | 2 |
| 2025-05-20T10:39:00 | 55.451204 | 4.620457 | 2.0 | 11.532 | 2 | 39.364 | 11.704 | 34.651 | 2 |
| 2025-05-20T10:40:00 | 55.448709 | 4.623832 | 2.0 | 11.533 | 2 | 39.340 | 11.696 | 34.635 | 2 |
| 2025-05-20T10:41:00 | 55.446203 | 4.627156 | 2.0 | 11.551 | 2 | 39.343 | 11.703 | 34.631 | 2 |
| 2025-05-20T10:42:00 | 55.443712 | 4.630479 | 2.0 | 11.533 | 2 | 39.392 | 11.715 | 34.668 | 2 |
| 2025-05-20T10:43:00 | 55.441265 | 4.633862 | 2.0 | 11.517 | 2 | 39.361 | 11.700 | 34.652 | 2 |
| 2025-05-20T10:44:00 | 55.438733 | 4.637153 | 2.0 | 11.540 | 2 | 39.350 | 11.689 | 34.651 | 2 |
| 2025-05-20T10:45:00 | 55.436251 | 4.640466 | 2.0 | 11.574 | 2 | 39.386 | 11.712 | 34.665 | 2 |
| 2025-05-20T10:46:00 | 55.433755 | 4.643762 | 2.0 | 11.599 | 2 | 39.406 | 11.744 | 34.655 | 2 |
| 2025-05-20T10:47:00 | 55.431276 | 4.647122 | 2.0 | 11.614 | 2 | 39.438 | 11.766 | 34.666 | 2 |
| 2025-05-20T10:48:00 | 55.428753 | 4.650423 | 2.0 | 11.625 | 2 | 39.465 | 11.779 | 34.680 | 2 |
| 2025-05-20T10:49:00 | 55.426251 | 4.653838 | 2.0 | 11.625 | 2 | 39.467 | 11.790 | 34.672 | 2 |
| 2025-05-20T10:50:00 | 55.423754 | 4.657166 | 2.0 | 11.619 | 2 | 39.478 | 11.790 | 34.682 | 2 |
| 2025-05-20T10:51:00 | 55.421265 | 4.660530 | 2.0 | 11.611 | 2 | 39.462 | 11.784 | 34.672 | 2 |
| 2025-05-20T10:52:00 | 55.418725 | 4.663766 | 2.0 | 11.604 | 2 | 39.458 | 11.775 | 34.677 | 2 |
| 2025-05-20T10:53:00 | 55.416249 | 4.667096 | 2.0 | 11.611 | 2 | 39.456 | 11.772 | 34.678 | 2 |
| 2025-05-20T10:54:00 | 55.413765 | 4.670453 | 2.0 | 11.604 | 2 | 39.466 | 11.777 | 34.683 | 2 |
| 2025-05-20T10:55:00 | 55.411259 | 4.673748 | 2.0 | 11.606 | 2 | 39.455 | 11.768 | 34.680 | 2 |
| 2025-05-20T10:56:00 | 55.408758 | 4.677136 | 2.0 | 11.620 | 2 | 39.459 | 11.776 | 34.677 | 2 |
| 2025-05-20T10:57:00 | 55.406326 | 4.680515 | 2.0 | 11.612 | 2 | 39.470 | 11.783 | 34.681 | 2 |
| 2025-05-20T10:58:00 | 55.404419 | 4.684670 | 2.0 | 11.624 | 2 | 39.466 | 11.781 | 34.679 | 2 |
| 2025-05-20T10:59:00 | 55.402676 | 4.689237 | 2.0 | 11.644 | 2 | 39.478 | 11.795 | 34.678 | 2 |
| 2025-05-20T11:00:00 | 55.400833 | 4.693751 | 2.0 | 11.643 | 2 | 39.492 | 11.809 | 34.678 | 2 |
| 2025-05-20T11:01:00 | 55.399045 | 4.698216 | 2.0 | 11.647 | 2 | 39.490 | 11.811 | 34.675 | 2 |
| 2025-05-20T11:02:00 | 55.397335 | 4.702666 | 2.0 | 11.658 | 2 | 39.494 | 11.815 | 34.675 | 2 |
| 2025-05-20T11:03:00 | 55.395620 | 4.707215 | 2.0 | 11.684 | 2 | 39.502 | 11.828 | 34.670 | 2 |
| 2025-05-20T11:04:00 | 55.393859 | 4.711734 | 2.0 | 11.709 | 2 | 39.527 | 11.853 | 34.672 | 2 |
| 2025-05-20T11:05:00 | 55.392044 | 4.716234 | 2.0 | 11.717 | 2 | 39.545 | 11.876 | 34.668 | 2 |
| 2025-05-20T11:06:00 | 55.390299 | 4.720829 | 2.0 | 11.716 | 2 | 39.552 | 11.882 | 34.669 | 2 |
| 2025-05-20T11:07:00 | 55.388519 | 4.725400 | 2.0 | 11.724 | 2 | 39.554 | 11.885 | 34.668 | 2 |
| 2025-05-20T11:08:00 | 55.386791 | 4.730007 | 2.0 | 11.731 | 2 | 39.560 | 11.892 | 34.667 | 2 |
| 2025-05-20T11:09:00 | 55.385064 | 4.734605 | 2.0 | 11.717 | 2 | 39.562 | 11.894 | 34.668 | 2 |
| 2025-05-20T11:10:00 | 55.383311 | 4.739122 | 2.0 | 11.716 | 2 | 39.549 | 11.883 | 34.665 | 2 |
| 2025-05-20T11:11:00 | 55.381508 | 4.743607 | 2.0 | 11.711 | 2 | 39.541 | 11.878 | 34.662 | 2 |
| 2025-05-20T11:12:00 | 55.379778 | 4.748196 | 2.0 | 11.712 | 2 | 39.535 | 11.878 | 34.656 | 2 |
| 2025-05-20T11:13:00 | 55.377965 | 4.752758 | 2.0 | 11.713 | 2 | 39.531 | 11.879 | 34.651 | 2 |
| 2025-05-20T11:14:00 | 55.376203 | 4.757368 | 2.0 | 11.709 | 2 | 39.523 | 11.879 | 34.643 | 2 |
| 2025-05-20T11:15:00 | 55.374438 | 4.761984 | 2.0 | 11.701 | 2 | 39.517 | 11.874 | 34.642 | 2 |
| 2025-05-20T11:16:00 | 55.372688 | 4.766624 | 2.0 | 11.695 | 2 | 39.506 | 11.865 | 34.640 | 2 |
| 2025-05-20T11:17:00 | 55.370896 | 4.771198 | 2.0 | 11.691 | 2 | 39.498 | 11.860 | 34.637 | 2 |
| 2025-05-20T11:18:00 | 55.369114 | 4.775796 | 2.0 | 11.697 | 2 | 39.488 | 11.857 | 34.630 | 2 |
| 2025-05-20T11:19:00 | 55.367360 | 4.780386 | 2.0 | 11.719 | 2 | 39.493 | 11.866 | 34.626 | 2 |
| 2025-05-20T11:20:00 | 55.365635 | 4.784995 | 2.0 | 11.736 | 2 | 39.510 | 11.886 | 34.624 | 2 |
| 2025-05-20T11:21:00 | 55.363864 | 4.789598 | 2.0 | 11.737 | 2 | 39.522 | 11.901 | 34.622 | 2 |
| 2025-05-20T11:22:00 | 55.362128 | 4.794198 | 2.0 | 11.729 | 2 | 39.521 | 11.900 | 34.622 | 2 |
| 2025-05-20T11:23:00 | 55.360345 | 4.798755 | 2.0 | 11.729 | 2 | 39.514 | 11.895 | 34.620 | 2 |
| 2025-05-20T11:24:00 | 55.358516 | 4.803295 | 2.0 | 11.723 | 2 | 39.510 | 11.894 | 34.617 | 2 |
| 2025-05-20T11:25:00 | 55.356792 | 4.807928 | 2.0 | 11.719 | 2 | 39.502 | 11.890 | 34.613 | 2 |
| 2025-05-20T11:26:00 | 55.355031 | 4.812482 | 2.0 | 11.714 | 2 | 39.493 | 11.883 | 34.610 | 2 |
| 2025-05-20T11:27:00 | 55.353244 | 4.817049 | 2.0 | 11.702 | 2 | 39.487 | 11.880 | 34.607 | 2 |
| 2025-05-20T11:28:00 | 55.351467 | 4.821606 | 2.0 | 11.690 | 2 | 39.465 | 11.866 | 34.599 | 2 |
| 2025-05-20T11:29:00 | 55.349745 | 4.826220 | 2.0 | 11.671 | 2 | 39.447 | 11.852 | 34.594 | 2 |
| 2025-05-20T11:30:00 | 55.347961 | 4.830769 | 2.0 | 11.668 | 2 | 39.435 | 11.837 | 34.596 | 2 |
| 2025-05-20T11:31:00 | 55.346210 | 4.835400 | 2.0 | 11.683 | 2 | 39.430 | 11.836 | 34.592 | 2 |
| 2025-05-20T11:32:00 | 55.344400 | 4.840053 | 2.0 | 11.692 | 2 | 39.443 | 11.852 | 34.590 | 2 |
| 2025-05-20T11:33:00 | 55.342602 | 4.844626 | 2.0 | 11.690 | 2 | 39.447 | 11.856 | 34.590 | 2 |
| 2025-05-20T11:34:00 | 55.340871 | 4.849225 | 2.0 | 11.702 | 2 | 39.446 | 11.858 | 34.588 | 2 |
| 2025-05-20T11:35:00 | 55.339076 | 4.853767 | 2.0 | 11.698 | 2 | 39.452 | 11.865 | 34.587 | 2 |
| 2025-05-20T11:36:00 | 55.337320 | 4.858373 | 2.0 | 11.706 | 2 | 39.452 | 11.865 | 34.587 | 2 |
| 2025-05-20T11:37:00 | 55.335563 | 4.862946 | 2.0 | 11.706 | 2 | 39.461 | 11.873 | 34.588 | 2 |
| 2025-05-20T11:38:00 | 55.333755 | 4.867552 | 2.0 | 11.689 | 2 | 39.458 | 11.867 | 34.591 | 2 |
| 2025-05-20T11:39:00 | 55.331965 | 4.872186 | 2.0 | 11.698 | 2 | 39.448 | 11.858 | 34.590 | 2 |
| 2025-05-20T11:40:00 | 55.330182 | 4.876792 | 2.0 | 11.726 | 2 | 39.457 | 11.869 | 34.588 | 2 |
| 2025-05-20T11:41:00 | 55.328390 | 4.881374 | 2.0 | 11.741 | 2 | 39.476 | 11.894 | 34.583 | 2 |
| 2025-05-20T11:42:00 | 55.326679 | 4.885949 | 2.0 | 11.749 | 2 | 39.494 | 11.906 | 34.590 | 2 |
| 2025-05-20T11:43:00 | 55.324888 | 4.890560 | 2.0 | 11.750 | 2 | 39.503 | 11.915 | 34.590 | 2 |
| 2025-05-20T11:44:00 | 55.323129 | 4.895104 | 2.0 | 11.762 | 2 | 39.504 | 11.916 | 34.590 | 2 |
| 2025-05-20T11:45:00 | 55.321383 | 4.899672 | 2.0 | 11.770 | 2 | 39.514 | 11.929 | 34.588 | 2 |
| 2025-05-20T11:46:00 | 55.319611 | 4.904284 | 2.0 | 11.763 | 2 | 39.521 | 11.935 | 34.589 | 2 |
| 2025-05-20T11:47:00 | 55.317799 | 4.908830 | 2.0 | 11.743 | 2 | 39.513 | 11.926 | 34.590 | 2 |
| 2025-05-20T11:48:00 | 55.316069 | 4.913478 | 2.0 | 11.712 | 2 | 39.492 | 11.906 | 34.588 | 2 |
| 2025-05-20T11:49:00 | 55.314305 | 4.918119 | 2.0 | 11.684 | 2 | 39.451 | 11.872 | 34.579 | 2 |
| 2025-05-20T11:50:00 | 55.312472 | 4.922695 | 2.0 | 11.677 | 2 | 39.428 | 11.849 | 34.578 | 2 |
| 2025-05-20T11:51:00 | 55.310695 | 4.927343 | 2.0 | 11.677 | 2 | 39.419 | 11.843 | 34.575 | 2 |
| 2025-05-20T11:52:00 | 55.308898 | 4.931902 | 2.0 | 11.703 | 2 | 39.423 | 11.850 | 34.573 | 2 |
| 2025-05-20T11:53:00 | 55.307144 | 4.936517 | 2.0 | 11.718 | 2 | 39.442 | 11.868 | 34.574 | 2 |
| 2025-05-20T11:54:00 | 55.305333 | 4.941057 | 2.0 | 11.744 | 2 | 39.439 | 11.887 | 34.554 | 2 |
| 2025-05-20T11:55:00 | 55.303530 | 4.945663 | 2.0 | 11.753 | 2 | 39.483 | 11.910 | 34.575 | 2 |
| 2025-05-20T11:56:00 | 55.301786 | 4.950330 | 2.0 | 11.757 | 2 | 39.492 | 11.918 | 34.577 | 2 |
| 2025-05-20T11:57:00 | 55.299991 | 4.954921 | 2.0 | 11.774 | 2 | 39.500 | 11.927 | 34.576 | 2 |
| 2025-05-20T11:58:00 | 55.298229 | 4.959517 | 2.0 | 11.776 | 2 | 39.513 | 11.940 | 34.577 | 2 |
| 2025-05-20T11:59:00 | 55.296520 | 4.964189 | 2.0 | 11.764 | 2 | 39.516 | 11.941 | 34.579 | 2 |
| 2025-05-20T12:00:00 | 55.294686 | 4.968775 | 2.0 | 11.762 | 2 | 39.504 | 11.927 | 34.580 | 2 |
| 2025-05-20T12:01:00 | 55.292922 | 4.973347 | 2.0 | 11.766 | 2 | 39.503 | 11.929 | 34.577 | 2 |
| 2025-05-20T12:02:00 | 55.291123 | 4.977977 | 2.0 | 11.766 | 2 | 39.507 | 11.934 | 34.577 | 2 |
| 2025-05-20T12:03:00 | 55.289329 | 4.982617 | 2.0 | 11.766 | 2 | 39.505 | 11.931 | 34.577 | 2 |
| 2025-05-20T12:04:00 | 55.287533 | 4.987209 | 2.0 | 11.763 | 2 | 39.504 | 11.930 | 34.577 | 2 |
| 2025-05-20T12:05:00 | 55.285745 | 4.991867 | 2.0 | 11.759 | 2 | 39.503 | 11.929 | 34.577 | 2 |
| 2025-05-20T12:06:00 | 55.283969 | 4.996457 | 2.0 | 11.761 | 2 | 39.498 | 11.924 | 34.577 | 2 |
| 2025-05-20T12:07:00 | 55.282208 | 5.001132 | 2.0 | 11.778 | 2 | 39.504 | 11.931 | 34.576 | 2 |
| 2025-05-20T12:08:00 | 55.280371 | 5.005740 | 2.0 | 11.771 | 2 | 39.515 | 11.942 | 34.577 | 2 |
| 2025-05-20T12:09:00 | 55.278562 | 5.010441 | 2.0 | 11.765 | 2 | 39.513 | 11.937 | 34.580 | 2 |
| 2025-05-20T12:10:00 | 55.276785 | 5.015086 | 2.0 | 11.763 | 2 | 39.507 | 11.931 | 34.579 | 2 |
| 2025-05-20T12:11:00 | 55.275055 | 5.019761 | 2.0 | 11.754 | 2 | 39.504 | 11.927 | 34.580 | 2 |
| 2025-05-20T12:12:00 | 55.273230 | 5.024343 | 2.0 | 11.757 | 2 | 39.499 | 11.922 | 34.580 | 2 |
| 2025-05-20T12:13:00 | 55.271472 | 5.028984 | 2.0 | 11.772 | 2 | 39.502 | 11.925 | 34.580 | 2 |
| 2025-05-20T12:14:00 | 55.269654 | 5.033545 | 2.0 | 11.780 | 2 | 39.514 | 11.939 | 34.579 | 2 |
| 2025-05-20T12:15:00 | 55.267869 | 5.038156 | 2.0 | 11.779 | 2 | 38.807 | 11.946 | 33.883 | 2 |
| 2025-05-20T12:16:00 | 55.266106 | 5.042806 | 2.0 | 11.763 | 2 | 39.191 | 11.941 | 34.262 | 2 |
| 2025-05-20T12:17:00 | 55.264269 | 5.047351 | 2.0 | 11.757 | 2 | 38.984 | 11.929 | 34.071 | 2 |
| 2025-05-20T12:18:00 | 55.262510 | 5.052010 | 2.0 | 11.744 | 2 | 38.684 | 11.922 | 33.785 | 2 |
| 2025-05-20T12:19:00 | 55.260747 | 5.056664 | 2.0 | 11.742 | 2 | 38.772 | 11.910 | 33.882 | 2 |
| 2025-05-20T12:20:00 | 55.258948 | 5.061227 | 2.0 | 11.751 | 2 | 38.442 | 11.910 | 33.560 | 2 |
| 2025-05-20T12:21:00 | 55.257213 | 5.065870 | 2.0 | 11.756 | 2 | 38.891 | 11.920 | 33.989 | 2 |
| 2025-05-20T12:22:00 | 55.255394 | 5.070481 | 2.0 | 11.752 | 2 | 39.489 | 11.923 | 34.569 | 2 |
| 2025-05-20T12:23:00 | 55.253587 | 5.075149 | 2.0 | 11.760 | 2 | 38.418 | 11.921 | 33.527 | 2 |
| 2025-05-20T12:24:00 | 55.251768 | 5.079777 | 2.0 | 11.764 | 2 | 39.090 | 11.927 | 34.176 | 2 |
| 2025-05-20T12:25:00 | 55.249998 | 5.084434 | 2.0 | 11.753 | 2 | 39.435 | 11.929 | 34.511 | 2 |
| 2025-05-20T12:26:00 | 55.248182 | 5.089118 | 2.0 | 11.736 | 2 | 39.259 | 11.918 | 34.349 | 2 |
| 2025-05-20T12:27:00 | 55.246393 | 5.093768 | 2.0 | 11.720 | 2 | 38.940 | 11.899 | 34.056 | 2 |
| 2025-05-20T12:28:00 | 55.244561 | 5.098372 | 2.0 | 11.725 | 2 | 38.502 | 11.888 | 33.639 | 2 |
| 2025-05-20T12:29:00 | 55.242799 | 5.103082 | 2.0 | 11.734 | 2 | 38.713 | 11.893 | 33.840 | 2 |
| 2025-05-20T12:30:00 | 55.240954 | 5.107787 | 2.0 | 11.718 | 2 | 39.137 | 11.898 | 34.249 | 2 |
| 2025-05-20T12:31:00 | 55.239111 | 5.112429 | 2.0 | 11.718 | 2 | 39.122 | 11.885 | 34.246 | 2 |
| 2025-05-20T12:32:00 | 55.237313 | 5.117171 | 2.0 | 11.726 | 2 | 38.696 | 11.882 | 33.833 | 2 |
| 2025-05-20T12:33:00 | 55.235485 | 5.121816 | 2.0 | 11.729 | 2 | 39.470 | 11.893 | 34.579 | 2 |
| 2025-05-20T12:34:00 | 55.233730 | 5.126517 | 2.0 | 11.731 | 2 | 38.954 | 11.896 | 34.072 | 2 |
| 2025-05-20T12:35:00 | 55.232131 | 5.131351 | 2.0 | 11.749 | 2 | 38.791 | 11.900 | 33.909 | 2 |
| 2025-05-20T12:36:00 | 55.230669 | 5.136410 | 2.0 | 11.750 | 2 | 39.366 | 11.911 | 34.460 | 2 |
| 2025-05-20T12:37:00 | 55.229191 | 5.141389 | 2.0 | 11.766 | 2 | 39.045 | 11.917 | 34.141 | 2 |
| 2025-05-20T12:38:00 | 55.227796 | 5.146460 | 2.0 | 11.790 | 2 | 39.205 | 11.934 | 34.282 | 2 |
| 2025-05-20T12:39:00 | 55.226351 | 5.151530 | 2.0 | 11.790 | 2 | 38.963 | 11.954 | 34.028 | 2 |
| 2025-05-20T12:40:00 | 55.224922 | 5.156614 | 2.0 | 11.784 | 2 | 39.219 | 11.953 | 34.278 | 2 |
| 2025-05-20T12:41:00 | 55.223525 | 5.161699 | 2.0 | 11.783 | 2 | 39.174 | 11.948 | 34.239 | 2 |
| 2025-05-20T12:42:00 | 55.222126 | 5.166718 | 2.0 | 11.790 | 2 | 39.215 | 11.948 | 34.279 | 2 |
| 2025-05-20T12:43:00 | 55.220674 | 5.171680 | 2.0 | 11.805 | 2 | 39.106 | 11.957 | 34.164 | 2 |
| 2025-05-20T12:44:00 | 55.219261 | 5.176708 | 2.0 | 11.807 | 2 | 39.076 | 11.972 | 34.121 | 2 |
| 2025-05-20T12:45:00 | 55.217833 | 5.181688 | 2.0 | 11.802 | 2 | 39.251 | 11.972 | 34.292 | 2 |
| 2025-05-20T12:46:00 | 55.216418 | 5.186728 | 2.0 | 11.805 | 2 | 39.112 | 11.966 | 34.162 | 2 |
| 2025-05-20T12:47:00 | 55.215019 | 5.191732 | 2.0 | 11.832 | 2 | 39.169 | 11.975 | 34.209 | 2 |
| 2025-05-20T12:48:00 | 55.213590 | 5.196720 | 2.0 | 11.845 | 2 | 39.393 | 11.997 | 34.407 | 2 |
| 2025-05-20T12:49:00 | 55.212202 | 5.201790 | 2.0 | 11.856 | 2 | 39.292 | 12.011 | 34.296 | 2 |
| 2025-05-20T12:50:00 | 55.210749 | 5.206776 | 2.0 | 11.879 | 2 | 39.354 | 12.023 | 34.345 | 2 |
| 2025-05-20T12:51:00 | 55.209351 | 5.211808 | 2.0 | 11.913 | 2 | 39.260 | 12.048 | 34.231 | 2 |
| 2025-05-20T12:52:00 | 55.207920 | 5.216904 | 2.0 | 11.937 | 2 | 39.400 | 12.081 | 34.336 | 2 |
| 2025-05-20T12:53:00 | 55.206486 | 5.221957 | 2.0 | 11.942 | 2 | 39.419 | 12.103 | 34.335 | 2 |
| 2025-05-20T12:54:00 | 55.205057 | 5.227047 | 2.0 | 11.921 | 2 | 39.453 | 12.102 | 34.369 | 2 |
| 2025-05-20T12:55:00 | 55.203623 | 5.232125 | 2.0 | 11.911 | 2 | 39.343 | 12.087 | 34.275 | 2 |
| 2025-05-20T12:56:00 | 55.202199 | 5.237253 | 2.0 | 11.908 | 2 | 39.460 | 12.076 | 34.399 | 2 |
| 2025-05-20T12:57:00 | 55.200816 | 5.242345 | 2.0 | 11.905 | 2 | 39.340 | 12.073 | 34.285 | 2 |
| 2025-05-20T12:58:00 | 55.199385 | 5.247353 | 2.0 | 11.915 | 2 | 39.465 | 12.074 | 34.406 | 2 |
| 2025-05-20T12:59:00 | 55.197919 | 5.252343 | 2.0 | 11.913 | 2 | 39.491 | 12.080 | 34.426 | 2 |
| 2025-05-20T13:00:00 | 55.196525 | 5.257407 | 2.0 | 11.919 | 2 | 39.355 | 12.079 | 34.294 | 2 |
| 2025-05-20T13:01:00 | 55.195074 | 5.262451 | 2.0 | 11.945 | 2 | 39.445 | 12.092 | 34.370 | 2 |
| 2025-05-20T13:02:00 | 55.193619 | 5.267464 | 2.0 | 11.957 | 2 | 39.369 | 12.113 | 34.277 | 2 |
| 2025-05-20T13:03:00 | 55.192172 | 5.272542 | 2.0 | 11.983 | 2 | 39.461 | 12.126 | 34.354 | 2 |
| 2025-05-20T13:04:00 | 55.190786 | 5.277622 | 2.0 | 12.000 | 2 | 39.459 | 12.150 | 34.330 | 2 |
| 2025-05-20T13:05:00 | 55.189358 | 5.282683 | 2.0 | 12.023 | 2 | 39.497 | 12.168 | 34.351 | 2 |
| 2025-05-20T13:06:00 | 55.188000 | 5.287759 | 2.0 | 12.045 | 2 | 39.515 | 12.192 | 34.346 | 2 |
| 2025-05-20T13:07:00 | 55.187351 | 5.293122 | 2.0 | 12.060 | 2 | 39.534 | 12.212 | 34.346 | 2 |
| 2025-05-20T13:08:00 | 55.185914 | 5.298023 | 2.0 | 12.077 | 2 | 39.569 | 12.226 | 34.367 | 2 |
| 2025-05-20T13:09:00 | 55.184187 | 5.302727 | 2.0 | 12.084 | 2 | 39.563 | 12.242 | 34.347 | 2 |
| 2025-05-20T13:10:00 | 55.182607 | 5.307647 | 2.0 | 12.083 | 2 | 39.566 | 12.247 | 34.345 | 2 |
| 2025-05-20T13:11:00 | 55.181015 | 5.312572 | 2.0 | 12.085 | 2 | 39.591 | 12.247 | 34.369 | 2 |
| 2025-05-20T13:12:00 | 55.179665 | 5.317603 | 2.0 | 12.098 | 2 | 39.609 | 12.253 | 34.381 | 2 |
| 2025-05-20T13:13:00 | 55.178237 | 5.322591 | 2.0 | 12.075 | 2 | 39.604 | 12.260 | 34.370 | 2 |
| 2025-05-20T13:14:00 | 55.176575 | 5.327382 | 2.0 | 12.027 | 2 | 39.575 | 12.230 | 34.369 | 2 |
| 2025-05-20T13:15:00 | 55.175105 | 5.332356 | 2.0 | 11.986 | 2 | 39.542 | 12.189 | 34.375 | 2 |
| 2025-05-20T13:16:00 | 55.173923 | 5.337603 | 2.0 | 11.955 | 2 | 39.529 | 12.148 | 34.400 | 2 |
| 2025-05-20T13:17:00 | 55.172412 | 5.342584 | 2.0 | 11.951 | 2 | 39.500 | 12.120 | 34.398 | 2 |
| 2025-05-20T13:18:00 | 55.171028 | 5.347631 | 2.0 | 11.992 | 2 | 39.467 | 12.126 | 34.360 | 2 |
| 2025-05-20T13:19:00 | 55.169654 | 5.352771 | 2.0 | 12.023 | 2 | 39.527 | 12.163 | 34.384 | 2 |
| 2025-05-20T13:20:00 | 55.168137 | 5.357756 | 2.0 | 12.042 | 2 | 39.555 | 12.189 | 34.387 | 2 |
| 2025-05-20T13:21:00 | 55.166728 | 5.362797 | 2.0 | 12.075 | 2 | 39.587 | 12.211 | 34.398 | 2 |
| 2025-05-20T13:22:00 | 55.165348 | 5.367882 | 2.0 | 12.097 | 2 | 39.606 | 12.242 | 34.388 | 2 |
| 2025-05-20T13:23:00 | 55.163968 | 5.372957 | 2.0 | 12.127 | 2 | 39.645 | 12.265 | 34.405 | 2 |
| 2025-05-20T13:24:00 | 55.162505 | 5.378006 | 2.0 | 12.144 | 2 | 39.676 | 12.295 | 34.407 | 2 |
| 2025-05-20T13:25:00 | 55.161110 | 5.383049 | 2.0 | 12.139 | 2 | 39.685 | 12.305 | 34.407 | 2 |
| 2025-05-20T13:26:00 | 55.159723 | 5.388057 | 2.0 | 12.180 | 2 | 39.707 | 12.311 | 34.423 | 2 |
| 2025-05-20T13:27:00 | 55.158348 | 5.393091 | 2.0 | 12.206 | 2 | 39.729 | 12.347 | 34.411 | 2 |
| 2025-05-20T13:28:00 | 55.156912 | 5.398087 | 2.0 | 12.236 | 2 | 39.796 | 12.374 | 34.451 | 2 |
| 2025-05-20T13:29:00 | 55.155445 | 5.403086 | 2.0 | 12.282 | 2 | 39.794 | 12.404 | 34.421 | 2 |
| 2025-05-20T13:30:00 | 55.154028 | 5.408076 | 2.0 | 12.332 | 2 | 39.866 | 12.451 | 34.447 | 2 |
| 2025-05-20T13:31:00 | 55.152639 | 5.413080 | 2.0 | 12.402 | 2 | 39.922 | 12.502 | 34.455 | 2 |
| 2025-05-20T13:32:00 | 55.151202 | 5.418122 | 2.0 | 12.512 | 2 | 39.969 | 12.583 | 34.426 | 2 |
| 2025-05-20T13:33:00 | 55.149715 | 5.423097 | 2.0 | 12.557 | 2 | 40.094 | 12.677 | 34.460 | 2 |
| 2025-05-20T13:34:00 | 55.148340 | 5.428125 | 2.0 | 12.572 | 2 | 40.139 | 12.715 | 34.468 | 2 |
| 2025-05-20T13:35:00 | 55.146962 | 5.433106 | 2.0 | 12.577 | 2 | 40.157 | 12.732 | 34.470 | 2 |
| 2025-05-20T13:36:00 | 55.145574 | 5.438081 | 2.0 | 12.573 | 2 | 40.159 | 12.736 | 34.468 | 2 |
| 2025-05-20T13:37:00 | 55.144125 | 5.443035 | 2.0 | 12.610 | 2 | 40.147 | 12.739 | 34.454 | 2 |
| 2025-05-20T13:38:00 | 55.142696 | 5.448029 | 2.0 | 12.647 | 2 | 40.139 | 12.776 | 34.412 | 2 |
| 2025-05-20T13:39:00 | 55.141333 | 5.453036 | 2.0 | 12.688 | 2 | 40.212 | 12.813 | 34.448 | 2 |
| 2025-05-20T13:40:00 | 55.139883 | 5.458006 | 2.0 | 12.720 | 2 | 40.228 | 12.852 | 34.428 | 2 |
| 2025-05-20T13:41:00 | 55.138472 | 5.462993 | 2.0 | 12.747 | 2 | 40.236 | 12.884 | 34.406 | 2 |
| 2025-05-20T13:42:00 | 55.137080 | 5.468021 | 2.0 | 12.757 | 2 | 40.269 | 12.908 | 34.416 | 2 |
| 2025-05-20T13:43:00 | 55.135639 | 5.472998 | 2.0 | 12.751 | 2 | 40.293 | 12.915 | 34.433 | 2 |
| 2025-05-20T13:44:00 | 55.134248 | 5.477998 | 2.0 | 12.747 | 2 | 40.281 | 12.912 | 34.424 | 2 |
| 2025-05-20T13:45:00 | 55.132832 | 5.483032 | 2.0 | 12.753 | 2 | 40.270 | 12.905 | 34.420 | 2 |
| 2025-05-20T13:46:00 | 55.131411 | 5.488026 | 2.0 | 12.797 | 2 | 40.275 | 12.923 | 34.408 | 2 |
| 2025-05-20T13:47:00 | 55.130012 | 5.493012 | 2.0 | 12.797 | 2 | 40.296 | 12.955 | 34.399 | 2 |
| 2025-05-20T13:48:00 | 55.128644 | 5.498015 | 2.0 | 12.803 | 2 | 40.304 | 12.955 | 34.407 | 2 |
| 2025-05-20T13:49:00 | 55.127209 | 5.503016 | 2.0 | 12.822 | 2 | 40.307 | 12.970 | 34.396 | 2 |
| 2025-05-20T13:50:00 | 55.125825 | 5.508051 | 2.0 | 12.823 | 2 | 40.310 | 12.980 | 34.390 | 2 |
| 2025-05-20T13:51:00 | 55.124419 | 5.513001 | 2.0 | 12.823 | 2 | 40.300 | 12.985 | 34.376 | 2 |
| 2025-05-20T13:52:00 | 55.122991 | 5.517932 | 2.0 | 12.803 | 2 | 40.296 | 12.981 | 34.375 | 2 |
| 2025-05-20T13:53:00 | 55.121593 | 5.522914 | 2.0 | 12.787 | 2 | 40.271 | 12.961 | 34.370 | 2 |
| 2025-05-20T13:54:00 | 55.120208 | 5.527895 | 2.0 | 12.793 | 2 | 40.250 | 12.950 | 34.360 | 2 |
| 2025-05-20T13:55:00 | 55.118730 | 5.532820 | 2.0 | 12.768 | 2 | 40.248 | 12.954 | 34.354 | 2 |
| 2025-05-20T13:56:00 | 55.117374 | 5.537883 | 2.0 | 12.740 | 2 | 40.215 | 12.923 | 34.351 | 2 |
| 2025-05-20T13:57:00 | 55.115908 | 5.542836 | 2.0 | 12.729 | 2 | 40.185 | 12.902 | 34.341 | 2 |
| 2025-05-20T13:58:00 | 55.114500 | 5.547848 | 2.0 | 12.748 | 2 | 40.168 | 12.892 | 34.334 | 2 |
| 2025-05-20T13:59:00 | 55.113115 | 5.552802 | 2.0 | 12.789 | 2 | 40.182 | 12.919 | 34.323 | 2 |
| 2025-05-20T14:00:00 | 55.111723 | 5.557764 | 2.0 | 12.803 | 2 | 40.208 | 12.950 | 34.320 | 2 |
| 2025-05-20T14:01:00 | 55.110315 | 5.562767 | 2.0 | 12.830 | 2 | 40.221 | 12.970 | 34.314 | 2 |
| 2025-05-20T14:02:00 | 55.108983 | 5.567756 | 2.0 | 12.832 | 2 | 40.233 | 12.991 | 34.306 | 2 |
| 2025-05-20T14:03:00 | 55.107546 | 5.572719 | 2.0 | 12.828 | 2 | 40.229 | 12.992 | 34.302 | 2 |
| 2025-05-20T14:04:00 | 55.106180 | 5.577730 | 2.0 | 12.824 | 2 | 40.221 | 12.990 | 34.296 | 2 |
| 2025-05-20T14:05:00 | 55.104721 | 5.582723 | 2.0 | 12.818 | 2 | 40.195 | 12.985 | 34.276 | 2 |
| 2025-05-20T14:06:00 | 55.103315 | 5.587743 | 2.0 | 12.828 | 2 | 40.201 | 12.981 | 34.285 | 2 |
| 2025-05-20T14:07:00 | 55.101937 | 5.592701 | 2.0 | 12.844 | 2 | 39.791 | 12.992 | 33.885 | 2 |
| 2025-05-20T14:08:00 | 55.100525 | 5.597684 | 2.0 | 12.834 | 2 | 40.088 | 13.005 | 34.156 | 2 |
| 2025-05-20T14:09:00 | 55.099104 | 5.602647 | 2.0 | 12.804 | 2 | 40.187 | 12.989 | 34.264 | 2 |
| 2025-05-20T14:10:00 | 55.097631 | 5.607568 | 2.0 | 12.792 | 2 | 40.154 | 12.966 | 34.254 | 2 |
| 2025-05-20T14:11:00 | 55.096225 | 5.612518 | 2.0 | 12.754 | 2 | 40.131 | 12.947 | 34.249 | 2 |
| 2025-05-20T14:12:00 | 55.094855 | 5.617589 | 2.0 | 12.763 | 2 | 40.103 | 12.922 | 34.245 | 2 |
| 2025-05-20T14:13:00 | 55.093435 | 5.622576 | 2.0 | 12.717 | 2 | 40.091 | 12.912 | 34.243 | 2 |
| 2025-05-20T14:14:00 | 55.092014 | 5.627536 | 2.0 | 12.675 | 2 | 39.711 | 12.875 | 33.914 | 2 |
| 2025-05-20T14:15:00 | 55.090603 | 5.632537 | 2.0 | 12.704 | 2 | 39.962 | 12.848 | 34.178 | 2 |
| 2025-05-20T14:16:00 | 55.089191 | 5.637537 | 2.0 | 12.726 | 2 | 39.745 | 12.871 | 33.950 | 2 |
| 2025-05-20T14:17:00 | 55.087734 | 5.642548 | 2.0 | 12.732 | 2 | 39.211 | 12.890 | 33.425 | 2 |
| 2025-05-20T14:18:00 | 55.086362 | 5.647549 | 2.0 | 12.722 | 2 | 40.038 | 12.891 | 34.211 | 2 |
| 2025-05-20T14:19:00 | 55.084950 | 5.652527 | 2.0 | 12.721 | 2 | 40.027 | 12.887 | 34.204 | 2 |
| 2025-05-20T14:20:00 | 55.083496 | 5.657494 | 2.0 | 12.738 | 2 | 39.484 | 12.886 | 33.688 | 2 |
| 2025-05-20T14:21:00 | 55.082101 | 5.662518 | 2.0 | 12.755 | 2 | 39.190 | 12.900 | 33.396 | 2 |
| 2025-05-20T14:22:00 | 55.080686 | 5.667469 | 2.0 | 12.773 | 2 | 39.715 | 12.922 | 33.876 | 2 |
| 2025-05-20T14:23:00 | 55.079306 | 5.672395 | 2.0 | 12.794 | 2 | 39.110 | 12.937 | 33.287 | 2 |
| 2025-05-20T14:24:00 | 55.077875 | 5.677405 | 2.0 | 12.823 | 2 | 39.593 | 12.962 | 33.724 | 2 |
| 2025-05-20T14:25:00 | 55.076460 | 5.682421 | 2.0 | 12.832 | 2 | 39.467 | 12.983 | 33.585 | 2 |
| 2025-05-20T14:26:00 | 55.075066 | 5.687467 | 2.0 | 12.814 | 2 | 39.749 | 12.991 | 33.846 | 2 |
| 2025-05-20T14:27:00 | 55.073648 | 5.692460 | 2.0 | 12.798 | 2 | 39.309 | 12.975 | 33.443 | 2 |
| 2025-05-20T14:28:00 | 55.072230 | 5.697415 | 2.0 | 12.777 | 2 | 39.324 | 12.957 | 33.473 | 2 |
| 2025-05-20T14:29:00 | 55.070838 | 5.702350 | 2.0 | 12.795 | 2 | 39.547 | 12.944 | 33.696 | 2 |
| 2025-05-20T14:30:00 | 55.069426 | 5.707271 | 2.0 | 12.832 | 2 | 39.687 | 12.964 | 33.811 | 2 |
| 2025-05-20T14:31:00 | 55.068060 | 5.712261 | 2.0 | 12.848 | 2 | 40.045 | 12.998 | 34.121 | 2 |
| 2025-05-20T14:32:00 | 55.066663 | 5.717214 | 2.0 | 12.847 | 2 | 39.774 | 13.008 | 33.855 | 2 |
| 2025-05-20T14:33:00 | 55.065217 | 5.722121 | 2.0 | 12.868 | 2 | 39.504 | 13.013 | 33.594 | 2 |
| 2025-05-20T14:34:00 | 55.063820 | 5.727052 | 2.0 | 12.890 | 2 | 39.811 | 13.031 | 33.869 | 2 |
| 2025-05-20T14:35:00 | 55.062434 | 5.731990 | 2.0 | 12.920 | 2 | 39.595 | 13.060 | 33.639 | 2 |
| 2025-05-20T14:36:00 | 55.061061 | 5.736973 | 2.0 | 12.944 | 2 | 39.649 | 13.081 | 33.671 | 2 |
| 2025-05-20T14:37:00 | 55.059585 | 5.741820 | 2.0 | 12.980 | 2 | 39.953 | 13.111 | 33.932 | 2 |
| 2025-05-20T14:38:00 | 55.058248 | 5.746807 | 2.0 | 12.977 | 2 | 39.749 | 13.140 | 33.713 | 2 |
| 2025-05-20T14:39:00 | 55.056834 | 5.751796 | 2.0 | 12.946 | 2 | 40.053 | 13.129 | 34.011 | 2 |
| 2025-05-20T14:40:00 | 55.055416 | 5.756723 | 2.0 | 12.938 | 2 | 39.751 | 13.106 | 33.745 | 2 |
| 2025-05-20T14:41:00 | 55.053990 | 5.761670 | 2.0 | 12.942 | 2 | 40.050 | 13.101 | 34.033 | 2 |
| 2025-05-20T14:42:00 | 55.052636 | 5.766614 | 2.0 | 12.938 | 2 | 40.049 | 13.104 | 34.030 | 2 |
| 2025-05-20T14:43:00 | 55.051314 | 5.771581 | 2.0 | 13.038 | 2 | 40.090 | 13.110 | 34.063 | 2 |
| 2025-05-20T14:44:00 | 55.049815 | 5.776434 | 2.0 | 13.111 | 2 | 39.976 | 13.211 | 33.865 | 2 |
| 2025-05-20T14:45:00 | 55.048474 | 5.781432 | 2.0 | 13.133 | 2 | 40.043 | 13.268 | 33.877 | 2 |
| 2025-05-20T14:46:00 | 55.047086 | 5.786435 | 2.0 | 13.119 | 2 | 40.162 | 13.291 | 33.969 | 2 |
| 2025-05-20T14:47:00 | 55.045651 | 5.791342 | 2.0 | 13.099 | 2 | 40.065 | 13.276 | 33.891 | 2 |
| 2025-05-20T14:48:00 | 55.044303 | 5.796280 | 2.0 | 13.076 | 2 | 39.972 | 13.257 | 33.820 | 2 |
| 2025-05-20T14:49:00 | 55.042881 | 5.801238 | 2.0 | 13.035 | 2 | 39.956 | 13.230 | 33.829 | 2 |
| 2025-05-20T14:50:00 | 55.041457 | 5.806186 | 2.0 | 12.998 | 2 | 40.041 | 13.196 | 33.940 | 2 |
| 2025-05-20T14:51:00 | 55.040095 | 5.811180 | 2.0 | 12.968 | 2 | 39.904 | 13.157 | 33.845 | 2 |
| 2025-05-20T14:52:00 | 55.038656 | 5.816085 | 2.0 | 13.017 | 2 | 39.859 | 13.138 | 33.819 | 2 |
| 2025-05-20T14:53:00 | 55.037267 | 5.821038 | 2.0 | 13.093 | 2 | 39.904 | 13.193 | 33.813 | 2 |
| 2025-05-20T14:54:00 | 55.035874 | 5.825946 | 2.0 | 13.189 | 2 | 39.981 | 13.269 | 33.818 | 2 |
| 2025-05-20T14:55:00 | 55.034461 | 5.830862 | 2.0 | 13.244 | 2 | 40.091 | 13.354 | 33.846 | 2 |
| 2025-05-20T14:56:00 | 55.033113 | 5.835809 | 2.0 | 13.257 | 2 | 40.163 | 13.399 | 33.874 | 2 |
| 2025-05-20T14:57:00 | 55.031713 | 5.840742 | 2.0 | 13.264 | 2 | 40.158 | 13.418 | 33.852 | 2 |
| 2025-05-20T14:58:00 | 55.030282 | 5.845606 | 2.0 | 13.260 | 2 | 40.168 | 13.424 | 33.856 | 2 |
| 2025-05-20T14:59:00 | 55.028903 | 5.850518 | 2.0 | 13.232 | 2 | 40.150 | 13.413 | 33.849 | 2 |
| 2025-05-20T15:00:00 | 55.027485 | 5.855404 | 2.0 | 13.204 | 2 | 40.103 | 13.387 | 33.828 | 2 |
| 2025-05-20T15:01:00 | 55.026120 | 5.860313 | 2.0 | 13.187 | 2 | 40.088 | 13.360 | 33.838 | 2 |
| 2025-05-20T15:02:00 | 55.024775 | 5.865306 | 2.0 | 13.153 | 2 | 40.039 | 13.347 | 33.803 | 2 |
| 2025-05-20T15:03:00 | 55.023355 | 5.870210 | 2.0 | 13.106 | 2 | 40.002 | 13.308 | 33.803 | 2 |
| 2025-05-20T15:04:00 | 55.021966 | 5.875139 | 2.0 | 13.129 | 2 | 39.963 | 13.269 | 33.801 | 2 |
| 2025-05-20T15:05:00 | 55.020569 | 5.880076 | 2.0 | 13.202 | 2 | 39.991 | 13.300 | 33.800 | 2 |
| 2025-05-20T15:06:00 | 55.019173 | 5.884997 | 2.0 | 13.224 | 2 | 40.047 | 13.366 | 33.794 | 2 |
| 2025-05-20T15:07:00 | 55.017787 | 5.889859 | 2.0 | 13.199 | 2 | 40.067 | 13.382 | 33.798 | 2 |
| 2025-05-20T15:08:00 | 55.016433 | 5.894789 | 2.0 | 13.175 | 2 | 40.030 | 13.356 | 33.787 | 2 |
| 2025-05-20T15:09:00 | 55.015033 | 5.899647 | 2.0 | 13.120 | 2 | 39.977 | 13.328 | 33.762 | 2 |
| 2025-05-20T15:10:00 | 55.013616 | 5.904487 | 2.0 | 13.098 | 2 | 39.920 | 13.283 | 33.748 | 2 |
| 2025-05-20T15:11:00 | 55.012245 | 5.909331 | 2.0 | 13.091 | 2 | 39.908 | 13.259 | 33.758 | 2 |
| 2025-05-20T15:12:00 | 55.010945 | 5.914305 | 2.0 | 13.102 | 2 | 39.901 | 13.257 | 33.753 | 2 |
| 2025-05-20T15:13:00 | 55.009484 | 5.919149 | 2.0 | 13.116 | 2 | 39.891 | 13.268 | 33.734 | 2 |
| 2025-05-20T15:14:00 | 55.008051 | 5.924012 | 2.0 | 13.106 | 2 | 39.886 | 13.278 | 33.720 | 2 |
| 2025-05-20T15:15:00 | 55.006695 | 5.928940 | 2.0 | 13.088 | 2 | 39.882 | 13.264 | 33.729 | 2 |
| 2025-05-20T15:16:00 | 55.005255 | 5.933852 | 2.0 | 13.089 | 2 | 39.873 | 13.253 | 33.730 | 2 |
| 2025-05-20T15:17:00 | 55.003825 | 5.938756 | 2.0 | 13.083 | 2 | 39.866 | 13.252 | 33.724 | 2 |
| 2025-05-20T15:18:00 | 55.002490 | 5.943670 | 2.0 | 13.057 | 2 | 39.863 | 13.242 | 33.730 | 2 |
| 2025-05-20T15:19:00 | 55.001143 | 5.948532 | 2.0 | 13.037 | 2 | 39.824 | 13.221 | 33.712 | 2 |
| 2025-05-20T15:20:00 | 54.999755 | 5.953412 | 2.0 | 13.026 | 2 | 39.833 | 13.200 | 33.739 | 2 |
| 2025-05-20T15:21:00 | 54.998400 | 5.958255 | 2.0 | 13.016 | 2 | 39.797 | 13.188 | 33.716 | 2 |
| 2025-05-20T15:22:00 | 54.997048 | 5.963134 | 2.0 | 13.018 | 2 | 39.802 | 13.180 | 33.728 | 2 |
| 2025-05-20T15:23:00 | 54.995648 | 5.967917 | 2.0 | 13.016 | 2 | 39.809 | 13.180 | 33.734 | 2 |
| 2025-05-20T15:24:00 | 54.994290 | 5.972725 | 2.0 | 13.042 | 2 | 39.811 | 13.182 | 33.735 | 2 |
| 2025-05-20T15:25:00 | 54.992907 | 5.977541 | 2.0 | 13.054 | 2 | 39.819 | 13.207 | 33.720 | 2 |
| 2025-05-20T15:26:00 | 54.991531 | 5.982364 | 2.0 | 13.050 | 2 | 39.830 | 13.215 | 33.723 | 2 |
| 2025-05-20T15:27:00 | 54.990221 | 5.987250 | 2.0 | 13.046 | 2 | 39.827 | 13.212 | 33.723 | 2 |
| 2025-05-20T15:28:00 | 54.988775 | 5.992059 | 2.0 | 13.051 | 2 | 39.819 | 13.209 | 33.718 | 2 |
| 2025-05-20T15:29:00 | 54.987350 | 5.996889 | 2.0 | 13.054 | 2 | 39.821 | 13.213 | 33.717 | 2 |
| 2025-05-20T15:30:00 | 54.985982 | 6.001786 | 2.0 | 13.076 | 2 | 39.828 | 13.220 | 33.717 | 2 |
| 2025-05-20T15:31:00 | 54.984605 | 6.006690 | 2.0 | 13.097 | 2 | 39.850 | 13.239 | 33.721 | 2 |
| 2025-05-20T15:32:00 | 54.983314 | 6.011615 | 2.0 | 13.119 | 2 | 39.866 | 13.261 | 33.716 | 2 |
| 2025-05-20T15:33:00 | 54.981907 | 6.016390 | 2.0 | 13.136 | 2 | 39.890 | 13.282 | 33.720 | 2 |
| 2025-05-20T15:34:00 | 54.980546 | 6.021219 | 2.0 | 13.158 | 2 | 39.912 | 13.300 | 33.725 | 2 |
| 2025-05-20T15:35:00 | 54.979210 | 6.026098 | 2.0 | 13.183 | 2 | 39.937 | 13.323 | 33.728 | 2 |
| 2025-05-20T15:36:00 | 54.977818 | 6.030927 | 2.0 | 13.190 | 2 | 39.960 | 13.344 | 33.731 | 2 |
| 2025-05-20T15:37:00 | 54.976380 | 6.035727 | 2.0 | 13.171 | 2 | 39.964 | 13.344 | 33.735 | 2 |
| 2025-05-20T15:38:00 | 54.975024 | 6.040615 | 2.0 | 13.163 | 2 | 39.952 | 13.330 | 33.736 | 2 |
| 2025-05-20T15:39:00 | 54.973657 | 6.045497 | 2.0 | 13.165 | 2 | 39.951 | 13.325 | 33.740 | 2 |
| 2025-05-20T15:40:00 | 54.972226 | 6.050371 | 2.0 | 13.183 | 2 | 39.955 | 13.331 | 33.738 | 2 |
| 2025-05-20T15:41:00 | 54.970870 | 6.055317 | 2.0 | 13.186 | 2 | 39.967 | 13.344 | 33.738 | 2 |
| 2025-05-20T15:42:00 | 54.969505 | 6.060216 | 2.0 | 13.183 | 2 | 39.968 | 13.348 | 33.735 | 2 |
| 2025-05-20T15:43:00 | 54.968157 | 6.065103 | 2.0 | 13.166 | 2 | 39.960 | 13.342 | 33.733 | 2 |
| 2025-05-20T15:44:00 | 54.966773 | 6.069982 | 2.0 | 13.142 | 2 | 39.941 | 13.325 | 33.730 | 2 |
| 2025-05-20T15:45:00 | 54.965343 | 6.074780 | 2.0 | 13.115 | 2 | 39.915 | 13.304 | 33.724 | 2 |
| 2025-05-20T15:46:00 | 54.963982 | 6.079657 | 2.0 | 13.061 | 2 | 39.876 | 13.271 | 33.717 | 2 |
| 2025-05-20T15:47:00 | 54.962584 | 6.084497 | 2.0 | 13.042 | 2 | 39.818 | 13.227 | 33.701 | 2 |
| 2025-05-20T15:48:00 | 54.961206 | 6.089367 | 2.0 | 13.009 | 2 | 39.774 | 13.200 | 33.684 | 2 |
| 2025-05-20T15:49:00 | 54.959807 | 6.094210 | 2.0 | 12.985 | 2 | 39.732 | 13.172 | 33.669 | 2 |
| 2025-05-20T15:50:00 | 54.958450 | 6.099066 | 2.0 | 12.954 | 2 | 39.694 | 13.147 | 33.655 | 2 |
| 2025-05-20T15:51:00 | 54.957093 | 6.103927 | 2.0 | 12.931 | 2 | 39.649 | 13.115 | 33.641 | 2 |
| 2025-05-20T15:52:00 | 54.955689 | 6.108743 | 2.0 | 12.938 | 2 | 39.620 | 13.098 | 33.628 | 2 |
| 2025-05-20T15:53:00 | 54.954354 | 6.113605 | 2.0 | 12.951 | 2 | 39.617 | 13.103 | 33.621 | 2 |
| 2025-05-20T15:54:00 | 54.953007 | 6.118406 | 2.0 | 12.974 | 2 | 39.625 | 13.118 | 33.615 | 2 |
| 2025-05-20T15:55:00 | 54.951608 | 6.123223 | 2.0 | 12.989 | 2 | 39.639 | 13.138 | 33.611 | 2 |
| 2025-05-20T15:56:00 | 54.950237 | 6.128051 | 2.0 | 12.996 | 2 | 39.647 | 13.152 | 33.606 | 2 |
| 2025-05-20T15:57:00 | 54.948930 | 6.132899 | 2.0 | 13.008 | 2 | 39.648 | 13.161 | 33.599 | 2 |
| 2025-05-20T15:58:00 | 54.947514 | 6.137683 | 2.0 | 13.016 | 2 | 39.649 | 13.172 | 33.590 | 2 |
| 2025-05-20T15:59:00 | 54.946132 | 6.142538 | 2.0 | 12.994 | 2 | 39.645 | 13.173 | 33.586 | 2 |
| 2025-05-20T16:00:00 | 54.944798 | 6.147415 | 2.0 | 12.989 | 2 | 39.625 | 13.160 | 33.578 | 2 |
| 2025-05-20T16:01:00 | 54.943340 | 6.152231 | 2.0 | 12.980 | 2 | 39.612 | 13.153 | 33.572 | 2 |
| 2025-05-20T16:02:00 | 54.941978 | 6.157112 | 2.0 | 12.964 | 2 | 39.594 | 13.141 | 33.566 | 2 |
| 2025-05-20T16:03:00 | 54.940586 | 6.161971 | 2.0 | 12.964 | 2 | 39.564 | 13.122 | 33.554 | 2 |
| 2025-05-20T16:04:00 | 54.939200 | 6.166833 | 2.0 | 13.015 | 2 | 39.568 | 13.137 | 33.545 | 2 |
| 2025-05-20T16:05:00 | 54.937851 | 6.171682 | 2.0 | 13.063 | 2 | 39.601 | 13.184 | 33.534 | 2 |
| 2025-05-20T16:06:00 | 54.936471 | 6.176503 | 2.0 | 13.077 | 2 | 39.628 | 13.225 | 33.524 | 2 |
| 2025-05-20T16:07:00 | 54.935093 | 6.181345 | 2.0 | 13.091 | 2 | 39.628 | 13.239 | 33.511 | 2 |
| 2025-05-20T16:08:00 | 54.933715 | 6.186218 | 2.0 | 13.120 | 2 | 39.627 | 13.257 | 33.495 | 2 |
| 2025-05-20T16:09:00 | 54.932367 | 6.191070 | 2.0 | 13.146 | 2 | 39.636 | 13.287 | 33.477 | 2 |
| 2025-05-20T16:10:00 | 54.931010 | 6.195839 | 2.0 | 13.133 | 2 | 39.535 | 13.305 | 33.366 | 2 |
| 2025-05-20T16:11:00 | 54.929658 | 6.200631 | 2.0 | 13.111 | 2 | 39.541 | 13.291 | 33.384 | 2 |
| 2025-05-20T16:12:00 | 54.928300 | 6.205405 | 2.0 | 13.085 | 2 | 39.449 | 13.270 | 33.315 | 2 |
| 2025-05-20T16:13:00 | 54.926910 | 6.210172 | 2.0 | 13.081 | 2 | 39.419 | 13.250 | 33.305 | 2 |
| 2025-05-20T16:14:00 | 54.925545 | 6.214913 | 2.0 | 13.080 | 2 | 39.431 | 13.243 | 33.322 | 2 |
| 2025-05-20T16:15:00 | 54.924178 | 6.219664 | 2.0 | 13.094 | 2 | 39.434 | 13.244 | 33.324 | 2 |
| 2025-05-20T16:16:00 | 54.922881 | 6.224418 | 2.0 | 13.106 | 2 | 39.411 | 13.258 | 33.290 | 2 |
| 2025-05-20T16:17:00 | 54.921520 | 6.229150 | 2.0 | 13.124 | 2 | 39.412 | 13.270 | 33.281 | 2 |
| 2025-05-20T16:18:00 | 54.920184 | 6.233936 | 2.0 | 13.104 | 2 | 39.424 | 13.283 | 33.280 | 2 |
| 2025-05-20T16:19:00 | 54.918815 | 6.238715 | 2.0 | 13.096 | 2 | 39.408 | 13.266 | 33.280 | 2 |
| 2025-05-20T16:20:00 | 54.917321 | 6.243374 | 2.0 | 13.047 | 2 | 39.374 | 13.255 | 33.258 | 2 |
| 2025-05-20T16:21:00 | 54.915550 | 6.247645 | 2.0 | 13.025 | 2 | 39.358 | 13.211 | 33.281 | 2 |
| 2025-05-20T16:22:00 | 54.913787 | 6.252058 | 2.0 | 13.020 | 2 | 39.333 | 13.190 | 33.276 | 2 |
| 2025-05-20T16:23:00 | 54.912068 | 6.256554 | 2.0 | 13.015 | 2 | 39.303 | 13.182 | 33.255 | 2 |
| 2025-05-20T16:24:00 | 54.910339 | 6.261024 | 2.0 | 13.010 | 2 | 39.307 | 13.179 | 33.261 | 2 |
| 2025-05-20T16:25:00 | 54.908643 | 6.265492 | 2.0 | 12.994 | 2 | 39.274 | 13.172 | 33.236 | 2 |
| 2025-05-20T16:26:00 | 54.906903 | 6.269917 | 2.0 | 12.959 | 2 | 39.260 | 13.152 | 33.241 | 2 |
| 2025-05-20T16:27:00 | 54.905207 | 6.274317 | 2.0 | 12.924 | 2 | 39.240 | 13.119 | 33.251 | 2 |
| 2025-05-20T16:28:00 | 54.903464 | 6.278748 | 2.0 | 12.922 | 2 | 39.202 | 13.090 | 33.240 | 2 |
| 2025-05-20T16:29:00 | 54.901721 | 6.283229 | 2.0 | 12.907 | 2 | 39.169 | 13.080 | 33.218 | 2 |
| 2025-05-20T16:30:00 | 54.899988 | 6.287663 | 2.0 | 12.896 | 2 | 39.158 | 13.074 | 33.213 | 2 |
| 2025-05-20T16:31:00 | 54.898281 | 6.292051 | 2.0 | 12.880 | 2 | 39.134 | 13.059 | 33.203 | 2 |
| 2025-05-20T16:32:00 | 54.896545 | 6.296444 | 2.0 | 12.872 | 2 | 39.103 | 13.043 | 33.188 | 2 |
| 2025-05-20T16:33:00 | 54.894824 | 6.300895 | 2.0 | 12.877 | 2 | 39.049 | 13.039 | 33.140 | 2 |
| 2025-05-20T16:34:00 | 54.893138 | 6.305269 | 2.0 | 12.887 | 2 | 39.002 | 13.042 | 33.093 | 2 |
| 2025-05-20T16:35:00 | 54.891430 | 6.309621 | 2.0 | 12.914 | 2 | 39.023 | 13.054 | 33.102 | 2 |
| 2025-05-20T16:36:00 | 54.889726 | 6.314069 | 2.0 | 12.935 | 2 | 39.068 | 13.080 | 33.122 | 2 |
| 2025-05-20T16:37:00 | 54.887992 | 6.318457 | 2.0 | 12.952 | 2 | 39.054 | 13.100 | 33.092 | 2 |
| 2025-05-20T16:38:00 | 54.886293 | 6.322831 | 2.0 | 12.954 | 2 | 39.076 | 13.114 | 33.100 | 2 |
| 2025-05-20T16:39:00 | 54.884592 | 6.327232 | 2.0 | 12.977 | 2 | 39.090 | 13.121 | 33.107 | 2 |
| 2025-05-20T16:40:00 | 54.882863 | 6.331590 | 2.0 | 12.995 | 2 | 39.110 | 13.142 | 33.108 | 2 |
| 2025-05-20T16:41:00 | 54.881195 | 6.335997 | 2.0 | 12.994 | 2 | 39.078 | 13.158 | 33.064 | 2 |
| 2025-05-20T16:42:00 | 54.879466 | 6.340375 | 2.0 | 12.993 | 2 | 39.101 | 13.156 | 33.087 | 2 |
| 2025-05-20T16:43:00 | 54.877768 | 6.344775 | 2.0 | 12.984 | 2 | 39.074 | 13.153 | 33.064 | 2 |
| 2025-05-20T16:44:00 | 54.876073 | 6.349168 | 2.0 | 12.986 | 2 | 39.081 | 13.149 | 33.074 | 2 |
| 2025-05-20T16:45:00 | 54.874347 | 6.353567 | 2.0 | 12.976 | 2 | 39.126 | 13.149 | 33.117 | 2 |
| 2025-05-20T16:46:00 | 54.872670 | 6.357971 | 2.0 | 12.990 | 2 | 39.098 | 13.143 | 33.096 | 2 |
| 2025-05-20T16:47:00 | 54.870937 | 6.362310 | 2.0 | 13.021 | 2 | 39.117 | 13.155 | 33.103 | 2 |
| 2025-05-20T16:48:00 | 54.869251 | 6.366693 | 2.0 | 13.071 | 2 | 39.146 | 13.190 | 33.100 | 2 |
| 2025-05-20T16:49:00 | 54.867545 | 6.371068 | 2.0 | 13.132 | 2 | 39.211 | 13.243 | 33.115 | 2 |
| 2025-05-20T16:50:00 | 54.865865 | 6.375465 | 2.0 | 13.172 | 2 | 39.267 | 13.299 | 33.119 | 2 |
| 2025-05-20T16:51:00 | 54.863883 | 6.379379 | 2.0 | 13.209 | 2 | 39.314 | 13.338 | 33.129 | 2 |
| 2025-05-20T16:52:00 | 54.861767 | 6.383154 | 2.0 | 13.226 | 2 | 39.333 | 13.370 | 33.119 | 2 |
| 2025-05-20T16:53:00 | 54.859651 | 6.386923 | 2.0 | 13.239 | 2 | 39.335 | 13.387 | 33.106 | 2 |
| 2025-05-20T16:54:00 | 54.857502 | 6.390764 | 2.0 | 13.246 | 2 | 39.334 | 13.400 | 33.094 | 2 |
| 2025-05-20T16:55:00 | 54.855358 | 6.394544 | 2.0 | 13.250 | 2 | 39.333 | 13.406 | 33.088 | 2 |
| 2025-05-20T16:56:00 | 54.853290 | 6.398456 | 2.0 | 13.259 | 2 | 39.339 | 13.414 | 33.086 | 2 |
| 2025-05-20T16:57:00 | 54.851137 | 6.402293 | 2.0 | 13.262 | 2 | 39.344 | 13.420 | 33.086 | 2 |
| 2025-05-20T16:58:00 | 54.848966 | 6.406055 | 2.0 | 13.255 | 2 | 39.344 | 13.422 | 33.084 | 2 |
| 2025-05-20T16:59:00 | 54.846832 | 6.409887 | 2.0 | 13.237 | 2 | 39.335 | 13.416 | 33.081 | 2 |
| 2025-05-20T17:00:00 | 54.844721 | 6.413760 | 2.0 | 13.205 | 2 | 39.316 | 13.394 | 33.082 | 2 |
| 2025-05-20T17:01:00 | 54.842568 | 6.417611 | 2.0 | 13.188 | 2 | 39.292 | 13.366 | 33.084 | 2 |
| 2025-05-20T17:02:00 | 54.840444 | 6.421414 | 2.0 | 13.178 | 2 | 39.276 | 13.350 | 33.083 | 2 |
| 2025-05-20T17:03:00 | 54.838348 | 6.425256 | 2.0 | 13.186 | 2 | 39.268 | 13.344 | 33.081 | 2 |
| 2025-05-20T17:04:00 | 54.836178 | 6.429121 | 2.0 | 13.168 | 2 | 39.233 | 13.345 | 33.047 | 2 |
| 2025-05-20T17:05:00 | 54.833986 | 6.432969 | 2.0 | 13.155 | 2 | 39.248 | 13.330 | 33.074 | 2 |
| 2025-05-20T17:06:00 | 54.831830 | 6.436784 | 2.0 | 13.151 | 2 | 39.253 | 13.319 | 33.088 | 2 |
| 2025-05-20T17:07:00 | 54.829677 | 6.440626 | 2.0 | 13.135 | 2 | 39.266 | 13.315 | 33.104 | 2 |
| 2025-05-20T17:08:00 | 54.827613 | 6.444479 | 2.0 | 13.125 | 2 | 39.272 | 13.298 | 33.124 | 2 |
| 2025-05-20T17:09:00 | 54.825496 | 6.448280 | 2.0 | 13.133 | 2 | 39.290 | 13.291 | 33.147 | 2 |
| 2025-05-20T17:10:00 | 54.823347 | 6.452122 | 2.0 | 13.136 | 2 | 39.320 | 13.298 | 33.169 | 2 |
| 2025-05-20T17:11:00 | 54.821206 | 6.455974 | 2.0 | 13.145 | 2 | 39.347 | 13.298 | 33.195 | 2 |
| 2025-05-20T17:12:00 | 54.819074 | 6.459788 | 2.0 | 13.179 | 2 | 39.387 | 13.312 | 33.220 | 2 |
| 2025-05-20T17:13:00 | 54.816960 | 6.463565 | 2.0 | 13.260 | 2 | 39.444 | 13.356 | 33.235 | 2 |
| 2025-05-20T17:14:00 | 54.814910 | 6.467316 | 2.0 | 13.317 | 2 | 39.497 | 13.428 | 33.222 | 2 |
| 2025-05-20T17:15:00 | 54.812753 | 6.471098 | 2.0 | 13.343 | 2 | 39.523 | 13.481 | 33.201 | 2 |
| 2025-05-20T17:16:00 | 54.810643 | 6.474907 | 2.0 | 13.344 | 2 | 39.510 | 13.502 | 33.170 | 2 |
| 2025-05-20T17:17:00 | 54.808506 | 6.478751 | 2.0 | 13.321 | 2 | 39.460 | 13.501 | 33.124 | 2 |
| 2025-05-20T17:18:00 | 54.806378 | 6.482481 | 2.0 | 13.276 | 2 | 39.386 | 13.478 | 33.075 | 2 |
| 2025-05-20T17:19:00 | 54.804274 | 6.486318 | 2.0 | 13.240 | 2 | 39.318 | 13.436 | 33.048 | 2 |
| 2025-05-20T17:20:00 | 54.802163 | 6.490120 | 2.0 | 13.230 | 2 | 39.260 | 13.401 | 33.024 | 2 |
| 2025-05-20T17:21:00 | 54.800056 | 6.493913 | 2.0 | 13.237 | 2 | 39.242 | 13.396 | 33.011 | 2 |
| 2025-05-20T17:22:00 | 54.797956 | 6.497624 | 2.0 | 13.249 | 2 | 39.240 | 13.403 | 33.003 | 2 |
| 2025-05-20T17:23:00 | 54.795960 | 6.501141 | 2.0 | 13.248 | 2 | 39.244 | 13.410 | 33.001 | 2 |
| 2025-05-20T17:24:00 | 54.794072 | 6.504683 | 2.0 | 13.243 | 2 | 39.241 | 13.409 | 32.999 | 2 |
| 2025-05-20T17:25:00 | 54.792100 | 6.508124 | 2.0 | 13.257 | 2 | 39.239 | 13.406 | 33.000 | 2 |
| 2025-05-20T17:26:00 | 54.790152 | 6.511492 | 2.0 | 13.290 | 2 | 39.254 | 13.423 | 32.999 | 2 |
| 2025-05-20T17:27:00 | 54.788300 | 6.514909 | 2.0 | 13.322 | 2 | 39.282 | 13.457 | 32.996 | 2 |
| 2025-05-20T17:28:00 | 54.786364 | 6.518335 | 2.0 | 13.339 | 2 | 39.310 | 13.485 | 32.998 | 2 |
| 2025-05-20T17:29:00 | 54.784437 | 6.521810 | 2.0 | 13.347 | 2 | 39.338 | 13.501 | 33.010 | 2 |
| 2025-05-20T17:30:00 | 54.782493 | 6.525281 | 2.0 | 13.345 | 2 | 39.358 | 13.507 | 33.024 | 2 |
| 2025-05-20T17:31:00 | 54.780569 | 6.528782 | 2.0 | 13.357 | 2 | 39.362 | 13.505 | 33.029 | 2 |
| 2025-05-20T17:32:00 | 54.778662 | 6.532218 | 2.0 | 13.396 | 2 | 39.369 | 13.523 | 33.020 | 2 |
| 2025-05-20T17:33:00 | 54.776753 | 6.535651 | 2.0 | 13.422 | 2 | 39.373 | 13.560 | 32.992 | 2 |
| 2025-05-20T17:34:00 | 54.774814 | 6.539100 | 2.0 | 13.436 | 2 | 39.393 | 13.583 | 32.991 | 2 |
| 2025-05-20T17:35:00 | 54.772807 | 6.542496 | 2.0 | 13.448 | 2 | 39.390 | 13.597 | 32.976 | 2 |
| 2025-05-20T17:36:00 | 54.770899 | 6.546054 | 2.0 | 13.453 | 2 | 39.381 | 13.608 | 32.958 | 2 |
| 2025-05-20T17:37:00 | 54.768983 | 6.549569 | 2.0 | 13.451 | 2 | 39.372 | 13.613 | 32.945 | 2 |
| 2025-05-20T17:38:00 | 54.767059 | 6.553044 | 2.0 | 13.445 | 2 | 39.368 | 13.610 | 32.944 | 2 |
| 2025-05-20T17:39:00 | 54.765103 | 6.556461 | 2.0 | 13.436 | 2 | 39.365 | 13.604 | 32.946 | 2 |
| 2025-05-20T17:40:00 | 54.763190 | 6.559880 | 2.0 | 13.425 | 2 | 39.367 | 13.594 | 32.957 | 2 |
| 2025-05-20T17:41:00 | 54.761279 | 6.563298 | 2.0 | 13.419 | 2 | 39.365 | 13.585 | 32.963 | 2 |
| 2025-05-20T17:42:00 | 54.759391 | 6.566653 | 2.0 | 13.395 | 2 | 39.363 | 13.577 | 32.968 | 2 |
| 2025-05-20T17:43:00 | 54.757545 | 6.569993 | 2.0 | 13.376 | 2 | 39.356 | 13.554 | 32.981 | 2 |
| 2025-05-20T17:44:00 | 54.755667 | 6.573215 | 2.0 | 13.370 | 2 | 39.343 | 13.537 | 32.984 | 2 |
| 2025-05-20T17:45:00 | 54.753900 | 6.576559 | 2.0 | 13.376 | 2 | 39.340 | 13.532 | 32.985 | 2 |
| 2025-05-20T17:46:00 | 54.752047 | 6.579845 | 2.0 | 13.371 | 2 | 39.349 | 13.537 | 32.989 | 2 |
| 2025-05-20T17:47:00 | 54.750184 | 6.583184 | 2.0 | 13.358 | 2 | 39.351 | 13.528 | 32.999 | 2 |
| 2025-05-20T17:48:00 | 54.748371 | 6.586528 | 2.0 | 13.340 | 2 | 39.342 | 13.515 | 33.002 | 2 |
| 2025-05-20T17:49:00 | 54.746530 | 6.589801 | 2.0 | 13.338 | 2 | 39.327 | 13.503 | 32.998 | 2 |
| 2025-05-20T17:50:00 | 54.744679 | 6.593044 | 2.0 | 13.330 | 2 | 39.314 | 13.497 | 32.991 | 2 |
| 2025-05-20T17:51:00 | 54.742854 | 6.596348 | 2.0 | 13.313 | 2 | 39.304 | 13.487 | 32.990 | 2 |
| 2025-05-20T17:52:00 | 54.741027 | 6.599597 | 2.0 | 13.295 | 2 | 39.291 | 13.473 | 32.990 | 2 |
| 2025-05-20T17:53:00 | 54.739290 | 6.602821 | 2.0 | 13.288 | 2 | 39.275 | 13.459 | 32.987 | 2 |
| 2025-05-20T17:54:00 | 54.737456 | 6.605841 | 2.0 | 13.258 | 2 | 39.261 | 13.445 | 32.986 | 2 |
| 2025-05-20T17:55:00 | 54.735706 | 6.608969 | 2.0 | 13.235 | 2 | 39.236 | 13.413 | 32.991 | 2 |
| 2025-05-20T17:56:00 | 54.734012 | 6.612121 | 2.0 | 13.223 | 2 | 39.218 | 13.396 | 32.989 | 2 |
| 2025-05-20T17:57:00 | 54.732302 | 6.615266 | 2.0 | 13.224 | 2 | 39.203 | 13.385 | 32.984 | 2 |
| 2025-05-20T17:58:00 | 54.730546 | 6.618314 | 2.0 | 13.249 | 2 | 39.084 | 13.389 | 32.869 | 2 |
| 2025-05-20T17:59:00 | 54.728832 | 6.621447 | 2.0 | 13.283 | 2 | 39.197 | 13.416 | 32.952 | 2 |
| 2025-05-20T18:00:00 | 54.727035 | 6.624502 | 2.0 | 13.290 | 2 | 39.206 | 13.444 | 32.936 | 2 |
| 2025-05-20T18:01:00 | 54.725269 | 6.627641 | 2.0 | 13.283 | 2 | 39.043 | 13.450 | 32.778 | 2 |
| 2025-05-20T18:02:00 | 54.723577 | 6.630890 | 2.0 | 13.271 | 2 | 39.199 | 13.441 | 32.932 | 2 |
| 2025-05-20T18:03:00 | 54.721810 | 6.634066 | 2.0 | 13.277 | 2 | 39.194 | 13.435 | 32.932 | 2 |
| 2025-05-20T18:04:00 | 54.720024 | 6.637178 | 2.0 | 13.301 | 2 | 38.954 | 13.442 | 32.702 | 2 |
| 2025-05-20T18:05:00 | 54.718248 | 6.640246 | 2.0 | 13.291 | 2 | 39.087 | 13.463 | 32.808 | 2 |
| 2025-05-20T18:06:00 | 54.716548 | 6.643408 | 2.0 | 13.265 | 2 | 38.933 | 13.450 | 32.675 | 2 |
| 2025-05-20T18:08:00 | 54.713435 | 6.648802 | 2.0 | 13.266 | 2 | 39.090 | 13.420 | 32.848 | 2 |
| 2025-05-20T18:09:00 | 54.711978 | 6.651210 | 2.0 | 13.267 | 2 | 38.799 | 13.428 | 32.569 | 2 |
| 2025-05-20T18:10:00 | 54.710660 | 6.653788 | 2.0 | 13.271 | 2 | 39.007 | 13.429 | 32.762 | 2 |
| 2025-05-20T18:11:00 | 54.709421 | 6.656003 | 2.0 | 13.272 | 2 | 38.738 | 13.431 | 32.509 | 2 |
| 2025-05-20T18:12:00 | 54.708092 | 6.658231 | 2.0 | 13.267 | 2 | 38.811 | 13.430 | 32.578 | 2 |
| 2025-05-20T18:13:00 | 54.706744 | 6.660711 | 2.0 | 13.263 | 2 | 38.399 | 13.428 | 32.195 | 2 |
| 2025-05-20T18:14:00 | 54.705338 | 6.663306 | 2.0 | 13.260 | 2 | 38.604 | 13.420 | 32.393 | 2 |
| 2025-05-20T18:15:00 | 54.703910 | 6.665995 | 2.0 | 13.257 | 2 | 38.698 | 13.419 | 32.482 | 2 |
| 2025-05-20T18:16:00 | 54.702462 | 6.668622 | 2.0 | 13.251 | 2 | 38.577 | 13.415 | 32.372 | 2 |
| 2025-05-20T18:17:00 | 54.701008 | 6.671220 | 2.0 | 13.248 | 2 | 38.747 | 13.411 | 32.535 | 2 |
| 2025-05-20T18:18:00 | 54.699592 | 6.673826 | 2.0 | 13.236 | 2 | 38.616 | 13.406 | 32.416 | 2 |
| 2025-05-20T18:19:00 | 54.698095 | 6.676267 | 2.0 | 13.233 | 2 | 38.747 | 13.396 | 32.547 | 2 |
| 2025-05-20T18:20:00 | 54.696738 | 6.678744 | 2.0 | 13.238 | 2 | 38.939 | 13.392 | 32.731 | 2 |
| 2025-05-20T18:21:00 | 54.695319 | 6.681277 | 2.0 | 13.282 | 2 | 38.747 | 13.409 | 32.536 | 2 |
| 2025-05-20T18:22:00 | 54.693857 | 6.683840 | 2.0 | 13.305 | 2 | 38.730 | 13.444 | 32.491 | 2 |
| 2025-05-20T18:23:00 | 54.692376 | 6.686411 | 2.0 | 13.317 | 2 | 38.818 | 13.464 | 32.556 | 2 |
| 2025-05-20T18:24:00 | 54.690968 | 6.689003 | 2.0 | 13.322 | 2 | 38.659 | 13.477 | 32.396 | 2 |
| 2025-05-20T18:25:00 | 54.689543 | 6.691612 | 2.0 | 13.321 | 2 | 38.807 | 13.481 | 32.531 | 2 |
| 2025-05-20T18:26:00 | 54.688114 | 6.694277 | 2.0 | 13.318 | 2 | 38.609 | 13.481 | 32.346 | 2 |
| 2025-05-20T18:27:00 | 54.686622 | 6.696783 | 2.0 | 13.312 | 2 | 38.755 | 13.476 | 32.487 | 2 |
| 2025-05-20T18:28:00 | 54.685210 | 6.699252 | 2.0 | 13.308 | 2 | 38.681 | 13.470 | 32.423 | 2 |
| 2025-05-20T18:29:00 | 54.683790 | 6.701885 | 2.0 | 13.309 | 2 | 38.778 | 13.468 | 32.515 | 2 |
| 2025-05-20T18:30:00 | 54.682323 | 6.704517 | 2.0 | 13.308 | 2 | 38.704 | 13.467 | 32.447 | 2 |
| 2025-05-20T18:31:00 | 54.680843 | 6.707107 | 2.0 | 13.310 | 2 | 38.825 | 13.468 | 32.559 | 2 |
| 2025-05-20T18:32:00 | 54.679438 | 6.709682 | 2.0 | 13.324 | 2 | 38.664 | 13.471 | 32.406 | 2 |
| 2025-05-20T18:33:00 | 54.678023 | 6.712208 | 2.0 | 13.323 | 2 | 38.718 | 13.482 | 32.447 | 2 |
| 2025-05-20T18:34:00 | 54.676596 | 6.714759 | 2.0 | 13.302 | 2 | 38.662 | 13.476 | 32.400 | 2 |
| 2025-05-20T18:35:00 | 54.675146 | 6.717343 | 2.0 | 13.266 | 2 | 38.757 | 13.458 | 32.504 | 2 |
| 2025-05-20T18:36:00 | 54.673642 | 6.719877 | 2.0 | 13.242 | 2 | 38.594 | 13.425 | 32.380 | 2 |
| 2025-05-20T18:37:00 | 54.671999 | 6.722169 | 2.0 | 13.225 | 2 | 38.489 | 13.401 | 32.302 | 2 |
| 2025-05-20T18:38:00 | 54.670479 | 6.724659 | 2.0 | 13.215 | 2 | 38.540 | 13.383 | 32.365 | 2 |
| 2025-05-20T18:39:00 | 54.669044 | 6.727189 | 2.0 | 13.211 | 2 | 38.612 | 13.376 | 32.438 | 2 |
| 2025-05-20T18:40:00 | 54.667574 | 6.729628 | 2.0 | 13.201 | 2 | 38.489 | 13.369 | 32.329 | 2 |
| 2025-05-20T18:41:00 | 54.666055 | 6.732039 | 2.0 | 13.177 | 2 | 38.472 | 13.360 | 32.321 | 2 |
| 2025-05-20T18:42:00 | 54.664536 | 6.734470 | 2.0 | 13.166 | 2 | 38.429 | 13.337 | 32.300 | 2 |
| 2025-05-20T18:43:00 | 54.662914 | 6.736741 | 2.0 | 13.150 | 2 | 38.402 | 13.325 | 32.285 | 2 |
| 2025-05-20T18:44:00 | 54.661408 | 6.739162 | 2.0 | 13.134 | 2 | 38.407 | 13.308 | 32.304 | 2 |
| 2025-05-20T18:45:00 | 54.660006 | 6.741742 | 2.0 | 13.110 | 2 | 38.383 | 13.292 | 32.295 | 2 |
| 2025-05-20T18:46:00 | 54.658460 | 6.744068 | 2.0 | 13.131 | 2 | 38.361 | 13.277 | 32.287 | 2 |
| 2025-05-20T18:47:00 | 54.656891 | 6.746271 | 2.0 | 13.145 | 2 | 38.355 | 13.294 | 32.267 | 2 |
| 2025-05-20T18:48:00 | 54.655470 | 6.748601 | 2.0 | 13.178 | 2 | 38.377 | 13.309 | 32.275 | 2 |
| 2025-05-20T18:49:00 | 54.654118 | 6.751070 | 2.0 | 13.205 | 2 | 38.367 | 13.341 | 32.239 | 2 |
| 2025-05-20T18:50:00 | 54.652591 | 6.753348 | 2.0 | 13.247 | 2 | 38.388 | 13.373 | 32.231 | 2 |
| 2025-05-20T18:51:00 | 54.651051 | 6.755701 | 2.0 | 13.270 | 2 | 38.431 | 13.407 | 32.243 | 2 |
| 2025-05-20T18:52:00 | 54.649547 | 6.758164 | 2.0 | 13.288 | 2 | 38.471 | 13.433 | 32.258 | 2 |
| 2025-05-20T18:53:00 | 54.648048 | 6.760597 | 2.0 | 13.299 | 2 | 38.485 | 13.447 | 32.259 | 2 |
| 2025-05-20T18:54:00 | 54.646578 | 6.763071 | 2.0 | 13.311 | 2 | 38.508 | 13.460 | 32.270 | 2 |
| 2025-05-20T18:55:00 | 54.645057 | 6.765478 | 2.0 | 13.318 | 2 | 38.503 | 13.470 | 32.256 | 2 |
| 2025-05-20T18:56:00 | 54.643535 | 6.767963 | 2.0 | 13.315 | 2 | 38.512 | 13.476 | 32.260 | 2 |
| 2025-05-20T18:57:00 | 54.642004 | 6.770400 | 2.0 | 13.303 | 2 | 38.506 | 13.473 | 32.257 | 2 |
| 2025-05-20T18:58:00 | 54.640457 | 6.772812 | 2.0 | 13.309 | 2 | 38.494 | 13.464 | 32.253 | 2 |
| 2025-05-20T18:59:00 | 54.639026 | 6.775293 | 2.0 | 13.325 | 2 | 38.505 | 13.470 | 32.258 | 2 |
| 2025-05-20T19:00:00 | 54.637565 | 6.777725 | 2.0 | 13.343 | 2 | 38.545 | 13.486 | 32.282 | 2 |
| 2025-05-20T19:01:00 | 54.636011 | 6.780050 | 2.0 | 13.358 | 2 | 38.542 | 13.503 | 32.265 | 2 |
| 2025-05-20T19:02:00 | 54.634487 | 6.782443 | 2.0 | 13.377 | 2 | 38.560 | 13.522 | 32.266 | 2 |
| 2025-05-20T19:03:00 | 54.633009 | 6.784943 | 2.0 | 13.393 | 2 | 38.559 | 13.540 | 32.250 | 2 |
| 2025-05-20T19:04:00 | 54.631468 | 6.787262 | 2.0 | 13.410 | 2 | 38.602 | 13.555 | 32.277 | 2 |
| 2025-05-20T19:05:00 | 54.629953 | 6.789644 | 2.0 | 13.424 | 2 | 38.600 | 13.571 | 32.262 | 2 |
| 2025-05-20T19:06:00 | 54.628450 | 6.792095 | 2.0 | 13.413 | 2 | 38.610 | 13.582 | 32.262 | 2 |
| 2025-05-20T19:07:00 | 54.626980 | 6.794639 | 2.0 | 13.393 | 2 | 38.626 | 13.569 | 32.287 | 2 |
| 2025-05-20T19:08:00 | 54.625518 | 6.797071 | 2.0 | 13.372 | 2 | 38.593 | 13.551 | 32.272 | 2 |
| 2025-05-20T19:09:00 | 54.623979 | 6.799327 | 2.0 | 13.357 | 2 | 38.584 | 13.533 | 32.279 | 2 |
| 2025-05-20T19:10:00 | 54.622462 | 6.801564 | 2.0 | 13.342 | 2 | 38.571 | 13.517 | 32.280 | 2 |
| 2025-05-20T19:11:00 | 54.621017 | 6.803953 | 2.0 | 13.330 | 2 | 38.562 | 13.498 | 32.288 | 2 |
| 2025-05-20T19:12:00 | 54.619578 | 6.806415 | 2.0 | 13.336 | 2 | 38.553 | 13.492 | 32.285 | 2 |
| 2025-05-20T19:13:00 | 54.618040 | 6.808723 | 2.0 | 13.343 | 2 | 38.553 | 13.498 | 32.279 | 2 |
| 2025-05-20T19:14:00 | 54.616547 | 6.811054 | 2.0 | 13.354 | 2 | 38.555 | 13.504 | 32.276 | 2 |
| 2025-05-20T19:15:00 | 54.615160 | 6.813394 | 2.0 | 13.364 | 2 | 38.553 | 13.514 | 32.266 | 2 |
| 2025-05-20T19:16:00 | 54.613770 | 6.815788 | 2.0 | 13.391 | 2 | 38.552 | 13.527 | 32.254 | 2 |
| 2025-05-20T19:17:00 | 54.612237 | 6.818102 | 2.0 | 13.425 | 2 | 38.560 | 13.555 | 32.238 | 2 |
| 2025-05-20T19:18:00 | 54.610723 | 6.820424 | 2.0 | 13.427 | 2 | 38.567 | 13.582 | 32.222 | 2 |
| 2025-05-20T19:19:00 | 54.609329 | 6.822913 | 2.0 | 13.420 | 2 | 38.555 | 13.584 | 32.209 | 2 |
| 2025-05-20T19:20:00 | 54.607805 | 6.825248 | 2.0 | 13.416 | 2 | 38.539 | 13.579 | 32.198 | 2 |
| 2025-05-20T19:21:00 | 54.606230 | 6.827554 | 2.0 | 13.408 | 2 | 38.523 | 13.575 | 32.187 | 2 |
| 2025-05-20T19:22:00 | 54.604788 | 6.830006 | 2.0 | 13.380 | 2 | 38.505 | 13.563 | 32.180 | 2 |
| 2025-05-20T19:23:00 | 54.603310 | 6.832405 | 2.0 | 13.332 | 2 | 38.475 | 13.534 | 32.176 | 2 |
| 2025-05-20T19:24:00 | 54.601826 | 6.834725 | 2.0 | 13.310 | 2 | 38.434 | 13.492 | 32.174 | 2 |
| 2025-05-20T19:25:00 | 54.600294 | 6.837117 | 2.0 | 13.280 | 2 | 38.404 | 13.467 | 32.167 | 2 |
| 2025-05-20T19:26:00 | 54.598768 | 6.839512 | 2.0 | 13.263 | 2 | 38.371 | 13.439 | 32.159 | 2 |
| 2025-05-20T19:27:00 | 54.597324 | 6.841981 | 2.0 | 13.261 | 2 | 38.345 | 13.425 | 32.147 | 2 |
| 2025-05-20T19:28:00 | 54.595865 | 6.844349 | 2.0 | 13.245 | 2 | 38.326 | 13.422 | 32.132 | 2 |
| 2025-05-20T19:29:00 | 54.594362 | 6.846723 | 2.0 | 13.236 | 2 | 38.302 | 13.405 | 32.124 | 2 |
| 2025-05-20T19:30:00 | 54.592825 | 6.849092 | 2.0 | 13.261 | 2 | 38.294 | 13.400 | 32.120 | 2 |
| 2025-05-20T19:31:00 | 54.591315 | 6.851503 | 2.0 | 13.304 | 2 | 38.313 | 13.429 | 32.114 | 2 |
| 2025-05-20T19:32:00 | 54.589873 | 6.854008 | 2.0 | 13.337 | 2 | 38.339 | 13.468 | 32.105 | 2 |
| 2025-05-20T19:33:00 | 54.588354 | 6.856348 | 2.0 | 13.353 | 2 | 38.371 | 13.498 | 32.110 | 2 |
| 2025-05-20T19:34:00 | 54.586828 | 6.858714 | 2.0 | 13.359 | 2 | 38.389 | 13.512 | 32.115 | 2 |
| 2025-05-20T19:35:00 | 54.585339 | 6.861106 | 2.0 | 13.371 | 2 | 38.402 | 13.519 | 32.121 | 2 |
| 2025-05-20T19:36:00 | 54.583861 | 6.863454 | 2.0 | 13.382 | 2 | 38.416 | 13.531 | 32.124 | 2 |
| 2025-05-20T19:37:00 | 54.582386 | 6.865828 | 2.0 | 13.394 | 2 | 38.431 | 13.543 | 32.128 | 2 |
| 2025-05-20T19:38:00 | 54.580992 | 6.868227 | 2.0 | 13.393 | 2 | 38.449 | 13.553 | 32.136 | 2 |
| 2025-05-20T19:39:00 | 54.579580 | 6.870541 | 2.0 | 13.387 | 2 | 38.457 | 13.551 | 32.145 | 2 |
| 2025-05-20T19:40:00 | 54.578121 | 6.872788 | 2.0 | 13.380 | 2 | 38.459 | 13.546 | 32.151 | 2 |
| 2025-05-20T19:41:00 | 54.576600 | 6.875025 | 2.0 | 13.371 | 2 | 38.459 | 13.540 | 32.156 | 2 |
| 2025-05-20T19:42:00 | 54.575113 | 6.877366 | 2.0 | 13.353 | 2 | 38.457 | 13.528 | 32.165 | 2 |
| 2025-05-20T19:43:00 | 54.573757 | 6.879839 | 2.0 | 13.342 | 2 | 38.342 | 13.512 | 32.071 | 2 |
| 2025-05-20T19:44:00 | 54.572304 | 6.882141 | 2.0 | 13.332 | 2 | 38.384 | 13.501 | 32.119 | 2 |
| 2025-05-20T19:45:00 | 54.570804 | 6.884324 | 2.0 | 13.333 | 2 | 38.382 | 13.493 | 32.124 | 2 |
| 2025-05-20T19:46:00 | 54.569289 | 6.886616 | 2.0 | 13.336 | 2 | 38.445 | 13.495 | 32.181 | 2 |
| 2025-05-20T19:47:00 | 54.567823 | 6.888995 | 2.0 | 13.335 | 2 | 38.451 | 13.496 | 32.186 | 2 |
| 2025-05-20T19:48:00 | 54.566430 | 6.891442 | 2.0 | 13.330 | 2 | 38.399 | 13.494 | 32.139 | 2 |
| 2025-05-20T19:49:00 | 54.564948 | 6.893849 | 2.0 | 13.325 | 2 | 38.443 | 13.490 | 32.184 | 2 |
| 2025-05-20T19:50:00 | 54.563361 | 6.896131 | 2.0 | 13.321 | 2 | 38.436 | 13.486 | 32.180 | 2 |
| 2025-05-20T19:51:00 | 54.561846 | 6.898505 | 2.0 | 13.310 | 2 | 38.430 | 13.481 | 32.179 | 2 |
| 2025-05-20T19:52:00 | 54.560388 | 6.901012 | 2.0 | 13.303 | 2 | 38.455 | 13.470 | 32.212 | 2 |
| 2025-05-20T19:53:00 | 54.558945 | 6.903436 | 2.0 | 13.300 | 2 | 38.447 | 13.463 | 32.210 | 2 |
| 2025-05-20T19:54:00 | 54.557463 | 6.905739 | 2.0 | 13.304 | 2 | 38.462 | 13.462 | 32.225 | 2 |
| 2025-05-20T19:55:00 | 54.556013 | 6.908140 | 2.0 | 13.303 | 2 | 38.464 | 13.465 | 32.224 | 2 |
| 2025-05-20T19:56:00 | 54.554590 | 6.910547 | 2.0 | 13.307 | 2 | 38.481 | 13.465 | 32.240 | 2 |
| 2025-05-20T19:57:00 | 54.553108 | 6.912916 | 2.0 | 13.303 | 2 | 38.487 | 13.467 | 32.244 | 2 |
| 2025-05-20T19:58:00 | 54.551614 | 6.915270 | 2.0 | 13.302 | 2 | 38.501 | 13.464 | 32.260 | 2 |
| 2025-05-20T19:59:00 | 54.550118 | 6.917610 | 2.0 | 13.302 | 2 | 38.502 | 13.463 | 32.261 | 2 |
| 2025-05-20T20:00:00 | 54.548610 | 6.919920 | 2.0 | 13.303 | 2 | 38.504 | 13.463 | 32.263 | 2 |
| 2025-05-20T20:01:00 | 54.547163 | 6.922292 | 2.0 | 13.301 | 2 | 38.506 | 13.464 | 32.264 | 2 |
| 2025-05-20T20:02:00 | 54.545707 | 6.924686 | 2.0 | 13.296 | 2 | 38.506 | 13.461 | 32.267 | 2 |
| 2025-05-20T20:03:00 | 54.544217 | 6.927039 | 2.0 | 13.286 | 2 | 38.504 | 13.455 | 32.270 | 2 |
| 2025-05-20T20:04:00 | 54.542675 | 6.929327 | 2.0 | 13.272 | 2 | 38.497 | 13.445 | 32.272 | 2 |
| 2025-05-20T20:05:00 | 54.541217 | 6.931654 | 2.0 | 13.260 | 2 | 38.485 | 13.432 | 32.272 | 2 |
| 2025-05-20T20:06:00 | 54.539811 | 6.934049 | 2.0 | 13.264 | 2 | 38.476 | 13.423 | 32.271 | 2 |
| 2025-05-20T20:07:00 | 54.538325 | 6.936384 | 2.0 | 13.277 | 2 | 38.480 | 13.428 | 32.271 | 2 |
| 2025-05-20T20:08:00 | 54.536813 | 6.938704 | 2.0 | 13.294 | 2 | 38.492 | 13.439 | 32.272 | 2 |
| 2025-05-20T20:09:00 | 54.535365 | 6.941113 | 2.0 | 13.310 | 2 | 38.510 | 13.457 | 32.274 | 2 |
| 2025-05-20T20:10:00 | 54.533905 | 6.943458 | 2.0 | 13.334 | 2 | 38.526 | 13.473 | 32.275 | 2 |
| 2025-05-20T20:11:00 | 54.532465 | 6.945833 | 2.0 | 13.344 | 2 | 38.544 | 13.495 | 32.274 | 2 |
| 2025-05-20T20:12:00 | 54.531005 | 6.948176 | 2.0 | 13.333 | 2 | 38.553 | 13.502 | 32.276 | 2 |
| 2025-05-20T20:13:00 | 54.529584 | 6.950500 | 2.0 | 13.320 | 2 | 38.545 | 13.491 | 32.278 | 2 |
| 2025-05-20T20:14:00 | 54.528127 | 6.952788 | 2.0 | 13.313 | 2 | 38.534 | 13.478 | 32.279 | 2 |
| 2025-05-20T20:15:00 | 54.526623 | 6.954911 | 2.0 | 13.310 | 2 | 38.530 | 13.474 | 32.278 | 2 |
| 2025-05-20T20:16:00 | 54.525155 | 6.957148 | 2.0 | 13.304 | 2 | 38.529 | 13.471 | 32.280 | 2 |
| 2025-05-20T20:17:00 | 54.523736 | 6.959581 | 2.0 | 13.318 | 2 | 38.526 | 13.465 | 32.282 | 2 |
| 2025-05-20T20:18:00 | 54.522249 | 6.961967 | 2.0 | 13.348 | 2 | 38.535 | 13.484 | 32.275 | 2 |
| 2025-05-20T20:19:00 | 54.520742 | 6.964276 | 2.0 | 13.329 | 2 | 38.556 | 13.503 | 32.278 | 2 |
| 2025-05-20T20:20:00 | 54.519319 | 6.966637 | 2.0 | 13.311 | 2 | 38.543 | 13.485 | 32.281 | 2 |
| 2025-05-20T20:21:00 | 54.517908 | 6.969052 | 2.0 | 13.297 | 2 | 38.528 | 13.469 | 32.281 | 2 |
| 2025-05-20T20:22:00 | 54.516396 | 6.971334 | 2.0 | 13.280 | 2 | 38.511 | 13.455 | 32.277 | 2 |
| 2025-05-20T20:23:00 | 54.514924 | 6.973637 | 2.0 | 13.266 | 2 | 38.495 | 13.440 | 32.274 | 2 |
| 2025-05-20T20:24:00 | 54.513509 | 6.976022 | 2.0 | 13.234 | 2 | 38.477 | 13.423 | 32.272 | 2 |
| 2025-05-20T20:25:00 | 54.512110 | 6.978406 | 2.0 | 13.213 | 2 | 38.449 | 13.395 | 32.270 | 2 |
| 2025-05-20T20:26:00 | 54.510632 | 6.980714 | 2.0 | 13.208 | 2 | 38.425 | 13.376 | 32.263 | 2 |
| 2025-05-20T20:27:00 | 54.509125 | 6.983028 | 2.0 | 13.212 | 2 | 38.414 | 13.371 | 32.257 | 2 |
| 2025-05-20T20:28:00 | 54.507653 | 6.985408 | 2.0 | 13.220 | 2 | 38.412 | 13.375 | 32.252 | 2 |
| 2025-05-20T20:29:00 | 54.506131 | 6.987785 | 2.0 | 13.211 | 2 | 38.412 | 13.380 | 32.248 | 2 |
| 2025-05-20T20:30:00 | 54.504615 | 6.990173 | 2.0 | 13.194 | 2 | 38.395 | 13.371 | 32.239 | 2 |
| 2025-05-20T20:31:00 | 54.503208 | 6.992724 | 2.0 | 13.193 | 2 | 38.376 | 13.355 | 32.235 | 2 |
| 2025-05-20T20:32:00 | 54.501737 | 6.995061 | 2.0 | 13.222 | 2 | 38.374 | 13.359 | 32.230 | 2 |
| 2025-05-20T20:33:00 | 54.500241 | 6.997315 | 2.0 | 13.269 | 2 | 38.403 | 13.391 | 32.230 | 2 |
| 2025-05-20T20:34:00 | 54.498673 | 6.999535 | 2.0 | 13.304 | 2 | 38.445 | 13.435 | 32.232 | 2 |
| 2025-05-20T20:35:00 | 54.497219 | 7.001947 | 2.0 | 13.311 | 2 | 38.473 | 13.464 | 32.234 | 2 |
| 2025-05-20T20:36:00 | 54.495738 | 7.004354 | 2.0 | 13.304 | 2 | 38.484 | 13.470 | 32.239 | 2 |
| 2025-05-20T20:37:00 | 54.494214 | 7.006725 | 2.0 | 13.303 | 2 | 38.483 | 13.464 | 32.243 | 2 |
| 2025-05-20T20:38:00 | 54.492736 | 7.009133 | 2.0 | 13.305 | 2 | 38.488 | 13.463 | 32.248 | 2 |
| 2025-05-20T20:39:00 | 54.491240 | 7.011572 | 2.0 | 13.303 | 2 | 38.495 | 13.466 | 32.252 | 2 |
| 2025-05-20T20:40:00 | 54.489701 | 7.013983 | 2.0 | 13.286 | 2 | 38.498 | 13.461 | 32.259 | 2 |
| 2025-05-20T20:41:00 | 54.488219 | 7.016431 | 2.0 | 13.259 | 2 | 38.485 | 13.443 | 32.263 | 2 |
| 2025-05-20T20:42:00 | 54.486744 | 7.018791 | 2.0 | 13.221 | 2 | 38.466 | 13.415 | 32.268 | 2 |
| 2025-05-20T20:43:00 | 54.485225 | 7.021166 | 2.0 | 13.192 | 2 | 38.435 | 13.381 | 32.268 | 2 |
| 2025-05-20T20:44:00 | 54.483729 | 7.023513 | 2.0 | 13.164 | 2 | 38.408 | 13.350 | 32.269 | 2 |
| 2025-05-20T20:45:00 | 54.482258 | 7.025931 | 2.0 | 13.145 | 2 | 38.389 | 13.325 | 32.273 | 2 |
| 2025-05-20T20:46:00 | 54.480797 | 7.028303 | 2.0 | 13.121 | 2 | 38.374 | 13.304 | 32.276 | 2 |
| 2025-05-20T20:47:00 | 54.479338 | 7.030746 | 2.0 | 13.112 | 2 | 38.357 | 13.282 | 32.279 | 2 |
| 2025-05-20T20:48:00 | 54.477813 | 7.033095 | 2.0 | 13.124 | 2 | 38.355 | 13.277 | 32.282 | 2 |
| 2025-05-20T20:49:00 | 54.476386 | 7.035377 | 2.0 | 13.156 | 2 | 38.367 | 13.288 | 32.283 | 2 |
| 2025-05-20T20:50:00 | 54.474995 | 7.037762 | 2.0 | 13.208 | 2 | 38.409 | 13.326 | 32.291 | 2 |
| 2025-05-20T20:51:00 | 54.473461 | 7.040020 | 2.0 | 13.253 | 2 | 38.462 | 13.375 | 32.299 | 2 |
| 2025-05-20T20:52:00 | 54.471923 | 7.042253 | 2.0 | 13.280 | 2 | 38.506 | 13.417 | 32.304 | 2 |
| 2025-05-20T20:53:00 | 54.470513 | 7.044700 | 2.0 | 13.288 | 2 | 38.526 | 13.440 | 32.303 | 2 |
| 2025-05-20T20:54:00 | 54.469065 | 7.047118 | 2.0 | 13.304 | 2 | 38.531 | 13.450 | 32.300 | 2 |
| 2025-05-20T20:55:00 | 54.467587 | 7.049476 | 2.0 | 13.326 | 2 | 38.543 | 13.467 | 32.296 | 2 |
| 2025-05-20T20:56:00 | 54.466042 | 7.051730 | 2.0 | 13.356 | 2 | 38.563 | 13.489 | 32.296 | 2 |
| 2025-05-20T20:57:00 | 54.464542 | 7.054127 | 2.0 | 13.372 | 2 | 38.588 | 13.517 | 32.296 | 2 |
| 2025-05-20T20:58:00 | 54.463099 | 7.056581 | 2.0 | 13.388 | 2 | 38.607 | 13.534 | 32.299 | 2 |
| 2025-05-20T20:59:00 | 54.461629 | 7.058962 | 2.0 | 13.398 | 2 | 38.621 | 13.547 | 32.301 | 2 |
| 2025-05-20T21:00:00 | 54.460117 | 7.061281 | 2.0 | 13.408 | 2 | 38.636 | 13.558 | 32.306 | 2 |
| 2025-05-20T21:01:00 | 54.458573 | 7.063633 | 2.0 | 13.412 | 2 | 38.652 | 13.567 | 32.313 | 2 |
| 2025-05-20T21:02:00 | 54.457043 | 7.066046 | 2.0 | 13.417 | 2 | 38.664 | 13.571 | 32.321 | 2 |
| 2025-05-20T21:03:00 | 54.455584 | 7.068556 | 2.0 | 13.430 | 2 | 38.680 | 13.579 | 32.329 | 2 |
| 2025-05-20T21:04:00 | 54.454017 | 7.070943 | 2.0 | 13.439 | 2 | 38.697 | 13.590 | 32.336 | 2 |
| 2025-05-20T21:05:00 | 54.452505 | 7.073292 | 2.0 | 13.448 | 2 | 38.712 | 13.601 | 32.340 | 2 |
| 2025-05-20T21:06:00 | 54.451045 | 7.075757 | 2.0 | 13.462 | 2 | 38.726 | 13.610 | 32.346 | 2 |
| 2025-05-20T21:07:00 | 54.449544 | 7.078183 | 2.0 | 13.468 | 2 | 38.742 | 13.622 | 32.351 | 2 |
| 2025-05-20T21:08:00 | 54.448069 | 7.080522 | 2.0 | 13.472 | 2 | 38.755 | 13.628 | 32.358 | 2 |
| 2025-05-20T21:09:00 | 54.446634 | 7.082840 | 2.0 | 13.476 | 2 | 38.767 | 13.631 | 32.366 | 2 |
| 2025-05-20T21:10:00 | 54.445174 | 7.085186 | 2.0 | 13.476 | 2 | 38.779 | 13.635 | 32.374 | 2 |
| 2025-05-20T21:11:00 | 54.443641 | 7.087444 | 2.0 | 13.480 | 2 | 38.788 | 13.635 | 32.382 | 2 |
| 2025-05-20T21:12:00 | 54.442125 | 7.089806 | 2.0 | 13.474 | 2 | 38.803 | 13.639 | 32.393 | 2 |
| 2025-05-20T21:13:00 | 54.440643 | 7.092301 | 2.0 | 13.457 | 2 | 38.811 | 13.631 | 32.407 | 2 |
| 2025-05-20T21:14:00 | 54.439108 | 7.094760 | 2.0 | 13.433 | 2 | 38.807 | 13.614 | 32.418 | 2 |
| 2025-05-20T21:15:00 | 54.437565 | 7.097153 | 2.0 | 13.417 | 2 | 38.797 | 13.592 | 32.427 | 2 |
| 2025-05-20T21:16:00 | 54.436137 | 7.099589 | 2.0 | 13.391 | 2 | 38.787 | 13.575 | 32.432 | 2 |
| 2025-05-20T21:17:00 | 54.434649 | 7.101993 | 2.0 | 13.329 | 2 | 38.767 | 13.543 | 32.441 | 2 |
| 2025-05-20T21:18:00 | 54.433159 | 7.104383 | 2.0 | 13.285 | 2 | 38.719 | 13.482 | 32.448 | 2 |
| 2025-05-20T21:19:00 | 54.431624 | 7.106761 | 2.0 | 13.305 | 2 | 38.675 | 13.452 | 32.432 | 2 |
| 2025-05-20T21:20:00 | 54.430056 | 7.109068 | 2.0 | 13.324 | 2 | 38.666 | 13.471 | 32.408 | 2 |
| 2025-05-20T21:21:00 | 54.428569 | 7.111521 | 2.0 | 13.341 | 2 | 38.658 | 13.485 | 32.388 | 2 |
| 2025-05-20T21:22:00 | 54.427134 | 7.114087 | 2.0 | 13.394 | 2 | 38.661 | 13.511 | 32.369 | 2 |
| 2025-05-20T21:23:00 | 54.425565 | 7.116455 | 2.0 | 13.388 | 2 | 38.672 | 13.552 | 32.345 | 2 |
| 2025-05-20T21:24:00 | 54.423965 | 7.118759 | 2.0 | 13.407 | 2 | 38.621 | 13.551 | 32.298 | 2 |
| 2025-05-20T21:25:00 | 54.422522 | 7.121232 | 2.0 | 13.400 | 2 | 38.599 | 13.564 | 32.267 | 2 |
| 2025-05-20T21:26:00 | 54.421104 | 7.123614 | 2.0 | 13.376 | 2 | 38.578 | 13.557 | 32.253 | 2 |
| 2025-05-20T21:27:00 | 54.419648 | 7.125945 | 2.0 | 13.352 | 2 | 38.548 | 13.532 | 32.246 | 2 |
| 2025-05-20T21:28:00 | 54.418117 | 7.128317 | 2.0 | 13.342 | 2 | 38.526 | 13.512 | 32.242 | 2 |
| 2025-05-20T21:29:00 | 54.416575 | 7.130755 | 2.0 | 13.332 | 2 | 38.518 | 13.502 | 32.243 | 2 |
| 2025-05-20T21:30:00 | 54.415000 | 7.133082 | 2.0 | 13.326 | 2 | 38.512 | 13.492 | 32.246 | 2 |
| 2025-05-20T21:31:00 | 54.413476 | 7.135510 | 2.0 | 13.328 | 2 | 38.510 | 13.488 | 32.248 | 2 |
| 2025-05-20T21:32:00 | 54.411993 | 7.138045 | 2.0 | 13.337 | 2 | 38.513 | 13.492 | 32.247 | 2 |
| 2025-05-20T21:33:00 | 54.410439 | 7.140505 | 2.0 | 13.340 | 2 | 38.514 | 13.498 | 32.243 | 2 |
| 2025-05-20T21:34:00 | 54.408936 | 7.142938 | 2.0 | 13.335 | 2 | 38.508 | 13.500 | 32.236 | 2 |
| 2025-05-20T21:35:00 | 54.407439 | 7.145352 | 2.0 | 13.326 | 2 | 38.497 | 13.495 | 32.230 | 2 |
| 2025-05-20T21:36:00 | 54.405914 | 7.147761 | 2.0 | 13.322 | 2 | 38.487 | 13.485 | 32.229 | 2 |
| 2025-05-20T21:37:00 | 54.404380 | 7.150191 | 2.0 | 13.333 | 2 | 38.481 | 13.485 | 32.223 | 2 |
| 2025-05-20T21:38:00 | 54.402819 | 7.152590 | 2.0 | 13.347 | 2 | 38.483 | 13.497 | 32.215 | 2 |
| 2025-05-20T21:39:00 | 54.401341 | 7.155069 | 2.0 | 13.366 | 2 | 38.491 | 13.509 | 32.212 | 2 |
| 2025-05-20T21:40:00 | 54.399799 | 7.157464 | 2.0 | 13.378 | 2 | 38.497 | 13.530 | 32.200 | 2 |
| 2025-05-20T21:41:00 | 54.398306 | 7.159869 | 2.0 | 13.383 | 2 | 38.493 | 13.539 | 32.189 | 2 |
| 2025-05-20T21:42:00 | 54.396808 | 7.162314 | 2.0 | 13.374 | 2 | 38.485 | 13.542 | 32.179 | 2 |
| 2025-05-20T21:43:00 | 54.395278 | 7.164701 | 2.0 | 13.375 | 2 | 38.472 | 13.535 | 32.173 | 2 |
| 2025-05-20T21:44:00 | 54.393764 | 7.167098 | 2.0 | 13.356 | 2 | 38.467 | 13.533 | 32.170 | 2 |
| 2025-05-20T21:45:00 | 54.392261 | 7.169489 | 2.0 | 13.344 | 2 | 38.459 | 13.515 | 32.177 | 2 |
| 2025-05-20T21:46:00 | 54.390720 | 7.171853 | 2.0 | 13.352 | 2 | 38.461 | 13.507 | 32.186 | 2 |
| 2025-05-20T21:47:00 | 54.389193 | 7.174276 | 2.0 | 13.356 | 2 | 38.457 | 13.513 | 32.177 | 2 |
| 2025-05-20T21:48:00 | 54.387674 | 7.176750 | 2.0 | 13.356 | 2 | 38.446 | 13.517 | 32.164 | 2 |
| 2025-05-20T21:49:00 | 54.386137 | 7.179177 | 2.0 | 13.386 | 2 | 38.437 | 13.519 | 32.154 | 2 |
| 2025-05-20T21:50:00 | 54.384581 | 7.181565 | 2.0 | 13.419 | 2 | 38.447 | 13.554 | 32.133 | 2 |
| 2025-05-20T21:51:00 | 54.382998 | 7.183954 | 2.0 | 13.431 | 2 | 38.461 | 13.580 | 32.125 | 2 |
| 2025-05-20T21:52:00 | 54.381508 | 7.186542 | 2.0 | 13.436 | 2 | 38.465 | 13.593 | 32.117 | 2 |
| 2025-05-20T21:53:00 | 54.379967 | 7.189092 | 2.0 | 13.397 | 2 | 38.457 | 13.591 | 32.112 | 2 |
| 2025-05-20T21:54:00 | 54.378339 | 7.191487 | 2.0 | 13.345 | 2 | 38.418 | 13.550 | 32.110 | 2 |
| 2025-05-20T21:55:00 | 54.376776 | 7.193982 | 2.0 | 13.300 | 2 | 38.370 | 13.502 | 32.106 | 2 |
| 2025-05-20T21:56:00 | 54.375331 | 7.196613 | 2.0 | 13.209 | 2 | 38.298 | 13.432 | 32.097 | 2 |
| 2025-05-20T21:57:00 | 54.373746 | 7.198986 | 2.0 | 13.136 | 2 | 38.216 | 13.368 | 32.075 | 2 |
| 2025-05-20T21:58:00 | 54.372193 | 7.201420 | 2.0 | 13.193 | 2 | 38.114 | 13.305 | 32.032 | 2 |
| 2025-05-20T21:59:00 | 54.370638 | 7.203796 | 2.0 | 13.126 | 2 | 38.144 | 13.354 | 32.019 | 2 |
| 2025-05-20T22:00:00 | 54.369140 | 7.206194 | 2.0 | 13.086 | 2 | 38.034 | 13.286 | 31.973 | 2 |
| 2025-05-20T22:01:00 | 54.367702 | 7.208761 | 2.0 | 13.076 | 2 | 37.958 | 13.250 | 31.932 | 2 |
| 2025-05-20T22:02:00 | 54.366158 | 7.211177 | 2.0 | 13.089 | 2 | 37.930 | 13.240 | 31.915 | 2 |
| 2025-05-20T22:03:00 | 54.364586 | 7.213538 | 2.0 | 13.189 | 2 | 37.948 | 13.274 | 31.903 | 2 |
| 2025-05-20T22:04:00 | 54.363083 | 7.215996 | 2.0 | 13.090 | 2 | 38.006 | 13.335 | 31.906 | 2 |
| 2025-05-20T22:05:00 | 54.361592 | 7.218501 | 2.0 | 13.049 | 2 | 37.911 | 13.247 | 31.891 | 2 |
| 2025-05-20T22:06:00 | 54.360039 | 7.220916 | 2.0 | 13.060 | 2 | 37.861 | 13.215 | 31.871 | 2 |
| 2025-05-20T22:07:00 | 54.358480 | 7.223323 | 2.0 | 13.074 | 2 | 37.867 | 13.226 | 31.867 | 2 |
| 2025-05-20T22:08:00 | 54.356909 | 7.225750 | 2.0 | 13.078 | 2 | 37.881 | 13.238 | 31.870 | 2 |
| 2025-05-20T22:09:00 | 54.355422 | 7.228216 | 2.0 | 13.078 | 2 | 37.888 | 13.241 | 31.874 | 2 |
| 2025-05-20T22:10:00 | 54.353951 | 7.230669 | 2.0 | 13.083 | 2 | 37.894 | 13.240 | 31.881 | 2 |
| 2025-05-20T22:11:00 | 54.352393 | 7.233013 | 2.0 | 13.106 | 2 | 37.898 | 13.249 | 31.877 | 2 |
| 2025-05-20T22:12:00 | 54.350841 | 7.235349 | 2.0 | 13.138 | 2 | 37.943 | 13.272 | 31.900 | 2 |
| 2025-05-20T22:13:00 | 54.349362 | 7.237835 | 2.0 | 13.165 | 2 | 37.961 | 13.303 | 31.891 | 2 |
| 2025-05-20T22:14:00 | 54.347827 | 7.240264 | 2.0 | 13.185 | 2 | 37.955 | 13.328 | 31.864 | 2 |
| 2025-05-20T22:15:00 | 54.346295 | 7.242706 | 2.0 | 13.224 | 2 | 37.604 | 13.352 | 31.517 | 2 |
| 2025-05-20T22:16:00 | 54.344792 | 7.245228 | 2.0 | 13.281 | 2 | 38.109 | 13.395 | 31.952 | 2 |
| 2025-05-20T22:17:00 | 54.343195 | 7.247648 | 2.0 | 13.317 | 2 | 38.179 | 13.446 | 31.975 | 2 |
| 2025-05-20T22:18:00 | 54.341609 | 7.250098 | 2.0 | 13.350 | 2 | 37.851 | 13.478 | 31.642 | 2 |
| 2025-05-20T22:20:00 | 54.338479 | 7.254982 | 2.0 | 13.374 | 2 | 37.913 | 13.538 | 31.650 | 2 |
| 2025-05-20T22:21:00 | 54.336914 | 7.257463 | 2.0 | 13.352 | 2 | 37.670 | 13.529 | 31.432 | 2 |
| 2025-05-20T22:22:00 | 54.335361 | 7.259982 | 2.0 | 13.356 | 2 | 38.252 | 13.516 | 31.984 | 2 |
| 2025-05-20T22:23:00 | 54.333861 | 7.262580 | 2.0 | 13.305 | 2 | 38.277 | 13.506 | 32.016 | 2 |
| 2025-05-20T22:24:00 | 54.332234 | 7.265016 | 2.0 | 13.287 | 2 | 37.911 | 13.466 | 31.708 | 2 |
| 2025-05-20T22:25:00 | 54.330680 | 7.267519 | 2.0 | 13.265 | 2 | 38.039 | 13.447 | 31.843 | 2 |
| 2025-05-20T22:26:00 | 54.329147 | 7.270090 | 2.0 | 13.235 | 2 | 37.540 | 13.422 | 31.399 | 2 |
| 2025-05-20T22:27:00 | 54.327580 | 7.272579 | 2.0 | 13.214 | 2 | 37.761 | 13.394 | 31.628 | 2 |
| 2025-05-20T22:28:00 | 54.325964 | 7.274966 | 2.0 | 13.197 | 2 | 37.789 | 13.375 | 31.670 | 2 |
| 2025-05-20T22:29:00 | 54.324417 | 7.277489 | 2.0 | 13.166 | 2 | 37.641 | 13.354 | 31.549 | 2 |
| 2025-05-20T22:30:00 | 54.322783 | 7.279994 | 2.0 | 13.158 | 2 | 37.848 | 13.327 | 31.765 | 2 |
| 2025-05-20T22:31:00 | 54.321139 | 7.282556 | 2.0 | 13.178 | 2 | 37.886 | 13.324 | 31.803 | 2 |
| 2025-05-20T22:32:00 | 54.319526 | 7.285182 | 2.0 | 13.215 | 2 | 37.667 | 13.346 | 31.580 | 2 |
| 2025-05-20T22:33:00 | 54.317872 | 7.287726 | 2.0 | 13.237 | 2 | 37.818 | 13.379 | 31.694 | 2 |
| 2025-05-20T22:34:00 | 54.316323 | 7.290356 | 2.0 | 13.249 | 2 | 37.849 | 13.399 | 31.706 | 2 |
| 2025-05-20T22:35:00 | 54.314703 | 7.292865 | 2.0 | 13.253 | 2 | 37.855 | 13.410 | 31.703 | 2 |
| 2025-05-20T22:36:00 | 54.313091 | 7.295441 | 2.0 | 13.235 | 2 | 37.687 | 13.411 | 31.545 | 2 |
| 2025-05-20T22:37:00 | 54.311513 | 7.298011 | 2.0 | 13.221 | 2 | 37.833 | 13.393 | 31.696 | 2 |
| 2025-05-20T22:38:00 | 54.309981 | 7.300554 | 2.0 | 13.204 | 2 | 37.823 | 13.382 | 31.696 | 2 |
| 2025-05-20T22:39:00 | 54.308404 | 7.303028 | 2.0 | 13.174 | 2 | 37.744 | 13.359 | 31.641 | 2 |
| 2025-05-20T22:40:00 | 54.306777 | 7.305504 | 2.0 | 13.156 | 2 | 37.715 | 13.335 | 31.634 | 2 |
| 2025-05-20T22:41:00 | 54.305153 | 7.308049 | 2.0 | 13.106 | 2 | 37.832 | 13.312 | 31.763 | 2 |
| 2025-05-20T22:42:00 | 54.303618 | 7.310623 | 2.0 | 13.055 | 2 | 37.796 | 13.262 | 31.771 | 2 |
| 2025-05-20T22:43:00 | 54.302028 | 7.313183 | 2.0 | 13.037 | 2 | 37.735 | 13.220 | 31.749 | 2 |
| 2025-05-20T22:44:00 | 54.300378 | 7.315667 | 2.0 | 13.016 | 2 | 37.835 | 13.200 | 31.859 | 2 |
| 2025-05-20T22:45:00 | 54.298708 | 7.318117 | 2.0 | 12.988 | 2 | 37.611 | 13.174 | 31.671 | 2 |
| 2025-05-20T22:46:00 | 54.297091 | 7.320687 | 2.0 | 13.001 | 2 | 37.478 | 13.155 | 31.562 | 2 |
| 2025-05-20T22:47:00 | 54.295587 | 7.323341 | 2.0 | 12.978 | 2 | 37.499 | 13.161 | 31.577 | 2 |
| 2025-05-20T22:48:00 | 54.293994 | 7.325924 | 2.0 | 12.990 | 2 | 37.434 | 13.145 | 31.529 | 2 |
| 2025-05-20T22:49:00 | 54.292351 | 7.328440 | 2.0 | 13.015 | 2 | 37.504 | 13.158 | 31.584 | 2 |
| 2025-05-20T22:50:00 | 54.290750 | 7.331036 | 2.0 | 13.031 | 2 | 37.611 | 13.179 | 31.667 | 2 |
| 2025-05-20T22:51:00 | 54.289167 | 7.333613 | 2.0 | 13.038 | 2 | 37.595 | 13.194 | 31.639 | 2 |
| 2025-05-20T22:52:00 | 54.287551 | 7.336138 | 2.0 | 13.032 | 2 | 37.560 | 13.200 | 31.602 | 2 |
| 2025-05-20T22:53:00 | 54.285915 | 7.338592 | 2.0 | 13.029 | 2 | 37.568 | 13.195 | 31.613 | 2 |
| 2025-05-20T22:54:00 | 54.284329 | 7.341098 | 2.0 | 13.010 | 2 | 37.540 | 13.188 | 31.593 | 2 |
| 2025-05-20T22:55:00 | 54.282718 | 7.343687 | 2.0 | 12.994 | 2 | 37.648 | 13.171 | 31.708 | 2 |
| 2025-05-20T22:56:00 | 54.281132 | 7.346305 | 2.0 | 12.979 | 2 | 37.581 | 13.155 | 31.659 | 2 |
| 2025-05-20T22:57:00 | 54.279525 | 7.348815 | 2.0 | 12.974 | 2 | 37.562 | 13.141 | 31.653 | 2 |
| 2025-05-20T22:58:00 | 54.277925 | 7.351341 | 2.0 | 12.992 | 2 | 37.543 | 13.141 | 31.635 | 2 |
| 2025-05-20T22:59:00 | 54.276324 | 7.353815 | 2.0 | 12.987 | 2 | 37.579 | 13.156 | 31.656 | 2 |
| 2025-05-20T23:00:00 | 54.274818 | 7.356347 | 2.0 | 12.928 | 2 | 37.540 | 13.137 | 31.635 | 2 |
| 2025-05-20T23:01:00 | 54.273258 | 7.358959 | 2.0 | 12.863 | 2 | 37.532 | 13.083 | 31.673 | 2 |
| 2025-05-20T23:02:00 | 54.271568 | 7.361418 | 2.0 | 12.808 | 2 | 37.496 | 13.023 | 31.689 | 2 |
| 2025-05-20T23:03:00 | 54.269951 | 7.363917 | 2.0 | 12.774 | 2 | 37.427 | 12.969 | 31.669 | 2 |
| 2025-05-20T23:04:00 | 54.268388 | 7.366563 | 2.0 | 12.769 | 2 | 37.423 | 12.940 | 31.690 | 2 |
| 2025-05-20T23:05:00 | 54.266753 | 7.369178 | 2.0 | 12.790 | 2 | 37.436 | 12.938 | 31.704 | 2 |
| 2025-05-20T23:06:00 | 54.265115 | 7.371725 | 2.0 | 12.832 | 2 | 37.472 | 12.961 | 31.718 | 2 |
| 2025-05-20T23:07:00 | 54.263519 | 7.374248 | 2.0 | 12.859 | 2 | 37.521 | 13.000 | 31.732 | 2 |
| 2025-05-20T23:08:00 | 54.261924 | 7.376835 | 2.0 | 12.865 | 2 | 37.557 | 13.021 | 31.748 | 2 |
| 2025-05-20T23:09:00 | 54.260296 | 7.379323 | 2.0 | 12.873 | 2 | 37.592 | 13.029 | 31.774 | 2 |
| 2025-05-20T23:10:00 | 54.258673 | 7.381877 | 2.0 | 12.875 | 2 | 37.605 | 13.036 | 31.781 | 2 |
| 2025-05-20T23:11:00 | 54.257044 | 7.384558 | 2.0 | 12.875 | 2 | 37.637 | 13.040 | 31.807 | 2 |
| 2025-05-20T23:12:00 | 54.255409 | 7.387234 | 2.0 | 12.858 | 2 | 37.667 | 13.034 | 31.841 | 2 |
| 2025-05-20T23:13:00 | 54.253777 | 7.389852 | 2.0 | 12.837 | 2 | 37.644 | 13.016 | 31.834 | 2 |
| 2025-05-20T23:14:00 | 54.252115 | 7.392384 | 2.0 | 12.832 | 2 | 37.636 | 13.001 | 31.839 | 2 |
| 2025-05-20T23:15:00 | 54.250437 | 7.394906 | 2.0 | 12.829 | 2 | 37.664 | 12.996 | 31.870 | 2 |
| 2025-05-20T23:16:00 | 54.248868 | 7.397554 | 2.0 | 12.820 | 2 | 37.677 | 12.992 | 31.885 | 2 |
| 2025-05-20T23:17:00 | 54.247224 | 7.400187 | 2.0 | 12.807 | 2 | 37.677 | 12.982 | 31.894 | 2 |
| 2025-05-20T23:18:00 | 54.245548 | 7.402810 | 2.0 | 12.790 | 2 | 37.690 | 12.968 | 31.918 | 2 |
| 2025-05-20T23:19:00 | 54.243934 | 7.405445 | 2.0 | 12.774 | 2 | 37.686 | 12.952 | 31.928 | 2 |
| 2025-05-20T23:20:00 | 54.242289 | 7.408053 | 2.0 | 12.762 | 2 | 37.704 | 12.937 | 31.957 | 2 |
| 2025-05-20T23:21:00 | 54.240636 | 7.410605 | 2.0 | 12.749 | 2 | 37.719 | 12.925 | 31.982 | 2 |
| 2025-05-20T23:22:00 | 54.238996 | 7.413143 | 2.0 | 12.732 | 2 | 37.717 | 12.911 | 31.991 | 2 |
| 2025-05-20T23:23:00 | 54.237370 | 7.415725 | 2.0 | 12.714 | 2 | 37.711 | 12.895 | 31.999 | 2 |
| 2025-05-20T23:24:00 | 54.235766 | 7.418306 | 2.0 | 12.693 | 2 | 37.718 | 12.877 | 32.021 | 2 |
| 2025-05-20T23:25:00 | 54.234129 | 7.420914 | 2.0 | 12.673 | 2 | 37.728 | 12.856 | 32.048 | 2 |
| 2025-05-20T23:26:00 | 54.232403 | 7.423557 | 2.0 | 12.638 | 2 | 37.728 | 12.834 | 32.067 | 2 |
| 2025-05-20T23:27:00 | 54.230725 | 7.426262 | 2.0 | 12.599 | 2 | 37.726 | 12.800 | 32.094 | 2 |
| 2025-05-20T23:28:00 | 54.229077 | 7.428963 | 2.0 | 12.565 | 2 | 37.718 | 12.764 | 32.117 | 2 |
| 2025-05-20T23:29:00 | 54.227449 | 7.431626 | 2.0 | 12.529 | 2 | 37.713 | 12.728 | 32.143 | 2 |
| 2025-05-20T23:30:00 | 54.225785 | 7.434160 | 2.0 | 12.504 | 2 | 37.712 | 12.692 | 32.173 | 2 |
| 2025-05-20T23:31:00 | 54.224207 | 7.436807 | 2.0 | 12.464 | 2 | 37.724 | 12.664 | 32.208 | 2 |
| 2025-05-20T23:32:00 | 54.222576 | 7.439436 | 2.0 | 12.424 | 2 | 37.733 | 12.624 | 32.251 | 2 |
| 2025-05-20T23:33:00 | 54.220924 | 7.442007 | 2.0 | 12.384 | 2 | 37.742 | 12.588 | 32.290 | 2 |
| 2025-05-20T23:34:00 | 54.219236 | 7.444508 | 2.0 | 12.343 | 2 | 37.747 | 12.547 | 32.330 | 2 |
| 2025-05-20T23:35:00 | 54.217626 | 7.447098 | 2.0 | 12.307 | 2 | 37.746 | 12.506 | 32.365 | 2 |
| 2025-05-20T23:36:00 | 54.216010 | 7.449639 | 2.0 | 12.304 | 2 | 37.748 | 12.476 | 32.392 | 2 |
| 2025-05-20T23:37:00 | 54.214425 | 7.452235 | 2.0 | 12.310 | 2 | 37.765 | 12.475 | 32.409 | 2 |
| 2025-05-20T23:38:00 | 54.212804 | 7.454750 | 2.0 | 12.320 | 2 | 37.789 | 12.477 | 32.431 | 2 |
| 2025-05-20T23:39:00 | 54.211164 | 7.457256 | 2.0 | 12.343 | 2 | 37.816 | 12.490 | 32.445 | 2 |
| 2025-05-20T23:40:00 | 54.209566 | 7.459854 | 2.0 | 12.389 | 2 | 37.863 | 12.517 | 32.467 | 2 |
| 2025-05-20T23:41:00 | 54.207956 | 7.462433 | 2.0 | 12.476 | 2 | 37.938 | 12.566 | 32.496 | 2 |
| 2025-05-20T23:42:00 | 54.206365 | 7.465029 | 2.0 | 12.554 | 2 | 38.042 | 12.650 | 32.523 | 2 |
| 2025-05-20T23:43:00 | 54.204731 | 7.467528 | 2.0 | 12.643 | 2 | 38.151 | 12.718 | 32.568 | 2 |
| 2025-05-20T23:44:00 | 54.203139 | 7.470046 | 2.0 | 12.717 | 2 | 38.254 | 12.819 | 32.578 | 2 |
| 2025-05-20T23:45:00 | 54.201549 | 7.472618 | 2.0 | 12.722 | 2 | 38.314 | 12.880 | 32.582 | 2 |
| 2025-05-20T23:46:00 | 54.199931 | 7.475202 | 2.0 | 12.684 | 2 | 38.327 | 12.881 | 32.594 | 2 |
| 2025-05-20T23:47:00 | 54.198286 | 7.477802 | 2.0 | 12.686 | 2 | 38.317 | 12.845 | 32.615 | 2 |
| 2025-05-20T23:48:00 | 54.196658 | 7.480403 | 2.0 | 12.708 | 2 | 38.320 | 12.850 | 32.614 | 2 |
| 2025-05-20T23:49:00 | 54.195025 | 7.482972 | 2.0 | 12.666 | 2 | 38.344 | 12.865 | 32.624 | 2 |
| 2025-05-20T23:50:00 | 54.193387 | 7.485555 | 2.0 | 12.759 | 2 | 38.343 | 12.841 | 32.644 | 2 |
| 2025-05-20T23:51:00 | 54.191727 | 7.488194 | 2.0 | 12.825 | 2 | 38.398 | 12.926 | 32.622 | 2 |
| 2025-05-20T23:52:00 | 54.190063 | 7.490876 | 2.0 | 12.876 | 2 | 38.458 | 12.990 | 32.624 | 2 |
| 2025-05-20T23:53:00 | 54.188335 | 7.493470 | 2.0 | 12.912 | 2 | 38.519 | 13.042 | 32.637 | 2 |
| 2025-05-20T23:54:00 | 54.186680 | 7.496183 | 2.0 | 12.922 | 2 | 38.557 | 13.071 | 32.648 | 2 |
| 2025-05-20T23:55:00 | 54.185005 | 7.498836 | 2.0 | 12.926 | 2 | 38.574 | 13.081 | 32.655 | 2 |
| 2025-05-20T23:56:00 | 54.183392 | 7.501608 | 2.0 | 12.909 | 2 | 38.585 | 13.083 | 32.664 | 2 |
| 2025-05-20T23:57:00 | 54.181664 | 7.504184 | 2.0 | 12.936 | 2 | 38.579 | 13.076 | 32.664 | 2 |
| 2025-05-20T23:58:00 | 54.179947 | 7.506747 | 2.0 | 12.958 | 2 | 38.588 | 13.103 | 32.649 | 2 |
| 2025-05-20T23:59:00 | 54.178293 | 7.509380 | 2.0 | 12.976 | 2 | 38.589 | 13.122 | 32.634 | 2 |
| 2025-05-21T00:00:00 | 54.176684 | 7.512058 | 2.0 | 12.945 | 2 | 38.594 | 13.133 | 32.629 | 2 |
| 2025-05-21T00:01:00 | 54.175020 | 7.514697 | 2.0 | 12.876 | 2 | 38.564 | 13.097 | 32.632 | 2 |
| 2025-05-21T00:02:00 | 54.173364 | 7.517381 | 2.0 | 12.853 | 2 | 38.517 | 13.036 | 32.640 | 2 |
| 2025-05-21T00:03:00 | 54.171692 | 7.520060 | 2.0 | 12.851 | 2 | 38.511 | 13.018 | 32.650 | 2 |
| 2025-05-21T00:04:00 | 54.169937 | 7.522570 | 2.0 | 12.827 | 2 | 38.513 | 13.011 | 32.658 | 2 |
| 2025-05-21T00:05:00 | 54.168286 | 7.525324 | 2.0 | 12.754 | 2 | 38.501 | 12.979 | 32.674 | 2 |
| 2025-05-21T00:06:00 | 54.166753 | 7.528259 | 2.0 | 12.704 | 2 | 38.462 | 12.911 | 32.696 | 2 |
| 2025-05-21T00:07:00 | 54.165051 | 7.530908 | 2.0 | 12.658 | 2 | 38.439 | 12.864 | 32.715 | 2 |
| 2025-05-21T00:08:00 | 54.163272 | 7.533386 | 2.0 | 12.637 | 2 | 38.426 | 12.822 | 32.739 | 2 |
| 2025-05-21T00:09:00 | 54.161577 | 7.536033 | 2.0 | 12.632 | 2 | 38.420 | 12.802 | 32.750 | 2 |
| 2025-05-21T00:10:00 | 54.159913 | 7.538763 | 2.0 | 12.625 | 2 | 38.419 | 12.797 | 32.754 | 2 |
| 2025-05-21T00:11:00 | 54.158198 | 7.541388 | 2.0 | 12.604 | 2 | 38.415 | 12.786 | 32.760 | 2 |
| 2025-05-21T00:12:00 | 54.156732 | 7.544262 | 2.0 | 12.559 | 2 | 38.404 | 12.762 | 32.770 | 2 |
| 2025-05-21T00:13:00 | 54.155860 | 7.547716 | 2.0 | 12.537 | 2 | 38.384 | 12.724 | 32.784 | 2 |
| 2025-05-21T00:14:00 | 54.154764 | 7.551113 | 2.0 | 12.530 | 2 | 38.367 | 12.698 | 32.790 | 2 |
| 2025-05-21T00:15:00 | 54.153544 | 7.554443 | 2.0 | 12.538 | 2 | 38.364 | 12.703 | 32.783 | 2 |
| 2025-05-21T00:16:00 | 54.152515 | 7.558013 | 2.0 | 12.537 | 2 | 38.356 | 12.701 | 32.777 | 2 |
| 2025-05-21T00:17:00 | 54.151439 | 7.561531 | 2.0 | 12.523 | 2 | 38.352 | 12.696 | 32.778 | 2 |
| 2025-05-21T00:18:00 | 54.150308 | 7.564978 | 2.0 | 12.579 | 2 | 38.350 | 12.699 | 32.773 | 2 |
| 2025-05-21T00:19:00 | 54.149234 | 7.568531 | 2.0 | 12.624 | 2 | 38.372 | 12.750 | 32.750 | 2 |
| 2025-05-21T00:20:00 | 54.148120 | 7.572008 | 2.0 | 12.662 | 2 | 38.401 | 12.792 | 32.741 | 2 |
| 2025-05-21T00:21:00 | 54.147050 | 7.575568 | 2.0 | 12.656 | 2 | 38.425 | 12.819 | 32.740 | 2 |
| 2025-05-21T00:22:00 | 54.145942 | 7.579067 | 2.0 | 12.697 | 2 | 38.428 | 12.824 | 32.739 | 2 |
| 2025-05-21T00:23:00 | 54.144912 | 7.582699 | 2.0 | 12.702 | 2 | 38.439 | 12.861 | 32.717 | 2 |
| 2025-05-21T00:24:00 | 54.143809 | 7.586291 | 2.0 | 12.749 | 2 | 38.421 | 12.868 | 32.694 | 2 |
| 2025-05-21T00:25:00 | 54.142724 | 7.589941 | 2.0 | 12.791 | 2 | 38.420 | 12.918 | 32.650 | 2 |
| 2025-05-21T00:26:00 | 54.141615 | 7.593534 | 2.0 | 12.813 | 2 | 38.439 | 12.953 | 32.638 | 2 |
| 2025-05-21T00:27:00 | 54.140468 | 7.597177 | 2.0 | 12.840 | 2 | 38.452 | 12.975 | 32.631 | 2 |
| 2025-05-21T00:28:00 | 54.139272 | 7.600711 | 2.0 | 12.858 | 2 | 38.460 | 13.004 | 32.614 | 2 |
| 2025-05-21T00:29:00 | 54.138204 | 7.604366 | 2.0 | 12.850 | 2 | 38.454 | 13.017 | 32.597 | 2 |
| 2025-05-21T00:30:00 | 54.137146 | 7.608053 | 2.0 | 12.857 | 2 | 38.434 | 13.011 | 32.583 | 2 |
| 2025-05-21T00:31:00 | 54.135992 | 7.611699 | 2.0 | 12.865 | 2 | 38.442 | 13.019 | 32.584 | 2 |
| 2025-05-21T00:32:00 | 54.134843 | 7.615350 | 2.0 | 12.918 | 2 | 38.447 | 13.037 | 32.573 | 2 |
| 2025-05-21T00:33:00 | 54.133755 | 7.619032 | 2.0 | 12.961 | 2 | 38.464 | 13.083 | 32.550 | 2 |
| 2025-05-21T00:34:00 | 54.132632 | 7.622659 | 2.0 | 13.010 | 2 | 38.481 | 13.127 | 32.528 | 2 |
| 2025-05-21T00:35:00 | 54.131526 | 7.626277 | 2.0 | 13.080 | 2 | 38.512 | 13.182 | 32.510 | 2 |
| 2025-05-21T00:36:00 | 54.130417 | 7.629894 | 2.0 | 13.120 | 2 | 38.560 | 13.246 | 32.500 | 2 |
| 2025-05-21T00:37:00 | 54.129360 | 7.633463 | 2.0 | 13.123 | 2 | 38.596 | 13.278 | 32.507 | 2 |
| 2025-05-21T00:38:00 | 54.128303 | 7.636942 | 2.0 | 13.099 | 2 | 38.598 | 13.276 | 32.510 | 2 |
| 2025-05-21T00:39:00 | 54.127178 | 7.640468 | 2.0 | 13.067 | 2 | 38.588 | 13.251 | 32.522 | 2 |
| 2025-05-21T00:40:00 | 54.126062 | 7.644044 | 2.0 | 13.055 | 2 | 38.571 | 13.229 | 32.525 | 2 |
| 2025-05-21T00:41:00 | 54.125007 | 7.647646 | 2.0 | 13.020 | 2 | 38.353 | 13.209 | 32.337 | 2 |
| 2025-05-21T00:42:00 | 54.123895 | 7.651256 | 2.0 | 13.025 | 2 | 38.391 | 13.184 | 32.394 | 2 |
| 2025-05-21T00:43:00 | 54.122711 | 7.654832 | 2.0 | 13.018 | 2 | 38.539 | 13.187 | 32.531 | 2 |
| 2025-05-21T00:44:00 | 54.121596 | 7.658450 | 2.0 | 12.954 | 2 | 38.510 | 13.159 | 32.528 | 2 |
| 2025-05-21T00:45:00 | 54.120574 | 7.662094 | 2.0 | 12.882 | 2 | 38.389 | 13.109 | 32.457 | 2 |
| 2025-05-21T00:46:00 | 54.119462 | 7.665628 | 2.0 | 12.881 | 2 | 38.180 | 13.050 | 32.310 | 2 |
| 2025-05-21T00:47:00 | 54.118408 | 7.668942 | 2.0 | 12.867 | 2 | 38.098 | 13.046 | 32.236 | 2 |
| 2025-05-21T00:48:00 | 54.117373 | 7.672349 | 2.0 | 12.777 | 2 | 37.826 | 13.009 | 32.011 | 2 |
| 2025-05-21T00:49:00 | 54.116282 | 7.676098 | 2.0 | 12.733 | 2 | 37.770 | 12.935 | 32.021 | 2 |
| 2025-05-21T00:50:00 | 54.114970 | 7.680319 | 2.0 | 12.723 | 2 | 37.206 | 12.889 | 31.528 | 2 |
| 2025-05-21T00:51:00 | 54.113545 | 7.684686 | 2.0 | 12.726 | 2 | 37.320 | 12.888 | 31.636 | 2 |
| 2025-05-21T00:52:00 | 54.112158 | 7.689099 | 2.0 | 12.727 | 2 | 37.257 | 12.895 | 31.571 | 2 |
| 2025-05-21T00:53:00 | 54.110865 | 7.693618 | 2.0 | 12.740 | 2 | 37.110 | 12.891 | 31.436 | 2 |
| 2025-05-21T00:54:00 | 54.109461 | 7.698032 | 2.0 | 12.765 | 2 | 37.183 | 12.910 | 31.489 | 2 |
| 2025-05-21T00:55:00 | 54.108116 | 7.702496 | 2.0 | 12.824 | 2 | 37.541 | 12.939 | 31.802 | 2 |
| 2025-05-21T00:56:00 | 54.106667 | 7.706914 | 2.0 | 12.856 | 2 | 37.221 | 12.992 | 31.456 | 2 |
| 2025-05-21T00:57:00 | 54.105346 | 7.711391 | 2.0 | 12.853 | 2 | 37.076 | 13.020 | 31.297 | 2 |
| 2025-05-21T00:58:00 | 54.104008 | 7.715901 | 2.0 | 12.790 | 2 | 36.956 | 13.008 | 31.194 | 2 |
| 2025-05-21T00:59:00 | 54.102587 | 7.720359 | 2.0 | 12.717 | 2 | 37.146 | 12.937 | 31.432 | 2 |
| 2025-05-21T01:00:00 | 54.101251 | 7.724846 | 2.0 | 12.746 | 2 | 37.189 | 12.888 | 31.513 | 2 |
| 2025-05-21T01:01:00 | 54.099775 | 7.729204 | 2.0 | 12.837 | 2 | 37.285 | 12.937 | 31.562 | 2 |
| 2025-05-21T01:02:00 | 54.098425 | 7.733665 | 2.0 | 12.903 | 2 | 37.182 | 13.010 | 31.405 | 2 |
| 2025-05-21T01:03:00 | 54.097137 | 7.738167 | 2.0 | 12.930 | 2 | 37.236 | 13.070 | 31.406 | 2 |
| 2025-05-21T01:04:00 | 54.095748 | 7.742610 | 2.0 | 12.917 | 2 | 37.358 | 13.092 | 31.502 | 2 |
| 2025-05-21T01:05:00 | 54.094357 | 7.747036 | 2.0 | 12.880 | 2 | 37.105 | 13.074 | 31.280 | 2 |
| 2025-05-21T01:06:00 | 54.093057 | 7.751537 | 2.0 | 12.823 | 2 | 37.202 | 13.035 | 31.403 | 2 |
| 2025-05-21T01:07:00 | 54.091689 | 7.755928 | 2.0 | 12.822 | 2 | 37.088 | 12.981 | 31.341 | 2 |
| 2025-05-21T01:08:00 | 54.090285 | 7.760282 | 2.0 | 12.779 | 2 | 36.973 | 12.984 | 31.230 | 2 |
| 2025-05-21T01:09:00 | 54.088992 | 7.764720 | 2.0 | 12.856 | 2 | 37.092 | 12.957 | 31.364 | 2 |
| 2025-05-21T01:10:00 | 54.087646 | 7.769076 | 2.0 | 12.870 | 2 | 36.994 | 13.021 | 31.219 | 2 |
| 2025-05-21T01:11:00 | 54.086330 | 7.773397 | 2.0 | 12.920 | 2 | 37.094 | 13.044 | 31.294 | 2 |
| 2025-05-21T01:12:00 | 54.085005 | 7.777724 | 2.0 | 12.947 | 2 | 37.277 | 13.081 | 31.435 | 2 |
| 2025-05-21T01:13:00 | 54.083616 | 7.781982 | 2.0 | 12.985 | 2 | 37.189 | 13.118 | 31.322 | 2 |
| 2025-05-21T01:14:00 | 54.082364 | 7.786294 | 2.0 | 12.995 | 2 | 37.167 | 13.150 | 31.275 | 2 |
| 2025-05-21T01:15:00 | 54.081031 | 7.790572 | 2.0 | 12.956 | 2 | 37.005 | 13.151 | 31.123 | 2 |
| 2025-05-21T01:16:00 | 54.079734 | 7.794932 | 2.0 | 12.949 | 2 | 36.965 | 13.115 | 31.115 | 2 |
| 2025-05-21T01:17:00 | 54.078302 | 7.799151 | 2.0 | 12.960 | 2 | 36.983 | 13.118 | 31.129 | 2 |
| 2025-05-21T01:18:00 | 54.077032 | 7.803495 | 2.0 | 12.963 | 2 | 36.988 | 13.122 | 31.131 | 2 |
| 2025-05-21T01:19:00 | 54.075730 | 7.807864 | 2.0 | 13.022 | 2 | 36.797 | 13.140 | 30.937 | 2 |
| 2025-05-21T01:20:00 | 54.074398 | 7.812181 | 2.0 | 13.242 | 2 | 36.913 | 13.203 | 30.994 | 2 |
| 2025-05-21T01:21:00 | 54.073088 | 7.816438 | 2.0 | 13.562 | 2 | 37.080 | 13.457 | 30.943 | 2 |
| 2025-05-21T01:22:00 | 54.071716 | 7.820646 | 2.0 | 13.624 | 2 | 37.411 | 13.703 | 31.050 | 2 |
| 2025-05-21T01:23:00 | 54.070492 | 7.824928 | 2.0 | 13.661 | 2 | 37.365 | 13.786 | 30.941 | 2 |
| 2025-05-21T01:24:00 | 54.069204 | 7.829230 | 2.0 | 13.613 | 2 | 37.342 | 13.802 | 30.907 | 2 |
| 2025-05-21T01:25:00 | 54.067893 | 7.833470 | 2.0 | 13.706 | 2 | 37.286 | 13.779 | 30.874 | 2 |
| 2025-05-21T01:26:00 | 54.066597 | 7.837704 | 2.0 | 13.732 | 2 | 37.336 | 13.863 | 30.852 | 2 |
| 2025-05-21T01:27:00 | 54.065216 | 7.841806 | 2.0 | 13.695 | 2 | 37.261 | 13.882 | 30.768 | 2 |
| 2025-05-21T01:28:00 | 54.063542 | 7.845366 | 2.0 | 13.663 | 2 | 37.207 | 13.845 | 30.748 | 2 |
| 2025-05-21T01:29:00 | 54.061070 | 7.846417 | 2.0 | 13.655 | 2 | 37.146 | 13.825 | 30.708 | 2 |
| 2025-05-21T01:30:00 | 54.058579 | 7.847982 | 2.0 | 13.590 | 2 | 37.206 | 13.800 | 30.783 | 2 |
| 2025-05-21T01:31:00 | 54.056217 | 7.850468 | 2.0 | 13.618 | 2 | 37.183 | 13.753 | 30.800 | 2 |
| 2025-05-21T01:32:00 | 54.053741 | 7.852820 | 2.0 | 13.667 | 2 | 37.203 | 13.785 | 30.792 | 2 |
| 2025-05-21T01:33:00 | 54.051260 | 7.855169 | 2.0 | 13.541 | 2 | 37.295 | 13.818 | 30.851 | 2 |
| 2025-05-21T01:34:00 | 54.048834 | 7.857631 | 2.0 | 13.482 | 2 | 37.172 | 13.681 | 30.847 | 2 |
| 2025-05-21T01:35:00 | 54.046389 | 7.859994 | 2.0 | 13.395 | 2 | 37.046 | 13.632 | 30.771 | 2 |
| 2025-05-21T01:36:00 | 54.043950 | 7.862400 | 2.0 | 13.329 | 2 | 36.966 | 13.551 | 30.762 | 2 |
| 2025-05-21T01:37:00 | 54.041488 | 7.864869 | 2.0 | 13.292 | 2 | 36.918 | 13.496 | 30.762 | 2 |
| 2025-05-21T01:38:00 | 54.039025 | 7.867259 | 2.0 | 13.319 | 2 | 36.867 | 13.463 | 30.741 | 2 |
| 2025-05-21T01:39:00 | 54.036567 | 7.869650 | 2.0 | 13.337 | 2 | 36.861 | 13.484 | 30.718 | 2 |
| 2025-05-21T01:40:00 | 54.034081 | 7.872016 | 2.0 | 13.340 | 2 | 36.855 | 13.501 | 30.699 | 2 |
| 2025-05-21T01:41:00 | 54.031516 | 7.873949 | 2.0 | 13.287 | 2 | 36.850 | 13.501 | 30.695 | 2 |
| 2025-05-21T01:42:00 | 54.028813 | 7.875202 | 2.0 | 13.243 | 2 | 36.822 | 13.446 | 30.713 | 2 |
| 2025-05-21T01:43:00 | 54.026142 | 7.876536 | 2.0 | 13.069 | 2 | 36.810 | 13.374 | 30.760 | 2 |
| 2025-05-21T01:44:00 | 54.023489 | 7.877776 | 2.0 | 13.017 | 2 | 36.755 | 13.227 | 30.827 | 2 |
| 2025-05-21T01:45:00 | 54.020835 | 7.879121 | 2.0 | 12.995 | 2 | 36.729 | 13.185 | 30.837 | 2 |
| 2025-05-21T01:46:00 | 54.018201 | 7.880409 | 2.0 | 12.944 | 2 | 36.725 | 13.148 | 30.864 | 2 |
| 2025-05-21T01:47:00 | 54.015543 | 7.881732 | 2.0 | 12.935 | 2 | 36.724 | 13.112 | 30.892 | 2 |
| 2025-05-21T01:48:00 | 54.012868 | 7.882997 | 2.0 | 12.908 | 2 | 36.714 | 13.094 | 30.897 | 2 |
| 2025-05-21T01:49:00 | 54.010193 | 7.884295 | 2.0 | 12.878 | 2 | 36.717 | 13.074 | 30.916 | 2 |
| 2025-05-21T01:50:00 | 54.007516 | 7.885641 | 2.0 | 12.862 | 2 | 36.712 | 13.037 | 30.942 | 2 |
| 2025-05-21T01:51:00 | 54.004895 | 7.886940 | 2.0 | 12.830 | 2 | 36.710 | 13.026 | 30.949 | 2 |
| 2025-05-21T01:52:00 | 54.002241 | 7.888189 | 2.0 | 12.787 | 2 | 36.707 | 12.991 | 30.975 | 2 |
| 2025-05-21T01:53:00 | 53.999571 | 7.889571 | 2.0 | 12.706 | 2 | 36.698 | 12.930 | 31.016 | 2 |
| 2025-05-21T01:54:00 | 53.996875 | 7.890996 | 2.0 | 12.657 | 2 | 36.692 | 12.867 | 31.062 | 2 |
| 2025-05-21T01:55:00 | 53.994142 | 7.892250 | 2.0 | 12.675 | 2 | 36.687 | 12.831 | 31.087 | 2 |
| 2025-05-21T01:56:00 | 53.991412 | 7.893541 | 2.0 | 12.722 | 2 | 36.729 | 12.847 | 31.113 | 2 |
| 2025-05-21T01:57:00 | 53.988699 | 7.894969 | 2.0 | 12.769 | 2 | 36.766 | 12.893 | 31.110 | 2 |
| 2025-05-21T01:58:00 | 53.985978 | 7.896202 | 2.0 | 12.858 | 2 | 36.810 | 12.948 | 31.107 | 2 |
| 2025-05-21T01:59:00 | 53.983277 | 7.897563 | 2.0 | 12.877 | 2 | 36.856 | 13.022 | 31.089 | 2 |
| 2025-05-21T02:00:00 | 53.980560 | 7.898916 | 2.0 | 12.915 | 2 | 36.901 | 13.044 | 31.113 | 2 |
| 2025-05-21T02:01:00 | 53.977856 | 7.900280 | 2.0 | 12.956 | 2 | 36.957 | 13.084 | 31.133 | 2 |
| 2025-05-21T02:02:00 | 53.975131 | 7.901634 | 2.0 | 13.018 | 2 | 36.984 | 13.123 | 31.126 | 2 |
| 2025-05-21T02:03:00 | 53.972415 | 7.902841 | 2.0 | 13.049 | 2 | 37.011 | 13.183 | 31.102 | 2 |
| 2025-05-21T02:04:00 | 53.969675 | 7.904189 | 2.0 | 13.081 | 2 | 37.025 | 13.214 | 31.090 | 2 |
| 2025-05-21T02:05:00 | 53.966942 | 7.905597 | 2.0 | 13.077 | 2 | 37.040 | 13.243 | 31.080 | 2 |
| 2025-05-21T02:06:00 | 53.964155 | 7.906683 | 2.0 | 13.042 | 2 | 37.033 | 13.233 | 31.082 | 2 |
| 2025-05-21T02:07:00 | 53.961362 | 7.907561 | 2.0 | 13.015 | 2 | 37.021 | 13.201 | 31.097 | 2 |
| 2025-05-21T02:08:00 | 53.958591 | 7.908474 | 2.0 | 12.938 | 2 | 37.004 | 13.164 | 31.111 | 2 |
| 2025-05-21T02:09:00 | 53.955853 | 7.909388 | 2.0 | 12.914 | 2 | 36.974 | 13.104 | 31.132 | 2 |
| 2025-05-21T02:10:00 | 53.953101 | 7.910282 | 2.0 | 12.868 | 2 | 36.960 | 13.070 | 31.147 | 2 |
| 2025-05-21T02:11:00 | 53.950351 | 7.911218 | 2.0 | 12.881 | 2 | 36.955 | 13.038 | 31.169 | 2 |
| 2025-05-21T02:12:00 | 53.947566 | 7.912144 | 2.0 | 12.896 | 2 | 36.960 | 13.049 | 31.164 | 2 |
| 2025-05-21T02:13:00 | 53.944799 | 7.913070 | 2.0 | 12.923 | 2 | 36.994 | 13.066 | 31.182 | 2 |
| 2025-05-21T02:14:00 | 53.942005 | 7.914015 | 2.0 | 12.947 | 2 | 37.028 | 13.092 | 31.193 | 2 |
| 2025-05-21T02:15:00 | 53.939188 | 7.914902 | 2.0 | 12.963 | 2 | 37.052 | 13.113 | 31.198 | 2 |
| 2025-05-21T02:16:00 | 53.936630 | 7.916997 | 2.0 | 12.959 | 2 | 36.913 | 13.127 | 31.056 | 2 |
| 2025-05-21T02:17:00 | 53.935828 | 7.921511 | 2.0 | 12.916 | 2 | 36.707 | 13.115 | 30.874 | 2 |
| 2025-05-21T02:18:00 | 53.935168 | 7.926241 | 2.0 | 12.896 | 2 | 36.802 | 13.077 | 30.993 | 2 |
| 2025-05-21T02:19:00 | 53.934228 | 7.930614 | 2.0 | 12.889 | 2 | 36.943 | 13.061 | 31.139 | 2 |
| 2025-05-21T02:20:00 | 53.933382 | 7.934671 | 2.0 | 12.870 | 2 | 36.864 | 13.051 | 31.073 | 2 |
| 2025-05-21T02:21:00 | 53.932530 | 7.938529 | 2.0 | 12.859 | 2 | 36.901 | 13.033 | 31.122 | 2 |
| 2025-05-21T02:22:00 | 53.931638 | 7.942274 | 2.0 | 12.840 | 2 | 36.727 | 13.021 | 30.969 | 2 |
| 2025-05-21T02:23:00 | 53.930823 | 7.946162 | 2.0 | 12.832 | 2 | 36.735 | 13.005 | 30.989 | 2 |
| 2025-05-21T02:24:00 | 53.929844 | 7.950104 | 2.0 | 12.820 | 2 | 36.839 | 12.994 | 31.096 | 2 |
| 2025-05-21T02:25:00 | 53.928692 | 7.954019 | 2.0 | 12.816 | 2 | 36.901 | 12.984 | 31.162 | 2 |
| 2025-05-21T02:26:00 | 53.927169 | 7.957562 | 2.0 | 12.805 | 2 | 36.897 | 12.977 | 31.164 | 2 |
| 2025-05-21T02:27:00 | 53.925614 | 7.961101 | 2.0 | 12.792 | 2 | 36.872 | 12.967 | 31.149 | 2 |
| 2025-05-21T02:28:00 | 53.923950 | 7.964497 | 2.0 | 12.781 | 2 | 36.979 | 12.952 | 31.262 | 2 |
| 2025-05-21T02:29:00 | 53.922145 | 7.967712 | 2.0 | 12.788 | 2 | 36.844 | 12.948 | 31.138 | 2 |
| 2025-05-21T02:30:00 | 53.920395 | 7.971063 | 2.0 | 12.731 | 2 | 36.849 | 12.939 | 31.151 | 2 |
| 2025-05-21T02:31:00 | 53.918647 | 7.974420 | 2.0 | 12.719 | 2 | 36.857 | 12.870 | 31.215 | 2 |
| 2025-05-21T02:32:00 | 53.916919 | 7.977802 | 2.0 | 12.637 | 2 | 36.905 | 12.867 | 31.263 | 2 |
| 2025-05-21T02:33:00 | 53.915295 | 7.981249 | 2.0 | 12.550 | 2 | 36.893 | 12.788 | 31.317 | 2 |
| 2025-05-21T02:34:00 | 53.914056 | 7.985087 | 2.0 | 12.447 | 2 | 36.891 | 12.694 | 31.393 | 2 |
| 2025-05-21T02:35:00 | 53.912615 | 7.988667 | 2.0 | 12.432 | 2 | 36.904 | 12.621 | 31.466 | 2 |
| 2025-05-21T02:36:00 | 53.911173 | 7.992294 | 2.0 | 12.358 | 2 | 36.927 | 12.602 | 31.504 | 2 |
| 2025-05-21T02:37:00 | 53.909865 | 7.996016 | 2.0 | 12.345 | 2 | 36.942 | 12.523 | 31.584 | 2 |
| 2025-05-21T02:38:00 | 53.908483 | 7.999680 | 2.0 | 12.224 | 2 | 36.964 | 12.480 | 31.641 | 2 |
| 2025-05-21T02:39:00 | 53.907087 | 8.003342 | 2.0 | 12.221 | 2 | 36.955 | 12.398 | 31.702 | 2 |
| 2025-05-21T02:40:00 | 53.905733 | 8.007056 | 2.0 | 12.186 | 2 | 36.960 | 12.382 | 31.720 | 2 |
| 2025-05-21T02:41:00 | 53.904372 | 8.010780 | 2.0 | 12.209 | 2 | 36.962 | 12.360 | 31.741 | 2 |
| 2025-05-21T02:42:00 | 53.902997 | 8.014522 | 2.0 | 12.080 | 2 | 36.988 | 12.364 | 31.762 | 2 |
| 2025-05-21T02:43:00 | 53.901663 | 8.018304 | 2.0 | 12.123 | 2 | 37.037 | 12.263 | 31.895 | 2 |
| 2025-05-21T02:44:00 | 53.900287 | 8.021969 | 2.0 | 11.849 | 2 | 37.027 | 12.260 | 31.888 | 2 |
| 2025-05-21T02:45:00 | 53.898951 | 8.025607 | 2.0 | 11.792 | 2 | 37.044 | 12.006 | 32.122 | 2 |
| 2025-05-21T02:46:00 | 53.897674 | 8.029248 | 2.0 | 11.794 | 2 | 37.065 | 11.968 | 32.175 | 2 |
| 2025-05-21T02:47:00 | 53.896391 | 8.032888 | 2.0 | 11.815 | 2 | 37.055 | 11.974 | 32.160 | 2 |
| 2025-05-21T02:48:00 | 53.895443 | 8.036781 | 2.0 | 11.831 | 2 | 37.075 | 11.990 | 32.165 | 2 |
| 2025-05-21T02:49:00 | 53.894470 | 8.040645 | 2.0 | 11.842 | 2 | 37.077 | 12.002 | 32.157 | 2 |
| 2025-05-21T02:50:00 | 53.893488 | 8.044638 | 2.0 | 11.863 | 2 | 37.090 | 12.016 | 32.157 | 2 |
| 2025-05-21T02:51:00 | 53.892437 | 8.048662 | 2.0 | 11.881 | 2 | 37.124 | 12.034 | 32.175 | 2 |
| 2025-05-21T02:52:00 | 53.891442 | 8.052693 | 2.0 | 11.896 | 2 | 37.137 | 12.053 | 32.171 | 2 |
| 2025-05-21T02:53:00 | 53.890397 | 8.056721 | 2.0 | 11.915 | 2 | 37.158 | 12.066 | 32.180 | 2 |
| 2025-05-21T02:54:00 | 53.889377 | 8.060765 | 2.0 | 11.955 | 2 | 37.162 | 12.087 | 32.166 | 2 |
| 2025-05-21T02:55:00 | 53.888299 | 8.064823 | 2.0 | 12.011 | 2 | 37.213 | 12.134 | 32.174 | 2 |
| 2025-05-21T02:56:00 | 53.887368 | 8.068898 | 2.0 | 11.990 | 2 | 37.253 | 12.176 | 32.176 | 2 |
| 2025-05-21T02:57:00 | 53.886279 | 8.072975 | 2.0 | 12.018 | 2 | 37.222 | 12.163 | 32.158 | 2 |
| 2025-05-21T02:58:00 | 53.885187 | 8.077179 | 2.0 | 12.091 | 2 | 37.241 | 12.199 | 32.145 | 2 |
| 2025-05-21T02:59:00 | 53.884137 | 8.081685 | 2.0 | 12.192 | 2 | 37.304 | 12.267 | 32.147 | 2 |
| 2025-05-21T03:00:00 | 53.882964 | 8.086275 | 2.0 | 12.362 | 2 | 37.351 | 12.381 | 32.095 | 2 |
| 2025-05-21T03:01:00 | 53.881788 | 8.090948 | 2.0 | 12.513 | 2 | 37.454 | 12.543 | 32.054 | 2 |
| 2025-05-21T03:02:00 | 53.880606 | 8.095646 | 2.0 | 12.664 | 2 | 37.566 | 12.698 | 32.029 | 2 |
| 2025-05-21T03:03:00 | 53.879479 | 8.100205 | 2.0 | 12.754 | 2 | 37.659 | 12.828 | 32.007 | 2 |
| 2025-05-21T03:04:00 | 53.878278 | 8.104705 | 2.0 | 12.836 | 2 | 37.700 | 12.921 | 31.967 | 2 |
| 2025-05-21T03:05:00 | 53.877052 | 8.109048 | 2.0 | 12.931 | 2 | 37.725 | 13.005 | 31.920 | 2 |
| 2025-05-21T03:06:00 | 53.874703 | 8.111120 | 2.0 | 12.933 | 2 | 37.744 | 13.084 | 31.871 | 2 |
| 2025-05-21T03:07:00 | 53.872037 | 8.112161 | 2.0 | 12.886 | 2 | 37.761 | 13.082 | 31.889 | 2 |
| 2025-05-21T03:08:00 | 53.869336 | 8.113554 | 2.0 | 12.862 | 2 | 37.781 | 13.041 | 31.942 | 2 |
| 2025-05-21T03:09:00 | 53.866622 | 8.115179 | 2.0 | 12.847 | 2 | 37.797 | 13.022 | 31.973 | 2 |
| 2025-05-21T03:10:00 | 53.863895 | 8.116794 | 2.0 | 12.815 | 2 | 37.813 | 13.003 | 32.004 | 2 |
| 2025-05-21T03:11:00 | 53.861174 | 8.118500 | 2.0 | 12.901 | 2 | 37.822 | 12.996 | 32.019 | 2 |
| 2025-05-21T03:12:00 | 53.858457 | 8.119917 | 2.0 | 12.946 | 2 | 37.857 | 13.067 | 31.992 | 2 |
| 2025-05-21T03:13:00 | 53.855760 | 8.120674 | 2.0 | 12.864 | 2 | 37.867 | 13.104 | 31.970 | 2 |
| 2025-05-21T03:14:00 | 53.853399 | 8.119333 | 2.0 | 12.793 | 2 | 37.862 | 12.993 | 32.059 | 2 |
| 2025-05-21T03:15:00 | 53.851005 | 8.118074 | 2.0 | 12.955 | 2 | 37.842 | 12.998 | 32.036 | 2 |
